<?xml version="1.0" encoding="UTF-8" standalone="no" ?>
<gpx xmlns="http://www.topografix.com/GPX/1/1" xmlns:xsi="http://www.w3.org/2001/XMLSchema-instance" xsi:schemaLocation="http://www.topografix.com/GPX/1/1 http://www.topografix.com/GPX/1/1/gpx.xsd" version="1.1" creator="VisuGPX - https://www.visugpx.com">
  <metadata>
    <name>Le Quercorb</name>
    <desc><![CDATA[Boucle VTT de 77km (pouvant être raccourcie à plusieurs moments) dans le Quercorb au départ de Chalabre et passant notamment par le lac de Montbel et le château de Puivert. De beaux points de vue sur le massif de Tabe et les crêtes du Plantaurel]]></desc>
  </metadata>
  <trk>
    <name><![CDATA[Move]]></name>
    <trkseg>
      <trkpt lat="42.9833" lon="2.00702">
        <ele>382.01131464867</ele>
        <time>2016-11-01T09:54:24.008Z</time>
      </trkpt>
      <trkpt lat="42.98329" lon="2.00688">
        <ele>381</ele>
        <time>2016-11-01T09:54:33.008Z</time>
      </trkpt>
      <trkpt lat="42.98329" lon="2.00672">
        <ele>381</ele>
        <time>2016-11-01T09:54:38.008Z</time>
      </trkpt>
      <trkpt lat="42.98332" lon="2.00661">
        <ele>381</ele>
        <time>2016-11-01T09:54:41.008Z</time>
      </trkpt>
      <trkpt lat="42.98336" lon="2.00648">
        <ele>381</ele>
        <time>2016-11-01T09:54:44.008Z</time>
      </trkpt>
      <trkpt lat="42.98338" lon="2.00635">
        <ele>381</ele>
        <time>2016-11-01T09:54:47.008Z</time>
      </trkpt>
      <trkpt lat="42.98341" lon="2.00619">
        <ele>380</ele>
        <time>2016-11-01T09:54:50.008Z</time>
      </trkpt>
      <trkpt lat="42.9834" lon="2.00601">
        <ele>380</ele>
        <time>2016-11-01T09:54:53.008Z</time>
      </trkpt>
      <trkpt lat="42.98336" lon="2.00587">
        <ele>380</ele>
        <time>2016-11-01T09:54:56.008Z</time>
      </trkpt>
      <trkpt lat="42.98331" lon="2.00578">
        <ele>379</ele>
        <time>2016-11-01T09:54:59.008Z</time>
      </trkpt>
      <trkpt lat="42.98322" lon="2.00574">
        <ele>379</ele>
        <time>2016-11-01T09:55:02.008Z</time>
      </trkpt>
      <trkpt lat="42.98315" lon="2.00568">
        <ele>379</ele>
        <time>2016-11-01T09:55:04.008Z</time>
      </trkpt>
      <trkpt lat="42.98305" lon="2.00562">
        <ele>379</ele>
        <time>2016-11-01T09:55:07.008Z</time>
      </trkpt>
      <trkpt lat="42.98295" lon="2.00556">
        <ele>379</ele>
        <time>2016-11-01T09:55:10.008Z</time>
      </trkpt>
      <trkpt lat="42.98284" lon="2.00549">
        <ele>379</ele>
        <time>2016-11-01T09:55:13.008Z</time>
      </trkpt>
      <trkpt lat="42.98275" lon="2.00544">
        <ele>379</ele>
        <time>2016-11-01T09:55:15.008Z</time>
      </trkpt>
      <trkpt lat="42.98265" lon="2.00539">
        <ele>379</ele>
        <time>2016-11-01T09:55:17.008Z</time>
      </trkpt>
      <trkpt lat="42.98255" lon="2.00534">
        <ele>379</ele>
        <time>2016-11-01T09:55:19.008Z</time>
      </trkpt>
      <trkpt lat="42.98246" lon="2.0053">
        <ele>377</ele>
        <time>2016-11-01T09:55:21.008Z</time>
      </trkpt>
      <trkpt lat="42.98236" lon="2.00528">
        <ele>377</ele>
        <time>2016-11-01T09:55:23.008Z</time>
      </trkpt>
      <trkpt lat="42.98226" lon="2.00525">
        <ele>377</ele>
        <time>2016-11-01T09:55:25.008Z</time>
      </trkpt>
      <trkpt lat="42.98218" lon="2.0052">
        <ele>377</ele>
        <time>2016-11-01T09:55:27.008Z</time>
      </trkpt>
      <trkpt lat="42.98212" lon="2.00517">
        <ele>377</ele>
        <time>2016-11-01T09:55:29.008Z</time>
      </trkpt>
      <trkpt lat="42.98205" lon="2.00512">
        <ele>377</ele>
        <time>2016-11-01T09:55:31.008Z</time>
      </trkpt>
      <trkpt lat="42.98199" lon="2.00506">
        <ele>377</ele>
        <time>2016-11-01T09:55:33.008Z</time>
      </trkpt>
      <trkpt lat="42.98196" lon="2.00498">
        <ele>377</ele>
        <time>2016-11-01T09:55:35.008Z</time>
      </trkpt>
      <trkpt lat="42.98194" lon="2.00485">
        <ele>377</ele>
        <time>2016-11-01T09:55:37.008Z</time>
      </trkpt>
      <trkpt lat="42.98198" lon="2.00472">
        <ele>377</ele>
        <time>2016-11-01T09:55:39.008Z</time>
      </trkpt>
      <trkpt lat="42.982" lon="2.00457">
        <ele>376</ele>
        <time>2016-11-01T09:55:41.008Z</time>
      </trkpt>
      <trkpt lat="42.98201" lon="2.00442">
        <ele>376</ele>
        <time>2016-11-01T09:55:43.008Z</time>
      </trkpt>
      <trkpt lat="42.98202" lon="2.00426">
        <ele>376</ele>
        <time>2016-11-01T09:55:45.008Z</time>
      </trkpt>
      <trkpt lat="42.98202" lon="2.0041">
        <ele>376</ele>
        <time>2016-11-01T09:55:47.008Z</time>
      </trkpt>
      <trkpt lat="42.98202" lon="2.00395">
        <ele>376</ele>
        <time>2016-11-01T09:55:49.008Z</time>
      </trkpt>
      <trkpt lat="42.98202" lon="2.00378">
        <ele>376</ele>
        <time>2016-11-01T09:55:51.008Z</time>
      </trkpt>
      <trkpt lat="42.98202" lon="2.00362">
        <ele>376</ele>
        <time>2016-11-01T09:55:53.008Z</time>
      </trkpt>
      <trkpt lat="42.98202" lon="2.00347">
        <ele>376</ele>
        <time>2016-11-01T09:55:55.008Z</time>
      </trkpt>
      <trkpt lat="42.98203" lon="2.00333">
        <ele>376</ele>
        <time>2016-11-01T09:55:57.008Z</time>
      </trkpt>
      <trkpt lat="42.98203" lon="2.00319">
        <ele>376</ele>
        <time>2016-11-01T09:55:59.008Z</time>
      </trkpt>
      <trkpt lat="42.98204" lon="2.00305">
        <ele>376</ele>
        <time>2016-11-01T09:56:01.008Z</time>
      </trkpt>
      <trkpt lat="42.98205" lon="2.00293">
        <ele>376</ele>
        <time>2016-11-01T09:56:03.008Z</time>
      </trkpt>
      <trkpt lat="42.98204" lon="2.00281">
        <ele>376</ele>
        <time>2016-11-01T09:56:05.008Z</time>
      </trkpt>
      <trkpt lat="42.98204" lon="2.00269">
        <ele>376</ele>
        <time>2016-11-01T09:56:07.008Z</time>
      </trkpt>
      <trkpt lat="42.98205" lon="2.00257">
        <ele>376</ele>
        <time>2016-11-01T09:56:09.008Z</time>
      </trkpt>
      <trkpt lat="42.98205" lon="2.00245">
        <ele>377</ele>
        <time>2016-11-01T09:56:11.008Z</time>
      </trkpt>
      <trkpt lat="42.98206" lon="2.00232">
        <ele>377</ele>
        <time>2016-11-01T09:56:13.008Z</time>
      </trkpt>
      <trkpt lat="42.98209" lon="2.00221">
        <ele>377</ele>
        <time>2016-11-01T09:56:15.008Z</time>
      </trkpt>
      <trkpt lat="42.98215" lon="2.00209">
        <ele>377</ele>
        <time>2016-11-01T09:56:18.008Z</time>
      </trkpt>
      <trkpt lat="42.98216" lon="2.00201">
        <ele>379</ele>
        <time>2016-11-01T09:56:21.008Z</time>
      </trkpt>
      <trkpt lat="42.98221" lon="2.002">
        <ele>379</ele>
        <time>2016-11-01T09:56:41.008Z</time>
      </trkpt>
      <trkpt lat="42.98228" lon="2.00203">
        <ele>379</ele>
        <time>2016-11-01T09:56:43.008Z</time>
      </trkpt>
      <trkpt lat="42.98237" lon="2.00205">
        <ele>379</ele>
        <time>2016-11-01T09:56:45.008Z</time>
      </trkpt>
      <trkpt lat="42.98243" lon="2.00206">
        <ele>379</ele>
        <time>2016-11-01T09:56:46.008Z</time>
      </trkpt>
      <trkpt lat="42.98249" lon="2.00205">
        <ele>379</ele>
        <time>2016-11-01T09:56:47.008Z</time>
      </trkpt>
      <trkpt lat="42.98255" lon="2.00203">
        <ele>379</ele>
        <time>2016-11-01T09:56:48.008Z</time>
      </trkpt>
      <trkpt lat="42.98261" lon="2.002">
        <ele>379</ele>
        <time>2016-11-01T09:56:49.008Z</time>
      </trkpt>
      <trkpt lat="42.98268" lon="2.00195">
        <ele>378.3460096</ele>
        <time>2016-11-01T09:56:50.008Z</time>
      </trkpt>
      <trkpt lat="42.98274" lon="2.00188">
        <ele>376</ele>
        <time>2016-11-01T09:56:51.008Z</time>
      </trkpt>
      <trkpt lat="42.9828" lon="2.00182">
        <ele>376</ele>
        <time>2016-11-01T09:56:52.008Z</time>
      </trkpt>
      <trkpt lat="42.98285" lon="2.00175">
        <ele>376</ele>
        <time>2016-11-01T09:56:53.008Z</time>
      </trkpt>
      <trkpt lat="42.98295" lon="2.00162">
        <ele>375.7820032</ele>
        <time>2016-11-01T09:56:55.008Z</time>
      </trkpt>
      <trkpt lat="42.98304" lon="2.0015">
        <ele>375</ele>
        <time>2016-11-01T09:56:57.008Z</time>
      </trkpt>
      <trkpt lat="42.98314" lon="2.00138">
        <ele>375</ele>
        <time>2016-11-01T09:56:59.008Z</time>
      </trkpt>
      <trkpt lat="42.98323" lon="2.0013">
        <ele>376</ele>
        <time>2016-11-01T09:57:01.008Z</time>
      </trkpt>
      <trkpt lat="42.98329" lon="2.00126">
        <ele>376</ele>
        <time>2016-11-01T09:57:02.008Z</time>
      </trkpt>
      <trkpt lat="42.98339" lon="2.00121">
        <ele>376</ele>
        <time>2016-11-01T09:57:04.008Z</time>
      </trkpt>
      <trkpt lat="42.98344" lon="2.00118">
        <ele>376</ele>
        <time>2016-11-01T09:57:05.008Z</time>
      </trkpt>
      <trkpt lat="42.98353" lon="2.00111">
        <ele>376</ele>
        <time>2016-11-01T09:57:07.008Z</time>
      </trkpt>
      <trkpt lat="42.98363" lon="2.00106">
        <ele>376</ele>
        <time>2016-11-01T09:57:09.008Z</time>
      </trkpt>
      <trkpt lat="42.98374" lon="2.001">
        <ele>376</ele>
        <time>2016-11-01T09:57:11.008Z</time>
      </trkpt>
      <trkpt lat="42.98385" lon="2.00095">
        <ele>376</ele>
        <time>2016-11-01T09:57:13.008Z</time>
      </trkpt>
      <trkpt lat="42.98396" lon="2.00091">
        <ele>376</ele>
        <time>2016-11-01T09:57:15.008Z</time>
      </trkpt>
      <trkpt lat="42.98402" lon="2.00089">
        <ele>376</ele>
        <time>2016-11-01T09:57:16.008Z</time>
      </trkpt>
      <trkpt lat="42.98409" lon="2.00087">
        <ele>376</ele>
        <time>2016-11-01T09:57:17.008Z</time>
      </trkpt>
      <trkpt lat="42.98415" lon="2.00085">
        <ele>376</ele>
        <time>2016-11-01T09:57:18.008Z</time>
      </trkpt>
      <trkpt lat="42.98422" lon="2.00082">
        <ele>376</ele>
        <time>2016-11-01T09:57:19.008Z</time>
      </trkpt>
      <trkpt lat="42.98428" lon="2.00081">
        <ele>375.7820032</ele>
        <time>2016-11-01T09:57:20.008Z</time>
      </trkpt>
      <trkpt lat="42.98435" lon="2.00079">
        <ele>375</ele>
        <time>2016-11-01T09:57:21.008Z</time>
      </trkpt>
      <trkpt lat="42.98441" lon="2.00077">
        <ele>375</ele>
        <time>2016-11-01T09:57:22.008Z</time>
      </trkpt>
      <trkpt lat="42.98448" lon="2.00075">
        <ele>375</ele>
        <time>2016-11-01T09:57:23.008Z</time>
      </trkpt>
      <trkpt lat="42.98454" lon="2.00073">
        <ele>375</ele>
        <time>2016-11-01T09:57:24.008Z</time>
      </trkpt>
      <trkpt lat="42.98461" lon="2.00072">
        <ele>375</ele>
        <time>2016-11-01T09:57:25.008Z</time>
      </trkpt>
      <trkpt lat="42.98467" lon="2.0007">
        <ele>375</ele>
        <time>2016-11-01T09:57:26.008Z</time>
      </trkpt>
      <trkpt lat="42.98479" lon="2.00066">
        <ele>375</ele>
        <time>2016-11-01T09:57:28.008Z</time>
      </trkpt>
      <trkpt lat="42.98491" lon="2.00061">
        <ele>375</ele>
        <time>2016-11-01T09:57:30.008Z</time>
      </trkpt>
      <trkpt lat="42.98501" lon="2.00057">
        <ele>375</ele>
        <time>2016-11-01T09:57:32.008Z</time>
      </trkpt>
      <trkpt lat="42.98512" lon="2.00051">
        <ele>375</ele>
        <time>2016-11-01T09:57:34.008Z</time>
      </trkpt>
      <trkpt lat="42.98521" lon="2.00046">
        <ele>375</ele>
        <time>2016-11-01T09:57:36.008Z</time>
      </trkpt>
      <trkpt lat="42.9853" lon="2.00041">
        <ele>375</ele>
        <time>2016-11-01T09:57:38.008Z</time>
      </trkpt>
      <trkpt lat="42.98539" lon="2.00036">
        <ele>375.6539904</ele>
        <time>2016-11-01T09:57:40.008Z</time>
      </trkpt>
      <trkpt lat="42.98547" lon="2.00031">
        <ele>378</ele>
        <time>2016-11-01T09:57:42.008Z</time>
      </trkpt>
      <trkpt lat="42.98555" lon="2.00026">
        <ele>378</ele>
        <time>2016-11-01T09:57:44.008Z</time>
      </trkpt>
      <trkpt lat="42.98563" lon="2.00023">
        <ele>381</ele>
        <time>2016-11-01T09:57:46.008Z</time>
      </trkpt>
      <trkpt lat="42.9857" lon="2.0002">
        <ele>381</ele>
        <time>2016-11-01T09:57:48.008Z</time>
      </trkpt>
      <trkpt lat="42.98577" lon="2.00017">
        <ele>381.4359936</ele>
        <time>2016-11-01T09:57:50.008Z</time>
      </trkpt>
      <trkpt lat="42.98583" lon="2.00014">
        <ele>383.2179968</ele>
        <time>2016-11-01T09:57:52.008Z</time>
      </trkpt>
      <trkpt lat="42.98589" lon="2.00012">
        <ele>384.4359936</ele>
        <time>2016-11-01T09:57:54.008Z</time>
      </trkpt>
      <trkpt lat="42.98598" lon="2.00008">
        <ele>386.21010033099</ele>
        <time>2016-11-01T09:57:57.008Z</time>
      </trkpt>
      <trkpt lat="42.98606" lon="2.00004">
        <ele>387.2179968</ele>
        <time>2016-11-01T09:58:00.008Z</time>
      </trkpt>
      <trkpt lat="42.98613" lon="2">
        <ele>388</ele>
        <time>2016-11-01T09:58:03.008Z</time>
      </trkpt>
      <trkpt lat="42.98622" lon="1.99994">
        <ele>388</ele>
        <time>2016-11-01T09:58:07.008Z</time>
      </trkpt>
      <trkpt lat="42.9863" lon="1.99989">
        <ele>388.4359936</ele>
        <time>2016-11-01T09:58:10.008Z</time>
      </trkpt>
      <trkpt lat="42.98638" lon="1.9998">
        <ele>390</ele>
        <time>2016-11-01T09:58:13.008Z</time>
      </trkpt>
      <trkpt lat="42.98644" lon="1.99975">
        <ele>390.4359936</ele>
        <time>2016-11-01T09:58:15.008Z</time>
      </trkpt>
      <trkpt lat="42.98649" lon="1.99969">
        <ele>392</ele>
        <time>2016-11-01T09:58:17.008Z</time>
      </trkpt>
      <trkpt lat="42.98653" lon="1.99962">
        <ele>392</ele>
        <time>2016-11-01T09:58:19.008Z</time>
      </trkpt>
      <trkpt lat="42.98656" lon="1.99956">
        <ele>393</ele>
        <time>2016-11-01T09:58:21.008Z</time>
      </trkpt>
      <trkpt lat="42.9866" lon="1.9995">
        <ele>393</ele>
        <time>2016-11-01T09:58:23.008Z</time>
      </trkpt>
      <trkpt lat="42.98662" lon="1.99947">
        <ele>393</ele>
        <time>2016-11-01T09:58:24.008Z</time>
      </trkpt>
      <trkpt lat="42.98665" lon="1.9994">
        <ele>393</ele>
        <time>2016-11-01T09:58:26.008Z</time>
      </trkpt>
      <trkpt lat="42.98668" lon="1.99933">
        <ele>393</ele>
        <time>2016-11-01T09:58:28.008Z</time>
      </trkpt>
      <trkpt lat="42.9867" lon="1.99926">
        <ele>393</ele>
        <time>2016-11-01T09:58:30.008Z</time>
      </trkpt>
      <trkpt lat="42.98673" lon="1.99919">
        <ele>393</ele>
        <time>2016-11-01T09:58:32.008Z</time>
      </trkpt>
      <trkpt lat="42.98675" lon="1.99911">
        <ele>393</ele>
        <time>2016-11-01T09:58:34.008Z</time>
      </trkpt>
      <trkpt lat="42.98677" lon="1.99903">
        <ele>393</ele>
        <time>2016-11-01T09:58:36.008Z</time>
      </trkpt>
      <trkpt lat="42.98679" lon="1.99896">
        <ele>393</ele>
        <time>2016-11-01T09:58:38.008Z</time>
      </trkpt>
      <trkpt lat="42.98681" lon="1.99888">
        <ele>393.4359936</ele>
        <time>2016-11-01T09:58:40.008Z</time>
      </trkpt>
      <trkpt lat="42.98683" lon="1.99881">
        <ele>395</ele>
        <time>2016-11-01T09:58:42.008Z</time>
      </trkpt>
      <trkpt lat="42.98684" lon="1.99872">
        <ele>395</ele>
        <time>2016-11-01T09:58:44.008Z</time>
      </trkpt>
      <trkpt lat="42.98686" lon="1.99863">
        <ele>395</ele>
        <time>2016-11-01T09:58:46.008Z</time>
      </trkpt>
      <trkpt lat="42.98687" lon="1.99854">
        <ele>395</ele>
        <time>2016-11-01T09:58:48.008Z</time>
      </trkpt>
      <trkpt lat="42.98689" lon="1.99844">
        <ele>395.2179968</ele>
        <time>2016-11-01T09:58:50.008Z</time>
      </trkpt>
      <trkpt lat="42.98689" lon="1.99835">
        <ele>396</ele>
        <time>2016-11-01T09:58:52.008Z</time>
      </trkpt>
      <trkpt lat="42.9869" lon="1.99825">
        <ele>396</ele>
        <time>2016-11-01T09:58:54.008Z</time>
      </trkpt>
      <trkpt lat="42.9869" lon="1.99815">
        <ele>396</ele>
        <time>2016-11-01T09:58:56.008Z</time>
      </trkpt>
      <trkpt lat="42.98689" lon="1.99806">
        <ele>396</ele>
        <time>2016-11-01T09:58:58.008Z</time>
      </trkpt>
      <trkpt lat="42.98688" lon="1.99797">
        <ele>396.6539904</ele>
        <time>2016-11-01T09:59:00.008Z</time>
      </trkpt>
      <trkpt lat="42.98687" lon="1.99787">
        <ele>399</ele>
        <time>2016-11-01T09:59:02.008Z</time>
      </trkpt>
      <trkpt lat="42.98685" lon="1.99778">
        <ele>399</ele>
        <time>2016-11-01T09:59:04.008Z</time>
      </trkpt>
      <trkpt lat="42.98685" lon="1.99768">
        <ele>400</ele>
        <time>2016-11-01T09:59:06.008Z</time>
      </trkpt>
      <trkpt lat="42.98684" lon="1.99759">
        <ele>400</ele>
        <time>2016-11-01T09:59:08.008Z</time>
      </trkpt>
      <trkpt lat="42.98682" lon="1.9975">
        <ele>400.2179968</ele>
        <time>2016-11-01T09:59:10.008Z</time>
      </trkpt>
      <trkpt lat="42.9868" lon="1.99742">
        <ele>401</ele>
        <time>2016-11-01T09:59:12.008Z</time>
      </trkpt>
      <trkpt lat="42.98677" lon="1.99733">
        <ele>401</ele>
        <time>2016-11-01T09:59:14.008Z</time>
      </trkpt>
      <trkpt lat="42.98674" lon="1.99726">
        <ele>401</ele>
        <time>2016-11-01T09:59:16.008Z</time>
      </trkpt>
      <trkpt lat="42.98671" lon="1.99719">
        <ele>401</ele>
        <time>2016-11-01T09:59:18.008Z</time>
      </trkpt>
      <trkpt lat="42.98667" lon="1.99713">
        <ele>401.43167819938</ele>
        <time>2016-11-01T09:59:20.008Z</time>
      </trkpt>
      <trkpt lat="42.98664" lon="1.99706">
        <ele>403</ele>
        <time>2016-11-01T09:59:22.008Z</time>
      </trkpt>
      <trkpt lat="42.98661" lon="1.99699">
        <ele>403</ele>
        <time>2016-11-01T09:59:24.008Z</time>
      </trkpt>
      <trkpt lat="42.98658" lon="1.99693">
        <ele>403.6539904</ele>
        <time>2016-11-01T09:59:26.008Z</time>
      </trkpt>
      <trkpt lat="42.98655" lon="1.99686">
        <ele>406</ele>
        <time>2016-11-01T09:59:28.008Z</time>
      </trkpt>
      <trkpt lat="42.98654" lon="1.99682">
        <ele>406</ele>
        <time>2016-11-01T09:59:29.008Z</time>
      </trkpt>
      <trkpt lat="42.98652" lon="1.99674">
        <ele>406.2179968</ele>
        <time>2016-11-01T09:59:31.008Z</time>
      </trkpt>
      <trkpt lat="42.98652" lon="1.9967">
        <ele>407</ele>
        <time>2016-11-01T09:59:32.008Z</time>
      </trkpt>
      <trkpt lat="42.98652" lon="1.99661">
        <ele>407</ele>
        <time>2016-11-01T09:59:34.008Z</time>
      </trkpt>
      <trkpt lat="42.98652" lon="1.99653">
        <ele>407.4359936</ele>
        <time>2016-11-01T09:59:36.008Z</time>
      </trkpt>
      <trkpt lat="42.98654" lon="1.99646">
        <ele>409</ele>
        <time>2016-11-01T09:59:38.008Z</time>
      </trkpt>
      <trkpt lat="42.98657" lon="1.99634">
        <ele>409.2179968</ele>
        <time>2016-11-01T09:59:41.008Z</time>
      </trkpt>
      <trkpt lat="42.98662" lon="1.99624">
        <ele>410</ele>
        <time>2016-11-01T09:59:44.008Z</time>
      </trkpt>
      <trkpt lat="42.98669" lon="1.99614">
        <ele>411</ele>
        <time>2016-11-01T09:59:47.008Z</time>
      </trkpt>
      <trkpt lat="42.98676" lon="1.99605">
        <ele>411</ele>
        <time>2016-11-01T09:59:50.008Z</time>
      </trkpt>
      <trkpt lat="42.98683" lon="1.99596">
        <ele>412</ele>
        <time>2016-11-01T09:59:53.008Z</time>
      </trkpt>
      <trkpt lat="42.9869" lon="1.99587">
        <ele>412</ele>
        <time>2016-11-01T09:59:56.008Z</time>
      </trkpt>
      <trkpt lat="42.98697" lon="1.99579">
        <ele>412</ele>
        <time>2016-11-01T09:59:59.008Z</time>
      </trkpt>
      <trkpt lat="42.98704" lon="1.99571">
        <ele>414</ele>
        <time>2016-11-01T10:00:02.008Z</time>
      </trkpt>
      <trkpt lat="42.98711" lon="1.99563">
        <ele>414</ele>
        <time>2016-11-01T10:00:05.008Z</time>
      </trkpt>
      <trkpt lat="42.98717" lon="1.99555">
        <ele>416</ele>
        <time>2016-11-01T10:00:08.008Z</time>
      </trkpt>
      <trkpt lat="42.98724" lon="1.99546">
        <ele>416.4359936</ele>
        <time>2016-11-01T10:00:11.008Z</time>
      </trkpt>
      <trkpt lat="42.98729" lon="1.99537">
        <ele>418</ele>
        <time>2016-11-01T10:00:14.008Z</time>
      </trkpt>
      <trkpt lat="42.98735" lon="1.99521">
        <ele>418</ele>
        <time>2016-11-01T10:00:18.008Z</time>
      </trkpt>
      <trkpt lat="42.98738" lon="1.99505">
        <ele>419</ele>
        <time>2016-11-01T10:00:22.008Z</time>
      </trkpt>
      <trkpt lat="42.98737" lon="1.99491">
        <ele>419</ele>
        <time>2016-11-01T10:00:26.008Z</time>
      </trkpt>
      <trkpt lat="42.98734" lon="1.99478">
        <ele>419</ele>
        <time>2016-11-01T10:00:30.008Z</time>
      </trkpt>
      <trkpt lat="42.98728" lon="1.99462">
        <ele>421</ele>
        <time>2016-11-01T10:00:34.008Z</time>
      </trkpt>
      <trkpt lat="42.98723" lon="1.99451">
        <ele>421</ele>
        <time>2016-11-01T10:00:36.008Z</time>
      </trkpt>
      <trkpt lat="42.98719" lon="1.9944">
        <ele>421</ele>
        <time>2016-11-01T10:00:38.008Z</time>
      </trkpt>
      <trkpt lat="42.98715" lon="1.9943">
        <ele>421</ele>
        <time>2016-11-01T10:00:40.008Z</time>
      </trkpt>
      <trkpt lat="42.98711" lon="1.9942">
        <ele>421</ele>
        <time>2016-11-01T10:00:42.008Z</time>
      </trkpt>
      <trkpt lat="42.98707" lon="1.99411">
        <ele>421</ele>
        <time>2016-11-01T10:00:44.008Z</time>
      </trkpt>
      <trkpt lat="42.98702" lon="1.99396">
        <ele>421</ele>
        <time>2016-11-01T10:00:47.008Z</time>
      </trkpt>
      <trkpt lat="42.98698" lon="1.99386">
        <ele>421</ele>
        <time>2016-11-01T10:00:49.008Z</time>
      </trkpt>
      <trkpt lat="42.98694" lon="1.99376">
        <ele>421.4359936</ele>
        <time>2016-11-01T10:00:51.008Z</time>
      </trkpt>
      <trkpt lat="42.9869" lon="1.99366">
        <ele>423</ele>
        <time>2016-11-01T10:00:53.008Z</time>
      </trkpt>
      <trkpt lat="42.98686" lon="1.99358">
        <ele>423</ele>
        <time>2016-11-01T10:00:55.008Z</time>
      </trkpt>
      <trkpt lat="42.98682" lon="1.9935">
        <ele>423</ele>
        <time>2016-11-01T10:00:57.008Z</time>
      </trkpt>
      <trkpt lat="42.98676" lon="1.99343">
        <ele>423</ele>
        <time>2016-11-01T10:00:59.008Z</time>
      </trkpt>
      <trkpt lat="42.98671" lon="1.99335">
        <ele>423.4359936</ele>
        <time>2016-11-01T10:01:01.008Z</time>
      </trkpt>
      <trkpt lat="42.98666" lon="1.99328">
        <ele>425</ele>
        <time>2016-11-01T10:01:03.008Z</time>
      </trkpt>
      <trkpt lat="42.98661" lon="1.99321">
        <ele>425</ele>
        <time>2016-11-01T10:01:05.008Z</time>
      </trkpt>
      <trkpt lat="42.98658" lon="1.99313">
        <ele>427</ele>
        <time>2016-11-01T10:01:07.008Z</time>
      </trkpt>
      <trkpt lat="42.98654" lon="1.99305">
        <ele>427</ele>
        <time>2016-11-01T10:01:09.008Z</time>
      </trkpt>
      <trkpt lat="42.98651" lon="1.99296">
        <ele>427.21010033099</ele>
        <time>2016-11-01T10:01:11.008Z</time>
      </trkpt>
      <trkpt lat="42.98647" lon="1.99288">
        <ele>428</ele>
        <time>2016-11-01T10:01:13.008Z</time>
      </trkpt>
      <trkpt lat="42.98645" lon="1.99283">
        <ele>428</ele>
        <time>2016-11-01T10:01:14.008Z</time>
      </trkpt>
      <trkpt lat="42.98643" lon="1.99278">
        <ele>428</ele>
        <time>2016-11-01T10:01:15.008Z</time>
      </trkpt>
      <trkpt lat="42.98638" lon="1.99267">
        <ele>428</ele>
        <time>2016-11-01T10:01:17.008Z</time>
      </trkpt>
      <trkpt lat="42.98636" lon="1.99261">
        <ele>428</ele>
        <time>2016-11-01T10:01:18.008Z</time>
      </trkpt>
      <trkpt lat="42.9863" lon="1.99249">
        <ele>428</ele>
        <time>2016-11-01T10:01:20.008Z</time>
      </trkpt>
      <trkpt lat="42.98627" lon="1.99242">
        <ele>428</ele>
        <time>2016-11-01T10:01:21.008Z</time>
      </trkpt>
      <trkpt lat="42.98624" lon="1.99235">
        <ele>428</ele>
        <time>2016-11-01T10:01:22.008Z</time>
      </trkpt>
      <trkpt lat="42.98617" lon="1.99222">
        <ele>428</ele>
        <time>2016-11-01T10:01:24.008Z</time>
      </trkpt>
      <trkpt lat="42.9861" lon="1.99211">
        <ele>428</ele>
        <time>2016-11-01T10:01:26.008Z</time>
      </trkpt>
      <trkpt lat="42.98603" lon="1.992">
        <ele>428</ele>
        <time>2016-11-01T10:01:28.008Z</time>
      </trkpt>
      <trkpt lat="42.98596" lon="1.99189">
        <ele>428</ele>
        <time>2016-11-01T10:01:30.008Z</time>
      </trkpt>
      <trkpt lat="42.98588" lon="1.99177">
        <ele>428</ele>
        <time>2016-11-01T10:01:32.008Z</time>
      </trkpt>
      <trkpt lat="42.9858" lon="1.99166">
        <ele>428</ele>
        <time>2016-11-01T10:01:34.008Z</time>
      </trkpt>
      <trkpt lat="42.98573" lon="1.99156">
        <ele>428</ele>
        <time>2016-11-01T10:01:36.008Z</time>
      </trkpt>
      <trkpt lat="42.98566" lon="1.99146">
        <ele>428</ele>
        <time>2016-11-01T10:01:38.008Z</time>
      </trkpt>
      <trkpt lat="42.98559" lon="1.99135">
        <ele>428</ele>
        <time>2016-11-01T10:01:40.008Z</time>
      </trkpt>
      <trkpt lat="42.98553" lon="1.99124">
        <ele>430</ele>
        <time>2016-11-01T10:01:42.008Z</time>
      </trkpt>
      <trkpt lat="42.98548" lon="1.99113">
        <ele>430</ele>
        <time>2016-11-01T10:01:44.008Z</time>
      </trkpt>
      <trkpt lat="42.98542" lon="1.99103">
        <ele>430</ele>
        <time>2016-11-01T10:01:46.008Z</time>
      </trkpt>
      <trkpt lat="42.98538" lon="1.99093">
        <ele>430</ele>
        <time>2016-11-01T10:01:48.008Z</time>
      </trkpt>
      <trkpt lat="42.98536" lon="1.99084">
        <ele>430</ele>
        <time>2016-11-01T10:01:50.008Z</time>
      </trkpt>
      <trkpt lat="42.98533" lon="1.99074">
        <ele>433</ele>
        <time>2016-11-01T10:01:52.008Z</time>
      </trkpt>
      <trkpt lat="42.98532" lon="1.99069">
        <ele>433</ele>
        <time>2016-11-01T10:01:53.008Z</time>
      </trkpt>
      <trkpt lat="42.98529" lon="1.99055">
        <ele>433.6539904</ele>
        <time>2016-11-01T10:01:56.008Z</time>
      </trkpt>
      <trkpt lat="42.98527" lon="1.99042">
        <ele>436</ele>
        <time>2016-11-01T10:01:59.008Z</time>
      </trkpt>
      <trkpt lat="42.98525" lon="1.99029">
        <ele>437</ele>
        <time>2016-11-01T10:02:02.008Z</time>
      </trkpt>
      <trkpt lat="42.98524" lon="1.99016">
        <ele>437</ele>
        <time>2016-11-01T10:02:05.008Z</time>
      </trkpt>
      <trkpt lat="42.98523" lon="1.99003">
        <ele>438</ele>
        <time>2016-11-01T10:02:08.008Z</time>
      </trkpt>
      <trkpt lat="42.98522" lon="1.98989">
        <ele>438.2179968</ele>
        <time>2016-11-01T10:02:11.008Z</time>
      </trkpt>
      <trkpt lat="42.98519" lon="1.98975">
        <ele>439</ele>
        <time>2016-11-01T10:02:14.008Z</time>
      </trkpt>
      <trkpt lat="42.98517" lon="1.98965">
        <ele>439</ele>
        <time>2016-11-01T10:02:16.008Z</time>
      </trkpt>
      <trkpt lat="42.98514" lon="1.9895">
        <ele>439</ele>
        <time>2016-11-01T10:02:19.008Z</time>
      </trkpt>
      <trkpt lat="42.98511" lon="1.98935">
        <ele>441</ele>
        <time>2016-11-01T10:02:22.008Z</time>
      </trkpt>
      <trkpt lat="42.98509" lon="1.9892">
        <ele>441</ele>
        <time>2016-11-01T10:02:25.008Z</time>
      </trkpt>
      <trkpt lat="42.98505" lon="1.98906">
        <ele>441</ele>
        <time>2016-11-01T10:02:28.008Z</time>
      </trkpt>
      <trkpt lat="42.98501" lon="1.98893">
        <ele>441.4359936</ele>
        <time>2016-11-01T10:02:31.008Z</time>
      </trkpt>
      <trkpt lat="42.98495" lon="1.9888">
        <ele>443</ele>
        <time>2016-11-01T10:02:34.008Z</time>
      </trkpt>
      <trkpt lat="42.9849" lon="1.98866">
        <ele>443</ele>
        <time>2016-11-01T10:02:37.008Z</time>
      </trkpt>
      <trkpt lat="42.98487" lon="1.98856">
        <ele>443</ele>
        <time>2016-11-01T10:02:39.008Z</time>
      </trkpt>
      <trkpt lat="42.98484" lon="1.98846">
        <ele>443.4359936</ele>
        <time>2016-11-01T10:02:41.008Z</time>
      </trkpt>
      <trkpt lat="42.98481" lon="1.98834">
        <ele>445</ele>
        <time>2016-11-01T10:02:44.008Z</time>
      </trkpt>
      <trkpt lat="42.98478" lon="1.98819">
        <ele>448</ele>
        <time>2016-11-01T10:02:47.008Z</time>
      </trkpt>
      <trkpt lat="42.98474" lon="1.9881">
        <ele>448</ele>
        <time>2016-11-01T10:02:49.008Z</time>
      </trkpt>
      <trkpt lat="42.9847" lon="1.98801">
        <ele>448.2179968</ele>
        <time>2016-11-01T10:02:51.008Z</time>
      </trkpt>
      <trkpt lat="42.98467" lon="1.98793">
        <ele>449</ele>
        <time>2016-11-01T10:02:53.008Z</time>
      </trkpt>
      <trkpt lat="42.98465" lon="1.98783">
        <ele>449</ele>
        <time>2016-11-01T10:02:55.008Z</time>
      </trkpt>
      <trkpt lat="42.98463" lon="1.98773">
        <ele>449</ele>
        <time>2016-11-01T10:02:57.008Z</time>
      </trkpt>
      <trkpt lat="42.98459" lon="1.98759">
        <ele>449</ele>
        <time>2016-11-01T10:03:00.008Z</time>
      </trkpt>
      <trkpt lat="42.98456" lon="1.98746">
        <ele>449</ele>
        <time>2016-11-01T10:03:03.008Z</time>
      </trkpt>
      <trkpt lat="42.98452" lon="1.98734">
        <ele>449</ele>
        <time>2016-11-01T10:03:06.008Z</time>
      </trkpt>
      <trkpt lat="42.98448" lon="1.98722">
        <ele>449</ele>
        <time>2016-11-01T10:03:09.008Z</time>
      </trkpt>
      <trkpt lat="42.98443" lon="1.98709">
        <ele>450</ele>
        <time>2016-11-01T10:03:12.008Z</time>
      </trkpt>
      <trkpt lat="42.98438" lon="1.98694">
        <ele>450</ele>
        <time>2016-11-01T10:03:15.008Z</time>
      </trkpt>
      <trkpt lat="42.98433" lon="1.98679">
        <ele>450</ele>
        <time>2016-11-01T10:03:19.008Z</time>
      </trkpt>
      <trkpt lat="42.98428" lon="1.98667">
        <ele>453</ele>
        <time>2016-11-01T10:03:23.008Z</time>
      </trkpt>
      <trkpt lat="42.98422" lon="1.98653">
        <ele>455</ele>
        <time>2016-11-01T10:03:28.008Z</time>
      </trkpt>
      <trkpt lat="42.98417" lon="1.98637">
        <ele>457</ele>
        <time>2016-11-01T10:03:33.008Z</time>
      </trkpt>
      <trkpt lat="42.98414" lon="1.98619">
        <ele>457</ele>
        <time>2016-11-01T10:03:36.008Z</time>
      </trkpt>
      <trkpt lat="42.98411" lon="1.98603">
        <ele>457</ele>
        <time>2016-11-01T10:03:39.008Z</time>
      </trkpt>
      <trkpt lat="42.98407" lon="1.98583">
        <ele>455</ele>
        <time>2016-11-01T10:03:42.008Z</time>
      </trkpt>
      <trkpt lat="42.98404" lon="1.98568">
        <ele>455</ele>
        <time>2016-11-01T10:03:44.008Z</time>
      </trkpt>
      <trkpt lat="42.98399" lon="1.9855">
        <ele>455</ele>
        <time>2016-11-01T10:03:47.008Z</time>
      </trkpt>
      <trkpt lat="42.98394" lon="1.98537">
        <ele>455</ele>
        <time>2016-11-01T10:03:50.008Z</time>
      </trkpt>
      <trkpt lat="42.98392" lon="1.98524">
        <ele>455</ele>
        <time>2016-11-01T10:03:53.008Z</time>
      </trkpt>
      <trkpt lat="42.98389" lon="1.98512">
        <ele>455</ele>
        <time>2016-11-01T10:03:56.008Z</time>
      </trkpt>
      <trkpt lat="42.98386" lon="1.98501">
        <ele>455</ele>
        <time>2016-11-01T10:03:59.008Z</time>
      </trkpt>
      <trkpt lat="42.98383" lon="1.98487">
        <ele>455</ele>
        <time>2016-11-01T10:04:02.008Z</time>
      </trkpt>
      <trkpt lat="42.98382" lon="1.98475">
        <ele>455</ele>
        <time>2016-11-01T10:04:04.008Z</time>
      </trkpt>
      <trkpt lat="42.98381" lon="1.98458">
        <ele>455</ele>
        <time>2016-11-01T10:04:07.008Z</time>
      </trkpt>
      <trkpt lat="42.98384" lon="1.98443">
        <ele>455</ele>
        <time>2016-11-01T10:04:10.008Z</time>
      </trkpt>
      <trkpt lat="42.98394" lon="1.98432">
        <ele>456</ele>
        <time>2016-11-01T10:04:13.008Z</time>
      </trkpt>
      <trkpt lat="42.98401" lon="1.98419">
        <ele>456</ele>
        <time>2016-11-01T10:04:16.008Z</time>
      </trkpt>
      <trkpt lat="42.98409" lon="1.98408">
        <ele>456</ele>
        <time>2016-11-01T10:04:19.008Z</time>
      </trkpt>
      <trkpt lat="42.98415" lon="1.98393">
        <ele>458</ele>
        <time>2016-11-01T10:04:23.008Z</time>
      </trkpt>
      <trkpt lat="42.98419" lon="1.98379">
        <ele>458</ele>
        <time>2016-11-01T10:04:27.008Z</time>
      </trkpt>
      <trkpt lat="42.98422" lon="1.98363">
        <ele>458.2179968</ele>
        <time>2016-11-01T10:04:31.008Z</time>
      </trkpt>
      <trkpt lat="42.98424" lon="1.9835">
        <ele>459</ele>
        <time>2016-11-01T10:04:35.008Z</time>
      </trkpt>
      <trkpt lat="42.98426" lon="1.98335">
        <ele>459</ele>
        <time>2016-11-01T10:04:39.008Z</time>
      </trkpt>
      <trkpt lat="42.98427" lon="1.98321">
        <ele>460</ele>
        <time>2016-11-01T10:04:43.008Z</time>
      </trkpt>
      <trkpt lat="42.98426" lon="1.98313">
        <ele>460</ele>
        <time>2016-11-01T10:04:45.008Z</time>
      </trkpt>
      <trkpt lat="42.98422" lon="1.98299">
        <ele>460</ele>
        <time>2016-11-01T10:04:49.008Z</time>
      </trkpt>
      <trkpt lat="42.98419" lon="1.98282">
        <ele>461</ele>
        <time>2016-11-01T10:04:53.008Z</time>
      </trkpt>
      <trkpt lat="42.98425" lon="1.98268">
        <ele>461</ele>
        <time>2016-11-01T10:04:57.008Z</time>
      </trkpt>
      <trkpt lat="42.98432" lon="1.98253">
        <ele>461</ele>
        <time>2016-11-01T10:05:00.008Z</time>
      </trkpt>
      <trkpt lat="42.98437" lon="1.98239">
        <ele>458</ele>
        <time>2016-11-01T10:05:03.008Z</time>
      </trkpt>
      <trkpt lat="42.98442" lon="1.98227">
        <ele>458.4359936</ele>
        <time>2016-11-01T10:05:06.008Z</time>
      </trkpt>
      <trkpt lat="42.98448" lon="1.98215">
        <ele>460</ele>
        <time>2016-11-01T10:05:09.008Z</time>
      </trkpt>
      <trkpt lat="42.98455" lon="1.98205">
        <ele>461</ele>
        <time>2016-11-01T10:05:14.008Z</time>
      </trkpt>
      <trkpt lat="42.98459" lon="1.98194">
        <ele>464</ele>
        <time>2016-11-01T10:05:20.008Z</time>
      </trkpt>
      <trkpt lat="42.9846" lon="1.9818">
        <ele>464.4359936</ele>
        <time>2016-11-01T10:05:26.008Z</time>
      </trkpt>
      <trkpt lat="42.98457" lon="1.98168">
        <ele>466</ele>
        <time>2016-11-01T10:05:32.008Z</time>
      </trkpt>
      <trkpt lat="42.98456" lon="1.98154">
        <ele>466</ele>
        <time>2016-11-01T10:05:37.008Z</time>
      </trkpt>
      <trkpt lat="42.98457" lon="1.98144">
        <ele>466</ele>
        <time>2016-11-01T10:05:49.008Z</time>
      </trkpt>
      <trkpt lat="42.98454" lon="1.98131">
        <ele>467</ele>
        <time>2016-11-01T10:05:55.008Z</time>
      </trkpt>
      <trkpt lat="42.9845" lon="1.98119">
        <ele>467</ele>
        <time>2016-11-01T10:05:59.008Z</time>
      </trkpt>
      <trkpt lat="42.98444" lon="1.98107">
        <ele>465</ele>
        <time>2016-11-01T10:06:02.008Z</time>
      </trkpt>
      <trkpt lat="42.98436" lon="1.98096">
        <ele>465</ele>
        <time>2016-11-01T10:06:04.008Z</time>
      </trkpt>
      <trkpt lat="42.98431" lon="1.98085">
        <ele>465</ele>
        <time>2016-11-01T10:06:06.008Z</time>
      </trkpt>
      <trkpt lat="42.98423" lon="1.98069">
        <ele>465</ele>
        <time>2016-11-01T10:06:09.008Z</time>
      </trkpt>
      <trkpt lat="42.98418" lon="1.98055">
        <ele>467</ele>
        <time>2016-11-01T10:06:12.008Z</time>
      </trkpt>
      <trkpt lat="42.98413" lon="1.98039">
        <ele>467.4359936</ele>
        <time>2016-11-01T10:06:16.008Z</time>
      </trkpt>
      <trkpt lat="42.98409" lon="1.98024">
        <ele>469</ele>
        <time>2016-11-01T10:06:20.008Z</time>
      </trkpt>
      <trkpt lat="42.98406" lon="1.98011">
        <ele>470</ele>
        <time>2016-11-01T10:06:23.008Z</time>
      </trkpt>
      <trkpt lat="42.98404" lon="1.97994">
        <ele>472</ele>
        <time>2016-11-01T10:06:27.008Z</time>
      </trkpt>
      <trkpt lat="42.98403" lon="1.9798">
        <ele>472</ele>
        <time>2016-11-01T10:06:30.008Z</time>
      </trkpt>
      <trkpt lat="42.98402" lon="1.97968">
        <ele>472</ele>
        <time>2016-11-01T10:06:33.008Z</time>
      </trkpt>
      <trkpt lat="42.98401" lon="1.97954">
        <ele>472</ele>
        <time>2016-11-01T10:06:37.008Z</time>
      </trkpt>
      <trkpt lat="42.984" lon="1.9794">
        <ele>472.2179968</ele>
        <time>2016-11-01T10:06:41.008Z</time>
      </trkpt>
      <trkpt lat="42.98395" lon="1.97925">
        <ele>473</ele>
        <time>2016-11-01T10:06:45.008Z</time>
      </trkpt>
      <trkpt lat="42.98392" lon="1.97913">
        <ele>473</ele>
        <time>2016-11-01T10:06:49.008Z</time>
      </trkpt>
      <trkpt lat="42.98388" lon="1.97898">
        <ele>476</ele>
        <time>2016-11-01T10:06:54.008Z</time>
      </trkpt>
      <trkpt lat="42.98385" lon="1.97884">
        <ele>478</ele>
        <time>2016-11-01T10:06:59.008Z</time>
      </trkpt>
      <trkpt lat="42.98382" lon="1.97869">
        <ele>479</ele>
        <time>2016-11-01T10:07:04.008Z</time>
      </trkpt>
      <trkpt lat="42.9838" lon="1.97855">
        <ele>480</ele>
        <time>2016-11-01T10:07:08.008Z</time>
      </trkpt>
      <trkpt lat="42.98378" lon="1.97839">
        <ele>483</ele>
        <time>2016-11-01T10:07:13.008Z</time>
      </trkpt>
      <trkpt lat="42.98376" lon="1.97825">
        <ele>484</ele>
        <time>2016-11-01T10:07:17.008Z</time>
      </trkpt>
      <trkpt lat="42.98373" lon="1.97811">
        <ele>484.21010033099</ele>
        <time>2016-11-01T10:07:21.008Z</time>
      </trkpt>
      <trkpt lat="42.98368" lon="1.97798">
        <ele>485</ele>
        <time>2016-11-01T10:07:25.008Z</time>
      </trkpt>
      <trkpt lat="42.98363" lon="1.97787">
        <ele>485</ele>
        <time>2016-11-01T10:07:29.008Z</time>
      </trkpt>
      <trkpt lat="42.98356" lon="1.97776">
        <ele>486</ele>
        <time>2016-11-01T10:07:33.008Z</time>
      </trkpt>
      <trkpt lat="42.9835" lon="1.97766">
        <ele>486</ele>
        <time>2016-11-01T10:07:37.008Z</time>
      </trkpt>
      <trkpt lat="42.98344" lon="1.97756">
        <ele>486.6539904</ele>
        <time>2016-11-01T10:07:41.008Z</time>
      </trkpt>
      <trkpt lat="42.98335" lon="1.9775">
        <ele>489.4359936</ele>
        <time>2016-11-01T10:07:46.008Z</time>
      </trkpt>
      <trkpt lat="42.98325" lon="1.9775">
        <ele>491</ele>
        <time>2016-11-01T10:07:50.008Z</time>
      </trkpt>
      <trkpt lat="42.98315" lon="1.97752">
        <ele>492</ele>
        <time>2016-11-01T10:07:55.008Z</time>
      </trkpt>
      <trkpt lat="42.98303" lon="1.97755">
        <ele>493</ele>
        <time>2016-11-01T10:08:00.008Z</time>
      </trkpt>
      <trkpt lat="42.98292" lon="1.97758">
        <ele>493</ele>
        <time>2016-11-01T10:08:04.008Z</time>
      </trkpt>
      <trkpt lat="42.98282" lon="1.97762">
        <ele>493</ele>
        <time>2016-11-01T10:08:07.008Z</time>
      </trkpt>
      <trkpt lat="42.98271" lon="1.97766">
        <ele>493</ele>
        <time>2016-11-01T10:08:10.008Z</time>
      </trkpt>
      <trkpt lat="42.9826" lon="1.9777">
        <ele>493</ele>
        <time>2016-11-01T10:08:13.008Z</time>
      </trkpt>
      <trkpt lat="42.98249" lon="1.97773">
        <ele>493</ele>
        <time>2016-11-01T10:08:16.008Z</time>
      </trkpt>
      <trkpt lat="42.98239" lon="1.97769">
        <ele>493</ele>
        <time>2016-11-01T10:08:20.008Z</time>
      </trkpt>
      <trkpt lat="42.98232" lon="1.9776">
        <ele>494</ele>
        <time>2016-11-01T10:08:25.008Z</time>
      </trkpt>
      <trkpt lat="42.9823" lon="1.97749">
        <ele>494</ele>
        <time>2016-11-01T10:08:29.008Z</time>
      </trkpt>
      <trkpt lat="42.98233" lon="1.97738">
        <ele>495</ele>
        <time>2016-11-01T10:08:32.008Z</time>
      </trkpt>
      <trkpt lat="42.98237" lon="1.97724">
        <ele>496</ele>
        <time>2016-11-01T10:08:37.008Z</time>
      </trkpt>
      <trkpt lat="42.98241" lon="1.97709">
        <ele>498</ele>
        <time>2016-11-01T10:08:42.008Z</time>
      </trkpt>
      <trkpt lat="42.98247" lon="1.97696">
        <ele>498.4359936</ele>
        <time>2016-11-01T10:08:46.008Z</time>
      </trkpt>
      <trkpt lat="42.98253" lon="1.97684">
        <ele>500</ele>
        <time>2016-11-01T10:08:50.008Z</time>
      </trkpt>
      <trkpt lat="42.9826" lon="1.97672">
        <ele>502</ele>
        <time>2016-11-01T10:08:54.008Z</time>
      </trkpt>
      <trkpt lat="42.98267" lon="1.97662">
        <ele>503</ele>
        <time>2016-11-01T10:08:58.008Z</time>
      </trkpt>
      <trkpt lat="42.98274" lon="1.97652">
        <ele>504</ele>
        <time>2016-11-01T10:09:02.008Z</time>
      </trkpt>
      <trkpt lat="42.9828" lon="1.97644">
        <ele>504</ele>
        <time>2016-11-01T10:09:05.008Z</time>
      </trkpt>
      <trkpt lat="42.98288" lon="1.97635">
        <ele>506</ele>
        <time>2016-11-01T10:09:09.008Z</time>
      </trkpt>
      <trkpt lat="42.98295" lon="1.97627">
        <ele>508</ele>
        <time>2016-11-01T10:09:13.008Z</time>
      </trkpt>
      <trkpt lat="42.98302" lon="1.97621">
        <ele>509</ele>
        <time>2016-11-01T10:09:28.008Z</time>
      </trkpt>
      <trkpt lat="42.98306" lon="1.97615">
        <ele>509</ele>
        <time>2016-11-01T10:10:39.008Z</time>
      </trkpt>
      <trkpt lat="42.98313" lon="1.97611">
        <ele>511</ele>
        <time>2016-11-01T10:11:28.008Z</time>
      </trkpt>
      <trkpt lat="42.98321" lon="1.97607">
        <ele>512</ele>
        <time>2016-11-01T10:11:33.008Z</time>
      </trkpt>
      <trkpt lat="42.98328" lon="1.97603">
        <ele>512</ele>
        <time>2016-11-01T10:11:37.008Z</time>
      </trkpt>
      <trkpt lat="42.98335" lon="1.97599">
        <ele>512.8719872</ele>
        <time>2016-11-01T10:11:41.008Z</time>
      </trkpt>
      <trkpt lat="42.98343" lon="1.97594">
        <ele>516</ele>
        <time>2016-11-01T10:11:45.008Z</time>
      </trkpt>
      <trkpt lat="42.98351" lon="1.97589">
        <ele>518</ele>
        <time>2016-11-01T10:11:49.008Z</time>
      </trkpt>
      <trkpt lat="42.9836" lon="1.97583">
        <ele>520</ele>
        <time>2016-11-01T10:11:53.008Z</time>
      </trkpt>
      <trkpt lat="42.9837" lon="1.97575">
        <ele>521</ele>
        <time>2016-11-01T10:11:58.008Z</time>
      </trkpt>
      <trkpt lat="42.98379" lon="1.9757">
        <ele>523</ele>
        <time>2016-11-01T10:12:02.008Z</time>
      </trkpt>
      <trkpt lat="42.9839" lon="1.97567">
        <ele>524.2179968</ele>
        <time>2016-11-01T10:12:07.008Z</time>
      </trkpt>
      <trkpt lat="42.984" lon="1.97569">
        <ele>525.2179968</ele>
        <time>2016-11-01T10:12:11.008Z</time>
      </trkpt>
      <trkpt lat="42.98411" lon="1.97572">
        <ele>526</ele>
        <time>2016-11-01T10:12:15.008Z</time>
      </trkpt>
      <trkpt lat="42.98422" lon="1.97577">
        <ele>528</ele>
        <time>2016-11-01T10:12:19.008Z</time>
      </trkpt>
      <trkpt lat="42.98433" lon="1.97582">
        <ele>528</ele>
        <time>2016-11-01T10:12:23.008Z</time>
      </trkpt>
      <trkpt lat="42.98443" lon="1.97585">
        <ele>528</ele>
        <time>2016-11-01T10:12:27.008Z</time>
      </trkpt>
      <trkpt lat="42.98454" lon="1.97587">
        <ele>528.8719872</ele>
        <time>2016-11-01T10:12:31.008Z</time>
      </trkpt>
      <trkpt lat="42.98465" lon="1.97591">
        <ele>532.2179968</ele>
        <time>2016-11-01T10:12:36.008Z</time>
      </trkpt>
      <trkpt lat="42.98476" lon="1.97596">
        <ele>533.4359936</ele>
        <time>2016-11-01T10:12:41.008Z</time>
      </trkpt>
      <trkpt lat="42.98485" lon="1.97603">
        <ele>535</ele>
        <time>2016-11-01T10:12:44.008Z</time>
      </trkpt>
      <trkpt lat="42.98494" lon="1.9761">
        <ele>536</ele>
        <time>2016-11-01T10:12:47.008Z</time>
      </trkpt>
      <trkpt lat="42.985" lon="1.97619">
        <ele>536</ele>
        <time>2016-11-01T10:12:50.008Z</time>
      </trkpt>
      <trkpt lat="42.98505" lon="1.97628">
        <ele>538</ele>
        <time>2016-11-01T10:12:53.008Z</time>
      </trkpt>
      <trkpt lat="42.98509" lon="1.97638">
        <ele>538</ele>
        <time>2016-11-01T10:12:56.008Z</time>
      </trkpt>
      <trkpt lat="42.98514" lon="1.97646">
        <ele>538</ele>
        <time>2016-11-01T10:12:59.008Z</time>
      </trkpt>
      <trkpt lat="42.98519" lon="1.97654">
        <ele>540</ele>
        <time>2016-11-01T10:13:02.008Z</time>
      </trkpt>
      <trkpt lat="42.98525" lon="1.97661">
        <ele>540</ele>
        <time>2016-11-01T10:13:05.008Z</time>
      </trkpt>
      <trkpt lat="42.98534" lon="1.97668">
        <ele>542</ele>
        <time>2016-11-01T10:13:09.008Z</time>
      </trkpt>
      <trkpt lat="42.98545" lon="1.97669">
        <ele>544</ele>
        <time>2016-11-01T10:13:13.008Z</time>
      </trkpt>
      <trkpt lat="42.98555" lon="1.97667">
        <ele>545</ele>
        <time>2016-11-01T10:13:17.008Z</time>
      </trkpt>
      <trkpt lat="42.98567" lon="1.97661">
        <ele>545</ele>
        <time>2016-11-01T10:13:22.008Z</time>
      </trkpt>
      <trkpt lat="42.98578" lon="1.97655">
        <ele>545</ele>
        <time>2016-11-01T10:13:26.008Z</time>
      </trkpt>
      <trkpt lat="42.98589" lon="1.97651">
        <ele>545</ele>
        <time>2016-11-01T10:13:29.008Z</time>
      </trkpt>
      <trkpt lat="42.98601" lon="1.97647">
        <ele>546</ele>
        <time>2016-11-01T10:13:32.008Z</time>
      </trkpt>
      <trkpt lat="42.98613" lon="1.97642">
        <ele>546</ele>
        <time>2016-11-01T10:13:35.008Z</time>
      </trkpt>
      <trkpt lat="42.98624" lon="1.97636">
        <ele>546</ele>
        <time>2016-11-01T10:13:38.008Z</time>
      </trkpt>
      <trkpt lat="42.98636" lon="1.97627">
        <ele>546</ele>
        <time>2016-11-01T10:13:41.008Z</time>
      </trkpt>
      <trkpt lat="42.98645" lon="1.9762">
        <ele>546</ele>
        <time>2016-11-01T10:13:43.008Z</time>
      </trkpt>
      <trkpt lat="42.98657" lon="1.9761">
        <ele>546</ele>
        <time>2016-11-01T10:13:46.008Z</time>
      </trkpt>
      <trkpt lat="42.98666" lon="1.97603">
        <ele>546</ele>
        <time>2016-11-01T10:13:48.008Z</time>
      </trkpt>
      <trkpt lat="42.98674" lon="1.97596">
        <ele>546</ele>
        <time>2016-11-01T10:13:50.008Z</time>
      </trkpt>
      <trkpt lat="42.98688" lon="1.97588">
        <ele>546</ele>
        <time>2016-11-01T10:13:53.008Z</time>
      </trkpt>
      <trkpt lat="42.98697" lon="1.97586">
        <ele>546</ele>
        <time>2016-11-01T10:13:55.008Z</time>
      </trkpt>
      <trkpt lat="42.98708" lon="1.97586">
        <ele>546</ele>
        <time>2016-11-01T10:13:57.008Z</time>
      </trkpt>
      <trkpt lat="42.98719" lon="1.97585">
        <ele>546</ele>
        <time>2016-11-01T10:13:59.008Z</time>
      </trkpt>
      <trkpt lat="42.9873" lon="1.97583">
        <ele>546.2179968</ele>
        <time>2016-11-01T10:14:01.008Z</time>
      </trkpt>
      <trkpt lat="42.9874" lon="1.9758">
        <ele>547</ele>
        <time>2016-11-01T10:14:03.008Z</time>
      </trkpt>
      <trkpt lat="42.98755" lon="1.97576">
        <ele>547</ele>
        <time>2016-11-01T10:14:06.008Z</time>
      </trkpt>
      <trkpt lat="42.98764" lon="1.97572">
        <ele>547</ele>
        <time>2016-11-01T10:14:08.008Z</time>
      </trkpt>
      <trkpt lat="42.98779" lon="1.97569">
        <ele>547</ele>
        <time>2016-11-01T10:14:11.008Z</time>
      </trkpt>
      <trkpt lat="42.9879" lon="1.97567">
        <ele>547</ele>
        <time>2016-11-01T10:14:13.008Z</time>
      </trkpt>
      <trkpt lat="42.98801" lon="1.97565">
        <ele>547</ele>
        <time>2016-11-01T10:14:15.008Z</time>
      </trkpt>
      <trkpt lat="42.98812" lon="1.97567">
        <ele>547</ele>
        <time>2016-11-01T10:14:17.008Z</time>
      </trkpt>
      <trkpt lat="42.98823" lon="1.97571">
        <ele>547</ele>
        <time>2016-11-01T10:14:19.008Z</time>
      </trkpt>
      <trkpt lat="42.98834" lon="1.97577">
        <ele>547</ele>
        <time>2016-11-01T10:14:21.008Z</time>
      </trkpt>
      <trkpt lat="42.98846" lon="1.97584">
        <ele>547</ele>
        <time>2016-11-01T10:14:23.008Z</time>
      </trkpt>
      <trkpt lat="42.98853" lon="1.97586">
        <ele>547</ele>
        <time>2016-11-01T10:14:24.008Z</time>
      </trkpt>
      <trkpt lat="42.9886" lon="1.97588">
        <ele>547</ele>
        <time>2016-11-01T10:14:25.008Z</time>
      </trkpt>
      <trkpt lat="42.98867" lon="1.97589">
        <ele>547</ele>
        <time>2016-11-01T10:14:26.008Z</time>
      </trkpt>
      <trkpt lat="42.98873" lon="1.97589">
        <ele>547</ele>
        <time>2016-11-01T10:14:27.008Z</time>
      </trkpt>
      <trkpt lat="42.98887" lon="1.97588">
        <ele>547</ele>
        <time>2016-11-01T10:14:29.008Z</time>
      </trkpt>
      <trkpt lat="42.98899" lon="1.97584">
        <ele>546.7820032</ele>
        <time>2016-11-01T10:14:31.008Z</time>
      </trkpt>
      <trkpt lat="42.98912" lon="1.97581">
        <ele>546</ele>
        <time>2016-11-01T10:14:33.008Z</time>
      </trkpt>
      <trkpt lat="42.98923" lon="1.9758">
        <ele>546</ele>
        <time>2016-11-01T10:14:35.008Z</time>
      </trkpt>
      <trkpt lat="42.98935" lon="1.97583">
        <ele>546</ele>
        <time>2016-11-01T10:14:37.008Z</time>
      </trkpt>
      <trkpt lat="42.98946" lon="1.97587">
        <ele>546</ele>
        <time>2016-11-01T10:14:39.008Z</time>
      </trkpt>
      <trkpt lat="42.98957" lon="1.97593">
        <ele>546.2179968</ele>
        <time>2016-11-01T10:14:41.008Z</time>
      </trkpt>
      <trkpt lat="42.98968" lon="1.97599">
        <ele>547</ele>
        <time>2016-11-01T10:14:43.008Z</time>
      </trkpt>
      <trkpt lat="42.98979" lon="1.97604">
        <ele>547</ele>
        <time>2016-11-01T10:14:45.008Z</time>
      </trkpt>
      <trkpt lat="42.98989" lon="1.97607">
        <ele>547</ele>
        <time>2016-11-01T10:14:47.008Z</time>
      </trkpt>
      <trkpt lat="42.99004" lon="1.97612">
        <ele>547</ele>
        <time>2016-11-01T10:14:50.008Z</time>
      </trkpt>
      <trkpt lat="42.99014" lon="1.97614">
        <ele>547</ele>
        <time>2016-11-01T10:14:52.008Z</time>
      </trkpt>
      <trkpt lat="42.99025" lon="1.97616">
        <ele>547</ele>
        <time>2016-11-01T10:14:54.008Z</time>
      </trkpt>
      <trkpt lat="42.99036" lon="1.97616">
        <ele>547</ele>
        <time>2016-11-01T10:14:56.008Z</time>
      </trkpt>
      <trkpt lat="42.99047" lon="1.97614">
        <ele>547</ele>
        <time>2016-11-01T10:14:58.008Z</time>
      </trkpt>
      <trkpt lat="42.99058" lon="1.9761">
        <ele>547</ele>
        <time>2016-11-01T10:15:00.008Z</time>
      </trkpt>
      <trkpt lat="42.99071" lon="1.97605">
        <ele>549</ele>
        <time>2016-11-01T10:15:02.008Z</time>
      </trkpt>
      <trkpt lat="42.99082" lon="1.976">
        <ele>549</ele>
        <time>2016-11-01T10:15:04.008Z</time>
      </trkpt>
      <trkpt lat="42.99093" lon="1.97595">
        <ele>549</ele>
        <time>2016-11-01T10:15:06.008Z</time>
      </trkpt>
      <trkpt lat="42.99103" lon="1.97592">
        <ele>549</ele>
        <time>2016-11-01T10:15:08.008Z</time>
      </trkpt>
      <trkpt lat="42.99116" lon="1.97598">
        <ele>549</ele>
        <time>2016-11-01T10:15:10.008Z</time>
      </trkpt>
      <trkpt lat="42.99124" lon="1.97612">
        <ele>549</ele>
        <time>2016-11-01T10:15:12.008Z</time>
      </trkpt>
      <trkpt lat="42.99129" lon="1.97631">
        <ele>549</ele>
        <time>2016-11-01T10:15:14.008Z</time>
      </trkpt>
      <trkpt lat="42.99133" lon="1.97641">
        <ele>549</ele>
        <time>2016-11-01T10:15:15.008Z</time>
      </trkpt>
      <trkpt lat="42.99136" lon="1.9765">
        <ele>549</ele>
        <time>2016-11-01T10:15:16.008Z</time>
      </trkpt>
      <trkpt lat="42.99144" lon="1.9767">
        <ele>549</ele>
        <time>2016-11-01T10:15:18.008Z</time>
      </trkpt>
      <trkpt lat="42.99148" lon="1.9768">
        <ele>549</ele>
        <time>2016-11-01T10:15:19.008Z</time>
      </trkpt>
      <trkpt lat="42.99154" lon="1.97689">
        <ele>549</ele>
        <time>2016-11-01T10:15:20.008Z</time>
      </trkpt>
      <trkpt lat="42.9916" lon="1.97696">
        <ele>548.7820032</ele>
        <time>2016-11-01T10:15:21.008Z</time>
      </trkpt>
      <trkpt lat="42.99168" lon="1.97702">
        <ele>548</ele>
        <time>2016-11-01T10:15:22.008Z</time>
      </trkpt>
      <trkpt lat="42.99177" lon="1.97705">
        <ele>548</ele>
        <time>2016-11-01T10:15:23.008Z</time>
      </trkpt>
      <trkpt lat="42.99186" lon="1.97707">
        <ele>548</ele>
        <time>2016-11-01T10:15:24.008Z</time>
      </trkpt>
      <trkpt lat="42.99196" lon="1.97706">
        <ele>548</ele>
        <time>2016-11-01T10:15:25.008Z</time>
      </trkpt>
      <trkpt lat="42.99205" lon="1.97702">
        <ele>548</ele>
        <time>2016-11-01T10:15:26.008Z</time>
      </trkpt>
      <trkpt lat="42.99213" lon="1.97695">
        <ele>548</ele>
        <time>2016-11-01T10:15:27.008Z</time>
      </trkpt>
      <trkpt lat="42.99221" lon="1.97686">
        <ele>548</ele>
        <time>2016-11-01T10:15:28.008Z</time>
      </trkpt>
      <trkpt lat="42.99228" lon="1.97676">
        <ele>548</ele>
        <time>2016-11-01T10:15:29.008Z</time>
      </trkpt>
      <trkpt lat="42.99236" lon="1.97667">
        <ele>548</ele>
        <time>2016-11-01T10:15:30.008Z</time>
      </trkpt>
      <trkpt lat="42.99244" lon="1.97657">
        <ele>546.6920192</ele>
        <time>2016-11-01T10:15:31.008Z</time>
      </trkpt>
      <trkpt lat="42.99252" lon="1.97648">
        <ele>541.3460096</ele>
        <time>2016-11-01T10:15:32.008Z</time>
      </trkpt>
      <trkpt lat="42.9926" lon="1.97639">
        <ele>539</ele>
        <time>2016-11-01T10:15:33.008Z</time>
      </trkpt>
      <trkpt lat="42.99269" lon="1.97629">
        <ele>538.7820032</ele>
        <time>2016-11-01T10:15:34.008Z</time>
      </trkpt>
      <trkpt lat="42.99277" lon="1.97621">
        <ele>537.7820032</ele>
        <time>2016-11-01T10:15:35.008Z</time>
      </trkpt>
      <trkpt lat="42.99286" lon="1.97617">
        <ele>536.7820032</ele>
        <time>2016-11-01T10:15:36.008Z</time>
      </trkpt>
      <trkpt lat="42.99296" lon="1.97618">
        <ele>536</ele>
        <time>2016-11-01T10:15:37.008Z</time>
      </trkpt>
      <trkpt lat="42.99304" lon="1.97624">
        <ele>535.7820032</ele>
        <time>2016-11-01T10:15:38.008Z</time>
      </trkpt>
      <trkpt lat="42.99311" lon="1.97635">
        <ele>534.7820032</ele>
        <time>2016-11-01T10:15:39.008Z</time>
      </trkpt>
      <trkpt lat="42.99317" lon="1.97646">
        <ele>533.7820032</ele>
        <time>2016-11-01T10:15:40.008Z</time>
      </trkpt>
      <trkpt lat="42.99323" lon="1.97658">
        <ele>532.7820032</ele>
        <time>2016-11-01T10:15:41.008Z</time>
      </trkpt>
      <trkpt lat="42.99329" lon="1.97669">
        <ele>531.7820032</ele>
        <time>2016-11-01T10:15:42.008Z</time>
      </trkpt>
      <trkpt lat="42.99335" lon="1.97681">
        <ele>530.7820032</ele>
        <time>2016-11-01T10:15:43.008Z</time>
      </trkpt>
      <trkpt lat="42.99341" lon="1.97694">
        <ele>529.7820032</ele>
        <time>2016-11-01T10:15:44.008Z</time>
      </trkpt>
      <trkpt lat="42.99349" lon="1.97705">
        <ele>529</ele>
        <time>2016-11-01T10:15:45.008Z</time>
      </trkpt>
      <trkpt lat="42.99357" lon="1.97716">
        <ele>528.7820032</ele>
        <time>2016-11-01T10:15:46.008Z</time>
      </trkpt>
      <trkpt lat="42.99366" lon="1.97724">
        <ele>528</ele>
        <time>2016-11-01T10:15:47.008Z</time>
      </trkpt>
      <trkpt lat="42.99376" lon="1.97731">
        <ele>527.7820032</ele>
        <time>2016-11-01T10:15:48.008Z</time>
      </trkpt>
      <trkpt lat="42.99387" lon="1.97737">
        <ele>526.7820032</ele>
        <time>2016-11-01T10:15:49.008Z</time>
      </trkpt>
      <trkpt lat="42.99398" lon="1.97742">
        <ele>525.7820032</ele>
        <time>2016-11-01T10:15:50.008Z</time>
      </trkpt>
      <trkpt lat="42.99409" lon="1.97747">
        <ele>525</ele>
        <time>2016-11-01T10:15:51.008Z</time>
      </trkpt>
      <trkpt lat="42.9942" lon="1.9775">
        <ele>525</ele>
        <time>2016-11-01T10:15:52.008Z</time>
      </trkpt>
      <trkpt lat="42.99431" lon="1.97752">
        <ele>524.7820032</ele>
        <time>2016-11-01T10:15:53.008Z</time>
      </trkpt>
      <trkpt lat="42.99442" lon="1.97754">
        <ele>523.78416090031</ele>
        <time>2016-11-01T10:15:54.008Z</time>
      </trkpt>
      <trkpt lat="42.99452" lon="1.97756">
        <ele>523</ele>
        <time>2016-11-01T10:15:55.008Z</time>
      </trkpt>
      <trkpt lat="42.99462" lon="1.97758">
        <ele>523</ele>
        <time>2016-11-01T10:15:56.008Z</time>
      </trkpt>
      <trkpt lat="42.99472" lon="1.97759">
        <ele>523</ele>
        <time>2016-11-01T10:15:57.008Z</time>
      </trkpt>
      <trkpt lat="42.99481" lon="1.97759">
        <ele>523.2179968</ele>
        <time>2016-11-01T10:15:58.008Z</time>
      </trkpt>
      <trkpt lat="42.99491" lon="1.97758">
        <ele>524</ele>
        <time>2016-11-01T10:15:59.008Z</time>
      </trkpt>
      <trkpt lat="42.99499" lon="1.97754">
        <ele>524</ele>
        <time>2016-11-01T10:16:00.008Z</time>
      </trkpt>
      <trkpt lat="42.99506" lon="1.97749">
        <ele>524.2179968</ele>
        <time>2016-11-01T10:16:01.008Z</time>
      </trkpt>
      <trkpt lat="42.99513" lon="1.97742">
        <ele>525</ele>
        <time>2016-11-01T10:16:02.008Z</time>
      </trkpt>
      <trkpt lat="42.99518" lon="1.97735">
        <ele>525</ele>
        <time>2016-11-01T10:16:03.008Z</time>
      </trkpt>
      <trkpt lat="42.99524" lon="1.97727">
        <ele>525</ele>
        <time>2016-11-01T10:16:04.008Z</time>
      </trkpt>
      <trkpt lat="42.99529" lon="1.9772">
        <ele>525</ele>
        <time>2016-11-01T10:16:05.008Z</time>
      </trkpt>
      <trkpt lat="42.99535" lon="1.97714">
        <ele>525</ele>
        <time>2016-11-01T10:16:06.008Z</time>
      </trkpt>
      <trkpt lat="42.9954" lon="1.97707">
        <ele>525</ele>
        <time>2016-11-01T10:16:07.008Z</time>
      </trkpt>
      <trkpt lat="42.99545" lon="1.97702">
        <ele>525</ele>
        <time>2016-11-01T10:16:08.008Z</time>
      </trkpt>
      <trkpt lat="42.99551" lon="1.97696">
        <ele>525</ele>
        <time>2016-11-01T10:16:09.008Z</time>
      </trkpt>
      <trkpt lat="42.99556" lon="1.97691">
        <ele>525</ele>
        <time>2016-11-01T10:16:10.008Z</time>
      </trkpt>
      <trkpt lat="42.99562" lon="1.97686">
        <ele>525.6539904</ele>
        <time>2016-11-01T10:16:11.008Z</time>
      </trkpt>
      <trkpt lat="42.99567" lon="1.97681">
        <ele>528</ele>
        <time>2016-11-01T10:16:12.008Z</time>
      </trkpt>
      <trkpt lat="42.99573" lon="1.97676">
        <ele>528</ele>
        <time>2016-11-01T10:16:13.008Z</time>
      </trkpt>
      <trkpt lat="42.99578" lon="1.97672">
        <ele>528</ele>
        <time>2016-11-01T10:16:14.008Z</time>
      </trkpt>
      <trkpt lat="42.99584" lon="1.97668">
        <ele>528</ele>
        <time>2016-11-01T10:16:15.008Z</time>
      </trkpt>
      <trkpt lat="42.9959" lon="1.97664">
        <ele>528.2179968</ele>
        <time>2016-11-01T10:16:16.008Z</time>
      </trkpt>
      <trkpt lat="42.99596" lon="1.9766">
        <ele>529</ele>
        <time>2016-11-01T10:16:17.008Z</time>
      </trkpt>
      <trkpt lat="42.99602" lon="1.97657">
        <ele>529</ele>
        <time>2016-11-01T10:16:18.008Z</time>
      </trkpt>
      <trkpt lat="42.99608" lon="1.97655">
        <ele>529</ele>
        <time>2016-11-01T10:16:19.008Z</time>
      </trkpt>
      <trkpt lat="42.99614" lon="1.97654">
        <ele>529</ele>
        <time>2016-11-01T10:16:20.008Z</time>
      </trkpt>
      <trkpt lat="42.9962" lon="1.97653">
        <ele>529.2179968</ele>
        <time>2016-11-01T10:16:21.008Z</time>
      </trkpt>
      <trkpt lat="42.99626" lon="1.97653">
        <ele>530</ele>
        <time>2016-11-01T10:16:22.008Z</time>
      </trkpt>
      <trkpt lat="42.99638" lon="1.97654">
        <ele>530</ele>
        <time>2016-11-01T10:16:24.008Z</time>
      </trkpt>
      <trkpt lat="42.9965" lon="1.97655">
        <ele>530</ele>
        <time>2016-11-01T10:16:26.008Z</time>
      </trkpt>
      <trkpt lat="42.99661" lon="1.97656">
        <ele>530</ele>
        <time>2016-11-01T10:16:28.008Z</time>
      </trkpt>
      <trkpt lat="42.99672" lon="1.97658">
        <ele>530</ele>
        <time>2016-11-01T10:16:30.008Z</time>
      </trkpt>
      <trkpt lat="42.99682" lon="1.97657">
        <ele>530</ele>
        <time>2016-11-01T10:16:32.008Z</time>
      </trkpt>
      <trkpt lat="42.99693" lon="1.9765">
        <ele>530</ele>
        <time>2016-11-01T10:16:34.008Z</time>
      </trkpt>
      <trkpt lat="42.99701" lon="1.97636">
        <ele>530</ele>
        <time>2016-11-01T10:16:36.008Z</time>
      </trkpt>
      <trkpt lat="42.99705" lon="1.97628">
        <ele>530</ele>
        <time>2016-11-01T10:16:37.008Z</time>
      </trkpt>
      <trkpt lat="42.9971" lon="1.97621">
        <ele>530</ele>
        <time>2016-11-01T10:16:38.008Z</time>
      </trkpt>
      <trkpt lat="42.99722" lon="1.97616">
        <ele>530</ele>
        <time>2016-11-01T10:16:40.008Z</time>
      </trkpt>
      <trkpt lat="42.99737" lon="1.97625">
        <ele>529</ele>
        <time>2016-11-01T10:16:42.008Z</time>
      </trkpt>
      <trkpt lat="42.99751" lon="1.97634">
        <ele>529</ele>
        <time>2016-11-01T10:16:44.008Z</time>
      </trkpt>
      <trkpt lat="42.99765" lon="1.97642">
        <ele>529</ele>
        <time>2016-11-01T10:16:46.008Z</time>
      </trkpt>
      <trkpt lat="42.99772" lon="1.97645">
        <ele>529</ele>
        <time>2016-11-01T10:16:47.008Z</time>
      </trkpt>
      <trkpt lat="42.99779" lon="1.97648">
        <ele>529</ele>
        <time>2016-11-01T10:16:48.008Z</time>
      </trkpt>
      <trkpt lat="42.99788" lon="1.97651">
        <ele>529</ele>
        <time>2016-11-01T10:16:49.008Z</time>
      </trkpt>
      <trkpt lat="42.99797" lon="1.97653">
        <ele>529</ele>
        <time>2016-11-01T10:16:50.008Z</time>
      </trkpt>
      <trkpt lat="42.99806" lon="1.97655">
        <ele>527.94949834506</ele>
        <time>2016-11-01T10:16:51.008Z</time>
      </trkpt>
      <trkpt lat="42.99816" lon="1.97656">
        <ele>524</ele>
        <time>2016-11-01T10:16:52.008Z</time>
      </trkpt>
      <trkpt lat="42.99826" lon="1.97657">
        <ele>524</ele>
        <time>2016-11-01T10:16:53.008Z</time>
      </trkpt>
      <trkpt lat="42.99836" lon="1.97658">
        <ele>524</ele>
        <time>2016-11-01T10:16:54.008Z</time>
      </trkpt>
      <trkpt lat="42.99847" lon="1.97659">
        <ele>524</ele>
        <time>2016-11-01T10:16:55.008Z</time>
      </trkpt>
      <trkpt lat="42.99858" lon="1.9766">
        <ele>522.6920192</ele>
        <time>2016-11-01T10:16:56.008Z</time>
      </trkpt>
      <trkpt lat="42.9987" lon="1.97662">
        <ele>518</ele>
        <time>2016-11-01T10:16:57.008Z</time>
      </trkpt>
      <trkpt lat="42.99882" lon="1.97664">
        <ele>518</ele>
        <time>2016-11-01T10:16:58.008Z</time>
      </trkpt>
      <trkpt lat="42.99895" lon="1.97666">
        <ele>518</ele>
        <time>2016-11-01T10:16:59.008Z</time>
      </trkpt>
      <trkpt lat="42.99907" lon="1.97667">
        <ele>518</ele>
        <time>2016-11-01T10:17:00.008Z</time>
      </trkpt>
      <trkpt lat="42.99919" lon="1.9767">
        <ele>516.4740224</ele>
        <time>2016-11-01T10:17:01.008Z</time>
      </trkpt>
      <trkpt lat="42.99931" lon="1.97672">
        <ele>511.2179968</ele>
        <time>2016-11-01T10:17:02.008Z</time>
      </trkpt>
      <trkpt lat="42.99943" lon="1.97675">
        <ele>511.5640064</ele>
        <time>2016-11-01T10:17:03.008Z</time>
      </trkpt>
      <trkpt lat="42.99955" lon="1.97678">
        <ele>510</ele>
        <time>2016-11-01T10:17:04.008Z</time>
      </trkpt>
      <trkpt lat="42.99966" lon="1.97681">
        <ele>510.2179968</ele>
        <time>2016-11-01T10:17:05.008Z</time>
      </trkpt>
      <trkpt lat="42.99977" lon="1.97684">
        <ele>510.7820032</ele>
        <time>2016-11-01T10:17:06.008Z</time>
      </trkpt>
      <trkpt lat="42.99988" lon="1.97687">
        <ele>509.5640064</ele>
        <time>2016-11-01T10:17:07.008Z</time>
      </trkpt>
      <trkpt lat="42.99997" lon="1.9769">
        <ele>507.7820032</ele>
        <time>2016-11-01T10:17:08.008Z</time>
      </trkpt>
      <trkpt lat="43.00004" lon="1.97692">
        <ele>506.7820032</ele>
        <time>2016-11-01T10:17:09.008Z</time>
      </trkpt>
      <trkpt lat="43.0001" lon="1.97691">
        <ele>505.7820032</ele>
        <time>2016-11-01T10:17:10.008Z</time>
      </trkpt>
      <trkpt lat="43.00014" lon="1.97686">
        <ele>504.7820032</ele>
        <time>2016-11-01T10:17:11.008Z</time>
      </trkpt>
      <trkpt lat="43.00016" lon="1.97671">
        <ele>504</ele>
        <time>2016-11-01T10:17:13.008Z</time>
      </trkpt>
      <trkpt lat="43.00015" lon="1.97653">
        <ele>504</ele>
        <time>2016-11-01T10:17:15.008Z</time>
      </trkpt>
      <trkpt lat="43.00015" lon="1.97636">
        <ele>504</ele>
        <time>2016-11-01T10:17:17.008Z</time>
      </trkpt>
      <trkpt lat="43.00015" lon="1.97618">
        <ele>503</ele>
        <time>2016-11-01T10:17:19.008Z</time>
      </trkpt>
      <trkpt lat="43.00015" lon="1.97608">
        <ele>503</ele>
        <time>2016-11-01T10:17:20.008Z</time>
      </trkpt>
      <trkpt lat="43.00015" lon="1.97598">
        <ele>503</ele>
        <time>2016-11-01T10:17:21.008Z</time>
      </trkpt>
      <trkpt lat="43.00015" lon="1.97588">
        <ele>503</ele>
        <time>2016-11-01T10:17:22.008Z</time>
      </trkpt>
      <trkpt lat="43.00015" lon="1.97579">
        <ele>503</ele>
        <time>2016-11-01T10:17:23.008Z</time>
      </trkpt>
      <trkpt lat="43.00016" lon="1.97569">
        <ele>502.7820032</ele>
        <time>2016-11-01T10:17:24.008Z</time>
      </trkpt>
      <trkpt lat="43.00022" lon="1.97553">
        <ele>502</ele>
        <time>2016-11-01T10:17:26.008Z</time>
      </trkpt>
      <trkpt lat="43.00035" lon="1.97544">
        <ele>502</ele>
        <time>2016-11-01T10:17:28.008Z</time>
      </trkpt>
      <trkpt lat="43.00049" lon="1.9754">
        <ele>502</ele>
        <time>2016-11-01T10:17:30.008Z</time>
      </trkpt>
      <trkpt lat="43.00063" lon="1.97532">
        <ele>500</ele>
        <time>2016-11-01T10:17:32.008Z</time>
      </trkpt>
      <trkpt lat="43.00075" lon="1.97521">
        <ele>500</ele>
        <time>2016-11-01T10:17:34.008Z</time>
      </trkpt>
      <trkpt lat="43.00087" lon="1.97509">
        <ele>499.3460096</ele>
        <time>2016-11-01T10:17:36.008Z</time>
      </trkpt>
      <trkpt lat="43.00094" lon="1.97503">
        <ele>497</ele>
        <time>2016-11-01T10:17:37.008Z</time>
      </trkpt>
      <trkpt lat="43.001" lon="1.97497">
        <ele>497</ele>
        <time>2016-11-01T10:17:38.008Z</time>
      </trkpt>
      <trkpt lat="43.00113" lon="1.97483">
        <ele>497</ele>
        <time>2016-11-01T10:17:40.008Z</time>
      </trkpt>
      <trkpt lat="43.00126" lon="1.97469">
        <ele>496</ele>
        <time>2016-11-01T10:17:42.008Z</time>
      </trkpt>
      <trkpt lat="43.00139" lon="1.97455">
        <ele>496</ele>
        <time>2016-11-01T10:17:44.008Z</time>
      </trkpt>
      <trkpt lat="43.00153" lon="1.9744">
        <ele>495.7820032</ele>
        <time>2016-11-01T10:17:46.008Z</time>
      </trkpt>
      <trkpt lat="43.00163" lon="1.97423">
        <ele>495</ele>
        <time>2016-11-01T10:17:48.008Z</time>
      </trkpt>
      <trkpt lat="43.00174" lon="1.97405">
        <ele>495</ele>
        <time>2016-11-01T10:17:50.008Z</time>
      </trkpt>
      <trkpt lat="43.00185" lon="1.97387">
        <ele>493</ele>
        <time>2016-11-01T10:17:52.008Z</time>
      </trkpt>
      <trkpt lat="43.00198" lon="1.97371">
        <ele>493</ele>
        <time>2016-11-01T10:17:54.008Z</time>
      </trkpt>
      <trkpt lat="43.00206" lon="1.97364">
        <ele>493</ele>
        <time>2016-11-01T10:17:55.008Z</time>
      </trkpt>
      <trkpt lat="43.00213" lon="1.97358">
        <ele>492.5640064</ele>
        <time>2016-11-01T10:17:56.008Z</time>
      </trkpt>
      <trkpt lat="43.00228" lon="1.97345">
        <ele>491</ele>
        <time>2016-11-01T10:17:58.008Z</time>
      </trkpt>
      <trkpt lat="43.00235" lon="1.97339">
        <ele>491</ele>
        <time>2016-11-01T10:17:59.008Z</time>
      </trkpt>
      <trkpt lat="43.00243" lon="1.97333">
        <ele>491</ele>
        <time>2016-11-01T10:18:00.008Z</time>
      </trkpt>
      <trkpt lat="43.00252" lon="1.9733">
        <ele>490.3460096</ele>
        <time>2016-11-01T10:18:01.008Z</time>
      </trkpt>
      <trkpt lat="43.00268" lon="1.97325">
        <ele>487.7820032</ele>
        <time>2016-11-01T10:18:03.008Z</time>
      </trkpt>
      <trkpt lat="43.00285" lon="1.97324">
        <ele>486</ele>
        <time>2016-11-01T10:18:05.008Z</time>
      </trkpt>
      <trkpt lat="43.00296" lon="1.97324">
        <ele>485.7820032</ele>
        <time>2016-11-01T10:18:06.008Z</time>
      </trkpt>
      <trkpt lat="43.00307" lon="1.97322">
        <ele>484.7820032</ele>
        <time>2016-11-01T10:18:07.008Z</time>
      </trkpt>
      <trkpt lat="43.00317" lon="1.9732">
        <ele>483.5640064</ele>
        <time>2016-11-01T10:18:08.008Z</time>
      </trkpt>
      <trkpt lat="43.00328" lon="1.97318">
        <ele>481.7820032</ele>
        <time>2016-11-01T10:18:09.008Z</time>
      </trkpt>
      <trkpt lat="43.00338" lon="1.97314">
        <ele>481.21583909969</ele>
        <time>2016-11-01T10:18:10.008Z</time>
      </trkpt>
      <trkpt lat="43.00351" lon="1.973">
        <ele>481.7820032</ele>
        <time>2016-11-01T10:18:12.008Z</time>
      </trkpt>
      <trkpt lat="43.00357" lon="1.97278">
        <ele>481</ele>
        <time>2016-11-01T10:18:14.008Z</time>
      </trkpt>
      <trkpt lat="43.00363" lon="1.97267">
        <ele>480.7820032</ele>
        <time>2016-11-01T10:18:15.008Z</time>
      </trkpt>
      <trkpt lat="43.00369" lon="1.97256">
        <ele>479.5640064</ele>
        <time>2016-11-01T10:18:16.008Z</time>
      </trkpt>
      <trkpt lat="43.00376" lon="1.97245">
        <ele>477.7820032</ele>
        <time>2016-11-01T10:18:17.008Z</time>
      </trkpt>
      <trkpt lat="43.00383" lon="1.97235">
        <ele>476.5640064</ele>
        <time>2016-11-01T10:18:18.008Z</time>
      </trkpt>
      <trkpt lat="43.00389" lon="1.97225">
        <ele>474.3460096</ele>
        <time>2016-11-01T10:18:19.008Z</time>
      </trkpt>
      <trkpt lat="43.00396" lon="1.97215">
        <ele>472</ele>
        <time>2016-11-01T10:18:20.008Z</time>
      </trkpt>
      <trkpt lat="43.00403" lon="1.97204">
        <ele>471.5640064</ele>
        <time>2016-11-01T10:18:21.008Z</time>
      </trkpt>
      <trkpt lat="43.0041" lon="1.97195">
        <ele>469.3460096</ele>
        <time>2016-11-01T10:18:22.008Z</time>
      </trkpt>
      <trkpt lat="43.00417" lon="1.97185">
        <ele>466.7820032</ele>
        <time>2016-11-01T10:18:23.008Z</time>
      </trkpt>
      <trkpt lat="43.00424" lon="1.97174">
        <ele>466</ele>
        <time>2016-11-01T10:18:24.008Z</time>
      </trkpt>
      <trkpt lat="43.00431" lon="1.97164">
        <ele>465.5640064</ele>
        <time>2016-11-01T10:18:25.008Z</time>
      </trkpt>
      <trkpt lat="43.00438" lon="1.97153">
        <ele>463.5640064</ele>
        <time>2016-11-01T10:18:26.008Z</time>
      </trkpt>
      <trkpt lat="43.00445" lon="1.97142">
        <ele>461.5640064</ele>
        <time>2016-11-01T10:18:27.008Z</time>
      </trkpt>
      <trkpt lat="43.00453" lon="1.97132">
        <ele>459.7820032</ele>
        <time>2016-11-01T10:18:28.008Z</time>
      </trkpt>
      <trkpt lat="43.00462" lon="1.97122">
        <ele>458.3460096</ele>
        <time>2016-11-01T10:18:29.008Z</time>
      </trkpt>
      <trkpt lat="43.0047" lon="1.97112">
        <ele>455.7820032</ele>
        <time>2016-11-01T10:18:30.008Z</time>
      </trkpt>
      <trkpt lat="43.0048" lon="1.97103">
        <ele>454.7820032</ele>
        <time>2016-11-01T10:18:31.008Z</time>
      </trkpt>
      <trkpt lat="43.00488" lon="1.97094">
        <ele>453.7820032</ele>
        <time>2016-11-01T10:18:32.008Z</time>
      </trkpt>
      <trkpt lat="43.00503" lon="1.97079">
        <ele>450.7820032</ele>
        <time>2016-11-01T10:18:34.008Z</time>
      </trkpt>
      <trkpt lat="43.00515" lon="1.97067">
        <ele>447</ele>
        <time>2016-11-01T10:18:36.008Z</time>
      </trkpt>
      <trkpt lat="43.00526" lon="1.97056">
        <ele>444.56832180062</ele>
        <time>2016-11-01T10:18:38.008Z</time>
      </trkpt>
      <trkpt lat="43.00535" lon="1.97051">
        <ele>442</ele>
        <time>2016-11-01T10:18:41.008Z</time>
      </trkpt>
      <trkpt lat="43.00549" lon="1.97054">
        <ele>441</ele>
        <time>2016-11-01T10:18:45.008Z</time>
      </trkpt>
      <trkpt lat="43.00561" lon="1.97048">
        <ele>439.5640064</ele>
        <time>2016-11-01T10:18:48.008Z</time>
      </trkpt>
      <trkpt lat="43.00561" lon="1.97031">
        <ele>436.7820032</ele>
        <time>2016-11-01T10:18:50.008Z</time>
      </trkpt>
      <trkpt lat="43.00553" lon="1.97006">
        <ele>434.7820032</ele>
        <time>2016-11-01T10:18:52.008Z</time>
      </trkpt>
      <trkpt lat="43.00544" lon="1.96986">
        <ele>431.7820032</ele>
        <time>2016-11-01T10:18:54.008Z</time>
      </trkpt>
      <trkpt lat="43.00535" lon="1.96974">
        <ele>429.7820032</ele>
        <time>2016-11-01T10:18:56.008Z</time>
      </trkpt>
      <trkpt lat="43.00526" lon="1.96966">
        <ele>428.7820032</ele>
        <time>2016-11-01T10:18:58.008Z</time>
      </trkpt>
      <trkpt lat="43.00518" lon="1.96956">
        <ele>426.7820032</ele>
        <time>2016-11-01T10:19:00.008Z</time>
      </trkpt>
      <trkpt lat="43.00526" lon="1.96941">
        <ele>424.7820032</ele>
        <time>2016-11-01T10:19:04.008Z</time>
      </trkpt>
      <trkpt lat="43.00536" lon="1.96932">
        <ele>423</ele>
        <time>2016-11-01T10:19:06.008Z</time>
      </trkpt>
      <trkpt lat="43.00547" lon="1.9692">
        <ele>421.7820032</ele>
        <time>2016-11-01T10:19:08.008Z</time>
      </trkpt>
      <trkpt lat="43.00556" lon="1.96909">
        <ele>419.5640064</ele>
        <time>2016-11-01T10:19:10.008Z</time>
      </trkpt>
      <trkpt lat="43.00567" lon="1.96897">
        <ele>416.7820032</ele>
        <time>2016-11-01T10:19:12.008Z</time>
      </trkpt>
      <trkpt lat="43.00576" lon="1.96884">
        <ele>413.7820032</ele>
        <time>2016-11-01T10:19:14.008Z</time>
      </trkpt>
      <trkpt lat="43.00584" lon="1.96872">
        <ele>411.7883506487</ele>
        <time>2016-11-01T10:19:16.008Z</time>
      </trkpt>
      <trkpt lat="43.00591" lon="1.96857">
        <ele>409.5640064</ele>
        <time>2016-11-01T10:19:18.008Z</time>
      </trkpt>
      <trkpt lat="43.00597" lon="1.9684">
        <ele>406.3460096</ele>
        <time>2016-11-01T10:19:20.008Z</time>
      </trkpt>
      <trkpt lat="43.00602" lon="1.96821">
        <ele>402.7820032</ele>
        <time>2016-11-01T10:19:22.008Z</time>
      </trkpt>
      <trkpt lat="43.00607" lon="1.96801">
        <ele>401.5640064</ele>
        <time>2016-11-01T10:19:24.008Z</time>
      </trkpt>
      <trkpt lat="43.00611" lon="1.96781">
        <ele>397.7820032</ele>
        <time>2016-11-01T10:19:26.008Z</time>
      </trkpt>
      <trkpt lat="43.00617" lon="1.96764">
        <ele>395.3460096</ele>
        <time>2016-11-01T10:19:28.008Z</time>
      </trkpt>
      <trkpt lat="43.00621" lon="1.96745">
        <ele>391.5640064</ele>
        <time>2016-11-01T10:19:30.008Z</time>
      </trkpt>
      <trkpt lat="43.00626" lon="1.96724">
        <ele>387.7820032</ele>
        <time>2016-11-01T10:19:32.008Z</time>
      </trkpt>
      <trkpt lat="43.0063" lon="1.96705">
        <ele>385.5640064</ele>
        <time>2016-11-01T10:19:34.008Z</time>
      </trkpt>
      <trkpt lat="43.00635" lon="1.96688">
        <ele>382.7820032</ele>
        <time>2016-11-01T10:19:36.008Z</time>
      </trkpt>
      <trkpt lat="43.00639" lon="1.96674">
        <ele>380.7820032</ele>
        <time>2016-11-01T10:19:38.008Z</time>
      </trkpt>
      <trkpt lat="43.00642" lon="1.96656">
        <ele>376.7820032</ele>
        <time>2016-11-01T10:19:41.008Z</time>
      </trkpt>
      <trkpt lat="43.00642" lon="1.96642">
        <ele>373.7820032</ele>
        <time>2016-11-01T10:19:43.008Z</time>
      </trkpt>
      <trkpt lat="43.00649" lon="1.96628">
        <ele>371</ele>
        <time>2016-11-01T10:19:45.008Z</time>
      </trkpt>
      <trkpt lat="43.00657" lon="1.96616">
        <ele>370.5640064</ele>
        <time>2016-11-01T10:19:47.008Z</time>
      </trkpt>
      <trkpt lat="43.00667" lon="1.96611">
        <ele>367.7820032</ele>
        <time>2016-11-01T10:19:49.008Z</time>
      </trkpt>
      <trkpt lat="43.00679" lon="1.96609">
        <ele>366.7820032</ele>
        <time>2016-11-01T10:19:51.008Z</time>
      </trkpt>
      <trkpt lat="43.00696" lon="1.96613">
        <ele>365</ele>
        <time>2016-11-01T10:19:53.008Z</time>
      </trkpt>
      <trkpt lat="43.00715" lon="1.9662">
        <ele>363.7820032</ele>
        <time>2016-11-01T10:19:55.008Z</time>
      </trkpt>
      <trkpt lat="43.00733" lon="1.96629">
        <ele>363</ele>
        <time>2016-11-01T10:19:57.008Z</time>
      </trkpt>
      <trkpt lat="43.00751" lon="1.96636">
        <ele>362</ele>
        <time>2016-11-01T10:19:59.008Z</time>
      </trkpt>
      <trkpt lat="43.00767" lon="1.96646">
        <ele>360.7820032</ele>
        <time>2016-11-01T10:20:01.008Z</time>
      </trkpt>
      <trkpt lat="43.00782" lon="1.96656">
        <ele>359.7820032</ele>
        <time>2016-11-01T10:20:03.008Z</time>
      </trkpt>
      <trkpt lat="43.00797" lon="1.96663">
        <ele>359</ele>
        <time>2016-11-01T10:20:05.008Z</time>
      </trkpt>
      <trkpt lat="43.0081" lon="1.96663">
        <ele>359</ele>
        <time>2016-11-01T10:20:07.008Z</time>
      </trkpt>
      <trkpt lat="43.00811" lon="1.96655">
        <ele>359</ele>
        <time>2016-11-01T10:20:20.008Z</time>
      </trkpt>
      <trkpt lat="43.00815" lon="1.96653">
        <ele>359</ele>
        <time>2016-11-01T10:21:35.008Z</time>
      </trkpt>
      <trkpt lat="43.00815" lon="1.96642">
        <ele>359</ele>
        <time>2016-11-01T10:23:29.008Z</time>
      </trkpt>
      <trkpt lat="43.0082" lon="1.96629">
        <ele>359</ele>
        <time>2016-11-01T10:23:33.008Z</time>
      </trkpt>
      <trkpt lat="43.00824" lon="1.96617">
        <ele>359</ele>
        <time>2016-11-01T10:23:36.008Z</time>
      </trkpt>
      <trkpt lat="43.00829" lon="1.96603">
        <ele>359</ele>
        <time>2016-11-01T10:23:39.008Z</time>
      </trkpt>
      <trkpt lat="43.00833" lon="1.96594">
        <ele>359</ele>
        <time>2016-11-01T10:23:41.008Z</time>
      </trkpt>
      <trkpt lat="43.00839" lon="1.96579">
        <ele>359</ele>
        <time>2016-11-01T10:23:44.008Z</time>
      </trkpt>
      <trkpt lat="43.00845" lon="1.96566">
        <ele>359</ele>
        <time>2016-11-01T10:23:47.008Z</time>
      </trkpt>
      <trkpt lat="43.00852" lon="1.96551">
        <ele>359</ele>
        <time>2016-11-01T10:23:50.008Z</time>
      </trkpt>
      <trkpt lat="43.00857" lon="1.96541">
        <ele>359</ele>
        <time>2016-11-01T10:23:52.008Z</time>
      </trkpt>
      <trkpt lat="43.00862" lon="1.96532">
        <ele>359</ele>
        <time>2016-11-01T10:23:54.008Z</time>
      </trkpt>
      <trkpt lat="43.00868" lon="1.96522">
        <ele>359</ele>
        <time>2016-11-01T10:23:56.008Z</time>
      </trkpt>
      <trkpt lat="43.00874" lon="1.96512">
        <ele>359</ele>
        <time>2016-11-01T10:23:58.008Z</time>
      </trkpt>
      <trkpt lat="43.00881" lon="1.96504">
        <ele>359</ele>
        <time>2016-11-01T10:24:00.008Z</time>
      </trkpt>
      <trkpt lat="43.00892" lon="1.96493">
        <ele>359</ele>
        <time>2016-11-01T10:24:03.008Z</time>
      </trkpt>
      <trkpt lat="43.009" lon="1.96482">
        <ele>359</ele>
        <time>2016-11-01T10:24:06.008Z</time>
      </trkpt>
      <trkpt lat="43.00897" lon="1.96472">
        <ele>359</ele>
        <time>2016-11-01T10:24:09.008Z</time>
      </trkpt>
      <trkpt lat="43.0089" lon="1.96472">
        <ele>359</ele>
        <time>2016-11-01T10:24:11.008Z</time>
      </trkpt>
      <trkpt lat="43.00881" lon="1.96472">
        <ele>359</ele>
        <time>2016-11-01T10:24:13.008Z</time>
      </trkpt>
      <trkpt lat="43.00877" lon="1.96472">
        <ele>359</ele>
        <time>2016-11-01T10:24:14.008Z</time>
      </trkpt>
      <trkpt lat="43.00872" lon="1.96472">
        <ele>359</ele>
        <time>2016-11-01T10:24:15.008Z</time>
      </trkpt>
      <trkpt lat="43.00863" lon="1.96474">
        <ele>359</ele>
        <time>2016-11-01T10:24:17.008Z</time>
      </trkpt>
      <trkpt lat="43.00853" lon="1.96473">
        <ele>359</ele>
        <time>2016-11-01T10:24:19.008Z</time>
      </trkpt>
      <trkpt lat="43.00844" lon="1.96473">
        <ele>359</ele>
        <time>2016-11-01T10:24:21.008Z</time>
      </trkpt>
      <trkpt lat="43.00834" lon="1.96473">
        <ele>359</ele>
        <time>2016-11-01T10:24:23.008Z</time>
      </trkpt>
      <trkpt lat="43.00824" lon="1.96471">
        <ele>359</ele>
        <time>2016-11-01T10:24:25.008Z</time>
      </trkpt>
      <trkpt lat="43.00814" lon="1.96469">
        <ele>359</ele>
        <time>2016-11-01T10:24:27.008Z</time>
      </trkpt>
      <trkpt lat="43.00805" lon="1.96466">
        <ele>359</ele>
        <time>2016-11-01T10:24:29.008Z</time>
      </trkpt>
      <trkpt lat="43.00797" lon="1.96462">
        <ele>359.2179968</ele>
        <time>2016-11-01T10:24:31.008Z</time>
      </trkpt>
      <trkpt lat="43.00789" lon="1.96456">
        <ele>360</ele>
        <time>2016-11-01T10:24:33.008Z</time>
      </trkpt>
      <trkpt lat="43.0078" lon="1.9645">
        <ele>360</ele>
        <time>2016-11-01T10:24:35.008Z</time>
      </trkpt>
      <trkpt lat="43.00772" lon="1.96443">
        <ele>360</ele>
        <time>2016-11-01T10:24:37.008Z</time>
      </trkpt>
      <trkpt lat="43.00764" lon="1.96436">
        <ele>360</ele>
        <time>2016-11-01T10:24:39.008Z</time>
      </trkpt>
      <trkpt lat="43.00755" lon="1.9643">
        <ele>360</ele>
        <time>2016-11-01T10:24:41.008Z</time>
      </trkpt>
      <trkpt lat="43.00746" lon="1.96424">
        <ele>360</ele>
        <time>2016-11-01T10:24:43.008Z</time>
      </trkpt>
      <trkpt lat="43.00738" lon="1.96417">
        <ele>360</ele>
        <time>2016-11-01T10:24:45.008Z</time>
      </trkpt>
      <trkpt lat="43.00729" lon="1.96411">
        <ele>360</ele>
        <time>2016-11-01T10:24:47.008Z</time>
      </trkpt>
      <trkpt lat="43.00721" lon="1.96404">
        <ele>360</ele>
        <time>2016-11-01T10:24:49.008Z</time>
      </trkpt>
      <trkpt lat="43.00713" lon="1.96396">
        <ele>360.2179968</ele>
        <time>2016-11-01T10:24:51.008Z</time>
      </trkpt>
      <trkpt lat="43.00705" lon="1.96389">
        <ele>361</ele>
        <time>2016-11-01T10:24:53.008Z</time>
      </trkpt>
      <trkpt lat="43.00697" lon="1.96381">
        <ele>361</ele>
        <time>2016-11-01T10:24:55.008Z</time>
      </trkpt>
      <trkpt lat="43.00693" lon="1.96377">
        <ele>361</ele>
        <time>2016-11-01T10:24:56.008Z</time>
      </trkpt>
      <trkpt lat="43.00689" lon="1.96373">
        <ele>361</ele>
        <time>2016-11-01T10:24:57.008Z</time>
      </trkpt>
      <trkpt lat="43.00686" lon="1.96369">
        <ele>361</ele>
        <time>2016-11-01T10:24:58.008Z</time>
      </trkpt>
      <trkpt lat="43.00683" lon="1.96364">
        <ele>361</ele>
        <time>2016-11-01T10:24:59.008Z</time>
      </trkpt>
      <trkpt lat="43.00676" lon="1.96354">
        <ele>361.20184888889</ele>
        <time>2016-11-01T10:25:01.008Z</time>
      </trkpt>
      <trkpt lat="43.0067" lon="1.96343">
        <ele>362</ele>
        <time>2016-11-01T10:25:03.008Z</time>
      </trkpt>
      <trkpt lat="43.00664" lon="1.96333">
        <ele>362</ele>
        <time>2016-11-01T10:25:05.008Z</time>
      </trkpt>
      <trkpt lat="43.00658" lon="1.96323">
        <ele>362</ele>
        <time>2016-11-01T10:25:07.008Z</time>
      </trkpt>
      <trkpt lat="43.00652" lon="1.96312">
        <ele>362</ele>
        <time>2016-11-01T10:25:09.008Z</time>
      </trkpt>
      <trkpt lat="43.00645" lon="1.96302">
        <ele>362.4359936</ele>
        <time>2016-11-01T10:25:11.008Z</time>
      </trkpt>
      <trkpt lat="43.00639" lon="1.96293">
        <ele>364</ele>
        <time>2016-11-01T10:25:13.008Z</time>
      </trkpt>
      <trkpt lat="43.00632" lon="1.96284">
        <ele>364</ele>
        <time>2016-11-01T10:25:15.008Z</time>
      </trkpt>
      <trkpt lat="43.00624" lon="1.96275">
        <ele>364</ele>
        <time>2016-11-01T10:25:17.008Z</time>
      </trkpt>
      <trkpt lat="43.00616" lon="1.96267">
        <ele>364</ele>
        <time>2016-11-01T10:25:19.008Z</time>
      </trkpt>
      <trkpt lat="43.00609" lon="1.96259">
        <ele>364.2179968</ele>
        <time>2016-11-01T10:25:21.008Z</time>
      </trkpt>
      <trkpt lat="43.006" lon="1.96252">
        <ele>365</ele>
        <time>2016-11-01T10:25:23.008Z</time>
      </trkpt>
      <trkpt lat="43.00595" lon="1.96248">
        <ele>365</ele>
        <time>2016-11-01T10:25:24.008Z</time>
      </trkpt>
      <trkpt lat="43.00585" lon="1.96243">
        <ele>365</ele>
        <time>2016-11-01T10:25:26.008Z</time>
      </trkpt>
      <trkpt lat="43.00575" lon="1.96237">
        <ele>365</ele>
        <time>2016-11-01T10:25:28.008Z</time>
      </trkpt>
      <trkpt lat="43.00566" lon="1.96232">
        <ele>365</ele>
        <time>2016-11-01T10:25:30.008Z</time>
      </trkpt>
      <trkpt lat="43.00555" lon="1.96224">
        <ele>365</ele>
        <time>2016-11-01T10:25:32.008Z</time>
      </trkpt>
      <trkpt lat="43.00545" lon="1.96213">
        <ele>365</ele>
        <time>2016-11-01T10:25:34.008Z</time>
      </trkpt>
      <trkpt lat="43.00535" lon="1.962">
        <ele>365</ele>
        <time>2016-11-01T10:25:36.008Z</time>
      </trkpt>
      <trkpt lat="43.00526" lon="1.96186">
        <ele>365</ele>
        <time>2016-11-01T10:25:38.008Z</time>
      </trkpt>
      <trkpt lat="43.00522" lon="1.96178">
        <ele>365</ele>
        <time>2016-11-01T10:25:39.008Z</time>
      </trkpt>
      <trkpt lat="43.00518" lon="1.96171">
        <ele>365</ele>
        <time>2016-11-01T10:25:40.008Z</time>
      </trkpt>
      <trkpt lat="43.00514" lon="1.96164">
        <ele>365</ele>
        <time>2016-11-01T10:25:41.008Z</time>
      </trkpt>
      <trkpt lat="43.0051" lon="1.96156">
        <ele>365</ele>
        <time>2016-11-01T10:25:42.008Z</time>
      </trkpt>
      <trkpt lat="43.00504" lon="1.9614">
        <ele>364.7820032</ele>
        <time>2016-11-01T10:25:44.008Z</time>
      </trkpt>
      <trkpt lat="43.00498" lon="1.96124">
        <ele>364</ele>
        <time>2016-11-01T10:25:46.008Z</time>
      </trkpt>
      <trkpt lat="43.00492" lon="1.96107">
        <ele>364</ele>
        <time>2016-11-01T10:25:48.008Z</time>
      </trkpt>
      <trkpt lat="43.00487" lon="1.96091">
        <ele>364</ele>
        <time>2016-11-01T10:25:50.008Z</time>
      </trkpt>
      <trkpt lat="43.00482" lon="1.96075">
        <ele>364</ele>
        <time>2016-11-01T10:25:52.008Z</time>
      </trkpt>
      <trkpt lat="43.00477" lon="1.9606">
        <ele>364</ele>
        <time>2016-11-01T10:25:54.008Z</time>
      </trkpt>
      <trkpt lat="43.0047" lon="1.96047">
        <ele>364</ele>
        <time>2016-11-01T10:25:56.008Z</time>
      </trkpt>
      <trkpt lat="43.00459" lon="1.96041">
        <ele>363.7820032</ele>
        <time>2016-11-01T10:25:58.008Z</time>
      </trkpt>
      <trkpt lat="43.0045" lon="1.96051">
        <ele>363</ele>
        <time>2016-11-01T10:26:00.008Z</time>
      </trkpt>
      <trkpt lat="43.00448" lon="1.96068">
        <ele>364</ele>
        <time>2016-11-01T10:26:02.008Z</time>
      </trkpt>
      <trkpt lat="43.0045" lon="1.96087">
        <ele>364</ele>
        <time>2016-11-01T10:26:04.008Z</time>
      </trkpt>
      <trkpt lat="43.00452" lon="1.96107">
        <ele>364</ele>
        <time>2016-11-01T10:26:06.008Z</time>
      </trkpt>
      <trkpt lat="43.00449" lon="1.96126">
        <ele>364</ele>
        <time>2016-11-01T10:26:08.008Z</time>
      </trkpt>
      <trkpt lat="43.00447" lon="1.96135">
        <ele>364</ele>
        <time>2016-11-01T10:26:09.008Z</time>
      </trkpt>
      <trkpt lat="43.00445" lon="1.96144">
        <ele>364</ele>
        <time>2016-11-01T10:26:10.008Z</time>
      </trkpt>
      <trkpt lat="43.0044" lon="1.96162">
        <ele>362</ele>
        <time>2016-11-01T10:26:12.008Z</time>
      </trkpt>
      <trkpt lat="43.00438" lon="1.96171">
        <ele>362</ele>
        <time>2016-11-01T10:26:13.008Z</time>
      </trkpt>
      <trkpt lat="43.00435" lon="1.96179">
        <ele>362</ele>
        <time>2016-11-01T10:26:14.008Z</time>
      </trkpt>
      <trkpt lat="43.0043" lon="1.96185">
        <ele>362</ele>
        <time>2016-11-01T10:26:15.008Z</time>
      </trkpt>
      <trkpt lat="43.00425" lon="1.9619">
        <ele>362</ele>
        <time>2016-11-01T10:26:16.008Z</time>
      </trkpt>
      <trkpt lat="43.00418" lon="1.96192">
        <ele>362</ele>
        <time>2016-11-01T10:26:17.008Z</time>
      </trkpt>
      <trkpt lat="43.00407" lon="1.96191">
        <ele>362</ele>
        <time>2016-11-01T10:26:19.008Z</time>
      </trkpt>
      <trkpt lat="43.00396" lon="1.96189">
        <ele>361.7820032</ele>
        <time>2016-11-01T10:26:21.008Z</time>
      </trkpt>
      <trkpt lat="43.00385" lon="1.96187">
        <ele>361</ele>
        <time>2016-11-01T10:26:23.008Z</time>
      </trkpt>
      <trkpt lat="43.00375" lon="1.96185">
        <ele>361</ele>
        <time>2016-11-01T10:26:25.008Z</time>
      </trkpt>
      <trkpt lat="43.00366" lon="1.96183">
        <ele>361</ele>
        <time>2016-11-01T10:26:27.008Z</time>
      </trkpt>
      <trkpt lat="43.00357" lon="1.96181">
        <ele>361</ele>
        <time>2016-11-01T10:26:29.008Z</time>
      </trkpt>
      <trkpt lat="43.00348" lon="1.96181">
        <ele>361.4359936</ele>
        <time>2016-11-01T10:26:31.008Z</time>
      </trkpt>
      <trkpt lat="43.00339" lon="1.96181">
        <ele>363</ele>
        <time>2016-11-01T10:26:33.008Z</time>
      </trkpt>
      <trkpt lat="43.00329" lon="1.96181">
        <ele>363</ele>
        <time>2016-11-01T10:26:35.008Z</time>
      </trkpt>
      <trkpt lat="43.00318" lon="1.96182">
        <ele>363</ele>
        <time>2016-11-01T10:26:37.008Z</time>
      </trkpt>
      <trkpt lat="43.00313" lon="1.96182">
        <ele>363</ele>
        <time>2016-11-01T10:26:38.008Z</time>
      </trkpt>
      <trkpt lat="43.00302" lon="1.96184">
        <ele>363</ele>
        <time>2016-11-01T10:26:40.008Z</time>
      </trkpt>
      <trkpt lat="43.00297" lon="1.96184">
        <ele>363.4359936</ele>
        <time>2016-11-01T10:26:41.008Z</time>
      </trkpt>
      <trkpt lat="43.00292" lon="1.96184">
        <ele>365</ele>
        <time>2016-11-01T10:26:42.008Z</time>
      </trkpt>
      <trkpt lat="43.00286" lon="1.96185">
        <ele>365</ele>
        <time>2016-11-01T10:26:43.008Z</time>
      </trkpt>
      <trkpt lat="43.00281" lon="1.96185">
        <ele>365</ele>
        <time>2016-11-01T10:26:44.008Z</time>
      </trkpt>
      <trkpt lat="43.00276" lon="1.96185">
        <ele>365</ele>
        <time>2016-11-01T10:26:45.008Z</time>
      </trkpt>
      <trkpt lat="43.00271" lon="1.96186">
        <ele>365</ele>
        <time>2016-11-01T10:26:46.008Z</time>
      </trkpt>
      <trkpt lat="43.00265" lon="1.96186">
        <ele>365</ele>
        <time>2016-11-01T10:26:47.008Z</time>
      </trkpt>
      <trkpt lat="43.0026" lon="1.96186">
        <ele>365</ele>
        <time>2016-11-01T10:26:48.008Z</time>
      </trkpt>
      <trkpt lat="43.00255" lon="1.96187">
        <ele>365</ele>
        <time>2016-11-01T10:26:49.008Z</time>
      </trkpt>
      <trkpt lat="43.0025" lon="1.96188">
        <ele>365</ele>
        <time>2016-11-01T10:26:50.008Z</time>
      </trkpt>
      <trkpt lat="43.00245" lon="1.96188">
        <ele>365</ele>
        <time>2016-11-01T10:26:51.008Z</time>
      </trkpt>
      <trkpt lat="43.0024" lon="1.96189">
        <ele>365</ele>
        <time>2016-11-01T10:26:52.008Z</time>
      </trkpt>
      <trkpt lat="43.00235" lon="1.9619">
        <ele>365</ele>
        <time>2016-11-01T10:26:53.008Z</time>
      </trkpt>
      <trkpt lat="43.0023" lon="1.96191">
        <ele>365</ele>
        <time>2016-11-01T10:26:54.008Z</time>
      </trkpt>
      <trkpt lat="43.00225" lon="1.96192">
        <ele>365</ele>
        <time>2016-11-01T10:26:55.008Z</time>
      </trkpt>
      <trkpt lat="43.0022" lon="1.96193">
        <ele>365</ele>
        <time>2016-11-01T10:26:56.008Z</time>
      </trkpt>
      <trkpt lat="43.00215" lon="1.96195">
        <ele>365</ele>
        <time>2016-11-01T10:26:57.008Z</time>
      </trkpt>
      <trkpt lat="43.0021" lon="1.96197">
        <ele>365</ele>
        <time>2016-11-01T10:26:58.008Z</time>
      </trkpt>
      <trkpt lat="43.00205" lon="1.962">
        <ele>365</ele>
        <time>2016-11-01T10:26:59.008Z</time>
      </trkpt>
      <trkpt lat="43.002" lon="1.96203">
        <ele>365</ele>
        <time>2016-11-01T10:27:00.008Z</time>
      </trkpt>
      <trkpt lat="43.00195" lon="1.96207">
        <ele>364.7820032</ele>
        <time>2016-11-01T10:27:01.008Z</time>
      </trkpt>
      <trkpt lat="43.00189" lon="1.96211">
        <ele>364</ele>
        <time>2016-11-01T10:27:02.008Z</time>
      </trkpt>
      <trkpt lat="43.00184" lon="1.96214">
        <ele>364</ele>
        <time>2016-11-01T10:27:03.008Z</time>
      </trkpt>
      <trkpt lat="43.00178" lon="1.96218">
        <ele>364</ele>
        <time>2016-11-01T10:27:04.008Z</time>
      </trkpt>
      <trkpt lat="43.00173" lon="1.96221">
        <ele>364</ele>
        <time>2016-11-01T10:27:05.008Z</time>
      </trkpt>
      <trkpt lat="43.00167" lon="1.96223">
        <ele>364</ele>
        <time>2016-11-01T10:27:06.008Z</time>
      </trkpt>
      <trkpt lat="43.00162" lon="1.96224">
        <ele>364</ele>
        <time>2016-11-01T10:27:07.008Z</time>
      </trkpt>
      <trkpt lat="43.00156" lon="1.96224">
        <ele>364</ele>
        <time>2016-11-01T10:27:08.008Z</time>
      </trkpt>
      <trkpt lat="43.00146" lon="1.96225">
        <ele>364</ele>
        <time>2016-11-01T10:27:10.008Z</time>
      </trkpt>
      <trkpt lat="43.00138" lon="1.96225">
        <ele>367</ele>
        <time>2016-11-01T10:27:12.008Z</time>
      </trkpt>
      <trkpt lat="43.0013" lon="1.96224">
        <ele>367</ele>
        <time>2016-11-01T10:27:14.008Z</time>
      </trkpt>
      <trkpt lat="43.00122" lon="1.96223">
        <ele>367.4359936</ele>
        <time>2016-11-01T10:27:16.008Z</time>
      </trkpt>
      <trkpt lat="43.00115" lon="1.96219">
        <ele>369</ele>
        <time>2016-11-01T10:27:18.008Z</time>
      </trkpt>
      <trkpt lat="43.00108" lon="1.96212">
        <ele>369</ele>
        <time>2016-11-01T10:27:20.008Z</time>
      </trkpt>
      <trkpt lat="43.001" lon="1.96205">
        <ele>370</ele>
        <time>2016-11-01T10:27:22.008Z</time>
      </trkpt>
      <trkpt lat="43.00092" lon="1.96197">
        <ele>370</ele>
        <time>2016-11-01T10:27:24.008Z</time>
      </trkpt>
      <trkpt lat="43.00083" lon="1.96189">
        <ele>370</ele>
        <time>2016-11-01T10:27:26.008Z</time>
      </trkpt>
      <trkpt lat="43.00073" lon="1.96181">
        <ele>370</ele>
        <time>2016-11-01T10:27:28.008Z</time>
      </trkpt>
      <trkpt lat="43.00064" lon="1.96173">
        <ele>370</ele>
        <time>2016-11-01T10:27:30.008Z</time>
      </trkpt>
      <trkpt lat="43.00059" lon="1.96168">
        <ele>370</ele>
        <time>2016-11-01T10:27:31.008Z</time>
      </trkpt>
      <trkpt lat="43.00053" lon="1.96164">
        <ele>370</ele>
        <time>2016-11-01T10:27:32.008Z</time>
      </trkpt>
      <trkpt lat="43.00048" lon="1.9616">
        <ele>370</ele>
        <time>2016-11-01T10:27:33.008Z</time>
      </trkpt>
      <trkpt lat="43.00042" lon="1.96155">
        <ele>370</ele>
        <time>2016-11-01T10:27:34.008Z</time>
      </trkpt>
      <trkpt lat="43.00037" lon="1.9615">
        <ele>370</ele>
        <time>2016-11-01T10:27:35.008Z</time>
      </trkpt>
      <trkpt lat="43.00031" lon="1.96145">
        <ele>370</ele>
        <time>2016-11-01T10:27:36.008Z</time>
      </trkpt>
      <trkpt lat="43.00025" lon="1.9614">
        <ele>370</ele>
        <time>2016-11-01T10:27:37.008Z</time>
      </trkpt>
      <trkpt lat="43.0002" lon="1.96136">
        <ele>370</ele>
        <time>2016-11-01T10:27:38.008Z</time>
      </trkpt>
      <trkpt lat="43.00014" lon="1.96131">
        <ele>370</ele>
        <time>2016-11-01T10:27:39.008Z</time>
      </trkpt>
      <trkpt lat="43.00009" lon="1.96126">
        <ele>370</ele>
        <time>2016-11-01T10:27:40.008Z</time>
      </trkpt>
      <trkpt lat="43.00003" lon="1.96121">
        <ele>369.7820032</ele>
        <time>2016-11-01T10:27:41.008Z</time>
      </trkpt>
      <trkpt lat="42.99998" lon="1.96117">
        <ele>369</ele>
        <time>2016-11-01T10:27:42.008Z</time>
      </trkpt>
      <trkpt lat="42.99993" lon="1.96112">
        <ele>369</ele>
        <time>2016-11-01T10:27:43.008Z</time>
      </trkpt>
      <trkpt lat="42.99988" lon="1.96108">
        <ele>369</ele>
        <time>2016-11-01T10:27:44.008Z</time>
      </trkpt>
      <trkpt lat="42.99983" lon="1.96103">
        <ele>369</ele>
        <time>2016-11-01T10:27:45.008Z</time>
      </trkpt>
      <trkpt lat="42.99978" lon="1.96098">
        <ele>369</ele>
        <time>2016-11-01T10:27:46.008Z</time>
      </trkpt>
      <trkpt lat="42.99973" lon="1.96093">
        <ele>369</ele>
        <time>2016-11-01T10:27:47.008Z</time>
      </trkpt>
      <trkpt lat="42.99969" lon="1.96087">
        <ele>369</ele>
        <time>2016-11-01T10:27:48.008Z</time>
      </trkpt>
      <trkpt lat="42.99964" lon="1.96081">
        <ele>369</ele>
        <time>2016-11-01T10:27:49.008Z</time>
      </trkpt>
      <trkpt lat="42.9996" lon="1.96075">
        <ele>369</ele>
        <time>2016-11-01T10:27:50.008Z</time>
      </trkpt>
      <trkpt lat="42.99956" lon="1.9607">
        <ele>369</ele>
        <time>2016-11-01T10:27:51.008Z</time>
      </trkpt>
      <trkpt lat="42.99952" lon="1.96064">
        <ele>369</ele>
        <time>2016-11-01T10:27:52.008Z</time>
      </trkpt>
      <trkpt lat="42.99943" lon="1.96053">
        <ele>369</ele>
        <time>2016-11-01T10:27:54.008Z</time>
      </trkpt>
      <trkpt lat="42.99934" lon="1.96043">
        <ele>369</ele>
        <time>2016-11-01T10:27:56.008Z</time>
      </trkpt>
      <trkpt lat="42.99923" lon="1.96035">
        <ele>369</ele>
        <time>2016-11-01T10:27:58.008Z</time>
      </trkpt>
      <trkpt lat="42.99918" lon="1.96031">
        <ele>369</ele>
        <time>2016-11-01T10:27:59.008Z</time>
      </trkpt>
      <trkpt lat="42.99912" lon="1.96028">
        <ele>369</ele>
        <time>2016-11-01T10:28:00.008Z</time>
      </trkpt>
      <trkpt lat="42.99906" lon="1.96026">
        <ele>369</ele>
        <time>2016-11-01T10:28:01.008Z</time>
      </trkpt>
      <trkpt lat="42.99901" lon="1.96025">
        <ele>369</ele>
        <time>2016-11-01T10:28:02.008Z</time>
      </trkpt>
      <trkpt lat="42.99895" lon="1.96024">
        <ele>369</ele>
        <time>2016-11-01T10:28:03.008Z</time>
      </trkpt>
      <trkpt lat="42.99889" lon="1.96023">
        <ele>369</ele>
        <time>2016-11-01T10:28:04.008Z</time>
      </trkpt>
      <trkpt lat="42.99883" lon="1.96023">
        <ele>369</ele>
        <time>2016-11-01T10:28:05.008Z</time>
      </trkpt>
      <trkpt lat="42.99877" lon="1.96023">
        <ele>369</ele>
        <time>2016-11-01T10:28:06.008Z</time>
      </trkpt>
      <trkpt lat="42.99871" lon="1.96022">
        <ele>369</ele>
        <time>2016-11-01T10:28:07.008Z</time>
      </trkpt>
      <trkpt lat="42.99865" lon="1.96022">
        <ele>369</ele>
        <time>2016-11-01T10:28:08.008Z</time>
      </trkpt>
      <trkpt lat="42.99859" lon="1.96021">
        <ele>369</ele>
        <time>2016-11-01T10:28:09.008Z</time>
      </trkpt>
      <trkpt lat="42.99854" lon="1.96018">
        <ele>369</ele>
        <time>2016-11-01T10:28:10.008Z</time>
      </trkpt>
      <trkpt lat="42.99849" lon="1.96014">
        <ele>369.2179968</ele>
        <time>2016-11-01T10:28:11.008Z</time>
      </trkpt>
      <trkpt lat="42.99845" lon="1.9601">
        <ele>370</ele>
        <time>2016-11-01T10:28:12.008Z</time>
      </trkpt>
      <trkpt lat="42.99841" lon="1.96007">
        <ele>370</ele>
        <time>2016-11-01T10:28:13.008Z</time>
      </trkpt>
      <trkpt lat="42.99836" lon="1.96004">
        <ele>370</ele>
        <time>2016-11-01T10:28:14.008Z</time>
      </trkpt>
      <trkpt lat="42.99832" lon="1.96002">
        <ele>370</ele>
        <time>2016-11-01T10:28:15.008Z</time>
      </trkpt>
      <trkpt lat="42.99828" lon="1.96">
        <ele>370</ele>
        <time>2016-11-01T10:28:16.008Z</time>
      </trkpt>
      <trkpt lat="42.99824" lon="1.95999">
        <ele>370</ele>
        <time>2016-11-01T10:28:17.008Z</time>
      </trkpt>
      <trkpt lat="42.9982" lon="1.95998">
        <ele>370</ele>
        <time>2016-11-01T10:28:18.008Z</time>
      </trkpt>
      <trkpt lat="42.99816" lon="1.95996">
        <ele>370</ele>
        <time>2016-11-01T10:28:19.008Z</time>
      </trkpt>
      <trkpt lat="42.99812" lon="1.95995">
        <ele>370</ele>
        <time>2016-11-01T10:28:20.008Z</time>
      </trkpt>
      <trkpt lat="42.99805" lon="1.95993">
        <ele>374</ele>
        <time>2016-11-01T10:28:22.008Z</time>
      </trkpt>
      <trkpt lat="42.99797" lon="1.95992">
        <ele>374</ele>
        <time>2016-11-01T10:28:24.008Z</time>
      </trkpt>
      <trkpt lat="42.99789" lon="1.95992">
        <ele>374.4359936</ele>
        <time>2016-11-01T10:28:26.008Z</time>
      </trkpt>
      <trkpt lat="42.99785" lon="1.95991">
        <ele>376</ele>
        <time>2016-11-01T10:28:27.008Z</time>
      </trkpt>
      <trkpt lat="42.99778" lon="1.95991">
        <ele>376</ele>
        <time>2016-11-01T10:28:29.008Z</time>
      </trkpt>
      <trkpt lat="42.9977" lon="1.95989">
        <ele>376.6539904</ele>
        <time>2016-11-01T10:28:31.008Z</time>
      </trkpt>
      <trkpt lat="42.99763" lon="1.95986">
        <ele>379.2179968</ele>
        <time>2016-11-01T10:28:33.008Z</time>
      </trkpt>
      <trkpt lat="42.99756" lon="1.95982">
        <ele>380.7820032</ele>
        <time>2016-11-01T10:28:35.008Z</time>
      </trkpt>
      <trkpt lat="42.9975" lon="1.95977">
        <ele>380</ele>
        <time>2016-11-01T10:28:37.008Z</time>
      </trkpt>
      <trkpt lat="42.99743" lon="1.95972">
        <ele>381.2179968</ele>
        <time>2016-11-01T10:28:39.008Z</time>
      </trkpt>
      <trkpt lat="42.99737" lon="1.95966">
        <ele>382</ele>
        <time>2016-11-01T10:28:41.008Z</time>
      </trkpt>
      <trkpt lat="42.99732" lon="1.95959">
        <ele>382</ele>
        <time>2016-11-01T10:28:43.008Z</time>
      </trkpt>
      <trkpt lat="42.99726" lon="1.95952">
        <ele>382</ele>
        <time>2016-11-01T10:28:45.008Z</time>
      </trkpt>
      <trkpt lat="42.99724" lon="1.95948">
        <ele>382.2179968</ele>
        <time>2016-11-01T10:28:46.008Z</time>
      </trkpt>
      <trkpt lat="42.99722" lon="1.95944">
        <ele>383</ele>
        <time>2016-11-01T10:28:47.008Z</time>
      </trkpt>
      <trkpt lat="42.99719" lon="1.9594">
        <ele>383</ele>
        <time>2016-11-01T10:28:48.008Z</time>
      </trkpt>
      <trkpt lat="42.99717" lon="1.95936">
        <ele>383</ele>
        <time>2016-11-01T10:28:49.008Z</time>
      </trkpt>
      <trkpt lat="42.99715" lon="1.95932">
        <ele>383</ele>
        <time>2016-11-01T10:28:50.008Z</time>
      </trkpt>
      <trkpt lat="42.99713" lon="1.95929">
        <ele>383.4359936</ele>
        <time>2016-11-01T10:28:51.008Z</time>
      </trkpt>
      <trkpt lat="42.99711" lon="1.95925">
        <ele>385</ele>
        <time>2016-11-01T10:28:52.008Z</time>
      </trkpt>
      <trkpt lat="42.99709" lon="1.95921">
        <ele>385</ele>
        <time>2016-11-01T10:28:53.008Z</time>
      </trkpt>
      <trkpt lat="42.99707" lon="1.95917">
        <ele>385</ele>
        <time>2016-11-01T10:28:54.008Z</time>
      </trkpt>
      <trkpt lat="42.99705" lon="1.95913">
        <ele>385</ele>
        <time>2016-11-01T10:28:55.008Z</time>
      </trkpt>
      <trkpt lat="42.99703" lon="1.95909">
        <ele>385.2179968</ele>
        <time>2016-11-01T10:28:56.008Z</time>
      </trkpt>
      <trkpt lat="42.99702" lon="1.95904">
        <ele>386</ele>
        <time>2016-11-01T10:28:57.008Z</time>
      </trkpt>
      <trkpt lat="42.997" lon="1.959">
        <ele>386</ele>
        <time>2016-11-01T10:28:58.008Z</time>
      </trkpt>
      <trkpt lat="42.99699" lon="1.95896">
        <ele>386</ele>
        <time>2016-11-01T10:28:59.008Z</time>
      </trkpt>
      <trkpt lat="42.99697" lon="1.95891">
        <ele>386</ele>
        <time>2016-11-01T10:29:00.008Z</time>
      </trkpt>
      <trkpt lat="42.99696" lon="1.95887">
        <ele>386.4359936</ele>
        <time>2016-11-01T10:29:01.008Z</time>
      </trkpt>
      <trkpt lat="42.99694" lon="1.95883">
        <ele>388</ele>
        <time>2016-11-01T10:29:02.008Z</time>
      </trkpt>
      <trkpt lat="42.99693" lon="1.95878">
        <ele>388</ele>
        <time>2016-11-01T10:29:03.008Z</time>
      </trkpt>
      <trkpt lat="42.99691" lon="1.95874">
        <ele>388</ele>
        <time>2016-11-01T10:29:04.008Z</time>
      </trkpt>
      <trkpt lat="42.9969" lon="1.9587">
        <ele>388</ele>
        <time>2016-11-01T10:29:05.008Z</time>
      </trkpt>
      <trkpt lat="42.99688" lon="1.95866">
        <ele>388.4359936</ele>
        <time>2016-11-01T10:29:06.008Z</time>
      </trkpt>
      <trkpt lat="42.99686" lon="1.95863">
        <ele>390</ele>
        <time>2016-11-01T10:29:07.008Z</time>
      </trkpt>
      <trkpt lat="42.99684" lon="1.95859">
        <ele>390</ele>
        <time>2016-11-01T10:29:08.008Z</time>
      </trkpt>
      <trkpt lat="42.99681" lon="1.95855">
        <ele>390</ele>
        <time>2016-11-01T10:29:09.008Z</time>
      </trkpt>
      <trkpt lat="42.99679" lon="1.95852">
        <ele>390</ele>
        <time>2016-11-01T10:29:10.008Z</time>
      </trkpt>
      <trkpt lat="42.99676" lon="1.95849">
        <ele>390.2179968</ele>
        <time>2016-11-01T10:29:11.008Z</time>
      </trkpt>
      <trkpt lat="42.99674" lon="1.95845">
        <ele>391</ele>
        <time>2016-11-01T10:29:12.008Z</time>
      </trkpt>
      <trkpt lat="42.99671" lon="1.95842">
        <ele>391</ele>
        <time>2016-11-01T10:29:13.008Z</time>
      </trkpt>
      <trkpt lat="42.99669" lon="1.95839">
        <ele>391</ele>
        <time>2016-11-01T10:29:14.008Z</time>
      </trkpt>
      <trkpt lat="42.99666" lon="1.95836">
        <ele>391</ele>
        <time>2016-11-01T10:29:15.008Z</time>
      </trkpt>
      <trkpt lat="42.99661" lon="1.95829">
        <ele>391</ele>
        <time>2016-11-01T10:29:17.008Z</time>
      </trkpt>
      <trkpt lat="42.99659" lon="1.95826">
        <ele>391</ele>
        <time>2016-11-01T10:29:18.008Z</time>
      </trkpt>
      <trkpt lat="42.99653" lon="1.95819">
        <ele>391</ele>
        <time>2016-11-01T10:29:20.008Z</time>
      </trkpt>
      <trkpt lat="42.9965" lon="1.95815">
        <ele>391.4359936</ele>
        <time>2016-11-01T10:29:21.008Z</time>
      </trkpt>
      <trkpt lat="42.99648" lon="1.95812">
        <ele>393</ele>
        <time>2016-11-01T10:29:22.008Z</time>
      </trkpt>
      <trkpt lat="42.99645" lon="1.95808">
        <ele>393</ele>
        <time>2016-11-01T10:29:23.008Z</time>
      </trkpt>
      <trkpt lat="42.99642" lon="1.95805">
        <ele>393</ele>
        <time>2016-11-01T10:29:24.008Z</time>
      </trkpt>
      <trkpt lat="42.99636" lon="1.95798">
        <ele>393</ele>
        <time>2016-11-01T10:29:26.008Z</time>
      </trkpt>
      <trkpt lat="42.9963" lon="1.95791">
        <ele>393</ele>
        <time>2016-11-01T10:29:28.008Z</time>
      </trkpt>
      <trkpt lat="42.99624" lon="1.95785">
        <ele>393</ele>
        <time>2016-11-01T10:29:30.008Z</time>
      </trkpt>
      <trkpt lat="42.99616" lon="1.95775">
        <ele>395</ele>
        <time>2016-11-01T10:29:33.008Z</time>
      </trkpt>
      <trkpt lat="42.99607" lon="1.95765">
        <ele>395</ele>
        <time>2016-11-01T10:29:36.008Z</time>
      </trkpt>
      <trkpt lat="42.99598" lon="1.95757">
        <ele>395</ele>
        <time>2016-11-01T10:29:39.008Z</time>
      </trkpt>
      <trkpt lat="42.99588" lon="1.95749">
        <ele>397</ele>
        <time>2016-11-01T10:29:42.008Z</time>
      </trkpt>
      <trkpt lat="42.99578" lon="1.95742">
        <ele>397</ele>
        <time>2016-11-01T10:29:45.008Z</time>
      </trkpt>
      <trkpt lat="42.99568" lon="1.95736">
        <ele>398</ele>
        <time>2016-11-01T10:29:48.008Z</time>
      </trkpt>
      <trkpt lat="42.99558" lon="1.95731">
        <ele>398.2179968</ele>
        <time>2016-11-01T10:29:51.008Z</time>
      </trkpt>
      <trkpt lat="42.99548" lon="1.95726">
        <ele>399</ele>
        <time>2016-11-01T10:29:54.008Z</time>
      </trkpt>
      <trkpt lat="42.99538" lon="1.95722">
        <ele>399</ele>
        <time>2016-11-01T10:29:57.008Z</time>
      </trkpt>
      <trkpt lat="42.99528" lon="1.95718">
        <ele>399</ele>
        <time>2016-11-01T10:30:00.008Z</time>
      </trkpt>
      <trkpt lat="42.99518" lon="1.95715">
        <ele>401</ele>
        <time>2016-11-01T10:30:03.008Z</time>
      </trkpt>
      <trkpt lat="42.99508" lon="1.95713">
        <ele>401.2179968</ele>
        <time>2016-11-01T10:30:06.008Z</time>
      </trkpt>
      <trkpt lat="42.99498" lon="1.95712">
        <ele>402</ele>
        <time>2016-11-01T10:30:09.008Z</time>
      </trkpt>
      <trkpt lat="42.99488" lon="1.9571">
        <ele>404</ele>
        <time>2016-11-01T10:30:12.008Z</time>
      </trkpt>
      <trkpt lat="42.99479" lon="1.95709">
        <ele>404</ele>
        <time>2016-11-01T10:30:15.008Z</time>
      </trkpt>
      <trkpt lat="42.9947" lon="1.95709">
        <ele>405</ele>
        <time>2016-11-01T10:30:18.008Z</time>
      </trkpt>
      <trkpt lat="42.99461" lon="1.9571">
        <ele>405.42020066198</ele>
        <time>2016-11-01T10:30:21.008Z</time>
      </trkpt>
      <trkpt lat="42.99452" lon="1.95709">
        <ele>407</ele>
        <time>2016-11-01T10:30:24.008Z</time>
      </trkpt>
      <trkpt lat="42.99443" lon="1.95707">
        <ele>408</ele>
        <time>2016-11-01T10:30:27.008Z</time>
      </trkpt>
      <trkpt lat="42.99435" lon="1.95703">
        <ele>408</ele>
        <time>2016-11-01T10:30:30.008Z</time>
      </trkpt>
      <trkpt lat="42.99429" lon="1.95701">
        <ele>408</ele>
        <time>2016-11-01T10:30:32.008Z</time>
      </trkpt>
      <trkpt lat="42.99424" lon="1.95698">
        <ele>408</ele>
        <time>2016-11-01T10:30:34.008Z</time>
      </trkpt>
      <trkpt lat="42.99417" lon="1.95695">
        <ele>408</ele>
        <time>2016-11-01T10:30:37.008Z</time>
      </trkpt>
      <trkpt lat="42.99413" lon="1.95692">
        <ele>408</ele>
        <time>2016-11-01T10:30:39.008Z</time>
      </trkpt>
      <trkpt lat="42.99409" lon="1.95689">
        <ele>408</ele>
        <time>2016-11-01T10:30:41.008Z</time>
      </trkpt>
      <trkpt lat="42.99403" lon="1.95688">
        <ele>408</ele>
        <time>2016-11-01T10:30:43.008Z</time>
      </trkpt>
      <trkpt lat="42.99398" lon="1.95688">
        <ele>408</ele>
        <time>2016-11-01T10:30:45.008Z</time>
      </trkpt>
      <trkpt lat="42.99391" lon="1.95686">
        <ele>408</ele>
        <time>2016-11-01T10:30:48.008Z</time>
      </trkpt>
      <trkpt lat="42.99387" lon="1.95681">
        <ele>406</ele>
        <time>2016-11-01T10:31:24.008Z</time>
      </trkpt>
      <trkpt lat="42.99383" lon="1.95678">
        <ele>407</ele>
        <time>2016-11-01T10:31:35.008Z</time>
      </trkpt>
      <trkpt lat="42.99378" lon="1.95673">
        <ele>407</ele>
        <time>2016-11-01T10:31:40.008Z</time>
      </trkpt>
      <trkpt lat="42.99372" lon="1.95667">
        <ele>407</ele>
        <time>2016-11-01T10:31:43.008Z</time>
      </trkpt>
      <trkpt lat="42.99366" lon="1.95662">
        <ele>407</ele>
        <time>2016-11-01T10:31:46.008Z</time>
      </trkpt>
      <trkpt lat="42.99362" lon="1.95659">
        <ele>407</ele>
        <time>2016-11-01T10:31:48.008Z</time>
      </trkpt>
      <trkpt lat="42.99357" lon="1.95656">
        <ele>407</ele>
        <time>2016-11-01T10:31:50.008Z</time>
      </trkpt>
      <trkpt lat="42.99354" lon="1.95654">
        <ele>407.2179968</ele>
        <time>2016-11-01T10:31:51.008Z</time>
      </trkpt>
      <trkpt lat="42.99352" lon="1.95652">
        <ele>408</ele>
        <time>2016-11-01T10:31:52.008Z</time>
      </trkpt>
      <trkpt lat="42.99348" lon="1.9565">
        <ele>408</ele>
        <time>2016-11-01T10:31:53.008Z</time>
      </trkpt>
      <trkpt lat="42.99345" lon="1.95648">
        <ele>408</ele>
        <time>2016-11-01T10:31:54.008Z</time>
      </trkpt>
      <trkpt lat="42.99342" lon="1.95646">
        <ele>408</ele>
        <time>2016-11-01T10:31:55.008Z</time>
      </trkpt>
      <trkpt lat="42.99338" lon="1.95643">
        <ele>408</ele>
        <time>2016-11-01T10:31:56.008Z</time>
      </trkpt>
      <trkpt lat="42.99334" lon="1.95641">
        <ele>408</ele>
        <time>2016-11-01T10:31:57.008Z</time>
      </trkpt>
      <trkpt lat="42.9933" lon="1.95639">
        <ele>408</ele>
        <time>2016-11-01T10:31:58.008Z</time>
      </trkpt>
      <trkpt lat="42.99326" lon="1.95637">
        <ele>408</ele>
        <time>2016-11-01T10:31:59.008Z</time>
      </trkpt>
      <trkpt lat="42.99323" lon="1.95635">
        <ele>408</ele>
        <time>2016-11-01T10:32:00.008Z</time>
      </trkpt>
      <trkpt lat="42.99319" lon="1.95633">
        <ele>408</ele>
        <time>2016-11-01T10:32:01.008Z</time>
      </trkpt>
      <trkpt lat="42.99315" lon="1.95632">
        <ele>408</ele>
        <time>2016-11-01T10:32:02.008Z</time>
      </trkpt>
      <trkpt lat="42.99312" lon="1.9563">
        <ele>408</ele>
        <time>2016-11-01T10:32:03.008Z</time>
      </trkpt>
      <trkpt lat="42.99308" lon="1.95628">
        <ele>408</ele>
        <time>2016-11-01T10:32:04.008Z</time>
      </trkpt>
      <trkpt lat="42.99304" lon="1.95626">
        <ele>408</ele>
        <time>2016-11-01T10:32:05.008Z</time>
      </trkpt>
      <trkpt lat="42.99296" lon="1.9562">
        <ele>408</ele>
        <time>2016-11-01T10:32:07.008Z</time>
      </trkpt>
      <trkpt lat="42.99286" lon="1.95614">
        <ele>408</ele>
        <time>2016-11-01T10:32:09.008Z</time>
      </trkpt>
      <trkpt lat="42.99281" lon="1.9561">
        <ele>408</ele>
        <time>2016-11-01T10:32:10.008Z</time>
      </trkpt>
      <trkpt lat="42.9927" lon="1.95604">
        <ele>406</ele>
        <time>2016-11-01T10:32:12.008Z</time>
      </trkpt>
      <trkpt lat="42.99257" lon="1.95599">
        <ele>406</ele>
        <time>2016-11-01T10:32:15.008Z</time>
      </trkpt>
      <trkpt lat="42.99245" lon="1.95604">
        <ele>406</ele>
        <time>2016-11-01T10:32:18.008Z</time>
      </trkpt>
      <trkpt lat="42.99235" lon="1.95607">
        <ele>406</ele>
        <time>2016-11-01T10:32:20.008Z</time>
      </trkpt>
      <trkpt lat="42.99225" lon="1.95603">
        <ele>407</ele>
        <time>2016-11-01T10:32:23.008Z</time>
      </trkpt>
      <trkpt lat="42.99216" lon="1.95596">
        <ele>407</ele>
        <time>2016-11-01T10:32:26.008Z</time>
      </trkpt>
      <trkpt lat="42.99207" lon="1.95583">
        <ele>407</ele>
        <time>2016-11-01T10:32:29.008Z</time>
      </trkpt>
      <trkpt lat="42.99202" lon="1.95571">
        <ele>406.7820032</ele>
        <time>2016-11-01T10:32:31.008Z</time>
      </trkpt>
      <trkpt lat="42.99194" lon="1.95557">
        <ele>406</ele>
        <time>2016-11-01T10:32:34.008Z</time>
      </trkpt>
      <trkpt lat="42.99184" lon="1.95547">
        <ele>406</ele>
        <time>2016-11-01T10:32:37.008Z</time>
      </trkpt>
      <trkpt lat="42.99174" lon="1.95543">
        <ele>406</ele>
        <time>2016-11-01T10:32:40.008Z</time>
      </trkpt>
      <trkpt lat="42.99163" lon="1.95545">
        <ele>405</ele>
        <time>2016-11-01T10:32:43.008Z</time>
      </trkpt>
      <trkpt lat="42.99153" lon="1.95543">
        <ele>405</ele>
        <time>2016-11-01T10:32:45.008Z</time>
      </trkpt>
      <trkpt lat="42.99143" lon="1.95538">
        <ele>405</ele>
        <time>2016-11-01T10:32:47.008Z</time>
      </trkpt>
      <trkpt lat="42.99131" lon="1.95536">
        <ele>405</ele>
        <time>2016-11-01T10:32:50.008Z</time>
      </trkpt>
      <trkpt lat="42.9912" lon="1.95534">
        <ele>407</ele>
        <time>2016-11-01T10:32:53.008Z</time>
      </trkpt>
      <trkpt lat="42.99108" lon="1.95525">
        <ele>407</ele>
        <time>2016-11-01T10:32:56.008Z</time>
      </trkpt>
      <trkpt lat="42.99098" lon="1.95517">
        <ele>407</ele>
        <time>2016-11-01T10:32:59.008Z</time>
      </trkpt>
      <trkpt lat="42.99088" lon="1.9552">
        <ele>409</ele>
        <time>2016-11-01T10:33:03.008Z</time>
      </trkpt>
      <trkpt lat="42.99074" lon="1.95526">
        <ele>409</ele>
        <time>2016-11-01T10:33:07.008Z</time>
      </trkpt>
      <trkpt lat="42.99061" lon="1.95525">
        <ele>409</ele>
        <time>2016-11-01T10:33:10.008Z</time>
      </trkpt>
      <trkpt lat="42.99051" lon="1.95522">
        <ele>409</ele>
        <time>2016-11-01T10:33:12.008Z</time>
      </trkpt>
      <trkpt lat="42.99042" lon="1.95512">
        <ele>409</ele>
        <time>2016-11-01T10:33:14.008Z</time>
      </trkpt>
      <trkpt lat="42.9904" lon="1.95498">
        <ele>409</ele>
        <time>2016-11-01T10:33:16.008Z</time>
      </trkpt>
      <trkpt lat="42.9905" lon="1.95485">
        <ele>409</ele>
        <time>2016-11-01T10:33:19.008Z</time>
      </trkpt>
      <trkpt lat="42.99056" lon="1.95474">
        <ele>409</ele>
        <time>2016-11-01T10:33:22.008Z</time>
      </trkpt>
      <trkpt lat="42.99065" lon="1.95464">
        <ele>409</ele>
        <time>2016-11-01T10:33:25.008Z</time>
      </trkpt>
      <trkpt lat="42.99072" lon="1.95454">
        <ele>409</ele>
        <time>2016-11-01T10:33:28.008Z</time>
      </trkpt>
      <trkpt lat="42.99076" lon="1.95437">
        <ele>409</ele>
        <time>2016-11-01T10:33:31.008Z</time>
      </trkpt>
      <trkpt lat="42.99078" lon="1.95423">
        <ele>409</ele>
        <time>2016-11-01T10:33:33.008Z</time>
      </trkpt>
      <trkpt lat="42.9908" lon="1.95408">
        <ele>409</ele>
        <time>2016-11-01T10:33:35.008Z</time>
      </trkpt>
      <trkpt lat="42.99082" lon="1.95394">
        <ele>409</ele>
        <time>2016-11-01T10:33:37.008Z</time>
      </trkpt>
      <trkpt lat="42.99084" lon="1.9538">
        <ele>409</ele>
        <time>2016-11-01T10:33:39.008Z</time>
      </trkpt>
      <trkpt lat="42.99086" lon="1.95361">
        <ele>409</ele>
        <time>2016-11-01T10:33:42.008Z</time>
      </trkpt>
      <trkpt lat="42.99089" lon="1.95345">
        <ele>409</ele>
        <time>2016-11-01T10:33:45.008Z</time>
      </trkpt>
      <trkpt lat="42.99086" lon="1.95327">
        <ele>409</ele>
        <time>2016-11-01T10:33:49.008Z</time>
      </trkpt>
      <trkpt lat="42.99083" lon="1.95314">
        <ele>408.5640064</ele>
        <time>2016-11-01T10:33:51.008Z</time>
      </trkpt>
      <trkpt lat="42.99083" lon="1.95297">
        <ele>407</ele>
        <time>2016-11-01T10:33:54.008Z</time>
      </trkpt>
      <trkpt lat="42.99088" lon="1.95282">
        <ele>407</ele>
        <time>2016-11-01T10:33:58.008Z</time>
      </trkpt>
      <trkpt lat="42.99083" lon="1.95266">
        <ele>407</ele>
        <time>2016-11-01T10:34:02.008Z</time>
      </trkpt>
      <trkpt lat="42.99077" lon="1.95248">
        <ele>407</ele>
        <time>2016-11-01T10:34:05.008Z</time>
      </trkpt>
      <trkpt lat="42.99071" lon="1.95235">
        <ele>407</ele>
        <time>2016-11-01T10:34:07.008Z</time>
      </trkpt>
      <trkpt lat="42.99067" lon="1.95219">
        <ele>407</ele>
        <time>2016-11-01T10:34:10.008Z</time>
      </trkpt>
      <trkpt lat="42.99061" lon="1.95205">
        <ele>407</ele>
        <time>2016-11-01T10:34:13.008Z</time>
      </trkpt>
      <trkpt lat="42.99053" lon="1.95193">
        <ele>407</ele>
        <time>2016-11-01T10:34:15.008Z</time>
      </trkpt>
      <trkpt lat="42.99044" lon="1.95185">
        <ele>407</ele>
        <time>2016-11-01T10:34:18.008Z</time>
      </trkpt>
      <trkpt lat="42.99038" lon="1.95168">
        <ele>406.7820032</ele>
        <time>2016-11-01T10:34:21.008Z</time>
      </trkpt>
      <trkpt lat="42.99033" lon="1.95153">
        <ele>406</ele>
        <time>2016-11-01T10:34:24.008Z</time>
      </trkpt>
      <trkpt lat="42.99033" lon="1.95133">
        <ele>406</ele>
        <time>2016-11-01T10:34:27.008Z</time>
      </trkpt>
      <trkpt lat="42.99036" lon="1.95119">
        <ele>406</ele>
        <time>2016-11-01T10:34:29.008Z</time>
      </trkpt>
      <trkpt lat="42.99038" lon="1.95105">
        <ele>406.4359936</ele>
        <time>2016-11-01T10:34:31.008Z</time>
      </trkpt>
      <trkpt lat="42.99041" lon="1.95092">
        <ele>408</ele>
        <time>2016-11-01T10:34:33.008Z</time>
      </trkpt>
      <trkpt lat="42.99043" lon="1.95075">
        <ele>408</ele>
        <time>2016-11-01T10:34:36.008Z</time>
      </trkpt>
      <trkpt lat="42.99046" lon="1.95059">
        <ele>408</ele>
        <time>2016-11-01T10:34:39.008Z</time>
      </trkpt>
      <trkpt lat="42.99051" lon="1.95042">
        <ele>408</ele>
        <time>2016-11-01T10:34:42.008Z</time>
      </trkpt>
      <trkpt lat="42.99058" lon="1.95029">
        <ele>408</ele>
        <time>2016-11-01T10:34:45.008Z</time>
      </trkpt>
      <trkpt lat="42.99067" lon="1.95017">
        <ele>408</ele>
        <time>2016-11-01T10:34:48.008Z</time>
      </trkpt>
      <trkpt lat="42.99072" lon="1.95005">
        <ele>408</ele>
        <time>2016-11-01T10:34:50.008Z</time>
      </trkpt>
      <trkpt lat="42.9908" lon="1.9499">
        <ele>406</ele>
        <time>2016-11-01T10:34:53.008Z</time>
      </trkpt>
      <trkpt lat="42.9909" lon="1.94987">
        <ele>406</ele>
        <time>2016-11-01T10:34:57.008Z</time>
      </trkpt>
      <trkpt lat="42.99101" lon="1.94994">
        <ele>406</ele>
        <time>2016-11-01T10:35:00.008Z</time>
      </trkpt>
      <trkpt lat="42.99113" lon="1.94988">
        <ele>406</ele>
        <time>2016-11-01T10:35:03.008Z</time>
      </trkpt>
      <trkpt lat="42.99114" lon="1.94968">
        <ele>406</ele>
        <time>2016-11-01T10:35:06.008Z</time>
      </trkpt>
      <trkpt lat="42.99107" lon="1.94958">
        <ele>406</ele>
        <time>2016-11-01T10:35:08.008Z</time>
      </trkpt>
      <trkpt lat="42.99103" lon="1.94945">
        <ele>406</ele>
        <time>2016-11-01T10:35:11.008Z</time>
      </trkpt>
      <trkpt lat="42.99106" lon="1.94928">
        <ele>406</ele>
        <time>2016-11-01T10:35:14.008Z</time>
      </trkpt>
      <trkpt lat="42.99105" lon="1.94914">
        <ele>406</ele>
        <time>2016-11-01T10:35:17.008Z</time>
      </trkpt>
      <trkpt lat="42.99112" lon="1.949">
        <ele>406</ele>
        <time>2016-11-01T10:35:20.008Z</time>
      </trkpt>
      <trkpt lat="42.99122" lon="1.94893">
        <ele>407</ele>
        <time>2016-11-01T10:35:24.008Z</time>
      </trkpt>
      <trkpt lat="42.99125" lon="1.94878">
        <ele>407</ele>
        <time>2016-11-01T10:35:28.008Z</time>
      </trkpt>
      <trkpt lat="42.99123" lon="1.94858">
        <ele>406.7820032</ele>
        <time>2016-11-01T10:35:31.008Z</time>
      </trkpt>
      <trkpt lat="42.99117" lon="1.94844">
        <ele>406</ele>
        <time>2016-11-01T10:35:34.008Z</time>
      </trkpt>
      <trkpt lat="42.99117" lon="1.9483">
        <ele>406</ele>
        <time>2016-11-01T10:35:37.008Z</time>
      </trkpt>
      <trkpt lat="42.99117" lon="1.94811">
        <ele>406</ele>
        <time>2016-11-01T10:35:40.008Z</time>
      </trkpt>
      <trkpt lat="42.99119" lon="1.94794">
        <ele>405</ele>
        <time>2016-11-01T10:35:43.008Z</time>
      </trkpt>
      <trkpt lat="42.9912" lon="1.9478">
        <ele>405</ele>
        <time>2016-11-01T10:35:45.008Z</time>
      </trkpt>
      <trkpt lat="42.99113" lon="1.94769">
        <ele>405</ele>
        <time>2016-11-01T10:35:48.008Z</time>
      </trkpt>
      <trkpt lat="42.99101" lon="1.94764">
        <ele>405</ele>
        <time>2016-11-01T10:35:51.008Z</time>
      </trkpt>
      <trkpt lat="42.99091" lon="1.94764">
        <ele>405</ele>
        <time>2016-11-01T10:35:54.008Z</time>
      </trkpt>
      <trkpt lat="42.99079" lon="1.94771">
        <ele>405</ele>
        <time>2016-11-01T10:35:57.008Z</time>
      </trkpt>
      <trkpt lat="42.99069" lon="1.94781">
        <ele>405</ele>
        <time>2016-11-01T10:36:00.008Z</time>
      </trkpt>
      <trkpt lat="42.9906" lon="1.94795">
        <ele>407</ele>
        <time>2016-11-01T10:36:03.008Z</time>
      </trkpt>
      <trkpt lat="42.99056" lon="1.94807">
        <ele>407</ele>
        <time>2016-11-01T10:36:06.008Z</time>
      </trkpt>
      <trkpt lat="42.99051" lon="1.94827">
        <ele>407</ele>
        <time>2016-11-01T10:36:09.008Z</time>
      </trkpt>
      <trkpt lat="42.99044" lon="1.94839">
        <ele>407</ele>
        <time>2016-11-01T10:36:11.008Z</time>
      </trkpt>
      <trkpt lat="42.99037" lon="1.9485">
        <ele>407</ele>
        <time>2016-11-01T10:36:13.008Z</time>
      </trkpt>
      <trkpt lat="42.9903" lon="1.94862">
        <ele>407</ele>
        <time>2016-11-01T10:36:15.008Z</time>
      </trkpt>
      <trkpt lat="42.99018" lon="1.94868">
        <ele>407</ele>
        <time>2016-11-01T10:36:18.008Z</time>
      </trkpt>
      <trkpt lat="42.99008" lon="1.94874">
        <ele>406.7820032</ele>
        <time>2016-11-01T10:36:21.008Z</time>
      </trkpt>
      <trkpt lat="42.98998" lon="1.94886">
        <ele>406</ele>
        <time>2016-11-01T10:36:24.008Z</time>
      </trkpt>
      <trkpt lat="42.98985" lon="1.94892">
        <ele>406</ele>
        <time>2016-11-01T10:36:27.008Z</time>
      </trkpt>
      <trkpt lat="42.98972" lon="1.949">
        <ele>406</ele>
        <time>2016-11-01T10:36:30.008Z</time>
      </trkpt>
      <trkpt lat="42.98958" lon="1.94905">
        <ele>406</ele>
        <time>2016-11-01T10:36:33.008Z</time>
      </trkpt>
      <trkpt lat="42.98948" lon="1.94907">
        <ele>406</ele>
        <time>2016-11-01T10:36:35.008Z</time>
      </trkpt>
      <trkpt lat="42.98935" lon="1.94903">
        <ele>406</ele>
        <time>2016-11-01T10:36:38.008Z</time>
      </trkpt>
      <trkpt lat="42.98922" lon="1.94901">
        <ele>406</ele>
        <time>2016-11-01T10:36:41.008Z</time>
      </trkpt>
      <trkpt lat="42.98909" lon="1.94913">
        <ele>406</ele>
        <time>2016-11-01T10:36:44.008Z</time>
      </trkpt>
      <trkpt lat="42.989" lon="1.94922">
        <ele>406</ele>
        <time>2016-11-01T10:36:46.008Z</time>
      </trkpt>
      <trkpt lat="42.98888" lon="1.94931">
        <ele>406</ele>
        <time>2016-11-01T10:36:49.008Z</time>
      </trkpt>
      <trkpt lat="42.98879" lon="1.94926">
        <ele>407</ele>
        <time>2016-11-01T10:36:52.008Z</time>
      </trkpt>
      <trkpt lat="42.98868" lon="1.94922">
        <ele>407</ele>
        <time>2016-11-01T10:36:57.008Z</time>
      </trkpt>
      <trkpt lat="42.98858" lon="1.94915">
        <ele>407</ele>
        <time>2016-11-01T10:37:00.008Z</time>
      </trkpt>
      <trkpt lat="42.9885" lon="1.94904">
        <ele>404</ele>
        <time>2016-11-01T10:37:02.008Z</time>
      </trkpt>
      <trkpt lat="42.98842" lon="1.94892">
        <ele>404</ele>
        <time>2016-11-01T10:37:04.008Z</time>
      </trkpt>
      <trkpt lat="42.98835" lon="1.94881">
        <ele>404.2179968</ele>
        <time>2016-11-01T10:37:06.008Z</time>
      </trkpt>
      <trkpt lat="42.98824" lon="1.94876">
        <ele>405</ele>
        <time>2016-11-01T10:37:09.008Z</time>
      </trkpt>
      <trkpt lat="42.98811" lon="1.94879">
        <ele>405</ele>
        <time>2016-11-01T10:37:12.008Z</time>
      </trkpt>
      <trkpt lat="42.98799" lon="1.94883">
        <ele>405</ele>
        <time>2016-11-01T10:37:15.008Z</time>
      </trkpt>
      <trkpt lat="42.98792" lon="1.94893">
        <ele>405</ele>
        <time>2016-11-01T10:37:18.008Z</time>
      </trkpt>
      <trkpt lat="42.98785" lon="1.9491">
        <ele>405.2179968</ele>
        <time>2016-11-01T10:37:21.008Z</time>
      </trkpt>
      <trkpt lat="42.98783" lon="1.94926">
        <ele>406</ele>
        <time>2016-11-01T10:37:23.008Z</time>
      </trkpt>
      <trkpt lat="42.98783" lon="1.94941">
        <ele>406</ele>
        <time>2016-11-01T10:37:25.008Z</time>
      </trkpt>
      <trkpt lat="42.98782" lon="1.94956">
        <ele>406</ele>
        <time>2016-11-01T10:37:27.008Z</time>
      </trkpt>
      <trkpt lat="42.9878" lon="1.9497">
        <ele>406</ele>
        <time>2016-11-01T10:37:29.008Z</time>
      </trkpt>
      <trkpt lat="42.98778" lon="1.94989">
        <ele>406</ele>
        <time>2016-11-01T10:37:32.008Z</time>
      </trkpt>
      <trkpt lat="42.98775" lon="1.95006">
        <ele>406</ele>
        <time>2016-11-01T10:37:35.008Z</time>
      </trkpt>
      <trkpt lat="42.9877" lon="1.9502">
        <ele>406</ele>
        <time>2016-11-01T10:37:37.008Z</time>
      </trkpt>
      <trkpt lat="42.98767" lon="1.95034">
        <ele>406</ele>
        <time>2016-11-01T10:37:39.008Z</time>
      </trkpt>
      <trkpt lat="42.98762" lon="1.95046">
        <ele>406</ele>
        <time>2016-11-01T10:37:41.008Z</time>
      </trkpt>
      <trkpt lat="42.98753" lon="1.95062">
        <ele>406</ele>
        <time>2016-11-01T10:37:44.008Z</time>
      </trkpt>
      <trkpt lat="42.98745" lon="1.9508">
        <ele>406</ele>
        <time>2016-11-01T10:37:47.008Z</time>
      </trkpt>
      <trkpt lat="42.98737" lon="1.95094">
        <ele>406</ele>
        <time>2016-11-01T10:37:50.008Z</time>
      </trkpt>
      <trkpt lat="42.98728" lon="1.95107">
        <ele>406</ele>
        <time>2016-11-01T10:37:53.008Z</time>
      </trkpt>
      <trkpt lat="42.98717" lon="1.95122">
        <ele>406</ele>
        <time>2016-11-01T10:37:56.008Z</time>
      </trkpt>
      <trkpt lat="42.98707" lon="1.95135">
        <ele>406</ele>
        <time>2016-11-01T10:37:59.008Z</time>
      </trkpt>
      <trkpt lat="42.98696" lon="1.95146">
        <ele>406</ele>
        <time>2016-11-01T10:38:02.008Z</time>
      </trkpt>
      <trkpt lat="42.98686" lon="1.95159">
        <ele>406</ele>
        <time>2016-11-01T10:38:05.008Z</time>
      </trkpt>
      <trkpt lat="42.98681" lon="1.95178">
        <ele>406</ele>
        <time>2016-11-01T10:38:08.008Z</time>
      </trkpt>
      <trkpt lat="42.98676" lon="1.95191">
        <ele>406</ele>
        <time>2016-11-01T10:38:10.008Z</time>
      </trkpt>
      <trkpt lat="42.98671" lon="1.95204">
        <ele>406</ele>
        <time>2016-11-01T10:38:12.008Z</time>
      </trkpt>
      <trkpt lat="42.98666" lon="1.95218">
        <ele>406</ele>
        <time>2016-11-01T10:38:14.008Z</time>
      </trkpt>
      <trkpt lat="42.98658" lon="1.95229">
        <ele>406</ele>
        <time>2016-11-01T10:38:16.008Z</time>
      </trkpt>
      <trkpt lat="42.98651" lon="1.95239">
        <ele>406</ele>
        <time>2016-11-01T10:38:18.008Z</time>
      </trkpt>
      <trkpt lat="42.98644" lon="1.95257">
        <ele>406</ele>
        <time>2016-11-01T10:38:21.008Z</time>
      </trkpt>
      <trkpt lat="42.98637" lon="1.95269">
        <ele>406</ele>
        <time>2016-11-01T10:38:23.008Z</time>
      </trkpt>
      <trkpt lat="42.98631" lon="1.9528">
        <ele>406</ele>
        <time>2016-11-01T10:38:25.008Z</time>
      </trkpt>
      <trkpt lat="42.9863" lon="1.95299">
        <ele>406</ele>
        <time>2016-11-01T10:38:28.008Z</time>
      </trkpt>
      <trkpt lat="42.98632" lon="1.95318">
        <ele>406</ele>
        <time>2016-11-01T10:38:31.008Z</time>
      </trkpt>
      <trkpt lat="42.98629" lon="1.95336">
        <ele>406</ele>
        <time>2016-11-01T10:38:34.008Z</time>
      </trkpt>
      <trkpt lat="42.98622" lon="1.95346">
        <ele>406</ele>
        <time>2016-11-01T10:38:36.008Z</time>
      </trkpt>
      <trkpt lat="42.98619" lon="1.95362">
        <ele>406</ele>
        <time>2016-11-01T10:38:39.008Z</time>
      </trkpt>
      <trkpt lat="42.98617" lon="1.95376">
        <ele>406.2179968</ele>
        <time>2016-11-01T10:38:41.008Z</time>
      </trkpt>
      <trkpt lat="42.98618" lon="1.95395">
        <ele>407</ele>
        <time>2016-11-01T10:38:44.008Z</time>
      </trkpt>
      <trkpt lat="42.98616" lon="1.95411">
        <ele>407</ele>
        <time>2016-11-01T10:38:47.008Z</time>
      </trkpt>
      <trkpt lat="42.98611" lon="1.95426">
        <ele>407</ele>
        <time>2016-11-01T10:38:50.008Z</time>
      </trkpt>
      <trkpt lat="42.98611" lon="1.95442">
        <ele>407</ele>
        <time>2016-11-01T10:38:52.008Z</time>
      </trkpt>
      <trkpt lat="42.98605" lon="1.95459">
        <ele>407</ele>
        <time>2016-11-01T10:38:55.008Z</time>
      </trkpt>
      <trkpt lat="42.986" lon="1.95472">
        <ele>407</ele>
        <time>2016-11-01T10:38:57.008Z</time>
      </trkpt>
      <trkpt lat="42.98588" lon="1.95478">
        <ele>407</ele>
        <time>2016-11-01T10:39:00.008Z</time>
      </trkpt>
      <trkpt lat="42.98577" lon="1.95474">
        <ele>409</ele>
        <time>2016-11-01T10:39:03.008Z</time>
      </trkpt>
      <trkpt lat="42.98565" lon="1.95467">
        <ele>409</ele>
        <time>2016-11-01T10:39:06.008Z</time>
      </trkpt>
      <trkpt lat="42.9855" lon="1.95468">
        <ele>409</ele>
        <time>2016-11-01T10:39:09.008Z</time>
      </trkpt>
      <trkpt lat="42.98536" lon="1.95473">
        <ele>408.7820032</ele>
        <time>2016-11-01T10:39:11.008Z</time>
      </trkpt>
      <trkpt lat="42.9852" lon="1.95479">
        <ele>408</ele>
        <time>2016-11-01T10:39:13.008Z</time>
      </trkpt>
      <trkpt lat="42.98503" lon="1.95481">
        <ele>408</ele>
        <time>2016-11-01T10:39:15.008Z</time>
      </trkpt>
      <trkpt lat="42.98488" lon="1.95481">
        <ele>408</ele>
        <time>2016-11-01T10:39:17.008Z</time>
      </trkpt>
      <trkpt lat="42.98476" lon="1.95481">
        <ele>408</ele>
        <time>2016-11-01T10:39:19.008Z</time>
      </trkpt>
      <trkpt lat="42.98463" lon="1.95472">
        <ele>408</ele>
        <time>2016-11-01T10:39:22.008Z</time>
      </trkpt>
      <trkpt lat="42.98456" lon="1.95455">
        <ele>408</ele>
        <time>2016-11-01T10:39:25.008Z</time>
      </trkpt>
      <trkpt lat="42.98455" lon="1.95436">
        <ele>408</ele>
        <time>2016-11-01T10:39:28.008Z</time>
      </trkpt>
      <trkpt lat="42.98457" lon="1.9542">
        <ele>408</ele>
        <time>2016-11-01T10:39:31.008Z</time>
      </trkpt>
      <trkpt lat="42.98461" lon="1.95405">
        <ele>408</ele>
        <time>2016-11-01T10:39:34.008Z</time>
      </trkpt>
      <trkpt lat="42.98464" lon="1.9539">
        <ele>408</ele>
        <time>2016-11-01T10:39:37.008Z</time>
      </trkpt>
      <trkpt lat="42.98467" lon="1.95372">
        <ele>408</ele>
        <time>2016-11-01T10:39:40.008Z</time>
      </trkpt>
      <trkpt lat="42.9847" lon="1.95355">
        <ele>409</ele>
        <time>2016-11-01T10:39:43.008Z</time>
      </trkpt>
      <trkpt lat="42.98472" lon="1.95339">
        <ele>409</ele>
        <time>2016-11-01T10:39:46.008Z</time>
      </trkpt>
      <trkpt lat="42.98474" lon="1.95321">
        <ele>409</ele>
        <time>2016-11-01T10:39:49.008Z</time>
      </trkpt>
      <trkpt lat="42.98475" lon="1.95303">
        <ele>409</ele>
        <time>2016-11-01T10:39:52.008Z</time>
      </trkpt>
      <trkpt lat="42.98476" lon="1.95284">
        <ele>409</ele>
        <time>2016-11-01T10:39:55.008Z</time>
      </trkpt>
      <trkpt lat="42.98472" lon="1.95266">
        <ele>409</ele>
        <time>2016-11-01T10:39:58.008Z</time>
      </trkpt>
      <trkpt lat="42.98472" lon="1.95252">
        <ele>409</ele>
        <time>2016-11-01T10:40:00.008Z</time>
      </trkpt>
      <trkpt lat="42.98472" lon="1.95238">
        <ele>406</ele>
        <time>2016-11-01T10:40:03.008Z</time>
      </trkpt>
      <trkpt lat="42.98474" lon="1.95221">
        <ele>406</ele>
        <time>2016-11-01T10:40:07.008Z</time>
      </trkpt>
      <trkpt lat="42.98475" lon="1.95205">
        <ele>406</ele>
        <time>2016-11-01T10:40:10.008Z</time>
      </trkpt>
      <trkpt lat="42.9848" lon="1.95192">
        <ele>407</ele>
        <time>2016-11-01T10:40:13.008Z</time>
      </trkpt>
      <trkpt lat="42.98481" lon="1.95178">
        <ele>407</ele>
        <time>2016-11-01T10:40:16.008Z</time>
      </trkpt>
      <trkpt lat="42.98482" lon="1.9516">
        <ele>407</ele>
        <time>2016-11-01T10:40:19.008Z</time>
      </trkpt>
      <trkpt lat="42.98483" lon="1.95146">
        <ele>407</ele>
        <time>2016-11-01T10:40:21.008Z</time>
      </trkpt>
      <trkpt lat="42.98485" lon="1.95132">
        <ele>407</ele>
        <time>2016-11-01T10:40:23.008Z</time>
      </trkpt>
      <trkpt lat="42.98486" lon="1.95118">
        <ele>407</ele>
        <time>2016-11-01T10:40:25.008Z</time>
      </trkpt>
      <trkpt lat="42.98486" lon="1.95098">
        <ele>407</ele>
        <time>2016-11-01T10:40:28.008Z</time>
      </trkpt>
      <trkpt lat="42.98482" lon="1.95078">
        <ele>406.7820032</ele>
        <time>2016-11-01T10:40:31.008Z</time>
      </trkpt>
      <trkpt lat="42.98478" lon="1.95063">
        <ele>406</ele>
        <time>2016-11-01T10:40:33.008Z</time>
      </trkpt>
      <trkpt lat="42.98475" lon="1.95049">
        <ele>406</ele>
        <time>2016-11-01T10:40:35.008Z</time>
      </trkpt>
      <trkpt lat="42.98476" lon="1.95033">
        <ele>406</ele>
        <time>2016-11-01T10:40:37.008Z</time>
      </trkpt>
      <trkpt lat="42.98476" lon="1.95014">
        <ele>406</ele>
        <time>2016-11-01T10:40:40.008Z</time>
      </trkpt>
      <trkpt lat="42.98478" lon="1.94995">
        <ele>406</ele>
        <time>2016-11-01T10:40:43.008Z</time>
      </trkpt>
      <trkpt lat="42.98478" lon="1.94976">
        <ele>406</ele>
        <time>2016-11-01T10:40:46.008Z</time>
      </trkpt>
      <trkpt lat="42.98478" lon="1.94959">
        <ele>406</ele>
        <time>2016-11-01T10:40:49.008Z</time>
      </trkpt>
      <trkpt lat="42.98478" lon="1.94946">
        <ele>406.2179968</ele>
        <time>2016-11-01T10:40:51.008Z</time>
      </trkpt>
      <trkpt lat="42.9848" lon="1.94931">
        <ele>407</ele>
        <time>2016-11-01T10:40:53.008Z</time>
      </trkpt>
      <trkpt lat="42.98483" lon="1.94913">
        <ele>407</ele>
        <time>2016-11-01T10:40:56.008Z</time>
      </trkpt>
      <trkpt lat="42.98483" lon="1.94896">
        <ele>407</ele>
        <time>2016-11-01T10:40:59.008Z</time>
      </trkpt>
      <trkpt lat="42.98484" lon="1.94882">
        <ele>406.7820032</ele>
        <time>2016-11-01T10:41:01.008Z</time>
      </trkpt>
      <trkpt lat="42.98484" lon="1.94866">
        <ele>406</ele>
        <time>2016-11-01T10:41:03.008Z</time>
      </trkpt>
      <trkpt lat="42.98485" lon="1.94852">
        <ele>406</ele>
        <time>2016-11-01T10:41:05.008Z</time>
      </trkpt>
      <trkpt lat="42.98487" lon="1.94838">
        <ele>406</ele>
        <time>2016-11-01T10:41:07.008Z</time>
      </trkpt>
      <trkpt lat="42.98487" lon="1.94822">
        <ele>406</ele>
        <time>2016-11-01T10:41:09.008Z</time>
      </trkpt>
      <trkpt lat="42.98487" lon="1.94807">
        <ele>406</ele>
        <time>2016-11-01T10:41:11.008Z</time>
      </trkpt>
      <trkpt lat="42.9849" lon="1.94788">
        <ele>406</ele>
        <time>2016-11-01T10:41:14.008Z</time>
      </trkpt>
      <trkpt lat="42.98494" lon="1.94772">
        <ele>406</ele>
        <time>2016-11-01T10:41:17.008Z</time>
      </trkpt>
      <trkpt lat="42.98496" lon="1.94756">
        <ele>406</ele>
        <time>2016-11-01T10:41:20.008Z</time>
      </trkpt>
      <trkpt lat="42.98497" lon="1.94743">
        <ele>406</ele>
        <time>2016-11-01T10:41:22.008Z</time>
      </trkpt>
      <trkpt lat="42.98496" lon="1.94728">
        <ele>406</ele>
        <time>2016-11-01T10:41:24.008Z</time>
      </trkpt>
      <trkpt lat="42.98494" lon="1.94713">
        <ele>406</ele>
        <time>2016-11-01T10:41:26.008Z</time>
      </trkpt>
      <trkpt lat="42.98493" lon="1.94698">
        <ele>406</ele>
        <time>2016-11-01T10:41:28.008Z</time>
      </trkpt>
      <trkpt lat="42.98494" lon="1.94683">
        <ele>406</ele>
        <time>2016-11-01T10:41:30.008Z</time>
      </trkpt>
      <trkpt lat="42.98499" lon="1.94665">
        <ele>406</ele>
        <time>2016-11-01T10:41:33.008Z</time>
      </trkpt>
      <trkpt lat="42.98505" lon="1.94652">
        <ele>406</ele>
        <time>2016-11-01T10:41:36.008Z</time>
      </trkpt>
      <trkpt lat="42.98508" lon="1.94639">
        <ele>406</ele>
        <time>2016-11-01T10:41:39.008Z</time>
      </trkpt>
      <trkpt lat="42.98508" lon="1.94621">
        <ele>405</ele>
        <time>2016-11-01T10:41:42.008Z</time>
      </trkpt>
      <trkpt lat="42.98508" lon="1.94605">
        <ele>405</ele>
        <time>2016-11-01T10:41:44.008Z</time>
      </trkpt>
      <trkpt lat="42.98512" lon="1.94592">
        <ele>405</ele>
        <time>2016-11-01T10:41:46.008Z</time>
      </trkpt>
      <trkpt lat="42.98518" lon="1.94575">
        <ele>405</ele>
        <time>2016-11-01T10:41:49.008Z</time>
      </trkpt>
      <trkpt lat="42.98523" lon="1.94562">
        <ele>405</ele>
        <time>2016-11-01T10:41:51.008Z</time>
      </trkpt>
      <trkpt lat="42.98528" lon="1.94545">
        <ele>405</ele>
        <time>2016-11-01T10:41:54.008Z</time>
      </trkpt>
      <trkpt lat="42.98531" lon="1.94527">
        <ele>405</ele>
        <time>2016-11-01T10:41:57.008Z</time>
      </trkpt>
      <trkpt lat="42.98532" lon="1.94513">
        <ele>405</ele>
        <time>2016-11-01T10:41:59.008Z</time>
      </trkpt>
      <trkpt lat="42.98535" lon="1.945">
        <ele>405.21010033099</ele>
        <time>2016-11-01T10:42:01.008Z</time>
      </trkpt>
      <trkpt lat="42.98539" lon="1.94482">
        <ele>406</ele>
        <time>2016-11-01T10:42:04.008Z</time>
      </trkpt>
      <trkpt lat="42.98544" lon="1.94466">
        <ele>406</ele>
        <time>2016-11-01T10:42:07.008Z</time>
      </trkpt>
      <trkpt lat="42.98548" lon="1.94448">
        <ele>406</ele>
        <time>2016-11-01T10:42:10.008Z</time>
      </trkpt>
      <trkpt lat="42.98553" lon="1.94429">
        <ele>407</ele>
        <time>2016-11-01T10:42:13.008Z</time>
      </trkpt>
      <trkpt lat="42.98559" lon="1.94414">
        <ele>407</ele>
        <time>2016-11-01T10:42:15.008Z</time>
      </trkpt>
      <trkpt lat="42.98566" lon="1.94402">
        <ele>407</ele>
        <time>2016-11-01T10:42:17.008Z</time>
      </trkpt>
      <trkpt lat="42.98573" lon="1.94389">
        <ele>407</ele>
        <time>2016-11-01T10:42:19.008Z</time>
      </trkpt>
      <trkpt lat="42.98582" lon="1.9438">
        <ele>407</ele>
        <time>2016-11-01T10:42:21.008Z</time>
      </trkpt>
      <trkpt lat="42.98591" lon="1.94364">
        <ele>407</ele>
        <time>2016-11-01T10:42:24.008Z</time>
      </trkpt>
      <trkpt lat="42.98596" lon="1.94351">
        <ele>407</ele>
        <time>2016-11-01T10:42:26.008Z</time>
      </trkpt>
      <trkpt lat="42.98597" lon="1.94336">
        <ele>407</ele>
        <time>2016-11-01T10:42:28.008Z</time>
      </trkpt>
      <trkpt lat="42.98599" lon="1.94322">
        <ele>407</ele>
        <time>2016-11-01T10:42:30.008Z</time>
      </trkpt>
      <trkpt lat="42.98603" lon="1.94308">
        <ele>406</ele>
        <time>2016-11-01T10:42:32.008Z</time>
      </trkpt>
      <trkpt lat="42.98611" lon="1.94294">
        <ele>406</ele>
        <time>2016-11-01T10:42:35.008Z</time>
      </trkpt>
      <trkpt lat="42.9861" lon="1.94277">
        <ele>406</ele>
        <time>2016-11-01T10:42:39.008Z</time>
      </trkpt>
      <trkpt lat="42.98604" lon="1.94268">
        <ele>406.2179968</ele>
        <time>2016-11-01T10:42:41.008Z</time>
      </trkpt>
      <trkpt lat="42.98598" lon="1.94259">
        <ele>407</ele>
        <time>2016-11-01T10:42:43.008Z</time>
      </trkpt>
      <trkpt lat="42.98592" lon="1.94252">
        <ele>407</ele>
        <time>2016-11-01T10:42:45.008Z</time>
      </trkpt>
      <trkpt lat="42.98587" lon="1.94245">
        <ele>407</ele>
        <time>2016-11-01T10:42:47.008Z</time>
      </trkpt>
      <trkpt lat="42.98581" lon="1.9424">
        <ele>407</ele>
        <time>2016-11-01T10:42:49.008Z</time>
      </trkpt>
      <trkpt lat="42.98576" lon="1.94233">
        <ele>407</ele>
        <time>2016-11-01T10:42:51.008Z</time>
      </trkpt>
      <trkpt lat="42.98571" lon="1.94227">
        <ele>407</ele>
        <time>2016-11-01T10:42:53.008Z</time>
      </trkpt>
      <trkpt lat="42.98566" lon="1.94221">
        <ele>407</ele>
        <time>2016-11-01T10:42:55.008Z</time>
      </trkpt>
      <trkpt lat="42.98561" lon="1.94215">
        <ele>407</ele>
        <time>2016-11-01T10:42:57.008Z</time>
      </trkpt>
      <trkpt lat="42.98555" lon="1.94208">
        <ele>407</ele>
        <time>2016-11-01T10:42:59.008Z</time>
      </trkpt>
      <trkpt lat="42.9855" lon="1.94201">
        <ele>407.2179968</ele>
        <time>2016-11-01T10:43:01.008Z</time>
      </trkpt>
      <trkpt lat="42.98544" lon="1.94194">
        <ele>408</ele>
        <time>2016-11-01T10:43:03.008Z</time>
      </trkpt>
      <trkpt lat="42.98538" lon="1.94187">
        <ele>408</ele>
        <time>2016-11-01T10:43:05.008Z</time>
      </trkpt>
      <trkpt lat="42.98532" lon="1.9418">
        <ele>408</ele>
        <time>2016-11-01T10:43:07.008Z</time>
      </trkpt>
      <trkpt lat="42.98526" lon="1.94173">
        <ele>408</ele>
        <time>2016-11-01T10:43:09.008Z</time>
      </trkpt>
      <trkpt lat="42.9852" lon="1.94166">
        <ele>408</ele>
        <time>2016-11-01T10:43:11.008Z</time>
      </trkpt>
      <trkpt lat="42.98515" lon="1.94159">
        <ele>408</ele>
        <time>2016-11-01T10:43:13.008Z</time>
      </trkpt>
      <trkpt lat="42.98509" lon="1.94151">
        <ele>408</ele>
        <time>2016-11-01T10:43:15.008Z</time>
      </trkpt>
      <trkpt lat="42.98503" lon="1.94144">
        <ele>408</ele>
        <time>2016-11-01T10:43:17.008Z</time>
      </trkpt>
      <trkpt lat="42.98497" lon="1.94137">
        <ele>408</ele>
        <time>2016-11-01T10:43:19.008Z</time>
      </trkpt>
      <trkpt lat="42.98491" lon="1.94129">
        <ele>408</ele>
        <time>2016-11-01T10:43:21.008Z</time>
      </trkpt>
      <trkpt lat="42.98485" lon="1.94122">
        <ele>408</ele>
        <time>2016-11-01T10:43:23.008Z</time>
      </trkpt>
      <trkpt lat="42.98479" lon="1.94115">
        <ele>408</ele>
        <time>2016-11-01T10:43:25.008Z</time>
      </trkpt>
      <trkpt lat="42.98473" lon="1.94107">
        <ele>408</ele>
        <time>2016-11-01T10:43:27.008Z</time>
      </trkpt>
      <trkpt lat="42.98467" lon="1.94099">
        <ele>408</ele>
        <time>2016-11-01T10:43:29.008Z</time>
      </trkpt>
      <trkpt lat="42.9846" lon="1.94092">
        <ele>408</ele>
        <time>2016-11-01T10:43:31.008Z</time>
      </trkpt>
      <trkpt lat="42.98454" lon="1.94084">
        <ele>408</ele>
        <time>2016-11-01T10:43:33.008Z</time>
      </trkpt>
      <trkpt lat="42.98448" lon="1.94076">
        <ele>408</ele>
        <time>2016-11-01T10:43:35.008Z</time>
      </trkpt>
      <trkpt lat="42.98442" lon="1.94068">
        <ele>408</ele>
        <time>2016-11-01T10:43:37.008Z</time>
      </trkpt>
      <trkpt lat="42.98435" lon="1.94059">
        <ele>408</ele>
        <time>2016-11-01T10:43:39.008Z</time>
      </trkpt>
      <trkpt lat="42.98429" lon="1.94051">
        <ele>408</ele>
        <time>2016-11-01T10:43:41.008Z</time>
      </trkpt>
      <trkpt lat="42.98422" lon="1.94043">
        <ele>408</ele>
        <time>2016-11-01T10:43:43.008Z</time>
      </trkpt>
      <trkpt lat="42.98415" lon="1.94035">
        <ele>408</ele>
        <time>2016-11-01T10:43:45.008Z</time>
      </trkpt>
      <trkpt lat="42.98408" lon="1.94027">
        <ele>408</ele>
        <time>2016-11-01T10:43:47.008Z</time>
      </trkpt>
      <trkpt lat="42.98405" lon="1.94023">
        <ele>408</ele>
        <time>2016-11-01T10:43:48.008Z</time>
      </trkpt>
      <trkpt lat="42.98398" lon="1.94014">
        <ele>408</ele>
        <time>2016-11-01T10:43:50.008Z</time>
      </trkpt>
      <trkpt lat="42.98391" lon="1.94005">
        <ele>408</ele>
        <time>2016-11-01T10:43:52.008Z</time>
      </trkpt>
      <trkpt lat="42.98384" lon="1.93997">
        <ele>408</ele>
        <time>2016-11-01T10:43:54.008Z</time>
      </trkpt>
      <trkpt lat="42.98377" lon="1.93988">
        <ele>408</ele>
        <time>2016-11-01T10:43:56.008Z</time>
      </trkpt>
      <trkpt lat="42.98374" lon="1.93984">
        <ele>407.7820032</ele>
        <time>2016-11-01T10:43:57.008Z</time>
      </trkpt>
      <trkpt lat="42.9837" lon="1.93979">
        <ele>407</ele>
        <time>2016-11-01T10:43:58.008Z</time>
      </trkpt>
      <trkpt lat="42.98367" lon="1.93975">
        <ele>407</ele>
        <time>2016-11-01T10:43:59.008Z</time>
      </trkpt>
      <trkpt lat="42.98363" lon="1.93971">
        <ele>407</ele>
        <time>2016-11-01T10:44:00.008Z</time>
      </trkpt>
      <trkpt lat="42.98359" lon="1.93966">
        <ele>407</ele>
        <time>2016-11-01T10:44:01.008Z</time>
      </trkpt>
      <trkpt lat="42.98356" lon="1.93962">
        <ele>407</ele>
        <time>2016-11-01T10:44:02.008Z</time>
      </trkpt>
      <trkpt lat="42.98352" lon="1.93957">
        <ele>407</ele>
        <time>2016-11-01T10:44:03.008Z</time>
      </trkpt>
      <trkpt lat="42.98349" lon="1.93953">
        <ele>407</ele>
        <time>2016-11-01T10:44:04.008Z</time>
      </trkpt>
      <trkpt lat="42.98345" lon="1.93948">
        <ele>407</ele>
        <time>2016-11-01T10:44:05.008Z</time>
      </trkpt>
      <trkpt lat="42.98341" lon="1.93944">
        <ele>407</ele>
        <time>2016-11-01T10:44:06.008Z</time>
      </trkpt>
      <trkpt lat="42.98338" lon="1.93939">
        <ele>407</ele>
        <time>2016-11-01T10:44:07.008Z</time>
      </trkpt>
      <trkpt lat="42.98334" lon="1.93935">
        <ele>407</ele>
        <time>2016-11-01T10:44:08.008Z</time>
      </trkpt>
      <trkpt lat="42.9833" lon="1.9393">
        <ele>407</ele>
        <time>2016-11-01T10:44:09.008Z</time>
      </trkpt>
      <trkpt lat="42.98327" lon="1.93925">
        <ele>407</ele>
        <time>2016-11-01T10:44:10.008Z</time>
      </trkpt>
      <trkpt lat="42.98323" lon="1.93921">
        <ele>407</ele>
        <time>2016-11-01T10:44:11.008Z</time>
      </trkpt>
      <trkpt lat="42.98319" lon="1.93916">
        <ele>407</ele>
        <time>2016-11-01T10:44:12.008Z</time>
      </trkpt>
      <trkpt lat="42.98315" lon="1.93911">
        <ele>407</ele>
        <time>2016-11-01T10:44:13.008Z</time>
      </trkpt>
      <trkpt lat="42.98312" lon="1.93906">
        <ele>407</ele>
        <time>2016-11-01T10:44:14.008Z</time>
      </trkpt>
      <trkpt lat="42.98309" lon="1.939">
        <ele>407</ele>
        <time>2016-11-01T10:44:15.008Z</time>
      </trkpt>
      <trkpt lat="42.98306" lon="1.93895">
        <ele>407</ele>
        <time>2016-11-01T10:44:16.008Z</time>
      </trkpt>
      <trkpt lat="42.98304" lon="1.93888">
        <ele>407</ele>
        <time>2016-11-01T10:44:17.008Z</time>
      </trkpt>
      <trkpt lat="42.98303" lon="1.93882">
        <ele>407</ele>
        <time>2016-11-01T10:44:18.008Z</time>
      </trkpt>
      <trkpt lat="42.98302" lon="1.93876">
        <ele>407</ele>
        <time>2016-11-01T10:44:19.008Z</time>
      </trkpt>
      <trkpt lat="42.98301" lon="1.93869">
        <ele>407</ele>
        <time>2016-11-01T10:44:20.008Z</time>
      </trkpt>
      <trkpt lat="42.983" lon="1.93863">
        <ele>407</ele>
        <time>2016-11-01T10:44:21.008Z</time>
      </trkpt>
      <trkpt lat="42.98299" lon="1.93853">
        <ele>407</ele>
        <time>2016-11-01T10:44:23.008Z</time>
      </trkpt>
      <trkpt lat="42.98307" lon="1.93843">
        <ele>407</ele>
        <time>2016-11-01T10:44:27.008Z</time>
      </trkpt>
      <trkpt lat="42.98312" lon="1.93833">
        <ele>407</ele>
        <time>2016-11-01T10:44:30.008Z</time>
      </trkpt>
      <trkpt lat="42.98317" lon="1.9382">
        <ele>409</ele>
        <time>2016-11-01T10:44:33.008Z</time>
      </trkpt>
      <trkpt lat="42.98322" lon="1.93806">
        <ele>409</ele>
        <time>2016-11-01T10:44:36.008Z</time>
      </trkpt>
      <trkpt lat="42.98326" lon="1.93793">
        <ele>409</ele>
        <time>2016-11-01T10:44:39.008Z</time>
      </trkpt>
      <trkpt lat="42.98329" lon="1.93779">
        <ele>411</ele>
        <time>2016-11-01T10:44:42.008Z</time>
      </trkpt>
      <trkpt lat="42.98333" lon="1.93764">
        <ele>411</ele>
        <time>2016-11-01T10:44:45.008Z</time>
      </trkpt>
      <trkpt lat="42.98337" lon="1.93749">
        <ele>411</ele>
        <time>2016-11-01T10:44:48.008Z</time>
      </trkpt>
      <trkpt lat="42.98342" lon="1.93733">
        <ele>411</ele>
        <time>2016-11-01T10:44:51.008Z</time>
      </trkpt>
      <trkpt lat="42.98344" lon="1.93723">
        <ele>411</ele>
        <time>2016-11-01T10:44:53.008Z</time>
      </trkpt>
      <trkpt lat="42.98347" lon="1.93706">
        <ele>411</ele>
        <time>2016-11-01T10:44:56.008Z</time>
      </trkpt>
      <trkpt lat="42.98349" lon="1.93694">
        <ele>411</ele>
        <time>2016-11-01T10:44:58.008Z</time>
      </trkpt>
      <trkpt lat="42.9835" lon="1.93678">
        <ele>411.4359936</ele>
        <time>2016-11-01T10:45:01.008Z</time>
      </trkpt>
      <trkpt lat="42.9835" lon="1.93663">
        <ele>413</ele>
        <time>2016-11-01T10:45:04.008Z</time>
      </trkpt>
      <trkpt lat="42.98349" lon="1.93647">
        <ele>413</ele>
        <time>2016-11-01T10:45:07.008Z</time>
      </trkpt>
      <trkpt lat="42.98348" lon="1.93631">
        <ele>413</ele>
        <time>2016-11-01T10:45:10.008Z</time>
      </trkpt>
      <trkpt lat="42.9835" lon="1.93614">
        <ele>415</ele>
        <time>2016-11-01T10:45:13.008Z</time>
      </trkpt>
      <trkpt lat="42.98354" lon="1.93597">
        <ele>415</ele>
        <time>2016-11-01T10:45:16.008Z</time>
      </trkpt>
      <trkpt lat="42.98358" lon="1.9358">
        <ele>415</ele>
        <time>2016-11-01T10:45:19.008Z</time>
      </trkpt>
      <trkpt lat="42.98361" lon="1.93566">
        <ele>415.2179968</ele>
        <time>2016-11-01T10:45:21.008Z</time>
      </trkpt>
      <trkpt lat="42.98362" lon="1.93552">
        <ele>416</ele>
        <time>2016-11-01T10:45:23.008Z</time>
      </trkpt>
      <trkpt lat="42.98364" lon="1.93539">
        <ele>416</ele>
        <time>2016-11-01T10:45:25.008Z</time>
      </trkpt>
      <trkpt lat="42.98364" lon="1.93525">
        <ele>416</ele>
        <time>2016-11-01T10:45:27.008Z</time>
      </trkpt>
      <trkpt lat="42.98362" lon="1.93511">
        <ele>416</ele>
        <time>2016-11-01T10:45:29.008Z</time>
      </trkpt>
      <trkpt lat="42.98357" lon="1.93498">
        <ele>415.7820032</ele>
        <time>2016-11-01T10:45:31.008Z</time>
      </trkpt>
      <trkpt lat="42.98351" lon="1.93485">
        <ele>415</ele>
        <time>2016-11-01T10:45:33.008Z</time>
      </trkpt>
      <trkpt lat="42.98346" lon="1.9347">
        <ele>415</ele>
        <time>2016-11-01T10:45:35.008Z</time>
      </trkpt>
      <trkpt lat="42.98343" lon="1.93453">
        <ele>415</ele>
        <time>2016-11-01T10:45:37.008Z</time>
      </trkpt>
      <trkpt lat="42.98344" lon="1.93443">
        <ele>415</ele>
        <time>2016-11-01T10:45:38.008Z</time>
      </trkpt>
      <trkpt lat="42.98345" lon="1.93434">
        <ele>415</ele>
        <time>2016-11-01T10:45:39.008Z</time>
      </trkpt>
      <trkpt lat="42.98347" lon="1.93415">
        <ele>414.3460096</ele>
        <time>2016-11-01T10:45:41.008Z</time>
      </trkpt>
      <trkpt lat="42.98348" lon="1.93407">
        <ele>412</ele>
        <time>2016-11-01T10:45:42.008Z</time>
      </trkpt>
      <trkpt lat="42.98348" lon="1.93398">
        <ele>412</ele>
        <time>2016-11-01T10:45:43.008Z</time>
      </trkpt>
      <trkpt lat="42.98347" lon="1.9339">
        <ele>412</ele>
        <time>2016-11-01T10:45:44.008Z</time>
      </trkpt>
      <trkpt lat="42.98345" lon="1.93382">
        <ele>412</ele>
        <time>2016-11-01T10:45:45.008Z</time>
      </trkpt>
      <trkpt lat="42.98343" lon="1.93375">
        <ele>411.5640064</ele>
        <time>2016-11-01T10:45:46.008Z</time>
      </trkpt>
      <trkpt lat="42.98341" lon="1.93367">
        <ele>410</ele>
        <time>2016-11-01T10:45:47.008Z</time>
      </trkpt>
      <trkpt lat="42.9834" lon="1.93359">
        <ele>410</ele>
        <time>2016-11-01T10:45:48.008Z</time>
      </trkpt>
      <trkpt lat="42.98341" lon="1.93351">
        <ele>410</ele>
        <time>2016-11-01T10:45:49.008Z</time>
      </trkpt>
      <trkpt lat="42.98343" lon="1.93343">
        <ele>410</ele>
        <time>2016-11-01T10:45:50.008Z</time>
      </trkpt>
      <trkpt lat="42.98345" lon="1.93335">
        <ele>409.7820032</ele>
        <time>2016-11-01T10:45:51.008Z</time>
      </trkpt>
      <trkpt lat="42.98347" lon="1.93326">
        <ele>409</ele>
        <time>2016-11-01T10:45:52.008Z</time>
      </trkpt>
      <trkpt lat="42.98347" lon="1.93318">
        <ele>409</ele>
        <time>2016-11-01T10:45:53.008Z</time>
      </trkpt>
      <trkpt lat="42.98347" lon="1.9331">
        <ele>409</ele>
        <time>2016-11-01T10:45:54.008Z</time>
      </trkpt>
      <trkpt lat="42.98345" lon="1.93302">
        <ele>409</ele>
        <time>2016-11-01T10:45:55.008Z</time>
      </trkpt>
      <trkpt lat="42.98344" lon="1.93294">
        <ele>408.7820032</ele>
        <time>2016-11-01T10:45:56.008Z</time>
      </trkpt>
      <trkpt lat="42.98343" lon="1.93287">
        <ele>408</ele>
        <time>2016-11-01T10:45:57.008Z</time>
      </trkpt>
      <trkpt lat="42.98341" lon="1.93279">
        <ele>408</ele>
        <time>2016-11-01T10:45:58.008Z</time>
      </trkpt>
      <trkpt lat="42.9834" lon="1.93271">
        <ele>408</ele>
        <time>2016-11-01T10:45:59.008Z</time>
      </trkpt>
      <trkpt lat="42.98339" lon="1.93263">
        <ele>408</ele>
        <time>2016-11-01T10:46:00.008Z</time>
      </trkpt>
      <trkpt lat="42.98338" lon="1.93256">
        <ele>407.7820032</ele>
        <time>2016-11-01T10:46:01.008Z</time>
      </trkpt>
      <trkpt lat="42.98337" lon="1.93248">
        <ele>407</ele>
        <time>2016-11-01T10:46:02.008Z</time>
      </trkpt>
      <trkpt lat="42.98335" lon="1.9324">
        <ele>407</ele>
        <time>2016-11-01T10:46:03.008Z</time>
      </trkpt>
      <trkpt lat="42.98334" lon="1.93232">
        <ele>407</ele>
        <time>2016-11-01T10:46:04.008Z</time>
      </trkpt>
      <trkpt lat="42.98333" lon="1.93225">
        <ele>407</ele>
        <time>2016-11-01T10:46:05.008Z</time>
      </trkpt>
      <trkpt lat="42.98332" lon="1.93217">
        <ele>407</ele>
        <time>2016-11-01T10:46:06.008Z</time>
      </trkpt>
      <trkpt lat="42.98331" lon="1.93209">
        <ele>407</ele>
        <time>2016-11-01T10:46:07.008Z</time>
      </trkpt>
      <trkpt lat="42.9833" lon="1.93202">
        <ele>407</ele>
        <time>2016-11-01T10:46:08.008Z</time>
      </trkpt>
      <trkpt lat="42.98329" lon="1.93194">
        <ele>407</ele>
        <time>2016-11-01T10:46:09.008Z</time>
      </trkpt>
      <trkpt lat="42.98327" lon="1.93186">
        <ele>407</ele>
        <time>2016-11-01T10:46:10.008Z</time>
      </trkpt>
      <trkpt lat="42.98326" lon="1.93178">
        <ele>407</ele>
        <time>2016-11-01T10:46:11.008Z</time>
      </trkpt>
      <trkpt lat="42.98325" lon="1.93171">
        <ele>407</ele>
        <time>2016-11-01T10:46:12.008Z</time>
      </trkpt>
      <trkpt lat="42.98324" lon="1.93163">
        <ele>407</ele>
        <time>2016-11-01T10:46:13.008Z</time>
      </trkpt>
      <trkpt lat="42.98323" lon="1.93155">
        <ele>407</ele>
        <time>2016-11-01T10:46:14.008Z</time>
      </trkpt>
      <trkpt lat="42.98321" lon="1.93147">
        <ele>407</ele>
        <time>2016-11-01T10:46:15.008Z</time>
      </trkpt>
      <trkpt lat="42.98319" lon="1.93131">
        <ele>407</ele>
        <time>2016-11-01T10:46:17.008Z</time>
      </trkpt>
      <trkpt lat="42.98317" lon="1.93123">
        <ele>407</ele>
        <time>2016-11-01T10:46:18.008Z</time>
      </trkpt>
      <trkpt lat="42.98315" lon="1.93115">
        <ele>407</ele>
        <time>2016-11-01T10:46:19.008Z</time>
      </trkpt>
      <trkpt lat="42.98312" lon="1.93108">
        <ele>407</ele>
        <time>2016-11-01T10:46:20.008Z</time>
      </trkpt>
      <trkpt lat="42.9831" lon="1.931">
        <ele>407</ele>
        <time>2016-11-01T10:46:21.008Z</time>
      </trkpt>
      <trkpt lat="42.98307" lon="1.93093">
        <ele>407</ele>
        <time>2016-11-01T10:46:22.008Z</time>
      </trkpt>
      <trkpt lat="42.98304" lon="1.93086">
        <ele>407</ele>
        <time>2016-11-01T10:46:23.008Z</time>
      </trkpt>
      <trkpt lat="42.98301" lon="1.93079">
        <ele>407</ele>
        <time>2016-11-01T10:46:24.008Z</time>
      </trkpt>
      <trkpt lat="42.98297" lon="1.93072">
        <ele>407</ele>
        <time>2016-11-01T10:46:25.008Z</time>
      </trkpt>
      <trkpt lat="42.98293" lon="1.93066">
        <ele>407</ele>
        <time>2016-11-01T10:46:26.008Z</time>
      </trkpt>
      <trkpt lat="42.98289" lon="1.9306">
        <ele>407</ele>
        <time>2016-11-01T10:46:27.008Z</time>
      </trkpt>
      <trkpt lat="42.98285" lon="1.93054">
        <ele>407</ele>
        <time>2016-11-01T10:46:28.008Z</time>
      </trkpt>
      <trkpt lat="42.98281" lon="1.93048">
        <ele>407</ele>
        <time>2016-11-01T10:46:29.008Z</time>
      </trkpt>
      <trkpt lat="42.98277" lon="1.93042">
        <ele>407</ele>
        <time>2016-11-01T10:46:30.008Z</time>
      </trkpt>
      <trkpt lat="42.98272" lon="1.93037">
        <ele>407</ele>
        <time>2016-11-01T10:46:31.008Z</time>
      </trkpt>
      <trkpt lat="42.98268" lon="1.93032">
        <ele>407</ele>
        <time>2016-11-01T10:46:32.008Z</time>
      </trkpt>
      <trkpt lat="42.98264" lon="1.93027">
        <ele>407</ele>
        <time>2016-11-01T10:46:33.008Z</time>
      </trkpt>
      <trkpt lat="42.98255" lon="1.93017">
        <ele>407</ele>
        <time>2016-11-01T10:46:35.008Z</time>
      </trkpt>
      <trkpt lat="42.9825" lon="1.93013">
        <ele>407</ele>
        <time>2016-11-01T10:46:36.008Z</time>
      </trkpt>
      <trkpt lat="42.98241" lon="1.93009">
        <ele>407</ele>
        <time>2016-11-01T10:46:39.008Z</time>
      </trkpt>
      <trkpt lat="42.98242" lon="1.93029">
        <ele>407</ele>
        <time>2016-11-01T10:46:42.008Z</time>
      </trkpt>
      <trkpt lat="42.98237" lon="1.93044">
        <ele>407</ele>
        <time>2016-11-01T10:46:44.008Z</time>
      </trkpt>
      <trkpt lat="42.98229" lon="1.93059">
        <ele>407</ele>
        <time>2016-11-01T10:46:46.008Z</time>
      </trkpt>
      <trkpt lat="42.98222" lon="1.93074">
        <ele>407</ele>
        <time>2016-11-01T10:46:48.008Z</time>
      </trkpt>
      <trkpt lat="42.98214" lon="1.93085">
        <ele>407</ele>
        <time>2016-11-01T10:46:50.008Z</time>
      </trkpt>
      <trkpt lat="42.98206" lon="1.93094">
        <ele>406</ele>
        <time>2016-11-01T10:46:52.008Z</time>
      </trkpt>
      <trkpt lat="42.98196" lon="1.93102">
        <ele>406</ele>
        <time>2016-11-01T10:46:54.008Z</time>
      </trkpt>
      <trkpt lat="42.98187" lon="1.93112">
        <ele>406</ele>
        <time>2016-11-01T10:46:56.008Z</time>
      </trkpt>
      <trkpt lat="42.98179" lon="1.93121">
        <ele>406</ele>
        <time>2016-11-01T10:46:58.008Z</time>
      </trkpt>
      <trkpt lat="42.98172" lon="1.93131">
        <ele>406</ele>
        <time>2016-11-01T10:47:00.008Z</time>
      </trkpt>
      <trkpt lat="42.98165" lon="1.93142">
        <ele>406</ele>
        <time>2016-11-01T10:47:02.008Z</time>
      </trkpt>
      <trkpt lat="42.98158" lon="1.93154">
        <ele>406</ele>
        <time>2016-11-01T10:47:04.008Z</time>
      </trkpt>
      <trkpt lat="42.98151" lon="1.93167">
        <ele>406</ele>
        <time>2016-11-01T10:47:06.008Z</time>
      </trkpt>
      <trkpt lat="42.98143" lon="1.9318">
        <ele>406</ele>
        <time>2016-11-01T10:47:08.008Z</time>
      </trkpt>
      <trkpt lat="42.98135" lon="1.93192">
        <ele>406</ele>
        <time>2016-11-01T10:47:10.008Z</time>
      </trkpt>
      <trkpt lat="42.98124" lon="1.93207">
        <ele>406</ele>
        <time>2016-11-01T10:47:13.008Z</time>
      </trkpt>
      <trkpt lat="42.98114" lon="1.9322">
        <ele>406</ele>
        <time>2016-11-01T10:47:16.008Z</time>
      </trkpt>
      <trkpt lat="42.98104" lon="1.93234">
        <ele>406</ele>
        <time>2016-11-01T10:47:19.008Z</time>
      </trkpt>
      <trkpt lat="42.98095" lon="1.93242">
        <ele>406</ele>
        <time>2016-11-01T10:47:21.008Z</time>
      </trkpt>
      <trkpt lat="42.98085" lon="1.93247">
        <ele>406</ele>
        <time>2016-11-01T10:47:23.008Z</time>
      </trkpt>
      <trkpt lat="42.98075" lon="1.9325">
        <ele>406</ele>
        <time>2016-11-01T10:47:25.008Z</time>
      </trkpt>
      <trkpt lat="42.98061" lon="1.93255">
        <ele>406</ele>
        <time>2016-11-01T10:47:28.008Z</time>
      </trkpt>
      <trkpt lat="42.98046" lon="1.93257">
        <ele>406</ele>
        <time>2016-11-01T10:47:31.008Z</time>
      </trkpt>
      <trkpt lat="42.98037" lon="1.93251">
        <ele>406</ele>
        <time>2016-11-01T10:47:33.008Z</time>
      </trkpt>
      <trkpt lat="42.98033" lon="1.93237">
        <ele>406</ele>
        <time>2016-11-01T10:47:35.008Z</time>
      </trkpt>
      <trkpt lat="42.98033" lon="1.93222">
        <ele>406</ele>
        <time>2016-11-01T10:47:37.008Z</time>
      </trkpt>
      <trkpt lat="42.98033" lon="1.93208">
        <ele>406</ele>
        <time>2016-11-01T10:47:39.008Z</time>
      </trkpt>
      <trkpt lat="42.98029" lon="1.9319">
        <ele>406</ele>
        <time>2016-11-01T10:47:42.008Z</time>
      </trkpt>
      <trkpt lat="42.98025" lon="1.93175">
        <ele>406</ele>
        <time>2016-11-01T10:47:44.008Z</time>
      </trkpt>
      <trkpt lat="42.98019" lon="1.9316">
        <ele>406</ele>
        <time>2016-11-01T10:47:46.008Z</time>
      </trkpt>
      <trkpt lat="42.98013" lon="1.93145">
        <ele>406</ele>
        <time>2016-11-01T10:47:48.008Z</time>
      </trkpt>
      <trkpt lat="42.98009" lon="1.93133">
        <ele>406</ele>
        <time>2016-11-01T10:47:50.008Z</time>
      </trkpt>
      <trkpt lat="42.98" lon="1.93121">
        <ele>406</ele>
        <time>2016-11-01T10:47:53.008Z</time>
      </trkpt>
      <trkpt lat="42.97987" lon="1.93118">
        <ele>406</ele>
        <time>2016-11-01T10:47:56.008Z</time>
      </trkpt>
      <trkpt lat="42.9798" lon="1.93128">
        <ele>406</ele>
        <time>2016-11-01T10:47:58.008Z</time>
      </trkpt>
      <trkpt lat="42.9797" lon="1.93132">
        <ele>406</ele>
        <time>2016-11-01T10:48:00.008Z</time>
      </trkpt>
      <trkpt lat="42.97958" lon="1.9313">
        <ele>405</ele>
        <time>2016-11-01T10:48:03.008Z</time>
      </trkpt>
      <trkpt lat="42.97955" lon="1.93117">
        <ele>405</ele>
        <time>2016-11-01T10:48:05.008Z</time>
      </trkpt>
      <trkpt lat="42.97955" lon="1.93102">
        <ele>405</ele>
        <time>2016-11-01T10:48:07.008Z</time>
      </trkpt>
      <trkpt lat="42.97958" lon="1.93088">
        <ele>405</ele>
        <time>2016-11-01T10:48:09.008Z</time>
      </trkpt>
      <trkpt lat="42.97957" lon="1.93071">
        <ele>406</ele>
        <time>2016-11-01T10:48:12.008Z</time>
      </trkpt>
      <trkpt lat="42.97955" lon="1.93058">
        <ele>406</ele>
        <time>2016-11-01T10:48:14.008Z</time>
      </trkpt>
      <trkpt lat="42.97954" lon="1.93042">
        <ele>406</ele>
        <time>2016-11-01T10:48:16.008Z</time>
      </trkpt>
      <trkpt lat="42.97953" lon="1.93026">
        <ele>406</ele>
        <time>2016-11-01T10:48:18.008Z</time>
      </trkpt>
      <trkpt lat="42.97954" lon="1.93013">
        <ele>406</ele>
        <time>2016-11-01T10:48:20.008Z</time>
      </trkpt>
      <trkpt lat="42.97948" lon="1.92999">
        <ele>406</ele>
        <time>2016-11-01T10:48:23.008Z</time>
      </trkpt>
      <trkpt lat="42.9794" lon="1.92988">
        <ele>406</ele>
        <time>2016-11-01T10:48:25.008Z</time>
      </trkpt>
      <trkpt lat="42.97934" lon="1.92972">
        <ele>406</ele>
        <time>2016-11-01T10:48:28.008Z</time>
      </trkpt>
      <trkpt lat="42.97931" lon="1.92954">
        <ele>405.7820032</ele>
        <time>2016-11-01T10:48:31.008Z</time>
      </trkpt>
      <trkpt lat="42.97921" lon="1.92941">
        <ele>405</ele>
        <time>2016-11-01T10:48:34.008Z</time>
      </trkpt>
      <trkpt lat="42.97911" lon="1.92938">
        <ele>405</ele>
        <time>2016-11-01T10:48:36.008Z</time>
      </trkpt>
      <trkpt lat="42.97898" lon="1.92937">
        <ele>405</ele>
        <time>2016-11-01T10:48:39.008Z</time>
      </trkpt>
      <trkpt lat="42.97886" lon="1.92941">
        <ele>406</ele>
        <time>2016-11-01T10:48:42.008Z</time>
      </trkpt>
      <trkpt lat="42.97876" lon="1.92949">
        <ele>406</ele>
        <time>2016-11-01T10:48:44.008Z</time>
      </trkpt>
      <trkpt lat="42.97866" lon="1.92956">
        <ele>406</ele>
        <time>2016-11-01T10:48:46.008Z</time>
      </trkpt>
      <trkpt lat="42.97857" lon="1.92961">
        <ele>406</ele>
        <time>2016-11-01T10:48:48.008Z</time>
      </trkpt>
      <trkpt lat="42.97848" lon="1.92968">
        <ele>406</ele>
        <time>2016-11-01T10:48:50.008Z</time>
      </trkpt>
      <trkpt lat="42.97839" lon="1.92976">
        <ele>406</ele>
        <time>2016-11-01T10:48:52.008Z</time>
      </trkpt>
      <trkpt lat="42.9783" lon="1.92994">
        <ele>406</ele>
        <time>2016-11-01T10:48:55.008Z</time>
      </trkpt>
      <trkpt lat="42.97824" lon="1.93009">
        <ele>406</ele>
        <time>2016-11-01T10:48:57.008Z</time>
      </trkpt>
      <trkpt lat="42.97818" lon="1.93024">
        <ele>406</ele>
        <time>2016-11-01T10:48:59.008Z</time>
      </trkpt>
      <trkpt lat="42.97812" lon="1.93038">
        <ele>406</ele>
        <time>2016-11-01T10:49:01.008Z</time>
      </trkpt>
      <trkpt lat="42.97806" lon="1.93052">
        <ele>406</ele>
        <time>2016-11-01T10:49:03.008Z</time>
      </trkpt>
      <trkpt lat="42.97799" lon="1.93063">
        <ele>406</ele>
        <time>2016-11-01T10:49:05.008Z</time>
      </trkpt>
      <trkpt lat="42.97788" lon="1.93076">
        <ele>406</ele>
        <time>2016-11-01T10:49:08.008Z</time>
      </trkpt>
      <trkpt lat="42.97777" lon="1.9309">
        <ele>406</ele>
        <time>2016-11-01T10:49:11.008Z</time>
      </trkpt>
      <trkpt lat="42.97768" lon="1.93098">
        <ele>406</ele>
        <time>2016-11-01T10:49:13.008Z</time>
      </trkpt>
      <trkpt lat="42.97761" lon="1.93107">
        <ele>406</ele>
        <time>2016-11-01T10:49:15.008Z</time>
      </trkpt>
      <trkpt lat="42.97752" lon="1.93119">
        <ele>406</ele>
        <time>2016-11-01T10:49:18.008Z</time>
      </trkpt>
      <trkpt lat="42.97746" lon="1.93134">
        <ele>406</ele>
        <time>2016-11-01T10:49:20.008Z</time>
      </trkpt>
      <trkpt lat="42.97743" lon="1.93151">
        <ele>407</ele>
        <time>2016-11-01T10:49:22.008Z</time>
      </trkpt>
      <trkpt lat="42.97739" lon="1.93167">
        <ele>407</ele>
        <time>2016-11-01T10:49:24.008Z</time>
      </trkpt>
      <trkpt lat="42.97737" lon="1.93181">
        <ele>407</ele>
        <time>2016-11-01T10:49:26.008Z</time>
      </trkpt>
      <trkpt lat="42.9773" lon="1.93198">
        <ele>407</ele>
        <time>2016-11-01T10:49:29.008Z</time>
      </trkpt>
      <trkpt lat="42.97724" lon="1.93214">
        <ele>408</ele>
        <time>2016-11-01T10:49:32.008Z</time>
      </trkpt>
      <trkpt lat="42.9772" lon="1.93228">
        <ele>408</ele>
        <time>2016-11-01T10:49:34.008Z</time>
      </trkpt>
      <trkpt lat="42.97714" lon="1.93241">
        <ele>408</ele>
        <time>2016-11-01T10:49:36.008Z</time>
      </trkpt>
      <trkpt lat="42.97709" lon="1.93255">
        <ele>408</ele>
        <time>2016-11-01T10:49:38.008Z</time>
      </trkpt>
      <trkpt lat="42.97705" lon="1.9327">
        <ele>408</ele>
        <time>2016-11-01T10:49:40.008Z</time>
      </trkpt>
      <trkpt lat="42.97703" lon="1.93287">
        <ele>408</ele>
        <time>2016-11-01T10:49:42.008Z</time>
      </trkpt>
      <trkpt lat="42.977" lon="1.93306">
        <ele>408</ele>
        <time>2016-11-01T10:49:44.008Z</time>
      </trkpt>
      <trkpt lat="42.97695" lon="1.93324">
        <ele>408</ele>
        <time>2016-11-01T10:49:46.008Z</time>
      </trkpt>
      <trkpt lat="42.97687" lon="1.9334">
        <ele>408</ele>
        <time>2016-11-01T10:49:48.008Z</time>
      </trkpt>
      <trkpt lat="42.97679" lon="1.93354">
        <ele>408</ele>
        <time>2016-11-01T10:49:50.008Z</time>
      </trkpt>
      <trkpt lat="42.97675" lon="1.93369">
        <ele>407</ele>
        <time>2016-11-01T10:49:52.008Z</time>
      </trkpt>
      <trkpt lat="42.97671" lon="1.93386">
        <ele>407</ele>
        <time>2016-11-01T10:49:54.008Z</time>
      </trkpt>
      <trkpt lat="42.97669" lon="1.93399">
        <ele>407</ele>
        <time>2016-11-01T10:49:56.008Z</time>
      </trkpt>
      <trkpt lat="42.97667" lon="1.93413">
        <ele>407</ele>
        <time>2016-11-01T10:49:58.008Z</time>
      </trkpt>
      <trkpt lat="42.97657" lon="1.93423">
        <ele>406.5640064</ele>
        <time>2016-11-01T10:50:01.008Z</time>
      </trkpt>
      <trkpt lat="42.97645" lon="1.93425">
        <ele>405</ele>
        <time>2016-11-01T10:50:04.008Z</time>
      </trkpt>
      <trkpt lat="42.97643" lon="1.93407">
        <ele>405</ele>
        <time>2016-11-01T10:50:07.008Z</time>
      </trkpt>
      <trkpt lat="42.97641" lon="1.9339">
        <ele>405</ele>
        <time>2016-11-01T10:50:09.008Z</time>
      </trkpt>
      <trkpt lat="42.97638" lon="1.93375">
        <ele>405.2179968</ele>
        <time>2016-11-01T10:50:11.008Z</time>
      </trkpt>
      <trkpt lat="42.97637" lon="1.9336">
        <ele>406</ele>
        <time>2016-11-01T10:50:13.008Z</time>
      </trkpt>
      <trkpt lat="42.97634" lon="1.93346">
        <ele>406</ele>
        <time>2016-11-01T10:50:15.008Z</time>
      </trkpt>
      <trkpt lat="42.97628" lon="1.93331">
        <ele>406</ele>
        <time>2016-11-01T10:50:18.008Z</time>
      </trkpt>
      <trkpt lat="42.9762" lon="1.9332">
        <ele>406</ele>
        <time>2016-11-01T10:50:20.008Z</time>
      </trkpt>
      <trkpt lat="42.97612" lon="1.93311">
        <ele>407</ele>
        <time>2016-11-01T10:50:22.008Z</time>
      </trkpt>
      <trkpt lat="42.97604" lon="1.93302">
        <ele>407</ele>
        <time>2016-11-01T10:50:24.008Z</time>
      </trkpt>
      <trkpt lat="42.97591" lon="1.93291">
        <ele>407</ele>
        <time>2016-11-01T10:50:27.008Z</time>
      </trkpt>
      <trkpt lat="42.97582" lon="1.9328">
        <ele>407</ele>
        <time>2016-11-01T10:50:29.008Z</time>
      </trkpt>
      <trkpt lat="42.97574" lon="1.93272">
        <ele>407</ele>
        <time>2016-11-01T10:50:31.008Z</time>
      </trkpt>
      <trkpt lat="42.97564" lon="1.93266">
        <ele>407</ele>
        <time>2016-11-01T10:50:34.008Z</time>
      </trkpt>
      <trkpt lat="42.9755" lon="1.93261">
        <ele>407</ele>
        <time>2016-11-01T10:50:37.008Z</time>
      </trkpt>
      <trkpt lat="42.97546" lon="1.93274">
        <ele>407</ele>
        <time>2016-11-01T10:50:43.008Z</time>
      </trkpt>
      <trkpt lat="42.97548" lon="1.93289">
        <ele>408</ele>
        <time>2016-11-01T10:50:52.008Z</time>
      </trkpt>
      <trkpt lat="42.97549" lon="1.93303">
        <ele>410</ele>
        <time>2016-11-01T10:51:05.008Z</time>
      </trkpt>
      <trkpt lat="42.97558" lon="1.9332">
        <ele>409</ele>
        <time>2016-11-01T10:51:09.008Z</time>
      </trkpt>
      <trkpt lat="42.97562" lon="1.93334">
        <ele>408.5640064</ele>
        <time>2016-11-01T10:51:11.008Z</time>
      </trkpt>
      <trkpt lat="42.97564" lon="1.93353">
        <ele>407</ele>
        <time>2016-11-01T10:51:14.008Z</time>
      </trkpt>
      <trkpt lat="42.97565" lon="1.93367">
        <ele>406.7820032</ele>
        <time>2016-11-01T10:51:16.008Z</time>
      </trkpt>
      <trkpt lat="42.97566" lon="1.93381">
        <ele>406</ele>
        <time>2016-11-01T10:51:18.008Z</time>
      </trkpt>
      <trkpt lat="42.97563" lon="1.93395">
        <ele>406</ele>
        <time>2016-11-01T10:51:20.008Z</time>
      </trkpt>
      <trkpt lat="42.97558" lon="1.93414">
        <ele>406</ele>
        <time>2016-11-01T10:51:23.008Z</time>
      </trkpt>
      <trkpt lat="42.97554" lon="1.93432">
        <ele>406</ele>
        <time>2016-11-01T10:51:26.008Z</time>
      </trkpt>
      <trkpt lat="42.97548" lon="1.93447">
        <ele>406</ele>
        <time>2016-11-01T10:51:29.008Z</time>
      </trkpt>
      <trkpt lat="42.97544" lon="1.93462">
        <ele>407</ele>
        <time>2016-11-01T10:51:32.008Z</time>
      </trkpt>
      <trkpt lat="42.97539" lon="1.93478">
        <ele>407</ele>
        <time>2016-11-01T10:51:35.008Z</time>
      </trkpt>
      <trkpt lat="42.97535" lon="1.93497">
        <ele>407</ele>
        <time>2016-11-01T10:51:38.008Z</time>
      </trkpt>
      <trkpt lat="42.97531" lon="1.9351">
        <ele>407</ele>
        <time>2016-11-01T10:51:40.008Z</time>
      </trkpt>
      <trkpt lat="42.97529" lon="1.93529">
        <ele>408</ele>
        <time>2016-11-01T10:51:43.008Z</time>
      </trkpt>
      <trkpt lat="42.97528" lon="1.93548">
        <ele>408</ele>
        <time>2016-11-01T10:51:46.008Z</time>
      </trkpt>
      <trkpt lat="42.97527" lon="1.93562">
        <ele>408</ele>
        <time>2016-11-01T10:51:48.008Z</time>
      </trkpt>
      <trkpt lat="42.97526" lon="1.93578">
        <ele>408</ele>
        <time>2016-11-01T10:51:50.008Z</time>
      </trkpt>
      <trkpt lat="42.97523" lon="1.93594">
        <ele>407</ele>
        <time>2016-11-01T10:51:52.008Z</time>
      </trkpt>
      <trkpt lat="42.97517" lon="1.93608">
        <ele>407</ele>
        <time>2016-11-01T10:51:54.008Z</time>
      </trkpt>
      <trkpt lat="42.97514" lon="1.93622">
        <ele>407</ele>
        <time>2016-11-01T10:51:56.008Z</time>
      </trkpt>
      <trkpt lat="42.97511" lon="1.93638">
        <ele>407</ele>
        <time>2016-11-01T10:51:58.008Z</time>
      </trkpt>
      <trkpt lat="42.97509" lon="1.93653">
        <ele>407</ele>
        <time>2016-11-01T10:52:00.008Z</time>
      </trkpt>
      <trkpt lat="42.97508" lon="1.93668">
        <ele>407</ele>
        <time>2016-11-01T10:52:02.008Z</time>
      </trkpt>
      <trkpt lat="42.97506" lon="1.93683">
        <ele>407</ele>
        <time>2016-11-01T10:52:04.008Z</time>
      </trkpt>
      <trkpt lat="42.97501" lon="1.93698">
        <ele>407</ele>
        <time>2016-11-01T10:52:06.008Z</time>
      </trkpt>
      <trkpt lat="42.97496" lon="1.93711">
        <ele>407</ele>
        <time>2016-11-01T10:52:08.008Z</time>
      </trkpt>
      <trkpt lat="42.97495" lon="1.93725">
        <ele>407</ele>
        <time>2016-11-01T10:52:10.008Z</time>
      </trkpt>
      <trkpt lat="42.97497" lon="1.93742">
        <ele>407</ele>
        <time>2016-11-01T10:52:12.008Z</time>
      </trkpt>
      <trkpt lat="42.97496" lon="1.93758">
        <ele>407</ele>
        <time>2016-11-01T10:52:14.008Z</time>
      </trkpt>
      <trkpt lat="42.97489" lon="1.93771">
        <ele>407</ele>
        <time>2016-11-01T10:52:16.008Z</time>
      </trkpt>
      <trkpt lat="42.97482" lon="1.93787">
        <ele>407</ele>
        <time>2016-11-01T10:52:19.008Z</time>
      </trkpt>
      <trkpt lat="42.97479" lon="1.93807">
        <ele>407</ele>
        <time>2016-11-01T10:52:22.008Z</time>
      </trkpt>
      <trkpt lat="42.97479" lon="1.93823">
        <ele>407</ele>
        <time>2016-11-01T10:52:24.008Z</time>
      </trkpt>
      <trkpt lat="42.97477" lon="1.9384">
        <ele>407</ele>
        <time>2016-11-01T10:52:26.008Z</time>
      </trkpt>
      <trkpt lat="42.97473" lon="1.93854">
        <ele>407</ele>
        <time>2016-11-01T10:52:28.008Z</time>
      </trkpt>
      <trkpt lat="42.97468" lon="1.93868">
        <ele>407</ele>
        <time>2016-11-01T10:52:30.008Z</time>
      </trkpt>
      <trkpt lat="42.97466" lon="1.93882">
        <ele>407</ele>
        <time>2016-11-01T10:52:32.008Z</time>
      </trkpt>
      <trkpt lat="42.97464" lon="1.93899">
        <ele>407</ele>
        <time>2016-11-01T10:52:34.008Z</time>
      </trkpt>
      <trkpt lat="42.97459" lon="1.93914">
        <ele>407</ele>
        <time>2016-11-01T10:52:36.008Z</time>
      </trkpt>
      <trkpt lat="42.97456" lon="1.93928">
        <ele>407</ele>
        <time>2016-11-01T10:52:38.008Z</time>
      </trkpt>
      <trkpt lat="42.97453" lon="1.93944">
        <ele>407</ele>
        <time>2016-11-01T10:52:40.008Z</time>
      </trkpt>
      <trkpt lat="42.97451" lon="1.93959">
        <ele>407</ele>
        <time>2016-11-01T10:52:42.008Z</time>
      </trkpt>
      <trkpt lat="42.97449" lon="1.93975">
        <ele>407</ele>
        <time>2016-11-01T10:52:44.008Z</time>
      </trkpt>
      <trkpt lat="42.97445" lon="1.9399">
        <ele>407</ele>
        <time>2016-11-01T10:52:46.008Z</time>
      </trkpt>
      <trkpt lat="42.97441" lon="1.94006">
        <ele>407</ele>
        <time>2016-11-01T10:52:48.008Z</time>
      </trkpt>
      <trkpt lat="42.9744" lon="1.94021">
        <ele>407</ele>
        <time>2016-11-01T10:52:50.008Z</time>
      </trkpt>
      <trkpt lat="42.97441" lon="1.94036">
        <ele>407</ele>
        <time>2016-11-01T10:52:52.008Z</time>
      </trkpt>
      <trkpt lat="42.97441" lon="1.94055">
        <ele>407</ele>
        <time>2016-11-01T10:52:55.008Z</time>
      </trkpt>
      <trkpt lat="42.97443" lon="1.9407">
        <ele>407</ele>
        <time>2016-11-01T10:52:57.008Z</time>
      </trkpt>
      <trkpt lat="42.97439" lon="1.94084">
        <ele>407</ele>
        <time>2016-11-01T10:52:59.008Z</time>
      </trkpt>
      <trkpt lat="42.97431" lon="1.94096">
        <ele>407</ele>
        <time>2016-11-01T10:53:01.008Z</time>
      </trkpt>
      <trkpt lat="42.97423" lon="1.94107">
        <ele>407</ele>
        <time>2016-11-01T10:53:03.008Z</time>
      </trkpt>
      <trkpt lat="42.97416" lon="1.94121">
        <ele>407</ele>
        <time>2016-11-01T10:53:05.008Z</time>
      </trkpt>
      <trkpt lat="42.97413" lon="1.94137">
        <ele>407</ele>
        <time>2016-11-01T10:53:07.008Z</time>
      </trkpt>
      <trkpt lat="42.97408" lon="1.94152">
        <ele>407</ele>
        <time>2016-11-01T10:53:09.008Z</time>
      </trkpt>
      <trkpt lat="42.97403" lon="1.94165">
        <ele>407</ele>
        <time>2016-11-01T10:53:11.008Z</time>
      </trkpt>
      <trkpt lat="42.97399" lon="1.94179">
        <ele>407</ele>
        <time>2016-11-01T10:53:13.008Z</time>
      </trkpt>
      <trkpt lat="42.97395" lon="1.94193">
        <ele>407</ele>
        <time>2016-11-01T10:53:15.008Z</time>
      </trkpt>
      <trkpt lat="42.9739" lon="1.94209">
        <ele>407</ele>
        <time>2016-11-01T10:53:17.008Z</time>
      </trkpt>
      <trkpt lat="42.97383" lon="1.94221">
        <ele>407</ele>
        <time>2016-11-01T10:53:19.008Z</time>
      </trkpt>
      <trkpt lat="42.97378" lon="1.94235">
        <ele>406.7820032</ele>
        <time>2016-11-01T10:53:21.008Z</time>
      </trkpt>
      <trkpt lat="42.97374" lon="1.94249">
        <ele>406</ele>
        <time>2016-11-01T10:53:23.008Z</time>
      </trkpt>
      <trkpt lat="42.9737" lon="1.94264">
        <ele>406</ele>
        <time>2016-11-01T10:53:25.008Z</time>
      </trkpt>
      <trkpt lat="42.97365" lon="1.94277">
        <ele>406</ele>
        <time>2016-11-01T10:53:27.008Z</time>
      </trkpt>
      <trkpt lat="42.97358" lon="1.94289">
        <ele>406</ele>
        <time>2016-11-01T10:53:29.008Z</time>
      </trkpt>
      <trkpt lat="42.97351" lon="1.94299">
        <ele>406</ele>
        <time>2016-11-01T10:53:31.008Z</time>
      </trkpt>
      <trkpt lat="42.97349" lon="1.94313">
        <ele>406</ele>
        <time>2016-11-01T10:53:33.008Z</time>
      </trkpt>
      <trkpt lat="42.97348" lon="1.94326">
        <ele>406</ele>
        <time>2016-11-01T10:53:35.008Z</time>
      </trkpt>
      <trkpt lat="42.97344" lon="1.94344">
        <ele>406</ele>
        <time>2016-11-01T10:53:38.008Z</time>
      </trkpt>
      <trkpt lat="42.97337" lon="1.94357">
        <ele>406</ele>
        <time>2016-11-01T10:53:40.008Z</time>
      </trkpt>
      <trkpt lat="42.97331" lon="1.94374">
        <ele>406</ele>
        <time>2016-11-01T10:53:43.008Z</time>
      </trkpt>
      <trkpt lat="42.97328" lon="1.94389">
        <ele>406</ele>
        <time>2016-11-01T10:53:45.008Z</time>
      </trkpt>
      <trkpt lat="42.97321" lon="1.94404">
        <ele>406</ele>
        <time>2016-11-01T10:53:48.008Z</time>
      </trkpt>
      <trkpt lat="42.9731" lon="1.94415">
        <ele>406</ele>
        <time>2016-11-01T10:53:51.008Z</time>
      </trkpt>
      <trkpt lat="42.97305" lon="1.94427">
        <ele>406</ele>
        <time>2016-11-01T10:53:53.008Z</time>
      </trkpt>
      <trkpt lat="42.97305" lon="1.94445">
        <ele>406</ele>
        <time>2016-11-01T10:53:56.008Z</time>
      </trkpt>
      <trkpt lat="42.97305" lon="1.94459">
        <ele>406</ele>
        <time>2016-11-01T10:53:58.008Z</time>
      </trkpt>
      <trkpt lat="42.97302" lon="1.94475">
        <ele>406</ele>
        <time>2016-11-01T10:54:00.008Z</time>
      </trkpt>
      <trkpt lat="42.97299" lon="1.94489">
        <ele>407</ele>
        <time>2016-11-01T10:54:02.008Z</time>
      </trkpt>
      <trkpt lat="42.97293" lon="1.94503">
        <ele>407</ele>
        <time>2016-11-01T10:54:04.008Z</time>
      </trkpt>
      <trkpt lat="42.97288" lon="1.94518">
        <ele>407</ele>
        <time>2016-11-01T10:54:06.008Z</time>
      </trkpt>
      <trkpt lat="42.97284" lon="1.94534">
        <ele>407</ele>
        <time>2016-11-01T10:54:08.008Z</time>
      </trkpt>
      <trkpt lat="42.9728" lon="1.94549">
        <ele>407</ele>
        <time>2016-11-01T10:54:10.008Z</time>
      </trkpt>
      <trkpt lat="42.97276" lon="1.94564">
        <ele>407</ele>
        <time>2016-11-01T10:54:12.008Z</time>
      </trkpt>
      <trkpt lat="42.97274" lon="1.94578">
        <ele>407</ele>
        <time>2016-11-01T10:54:14.008Z</time>
      </trkpt>
      <trkpt lat="42.97272" lon="1.94591">
        <ele>407</ele>
        <time>2016-11-01T10:54:16.008Z</time>
      </trkpt>
      <trkpt lat="42.9727" lon="1.94605">
        <ele>407</ele>
        <time>2016-11-01T10:54:18.008Z</time>
      </trkpt>
      <trkpt lat="42.9727" lon="1.94618">
        <ele>407</ele>
        <time>2016-11-01T10:54:20.008Z</time>
      </trkpt>
      <trkpt lat="42.9728" lon="1.94626">
        <ele>406</ele>
        <time>2016-11-01T10:54:23.008Z</time>
      </trkpt>
      <trkpt lat="42.9729" lon="1.94621">
        <ele>406</ele>
        <time>2016-11-01T10:54:25.008Z</time>
      </trkpt>
      <trkpt lat="42.97299" lon="1.94611">
        <ele>406</ele>
        <time>2016-11-01T10:54:27.008Z</time>
      </trkpt>
      <trkpt lat="42.97304" lon="1.94598">
        <ele>406</ele>
        <time>2016-11-01T10:54:29.008Z</time>
      </trkpt>
      <trkpt lat="42.9731" lon="1.94585">
        <ele>406.2179968</ele>
        <time>2016-11-01T10:54:31.008Z</time>
      </trkpt>
      <trkpt lat="42.97313" lon="1.94571">
        <ele>407</ele>
        <time>2016-11-01T10:54:33.008Z</time>
      </trkpt>
      <trkpt lat="42.97318" lon="1.94559">
        <ele>407</ele>
        <time>2016-11-01T10:54:35.008Z</time>
      </trkpt>
      <trkpt lat="42.97326" lon="1.94549">
        <ele>407</ele>
        <time>2016-11-01T10:54:37.008Z</time>
      </trkpt>
      <trkpt lat="42.97335" lon="1.94539">
        <ele>407</ele>
        <time>2016-11-01T10:54:39.008Z</time>
      </trkpt>
      <trkpt lat="42.97345" lon="1.94535">
        <ele>407</ele>
        <time>2016-11-01T10:54:41.008Z</time>
      </trkpt>
      <trkpt lat="42.97357" lon="1.94531">
        <ele>407</ele>
        <time>2016-11-01T10:54:44.008Z</time>
      </trkpt>
      <trkpt lat="42.97368" lon="1.94531">
        <ele>407</ele>
        <time>2016-11-01T10:54:46.008Z</time>
      </trkpt>
      <trkpt lat="42.97379" lon="1.9453">
        <ele>407</ele>
        <time>2016-11-01T10:54:48.008Z</time>
      </trkpt>
      <trkpt lat="42.9739" lon="1.94531">
        <ele>407</ele>
        <time>2016-11-01T10:54:50.008Z</time>
      </trkpt>
      <trkpt lat="42.97402" lon="1.94531">
        <ele>406</ele>
        <time>2016-11-01T10:54:52.008Z</time>
      </trkpt>
      <trkpt lat="42.97413" lon="1.94533">
        <ele>406</ele>
        <time>2016-11-01T10:54:54.008Z</time>
      </trkpt>
      <trkpt lat="42.97419" lon="1.94534">
        <ele>406</ele>
        <time>2016-11-01T10:54:55.008Z</time>
      </trkpt>
      <trkpt lat="42.97429" lon="1.94536">
        <ele>406</ele>
        <time>2016-11-01T10:54:57.008Z</time>
      </trkpt>
      <trkpt lat="42.97439" lon="1.94533">
        <ele>406</ele>
        <time>2016-11-01T10:54:59.008Z</time>
      </trkpt>
      <trkpt lat="42.97449" lon="1.94524">
        <ele>406</ele>
        <time>2016-11-01T10:55:01.008Z</time>
      </trkpt>
      <trkpt lat="42.97458" lon="1.94512">
        <ele>406</ele>
        <time>2016-11-01T10:55:03.008Z</time>
      </trkpt>
      <trkpt lat="42.97467" lon="1.94501">
        <ele>406</ele>
        <time>2016-11-01T10:55:05.008Z</time>
      </trkpt>
      <trkpt lat="42.97475" lon="1.94492">
        <ele>406</ele>
        <time>2016-11-01T10:55:07.008Z</time>
      </trkpt>
      <trkpt lat="42.97484" lon="1.94482">
        <ele>406</ele>
        <time>2016-11-01T10:55:09.008Z</time>
      </trkpt>
      <trkpt lat="42.97493" lon="1.94473">
        <ele>406.2179968</ele>
        <time>2016-11-01T10:55:11.008Z</time>
      </trkpt>
      <trkpt lat="42.97502" lon="1.94463">
        <ele>407</ele>
        <time>2016-11-01T10:55:13.008Z</time>
      </trkpt>
      <trkpt lat="42.9751" lon="1.94453">
        <ele>407</ele>
        <time>2016-11-01T10:55:15.008Z</time>
      </trkpt>
      <trkpt lat="42.9752" lon="1.94446">
        <ele>407</ele>
        <time>2016-11-01T10:55:17.008Z</time>
      </trkpt>
      <trkpt lat="42.9753" lon="1.94442">
        <ele>407</ele>
        <time>2016-11-01T10:55:19.008Z</time>
      </trkpt>
      <trkpt lat="42.97541" lon="1.94439">
        <ele>407</ele>
        <time>2016-11-01T10:55:21.008Z</time>
      </trkpt>
      <trkpt lat="42.97551" lon="1.94437">
        <ele>407</ele>
        <time>2016-11-01T10:55:23.008Z</time>
      </trkpt>
      <trkpt lat="42.97561" lon="1.94435">
        <ele>407</ele>
        <time>2016-11-01T10:55:25.008Z</time>
      </trkpt>
      <trkpt lat="42.97571" lon="1.94435">
        <ele>407</ele>
        <time>2016-11-01T10:55:27.008Z</time>
      </trkpt>
      <trkpt lat="42.97581" lon="1.94435">
        <ele>407</ele>
        <time>2016-11-01T10:55:29.008Z</time>
      </trkpt>
      <trkpt lat="42.97591" lon="1.94434">
        <ele>406.7820032</ele>
        <time>2016-11-01T10:55:31.008Z</time>
      </trkpt>
      <trkpt lat="42.97601" lon="1.94431">
        <ele>406</ele>
        <time>2016-11-01T10:55:33.008Z</time>
      </trkpt>
      <trkpt lat="42.97611" lon="1.94428">
        <ele>406</ele>
        <time>2016-11-01T10:55:35.008Z</time>
      </trkpt>
      <trkpt lat="42.97621" lon="1.94426">
        <ele>406</ele>
        <time>2016-11-01T10:55:37.008Z</time>
      </trkpt>
      <trkpt lat="42.97631" lon="1.94427">
        <ele>406</ele>
        <time>2016-11-01T10:55:39.008Z</time>
      </trkpt>
      <trkpt lat="42.9764" lon="1.9443">
        <ele>406</ele>
        <time>2016-11-01T10:55:41.008Z</time>
      </trkpt>
      <trkpt lat="42.97647" lon="1.9444">
        <ele>406</ele>
        <time>2016-11-01T10:55:43.008Z</time>
      </trkpt>
      <trkpt lat="42.9765" lon="1.94453">
        <ele>406</ele>
        <time>2016-11-01T10:55:45.008Z</time>
      </trkpt>
      <trkpt lat="42.97652" lon="1.94464">
        <ele>406</ele>
        <time>2016-11-01T10:55:47.008Z</time>
      </trkpt>
      <trkpt lat="42.97655" lon="1.94475">
        <ele>406</ele>
        <time>2016-11-01T10:55:49.008Z</time>
      </trkpt>
      <trkpt lat="42.97654" lon="1.94489">
        <ele>406</ele>
        <time>2016-11-01T10:55:51.008Z</time>
      </trkpt>
      <trkpt lat="42.97653" lon="1.94503">
        <ele>406</ele>
        <time>2016-11-01T10:55:53.008Z</time>
      </trkpt>
      <trkpt lat="42.97649" lon="1.94517">
        <ele>406</ele>
        <time>2016-11-01T10:55:55.008Z</time>
      </trkpt>
      <trkpt lat="42.97644" lon="1.94529">
        <ele>406</ele>
        <time>2016-11-01T10:55:57.008Z</time>
      </trkpt>
      <trkpt lat="42.97639" lon="1.9454">
        <ele>406</ele>
        <time>2016-11-01T10:55:59.008Z</time>
      </trkpt>
      <trkpt lat="42.97631" lon="1.94556">
        <ele>406</ele>
        <time>2016-11-01T10:56:02.008Z</time>
      </trkpt>
      <trkpt lat="42.97629" lon="1.94571">
        <ele>406</ele>
        <time>2016-11-01T10:56:04.008Z</time>
      </trkpt>
      <trkpt lat="42.97628" lon="1.94586">
        <ele>406</ele>
        <time>2016-11-01T10:56:06.008Z</time>
      </trkpt>
      <trkpt lat="42.97628" lon="1.94605">
        <ele>406</ele>
        <time>2016-11-01T10:56:09.008Z</time>
      </trkpt>
      <trkpt lat="42.97633" lon="1.94618">
        <ele>406</ele>
        <time>2016-11-01T10:56:11.008Z</time>
      </trkpt>
      <trkpt lat="42.97634" lon="1.94632">
        <ele>406</ele>
        <time>2016-11-01T10:56:13.008Z</time>
      </trkpt>
      <trkpt lat="42.97632" lon="1.94647">
        <ele>406</ele>
        <time>2016-11-01T10:56:15.008Z</time>
      </trkpt>
      <trkpt lat="42.97629" lon="1.94661">
        <ele>406</ele>
        <time>2016-11-01T10:56:17.008Z</time>
      </trkpt>
      <trkpt lat="42.97625" lon="1.94674">
        <ele>406</ele>
        <time>2016-11-01T10:56:19.008Z</time>
      </trkpt>
      <trkpt lat="42.97623" lon="1.94688">
        <ele>406.21010033099</ele>
        <time>2016-11-01T10:56:21.008Z</time>
      </trkpt>
      <trkpt lat="42.9762" lon="1.94702">
        <ele>407</ele>
        <time>2016-11-01T10:56:23.008Z</time>
      </trkpt>
      <trkpt lat="42.97616" lon="1.94716">
        <ele>407</ele>
        <time>2016-11-01T10:56:25.008Z</time>
      </trkpt>
      <trkpt lat="42.97611" lon="1.9473">
        <ele>407</ele>
        <time>2016-11-01T10:56:27.008Z</time>
      </trkpt>
      <trkpt lat="42.97605" lon="1.94742">
        <ele>407</ele>
        <time>2016-11-01T10:56:29.008Z</time>
      </trkpt>
      <trkpt lat="42.976" lon="1.94755">
        <ele>407</ele>
        <time>2016-11-01T10:56:31.008Z</time>
      </trkpt>
      <trkpt lat="42.97594" lon="1.94772">
        <ele>407</ele>
        <time>2016-11-01T10:56:34.008Z</time>
      </trkpt>
      <trkpt lat="42.97589" lon="1.94785">
        <ele>407</ele>
        <time>2016-11-01T10:56:36.008Z</time>
      </trkpt>
      <trkpt lat="42.97584" lon="1.94798">
        <ele>407</ele>
        <time>2016-11-01T10:56:38.008Z</time>
      </trkpt>
      <trkpt lat="42.97578" lon="1.94812">
        <ele>407</ele>
        <time>2016-11-01T10:56:40.008Z</time>
      </trkpt>
      <trkpt lat="42.97572" lon="1.94826">
        <ele>406</ele>
        <time>2016-11-01T10:56:42.008Z</time>
      </trkpt>
      <trkpt lat="42.97568" lon="1.94841">
        <ele>406</ele>
        <time>2016-11-01T10:56:44.008Z</time>
      </trkpt>
      <trkpt lat="42.97563" lon="1.94854">
        <ele>406</ele>
        <time>2016-11-01T10:56:46.008Z</time>
      </trkpt>
      <trkpt lat="42.97559" lon="1.94869">
        <ele>406</ele>
        <time>2016-11-01T10:56:48.008Z</time>
      </trkpt>
      <trkpt lat="42.97554" lon="1.94883">
        <ele>406</ele>
        <time>2016-11-01T10:56:50.008Z</time>
      </trkpt>
      <trkpt lat="42.97549" lon="1.94896">
        <ele>407</ele>
        <time>2016-11-01T10:56:52.008Z</time>
      </trkpt>
      <trkpt lat="42.97544" lon="1.94909">
        <ele>407</ele>
        <time>2016-11-01T10:56:54.008Z</time>
      </trkpt>
      <trkpt lat="42.97539" lon="1.94924">
        <ele>407</ele>
        <time>2016-11-01T10:56:56.008Z</time>
      </trkpt>
      <trkpt lat="42.97532" lon="1.94937">
        <ele>407</ele>
        <time>2016-11-01T10:56:58.008Z</time>
      </trkpt>
      <trkpt lat="42.97526" lon="1.94951">
        <ele>407</ele>
        <time>2016-11-01T10:57:00.008Z</time>
      </trkpt>
      <trkpt lat="42.9752" lon="1.94964">
        <ele>407</ele>
        <time>2016-11-01T10:57:02.008Z</time>
      </trkpt>
      <trkpt lat="42.97514" lon="1.94977">
        <ele>407</ele>
        <time>2016-11-01T10:57:04.008Z</time>
      </trkpt>
      <trkpt lat="42.97509" lon="1.94989">
        <ele>407</ele>
        <time>2016-11-01T10:57:06.008Z</time>
      </trkpt>
      <trkpt lat="42.97506" lon="1.95003">
        <ele>407</ele>
        <time>2016-11-01T10:57:08.008Z</time>
      </trkpt>
      <trkpt lat="42.97503" lon="1.95017">
        <ele>407</ele>
        <time>2016-11-01T10:57:10.008Z</time>
      </trkpt>
      <trkpt lat="42.975" lon="1.95032">
        <ele>407</ele>
        <time>2016-11-01T10:57:12.008Z</time>
      </trkpt>
      <trkpt lat="42.97496" lon="1.95047">
        <ele>407</ele>
        <time>2016-11-01T10:57:14.008Z</time>
      </trkpt>
      <trkpt lat="42.97493" lon="1.95061">
        <ele>407</ele>
        <time>2016-11-01T10:57:16.008Z</time>
      </trkpt>
      <trkpt lat="42.9749" lon="1.95076">
        <ele>407</ele>
        <time>2016-11-01T10:57:18.008Z</time>
      </trkpt>
      <trkpt lat="42.97487" lon="1.95091">
        <ele>407</ele>
        <time>2016-11-01T10:57:20.008Z</time>
      </trkpt>
      <trkpt lat="42.97481" lon="1.95104">
        <ele>407</ele>
        <time>2016-11-01T10:57:22.008Z</time>
      </trkpt>
      <trkpt lat="42.97472" lon="1.95114">
        <ele>407</ele>
        <time>2016-11-01T10:57:24.008Z</time>
      </trkpt>
      <trkpt lat="42.97463" lon="1.9512">
        <ele>407</ele>
        <time>2016-11-01T10:57:26.008Z</time>
      </trkpt>
      <trkpt lat="42.97452" lon="1.95127">
        <ele>407</ele>
        <time>2016-11-01T10:57:28.008Z</time>
      </trkpt>
      <trkpt lat="42.97443" lon="1.95136">
        <ele>407</ele>
        <time>2016-11-01T10:57:30.008Z</time>
      </trkpt>
      <trkpt lat="42.97433" lon="1.95144">
        <ele>407</ele>
        <time>2016-11-01T10:57:32.008Z</time>
      </trkpt>
      <trkpt lat="42.97423" lon="1.95149">
        <ele>407</ele>
        <time>2016-11-01T10:57:34.008Z</time>
      </trkpt>
      <trkpt lat="42.97412" lon="1.95151">
        <ele>407</ele>
        <time>2016-11-01T10:57:36.008Z</time>
      </trkpt>
      <trkpt lat="42.974" lon="1.95148">
        <ele>407</ele>
        <time>2016-11-01T10:57:38.008Z</time>
      </trkpt>
      <trkpt lat="42.9739" lon="1.95142">
        <ele>407</ele>
        <time>2016-11-01T10:57:40.008Z</time>
      </trkpt>
      <trkpt lat="42.97381" lon="1.95135">
        <ele>407</ele>
        <time>2016-11-01T10:57:42.008Z</time>
      </trkpt>
      <trkpt lat="42.97371" lon="1.95121">
        <ele>407</ele>
        <time>2016-11-01T10:57:45.008Z</time>
      </trkpt>
      <trkpt lat="42.97367" lon="1.95108">
        <ele>407</ele>
        <time>2016-11-01T10:57:47.008Z</time>
      </trkpt>
      <trkpt lat="42.97365" lon="1.95094">
        <ele>407</ele>
        <time>2016-11-01T10:57:49.008Z</time>
      </trkpt>
      <trkpt lat="42.97362" lon="1.95075">
        <ele>407</ele>
        <time>2016-11-01T10:57:52.008Z</time>
      </trkpt>
      <trkpt lat="42.97358" lon="1.95058">
        <ele>407</ele>
        <time>2016-11-01T10:57:55.008Z</time>
      </trkpt>
      <trkpt lat="42.97353" lon="1.95043">
        <ele>407</ele>
        <time>2016-11-01T10:57:58.008Z</time>
      </trkpt>
      <trkpt lat="42.97348" lon="1.95031">
        <ele>407</ele>
        <time>2016-11-01T10:58:00.008Z</time>
      </trkpt>
      <trkpt lat="42.97341" lon="1.95019">
        <ele>407</ele>
        <time>2016-11-01T10:58:02.008Z</time>
      </trkpt>
      <trkpt lat="42.97332" lon="1.95007">
        <ele>407</ele>
        <time>2016-11-01T10:58:04.008Z</time>
      </trkpt>
      <trkpt lat="42.97322" lon="1.95002">
        <ele>407</ele>
        <time>2016-11-01T10:58:06.008Z</time>
      </trkpt>
      <trkpt lat="42.97308" lon="1.95009">
        <ele>407</ele>
        <time>2016-11-01T10:58:09.008Z</time>
      </trkpt>
      <trkpt lat="42.97299" lon="1.95016">
        <ele>407</ele>
        <time>2016-11-01T10:58:11.008Z</time>
      </trkpt>
      <trkpt lat="42.97289" lon="1.95021">
        <ele>407</ele>
        <time>2016-11-01T10:58:13.008Z</time>
      </trkpt>
      <trkpt lat="42.97274" lon="1.95021">
        <ele>407</ele>
        <time>2016-11-01T10:58:16.008Z</time>
      </trkpt>
      <trkpt lat="42.97263" lon="1.95019">
        <ele>407</ele>
        <time>2016-11-01T10:58:18.008Z</time>
      </trkpt>
      <trkpt lat="42.97252" lon="1.95021">
        <ele>407</ele>
        <time>2016-11-01T10:58:20.008Z</time>
      </trkpt>
      <trkpt lat="42.97241" lon="1.95021">
        <ele>407</ele>
        <time>2016-11-01T10:58:22.008Z</time>
      </trkpt>
      <trkpt lat="42.97229" lon="1.95021">
        <ele>407</ele>
        <time>2016-11-01T10:58:24.008Z</time>
      </trkpt>
      <trkpt lat="42.97218" lon="1.9502">
        <ele>407</ele>
        <time>2016-11-01T10:58:26.008Z</time>
      </trkpt>
      <trkpt lat="42.97207" lon="1.95016">
        <ele>407</ele>
        <time>2016-11-01T10:58:28.008Z</time>
      </trkpt>
      <trkpt lat="42.97195" lon="1.9501">
        <ele>407</ele>
        <time>2016-11-01T10:58:30.008Z</time>
      </trkpt>
      <trkpt lat="42.97187" lon="1.95003">
        <ele>407</ele>
        <time>2016-11-01T10:58:32.008Z</time>
      </trkpt>
      <trkpt lat="42.97177" lon="1.94994">
        <ele>407</ele>
        <time>2016-11-01T10:58:35.008Z</time>
      </trkpt>
      <trkpt lat="42.97166" lon="1.94987">
        <ele>407</ele>
        <time>2016-11-01T10:58:38.008Z</time>
      </trkpt>
      <trkpt lat="42.97154" lon="1.94981">
        <ele>407.2179968</ele>
        <time>2016-11-01T10:58:41.008Z</time>
      </trkpt>
      <trkpt lat="42.9714" lon="1.94974">
        <ele>408</ele>
        <time>2016-11-01T10:58:44.008Z</time>
      </trkpt>
      <trkpt lat="42.97127" lon="1.94967">
        <ele>408</ele>
        <time>2016-11-01T10:58:46.008Z</time>
      </trkpt>
      <trkpt lat="42.97114" lon="1.94959">
        <ele>408</ele>
        <time>2016-11-01T10:58:48.008Z</time>
      </trkpt>
      <trkpt lat="42.971" lon="1.94954">
        <ele>408</ele>
        <time>2016-11-01T10:58:50.008Z</time>
      </trkpt>
      <trkpt lat="42.97086" lon="1.94951">
        <ele>408</ele>
        <time>2016-11-01T10:58:52.008Z</time>
      </trkpt>
      <trkpt lat="42.97076" lon="1.94946">
        <ele>408</ele>
        <time>2016-11-01T10:58:54.008Z</time>
      </trkpt>
      <trkpt lat="42.97068" lon="1.94936">
        <ele>408</ele>
        <time>2016-11-01T10:58:56.008Z</time>
      </trkpt>
      <trkpt lat="42.97061" lon="1.94925">
        <ele>408</ele>
        <time>2016-11-01T10:58:58.008Z</time>
      </trkpt>
      <trkpt lat="42.97055" lon="1.94913">
        <ele>408</ele>
        <time>2016-11-01T10:59:00.008Z</time>
      </trkpt>
      <trkpt lat="42.97046" lon="1.94904">
        <ele>406</ele>
        <time>2016-11-01T10:59:02.008Z</time>
      </trkpt>
      <trkpt lat="42.97036" lon="1.94899">
        <ele>406</ele>
        <time>2016-11-01T10:59:04.008Z</time>
      </trkpt>
      <trkpt lat="42.97025" lon="1.94898">
        <ele>406</ele>
        <time>2016-11-01T10:59:06.008Z</time>
      </trkpt>
      <trkpt lat="42.97018" lon="1.94906">
        <ele>406</ele>
        <time>2016-11-01T10:59:08.008Z</time>
      </trkpt>
      <trkpt lat="42.97014" lon="1.94919">
        <ele>406</ele>
        <time>2016-11-01T10:59:10.008Z</time>
      </trkpt>
      <trkpt lat="42.97011" lon="1.94934">
        <ele>406</ele>
        <time>2016-11-01T10:59:12.008Z</time>
      </trkpt>
      <trkpt lat="42.97008" lon="1.9495">
        <ele>406</ele>
        <time>2016-11-01T10:59:14.008Z</time>
      </trkpt>
      <trkpt lat="42.97002" lon="1.94962">
        <ele>406</ele>
        <time>2016-11-01T10:59:16.008Z</time>
      </trkpt>
      <trkpt lat="42.96992" lon="1.94961">
        <ele>406</ele>
        <time>2016-11-01T10:59:19.008Z</time>
      </trkpt>
      <trkpt lat="42.96983" lon="1.94956">
        <ele>407</ele>
        <time>2016-11-01T10:59:22.008Z</time>
      </trkpt>
      <trkpt lat="42.96972" lon="1.94955">
        <ele>407</ele>
        <time>2016-11-01T10:59:26.008Z</time>
      </trkpt>
      <trkpt lat="42.96967" lon="1.94952">
        <ele>408</ele>
        <time>2016-11-01T11:01:45.008Z</time>
      </trkpt>
      <trkpt lat="42.96962" lon="1.94948">
        <ele>409</ele>
        <time>2016-11-01T11:01:53.008Z</time>
      </trkpt>
      <trkpt lat="42.96956" lon="1.94944">
        <ele>408.7820032</ele>
        <time>2016-11-01T11:01:58.008Z</time>
      </trkpt>
      <trkpt lat="42.96951" lon="1.9494">
        <ele>408.2179968</ele>
        <time>2016-11-01T11:02:01.008Z</time>
      </trkpt>
      <trkpt lat="42.96947" lon="1.94934">
        <ele>409</ele>
        <time>2016-11-01T11:02:04.008Z</time>
      </trkpt>
      <trkpt lat="42.96944" lon="1.94928">
        <ele>409</ele>
        <time>2016-11-01T11:02:06.008Z</time>
      </trkpt>
      <trkpt lat="42.96941" lon="1.94921">
        <ele>409</ele>
        <time>2016-11-01T11:02:08.008Z</time>
      </trkpt>
      <trkpt lat="42.96939" lon="1.94913">
        <ele>409</ele>
        <time>2016-11-01T11:02:10.008Z</time>
      </trkpt>
      <trkpt lat="42.9694" lon="1.94903">
        <ele>410</ele>
        <time>2016-11-01T11:02:12.008Z</time>
      </trkpt>
      <trkpt lat="42.9694" lon="1.94893">
        <ele>410</ele>
        <time>2016-11-01T11:02:14.008Z</time>
      </trkpt>
      <trkpt lat="42.96941" lon="1.94887">
        <ele>410</ele>
        <time>2016-11-01T11:02:15.008Z</time>
      </trkpt>
      <trkpt lat="42.96941" lon="1.94882">
        <ele>410</ele>
        <time>2016-11-01T11:02:16.008Z</time>
      </trkpt>
      <trkpt lat="42.96942" lon="1.94876">
        <ele>410</ele>
        <time>2016-11-01T11:02:17.008Z</time>
      </trkpt>
      <trkpt lat="42.96943" lon="1.9487">
        <ele>410</ele>
        <time>2016-11-01T11:02:18.008Z</time>
      </trkpt>
      <trkpt lat="42.96944" lon="1.94857">
        <ele>410</ele>
        <time>2016-11-01T11:02:20.008Z</time>
      </trkpt>
      <trkpt lat="42.96945" lon="1.94845">
        <ele>410</ele>
        <time>2016-11-01T11:02:22.008Z</time>
      </trkpt>
      <trkpt lat="42.96945" lon="1.94838">
        <ele>410</ele>
        <time>2016-11-01T11:02:23.008Z</time>
      </trkpt>
      <trkpt lat="42.96946" lon="1.94832">
        <ele>410</ele>
        <time>2016-11-01T11:02:24.008Z</time>
      </trkpt>
      <trkpt lat="42.96947" lon="1.94819">
        <ele>410</ele>
        <time>2016-11-01T11:02:26.008Z</time>
      </trkpt>
      <trkpt lat="42.96948" lon="1.94805">
        <ele>410</ele>
        <time>2016-11-01T11:02:28.008Z</time>
      </trkpt>
      <trkpt lat="42.9695" lon="1.94791">
        <ele>410</ele>
        <time>2016-11-01T11:02:30.008Z</time>
      </trkpt>
      <trkpt lat="42.9695" lon="1.94777">
        <ele>409</ele>
        <time>2016-11-01T11:02:32.008Z</time>
      </trkpt>
      <trkpt lat="42.9695" lon="1.9477">
        <ele>409</ele>
        <time>2016-11-01T11:02:33.008Z</time>
      </trkpt>
      <trkpt lat="42.9695" lon="1.94763">
        <ele>409</ele>
        <time>2016-11-01T11:02:34.008Z</time>
      </trkpt>
      <trkpt lat="42.96948" lon="1.94749">
        <ele>409</ele>
        <time>2016-11-01T11:02:36.008Z</time>
      </trkpt>
      <trkpt lat="42.96946" lon="1.94742">
        <ele>409</ele>
        <time>2016-11-01T11:02:37.008Z</time>
      </trkpt>
      <trkpt lat="42.9694" lon="1.9473">
        <ele>409</ele>
        <time>2016-11-01T11:02:39.008Z</time>
      </trkpt>
      <trkpt lat="42.96937" lon="1.94724">
        <ele>409</ele>
        <time>2016-11-01T11:02:40.008Z</time>
      </trkpt>
      <trkpt lat="42.96935" lon="1.94718">
        <ele>409.2179968</ele>
        <time>2016-11-01T11:02:41.008Z</time>
      </trkpt>
      <trkpt lat="42.96932" lon="1.94712">
        <ele>410</ele>
        <time>2016-11-01T11:02:42.008Z</time>
      </trkpt>
      <trkpt lat="42.96926" lon="1.947">
        <ele>410</ele>
        <time>2016-11-01T11:02:44.008Z</time>
      </trkpt>
      <trkpt lat="42.96919" lon="1.94688">
        <ele>410</ele>
        <time>2016-11-01T11:02:46.008Z</time>
      </trkpt>
      <trkpt lat="42.96913" lon="1.94676">
        <ele>410</ele>
        <time>2016-11-01T11:02:48.008Z</time>
      </trkpt>
      <trkpt lat="42.9691" lon="1.9467">
        <ele>410</ele>
        <time>2016-11-01T11:02:49.008Z</time>
      </trkpt>
      <trkpt lat="42.96907" lon="1.94665">
        <ele>410</ele>
        <time>2016-11-01T11:02:50.008Z</time>
      </trkpt>
      <trkpt lat="42.96902" lon="1.94653">
        <ele>410</ele>
        <time>2016-11-01T11:02:52.008Z</time>
      </trkpt>
      <trkpt lat="42.96899" lon="1.94647">
        <ele>410</ele>
        <time>2016-11-01T11:02:53.008Z</time>
      </trkpt>
      <trkpt lat="42.96897" lon="1.94642">
        <ele>410</ele>
        <time>2016-11-01T11:02:54.008Z</time>
      </trkpt>
      <trkpt lat="42.96895" lon="1.94636">
        <ele>410</ele>
        <time>2016-11-01T11:02:55.008Z</time>
      </trkpt>
      <trkpt lat="42.96893" lon="1.94629">
        <ele>410</ele>
        <time>2016-11-01T11:02:56.008Z</time>
      </trkpt>
      <trkpt lat="42.96889" lon="1.94617">
        <ele>410</ele>
        <time>2016-11-01T11:02:58.008Z</time>
      </trkpt>
      <trkpt lat="42.96885" lon="1.94604">
        <ele>410</ele>
        <time>2016-11-01T11:03:00.008Z</time>
      </trkpt>
      <trkpt lat="42.96883" lon="1.94589">
        <ele>410</ele>
        <time>2016-11-01T11:03:02.008Z</time>
      </trkpt>
      <trkpt lat="42.96885" lon="1.94575">
        <ele>410</ele>
        <time>2016-11-01T11:03:04.008Z</time>
      </trkpt>
      <trkpt lat="42.96887" lon="1.94568">
        <ele>410</ele>
        <time>2016-11-01T11:03:05.008Z</time>
      </trkpt>
      <trkpt lat="42.96889" lon="1.94561">
        <ele>410</ele>
        <time>2016-11-01T11:03:06.008Z</time>
      </trkpt>
      <trkpt lat="42.96891" lon="1.94555">
        <ele>410</ele>
        <time>2016-11-01T11:03:07.008Z</time>
      </trkpt>
      <trkpt lat="42.96895" lon="1.94543">
        <ele>410</ele>
        <time>2016-11-01T11:03:09.008Z</time>
      </trkpt>
      <trkpt lat="42.969" lon="1.9453">
        <ele>409.2179968</ele>
        <time>2016-11-01T11:03:11.008Z</time>
      </trkpt>
      <trkpt lat="42.96904" lon="1.94518">
        <ele>410</ele>
        <time>2016-11-01T11:03:13.008Z</time>
      </trkpt>
      <trkpt lat="42.96906" lon="1.94512">
        <ele>410</ele>
        <time>2016-11-01T11:03:14.008Z</time>
      </trkpt>
      <trkpt lat="42.96908" lon="1.94507">
        <ele>410</ele>
        <time>2016-11-01T11:03:15.008Z</time>
      </trkpt>
      <trkpt lat="42.9691" lon="1.94501">
        <ele>410</ele>
        <time>2016-11-01T11:03:16.008Z</time>
      </trkpt>
      <trkpt lat="42.96913" lon="1.94495">
        <ele>410</ele>
        <time>2016-11-01T11:03:17.008Z</time>
      </trkpt>
      <trkpt lat="42.96915" lon="1.9449">
        <ele>410</ele>
        <time>2016-11-01T11:03:18.008Z</time>
      </trkpt>
      <trkpt lat="42.96917" lon="1.94484">
        <ele>410</ele>
        <time>2016-11-01T11:03:19.008Z</time>
      </trkpt>
      <trkpt lat="42.96919" lon="1.94479">
        <ele>410</ele>
        <time>2016-11-01T11:03:20.008Z</time>
      </trkpt>
      <trkpt lat="42.96921" lon="1.94473">
        <ele>410.4359936</ele>
        <time>2016-11-01T11:03:21.008Z</time>
      </trkpt>
      <trkpt lat="42.96923" lon="1.94468">
        <ele>412</ele>
        <time>2016-11-01T11:03:22.008Z</time>
      </trkpt>
      <trkpt lat="42.96925" lon="1.94462">
        <ele>412</ele>
        <time>2016-11-01T11:03:23.008Z</time>
      </trkpt>
      <trkpt lat="42.96928" lon="1.94457">
        <ele>412</ele>
        <time>2016-11-01T11:03:24.008Z</time>
      </trkpt>
      <trkpt lat="42.96932" lon="1.94446">
        <ele>412</ele>
        <time>2016-11-01T11:03:26.008Z</time>
      </trkpt>
      <trkpt lat="42.96936" lon="1.94435">
        <ele>412</ele>
        <time>2016-11-01T11:03:28.008Z</time>
      </trkpt>
      <trkpt lat="42.9694" lon="1.94424">
        <ele>412</ele>
        <time>2016-11-01T11:03:30.008Z</time>
      </trkpt>
      <trkpt lat="42.96944" lon="1.94413">
        <ele>414</ele>
        <time>2016-11-01T11:03:32.008Z</time>
      </trkpt>
      <trkpt lat="42.96947" lon="1.94402">
        <ele>414</ele>
        <time>2016-11-01T11:03:34.008Z</time>
      </trkpt>
      <trkpt lat="42.96951" lon="1.9439">
        <ele>414</ele>
        <time>2016-11-01T11:03:36.008Z</time>
      </trkpt>
      <trkpt lat="42.96954" lon="1.94379">
        <ele>414</ele>
        <time>2016-11-01T11:03:38.008Z</time>
      </trkpt>
      <trkpt lat="42.96957" lon="1.94368">
        <ele>413.7820032</ele>
        <time>2016-11-01T11:03:40.008Z</time>
      </trkpt>
      <trkpt lat="42.9696" lon="1.94357">
        <ele>415</ele>
        <time>2016-11-01T11:03:42.008Z</time>
      </trkpt>
      <trkpt lat="42.96963" lon="1.94345">
        <ele>415</ele>
        <time>2016-11-01T11:03:44.008Z</time>
      </trkpt>
      <trkpt lat="42.96965" lon="1.94334">
        <ele>415</ele>
        <time>2016-11-01T11:03:46.008Z</time>
      </trkpt>
      <trkpt lat="42.96967" lon="1.94321">
        <ele>415</ele>
        <time>2016-11-01T11:03:48.008Z</time>
      </trkpt>
      <trkpt lat="42.96969" lon="1.94309">
        <ele>415</ele>
        <time>2016-11-01T11:03:50.008Z</time>
      </trkpt>
      <trkpt lat="42.9697" lon="1.94298">
        <ele>416</ele>
        <time>2016-11-01T11:03:52.008Z</time>
      </trkpt>
      <trkpt lat="42.9697" lon="1.94293">
        <ele>416</ele>
        <time>2016-11-01T11:03:53.008Z</time>
      </trkpt>
      <trkpt lat="42.96971" lon="1.94287">
        <ele>416</ele>
        <time>2016-11-01T11:03:54.008Z</time>
      </trkpt>
      <trkpt lat="42.96971" lon="1.94282">
        <ele>416</ele>
        <time>2016-11-01T11:03:55.008Z</time>
      </trkpt>
      <trkpt lat="42.96972" lon="1.94276">
        <ele>416</ele>
        <time>2016-11-01T11:03:56.008Z</time>
      </trkpt>
      <trkpt lat="42.96973" lon="1.9427">
        <ele>416</ele>
        <time>2016-11-01T11:03:57.008Z</time>
      </trkpt>
      <trkpt lat="42.96973" lon="1.94264">
        <ele>416</ele>
        <time>2016-11-01T11:03:58.008Z</time>
      </trkpt>
      <trkpt lat="42.96973" lon="1.94258">
        <ele>416</ele>
        <time>2016-11-01T11:03:59.008Z</time>
      </trkpt>
      <trkpt lat="42.96974" lon="1.94252">
        <ele>416</ele>
        <time>2016-11-01T11:04:00.008Z</time>
      </trkpt>
      <trkpt lat="42.96975" lon="1.94246">
        <ele>416.4359936</ele>
        <time>2016-11-01T11:04:01.008Z</time>
      </trkpt>
      <trkpt lat="42.96975" lon="1.94241">
        <ele>418</ele>
        <time>2016-11-01T11:04:02.008Z</time>
      </trkpt>
      <trkpt lat="42.96975" lon="1.94235">
        <ele>418</ele>
        <time>2016-11-01T11:04:03.008Z</time>
      </trkpt>
      <trkpt lat="42.96976" lon="1.94229">
        <ele>418</ele>
        <time>2016-11-01T11:04:04.008Z</time>
      </trkpt>
      <trkpt lat="42.96976" lon="1.94223">
        <ele>418</ele>
        <time>2016-11-01T11:04:05.008Z</time>
      </trkpt>
      <trkpt lat="42.96976" lon="1.94218">
        <ele>418</ele>
        <time>2016-11-01T11:04:06.008Z</time>
      </trkpt>
      <trkpt lat="42.96976" lon="1.94213">
        <ele>418</ele>
        <time>2016-11-01T11:04:07.008Z</time>
      </trkpt>
      <trkpt lat="42.96977" lon="1.94203">
        <ele>418</ele>
        <time>2016-11-01T11:04:09.008Z</time>
      </trkpt>
      <trkpt lat="42.96976" lon="1.94195">
        <ele>418.2179968</ele>
        <time>2016-11-01T11:04:11.008Z</time>
      </trkpt>
      <trkpt lat="42.96974" lon="1.94189">
        <ele>419</ele>
        <time>2016-11-01T11:04:13.008Z</time>
      </trkpt>
      <trkpt lat="42.96969" lon="1.9419">
        <ele>419</ele>
        <time>2016-11-01T11:04:15.008Z</time>
      </trkpt>
      <trkpt lat="42.96966" lon="1.94198">
        <ele>419</ele>
        <time>2016-11-01T11:04:18.008Z</time>
      </trkpt>
      <trkpt lat="42.96961" lon="1.94206">
        <ele>419.2179968</ele>
        <time>2016-11-01T11:04:21.008Z</time>
      </trkpt>
      <trkpt lat="42.96957" lon="1.94214">
        <ele>420</ele>
        <time>2016-11-01T11:04:25.008Z</time>
      </trkpt>
      <trkpt lat="42.96961" lon="1.94204">
        <ele>420</ele>
        <time>2016-11-01T11:04:35.008Z</time>
      </trkpt>
      <trkpt lat="42.96968" lon="1.94195">
        <ele>420</ele>
        <time>2016-11-01T11:04:38.008Z</time>
      </trkpt>
      <trkpt lat="42.96975" lon="1.94188">
        <ele>420</ele>
        <time>2016-11-01T11:04:41.008Z</time>
      </trkpt>
      <trkpt lat="42.96979" lon="1.94177">
        <ele>420</ele>
        <time>2016-11-01T11:04:44.008Z</time>
      </trkpt>
      <trkpt lat="42.96981" lon="1.94167">
        <ele>420</ele>
        <time>2016-11-01T11:04:46.008Z</time>
      </trkpt>
      <trkpt lat="42.96982" lon="1.94158">
        <ele>420</ele>
        <time>2016-11-01T11:04:48.008Z</time>
      </trkpt>
      <trkpt lat="42.96982" lon="1.94149">
        <ele>420</ele>
        <time>2016-11-01T11:04:50.008Z</time>
      </trkpt>
      <trkpt lat="42.96983" lon="1.9414">
        <ele>422</ele>
        <time>2016-11-01T11:04:52.008Z</time>
      </trkpt>
      <trkpt lat="42.96983" lon="1.94131">
        <ele>422</ele>
        <time>2016-11-01T11:04:54.008Z</time>
      </trkpt>
      <trkpt lat="42.96984" lon="1.94123">
        <ele>422</ele>
        <time>2016-11-01T11:04:56.008Z</time>
      </trkpt>
      <trkpt lat="42.96985" lon="1.9411">
        <ele>422</ele>
        <time>2016-11-01T11:04:59.008Z</time>
      </trkpt>
      <trkpt lat="42.96986" lon="1.94097">
        <ele>423</ele>
        <time>2016-11-01T11:05:02.008Z</time>
      </trkpt>
      <trkpt lat="42.96988" lon="1.94083">
        <ele>423</ele>
        <time>2016-11-01T11:05:05.008Z</time>
      </trkpt>
      <trkpt lat="42.96988" lon="1.9407">
        <ele>423</ele>
        <time>2016-11-01T11:05:08.008Z</time>
      </trkpt>
      <trkpt lat="42.96989" lon="1.94061">
        <ele>423</ele>
        <time>2016-11-01T11:05:10.008Z</time>
      </trkpt>
      <trkpt lat="42.96989" lon="1.94052">
        <ele>425</ele>
        <time>2016-11-01T11:05:12.008Z</time>
      </trkpt>
      <trkpt lat="42.9699" lon="1.94043">
        <ele>425</ele>
        <time>2016-11-01T11:05:14.008Z</time>
      </trkpt>
      <trkpt lat="42.9699" lon="1.94035">
        <ele>425</ele>
        <time>2016-11-01T11:05:16.008Z</time>
      </trkpt>
      <trkpt lat="42.96991" lon="1.94026">
        <ele>425</ele>
        <time>2016-11-01T11:05:18.008Z</time>
      </trkpt>
      <trkpt lat="42.96992" lon="1.94017">
        <ele>425</ele>
        <time>2016-11-01T11:05:20.008Z</time>
      </trkpt>
      <trkpt lat="42.96993" lon="1.94008">
        <ele>427</ele>
        <time>2016-11-01T11:05:22.008Z</time>
      </trkpt>
      <trkpt lat="42.96994" lon="1.93998">
        <ele>427</ele>
        <time>2016-11-01T11:05:24.008Z</time>
      </trkpt>
      <trkpt lat="42.96995" lon="1.93988">
        <ele>427</ele>
        <time>2016-11-01T11:05:26.008Z</time>
      </trkpt>
      <trkpt lat="42.96996" lon="1.93978">
        <ele>427</ele>
        <time>2016-11-01T11:05:28.008Z</time>
      </trkpt>
      <trkpt lat="42.96996" lon="1.93968">
        <ele>427</ele>
        <time>2016-11-01T11:05:30.008Z</time>
      </trkpt>
      <trkpt lat="42.96996" lon="1.93959">
        <ele>429</ele>
        <time>2016-11-01T11:05:32.008Z</time>
      </trkpt>
      <trkpt lat="42.96996" lon="1.9395">
        <ele>429</ele>
        <time>2016-11-01T11:05:34.008Z</time>
      </trkpt>
      <trkpt lat="42.96995" lon="1.93941">
        <ele>429</ele>
        <time>2016-11-01T11:05:36.008Z</time>
      </trkpt>
      <trkpt lat="42.96991" lon="1.93935">
        <ele>429</ele>
        <time>2016-11-01T11:05:38.008Z</time>
      </trkpt>
      <trkpt lat="42.96984" lon="1.93933">
        <ele>429</ele>
        <time>2016-11-01T11:05:40.008Z</time>
      </trkpt>
      <trkpt lat="42.96977" lon="1.93932">
        <ele>429</ele>
        <time>2016-11-01T11:05:42.008Z</time>
      </trkpt>
      <trkpt lat="42.96968" lon="1.9393">
        <ele>429</ele>
        <time>2016-11-01T11:05:45.008Z</time>
      </trkpt>
      <trkpt lat="42.9696" lon="1.93927">
        <ele>429</ele>
        <time>2016-11-01T11:05:48.008Z</time>
      </trkpt>
      <trkpt lat="42.96951" lon="1.93925">
        <ele>429.2179968</ele>
        <time>2016-11-01T11:05:51.008Z</time>
      </trkpt>
      <trkpt lat="42.96942" lon="1.93924">
        <ele>430</ele>
        <time>2016-11-01T11:05:54.008Z</time>
      </trkpt>
      <trkpt lat="42.96931" lon="1.93921">
        <ele>430</ele>
        <time>2016-11-01T11:05:58.008Z</time>
      </trkpt>
      <trkpt lat="42.96923" lon="1.93919">
        <ele>430.6539904</ele>
        <time>2016-11-01T11:06:01.008Z</time>
      </trkpt>
      <trkpt lat="42.96914" lon="1.93917">
        <ele>433</ele>
        <time>2016-11-01T11:06:04.008Z</time>
      </trkpt>
      <trkpt lat="42.96906" lon="1.93916">
        <ele>435</ele>
        <time>2016-11-01T11:06:07.008Z</time>
      </trkpt>
      <trkpt lat="42.96899" lon="1.93914">
        <ele>435</ele>
        <time>2016-11-01T11:06:10.008Z</time>
      </trkpt>
      <trkpt lat="42.96892" lon="1.93912">
        <ele>437</ele>
        <time>2016-11-01T11:06:13.008Z</time>
      </trkpt>
      <trkpt lat="42.96884" lon="1.9391">
        <ele>437.2179968</ele>
        <time>2016-11-01T11:06:16.008Z</time>
      </trkpt>
      <trkpt lat="42.96876" lon="1.93908">
        <ele>438</ele>
        <time>2016-11-01T11:06:19.008Z</time>
      </trkpt>
      <trkpt lat="42.96867" lon="1.93905">
        <ele>439</ele>
        <time>2016-11-01T11:06:22.008Z</time>
      </trkpt>
      <trkpt lat="42.9686" lon="1.93897">
        <ele>439</ele>
        <time>2016-11-01T11:06:25.008Z</time>
      </trkpt>
      <trkpt lat="42.96857" lon="1.93885">
        <ele>439</ele>
        <time>2016-11-01T11:06:28.008Z</time>
      </trkpt>
      <trkpt lat="42.96855" lon="1.93873">
        <ele>439.2179968</ele>
        <time>2016-11-01T11:06:31.008Z</time>
      </trkpt>
      <trkpt lat="42.96851" lon="1.93867">
        <ele>440</ele>
        <time>2016-11-01T11:06:33.008Z</time>
      </trkpt>
      <trkpt lat="42.96845" lon="1.93863">
        <ele>440</ele>
        <time>2016-11-01T11:06:35.008Z</time>
      </trkpt>
      <trkpt lat="42.96839" lon="1.93859">
        <ele>440</ele>
        <time>2016-11-01T11:06:37.008Z</time>
      </trkpt>
      <trkpt lat="42.96833" lon="1.93852">
        <ele>440</ele>
        <time>2016-11-01T11:06:39.008Z</time>
      </trkpt>
      <trkpt lat="42.9683" lon="1.93844">
        <ele>440</ele>
        <time>2016-11-01T11:06:41.008Z</time>
      </trkpt>
      <trkpt lat="42.96828" lon="1.93831">
        <ele>440</ele>
        <time>2016-11-01T11:06:44.008Z</time>
      </trkpt>
      <trkpt lat="42.96828" lon="1.93817">
        <ele>440</ele>
        <time>2016-11-01T11:06:47.008Z</time>
      </trkpt>
      <trkpt lat="42.96826" lon="1.93804">
        <ele>440</ele>
        <time>2016-11-01T11:06:50.008Z</time>
      </trkpt>
      <trkpt lat="42.96823" lon="1.93791">
        <ele>442</ele>
        <time>2016-11-01T11:06:53.008Z</time>
      </trkpt>
      <trkpt lat="42.9682" lon="1.93782">
        <ele>442</ele>
        <time>2016-11-01T11:06:55.008Z</time>
      </trkpt>
      <trkpt lat="42.96814" lon="1.9377">
        <ele>442</ele>
        <time>2016-11-01T11:06:58.008Z</time>
      </trkpt>
      <trkpt lat="42.96808" lon="1.9376">
        <ele>442.8719872</ele>
        <time>2016-11-01T11:07:01.008Z</time>
      </trkpt>
      <trkpt lat="42.96803" lon="1.9375">
        <ele>446</ele>
        <time>2016-11-01T11:07:04.008Z</time>
      </trkpt>
      <trkpt lat="42.96797" lon="1.93742">
        <ele>446</ele>
        <time>2016-11-01T11:07:07.008Z</time>
      </trkpt>
      <trkpt lat="42.9679" lon="1.93736">
        <ele>446</ele>
        <time>2016-11-01T11:07:10.008Z</time>
      </trkpt>
      <trkpt lat="42.9678" lon="1.93732">
        <ele>448</ele>
        <time>2016-11-01T11:07:14.008Z</time>
      </trkpt>
      <trkpt lat="42.9677" lon="1.9373">
        <ele>448</ele>
        <time>2016-11-01T11:07:18.008Z</time>
      </trkpt>
      <trkpt lat="42.9676" lon="1.93725">
        <ele>451</ele>
        <time>2016-11-01T11:07:22.008Z</time>
      </trkpt>
      <trkpt lat="42.96754" lon="1.93717">
        <ele>451</ele>
        <time>2016-11-01T11:07:25.008Z</time>
      </trkpt>
      <trkpt lat="42.9675" lon="1.93705">
        <ele>453</ele>
        <time>2016-11-01T11:07:29.008Z</time>
      </trkpt>
      <trkpt lat="42.96747" lon="1.93692">
        <ele>455</ele>
        <time>2016-11-01T11:07:33.008Z</time>
      </trkpt>
      <trkpt lat="42.96745" lon="1.93678">
        <ele>457</ele>
        <time>2016-11-01T11:07:37.008Z</time>
      </trkpt>
      <trkpt lat="42.96742" lon="1.93666">
        <ele>457</ele>
        <time>2016-11-01T11:07:40.008Z</time>
      </trkpt>
      <trkpt lat="42.96738" lon="1.93655">
        <ele>457</ele>
        <time>2016-11-01T11:07:43.008Z</time>
      </trkpt>
      <trkpt lat="42.96734" lon="1.93645">
        <ele>457</ele>
        <time>2016-11-01T11:07:46.008Z</time>
      </trkpt>
      <trkpt lat="42.96731" lon="1.93638">
        <ele>457</ele>
        <time>2016-11-01T11:07:48.008Z</time>
      </trkpt>
      <trkpt lat="42.96728" lon="1.9363">
        <ele>457</ele>
        <time>2016-11-01T11:07:50.008Z</time>
      </trkpt>
      <trkpt lat="42.96725" lon="1.93622">
        <ele>459</ele>
        <time>2016-11-01T11:07:53.008Z</time>
      </trkpt>
      <trkpt lat="42.96722" lon="1.93615">
        <ele>459</ele>
        <time>2016-11-01T11:07:55.008Z</time>
      </trkpt>
      <trkpt lat="42.96721" lon="1.93608">
        <ele>461</ele>
        <time>2016-11-01T11:07:57.008Z</time>
      </trkpt>
      <trkpt lat="42.96719" lon="1.936">
        <ele>461</ele>
        <time>2016-11-01T11:07:59.008Z</time>
      </trkpt>
      <trkpt lat="42.96718" lon="1.93593">
        <ele>461.4359936</ele>
        <time>2016-11-01T11:08:01.008Z</time>
      </trkpt>
      <trkpt lat="42.96718" lon="1.93585">
        <ele>463</ele>
        <time>2016-11-01T11:08:03.008Z</time>
      </trkpt>
      <trkpt lat="42.96716" lon="1.93577">
        <ele>463</ele>
        <time>2016-11-01T11:08:05.008Z</time>
      </trkpt>
      <trkpt lat="42.96716" lon="1.93569">
        <ele>464</ele>
        <time>2016-11-01T11:08:07.008Z</time>
      </trkpt>
      <trkpt lat="42.96717" lon="1.93561">
        <ele>463.7820032</ele>
        <time>2016-11-01T11:08:09.008Z</time>
      </trkpt>
      <trkpt lat="42.9672" lon="1.9355">
        <ele>464</ele>
        <time>2016-11-01T11:08:12.008Z</time>
      </trkpt>
      <trkpt lat="42.96723" lon="1.93539">
        <ele>464</ele>
        <time>2016-11-01T11:08:15.008Z</time>
      </trkpt>
      <trkpt lat="42.96726" lon="1.93528">
        <ele>464</ele>
        <time>2016-11-01T11:08:18.008Z</time>
      </trkpt>
      <trkpt lat="42.96728" lon="1.93521">
        <ele>464</ele>
        <time>2016-11-01T11:08:20.008Z</time>
      </trkpt>
      <trkpt lat="42.96732" lon="1.93509">
        <ele>466</ele>
        <time>2016-11-01T11:08:23.008Z</time>
      </trkpt>
      <trkpt lat="42.96735" lon="1.93498">
        <ele>466</ele>
        <time>2016-11-01T11:08:26.008Z</time>
      </trkpt>
      <trkpt lat="42.96739" lon="1.93486">
        <ele>466</ele>
        <time>2016-11-01T11:08:29.008Z</time>
      </trkpt>
      <trkpt lat="42.96742" lon="1.93475">
        <ele>468</ele>
        <time>2016-11-01T11:08:32.008Z</time>
      </trkpt>
      <trkpt lat="42.96744" lon="1.93466">
        <ele>468</ele>
        <time>2016-11-01T11:08:34.008Z</time>
      </trkpt>
      <trkpt lat="42.96746" lon="1.93458">
        <ele>468</ele>
        <time>2016-11-01T11:08:36.008Z</time>
      </trkpt>
      <trkpt lat="42.96748" lon="1.93449">
        <ele>468</ele>
        <time>2016-11-01T11:08:38.008Z</time>
      </trkpt>
      <trkpt lat="42.9675" lon="1.9344">
        <ele>467</ele>
        <time>2016-11-01T11:08:40.008Z</time>
      </trkpt>
      <trkpt lat="42.96752" lon="1.93432">
        <ele>469</ele>
        <time>2016-11-01T11:08:42.008Z</time>
      </trkpt>
      <trkpt lat="42.96754" lon="1.93423">
        <ele>469</ele>
        <time>2016-11-01T11:08:44.008Z</time>
      </trkpt>
      <trkpt lat="42.96755" lon="1.93415">
        <ele>469</ele>
        <time>2016-11-01T11:08:46.008Z</time>
      </trkpt>
      <trkpt lat="42.96758" lon="1.93402">
        <ele>469</ele>
        <time>2016-11-01T11:08:49.008Z</time>
      </trkpt>
      <trkpt lat="42.96761" lon="1.93394">
        <ele>469.2179968</ele>
        <time>2016-11-01T11:08:51.008Z</time>
      </trkpt>
      <trkpt lat="42.96764" lon="1.93387">
        <ele>470</ele>
        <time>2016-11-01T11:08:53.008Z</time>
      </trkpt>
      <trkpt lat="42.96767" lon="1.93378">
        <ele>470</ele>
        <time>2016-11-01T11:08:55.008Z</time>
      </trkpt>
      <trkpt lat="42.96773" lon="1.93367">
        <ele>470</ele>
        <time>2016-11-01T11:08:58.008Z</time>
      </trkpt>
      <trkpt lat="42.96779" lon="1.93355">
        <ele>470.4359936</ele>
        <time>2016-11-01T11:09:01.008Z</time>
      </trkpt>
      <trkpt lat="42.96783" lon="1.93343">
        <ele>472</ele>
        <time>2016-11-01T11:09:04.008Z</time>
      </trkpt>
      <trkpt lat="42.96788" lon="1.93329">
        <ele>472</ele>
        <time>2016-11-01T11:09:07.008Z</time>
      </trkpt>
      <trkpt lat="42.96795" lon="1.93316">
        <ele>472</ele>
        <time>2016-11-01T11:09:10.008Z</time>
      </trkpt>
      <trkpt lat="42.96801" lon="1.93308">
        <ele>472</ele>
        <time>2016-11-01T11:09:12.008Z</time>
      </trkpt>
      <trkpt lat="42.96806" lon="1.933">
        <ele>472</ele>
        <time>2016-11-01T11:09:14.008Z</time>
      </trkpt>
      <trkpt lat="42.96812" lon="1.93292">
        <ele>472</ele>
        <time>2016-11-01T11:09:16.008Z</time>
      </trkpt>
      <trkpt lat="42.96818" lon="1.93285">
        <ele>472</ele>
        <time>2016-11-01T11:09:18.008Z</time>
      </trkpt>
      <trkpt lat="42.96824" lon="1.93278">
        <ele>472</ele>
        <time>2016-11-01T11:09:20.008Z</time>
      </trkpt>
      <trkpt lat="42.9683" lon="1.93272">
        <ele>472</ele>
        <time>2016-11-01T11:09:22.008Z</time>
      </trkpt>
      <trkpt lat="42.96836" lon="1.93266">
        <ele>472</ele>
        <time>2016-11-01T11:09:24.008Z</time>
      </trkpt>
      <trkpt lat="42.96844" lon="1.93255">
        <ele>472</ele>
        <time>2016-11-01T11:09:27.008Z</time>
      </trkpt>
      <trkpt lat="42.9685" lon="1.93246">
        <ele>472</ele>
        <time>2016-11-01T11:09:30.008Z</time>
      </trkpt>
      <trkpt lat="42.96853" lon="1.93239">
        <ele>472</ele>
        <time>2016-11-01T11:09:32.008Z</time>
      </trkpt>
      <trkpt lat="42.96853" lon="1.93229">
        <ele>472</ele>
        <time>2016-11-01T11:09:35.008Z</time>
      </trkpt>
      <trkpt lat="42.96854" lon="1.93221">
        <ele>472</ele>
        <time>2016-11-01T11:09:37.008Z</time>
      </trkpt>
      <trkpt lat="42.96854" lon="1.93212">
        <ele>472</ele>
        <time>2016-11-01T11:09:39.008Z</time>
      </trkpt>
      <trkpt lat="42.96854" lon="1.93203">
        <ele>472</ele>
        <time>2016-11-01T11:09:41.008Z</time>
      </trkpt>
      <trkpt lat="42.96854" lon="1.93195">
        <ele>472</ele>
        <time>2016-11-01T11:09:43.008Z</time>
      </trkpt>
      <trkpt lat="42.96853" lon="1.93186">
        <ele>472</ele>
        <time>2016-11-01T11:09:45.008Z</time>
      </trkpt>
      <trkpt lat="42.96853" lon="1.93177">
        <ele>472</ele>
        <time>2016-11-01T11:09:47.008Z</time>
      </trkpt>
      <trkpt lat="42.96852" lon="1.93168">
        <ele>472</ele>
        <time>2016-11-01T11:09:49.008Z</time>
      </trkpt>
      <trkpt lat="42.96852" lon="1.9316">
        <ele>472.2179968</ele>
        <time>2016-11-01T11:09:51.008Z</time>
      </trkpt>
      <trkpt lat="42.96854" lon="1.93151">
        <ele>473</ele>
        <time>2016-11-01T11:09:53.008Z</time>
      </trkpt>
      <trkpt lat="42.96855" lon="1.93142">
        <ele>473</ele>
        <time>2016-11-01T11:09:55.008Z</time>
      </trkpt>
      <trkpt lat="42.96855" lon="1.93133">
        <ele>473</ele>
        <time>2016-11-01T11:09:57.008Z</time>
      </trkpt>
      <trkpt lat="42.96855" lon="1.93124">
        <ele>473</ele>
        <time>2016-11-01T11:09:59.008Z</time>
      </trkpt>
      <trkpt lat="42.96853" lon="1.93115">
        <ele>473.2179968</ele>
        <time>2016-11-01T11:10:01.008Z</time>
      </trkpt>
      <trkpt lat="42.96851" lon="1.93105">
        <ele>474</ele>
        <time>2016-11-01T11:10:03.008Z</time>
      </trkpt>
      <trkpt lat="42.96847" lon="1.93095">
        <ele>474</ele>
        <time>2016-11-01T11:10:05.008Z</time>
      </trkpt>
      <trkpt lat="42.96843" lon="1.93085">
        <ele>474</ele>
        <time>2016-11-01T11:10:07.008Z</time>
      </trkpt>
      <trkpt lat="42.96839" lon="1.93075">
        <ele>474</ele>
        <time>2016-11-01T11:10:09.008Z</time>
      </trkpt>
      <trkpt lat="42.96835" lon="1.93066">
        <ele>474</ele>
        <time>2016-11-01T11:10:11.008Z</time>
      </trkpt>
      <trkpt lat="42.96831" lon="1.93057">
        <ele>474</ele>
        <time>2016-11-01T11:10:13.008Z</time>
      </trkpt>
      <trkpt lat="42.96826" lon="1.93049">
        <ele>474</ele>
        <time>2016-11-01T11:10:15.008Z</time>
      </trkpt>
      <trkpt lat="42.96821" lon="1.9304">
        <ele>474</ele>
        <time>2016-11-01T11:10:17.008Z</time>
      </trkpt>
      <trkpt lat="42.96817" lon="1.93031">
        <ele>474</ele>
        <time>2016-11-01T11:10:19.008Z</time>
      </trkpt>
      <trkpt lat="42.96815" lon="1.9302">
        <ele>474.2179968</ele>
        <time>2016-11-01T11:10:21.008Z</time>
      </trkpt>
      <trkpt lat="42.96815" lon="1.93008">
        <ele>475</ele>
        <time>2016-11-01T11:10:23.008Z</time>
      </trkpt>
      <trkpt lat="42.96815" lon="1.92997">
        <ele>475</ele>
        <time>2016-11-01T11:10:25.008Z</time>
      </trkpt>
      <trkpt lat="42.96815" lon="1.92986">
        <ele>475</ele>
        <time>2016-11-01T11:10:27.008Z</time>
      </trkpt>
      <trkpt lat="42.96815" lon="1.92975">
        <ele>475</ele>
        <time>2016-11-01T11:10:29.008Z</time>
      </trkpt>
      <trkpt lat="42.96816" lon="1.92965">
        <ele>475.4359936</ele>
        <time>2016-11-01T11:10:31.008Z</time>
      </trkpt>
      <trkpt lat="42.96815" lon="1.92955">
        <ele>477</ele>
        <time>2016-11-01T11:10:33.008Z</time>
      </trkpt>
      <trkpt lat="42.96815" lon="1.92945">
        <ele>477</ele>
        <time>2016-11-01T11:10:35.008Z</time>
      </trkpt>
      <trkpt lat="42.96815" lon="1.92934">
        <ele>477</ele>
        <time>2016-11-01T11:10:37.008Z</time>
      </trkpt>
      <trkpt lat="42.96814" lon="1.92924">
        <ele>477</ele>
        <time>2016-11-01T11:10:39.008Z</time>
      </trkpt>
      <trkpt lat="42.96814" lon="1.92914">
        <ele>477.2179968</ele>
        <time>2016-11-01T11:10:41.008Z</time>
      </trkpt>
      <trkpt lat="42.96814" lon="1.92904">
        <ele>478</ele>
        <time>2016-11-01T11:10:43.008Z</time>
      </trkpt>
      <trkpt lat="42.96813" lon="1.92894">
        <ele>478</ele>
        <time>2016-11-01T11:10:45.008Z</time>
      </trkpt>
      <trkpt lat="42.96814" lon="1.92884">
        <ele>478</ele>
        <time>2016-11-01T11:10:47.008Z</time>
      </trkpt>
      <trkpt lat="42.96815" lon="1.92874">
        <ele>478</ele>
        <time>2016-11-01T11:10:49.008Z</time>
      </trkpt>
      <trkpt lat="42.96816" lon="1.92863">
        <ele>478</ele>
        <time>2016-11-01T11:10:51.008Z</time>
      </trkpt>
      <trkpt lat="42.96817" lon="1.92853">
        <ele>478</ele>
        <time>2016-11-01T11:10:53.008Z</time>
      </trkpt>
      <trkpt lat="42.96819" lon="1.92843">
        <ele>478</ele>
        <time>2016-11-01T11:10:55.008Z</time>
      </trkpt>
      <trkpt lat="42.9682" lon="1.92833">
        <ele>478</ele>
        <time>2016-11-01T11:10:57.008Z</time>
      </trkpt>
      <trkpt lat="42.96822" lon="1.92823">
        <ele>478</ele>
        <time>2016-11-01T11:10:59.008Z</time>
      </trkpt>
      <trkpt lat="42.96823" lon="1.92813">
        <ele>478.4359936</ele>
        <time>2016-11-01T11:11:01.008Z</time>
      </trkpt>
      <trkpt lat="42.96826" lon="1.92803">
        <ele>480</ele>
        <time>2016-11-01T11:11:03.008Z</time>
      </trkpt>
      <trkpt lat="42.96828" lon="1.92793">
        <ele>480</ele>
        <time>2016-11-01T11:11:05.008Z</time>
      </trkpt>
      <trkpt lat="42.9683" lon="1.92783">
        <ele>480</ele>
        <time>2016-11-01T11:11:07.008Z</time>
      </trkpt>
      <trkpt lat="42.96832" lon="1.92773">
        <ele>480</ele>
        <time>2016-11-01T11:11:09.008Z</time>
      </trkpt>
      <trkpt lat="42.96835" lon="1.92763">
        <ele>480.2179968</ele>
        <time>2016-11-01T11:11:11.008Z</time>
      </trkpt>
      <trkpt lat="42.96837" lon="1.92753">
        <ele>481</ele>
        <time>2016-11-01T11:11:13.008Z</time>
      </trkpt>
      <trkpt lat="42.96839" lon="1.92742">
        <ele>481</ele>
        <time>2016-11-01T11:11:15.008Z</time>
      </trkpt>
      <trkpt lat="42.96841" lon="1.92731">
        <ele>481</ele>
        <time>2016-11-01T11:11:17.008Z</time>
      </trkpt>
      <trkpt lat="42.96842" lon="1.92726">
        <ele>481</ele>
        <time>2016-11-01T11:11:18.008Z</time>
      </trkpt>
      <trkpt lat="42.96844" lon="1.9272">
        <ele>481</ele>
        <time>2016-11-01T11:11:19.008Z</time>
      </trkpt>
      <trkpt lat="42.96845" lon="1.92715">
        <ele>481</ele>
        <time>2016-11-01T11:11:20.008Z</time>
      </trkpt>
      <trkpt lat="42.96846" lon="1.92709">
        <ele>481.2179968</ele>
        <time>2016-11-01T11:11:21.008Z</time>
      </trkpt>
      <trkpt lat="42.96847" lon="1.92704">
        <ele>481.7820032</ele>
        <time>2016-11-01T11:11:22.008Z</time>
      </trkpt>
      <trkpt lat="42.96848" lon="1.92698">
        <ele>481</ele>
        <time>2016-11-01T11:11:23.008Z</time>
      </trkpt>
      <trkpt lat="42.96849" lon="1.92693">
        <ele>481</ele>
        <time>2016-11-01T11:11:24.008Z</time>
      </trkpt>
      <trkpt lat="42.9685" lon="1.92687">
        <ele>481</ele>
        <time>2016-11-01T11:11:25.008Z</time>
      </trkpt>
      <trkpt lat="42.96851" lon="1.92682">
        <ele>481</ele>
        <time>2016-11-01T11:11:26.008Z</time>
      </trkpt>
      <trkpt lat="42.96852" lon="1.92676">
        <ele>481</ele>
        <time>2016-11-01T11:11:27.008Z</time>
      </trkpt>
      <trkpt lat="42.96853" lon="1.9267">
        <ele>481</ele>
        <time>2016-11-01T11:11:28.008Z</time>
      </trkpt>
      <trkpt lat="42.96854" lon="1.92665">
        <ele>481</ele>
        <time>2016-11-01T11:11:29.008Z</time>
      </trkpt>
      <trkpt lat="42.96855" lon="1.92659">
        <ele>481</ele>
        <time>2016-11-01T11:11:30.008Z</time>
      </trkpt>
      <trkpt lat="42.96856" lon="1.92653">
        <ele>481</ele>
        <time>2016-11-01T11:11:31.008Z</time>
      </trkpt>
      <trkpt lat="42.96857" lon="1.92648">
        <ele>481</ele>
        <time>2016-11-01T11:11:32.008Z</time>
      </trkpt>
      <trkpt lat="42.96858" lon="1.92642">
        <ele>481</ele>
        <time>2016-11-01T11:11:33.008Z</time>
      </trkpt>
      <trkpt lat="42.96858" lon="1.92636">
        <ele>481</ele>
        <time>2016-11-01T11:11:34.008Z</time>
      </trkpt>
      <trkpt lat="42.9686" lon="1.92625">
        <ele>481</ele>
        <time>2016-11-01T11:11:36.008Z</time>
      </trkpt>
      <trkpt lat="42.96861" lon="1.92613">
        <ele>481</ele>
        <time>2016-11-01T11:11:38.008Z</time>
      </trkpt>
      <trkpt lat="42.96862" lon="1.92601">
        <ele>481</ele>
        <time>2016-11-01T11:11:40.008Z</time>
      </trkpt>
      <trkpt lat="42.96862" lon="1.92594">
        <ele>481</ele>
        <time>2016-11-01T11:11:41.008Z</time>
      </trkpt>
      <trkpt lat="42.96863" lon="1.92588">
        <ele>481</ele>
        <time>2016-11-01T11:11:42.008Z</time>
      </trkpt>
      <trkpt lat="42.96864" lon="1.92576">
        <ele>481</ele>
        <time>2016-11-01T11:11:44.008Z</time>
      </trkpt>
      <trkpt lat="42.96865" lon="1.92564">
        <ele>481</ele>
        <time>2016-11-01T11:11:46.008Z</time>
      </trkpt>
      <trkpt lat="42.96866" lon="1.92552">
        <ele>481</ele>
        <time>2016-11-01T11:11:48.008Z</time>
      </trkpt>
      <trkpt lat="42.96866" lon="1.92546">
        <ele>481</ele>
        <time>2016-11-01T11:11:49.008Z</time>
      </trkpt>
      <trkpt lat="42.96866" lon="1.92541">
        <ele>481</ele>
        <time>2016-11-01T11:11:50.008Z</time>
      </trkpt>
      <trkpt lat="42.96866" lon="1.92535">
        <ele>481.2179968</ele>
        <time>2016-11-01T11:11:51.008Z</time>
      </trkpt>
      <trkpt lat="42.96867" lon="1.9253">
        <ele>482</ele>
        <time>2016-11-01T11:11:52.008Z</time>
      </trkpt>
      <trkpt lat="42.96868" lon="1.92519">
        <ele>482</ele>
        <time>2016-11-01T11:11:54.008Z</time>
      </trkpt>
      <trkpt lat="42.96869" lon="1.92509">
        <ele>482</ele>
        <time>2016-11-01T11:11:56.008Z</time>
      </trkpt>
      <trkpt lat="42.96869" lon="1.92503">
        <ele>482</ele>
        <time>2016-11-01T11:11:57.008Z</time>
      </trkpt>
      <trkpt lat="42.96869" lon="1.92493">
        <ele>482</ele>
        <time>2016-11-01T11:11:59.008Z</time>
      </trkpt>
      <trkpt lat="42.96868" lon="1.92482">
        <ele>482.4359936</ele>
        <time>2016-11-01T11:12:01.008Z</time>
      </trkpt>
      <trkpt lat="42.96867" lon="1.92472">
        <ele>484</ele>
        <time>2016-11-01T11:12:03.008Z</time>
      </trkpt>
      <trkpt lat="42.96866" lon="1.92461">
        <ele>484</ele>
        <time>2016-11-01T11:12:05.008Z</time>
      </trkpt>
      <trkpt lat="42.96865" lon="1.92451">
        <ele>484</ele>
        <time>2016-11-01T11:12:07.008Z</time>
      </trkpt>
      <trkpt lat="42.96864" lon="1.92442">
        <ele>484</ele>
        <time>2016-11-01T11:12:09.008Z</time>
      </trkpt>
      <trkpt lat="42.96863" lon="1.92432">
        <ele>484.2179968</ele>
        <time>2016-11-01T11:12:11.008Z</time>
      </trkpt>
      <trkpt lat="42.9686" lon="1.92423">
        <ele>485</ele>
        <time>2016-11-01T11:12:13.008Z</time>
      </trkpt>
      <trkpt lat="42.96857" lon="1.92415">
        <ele>485</ele>
        <time>2016-11-01T11:12:15.008Z</time>
      </trkpt>
      <trkpt lat="42.96855" lon="1.92407">
        <ele>485</ele>
        <time>2016-11-01T11:12:17.008Z</time>
      </trkpt>
      <trkpt lat="42.96852" lon="1.92399">
        <ele>485</ele>
        <time>2016-11-01T11:12:19.008Z</time>
      </trkpt>
      <trkpt lat="42.96849" lon="1.92392">
        <ele>485.8719872</ele>
        <time>2016-11-01T11:12:21.008Z</time>
      </trkpt>
      <trkpt lat="42.96846" lon="1.92384">
        <ele>489</ele>
        <time>2016-11-01T11:12:23.008Z</time>
      </trkpt>
      <trkpt lat="42.96843" lon="1.92376">
        <ele>489</ele>
        <time>2016-11-01T11:12:25.008Z</time>
      </trkpt>
      <trkpt lat="42.9684" lon="1.92368">
        <ele>491</ele>
        <time>2016-11-01T11:12:27.008Z</time>
      </trkpt>
      <trkpt lat="42.96838" lon="1.92361">
        <ele>491</ele>
        <time>2016-11-01T11:12:29.008Z</time>
      </trkpt>
      <trkpt lat="42.96835" lon="1.92353">
        <ele>491.2179968</ele>
        <time>2016-11-01T11:12:31.008Z</time>
      </trkpt>
      <trkpt lat="42.96831" lon="1.92347">
        <ele>492</ele>
        <time>2016-11-01T11:12:33.008Z</time>
      </trkpt>
      <trkpt lat="42.96828" lon="1.9234">
        <ele>492</ele>
        <time>2016-11-01T11:12:35.008Z</time>
      </trkpt>
      <trkpt lat="42.96825" lon="1.92334">
        <ele>494</ele>
        <time>2016-11-01T11:12:37.008Z</time>
      </trkpt>
      <trkpt lat="42.9682" lon="1.92326">
        <ele>494</ele>
        <time>2016-11-01T11:12:40.008Z</time>
      </trkpt>
      <trkpt lat="42.96813" lon="1.92322">
        <ele>495</ele>
        <time>2016-11-01T11:12:43.008Z</time>
      </trkpt>
      <trkpt lat="42.96807" lon="1.92321">
        <ele>495</ele>
        <time>2016-11-01T11:12:45.008Z</time>
      </trkpt>
      <trkpt lat="42.968" lon="1.92323">
        <ele>496</ele>
        <time>2016-11-01T11:12:47.008Z</time>
      </trkpt>
      <trkpt lat="42.96793" lon="1.92325">
        <ele>496</ele>
        <time>2016-11-01T11:12:49.008Z</time>
      </trkpt>
      <trkpt lat="42.96787" lon="1.92327">
        <ele>496.2179968</ele>
        <time>2016-11-01T11:12:51.008Z</time>
      </trkpt>
      <trkpt lat="42.96781" lon="1.92329">
        <ele>497</ele>
        <time>2016-11-01T11:12:53.008Z</time>
      </trkpt>
      <trkpt lat="42.96774" lon="1.92331">
        <ele>497</ele>
        <time>2016-11-01T11:12:55.008Z</time>
      </trkpt>
      <trkpt lat="42.96765" lon="1.92334">
        <ele>497</ele>
        <time>2016-11-01T11:12:58.008Z</time>
      </trkpt>
      <trkpt lat="42.96756" lon="1.92335">
        <ele>497.8719872</ele>
        <time>2016-11-01T11:13:01.008Z</time>
      </trkpt>
      <trkpt lat="42.96747" lon="1.92337">
        <ele>501</ele>
        <time>2016-11-01T11:13:04.008Z</time>
      </trkpt>
      <trkpt lat="42.96738" lon="1.92338">
        <ele>501</ele>
        <time>2016-11-01T11:13:07.008Z</time>
      </trkpt>
      <trkpt lat="42.96729" lon="1.92339">
        <ele>501</ele>
        <time>2016-11-01T11:13:10.008Z</time>
      </trkpt>
      <trkpt lat="42.96721" lon="1.9234">
        <ele>503</ele>
        <time>2016-11-01T11:13:13.008Z</time>
      </trkpt>
      <trkpt lat="42.96712" lon="1.9234">
        <ele>503</ele>
        <time>2016-11-01T11:13:16.008Z</time>
      </trkpt>
      <trkpt lat="42.96706" lon="1.92341">
        <ele>503</ele>
        <time>2016-11-01T11:13:18.008Z</time>
      </trkpt>
      <trkpt lat="42.96701" lon="1.92342">
        <ele>503</ele>
        <time>2016-11-01T11:13:20.008Z</time>
      </trkpt>
      <trkpt lat="42.96695" lon="1.92345">
        <ele>505</ele>
        <time>2016-11-01T11:13:22.008Z</time>
      </trkpt>
      <trkpt lat="42.96686" lon="1.92348">
        <ele>505</ele>
        <time>2016-11-01T11:13:25.008Z</time>
      </trkpt>
      <trkpt lat="42.96677" lon="1.92345">
        <ele>507</ele>
        <time>2016-11-01T11:13:28.008Z</time>
      </trkpt>
      <trkpt lat="42.96672" lon="1.92337">
        <ele>507.4359936</ele>
        <time>2016-11-01T11:13:31.008Z</time>
      </trkpt>
      <trkpt lat="42.9667" lon="1.92331">
        <ele>509</ele>
        <time>2016-11-01T11:13:33.008Z</time>
      </trkpt>
      <trkpt lat="42.96669" lon="1.92323">
        <ele>509</ele>
        <time>2016-11-01T11:13:35.008Z</time>
      </trkpt>
      <trkpt lat="42.96669" lon="1.92316">
        <ele>510</ele>
        <time>2016-11-01T11:13:37.008Z</time>
      </trkpt>
      <trkpt lat="42.96669" lon="1.92308">
        <ele>510</ele>
        <time>2016-11-01T11:13:39.008Z</time>
      </trkpt>
      <trkpt lat="42.96667" lon="1.92302">
        <ele>510</ele>
        <time>2016-11-01T11:13:41.008Z</time>
      </trkpt>
      <trkpt lat="42.96659" lon="1.92299">
        <ele>510</ele>
        <time>2016-11-01T11:13:43.008Z</time>
      </trkpt>
      <trkpt lat="42.96654" lon="1.92299">
        <ele>510</ele>
        <time>2016-11-01T11:13:44.008Z</time>
      </trkpt>
      <trkpt lat="42.96648" lon="1.92299">
        <ele>510</ele>
        <time>2016-11-01T11:13:45.008Z</time>
      </trkpt>
      <trkpt lat="42.96643" lon="1.92299">
        <ele>510</ele>
        <time>2016-11-01T11:13:46.008Z</time>
      </trkpt>
      <trkpt lat="42.96638" lon="1.92298">
        <ele>510</ele>
        <time>2016-11-01T11:13:47.008Z</time>
      </trkpt>
      <trkpt lat="42.96627" lon="1.92297">
        <ele>510</ele>
        <time>2016-11-01T11:13:49.008Z</time>
      </trkpt>
      <trkpt lat="42.96622" lon="1.92296">
        <ele>510</ele>
        <time>2016-11-01T11:13:50.008Z</time>
      </trkpt>
      <trkpt lat="42.96616" lon="1.92295">
        <ele>509.5640064</ele>
        <time>2016-11-01T11:13:51.008Z</time>
      </trkpt>
      <trkpt lat="42.96611" lon="1.92294">
        <ele>508</ele>
        <time>2016-11-01T11:13:52.008Z</time>
      </trkpt>
      <trkpt lat="42.96606" lon="1.92294">
        <ele>508</ele>
        <time>2016-11-01T11:13:53.008Z</time>
      </trkpt>
      <trkpt lat="42.96601" lon="1.92294">
        <ele>508</ele>
        <time>2016-11-01T11:13:54.008Z</time>
      </trkpt>
      <trkpt lat="42.96597" lon="1.92295">
        <ele>508</ele>
        <time>2016-11-01T11:13:55.008Z</time>
      </trkpt>
      <trkpt lat="42.96593" lon="1.92298">
        <ele>507.7820032</ele>
        <time>2016-11-01T11:13:56.008Z</time>
      </trkpt>
      <trkpt lat="42.96591" lon="1.92302">
        <ele>507</ele>
        <time>2016-11-01T11:13:57.008Z</time>
      </trkpt>
      <trkpt lat="42.96586" lon="1.92312">
        <ele>507</ele>
        <time>2016-11-01T11:13:59.008Z</time>
      </trkpt>
      <trkpt lat="42.96582" lon="1.92321">
        <ele>507.2179968</ele>
        <time>2016-11-01T11:14:01.008Z</time>
      </trkpt>
      <trkpt lat="42.96579" lon="1.9233">
        <ele>508</ele>
        <time>2016-11-01T11:14:03.008Z</time>
      </trkpt>
      <trkpt lat="42.96575" lon="1.92338">
        <ele>508</ele>
        <time>2016-11-01T11:14:05.008Z</time>
      </trkpt>
      <trkpt lat="42.96571" lon="1.92346">
        <ele>508</ele>
        <time>2016-11-01T11:14:07.008Z</time>
      </trkpt>
      <trkpt lat="42.96566" lon="1.92352">
        <ele>508</ele>
        <time>2016-11-01T11:14:10.008Z</time>
      </trkpt>
      <trkpt lat="42.9656" lon="1.92357">
        <ele>509</ele>
        <time>2016-11-01T11:14:15.008Z</time>
      </trkpt>
      <trkpt lat="42.96553" lon="1.92358">
        <ele>509</ele>
        <time>2016-11-01T11:14:20.008Z</time>
      </trkpt>
      <trkpt lat="42.96547" lon="1.92356">
        <ele>510</ele>
        <time>2016-11-01T11:14:25.008Z</time>
      </trkpt>
      <trkpt lat="42.96541" lon="1.92355">
        <ele>510</ele>
        <time>2016-11-01T11:14:28.008Z</time>
      </trkpt>
      <trkpt lat="42.96535" lon="1.92357">
        <ele>510.6539904</ele>
        <time>2016-11-01T11:14:31.008Z</time>
      </trkpt>
      <trkpt lat="42.96529" lon="1.92364">
        <ele>513</ele>
        <time>2016-11-01T11:14:35.008Z</time>
      </trkpt>
      <trkpt lat="42.96524" lon="1.92373">
        <ele>514</ele>
        <time>2016-11-01T11:14:39.008Z</time>
      </trkpt>
      <trkpt lat="42.9652" lon="1.9238">
        <ele>515</ele>
        <time>2016-11-01T11:14:42.008Z</time>
      </trkpt>
      <trkpt lat="42.96515" lon="1.92387">
        <ele>515</ele>
        <time>2016-11-01T11:14:45.008Z</time>
      </trkpt>
      <trkpt lat="42.96509" lon="1.92394">
        <ele>515</ele>
        <time>2016-11-01T11:14:48.008Z</time>
      </trkpt>
      <trkpt lat="42.96501" lon="1.92398">
        <ele>515.4359936</ele>
        <time>2016-11-01T11:14:51.008Z</time>
      </trkpt>
      <trkpt lat="42.96495" lon="1.92399">
        <ele>517</ele>
        <time>2016-11-01T11:14:53.008Z</time>
      </trkpt>
      <trkpt lat="42.96489" lon="1.92399">
        <ele>517</ele>
        <time>2016-11-01T11:14:55.008Z</time>
      </trkpt>
      <trkpt lat="42.96484" lon="1.92398">
        <ele>517</ele>
        <time>2016-11-01T11:14:57.008Z</time>
      </trkpt>
      <trkpt lat="42.96479" lon="1.92396">
        <ele>517</ele>
        <time>2016-11-01T11:14:59.008Z</time>
      </trkpt>
      <trkpt lat="42.96474" lon="1.92394">
        <ele>517.6539904</ele>
        <time>2016-11-01T11:15:01.008Z</time>
      </trkpt>
      <trkpt lat="42.96469" lon="1.92391">
        <ele>520</ele>
        <time>2016-11-01T11:15:03.008Z</time>
      </trkpt>
      <trkpt lat="42.96465" lon="1.92388">
        <ele>520</ele>
        <time>2016-11-01T11:15:05.008Z</time>
      </trkpt>
      <trkpt lat="42.9646" lon="1.92385">
        <ele>521</ele>
        <time>2016-11-01T11:15:07.008Z</time>
      </trkpt>
      <trkpt lat="42.96456" lon="1.92382">
        <ele>521</ele>
        <time>2016-11-01T11:15:09.008Z</time>
      </trkpt>
      <trkpt lat="42.96451" lon="1.9238">
        <ele>521.4359936</ele>
        <time>2016-11-01T11:15:11.008Z</time>
      </trkpt>
      <trkpt lat="42.96446" lon="1.92379">
        <ele>523</ele>
        <time>2016-11-01T11:15:13.008Z</time>
      </trkpt>
      <trkpt lat="42.96441" lon="1.92378">
        <ele>523</ele>
        <time>2016-11-01T11:15:15.008Z</time>
      </trkpt>
      <trkpt lat="42.96436" lon="1.92379">
        <ele>525</ele>
        <time>2016-11-01T11:15:17.008Z</time>
      </trkpt>
      <trkpt lat="42.96432" lon="1.92381">
        <ele>525</ele>
        <time>2016-11-01T11:15:19.008Z</time>
      </trkpt>
      <trkpt lat="42.96427" lon="1.92383">
        <ele>525.2179968</ele>
        <time>2016-11-01T11:15:21.008Z</time>
      </trkpt>
      <trkpt lat="42.96422" lon="1.92386">
        <ele>526</ele>
        <time>2016-11-01T11:15:23.008Z</time>
      </trkpt>
      <trkpt lat="42.96417" lon="1.92387">
        <ele>526</ele>
        <time>2016-11-01T11:15:25.008Z</time>
      </trkpt>
      <trkpt lat="42.96412" lon="1.9239">
        <ele>526</ele>
        <time>2016-11-01T11:15:27.008Z</time>
      </trkpt>
      <trkpt lat="42.96407" lon="1.92394">
        <ele>526</ele>
        <time>2016-11-01T11:15:29.008Z</time>
      </trkpt>
      <trkpt lat="42.96402" lon="1.92398">
        <ele>526.2179968</ele>
        <time>2016-11-01T11:15:31.008Z</time>
      </trkpt>
      <trkpt lat="42.96397" lon="1.92403">
        <ele>527</ele>
        <time>2016-11-01T11:15:33.008Z</time>
      </trkpt>
      <trkpt lat="42.96392" lon="1.92407">
        <ele>527</ele>
        <time>2016-11-01T11:15:35.008Z</time>
      </trkpt>
      <trkpt lat="42.96387" lon="1.92411">
        <ele>527</ele>
        <time>2016-11-01T11:15:37.008Z</time>
      </trkpt>
      <trkpt lat="42.96381" lon="1.92415">
        <ele>527</ele>
        <time>2016-11-01T11:15:39.008Z</time>
      </trkpt>
      <trkpt lat="42.96377" lon="1.92419">
        <ele>527.2179968</ele>
        <time>2016-11-01T11:15:41.008Z</time>
      </trkpt>
      <trkpt lat="42.96373" lon="1.92428">
        <ele>528</ele>
        <time>2016-11-01T11:15:44.008Z</time>
      </trkpt>
      <trkpt lat="42.96374" lon="1.92436">
        <ele>528</ele>
        <time>2016-11-01T11:15:46.008Z</time>
      </trkpt>
      <trkpt lat="42.96376" lon="1.92445">
        <ele>528</ele>
        <time>2016-11-01T11:15:48.008Z</time>
      </trkpt>
      <trkpt lat="42.96377" lon="1.92453">
        <ele>528</ele>
        <time>2016-11-01T11:15:50.008Z</time>
      </trkpt>
      <trkpt lat="42.96379" lon="1.92463">
        <ele>528</ele>
        <time>2016-11-01T11:15:52.008Z</time>
      </trkpt>
      <trkpt lat="42.96381" lon="1.92473">
        <ele>528</ele>
        <time>2016-11-01T11:15:54.008Z</time>
      </trkpt>
      <trkpt lat="42.96383" lon="1.92483">
        <ele>527</ele>
        <time>2016-11-01T11:15:56.008Z</time>
      </trkpt>
      <trkpt lat="42.96384" lon="1.92494">
        <ele>527</ele>
        <time>2016-11-01T11:15:58.008Z</time>
      </trkpt>
      <trkpt lat="42.96385" lon="1.92504">
        <ele>527</ele>
        <time>2016-11-01T11:16:00.008Z</time>
      </trkpt>
      <trkpt lat="42.96385" lon="1.92515">
        <ele>526</ele>
        <time>2016-11-01T11:16:02.008Z</time>
      </trkpt>
      <trkpt lat="42.96384" lon="1.92525">
        <ele>526</ele>
        <time>2016-11-01T11:16:04.008Z</time>
      </trkpt>
      <trkpt lat="42.96382" lon="1.92536">
        <ele>526</ele>
        <time>2016-11-01T11:16:06.008Z</time>
      </trkpt>
      <trkpt lat="42.96379" lon="1.92545">
        <ele>526</ele>
        <time>2016-11-01T11:16:08.008Z</time>
      </trkpt>
      <trkpt lat="42.96375" lon="1.92555">
        <ele>526</ele>
        <time>2016-11-01T11:16:10.008Z</time>
      </trkpt>
      <trkpt lat="42.96372" lon="1.92566">
        <ele>526</ele>
        <time>2016-11-01T11:16:12.008Z</time>
      </trkpt>
      <trkpt lat="42.96369" lon="1.92576">
        <ele>526</ele>
        <time>2016-11-01T11:16:14.008Z</time>
      </trkpt>
      <trkpt lat="42.96367" lon="1.92582">
        <ele>526</ele>
        <time>2016-11-01T11:16:15.008Z</time>
      </trkpt>
      <trkpt lat="42.96363" lon="1.92593">
        <ele>526</ele>
        <time>2016-11-01T11:16:17.008Z</time>
      </trkpt>
      <trkpt lat="42.96359" lon="1.92604">
        <ele>526</ele>
        <time>2016-11-01T11:16:19.008Z</time>
      </trkpt>
      <trkpt lat="42.96356" lon="1.92614">
        <ele>526.2179968</ele>
        <time>2016-11-01T11:16:21.008Z</time>
      </trkpt>
      <trkpt lat="42.96351" lon="1.92625">
        <ele>527</ele>
        <time>2016-11-01T11:16:23.008Z</time>
      </trkpt>
      <trkpt lat="42.96347" lon="1.92635">
        <ele>527</ele>
        <time>2016-11-01T11:16:25.008Z</time>
      </trkpt>
      <trkpt lat="42.96341" lon="1.92645">
        <ele>527</ele>
        <time>2016-11-01T11:16:27.008Z</time>
      </trkpt>
      <trkpt lat="42.96337" lon="1.92654">
        <ele>527</ele>
        <time>2016-11-01T11:16:29.008Z</time>
      </trkpt>
      <trkpt lat="42.96335" lon="1.92664">
        <ele>527</ele>
        <time>2016-11-01T11:16:31.008Z</time>
      </trkpt>
      <trkpt lat="42.96332" lon="1.92673">
        <ele>527</ele>
        <time>2016-11-01T11:16:33.008Z</time>
      </trkpt>
      <trkpt lat="42.96329" lon="1.92682">
        <ele>527</ele>
        <time>2016-11-01T11:16:35.008Z</time>
      </trkpt>
      <trkpt lat="42.96325" lon="1.92691">
        <ele>527</ele>
        <time>2016-11-01T11:16:37.008Z</time>
      </trkpt>
      <trkpt lat="42.96321" lon="1.92701">
        <ele>527</ele>
        <time>2016-11-01T11:16:39.008Z</time>
      </trkpt>
      <trkpt lat="42.96317" lon="1.9271">
        <ele>527.4359936</ele>
        <time>2016-11-01T11:16:41.008Z</time>
      </trkpt>
      <trkpt lat="42.96315" lon="1.92715">
        <ele>529</ele>
        <time>2016-11-01T11:16:42.008Z</time>
      </trkpt>
      <trkpt lat="42.96313" lon="1.92719">
        <ele>529</ele>
        <time>2016-11-01T11:16:43.008Z</time>
      </trkpt>
      <trkpt lat="42.96312" lon="1.92724">
        <ele>529</ele>
        <time>2016-11-01T11:16:44.008Z</time>
      </trkpt>
      <trkpt lat="42.96309" lon="1.92733">
        <ele>529</ele>
        <time>2016-11-01T11:16:46.008Z</time>
      </trkpt>
      <trkpt lat="42.96306" lon="1.92742">
        <ele>529</ele>
        <time>2016-11-01T11:16:48.008Z</time>
      </trkpt>
      <trkpt lat="42.96304" lon="1.92747">
        <ele>529</ele>
        <time>2016-11-01T11:16:49.008Z</time>
      </trkpt>
      <trkpt lat="42.96303" lon="1.92752">
        <ele>529</ele>
        <time>2016-11-01T11:16:50.008Z</time>
      </trkpt>
      <trkpt lat="42.96299" lon="1.92762">
        <ele>529</ele>
        <time>2016-11-01T11:16:52.008Z</time>
      </trkpt>
      <trkpt lat="42.96295" lon="1.92773">
        <ele>529</ele>
        <time>2016-11-01T11:16:54.008Z</time>
      </trkpt>
      <trkpt lat="42.96294" lon="1.92778">
        <ele>529</ele>
        <time>2016-11-01T11:16:55.008Z</time>
      </trkpt>
      <trkpt lat="42.96292" lon="1.92783">
        <ele>529</ele>
        <time>2016-11-01T11:16:56.008Z</time>
      </trkpt>
      <trkpt lat="42.9629" lon="1.92788">
        <ele>529</ele>
        <time>2016-11-01T11:16:57.008Z</time>
      </trkpt>
      <trkpt lat="42.96287" lon="1.92794">
        <ele>529</ele>
        <time>2016-11-01T11:16:58.008Z</time>
      </trkpt>
      <trkpt lat="42.96285" lon="1.92799">
        <ele>529</ele>
        <time>2016-11-01T11:16:59.008Z</time>
      </trkpt>
      <trkpt lat="42.96283" lon="1.92804">
        <ele>529</ele>
        <time>2016-11-01T11:17:00.008Z</time>
      </trkpt>
      <trkpt lat="42.96278" lon="1.92815">
        <ele>529</ele>
        <time>2016-11-01T11:17:02.008Z</time>
      </trkpt>
      <trkpt lat="42.96273" lon="1.92825">
        <ele>529</ele>
        <time>2016-11-01T11:17:04.008Z</time>
      </trkpt>
      <trkpt lat="42.96267" lon="1.92836">
        <ele>529</ele>
        <time>2016-11-01T11:17:06.008Z</time>
      </trkpt>
      <trkpt lat="42.96265" lon="1.92841">
        <ele>529</ele>
        <time>2016-11-01T11:17:07.008Z</time>
      </trkpt>
      <trkpt lat="42.96262" lon="1.92846">
        <ele>529</ele>
        <time>2016-11-01T11:17:08.008Z</time>
      </trkpt>
      <trkpt lat="42.96259" lon="1.92851">
        <ele>529</ele>
        <time>2016-11-01T11:17:09.008Z</time>
      </trkpt>
      <trkpt lat="42.96256" lon="1.92856">
        <ele>529</ele>
        <time>2016-11-01T11:17:10.008Z</time>
      </trkpt>
      <trkpt lat="42.96253" lon="1.92862">
        <ele>529</ele>
        <time>2016-11-01T11:17:11.008Z</time>
      </trkpt>
      <trkpt lat="42.9625" lon="1.92868">
        <ele>529</ele>
        <time>2016-11-01T11:17:12.008Z</time>
      </trkpt>
      <trkpt lat="42.96245" lon="1.92879">
        <ele>529</ele>
        <time>2016-11-01T11:17:14.008Z</time>
      </trkpt>
      <trkpt lat="42.9624" lon="1.9289">
        <ele>529</ele>
        <time>2016-11-01T11:17:16.008Z</time>
      </trkpt>
      <trkpt lat="42.96237" lon="1.92895">
        <ele>529</ele>
        <time>2016-11-01T11:17:17.008Z</time>
      </trkpt>
      <trkpt lat="42.96235" lon="1.92901">
        <ele>529</ele>
        <time>2016-11-01T11:17:18.008Z</time>
      </trkpt>
      <trkpt lat="42.96233" lon="1.92907">
        <ele>529</ele>
        <time>2016-11-01T11:17:19.008Z</time>
      </trkpt>
      <trkpt lat="42.96231" lon="1.92912">
        <ele>529</ele>
        <time>2016-11-01T11:17:20.008Z</time>
      </trkpt>
      <trkpt lat="42.96226" lon="1.92923">
        <ele>529</ele>
        <time>2016-11-01T11:17:22.008Z</time>
      </trkpt>
      <trkpt lat="42.96222" lon="1.92934">
        <ele>529</ele>
        <time>2016-11-01T11:17:24.008Z</time>
      </trkpt>
      <trkpt lat="42.96219" lon="1.92939">
        <ele>529</ele>
        <time>2016-11-01T11:17:25.008Z</time>
      </trkpt>
      <trkpt lat="42.96214" lon="1.92948">
        <ele>529</ele>
        <time>2016-11-01T11:17:27.008Z</time>
      </trkpt>
      <trkpt lat="42.96209" lon="1.92958">
        <ele>529</ele>
        <time>2016-11-01T11:17:29.008Z</time>
      </trkpt>
      <trkpt lat="42.96206" lon="1.92963">
        <ele>529</ele>
        <time>2016-11-01T11:17:30.008Z</time>
      </trkpt>
      <trkpt lat="42.96203" lon="1.92968">
        <ele>529.2179968</ele>
        <time>2016-11-01T11:17:31.008Z</time>
      </trkpt>
      <trkpt lat="42.962" lon="1.92973">
        <ele>530</ele>
        <time>2016-11-01T11:17:32.008Z</time>
      </trkpt>
      <trkpt lat="42.96197" lon="1.92978">
        <ele>530</ele>
        <time>2016-11-01T11:17:33.008Z</time>
      </trkpt>
      <trkpt lat="42.96191" lon="1.92988">
        <ele>530</ele>
        <time>2016-11-01T11:17:35.008Z</time>
      </trkpt>
      <trkpt lat="42.96186" lon="1.92997">
        <ele>530</ele>
        <time>2016-11-01T11:17:37.008Z</time>
      </trkpt>
      <trkpt lat="42.96179" lon="1.93004">
        <ele>530</ele>
        <time>2016-11-01T11:17:39.008Z</time>
      </trkpt>
      <trkpt lat="42.96173" lon="1.93012">
        <ele>530</ele>
        <time>2016-11-01T11:17:41.008Z</time>
      </trkpt>
      <trkpt lat="42.9617" lon="1.93015">
        <ele>530</ele>
        <time>2016-11-01T11:17:42.008Z</time>
      </trkpt>
      <trkpt lat="42.96168" lon="1.93018">
        <ele>530</ele>
        <time>2016-11-01T11:17:43.008Z</time>
      </trkpt>
      <trkpt lat="42.96165" lon="1.93021">
        <ele>530</ele>
        <time>2016-11-01T11:17:44.008Z</time>
      </trkpt>
      <trkpt lat="42.96159" lon="1.93028">
        <ele>530</ele>
        <time>2016-11-01T11:17:46.008Z</time>
      </trkpt>
      <trkpt lat="42.96154" lon="1.93035">
        <ele>530</ele>
        <time>2016-11-01T11:17:48.008Z</time>
      </trkpt>
      <trkpt lat="42.96152" lon="1.9304">
        <ele>530</ele>
        <time>2016-11-01T11:17:49.008Z</time>
      </trkpt>
      <trkpt lat="42.9615" lon="1.93044">
        <ele>530</ele>
        <time>2016-11-01T11:17:50.008Z</time>
      </trkpt>
      <trkpt lat="42.96148" lon="1.93049">
        <ele>530.2179968</ele>
        <time>2016-11-01T11:17:51.008Z</time>
      </trkpt>
      <trkpt lat="42.96146" lon="1.93054">
        <ele>531</ele>
        <time>2016-11-01T11:17:52.008Z</time>
      </trkpt>
      <trkpt lat="42.96143" lon="1.93059">
        <ele>531</ele>
        <time>2016-11-01T11:17:53.008Z</time>
      </trkpt>
      <trkpt lat="42.96141" lon="1.93064">
        <ele>531</ele>
        <time>2016-11-01T11:17:54.008Z</time>
      </trkpt>
      <trkpt lat="42.9614" lon="1.9307">
        <ele>531</ele>
        <time>2016-11-01T11:17:55.008Z</time>
      </trkpt>
      <trkpt lat="42.96139" lon="1.93076">
        <ele>531</ele>
        <time>2016-11-01T11:17:56.008Z</time>
      </trkpt>
      <trkpt lat="42.96138" lon="1.93082">
        <ele>531</ele>
        <time>2016-11-01T11:17:57.008Z</time>
      </trkpt>
      <trkpt lat="42.96138" lon="1.93089">
        <ele>531</ele>
        <time>2016-11-01T11:17:58.008Z</time>
      </trkpt>
      <trkpt lat="42.96139" lon="1.93097">
        <ele>531</ele>
        <time>2016-11-01T11:17:59.008Z</time>
      </trkpt>
      <trkpt lat="42.96138" lon="1.93106">
        <ele>531</ele>
        <time>2016-11-01T11:18:00.008Z</time>
      </trkpt>
      <trkpt lat="42.96138" lon="1.93114">
        <ele>530.3460096</ele>
        <time>2016-11-01T11:18:01.008Z</time>
      </trkpt>
      <trkpt lat="42.96136" lon="1.93122">
        <ele>528</ele>
        <time>2016-11-01T11:18:02.008Z</time>
      </trkpt>
      <trkpt lat="42.96135" lon="1.93131">
        <ele>528</ele>
        <time>2016-11-01T11:18:03.008Z</time>
      </trkpt>
      <trkpt lat="42.96132" lon="1.93139">
        <ele>528</ele>
        <time>2016-11-01T11:18:04.008Z</time>
      </trkpt>
      <trkpt lat="42.9613" lon="1.93147">
        <ele>528</ele>
        <time>2016-11-01T11:18:05.008Z</time>
      </trkpt>
      <trkpt lat="42.96127" lon="1.93155">
        <ele>528</ele>
        <time>2016-11-01T11:18:06.008Z</time>
      </trkpt>
      <trkpt lat="42.96123" lon="1.93163">
        <ele>528</ele>
        <time>2016-11-01T11:18:07.008Z</time>
      </trkpt>
      <trkpt lat="42.9612" lon="1.9317">
        <ele>528</ele>
        <time>2016-11-01T11:18:08.008Z</time>
      </trkpt>
      <trkpt lat="42.96117" lon="1.93177">
        <ele>528</ele>
        <time>2016-11-01T11:18:09.008Z</time>
      </trkpt>
      <trkpt lat="42.96113" lon="1.93183">
        <ele>528</ele>
        <time>2016-11-01T11:18:10.008Z</time>
      </trkpt>
      <trkpt lat="42.96108" lon="1.93187">
        <ele>527.7820032</ele>
        <time>2016-11-01T11:18:11.008Z</time>
      </trkpt>
      <trkpt lat="42.96103" lon="1.93189">
        <ele>527</ele>
        <time>2016-11-01T11:18:12.008Z</time>
      </trkpt>
      <trkpt lat="42.96097" lon="1.93188">
        <ele>527</ele>
        <time>2016-11-01T11:18:13.008Z</time>
      </trkpt>
      <trkpt lat="42.96093" lon="1.93187">
        <ele>527</ele>
        <time>2016-11-01T11:18:14.008Z</time>
      </trkpt>
      <trkpt lat="42.96088" lon="1.93185">
        <ele>527</ele>
        <time>2016-11-01T11:18:15.008Z</time>
      </trkpt>
      <trkpt lat="42.9608" lon="1.93186">
        <ele>527</ele>
        <time>2016-11-01T11:18:17.008Z</time>
      </trkpt>
      <trkpt lat="42.96075" lon="1.93193">
        <ele>527</ele>
        <time>2016-11-01T11:18:19.008Z</time>
      </trkpt>
      <trkpt lat="42.96071" lon="1.93203">
        <ele>526.7820032</ele>
        <time>2016-11-01T11:18:21.008Z</time>
      </trkpt>
      <trkpt lat="42.96069" lon="1.93209">
        <ele>526</ele>
        <time>2016-11-01T11:18:22.008Z</time>
      </trkpt>
      <trkpt lat="42.96066" lon="1.93216">
        <ele>526</ele>
        <time>2016-11-01T11:18:23.008Z</time>
      </trkpt>
      <trkpt lat="42.96063" lon="1.93223">
        <ele>526</ele>
        <time>2016-11-01T11:18:24.008Z</time>
      </trkpt>
      <trkpt lat="42.96061" lon="1.93231">
        <ele>526</ele>
        <time>2016-11-01T11:18:25.008Z</time>
      </trkpt>
      <trkpt lat="42.96059" lon="1.93239">
        <ele>526</ele>
        <time>2016-11-01T11:18:26.008Z</time>
      </trkpt>
      <trkpt lat="42.96059" lon="1.93248">
        <ele>526</ele>
        <time>2016-11-01T11:18:27.008Z</time>
      </trkpt>
      <trkpt lat="42.96065" lon="1.93263">
        <ele>526</ele>
        <time>2016-11-01T11:18:29.008Z</time>
      </trkpt>
      <trkpt lat="42.96072" lon="1.93273">
        <ele>524.4740224</ele>
        <time>2016-11-01T11:18:31.008Z</time>
      </trkpt>
      <trkpt lat="42.96072" lon="1.93283">
        <ele>515.2179968</ele>
        <time>2016-11-01T11:18:33.008Z</time>
      </trkpt>
      <trkpt lat="42.96067" lon="1.9329">
        <ele>516</ele>
        <time>2016-11-01T11:18:34.008Z</time>
      </trkpt>
      <trkpt lat="42.96063" lon="1.93299">
        <ele>515.5640064</ele>
        <time>2016-11-01T11:18:35.008Z</time>
      </trkpt>
      <trkpt lat="42.96059" lon="1.93308">
        <ele>513.7820032</ele>
        <time>2016-11-01T11:18:36.008Z</time>
      </trkpt>
      <trkpt lat="42.96055" lon="1.93318">
        <ele>513</ele>
        <time>2016-11-01T11:18:37.008Z</time>
      </trkpt>
      <trkpt lat="42.96048" lon="1.93339">
        <ele>513</ele>
        <time>2016-11-01T11:18:39.008Z</time>
      </trkpt>
      <trkpt lat="42.96042" lon="1.93361">
        <ele>512</ele>
        <time>2016-11-01T11:18:41.008Z</time>
      </trkpt>
      <trkpt lat="42.96039" lon="1.93372">
        <ele>511.5640064</ele>
        <time>2016-11-01T11:18:42.008Z</time>
      </trkpt>
      <trkpt lat="42.96036" lon="1.93381">
        <ele>510</ele>
        <time>2016-11-01T11:18:43.008Z</time>
      </trkpt>
      <trkpt lat="42.96026" lon="1.93397">
        <ele>510</ele>
        <time>2016-11-01T11:18:45.008Z</time>
      </trkpt>
      <trkpt lat="42.96015" lon="1.93412">
        <ele>507.5640064</ele>
        <time>2016-11-01T11:18:47.008Z</time>
      </trkpt>
      <trkpt lat="42.96009" lon="1.9342">
        <ele>505.7820032</ele>
        <time>2016-11-01T11:18:48.008Z</time>
      </trkpt>
      <trkpt lat="42.96002" lon="1.93427">
        <ele>504.7820032</ele>
        <time>2016-11-01T11:18:49.008Z</time>
      </trkpt>
      <trkpt lat="42.95985" lon="1.93441">
        <ele>501.7820032</ele>
        <time>2016-11-01T11:18:51.008Z</time>
      </trkpt>
      <trkpt lat="42.95977" lon="1.93449">
        <ele>501</ele>
        <time>2016-11-01T11:18:52.008Z</time>
      </trkpt>
      <trkpt lat="42.95968" lon="1.93456">
        <ele>500.78416090031</ele>
        <time>2016-11-01T11:18:53.008Z</time>
      </trkpt>
      <trkpt lat="42.9596" lon="1.93463">
        <ele>500</ele>
        <time>2016-11-01T11:18:54.008Z</time>
      </trkpt>
      <trkpt lat="42.95952" lon="1.93469">
        <ele>500</ele>
        <time>2016-11-01T11:18:55.008Z</time>
      </trkpt>
      <trkpt lat="42.95945" lon="1.93476">
        <ele>499.5640064</ele>
        <time>2016-11-01T11:18:56.008Z</time>
      </trkpt>
      <trkpt lat="42.95937" lon="1.93492">
        <ele>499.2179968</ele>
        <time>2016-11-01T11:18:58.008Z</time>
      </trkpt>
      <trkpt lat="42.95933" lon="1.93511">
        <ele>498.7820032</ele>
        <time>2016-11-01T11:19:00.008Z</time>
      </trkpt>
      <trkpt lat="42.95932" lon="1.93531">
        <ele>499</ele>
        <time>2016-11-01T11:19:02.008Z</time>
      </trkpt>
      <trkpt lat="42.9593" lon="1.9355">
        <ele>499</ele>
        <time>2016-11-01T11:19:04.008Z</time>
      </trkpt>
      <trkpt lat="42.95928" lon="1.93568">
        <ele>499</ele>
        <time>2016-11-01T11:19:06.008Z</time>
      </trkpt>
      <trkpt lat="42.95927" lon="1.93577">
        <ele>499</ele>
        <time>2016-11-01T11:19:07.008Z</time>
      </trkpt>
      <trkpt lat="42.95926" lon="1.93587">
        <ele>499</ele>
        <time>2016-11-01T11:19:08.008Z</time>
      </trkpt>
      <trkpt lat="42.95925" lon="1.93596">
        <ele>499</ele>
        <time>2016-11-01T11:19:09.008Z</time>
      </trkpt>
      <trkpt lat="42.95925" lon="1.93605">
        <ele>499</ele>
        <time>2016-11-01T11:19:10.008Z</time>
      </trkpt>
      <trkpt lat="42.95924" lon="1.93614">
        <ele>498.3460096</ele>
        <time>2016-11-01T11:19:11.008Z</time>
      </trkpt>
      <trkpt lat="42.95923" lon="1.93624">
        <ele>496</ele>
        <time>2016-11-01T11:19:12.008Z</time>
      </trkpt>
      <trkpt lat="42.95921" lon="1.93644">
        <ele>496</ele>
        <time>2016-11-01T11:19:14.008Z</time>
      </trkpt>
      <trkpt lat="42.9592" lon="1.93662">
        <ele>495.5640064</ele>
        <time>2016-11-01T11:19:16.008Z</time>
      </trkpt>
      <trkpt lat="42.9592" lon="1.9368">
        <ele>494</ele>
        <time>2016-11-01T11:19:18.008Z</time>
      </trkpt>
      <trkpt lat="42.9592" lon="1.93697">
        <ele>494</ele>
        <time>2016-11-01T11:19:20.008Z</time>
      </trkpt>
      <trkpt lat="42.95922" lon="1.93717">
        <ele>490.78989966901</ele>
        <time>2016-11-01T11:19:22.008Z</time>
      </trkpt>
      <trkpt lat="42.9592" lon="1.93739">
        <ele>488.7820032</ele>
        <time>2016-11-01T11:19:24.008Z</time>
      </trkpt>
      <trkpt lat="42.95921" lon="1.9376">
        <ele>488</ele>
        <time>2016-11-01T11:19:26.008Z</time>
      </trkpt>
      <trkpt lat="42.95922" lon="1.93782">
        <ele>486.5640064</ele>
        <time>2016-11-01T11:19:28.008Z</time>
      </trkpt>
      <trkpt lat="42.95922" lon="1.93793">
        <ele>484.7820032</ele>
        <time>2016-11-01T11:19:29.008Z</time>
      </trkpt>
      <trkpt lat="42.95923" lon="1.93814">
        <ele>484</ele>
        <time>2016-11-01T11:19:31.008Z</time>
      </trkpt>
      <trkpt lat="42.95923" lon="1.93826">
        <ele>484</ele>
        <time>2016-11-01T11:19:32.008Z</time>
      </trkpt>
      <trkpt lat="42.95922" lon="1.93838">
        <ele>483.7820032</ele>
        <time>2016-11-01T11:19:33.008Z</time>
      </trkpt>
      <trkpt lat="42.95921" lon="1.93849">
        <ele>482.5640064</ele>
        <time>2016-11-01T11:19:34.008Z</time>
      </trkpt>
      <trkpt lat="42.95921" lon="1.9386">
        <ele>481</ele>
        <time>2016-11-01T11:19:35.008Z</time>
      </trkpt>
      <trkpt lat="42.95921" lon="1.93871">
        <ele>481</ele>
        <time>2016-11-01T11:19:36.008Z</time>
      </trkpt>
      <trkpt lat="42.95921" lon="1.93881">
        <ele>480.7820032</ele>
        <time>2016-11-01T11:19:37.008Z</time>
      </trkpt>
      <trkpt lat="42.95922" lon="1.93897">
        <ele>479.7820032</ele>
        <time>2016-11-01T11:19:39.008Z</time>
      </trkpt>
      <trkpt lat="42.95922" lon="1.93908">
        <ele>480</ele>
        <time>2016-11-01T11:19:42.008Z</time>
      </trkpt>
      <trkpt lat="42.9593" lon="1.93909">
        <ele>478</ele>
        <time>2016-11-01T11:19:57.008Z</time>
      </trkpt>
      <trkpt lat="42.95935" lon="1.93923">
        <ele>478</ele>
        <time>2016-11-01T11:20:00.008Z</time>
      </trkpt>
      <trkpt lat="42.9594" lon="1.93935">
        <ele>476</ele>
        <time>2016-11-01T11:20:02.008Z</time>
      </trkpt>
      <trkpt lat="42.95953" lon="1.93942">
        <ele>476</ele>
        <time>2016-11-01T11:20:04.008Z</time>
      </trkpt>
      <trkpt lat="42.95967" lon="1.9395">
        <ele>475.5640064</ele>
        <time>2016-11-01T11:20:06.008Z</time>
      </trkpt>
      <trkpt lat="42.95973" lon="1.93955">
        <ele>474</ele>
        <time>2016-11-01T11:20:07.008Z</time>
      </trkpt>
      <trkpt lat="42.95978" lon="1.93961">
        <ele>474</ele>
        <time>2016-11-01T11:20:08.008Z</time>
      </trkpt>
      <trkpt lat="42.95983" lon="1.93967">
        <ele>474</ele>
        <time>2016-11-01T11:20:09.008Z</time>
      </trkpt>
      <trkpt lat="42.95988" lon="1.93972">
        <ele>474</ele>
        <time>2016-11-01T11:20:10.008Z</time>
      </trkpt>
      <trkpt lat="42.95996" lon="1.9398">
        <ele>475</ele>
        <time>2016-11-01T11:20:12.008Z</time>
      </trkpt>
      <trkpt lat="42.96003" lon="1.93985">
        <ele>475</ele>
        <time>2016-11-01T11:20:14.008Z</time>
      </trkpt>
      <trkpt lat="42.9601" lon="1.93988">
        <ele>475</ele>
        <time>2016-11-01T11:20:16.008Z</time>
      </trkpt>
      <trkpt lat="42.96016" lon="1.9399">
        <ele>475</ele>
        <time>2016-11-01T11:20:18.008Z</time>
      </trkpt>
      <trkpt lat="42.96021" lon="1.93992">
        <ele>475</ele>
        <time>2016-11-01T11:20:20.008Z</time>
      </trkpt>
      <trkpt lat="42.96026" lon="1.93994">
        <ele>478</ele>
        <time>2016-11-01T11:20:22.008Z</time>
      </trkpt>
      <trkpt lat="42.96032" lon="1.94">
        <ele>478</ele>
        <time>2016-11-01T11:20:25.008Z</time>
      </trkpt>
      <trkpt lat="42.96038" lon="1.94007">
        <ele>481</ele>
        <time>2016-11-01T11:20:28.008Z</time>
      </trkpt>
      <trkpt lat="42.96042" lon="1.94014">
        <ele>481.4359936</ele>
        <time>2016-11-01T11:20:31.008Z</time>
      </trkpt>
      <trkpt lat="42.9605" lon="1.94014">
        <ele>483</ele>
        <time>2016-11-01T11:20:35.008Z</time>
      </trkpt>
      <trkpt lat="42.96058" lon="1.9401">
        <ele>485</ele>
        <time>2016-11-01T11:20:38.008Z</time>
      </trkpt>
      <trkpt lat="42.96062" lon="1.94005">
        <ele>485</ele>
        <time>2016-11-01T11:20:40.008Z</time>
      </trkpt>
      <trkpt lat="42.96068" lon="1.94">
        <ele>485</ele>
        <time>2016-11-01T11:20:42.008Z</time>
      </trkpt>
      <trkpt lat="42.96075" lon="1.93998">
        <ele>485</ele>
        <time>2016-11-01T11:20:44.008Z</time>
      </trkpt>
      <trkpt lat="42.96079" lon="1.93997">
        <ele>485</ele>
        <time>2016-11-01T11:20:45.008Z</time>
      </trkpt>
      <trkpt lat="42.96083" lon="1.93997">
        <ele>485</ele>
        <time>2016-11-01T11:20:46.008Z</time>
      </trkpt>
      <trkpt lat="42.96088" lon="1.93998">
        <ele>484.7820032</ele>
        <time>2016-11-01T11:20:47.008Z</time>
      </trkpt>
      <trkpt lat="42.96092" lon="1.93999">
        <ele>484</ele>
        <time>2016-11-01T11:20:48.008Z</time>
      </trkpt>
      <trkpt lat="42.96096" lon="1.94">
        <ele>484</ele>
        <time>2016-11-01T11:20:49.008Z</time>
      </trkpt>
      <trkpt lat="42.96104" lon="1.94002">
        <ele>483.5640064</ele>
        <time>2016-11-01T11:20:51.008Z</time>
      </trkpt>
      <trkpt lat="42.96111" lon="1.94003">
        <ele>482</ele>
        <time>2016-11-01T11:20:53.008Z</time>
      </trkpt>
      <trkpt lat="42.96118" lon="1.94006">
        <ele>482</ele>
        <time>2016-11-01T11:20:55.008Z</time>
      </trkpt>
      <trkpt lat="42.96126" lon="1.94009">
        <ele>482</ele>
        <time>2016-11-01T11:20:57.008Z</time>
      </trkpt>
      <trkpt lat="42.96133" lon="1.94012">
        <ele>482</ele>
        <time>2016-11-01T11:20:59.008Z</time>
      </trkpt>
      <trkpt lat="42.9614" lon="1.94016">
        <ele>482.2179968</ele>
        <time>2016-11-01T11:21:01.008Z</time>
      </trkpt>
      <trkpt lat="42.96149" lon="1.94022">
        <ele>483</ele>
        <time>2016-11-01T11:21:04.008Z</time>
      </trkpt>
      <trkpt lat="42.96156" lon="1.94027">
        <ele>483</ele>
        <time>2016-11-01T11:21:07.008Z</time>
      </trkpt>
      <trkpt lat="42.96163" lon="1.94032">
        <ele>483</ele>
        <time>2016-11-01T11:21:10.008Z</time>
      </trkpt>
      <trkpt lat="42.96171" lon="1.94039">
        <ele>486</ele>
        <time>2016-11-01T11:21:14.008Z</time>
      </trkpt>
      <trkpt lat="42.96171" lon="1.94049">
        <ele>489</ele>
        <time>2016-11-01T11:21:19.008Z</time>
      </trkpt>
      <trkpt lat="42.96167" lon="1.94058">
        <ele>489</ele>
        <time>2016-11-01T11:21:23.008Z</time>
      </trkpt>
      <trkpt lat="42.96165" lon="1.94067">
        <ele>489</ele>
        <time>2016-11-01T11:21:26.008Z</time>
      </trkpt>
      <trkpt lat="42.96162" lon="1.94082">
        <ele>489</ele>
        <time>2016-11-01T11:21:30.008Z</time>
      </trkpt>
      <trkpt lat="42.96159" lon="1.94095">
        <ele>490</ele>
        <time>2016-11-01T11:21:33.008Z</time>
      </trkpt>
      <trkpt lat="42.96156" lon="1.94108">
        <ele>490</ele>
        <time>2016-11-01T11:21:36.008Z</time>
      </trkpt>
      <trkpt lat="42.96152" lon="1.94123">
        <ele>490</ele>
        <time>2016-11-01T11:21:39.008Z</time>
      </trkpt>
      <trkpt lat="42.96148" lon="1.94139">
        <ele>490</ele>
        <time>2016-11-01T11:21:42.008Z</time>
      </trkpt>
      <trkpt lat="42.96144" lon="1.94155">
        <ele>490</ele>
        <time>2016-11-01T11:21:45.008Z</time>
      </trkpt>
      <trkpt lat="42.96142" lon="1.94166">
        <ele>490</ele>
        <time>2016-11-01T11:21:47.008Z</time>
      </trkpt>
      <trkpt lat="42.96139" lon="1.94177">
        <ele>490</ele>
        <time>2016-11-01T11:21:49.008Z</time>
      </trkpt>
      <trkpt lat="42.96135" lon="1.94192">
        <ele>490</ele>
        <time>2016-11-01T11:21:52.008Z</time>
      </trkpt>
      <trkpt lat="42.96131" lon="1.94208">
        <ele>490</ele>
        <time>2016-11-01T11:21:55.008Z</time>
      </trkpt>
      <trkpt lat="42.96128" lon="1.9422">
        <ele>490</ele>
        <time>2016-11-01T11:21:57.008Z</time>
      </trkpt>
      <trkpt lat="42.96125" lon="1.94232">
        <ele>490</ele>
        <time>2016-11-01T11:21:59.008Z</time>
      </trkpt>
      <trkpt lat="42.96122" lon="1.94243">
        <ele>490.4359936</ele>
        <time>2016-11-01T11:22:01.008Z</time>
      </trkpt>
      <trkpt lat="42.9612" lon="1.94254">
        <ele>492</ele>
        <time>2016-11-01T11:22:03.008Z</time>
      </trkpt>
      <trkpt lat="42.96118" lon="1.94266">
        <ele>492</ele>
        <time>2016-11-01T11:22:05.008Z</time>
      </trkpt>
      <trkpt lat="42.96116" lon="1.94277">
        <ele>492</ele>
        <time>2016-11-01T11:22:07.008Z</time>
      </trkpt>
      <trkpt lat="42.96115" lon="1.94288">
        <ele>492</ele>
        <time>2016-11-01T11:22:09.008Z</time>
      </trkpt>
      <trkpt lat="42.96113" lon="1.94299">
        <ele>492.2179968</ele>
        <time>2016-11-01T11:22:11.008Z</time>
      </trkpt>
      <trkpt lat="42.96111" lon="1.94311">
        <ele>493</ele>
        <time>2016-11-01T11:22:13.008Z</time>
      </trkpt>
      <trkpt lat="42.96109" lon="1.94323">
        <ele>493</ele>
        <time>2016-11-01T11:22:15.008Z</time>
      </trkpt>
      <trkpt lat="42.96109" lon="1.94336">
        <ele>493</ele>
        <time>2016-11-01T11:22:17.008Z</time>
      </trkpt>
      <trkpt lat="42.96111" lon="1.94349">
        <ele>493</ele>
        <time>2016-11-01T11:22:19.008Z</time>
      </trkpt>
      <trkpt lat="42.96114" lon="1.94364">
        <ele>493</ele>
        <time>2016-11-01T11:22:21.008Z</time>
      </trkpt>
      <trkpt lat="42.96121" lon="1.94381">
        <ele>493</ele>
        <time>2016-11-01T11:22:23.008Z</time>
      </trkpt>
      <trkpt lat="42.96125" lon="1.94391">
        <ele>493</ele>
        <time>2016-11-01T11:22:24.008Z</time>
      </trkpt>
      <trkpt lat="42.96128" lon="1.94401">
        <ele>493</ele>
        <time>2016-11-01T11:22:25.008Z</time>
      </trkpt>
      <trkpt lat="42.9613" lon="1.94412">
        <ele>493</ele>
        <time>2016-11-01T11:22:26.008Z</time>
      </trkpt>
      <trkpt lat="42.96131" lon="1.94423">
        <ele>493</ele>
        <time>2016-11-01T11:22:27.008Z</time>
      </trkpt>
      <trkpt lat="42.96128" lon="1.94444">
        <ele>493</ele>
        <time>2016-11-01T11:22:29.008Z</time>
      </trkpt>
      <trkpt lat="42.96124" lon="1.94465">
        <ele>492.15959867604</ele>
        <time>2016-11-01T11:22:31.008Z</time>
      </trkpt>
      <trkpt lat="42.96119" lon="1.94484">
        <ele>489</ele>
        <time>2016-11-01T11:22:33.008Z</time>
      </trkpt>
      <trkpt lat="42.96116" lon="1.94502">
        <ele>489</ele>
        <time>2016-11-01T11:22:35.008Z</time>
      </trkpt>
      <trkpt lat="42.96112" lon="1.94519">
        <ele>486</ele>
        <time>2016-11-01T11:22:37.008Z</time>
      </trkpt>
      <trkpt lat="42.96108" lon="1.94535">
        <ele>486</ele>
        <time>2016-11-01T11:22:39.008Z</time>
      </trkpt>
      <trkpt lat="42.96105" lon="1.9455">
        <ele>486.4359936</ele>
        <time>2016-11-01T11:22:41.008Z</time>
      </trkpt>
      <trkpt lat="42.96102" lon="1.94565">
        <ele>488</ele>
        <time>2016-11-01T11:22:43.008Z</time>
      </trkpt>
      <trkpt lat="42.96099" lon="1.94579">
        <ele>488</ele>
        <time>2016-11-01T11:22:45.008Z</time>
      </trkpt>
      <trkpt lat="42.96096" lon="1.94593">
        <ele>488</ele>
        <time>2016-11-01T11:22:47.008Z</time>
      </trkpt>
      <trkpt lat="42.96093" lon="1.94606">
        <ele>488</ele>
        <time>2016-11-01T11:22:49.008Z</time>
      </trkpt>
      <trkpt lat="42.96092" lon="1.94613">
        <ele>488</ele>
        <time>2016-11-01T11:22:50.008Z</time>
      </trkpt>
      <trkpt lat="42.9609" lon="1.94619">
        <ele>488.4359936</ele>
        <time>2016-11-01T11:22:51.008Z</time>
      </trkpt>
      <trkpt lat="42.96089" lon="1.94626">
        <ele>490</ele>
        <time>2016-11-01T11:22:52.008Z</time>
      </trkpt>
      <trkpt lat="42.96087" lon="1.94632">
        <ele>490</ele>
        <time>2016-11-01T11:22:53.008Z</time>
      </trkpt>
      <trkpt lat="42.96085" lon="1.94638">
        <ele>490</ele>
        <time>2016-11-01T11:22:54.008Z</time>
      </trkpt>
      <trkpt lat="42.96083" lon="1.94644">
        <ele>490</ele>
        <time>2016-11-01T11:22:55.008Z</time>
      </trkpt>
      <trkpt lat="42.9608" lon="1.9465">
        <ele>490</ele>
        <time>2016-11-01T11:22:56.008Z</time>
      </trkpt>
      <trkpt lat="42.96076" lon="1.94662">
        <ele>490</ele>
        <time>2016-11-01T11:22:58.008Z</time>
      </trkpt>
      <trkpt lat="42.96072" lon="1.94673">
        <ele>490</ele>
        <time>2016-11-01T11:23:00.008Z</time>
      </trkpt>
      <trkpt lat="42.96069" lon="1.94684">
        <ele>492</ele>
        <time>2016-11-01T11:23:02.008Z</time>
      </trkpt>
      <trkpt lat="42.96065" lon="1.94695">
        <ele>492</ele>
        <time>2016-11-01T11:23:04.008Z</time>
      </trkpt>
      <trkpt lat="42.96061" lon="1.94706">
        <ele>492</ele>
        <time>2016-11-01T11:23:06.008Z</time>
      </trkpt>
      <trkpt lat="42.96056" lon="1.94717">
        <ele>492</ele>
        <time>2016-11-01T11:23:08.008Z</time>
      </trkpt>
      <trkpt lat="42.96051" lon="1.94727">
        <ele>492</ele>
        <time>2016-11-01T11:23:10.008Z</time>
      </trkpt>
      <trkpt lat="42.96043" lon="1.94741">
        <ele>494</ele>
        <time>2016-11-01T11:23:13.008Z</time>
      </trkpt>
      <trkpt lat="42.96035" lon="1.94758">
        <ele>494</ele>
        <time>2016-11-01T11:23:16.008Z</time>
      </trkpt>
      <trkpt lat="42.9603" lon="1.94769">
        <ele>494</ele>
        <time>2016-11-01T11:23:18.008Z</time>
      </trkpt>
      <trkpt lat="42.96026" lon="1.9478">
        <ele>494</ele>
        <time>2016-11-01T11:23:20.008Z</time>
      </trkpt>
      <trkpt lat="42.9602" lon="1.94795">
        <ele>496</ele>
        <time>2016-11-01T11:23:23.008Z</time>
      </trkpt>
      <trkpt lat="42.96015" lon="1.94809">
        <ele>496</ele>
        <time>2016-11-01T11:23:26.008Z</time>
      </trkpt>
      <trkpt lat="42.9601" lon="1.94819">
        <ele>496</ele>
        <time>2016-11-01T11:23:28.008Z</time>
      </trkpt>
      <trkpt lat="42.96007" lon="1.94829">
        <ele>496</ele>
        <time>2016-11-01T11:23:30.008Z</time>
      </trkpt>
      <trkpt lat="42.96003" lon="1.94839">
        <ele>498</ele>
        <time>2016-11-01T11:23:32.008Z</time>
      </trkpt>
      <trkpt lat="42.95999" lon="1.9485">
        <ele>498</ele>
        <time>2016-11-01T11:23:34.008Z</time>
      </trkpt>
      <trkpt lat="42.95995" lon="1.94859">
        <ele>498.2179968</ele>
        <time>2016-11-01T11:23:36.008Z</time>
      </trkpt>
      <trkpt lat="42.95992" lon="1.9487">
        <ele>499</ele>
        <time>2016-11-01T11:23:38.008Z</time>
      </trkpt>
      <trkpt lat="42.95987" lon="1.94884">
        <ele>499.2179968</ele>
        <time>2016-11-01T11:23:41.008Z</time>
      </trkpt>
      <trkpt lat="42.95984" lon="1.94895">
        <ele>500</ele>
        <time>2016-11-01T11:23:43.008Z</time>
      </trkpt>
      <trkpt lat="42.9598" lon="1.94906">
        <ele>500</ele>
        <time>2016-11-01T11:23:45.008Z</time>
      </trkpt>
      <trkpt lat="42.95978" lon="1.94916">
        <ele>500</ele>
        <time>2016-11-01T11:23:47.008Z</time>
      </trkpt>
      <trkpt lat="42.95976" lon="1.94928">
        <ele>500</ele>
        <time>2016-11-01T11:23:49.008Z</time>
      </trkpt>
      <trkpt lat="42.95974" lon="1.94941">
        <ele>500.2179968</ele>
        <time>2016-11-01T11:23:51.008Z</time>
      </trkpt>
      <trkpt lat="42.95973" lon="1.94953">
        <ele>501</ele>
        <time>2016-11-01T11:23:53.008Z</time>
      </trkpt>
      <trkpt lat="42.95971" lon="1.94965">
        <ele>501</ele>
        <time>2016-11-01T11:23:55.008Z</time>
      </trkpt>
      <trkpt lat="42.95969" lon="1.94979">
        <ele>501</ele>
        <time>2016-11-01T11:23:57.008Z</time>
      </trkpt>
      <trkpt lat="42.95966" lon="1.94993">
        <ele>501</ele>
        <time>2016-11-01T11:23:59.008Z</time>
      </trkpt>
      <trkpt lat="42.95962" lon="1.95006">
        <ele>501</ele>
        <time>2016-11-01T11:24:01.008Z</time>
      </trkpt>
      <trkpt lat="42.95957" lon="1.95018">
        <ele>501</ele>
        <time>2016-11-01T11:24:03.008Z</time>
      </trkpt>
      <trkpt lat="42.95953" lon="1.9503">
        <ele>501</ele>
        <time>2016-11-01T11:24:05.008Z</time>
      </trkpt>
      <trkpt lat="42.95949" lon="1.95042">
        <ele>501</ele>
        <time>2016-11-01T11:24:07.008Z</time>
      </trkpt>
      <trkpt lat="42.95945" lon="1.95054">
        <ele>501</ele>
        <time>2016-11-01T11:24:09.008Z</time>
      </trkpt>
      <trkpt lat="42.95941" lon="1.95067">
        <ele>501.2179968</ele>
        <time>2016-11-01T11:24:11.008Z</time>
      </trkpt>
      <trkpt lat="42.95936" lon="1.95078">
        <ele>502</ele>
        <time>2016-11-01T11:24:13.008Z</time>
      </trkpt>
      <trkpt lat="42.95931" lon="1.95089">
        <ele>502</ele>
        <time>2016-11-01T11:24:15.008Z</time>
      </trkpt>
      <trkpt lat="42.95927" lon="1.95099">
        <ele>502</ele>
        <time>2016-11-01T11:24:17.008Z</time>
      </trkpt>
      <trkpt lat="42.95926" lon="1.95114">
        <ele>502</ele>
        <time>2016-11-01T11:24:20.008Z</time>
      </trkpt>
      <trkpt lat="42.95921" lon="1.95127">
        <ele>503</ele>
        <time>2016-11-01T11:24:23.008Z</time>
      </trkpt>
      <trkpt lat="42.95916" lon="1.95141">
        <ele>503</ele>
        <time>2016-11-01T11:24:26.008Z</time>
      </trkpt>
      <trkpt lat="42.9591" lon="1.9515">
        <ele>503</ele>
        <time>2016-11-01T11:24:28.008Z</time>
      </trkpt>
      <trkpt lat="42.95904" lon="1.95159">
        <ele>503</ele>
        <time>2016-11-01T11:24:30.008Z</time>
      </trkpt>
      <trkpt lat="42.95899" lon="1.9517">
        <ele>503</ele>
        <time>2016-11-01T11:24:33.008Z</time>
      </trkpt>
      <trkpt lat="42.95894" lon="1.95186">
        <ele>503</ele>
        <time>2016-11-01T11:24:36.008Z</time>
      </trkpt>
      <trkpt lat="42.95892" lon="1.95201">
        <ele>503</ele>
        <time>2016-11-01T11:24:38.008Z</time>
      </trkpt>
      <trkpt lat="42.95886" lon="1.95215">
        <ele>503</ele>
        <time>2016-11-01T11:24:40.008Z</time>
      </trkpt>
      <trkpt lat="42.95879" lon="1.95225">
        <ele>502</ele>
        <time>2016-11-01T11:24:42.008Z</time>
      </trkpt>
      <trkpt lat="42.95872" lon="1.95234">
        <ele>502</ele>
        <time>2016-11-01T11:24:44.008Z</time>
      </trkpt>
      <trkpt lat="42.95865" lon="1.95243">
        <ele>502</ele>
        <time>2016-11-01T11:24:46.008Z</time>
      </trkpt>
      <trkpt lat="42.95862" lon="1.95248">
        <ele>502</ele>
        <time>2016-11-01T11:24:47.008Z</time>
      </trkpt>
      <trkpt lat="42.95857" lon="1.9526">
        <ele>502</ele>
        <time>2016-11-01T11:24:49.008Z</time>
      </trkpt>
      <trkpt lat="42.95851" lon="1.95272">
        <ele>501.7820032</ele>
        <time>2016-11-01T11:24:51.008Z</time>
      </trkpt>
      <trkpt lat="42.95845" lon="1.95285">
        <ele>501</ele>
        <time>2016-11-01T11:24:53.008Z</time>
      </trkpt>
      <trkpt lat="42.9584" lon="1.95297">
        <ele>501</ele>
        <time>2016-11-01T11:24:55.008Z</time>
      </trkpt>
      <trkpt lat="42.95836" lon="1.95311">
        <ele>501</ele>
        <time>2016-11-01T11:24:57.008Z</time>
      </trkpt>
      <trkpt lat="42.95834" lon="1.95325">
        <ele>501</ele>
        <time>2016-11-01T11:24:59.008Z</time>
      </trkpt>
      <trkpt lat="42.95834" lon="1.95338">
        <ele>501</ele>
        <time>2016-11-01T11:25:01.008Z</time>
      </trkpt>
      <trkpt lat="42.95833" lon="1.95352">
        <ele>501</ele>
        <time>2016-11-01T11:25:03.008Z</time>
      </trkpt>
      <trkpt lat="42.95833" lon="1.95366">
        <ele>501</ele>
        <time>2016-11-01T11:25:05.008Z</time>
      </trkpt>
      <trkpt lat="42.95832" lon="1.95382">
        <ele>501</ele>
        <time>2016-11-01T11:25:07.008Z</time>
      </trkpt>
      <trkpt lat="42.95831" lon="1.95399">
        <ele>501</ele>
        <time>2016-11-01T11:25:09.008Z</time>
      </trkpt>
      <trkpt lat="42.9583" lon="1.95415">
        <ele>500.5640064</ele>
        <time>2016-11-01T11:25:11.008Z</time>
      </trkpt>
      <trkpt lat="42.9583" lon="1.95423">
        <ele>499</ele>
        <time>2016-11-01T11:25:12.008Z</time>
      </trkpt>
      <trkpt lat="42.95829" lon="1.95431">
        <ele>499</ele>
        <time>2016-11-01T11:25:13.008Z</time>
      </trkpt>
      <trkpt lat="42.95828" lon="1.95439">
        <ele>499</ele>
        <time>2016-11-01T11:25:14.008Z</time>
      </trkpt>
      <trkpt lat="42.95828" lon="1.95447">
        <ele>499</ele>
        <time>2016-11-01T11:25:15.008Z</time>
      </trkpt>
      <trkpt lat="42.95828" lon="1.95455">
        <ele>499</ele>
        <time>2016-11-01T11:25:16.008Z</time>
      </trkpt>
      <trkpt lat="42.95827" lon="1.95463">
        <ele>499</ele>
        <time>2016-11-01T11:25:17.008Z</time>
      </trkpt>
      <trkpt lat="42.95827" lon="1.95471">
        <ele>499</ele>
        <time>2016-11-01T11:25:18.008Z</time>
      </trkpt>
      <trkpt lat="42.95826" lon="1.95479">
        <ele>499</ele>
        <time>2016-11-01T11:25:19.008Z</time>
      </trkpt>
      <trkpt lat="42.95826" lon="1.95487">
        <ele>499</ele>
        <time>2016-11-01T11:25:20.008Z</time>
      </trkpt>
      <trkpt lat="42.95825" lon="1.95496">
        <ele>498.3460096</ele>
        <time>2016-11-01T11:25:21.008Z</time>
      </trkpt>
      <trkpt lat="42.95825" lon="1.95504">
        <ele>496</ele>
        <time>2016-11-01T11:25:22.008Z</time>
      </trkpt>
      <trkpt lat="42.95824" lon="1.95512">
        <ele>496</ele>
        <time>2016-11-01T11:25:23.008Z</time>
      </trkpt>
      <trkpt lat="42.95823" lon="1.95521">
        <ele>496</ele>
        <time>2016-11-01T11:25:24.008Z</time>
      </trkpt>
      <trkpt lat="42.95822" lon="1.95529">
        <ele>496</ele>
        <time>2016-11-01T11:25:25.008Z</time>
      </trkpt>
      <trkpt lat="42.95822" lon="1.95537">
        <ele>496</ele>
        <time>2016-11-01T11:25:26.008Z</time>
      </trkpt>
      <trkpt lat="42.95823" lon="1.95554">
        <ele>496</ele>
        <time>2016-11-01T11:25:28.008Z</time>
      </trkpt>
      <trkpt lat="42.95822" lon="1.95563">
        <ele>496</ele>
        <time>2016-11-01T11:25:29.008Z</time>
      </trkpt>
      <trkpt lat="42.95822" lon="1.95572">
        <ele>496</ele>
        <time>2016-11-01T11:25:30.008Z</time>
      </trkpt>
      <trkpt lat="42.95822" lon="1.9558">
        <ele>495.7820032</ele>
        <time>2016-11-01T11:25:31.008Z</time>
      </trkpt>
      <trkpt lat="42.95821" lon="1.95589">
        <ele>495</ele>
        <time>2016-11-01T11:25:32.008Z</time>
      </trkpt>
      <trkpt lat="42.9582" lon="1.95598">
        <ele>495</ele>
        <time>2016-11-01T11:25:33.008Z</time>
      </trkpt>
      <trkpt lat="42.95819" lon="1.95607">
        <ele>495</ele>
        <time>2016-11-01T11:25:34.008Z</time>
      </trkpt>
      <trkpt lat="42.95817" lon="1.95624">
        <ele>495</ele>
        <time>2016-11-01T11:25:36.008Z</time>
      </trkpt>
      <trkpt lat="42.95815" lon="1.9564">
        <ele>495</ele>
        <time>2016-11-01T11:25:38.008Z</time>
      </trkpt>
      <trkpt lat="42.95814" lon="1.95657">
        <ele>495</ele>
        <time>2016-11-01T11:25:40.008Z</time>
      </trkpt>
      <trkpt lat="42.95813" lon="1.95666">
        <ele>494.3460096</ele>
        <time>2016-11-01T11:25:41.008Z</time>
      </trkpt>
      <trkpt lat="42.95812" lon="1.95675">
        <ele>492</ele>
        <time>2016-11-01T11:25:42.008Z</time>
      </trkpt>
      <trkpt lat="42.95811" lon="1.95684">
        <ele>492</ele>
        <time>2016-11-01T11:25:43.008Z</time>
      </trkpt>
      <trkpt lat="42.95809" lon="1.95694">
        <ele>492</ele>
        <time>2016-11-01T11:25:44.008Z</time>
      </trkpt>
      <trkpt lat="42.95808" lon="1.95703">
        <ele>492</ele>
        <time>2016-11-01T11:25:45.008Z</time>
      </trkpt>
      <trkpt lat="42.95807" lon="1.95712">
        <ele>491.7820032</ele>
        <time>2016-11-01T11:25:46.008Z</time>
      </trkpt>
      <trkpt lat="42.95805" lon="1.95721">
        <ele>491</ele>
        <time>2016-11-01T11:25:47.008Z</time>
      </trkpt>
      <trkpt lat="42.95804" lon="1.9573">
        <ele>491</ele>
        <time>2016-11-01T11:25:48.008Z</time>
      </trkpt>
      <trkpt lat="42.95803" lon="1.95738">
        <ele>491</ele>
        <time>2016-11-01T11:25:49.008Z</time>
      </trkpt>
      <trkpt lat="42.95801" lon="1.95747">
        <ele>491</ele>
        <time>2016-11-01T11:25:50.008Z</time>
      </trkpt>
      <trkpt lat="42.95799" lon="1.95756">
        <ele>491</ele>
        <time>2016-11-01T11:25:51.008Z</time>
      </trkpt>
      <trkpt lat="42.95798" lon="1.95764">
        <ele>491</ele>
        <time>2016-11-01T11:25:52.008Z</time>
      </trkpt>
      <trkpt lat="42.95796" lon="1.95773">
        <ele>491</ele>
        <time>2016-11-01T11:25:53.008Z</time>
      </trkpt>
      <trkpt lat="42.95795" lon="1.95781">
        <ele>491</ele>
        <time>2016-11-01T11:25:54.008Z</time>
      </trkpt>
      <trkpt lat="42.95793" lon="1.95789">
        <ele>491</ele>
        <time>2016-11-01T11:25:55.008Z</time>
      </trkpt>
      <trkpt lat="42.95792" lon="1.95797">
        <ele>491</ele>
        <time>2016-11-01T11:25:56.008Z</time>
      </trkpt>
      <trkpt lat="42.9579" lon="1.95806">
        <ele>491</ele>
        <time>2016-11-01T11:25:57.008Z</time>
      </trkpt>
      <trkpt lat="42.95788" lon="1.95814">
        <ele>491</ele>
        <time>2016-11-01T11:25:58.008Z</time>
      </trkpt>
      <trkpt lat="42.95787" lon="1.95822">
        <ele>491</ele>
        <time>2016-11-01T11:25:59.008Z</time>
      </trkpt>
      <trkpt lat="42.95785" lon="1.9583">
        <ele>491</ele>
        <time>2016-11-01T11:26:00.008Z</time>
      </trkpt>
      <trkpt lat="42.95784" lon="1.95838">
        <ele>490.7820032</ele>
        <time>2016-11-01T11:26:01.008Z</time>
      </trkpt>
      <trkpt lat="42.95782" lon="1.95847">
        <ele>490</ele>
        <time>2016-11-01T11:26:02.008Z</time>
      </trkpt>
      <trkpt lat="42.95781" lon="1.95855">
        <ele>490</ele>
        <time>2016-11-01T11:26:03.008Z</time>
      </trkpt>
      <trkpt lat="42.95779" lon="1.95863">
        <ele>490</ele>
        <time>2016-11-01T11:26:04.008Z</time>
      </trkpt>
      <trkpt lat="42.95778" lon="1.95871">
        <ele>490</ele>
        <time>2016-11-01T11:26:05.008Z</time>
      </trkpt>
      <trkpt lat="42.95777" lon="1.9588">
        <ele>490</ele>
        <time>2016-11-01T11:26:06.008Z</time>
      </trkpt>
      <trkpt lat="42.95776" lon="1.95888">
        <ele>490</ele>
        <time>2016-11-01T11:26:07.008Z</time>
      </trkpt>
      <trkpt lat="42.95775" lon="1.95896">
        <ele>490</ele>
        <time>2016-11-01T11:26:08.008Z</time>
      </trkpt>
      <trkpt lat="42.95774" lon="1.95905">
        <ele>490</ele>
        <time>2016-11-01T11:26:09.008Z</time>
      </trkpt>
      <trkpt lat="42.95772" lon="1.95913">
        <ele>490</ele>
        <time>2016-11-01T11:26:10.008Z</time>
      </trkpt>
      <trkpt lat="42.95771" lon="1.95922">
        <ele>490</ele>
        <time>2016-11-01T11:26:11.008Z</time>
      </trkpt>
      <trkpt lat="42.9577" lon="1.9593">
        <ele>490</ele>
        <time>2016-11-01T11:26:12.008Z</time>
      </trkpt>
      <trkpt lat="42.95769" lon="1.95938">
        <ele>490</ele>
        <time>2016-11-01T11:26:13.008Z</time>
      </trkpt>
      <trkpt lat="42.95769" lon="1.95947">
        <ele>490</ele>
        <time>2016-11-01T11:26:14.008Z</time>
      </trkpt>
      <trkpt lat="42.95767" lon="1.95955">
        <ele>490</ele>
        <time>2016-11-01T11:26:15.008Z</time>
      </trkpt>
      <trkpt lat="42.95766" lon="1.95964">
        <ele>490</ele>
        <time>2016-11-01T11:26:16.008Z</time>
      </trkpt>
      <trkpt lat="42.95764" lon="1.95972">
        <ele>490</ele>
        <time>2016-11-01T11:26:17.008Z</time>
      </trkpt>
      <trkpt lat="42.95763" lon="1.9598">
        <ele>490</ele>
        <time>2016-11-01T11:26:18.008Z</time>
      </trkpt>
      <trkpt lat="42.95762" lon="1.95989">
        <ele>490</ele>
        <time>2016-11-01T11:26:19.008Z</time>
      </trkpt>
      <trkpt lat="42.95761" lon="1.95998">
        <ele>490</ele>
        <time>2016-11-01T11:26:20.008Z</time>
      </trkpt>
      <trkpt lat="42.9576" lon="1.96008">
        <ele>489.5640064</ele>
        <time>2016-11-01T11:26:21.008Z</time>
      </trkpt>
      <trkpt lat="42.95759" lon="1.96017">
        <ele>488</ele>
        <time>2016-11-01T11:26:22.008Z</time>
      </trkpt>
      <trkpt lat="42.95758" lon="1.96026">
        <ele>488</ele>
        <time>2016-11-01T11:26:23.008Z</time>
      </trkpt>
      <trkpt lat="42.95757" lon="1.96035">
        <ele>488</ele>
        <time>2016-11-01T11:26:24.008Z</time>
      </trkpt>
      <trkpt lat="42.95756" lon="1.96045">
        <ele>488</ele>
        <time>2016-11-01T11:26:25.008Z</time>
      </trkpt>
      <trkpt lat="42.95755" lon="1.96054">
        <ele>488</ele>
        <time>2016-11-01T11:26:26.008Z</time>
      </trkpt>
      <trkpt lat="42.95753" lon="1.96063">
        <ele>488</ele>
        <time>2016-11-01T11:26:27.008Z</time>
      </trkpt>
      <trkpt lat="42.95751" lon="1.96072">
        <ele>488</ele>
        <time>2016-11-01T11:26:28.008Z</time>
      </trkpt>
      <trkpt lat="42.95749" lon="1.96081">
        <ele>488</ele>
        <time>2016-11-01T11:26:29.008Z</time>
      </trkpt>
      <trkpt lat="42.95747" lon="1.9609">
        <ele>488</ele>
        <time>2016-11-01T11:26:30.008Z</time>
      </trkpt>
      <trkpt lat="42.95746" lon="1.96098">
        <ele>487.36969900703</ele>
        <time>2016-11-01T11:26:31.008Z</time>
      </trkpt>
      <trkpt lat="42.95744" lon="1.96107">
        <ele>485</ele>
        <time>2016-11-01T11:26:32.008Z</time>
      </trkpt>
      <trkpt lat="42.95742" lon="1.96116">
        <ele>485</ele>
        <time>2016-11-01T11:26:33.008Z</time>
      </trkpt>
      <trkpt lat="42.95741" lon="1.96125">
        <ele>485</ele>
        <time>2016-11-01T11:26:34.008Z</time>
      </trkpt>
      <trkpt lat="42.95739" lon="1.96134">
        <ele>485</ele>
        <time>2016-11-01T11:26:35.008Z</time>
      </trkpt>
      <trkpt lat="42.95737" lon="1.96143">
        <ele>484.7820032</ele>
        <time>2016-11-01T11:26:36.008Z</time>
      </trkpt>
      <trkpt lat="42.95735" lon="1.96152">
        <ele>484</ele>
        <time>2016-11-01T11:26:37.008Z</time>
      </trkpt>
      <trkpt lat="42.95733" lon="1.96161">
        <ele>484</ele>
        <time>2016-11-01T11:26:38.008Z</time>
      </trkpt>
      <trkpt lat="42.9573" lon="1.9617">
        <ele>484</ele>
        <time>2016-11-01T11:26:39.008Z</time>
      </trkpt>
      <trkpt lat="42.95726" lon="1.96189">
        <ele>483.5640064</ele>
        <time>2016-11-01T11:26:41.008Z</time>
      </trkpt>
      <trkpt lat="42.95724" lon="1.96198">
        <ele>482</ele>
        <time>2016-11-01T11:26:42.008Z</time>
      </trkpt>
      <trkpt lat="42.95722" lon="1.96207">
        <ele>482</ele>
        <time>2016-11-01T11:26:43.008Z</time>
      </trkpt>
      <trkpt lat="42.9572" lon="1.96217">
        <ele>482</ele>
        <time>2016-11-01T11:26:44.008Z</time>
      </trkpt>
      <trkpt lat="42.95718" lon="1.96226">
        <ele>482</ele>
        <time>2016-11-01T11:26:45.008Z</time>
      </trkpt>
      <trkpt lat="42.95717" lon="1.96235">
        <ele>481.7820032</ele>
        <time>2016-11-01T11:26:46.008Z</time>
      </trkpt>
      <trkpt lat="42.95715" lon="1.96244">
        <ele>481</ele>
        <time>2016-11-01T11:26:47.008Z</time>
      </trkpt>
      <trkpt lat="42.95713" lon="1.96252">
        <ele>481</ele>
        <time>2016-11-01T11:26:48.008Z</time>
      </trkpt>
      <trkpt lat="42.95711" lon="1.96261">
        <ele>481</ele>
        <time>2016-11-01T11:26:49.008Z</time>
      </trkpt>
      <trkpt lat="42.95709" lon="1.96269">
        <ele>481</ele>
        <time>2016-11-01T11:26:50.008Z</time>
      </trkpt>
      <trkpt lat="42.95706" lon="1.96284">
        <ele>480</ele>
        <time>2016-11-01T11:26:52.008Z</time>
      </trkpt>
      <trkpt lat="42.95705" lon="1.96292">
        <ele>480</ele>
        <time>2016-11-01T11:26:53.008Z</time>
      </trkpt>
      <trkpt lat="42.95703" lon="1.963">
        <ele>480</ele>
        <time>2016-11-01T11:26:54.008Z</time>
      </trkpt>
      <trkpt lat="42.95701" lon="1.96308">
        <ele>480</ele>
        <time>2016-11-01T11:26:55.008Z</time>
      </trkpt>
      <trkpt lat="42.957" lon="1.96317">
        <ele>480</ele>
        <time>2016-11-01T11:26:56.008Z</time>
      </trkpt>
      <trkpt lat="42.95698" lon="1.96325">
        <ele>480</ele>
        <time>2016-11-01T11:26:57.008Z</time>
      </trkpt>
      <trkpt lat="42.95697" lon="1.96334">
        <ele>480</ele>
        <time>2016-11-01T11:26:58.008Z</time>
      </trkpt>
      <trkpt lat="42.95695" lon="1.96344">
        <ele>480</ele>
        <time>2016-11-01T11:26:59.008Z</time>
      </trkpt>
      <trkpt lat="42.95694" lon="1.96353">
        <ele>480</ele>
        <time>2016-11-01T11:27:00.008Z</time>
      </trkpt>
      <trkpt lat="42.95692" lon="1.96363">
        <ele>479.5640064</ele>
        <time>2016-11-01T11:27:01.008Z</time>
      </trkpt>
      <trkpt lat="42.95691" lon="1.96373">
        <ele>478</ele>
        <time>2016-11-01T11:27:02.008Z</time>
      </trkpt>
      <trkpt lat="42.9569" lon="1.96383">
        <ele>478</ele>
        <time>2016-11-01T11:27:03.008Z</time>
      </trkpt>
      <trkpt lat="42.95688" lon="1.96403">
        <ele>478</ele>
        <time>2016-11-01T11:27:05.008Z</time>
      </trkpt>
      <trkpt lat="42.95687" lon="1.96412">
        <ele>477.5640064</ele>
        <time>2016-11-01T11:27:06.008Z</time>
      </trkpt>
      <trkpt lat="42.95686" lon="1.96422">
        <ele>476</ele>
        <time>2016-11-01T11:27:07.008Z</time>
      </trkpt>
      <trkpt lat="42.95685" lon="1.96432">
        <ele>476</ele>
        <time>2016-11-01T11:27:08.008Z</time>
      </trkpt>
      <trkpt lat="42.95684" lon="1.96442">
        <ele>476</ele>
        <time>2016-11-01T11:27:09.008Z</time>
      </trkpt>
      <trkpt lat="42.95682" lon="1.96452">
        <ele>476</ele>
        <time>2016-11-01T11:27:10.008Z</time>
      </trkpt>
      <trkpt lat="42.9568" lon="1.96462">
        <ele>475.5640064</ele>
        <time>2016-11-01T11:27:11.008Z</time>
      </trkpt>
      <trkpt lat="42.95678" lon="1.96472">
        <ele>474</ele>
        <time>2016-11-01T11:27:12.008Z</time>
      </trkpt>
      <trkpt lat="42.95674" lon="1.96482">
        <ele>474</ele>
        <time>2016-11-01T11:27:13.008Z</time>
      </trkpt>
      <trkpt lat="42.95672" lon="1.96492">
        <ele>474</ele>
        <time>2016-11-01T11:27:14.008Z</time>
      </trkpt>
      <trkpt lat="42.9567" lon="1.96502">
        <ele>474</ele>
        <time>2016-11-01T11:27:15.008Z</time>
      </trkpt>
      <trkpt lat="42.9567" lon="1.96512">
        <ele>473.7820032</ele>
        <time>2016-11-01T11:27:16.008Z</time>
      </trkpt>
      <trkpt lat="42.95669" lon="1.96523">
        <ele>473</ele>
        <time>2016-11-01T11:27:17.008Z</time>
      </trkpt>
      <trkpt lat="42.95668" lon="1.96533">
        <ele>473</ele>
        <time>2016-11-01T11:27:18.008Z</time>
      </trkpt>
      <trkpt lat="42.95666" lon="1.96543">
        <ele>473</ele>
        <time>2016-11-01T11:27:19.008Z</time>
      </trkpt>
      <trkpt lat="42.95663" lon="1.96553">
        <ele>473</ele>
        <time>2016-11-01T11:27:20.008Z</time>
      </trkpt>
      <trkpt lat="42.9566" lon="1.96564">
        <ele>472.5640064</ele>
        <time>2016-11-01T11:27:21.008Z</time>
      </trkpt>
      <trkpt lat="42.95656" lon="1.96575">
        <ele>471</ele>
        <time>2016-11-01T11:27:22.008Z</time>
      </trkpt>
      <trkpt lat="42.95652" lon="1.96587">
        <ele>471</ele>
        <time>2016-11-01T11:27:23.008Z</time>
      </trkpt>
      <trkpt lat="42.95646" lon="1.96599">
        <ele>471</ele>
        <time>2016-11-01T11:27:24.008Z</time>
      </trkpt>
      <trkpt lat="42.9564" lon="1.96612">
        <ele>471</ele>
        <time>2016-11-01T11:27:25.008Z</time>
      </trkpt>
      <trkpt lat="42.95632" lon="1.96625">
        <ele>469.6920192</ele>
        <time>2016-11-01T11:27:26.008Z</time>
      </trkpt>
      <trkpt lat="42.95625" lon="1.96638">
        <ele>465</ele>
        <time>2016-11-01T11:27:27.008Z</time>
      </trkpt>
      <trkpt lat="42.95617" lon="1.96651">
        <ele>465</ele>
        <time>2016-11-01T11:27:28.008Z</time>
      </trkpt>
      <trkpt lat="42.95609" lon="1.96664">
        <ele>465</ele>
        <time>2016-11-01T11:27:29.008Z</time>
      </trkpt>
      <trkpt lat="42.95602" lon="1.96675">
        <ele>465</ele>
        <time>2016-11-01T11:27:30.008Z</time>
      </trkpt>
      <trkpt lat="42.95594" lon="1.96687">
        <ele>463.4740224</ele>
        <time>2016-11-01T11:27:31.008Z</time>
      </trkpt>
      <trkpt lat="42.95587" lon="1.96698">
        <ele>456.6920192</ele>
        <time>2016-11-01T11:27:32.008Z</time>
      </trkpt>
      <trkpt lat="42.9558" lon="1.96708">
        <ele>451.5640064</ele>
        <time>2016-11-01T11:27:33.008Z</time>
      </trkpt>
      <trkpt lat="42.95573" lon="1.96717">
        <ele>449.3460096</ele>
        <time>2016-11-01T11:27:34.008Z</time>
      </trkpt>
      <trkpt lat="42.95566" lon="1.96724">
        <ele>446.5640064</ele>
        <time>2016-11-01T11:27:35.008Z</time>
      </trkpt>
      <trkpt lat="42.95558" lon="1.9673">
        <ele>444.5640064</ele>
        <time>2016-11-01T11:27:36.008Z</time>
      </trkpt>
      <trkpt lat="42.95551" lon="1.96735">
        <ele>442.7820032</ele>
        <time>2016-11-01T11:27:37.008Z</time>
      </trkpt>
      <trkpt lat="42.95546" lon="1.96742">
        <ele>442</ele>
        <time>2016-11-01T11:27:38.008Z</time>
      </trkpt>
      <trkpt lat="42.95543" lon="1.96752">
        <ele>441.7820032</ele>
        <time>2016-11-01T11:27:39.008Z</time>
      </trkpt>
      <trkpt lat="42.95541" lon="1.96764">
        <ele>440.7820032</ele>
        <time>2016-11-01T11:27:40.008Z</time>
      </trkpt>
      <trkpt lat="42.95541" lon="1.96776">
        <ele>440</ele>
        <time>2016-11-01T11:27:41.008Z</time>
      </trkpt>
      <trkpt lat="42.95542" lon="1.96787">
        <ele>439.5640064</ele>
        <time>2016-11-01T11:27:42.008Z</time>
      </trkpt>
      <trkpt lat="42.95544" lon="1.96799">
        <ele>437.7820032</ele>
        <time>2016-11-01T11:27:43.008Z</time>
      </trkpt>
      <trkpt lat="42.95547" lon="1.96811">
        <ele>436.7820032</ele>
        <time>2016-11-01T11:27:44.008Z</time>
      </trkpt>
      <trkpt lat="42.95553" lon="1.96837">
        <ele>433</ele>
        <time>2016-11-01T11:27:46.008Z</time>
      </trkpt>
      <trkpt lat="42.95555" lon="1.9685">
        <ele>433</ele>
        <time>2016-11-01T11:27:47.008Z</time>
      </trkpt>
      <trkpt lat="42.95558" lon="1.96863">
        <ele>432.7820032</ele>
        <time>2016-11-01T11:27:48.008Z</time>
      </trkpt>
      <trkpt lat="42.95559" lon="1.96876">
        <ele>431.5640064</ele>
        <time>2016-11-01T11:27:49.008Z</time>
      </trkpt>
      <trkpt lat="42.95561" lon="1.96888">
        <ele>429.5640064</ele>
        <time>2016-11-01T11:27:50.008Z</time>
      </trkpt>
      <trkpt lat="42.95564" lon="1.96898">
        <ele>427.7820032</ele>
        <time>2016-11-01T11:27:51.008Z</time>
      </trkpt>
      <trkpt lat="42.95567" lon="1.96909">
        <ele>426.7820032</ele>
        <time>2016-11-01T11:27:52.008Z</time>
      </trkpt>
      <trkpt lat="42.95569" lon="1.96919">
        <ele>426</ele>
        <time>2016-11-01T11:27:53.008Z</time>
      </trkpt>
      <trkpt lat="42.95574" lon="1.9694">
        <ele>424.7820032</ele>
        <time>2016-11-01T11:27:55.008Z</time>
      </trkpt>
      <trkpt lat="42.95578" lon="1.96962">
        <ele>421</ele>
        <time>2016-11-01T11:27:57.008Z</time>
      </trkpt>
      <trkpt lat="42.9558" lon="1.96984">
        <ele>419.3460096</ele>
        <time>2016-11-01T11:27:59.008Z</time>
      </trkpt>
      <trkpt lat="42.95583" lon="1.97006">
        <ele>415</ele>
        <time>2016-11-01T11:28:01.008Z</time>
      </trkpt>
      <trkpt lat="42.95585" lon="1.97017">
        <ele>414.7820032</ele>
        <time>2016-11-01T11:28:02.008Z</time>
      </trkpt>
      <trkpt lat="42.95587" lon="1.97028">
        <ele>413.7820032</ele>
        <time>2016-11-01T11:28:03.008Z</time>
      </trkpt>
      <trkpt lat="42.9559" lon="1.97038">
        <ele>412.3460096</ele>
        <time>2016-11-01T11:28:04.008Z</time>
      </trkpt>
      <trkpt lat="42.95592" lon="1.97049">
        <ele>409.7820032</ele>
        <time>2016-11-01T11:28:05.008Z</time>
      </trkpt>
      <trkpt lat="42.95593" lon="1.9707">
        <ele>408.7820032</ele>
        <time>2016-11-01T11:28:07.008Z</time>
      </trkpt>
      <trkpt lat="42.95588" lon="1.97089">
        <ele>406.7820032</ele>
        <time>2016-11-01T11:28:09.008Z</time>
      </trkpt>
      <trkpt lat="42.95581" lon="1.97106">
        <ele>406</ele>
        <time>2016-11-01T11:28:11.008Z</time>
      </trkpt>
      <trkpt lat="42.95578" lon="1.97115">
        <ele>405.7820032</ele>
        <time>2016-11-01T11:28:12.008Z</time>
      </trkpt>
      <trkpt lat="42.95574" lon="1.97124">
        <ele>404.7820032</ele>
        <time>2016-11-01T11:28:13.008Z</time>
      </trkpt>
      <trkpt lat="42.95569" lon="1.97143">
        <ele>404</ele>
        <time>2016-11-01T11:28:15.008Z</time>
      </trkpt>
      <trkpt lat="42.95566" lon="1.97152">
        <ele>404</ele>
        <time>2016-11-01T11:28:16.008Z</time>
      </trkpt>
      <trkpt lat="42.95563" lon="1.97161">
        <ele>404</ele>
        <time>2016-11-01T11:28:17.008Z</time>
      </trkpt>
      <trkpt lat="42.95561" lon="1.9717">
        <ele>403.7820032</ele>
        <time>2016-11-01T11:28:18.008Z</time>
      </trkpt>
      <trkpt lat="42.95558" lon="1.97178">
        <ele>403.2179968</ele>
        <time>2016-11-01T11:28:19.008Z</time>
      </trkpt>
      <trkpt lat="42.95556" lon="1.97186">
        <ele>404</ele>
        <time>2016-11-01T11:28:20.008Z</time>
      </trkpt>
      <trkpt lat="42.95553" lon="1.97198">
        <ele>404</ele>
        <time>2016-11-01T11:28:22.008Z</time>
      </trkpt>
      <trkpt lat="42.95551" lon="1.97206">
        <ele>404</ele>
        <time>2016-11-01T11:28:24.008Z</time>
      </trkpt>
      <trkpt lat="42.95548" lon="1.97212">
        <ele>405</ele>
        <time>2016-11-01T11:32:13.008Z</time>
      </trkpt>
      <trkpt lat="42.95544" lon="1.97209">
        <ele>405</ele>
        <time>2016-11-01T11:32:17.008Z</time>
      </trkpt>
      <trkpt lat="42.95538" lon="1.97205">
        <ele>405</ele>
        <time>2016-11-01T11:32:20.008Z</time>
      </trkpt>
      <trkpt lat="42.95534" lon="1.97203">
        <ele>406</ele>
        <time>2016-11-01T11:32:22.008Z</time>
      </trkpt>
      <trkpt lat="42.95529" lon="1.972">
        <ele>406</ele>
        <time>2016-11-01T11:32:24.008Z</time>
      </trkpt>
      <trkpt lat="42.95524" lon="1.97196">
        <ele>406</ele>
        <time>2016-11-01T11:32:26.008Z</time>
      </trkpt>
      <trkpt lat="42.9552" lon="1.97192">
        <ele>406</ele>
        <time>2016-11-01T11:32:28.008Z</time>
      </trkpt>
      <trkpt lat="42.95516" lon="1.97187">
        <ele>406</ele>
        <time>2016-11-01T11:32:30.008Z</time>
      </trkpt>
      <trkpt lat="42.95514" lon="1.9718">
        <ele>407</ele>
        <time>2016-11-01T11:32:32.008Z</time>
      </trkpt>
      <trkpt lat="42.95511" lon="1.97173">
        <ele>407</ele>
        <time>2016-11-01T11:32:34.008Z</time>
      </trkpt>
      <trkpt lat="42.95508" lon="1.97166">
        <ele>407</ele>
        <time>2016-11-01T11:32:36.008Z</time>
      </trkpt>
      <trkpt lat="42.95503" lon="1.9716">
        <ele>407</ele>
        <time>2016-11-01T11:32:38.008Z</time>
      </trkpt>
      <trkpt lat="42.95497" lon="1.97154">
        <ele>407</ele>
        <time>2016-11-01T11:32:40.008Z</time>
      </trkpt>
      <trkpt lat="42.9549" lon="1.97148">
        <ele>407</ele>
        <time>2016-11-01T11:32:42.008Z</time>
      </trkpt>
      <trkpt lat="42.95486" lon="1.97145">
        <ele>407</ele>
        <time>2016-11-01T11:32:43.008Z</time>
      </trkpt>
      <trkpt lat="42.95482" lon="1.97141">
        <ele>407</ele>
        <time>2016-11-01T11:32:44.008Z</time>
      </trkpt>
      <trkpt lat="42.95477" lon="1.97137">
        <ele>407</ele>
        <time>2016-11-01T11:32:45.008Z</time>
      </trkpt>
      <trkpt lat="42.95473" lon="1.97132">
        <ele>407</ele>
        <time>2016-11-01T11:32:46.008Z</time>
      </trkpt>
      <trkpt lat="42.9547" lon="1.97126">
        <ele>407</ele>
        <time>2016-11-01T11:32:47.008Z</time>
      </trkpt>
      <trkpt lat="42.95467" lon="1.97119">
        <ele>407</ele>
        <time>2016-11-01T11:32:48.008Z</time>
      </trkpt>
      <trkpt lat="42.95465" lon="1.97112">
        <ele>407</ele>
        <time>2016-11-01T11:32:49.008Z</time>
      </trkpt>
      <trkpt lat="42.95464" lon="1.97105">
        <ele>407</ele>
        <time>2016-11-01T11:32:50.008Z</time>
      </trkpt>
      <trkpt lat="42.95463" lon="1.97097">
        <ele>406.5640064</ele>
        <time>2016-11-01T11:32:51.008Z</time>
      </trkpt>
      <trkpt lat="42.95462" lon="1.9709">
        <ele>405</ele>
        <time>2016-11-01T11:32:52.008Z</time>
      </trkpt>
      <trkpt lat="42.95462" lon="1.97083">
        <ele>405</ele>
        <time>2016-11-01T11:32:53.008Z</time>
      </trkpt>
      <trkpt lat="42.95461" lon="1.97068">
        <ele>405</ele>
        <time>2016-11-01T11:32:55.008Z</time>
      </trkpt>
      <trkpt lat="42.95461" lon="1.97061">
        <ele>405</ele>
        <time>2016-11-01T11:32:56.008Z</time>
      </trkpt>
      <trkpt lat="42.95461" lon="1.97054">
        <ele>405</ele>
        <time>2016-11-01T11:32:57.008Z</time>
      </trkpt>
      <trkpt lat="42.95461" lon="1.97047">
        <ele>405</ele>
        <time>2016-11-01T11:32:58.008Z</time>
      </trkpt>
      <trkpt lat="42.95461" lon="1.97041">
        <ele>405</ele>
        <time>2016-11-01T11:32:59.008Z</time>
      </trkpt>
      <trkpt lat="42.9546" lon="1.97034">
        <ele>405</ele>
        <time>2016-11-01T11:33:00.008Z</time>
      </trkpt>
      <trkpt lat="42.9546" lon="1.97027">
        <ele>405</ele>
        <time>2016-11-01T11:33:01.008Z</time>
      </trkpt>
      <trkpt lat="42.9546" lon="1.9702">
        <ele>405</ele>
        <time>2016-11-01T11:33:02.008Z</time>
      </trkpt>
      <trkpt lat="42.95459" lon="1.97014">
        <ele>405</ele>
        <time>2016-11-01T11:33:03.008Z</time>
      </trkpt>
      <trkpt lat="42.95459" lon="1.97007">
        <ele>405</ele>
        <time>2016-11-01T11:33:04.008Z</time>
      </trkpt>
      <trkpt lat="42.95459" lon="1.97">
        <ele>405</ele>
        <time>2016-11-01T11:33:05.008Z</time>
      </trkpt>
      <trkpt lat="42.95459" lon="1.96993">
        <ele>405</ele>
        <time>2016-11-01T11:33:06.008Z</time>
      </trkpt>
      <trkpt lat="42.95459" lon="1.96986">
        <ele>405</ele>
        <time>2016-11-01T11:33:07.008Z</time>
      </trkpt>
      <trkpt lat="42.95458" lon="1.96979">
        <ele>405</ele>
        <time>2016-11-01T11:33:08.008Z</time>
      </trkpt>
      <trkpt lat="42.95458" lon="1.96972">
        <ele>405</ele>
        <time>2016-11-01T11:33:09.008Z</time>
      </trkpt>
      <trkpt lat="42.95457" lon="1.96965">
        <ele>405</ele>
        <time>2016-11-01T11:33:10.008Z</time>
      </trkpt>
      <trkpt lat="42.95456" lon="1.96959">
        <ele>405</ele>
        <time>2016-11-01T11:33:11.008Z</time>
      </trkpt>
      <trkpt lat="42.95456" lon="1.96952">
        <ele>405</ele>
        <time>2016-11-01T11:33:12.008Z</time>
      </trkpt>
      <trkpt lat="42.95455" lon="1.96945">
        <ele>405</ele>
        <time>2016-11-01T11:33:13.008Z</time>
      </trkpt>
      <trkpt lat="42.95454" lon="1.96938">
        <ele>405</ele>
        <time>2016-11-01T11:33:14.008Z</time>
      </trkpt>
      <trkpt lat="42.95454" lon="1.96931">
        <ele>405</ele>
        <time>2016-11-01T11:33:15.008Z</time>
      </trkpt>
      <trkpt lat="42.95454" lon="1.96924">
        <ele>405</ele>
        <time>2016-11-01T11:33:16.008Z</time>
      </trkpt>
      <trkpt lat="42.95453" lon="1.96917">
        <ele>405</ele>
        <time>2016-11-01T11:33:17.008Z</time>
      </trkpt>
      <trkpt lat="42.95453" lon="1.9691">
        <ele>405</ele>
        <time>2016-11-01T11:33:18.008Z</time>
      </trkpt>
      <trkpt lat="42.95453" lon="1.96903">
        <ele>405</ele>
        <time>2016-11-01T11:33:19.008Z</time>
      </trkpt>
      <trkpt lat="42.95453" lon="1.96895">
        <ele>405</ele>
        <time>2016-11-01T11:33:20.008Z</time>
      </trkpt>
      <trkpt lat="42.95453" lon="1.96888">
        <ele>405.2179968</ele>
        <time>2016-11-01T11:33:21.008Z</time>
      </trkpt>
      <trkpt lat="42.95453" lon="1.96882">
        <ele>406</ele>
        <time>2016-11-01T11:33:22.008Z</time>
      </trkpt>
      <trkpt lat="42.95453" lon="1.96875">
        <ele>406</ele>
        <time>2016-11-01T11:33:23.008Z</time>
      </trkpt>
      <trkpt lat="42.95453" lon="1.96868">
        <ele>406</ele>
        <time>2016-11-01T11:33:24.008Z</time>
      </trkpt>
      <trkpt lat="42.95453" lon="1.96861">
        <ele>406</ele>
        <time>2016-11-01T11:33:25.008Z</time>
      </trkpt>
      <trkpt lat="42.95453" lon="1.96854">
        <ele>406</ele>
        <time>2016-11-01T11:33:26.008Z</time>
      </trkpt>
      <trkpt lat="42.95453" lon="1.96848">
        <ele>406</ele>
        <time>2016-11-01T11:33:27.008Z</time>
      </trkpt>
      <trkpt lat="42.95453" lon="1.96841">
        <ele>406</ele>
        <time>2016-11-01T11:33:28.008Z</time>
      </trkpt>
      <trkpt lat="42.95453" lon="1.96834">
        <ele>406</ele>
        <time>2016-11-01T11:33:29.008Z</time>
      </trkpt>
      <trkpt lat="42.95452" lon="1.96828">
        <ele>406</ele>
        <time>2016-11-01T11:33:30.008Z</time>
      </trkpt>
      <trkpt lat="42.9545" lon="1.96823">
        <ele>406.21583909969</ele>
        <time>2016-11-01T11:33:31.008Z</time>
      </trkpt>
      <trkpt lat="42.95447" lon="1.96819">
        <ele>407</ele>
        <time>2016-11-01T11:33:32.008Z</time>
      </trkpt>
      <trkpt lat="42.95441" lon="1.96816">
        <ele>407</ele>
        <time>2016-11-01T11:33:34.008Z</time>
      </trkpt>
      <trkpt lat="42.95437" lon="1.96814">
        <ele>407</ele>
        <time>2016-11-01T11:33:35.008Z</time>
      </trkpt>
      <trkpt lat="42.95434" lon="1.96813">
        <ele>407</ele>
        <time>2016-11-01T11:33:36.008Z</time>
      </trkpt>
      <trkpt lat="42.9543" lon="1.96811">
        <ele>407</ele>
        <time>2016-11-01T11:33:37.008Z</time>
      </trkpt>
      <trkpt lat="42.95427" lon="1.9681">
        <ele>407</ele>
        <time>2016-11-01T11:33:38.008Z</time>
      </trkpt>
      <trkpt lat="42.95423" lon="1.96808">
        <ele>407</ele>
        <time>2016-11-01T11:33:39.008Z</time>
      </trkpt>
      <trkpt lat="42.95419" lon="1.96806">
        <ele>407</ele>
        <time>2016-11-01T11:33:40.008Z</time>
      </trkpt>
      <trkpt lat="42.95416" lon="1.96804">
        <ele>407</ele>
        <time>2016-11-01T11:33:41.008Z</time>
      </trkpt>
      <trkpt lat="42.95412" lon="1.96803">
        <ele>407</ele>
        <time>2016-11-01T11:33:42.008Z</time>
      </trkpt>
      <trkpt lat="42.95405" lon="1.96799">
        <ele>407</ele>
        <time>2016-11-01T11:33:44.008Z</time>
      </trkpt>
      <trkpt lat="42.95396" lon="1.96796">
        <ele>407</ele>
        <time>2016-11-01T11:33:46.008Z</time>
      </trkpt>
      <trkpt lat="42.95392" lon="1.96794">
        <ele>407</ele>
        <time>2016-11-01T11:33:47.008Z</time>
      </trkpt>
      <trkpt lat="42.95388" lon="1.96792">
        <ele>407</ele>
        <time>2016-11-01T11:33:48.008Z</time>
      </trkpt>
      <trkpt lat="42.95384" lon="1.96791">
        <ele>407</ele>
        <time>2016-11-01T11:33:49.008Z</time>
      </trkpt>
      <trkpt lat="42.95377" lon="1.96788">
        <ele>407.2179968</ele>
        <time>2016-11-01T11:33:51.008Z</time>
      </trkpt>
      <trkpt lat="42.95373" lon="1.96786">
        <ele>408</ele>
        <time>2016-11-01T11:33:52.008Z</time>
      </trkpt>
      <trkpt lat="42.95365" lon="1.96783">
        <ele>408</ele>
        <time>2016-11-01T11:33:54.008Z</time>
      </trkpt>
      <trkpt lat="42.9536" lon="1.9678">
        <ele>408</ele>
        <time>2016-11-01T11:33:55.008Z</time>
      </trkpt>
      <trkpt lat="42.95352" lon="1.96775">
        <ele>408</ele>
        <time>2016-11-01T11:33:57.008Z</time>
      </trkpt>
      <trkpt lat="42.95343" lon="1.96771">
        <ele>408</ele>
        <time>2016-11-01T11:33:59.008Z</time>
      </trkpt>
      <trkpt lat="42.95335" lon="1.96767">
        <ele>408.2179968</ele>
        <time>2016-11-01T11:34:01.008Z</time>
      </trkpt>
      <trkpt lat="42.95327" lon="1.96763">
        <ele>409</ele>
        <time>2016-11-01T11:34:03.008Z</time>
      </trkpt>
      <trkpt lat="42.95319" lon="1.96759">
        <ele>409</ele>
        <time>2016-11-01T11:34:05.008Z</time>
      </trkpt>
      <trkpt lat="42.9531" lon="1.96755">
        <ele>409</ele>
        <time>2016-11-01T11:34:07.008Z</time>
      </trkpt>
      <trkpt lat="42.95302" lon="1.96751">
        <ele>409</ele>
        <time>2016-11-01T11:34:09.008Z</time>
      </trkpt>
      <trkpt lat="42.95294" lon="1.96747">
        <ele>409</ele>
        <time>2016-11-01T11:34:11.008Z</time>
      </trkpt>
      <trkpt lat="42.95286" lon="1.96742">
        <ele>409</ele>
        <time>2016-11-01T11:34:13.008Z</time>
      </trkpt>
      <trkpt lat="42.95278" lon="1.96738">
        <ele>409</ele>
        <time>2016-11-01T11:34:15.008Z</time>
      </trkpt>
      <trkpt lat="42.9527" lon="1.96735">
        <ele>409</ele>
        <time>2016-11-01T11:34:17.008Z</time>
      </trkpt>
      <trkpt lat="42.95264" lon="1.96732">
        <ele>409</ele>
        <time>2016-11-01T11:34:19.008Z</time>
      </trkpt>
      <trkpt lat="42.95257" lon="1.9673">
        <ele>409.8719872</ele>
        <time>2016-11-01T11:34:21.008Z</time>
      </trkpt>
      <trkpt lat="42.95251" lon="1.96727">
        <ele>413</ele>
        <time>2016-11-01T11:34:23.008Z</time>
      </trkpt>
      <trkpt lat="42.95243" lon="1.96722">
        <ele>413.4359936</ele>
        <time>2016-11-01T11:34:26.008Z</time>
      </trkpt>
      <trkpt lat="42.95234" lon="1.96717">
        <ele>415</ele>
        <time>2016-11-01T11:34:29.008Z</time>
      </trkpt>
      <trkpt lat="42.95226" lon="1.96711">
        <ele>415</ele>
        <time>2016-11-01T11:34:32.008Z</time>
      </trkpt>
      <trkpt lat="42.95219" lon="1.96711">
        <ele>415</ele>
        <time>2016-11-01T11:34:35.008Z</time>
      </trkpt>
      <trkpt lat="42.95215" lon="1.96718">
        <ele>415</ele>
        <time>2016-11-01T11:34:37.008Z</time>
      </trkpt>
      <trkpt lat="42.95211" lon="1.96732">
        <ele>415</ele>
        <time>2016-11-01T11:34:40.008Z</time>
      </trkpt>
      <trkpt lat="42.95208" lon="1.96743">
        <ele>415</ele>
        <time>2016-11-01T11:34:42.008Z</time>
      </trkpt>
      <trkpt lat="42.95205" lon="1.96755">
        <ele>415</ele>
        <time>2016-11-01T11:34:44.008Z</time>
      </trkpt>
      <trkpt lat="42.95202" lon="1.96768">
        <ele>415</ele>
        <time>2016-11-01T11:34:46.008Z</time>
      </trkpt>
      <trkpt lat="42.95199" lon="1.96781">
        <ele>415</ele>
        <time>2016-11-01T11:34:48.008Z</time>
      </trkpt>
      <trkpt lat="42.95192" lon="1.96792">
        <ele>415</ele>
        <time>2016-11-01T11:34:50.008Z</time>
      </trkpt>
      <trkpt lat="42.95183" lon="1.96794">
        <ele>415</ele>
        <time>2016-11-01T11:34:52.008Z</time>
      </trkpt>
      <trkpt lat="42.95178" lon="1.96793">
        <ele>415</ele>
        <time>2016-11-01T11:34:53.008Z</time>
      </trkpt>
      <trkpt lat="42.95174" lon="1.96793">
        <ele>415</ele>
        <time>2016-11-01T11:34:54.008Z</time>
      </trkpt>
      <trkpt lat="42.95169" lon="1.96792">
        <ele>415</ele>
        <time>2016-11-01T11:34:55.008Z</time>
      </trkpt>
      <trkpt lat="42.95164" lon="1.96791">
        <ele>415</ele>
        <time>2016-11-01T11:34:56.008Z</time>
      </trkpt>
      <trkpt lat="42.9516" lon="1.96791">
        <ele>415</ele>
        <time>2016-11-01T11:34:57.008Z</time>
      </trkpt>
      <trkpt lat="42.95155" lon="1.96791">
        <ele>415</ele>
        <time>2016-11-01T11:34:58.008Z</time>
      </trkpt>
      <trkpt lat="42.95151" lon="1.96792">
        <ele>415</ele>
        <time>2016-11-01T11:34:59.008Z</time>
      </trkpt>
      <trkpt lat="42.95146" lon="1.96792">
        <ele>415</ele>
        <time>2016-11-01T11:35:00.008Z</time>
      </trkpt>
      <trkpt lat="42.95142" lon="1.96792">
        <ele>415</ele>
        <time>2016-11-01T11:35:01.008Z</time>
      </trkpt>
      <trkpt lat="42.95137" lon="1.96793">
        <ele>415</ele>
        <time>2016-11-01T11:35:02.008Z</time>
      </trkpt>
      <trkpt lat="42.95132" lon="1.96794">
        <ele>415</ele>
        <time>2016-11-01T11:35:03.008Z</time>
      </trkpt>
      <trkpt lat="42.95126" lon="1.96794">
        <ele>415</ele>
        <time>2016-11-01T11:35:04.008Z</time>
      </trkpt>
      <trkpt lat="42.95121" lon="1.96796">
        <ele>415</ele>
        <time>2016-11-01T11:35:05.008Z</time>
      </trkpt>
      <trkpt lat="42.95115" lon="1.96797">
        <ele>415</ele>
        <time>2016-11-01T11:35:06.008Z</time>
      </trkpt>
      <trkpt lat="42.95109" lon="1.96798">
        <ele>415</ele>
        <time>2016-11-01T11:35:07.008Z</time>
      </trkpt>
      <trkpt lat="42.95102" lon="1.968">
        <ele>415</ele>
        <time>2016-11-01T11:35:08.008Z</time>
      </trkpt>
      <trkpt lat="42.95096" lon="1.96801">
        <ele>415</ele>
        <time>2016-11-01T11:35:09.008Z</time>
      </trkpt>
      <trkpt lat="42.95085" lon="1.96806">
        <ele>414.7820032</ele>
        <time>2016-11-01T11:35:11.008Z</time>
      </trkpt>
      <trkpt lat="42.95073" lon="1.9681">
        <ele>414</ele>
        <time>2016-11-01T11:35:13.008Z</time>
      </trkpt>
      <trkpt lat="42.95062" lon="1.96813">
        <ele>414</ele>
        <time>2016-11-01T11:35:15.008Z</time>
      </trkpt>
      <trkpt lat="42.95056" lon="1.96814">
        <ele>414</ele>
        <time>2016-11-01T11:35:16.008Z</time>
      </trkpt>
      <trkpt lat="42.95052" lon="1.96815">
        <ele>414</ele>
        <time>2016-11-01T11:35:17.008Z</time>
      </trkpt>
      <trkpt lat="42.95047" lon="1.96816">
        <ele>414</ele>
        <time>2016-11-01T11:35:18.008Z</time>
      </trkpt>
      <trkpt lat="42.95042" lon="1.96818">
        <ele>414</ele>
        <time>2016-11-01T11:35:19.008Z</time>
      </trkpt>
      <trkpt lat="42.95029" lon="1.96822">
        <ele>413</ele>
        <time>2016-11-01T11:35:22.008Z</time>
      </trkpt>
      <trkpt lat="42.95021" lon="1.96825">
        <ele>413</ele>
        <time>2016-11-01T11:35:24.008Z</time>
      </trkpt>
      <trkpt lat="42.95013" lon="1.96827">
        <ele>413</ele>
        <time>2016-11-01T11:35:26.008Z</time>
      </trkpt>
      <trkpt lat="42.95007" lon="1.9683">
        <ele>413</ele>
        <time>2016-11-01T11:35:29.008Z</time>
      </trkpt>
      <trkpt lat="42.95014" lon="1.96835">
        <ele>414</ele>
        <time>2016-11-01T11:35:37.008Z</time>
      </trkpt>
      <trkpt lat="42.9501" lon="1.96846">
        <ele>414</ele>
        <time>2016-11-01T11:35:41.008Z</time>
      </trkpt>
      <trkpt lat="42.95007" lon="1.96857">
        <ele>414</ele>
        <time>2016-11-01T11:35:44.008Z</time>
      </trkpt>
      <trkpt lat="42.95004" lon="1.96869">
        <ele>414</ele>
        <time>2016-11-01T11:35:47.008Z</time>
      </trkpt>
      <trkpt lat="42.95" lon="1.96881">
        <ele>414</ele>
        <time>2016-11-01T11:35:50.008Z</time>
      </trkpt>
      <trkpt lat="42.94996" lon="1.96893">
        <ele>415</ele>
        <time>2016-11-01T11:35:53.008Z</time>
      </trkpt>
      <trkpt lat="42.94992" lon="1.96904">
        <ele>415</ele>
        <time>2016-11-01T11:35:56.008Z</time>
      </trkpt>
      <trkpt lat="42.94988" lon="1.96915">
        <ele>415</ele>
        <time>2016-11-01T11:35:59.008Z</time>
      </trkpt>
      <trkpt lat="42.94985" lon="1.96928">
        <ele>417</ele>
        <time>2016-11-01T11:36:02.008Z</time>
      </trkpt>
      <trkpt lat="42.94982" lon="1.96941">
        <ele>417</ele>
        <time>2016-11-01T11:36:05.008Z</time>
      </trkpt>
      <trkpt lat="42.94979" lon="1.96954">
        <ele>417</ele>
        <time>2016-11-01T11:36:08.008Z</time>
      </trkpt>
      <trkpt lat="42.94974" lon="1.96968">
        <ele>417.2179968</ele>
        <time>2016-11-01T11:36:11.008Z</time>
      </trkpt>
      <trkpt lat="42.94967" lon="1.9698">
        <ele>418</ele>
        <time>2016-11-01T11:36:14.008Z</time>
      </trkpt>
      <trkpt lat="42.94961" lon="1.96992">
        <ele>418</ele>
        <time>2016-11-01T11:36:17.008Z</time>
      </trkpt>
      <trkpt lat="42.94956" lon="1.97003">
        <ele>418</ele>
        <time>2016-11-01T11:36:20.008Z</time>
      </trkpt>
      <trkpt lat="42.94952" lon="1.97016">
        <ele>419</ele>
        <time>2016-11-01T11:36:23.008Z</time>
      </trkpt>
      <trkpt lat="42.94947" lon="1.97031">
        <ele>419</ele>
        <time>2016-11-01T11:36:27.008Z</time>
      </trkpt>
      <trkpt lat="42.94941" lon="1.97046">
        <ele>419.4359936</ele>
        <time>2016-11-01T11:36:31.008Z</time>
      </trkpt>
      <trkpt lat="42.94936" lon="1.9706">
        <ele>421</ele>
        <time>2016-11-01T11:36:35.008Z</time>
      </trkpt>
      <trkpt lat="42.94932" lon="1.97075">
        <ele>421</ele>
        <time>2016-11-01T11:36:39.008Z</time>
      </trkpt>
      <trkpt lat="42.94928" lon="1.97088">
        <ele>424</ele>
        <time>2016-11-01T11:36:43.008Z</time>
      </trkpt>
      <trkpt lat="42.94923" lon="1.97101">
        <ele>426</ele>
        <time>2016-11-01T11:36:47.008Z</time>
      </trkpt>
      <trkpt lat="42.94918" lon="1.97115">
        <ele>426.2179968</ele>
        <time>2016-11-01T11:36:51.008Z</time>
      </trkpt>
      <trkpt lat="42.94913" lon="1.97127">
        <ele>427</ele>
        <time>2016-11-01T11:36:55.008Z</time>
      </trkpt>
      <trkpt lat="42.94907" lon="1.97138">
        <ele>429</ele>
        <time>2016-11-01T11:36:59.008Z</time>
      </trkpt>
      <trkpt lat="42.94901" lon="1.97149">
        <ele>431</ele>
        <time>2016-11-01T11:37:03.008Z</time>
      </trkpt>
      <trkpt lat="42.94894" lon="1.97161">
        <ele>432</ele>
        <time>2016-11-01T11:37:08.008Z</time>
      </trkpt>
      <trkpt lat="42.94887" lon="1.97172">
        <ele>435</ele>
        <time>2016-11-01T11:37:13.008Z</time>
      </trkpt>
      <trkpt lat="42.94881" lon="1.97184">
        <ele>436</ele>
        <time>2016-11-01T11:37:18.008Z</time>
      </trkpt>
      <trkpt lat="42.94875" lon="1.97195">
        <ele>437</ele>
        <time>2016-11-01T11:37:23.008Z</time>
      </trkpt>
      <trkpt lat="42.9487" lon="1.97209">
        <ele>440</ele>
        <time>2016-11-01T11:37:28.008Z</time>
      </trkpt>
      <trkpt lat="42.94865" lon="1.97223">
        <ele>442</ele>
        <time>2016-11-01T11:37:33.008Z</time>
      </trkpt>
      <trkpt lat="42.9486" lon="1.97235">
        <ele>443</ele>
        <time>2016-11-01T11:37:37.008Z</time>
      </trkpt>
      <trkpt lat="42.94855" lon="1.97247">
        <ele>443.2179968</ele>
        <time>2016-11-01T11:37:41.008Z</time>
      </trkpt>
      <trkpt lat="42.9485" lon="1.97261">
        <ele>444.4359936</ele>
        <time>2016-11-01T11:37:46.008Z</time>
      </trkpt>
      <trkpt lat="42.94845" lon="1.97277">
        <ele>446.2179968</ele>
        <time>2016-11-01T11:37:51.008Z</time>
      </trkpt>
      <trkpt lat="42.94842" lon="1.97286">
        <ele>447</ele>
        <time>2016-11-01T11:37:54.008Z</time>
      </trkpt>
      <trkpt lat="42.94838" lon="1.97299">
        <ele>449</ele>
        <time>2016-11-01T11:37:58.008Z</time>
      </trkpt>
      <trkpt lat="42.94834" lon="1.97312">
        <ele>451</ele>
        <time>2016-11-01T11:38:02.008Z</time>
      </trkpt>
      <trkpt lat="42.94831" lon="1.97327">
        <ele>453</ele>
        <time>2016-11-01T11:38:08.008Z</time>
      </trkpt>
      <trkpt lat="42.94826" lon="1.9734">
        <ele>455</ele>
        <time>2016-11-01T11:38:13.008Z</time>
      </trkpt>
      <trkpt lat="42.94821" lon="1.97348">
        <ele>455.4359936</ele>
        <time>2016-11-01T11:38:16.008Z</time>
      </trkpt>
      <trkpt lat="42.94817" lon="1.9735">
        <ele>457</ele>
        <time>2016-11-01T11:38:18.008Z</time>
      </trkpt>
      <trkpt lat="42.9481" lon="1.97352">
        <ele>457.4359936</ele>
        <time>2016-11-01T11:38:21.008Z</time>
      </trkpt>
      <trkpt lat="42.94806" lon="1.97353">
        <ele>459</ele>
        <time>2016-11-01T11:38:23.008Z</time>
      </trkpt>
      <trkpt lat="42.94802" lon="1.97356">
        <ele>459</ele>
        <time>2016-11-01T11:38:25.008Z</time>
      </trkpt>
      <trkpt lat="42.94796" lon="1.97361">
        <ele>460</ele>
        <time>2016-11-01T11:38:28.008Z</time>
      </trkpt>
      <trkpt lat="42.94792" lon="1.97368">
        <ele>460.4359936</ele>
        <time>2016-11-01T11:38:31.008Z</time>
      </trkpt>
      <trkpt lat="42.94787" lon="1.97381">
        <ele>462</ele>
        <time>2016-11-01T11:38:36.008Z</time>
      </trkpt>
      <trkpt lat="42.94783" lon="1.97392">
        <ele>462</ele>
        <time>2016-11-01T11:38:40.008Z</time>
      </trkpt>
      <trkpt lat="42.9478" lon="1.97401">
        <ele>463</ele>
        <time>2016-11-01T11:38:43.008Z</time>
      </trkpt>
      <trkpt lat="42.94776" lon="1.97412">
        <ele>463</ele>
        <time>2016-11-01T11:38:47.008Z</time>
      </trkpt>
      <trkpt lat="42.94772" lon="1.97424">
        <ele>463.4359936</ele>
        <time>2016-11-01T11:38:51.008Z</time>
      </trkpt>
      <trkpt lat="42.94769" lon="1.97437">
        <ele>465</ele>
        <time>2016-11-01T11:38:55.008Z</time>
      </trkpt>
      <trkpt lat="42.94766" lon="1.9745">
        <ele>465</ele>
        <time>2016-11-01T11:38:59.008Z</time>
      </trkpt>
      <trkpt lat="42.94764" lon="1.97464">
        <ele>467</ele>
        <time>2016-11-01T11:39:03.008Z</time>
      </trkpt>
      <trkpt lat="42.94762" lon="1.97475">
        <ele>467</ele>
        <time>2016-11-01T11:39:06.008Z</time>
      </trkpt>
      <trkpt lat="42.9476" lon="1.97487">
        <ele>467</ele>
        <time>2016-11-01T11:39:09.008Z</time>
      </trkpt>
      <trkpt lat="42.94756" lon="1.97498">
        <ele>468</ele>
        <time>2016-11-01T11:39:12.008Z</time>
      </trkpt>
      <trkpt lat="42.94752" lon="1.97509">
        <ele>468</ele>
        <time>2016-11-01T11:39:15.008Z</time>
      </trkpt>
      <trkpt lat="42.94749" lon="1.9752">
        <ele>468</ele>
        <time>2016-11-01T11:39:18.008Z</time>
      </trkpt>
      <trkpt lat="42.94745" lon="1.97532">
        <ele>468.4359936</ele>
        <time>2016-11-01T11:39:21.008Z</time>
      </trkpt>
      <trkpt lat="42.94741" lon="1.97544">
        <ele>470</ele>
        <time>2016-11-01T11:39:24.008Z</time>
      </trkpt>
      <trkpt lat="42.94738" lon="1.97556">
        <ele>470</ele>
        <time>2016-11-01T11:39:27.008Z</time>
      </trkpt>
      <trkpt lat="42.94734" lon="1.97569">
        <ele>470</ele>
        <time>2016-11-01T11:39:30.008Z</time>
      </trkpt>
      <trkpt lat="42.9473" lon="1.97581">
        <ele>472</ele>
        <time>2016-11-01T11:39:33.008Z</time>
      </trkpt>
      <trkpt lat="42.94726" lon="1.97593">
        <ele>472</ele>
        <time>2016-11-01T11:39:36.008Z</time>
      </trkpt>
      <trkpt lat="42.94722" lon="1.97605">
        <ele>472</ele>
        <time>2016-11-01T11:39:39.008Z</time>
      </trkpt>
      <trkpt lat="42.94718" lon="1.97617">
        <ele>473</ele>
        <time>2016-11-01T11:39:42.008Z</time>
      </trkpt>
      <trkpt lat="42.94715" lon="1.9763">
        <ele>473</ele>
        <time>2016-11-01T11:39:45.008Z</time>
      </trkpt>
      <trkpt lat="42.94711" lon="1.97643">
        <ele>473</ele>
        <time>2016-11-01T11:39:48.008Z</time>
      </trkpt>
      <trkpt lat="42.94705" lon="1.97656">
        <ele>474</ele>
        <time>2016-11-01T11:39:52.008Z</time>
      </trkpt>
      <trkpt lat="42.947" lon="1.97665">
        <ele>474</ele>
        <time>2016-11-01T11:40:02.008Z</time>
      </trkpt>
      <trkpt lat="42.94695" lon="1.97673">
        <ele>474</ele>
        <time>2016-11-01T11:40:44.008Z</time>
      </trkpt>
      <trkpt lat="42.9469" lon="1.97681">
        <ele>474</ele>
        <time>2016-11-01T11:40:48.008Z</time>
      </trkpt>
      <trkpt lat="42.94684" lon="1.97692">
        <ele>474</ele>
        <time>2016-11-01T11:40:52.008Z</time>
      </trkpt>
      <trkpt lat="42.94679" lon="1.97703">
        <ele>474</ele>
        <time>2016-11-01T11:40:55.008Z</time>
      </trkpt>
      <trkpt lat="42.94675" lon="1.97716">
        <ele>474</ele>
        <time>2016-11-01T11:40:58.008Z</time>
      </trkpt>
      <trkpt lat="42.94671" lon="1.9773">
        <ele>474.2179968</ele>
        <time>2016-11-01T11:41:01.008Z</time>
      </trkpt>
      <trkpt lat="42.94668" lon="1.97746">
        <ele>475</ele>
        <time>2016-11-01T11:41:04.008Z</time>
      </trkpt>
      <trkpt lat="42.94665" lon="1.97759">
        <ele>475</ele>
        <time>2016-11-01T11:41:07.008Z</time>
      </trkpt>
      <trkpt lat="42.94663" lon="1.97777">
        <ele>475.4359936</ele>
        <time>2016-11-01T11:41:11.008Z</time>
      </trkpt>
      <trkpt lat="42.94661" lon="1.97792">
        <ele>477</ele>
        <time>2016-11-01T11:41:14.008Z</time>
      </trkpt>
      <trkpt lat="42.94659" lon="1.97806">
        <ele>477</ele>
        <time>2016-11-01T11:41:17.008Z</time>
      </trkpt>
      <trkpt lat="42.94657" lon="1.97819">
        <ele>477</ele>
        <time>2016-11-01T11:41:20.008Z</time>
      </trkpt>
      <trkpt lat="42.94654" lon="1.97834">
        <ele>477</ele>
        <time>2016-11-01T11:41:23.008Z</time>
      </trkpt>
      <trkpt lat="42.94653" lon="1.97848">
        <ele>477</ele>
        <time>2016-11-01T11:41:26.008Z</time>
      </trkpt>
      <trkpt lat="42.9465" lon="1.97861">
        <ele>477</ele>
        <time>2016-11-01T11:41:29.008Z</time>
      </trkpt>
      <trkpt lat="42.94649" lon="1.97879">
        <ele>479</ele>
        <time>2016-11-01T11:41:33.008Z</time>
      </trkpt>
      <trkpt lat="42.94647" lon="1.97894">
        <ele>479</ele>
        <time>2016-11-01T11:41:37.008Z</time>
      </trkpt>
      <trkpt lat="42.94645" lon="1.97907">
        <ele>479</ele>
        <time>2016-11-01T11:41:40.008Z</time>
      </trkpt>
      <trkpt lat="42.94644" lon="1.97925">
        <ele>482</ele>
        <time>2016-11-01T11:41:44.008Z</time>
      </trkpt>
      <trkpt lat="42.94643" lon="1.97942">
        <ele>484</ele>
        <time>2016-11-01T11:41:48.008Z</time>
      </trkpt>
      <trkpt lat="42.94642" lon="1.97958">
        <ele>484</ele>
        <time>2016-11-01T11:41:52.008Z</time>
      </trkpt>
      <trkpt lat="42.94641" lon="1.97972">
        <ele>484</ele>
        <time>2016-11-01T11:41:55.008Z</time>
      </trkpt>
      <trkpt lat="42.9464" lon="1.97987">
        <ele>485</ele>
        <time>2016-11-01T11:41:58.008Z</time>
      </trkpt>
      <trkpt lat="42.9464" lon="1.98005">
        <ele>485</ele>
        <time>2016-11-01T11:42:02.008Z</time>
      </trkpt>
      <trkpt lat="42.94637" lon="1.98019">
        <ele>485</ele>
        <time>2016-11-01T11:42:05.008Z</time>
      </trkpt>
      <trkpt lat="42.94634" lon="1.98036">
        <ele>485</ele>
        <time>2016-11-01T11:42:09.008Z</time>
      </trkpt>
      <trkpt lat="42.94631" lon="1.98049">
        <ele>486</ele>
        <time>2016-11-01T11:42:12.008Z</time>
      </trkpt>
      <trkpt lat="42.94626" lon="1.9806">
        <ele>486</ele>
        <time>2016-11-01T11:42:15.008Z</time>
      </trkpt>
      <trkpt lat="42.94623" lon="1.98045">
        <ele>488</ele>
        <time>2016-11-01T11:42:22.008Z</time>
      </trkpt>
      <trkpt lat="42.94621" lon="1.9803">
        <ele>488</ele>
        <time>2016-11-01T11:42:29.008Z</time>
      </trkpt>
      <trkpt lat="42.94617" lon="1.98017">
        <ele>490</ele>
        <time>2016-11-01T11:42:36.008Z</time>
      </trkpt>
      <trkpt lat="42.94619" lon="1.98003">
        <ele>492</ele>
        <time>2016-11-01T11:42:47.008Z</time>
      </trkpt>
      <trkpt lat="42.94617" lon="1.97988">
        <ele>492</ele>
        <time>2016-11-01T11:42:51.008Z</time>
      </trkpt>
      <trkpt lat="42.94616" lon="1.97972">
        <ele>493</ele>
        <time>2016-11-01T11:42:56.008Z</time>
      </trkpt>
      <trkpt lat="42.9461" lon="1.97958">
        <ele>493.2179968</ele>
        <time>2016-11-01T11:43:01.008Z</time>
      </trkpt>
      <trkpt lat="42.94609" lon="1.97943">
        <ele>494</ele>
        <time>2016-11-01T11:43:06.008Z</time>
      </trkpt>
      <trkpt lat="42.9461" lon="1.97929">
        <ele>494</ele>
        <time>2016-11-01T11:43:10.008Z</time>
      </trkpt>
      <trkpt lat="42.94609" lon="1.97913">
        <ele>495</ele>
        <time>2016-11-01T11:43:14.008Z</time>
      </trkpt>
      <trkpt lat="42.94609" lon="1.97899">
        <ele>495</ele>
        <time>2016-11-01T11:43:18.008Z</time>
      </trkpt>
      <trkpt lat="42.94608" lon="1.97885">
        <ele>495</ele>
        <time>2016-11-01T11:43:22.008Z</time>
      </trkpt>
      <trkpt lat="42.94603" lon="1.9787">
        <ele>495</ele>
        <time>2016-11-01T11:43:26.008Z</time>
      </trkpt>
      <trkpt lat="42.94599" lon="1.97856">
        <ele>495</ele>
        <time>2016-11-01T11:43:30.008Z</time>
      </trkpt>
      <trkpt lat="42.94596" lon="1.97842">
        <ele>497</ele>
        <time>2016-11-01T11:43:35.008Z</time>
      </trkpt>
      <trkpt lat="42.94593" lon="1.97827">
        <ele>497</ele>
        <time>2016-11-01T11:43:40.008Z</time>
      </trkpt>
      <trkpt lat="42.94593" lon="1.97812">
        <ele>499</ele>
        <time>2016-11-01T11:43:45.008Z</time>
      </trkpt>
      <trkpt lat="42.94591" lon="1.97799">
        <ele>499</ele>
        <time>2016-11-01T11:43:50.008Z</time>
      </trkpt>
      <trkpt lat="42.94587" lon="1.97784">
        <ele>501</ele>
        <time>2016-11-01T11:43:57.008Z</time>
      </trkpt>
      <trkpt lat="42.94587" lon="1.97769">
        <ele>504</ele>
        <time>2016-11-01T11:44:03.008Z</time>
      </trkpt>
      <trkpt lat="42.94586" lon="1.97755">
        <ele>506</ele>
        <time>2016-11-01T11:44:08.008Z</time>
      </trkpt>
      <trkpt lat="42.94584" lon="1.97739">
        <ele>506</ele>
        <time>2016-11-01T11:44:13.008Z</time>
      </trkpt>
      <trkpt lat="42.94582" lon="1.97723">
        <ele>506</ele>
        <time>2016-11-01T11:44:19.008Z</time>
      </trkpt>
      <trkpt lat="42.9458" lon="1.9771">
        <ele>508</ele>
        <time>2016-11-01T11:44:24.008Z</time>
      </trkpt>
      <trkpt lat="42.94579" lon="1.97693">
        <ele>508</ele>
        <time>2016-11-01T11:44:29.008Z</time>
      </trkpt>
      <trkpt lat="42.94578" lon="1.97679">
        <ele>511</ele>
        <time>2016-11-01T11:44:34.008Z</time>
      </trkpt>
      <trkpt lat="42.94577" lon="1.97663">
        <ele>512</ele>
        <time>2016-11-01T11:44:40.008Z</time>
      </trkpt>
      <trkpt lat="42.94577" lon="1.97648">
        <ele>513</ele>
        <time>2016-11-01T11:44:45.008Z</time>
      </trkpt>
      <trkpt lat="42.94576" lon="1.97633">
        <ele>514</ele>
        <time>2016-11-01T11:44:50.008Z</time>
      </trkpt>
      <trkpt lat="42.94576" lon="1.97617">
        <ele>515</ele>
        <time>2016-11-01T11:44:55.008Z</time>
      </trkpt>
      <trkpt lat="42.94573" lon="1.97602">
        <ele>515</ele>
        <time>2016-11-01T11:45:00.008Z</time>
      </trkpt>
      <trkpt lat="42.94572" lon="1.97587">
        <ele>516</ele>
        <time>2016-11-01T11:45:05.008Z</time>
      </trkpt>
      <trkpt lat="42.94571" lon="1.97571">
        <ele>516.6539904</ele>
        <time>2016-11-01T11:45:11.008Z</time>
      </trkpt>
      <trkpt lat="42.94568" lon="1.97559">
        <ele>519</ele>
        <time>2016-11-01T11:45:15.008Z</time>
      </trkpt>
      <trkpt lat="42.94566" lon="1.97548">
        <ele>521</ele>
        <time>2016-11-01T11:45:19.008Z</time>
      </trkpt>
      <trkpt lat="42.94563" lon="1.97535">
        <ele>521</ele>
        <time>2016-11-01T11:45:23.008Z</time>
      </trkpt>
      <trkpt lat="42.9456" lon="1.97523">
        <ele>522</ele>
        <time>2016-11-01T11:45:28.008Z</time>
      </trkpt>
      <trkpt lat="42.94554" lon="1.97509">
        <ele>522</ele>
        <time>2016-11-01T11:45:32.008Z</time>
      </trkpt>
      <trkpt lat="42.94545" lon="1.975">
        <ele>522</ele>
        <time>2016-11-01T11:45:37.008Z</time>
      </trkpt>
      <trkpt lat="42.9454" lon="1.97513">
        <ele>524</ele>
        <time>2016-11-01T11:45:44.008Z</time>
      </trkpt>
      <trkpt lat="42.94534" lon="1.97527">
        <ele>524</ele>
        <time>2016-11-01T11:45:49.008Z</time>
      </trkpt>
      <trkpt lat="42.94529" lon="1.97538">
        <ele>527</ele>
        <time>2016-11-01T11:45:54.008Z</time>
      </trkpt>
      <trkpt lat="42.94522" lon="1.9755">
        <ele>529</ele>
        <time>2016-11-01T11:46:00.008Z</time>
      </trkpt>
      <trkpt lat="42.9452" lon="1.97563">
        <ele>529</ele>
        <time>2016-11-01T11:46:05.008Z</time>
      </trkpt>
      <trkpt lat="42.94524" lon="1.97577">
        <ele>531</ele>
        <time>2016-11-01T11:46:12.008Z</time>
      </trkpt>
      <trkpt lat="42.9452" lon="1.97591">
        <ele>534</ele>
        <time>2016-11-01T11:46:17.008Z</time>
      </trkpt>
      <trkpt lat="42.94514" lon="1.97604">
        <ele>535</ele>
        <time>2016-11-01T11:46:22.008Z</time>
      </trkpt>
      <trkpt lat="42.9451" lon="1.97617">
        <ele>536</ele>
        <time>2016-11-01T11:46:27.008Z</time>
      </trkpt>
      <trkpt lat="42.94508" lon="1.97631">
        <ele>537</ele>
        <time>2016-11-01T11:46:32.008Z</time>
      </trkpt>
      <trkpt lat="42.94507" lon="1.97645">
        <ele>539</ele>
        <time>2016-11-01T11:46:37.008Z</time>
      </trkpt>
      <trkpt lat="42.94505" lon="1.97661">
        <ele>539</ele>
        <time>2016-11-01T11:46:42.008Z</time>
      </trkpt>
      <trkpt lat="42.94502" lon="1.97674">
        <ele>539</ele>
        <time>2016-11-01T11:46:46.008Z</time>
      </trkpt>
      <trkpt lat="42.94499" lon="1.97688">
        <ele>539.21010033099</ele>
        <time>2016-11-01T11:46:51.008Z</time>
      </trkpt>
      <trkpt lat="42.94495" lon="1.97701">
        <ele>540</ele>
        <time>2016-11-01T11:46:56.008Z</time>
      </trkpt>
      <trkpt lat="42.94492" lon="1.97714">
        <ele>540.8719872</ele>
        <time>2016-11-01T11:47:01.008Z</time>
      </trkpt>
      <trkpt lat="42.94483" lon="1.97714">
        <ele>544</ele>
        <time>2016-11-01T11:47:07.008Z</time>
      </trkpt>
      <trkpt lat="42.94475" lon="1.97707">
        <ele>544</ele>
        <time>2016-11-01T11:47:11.008Z</time>
      </trkpt>
      <trkpt lat="42.94468" lon="1.97702">
        <ele>544</ele>
        <time>2016-11-01T11:47:14.008Z</time>
      </trkpt>
      <trkpt lat="42.94461" lon="1.97696">
        <ele>544</ele>
        <time>2016-11-01T11:47:17.008Z</time>
      </trkpt>
      <trkpt lat="42.9445" lon="1.97691">
        <ele>544</ele>
        <time>2016-11-01T11:47:21.008Z</time>
      </trkpt>
      <trkpt lat="42.9444" lon="1.97687">
        <ele>544</ele>
        <time>2016-11-01T11:47:25.008Z</time>
      </trkpt>
      <trkpt lat="42.9443" lon="1.97682">
        <ele>544</ele>
        <time>2016-11-01T11:47:29.008Z</time>
      </trkpt>
      <trkpt lat="42.94423" lon="1.97678">
        <ele>545</ele>
        <time>2016-11-01T11:47:32.008Z</time>
      </trkpt>
      <trkpt lat="42.94418" lon="1.97675">
        <ele>545</ele>
        <time>2016-11-01T11:47:34.008Z</time>
      </trkpt>
      <trkpt lat="42.9441" lon="1.9768">
        <ele>545</ele>
        <time>2016-11-01T11:47:46.008Z</time>
      </trkpt>
      <trkpt lat="42.94411" lon="1.97673">
        <ele>545</ele>
        <time>2016-11-01T11:47:59.008Z</time>
      </trkpt>
      <trkpt lat="42.94408" lon="1.97665">
        <ele>545</ele>
        <time>2016-11-01T11:49:36.008Z</time>
      </trkpt>
      <trkpt lat="42.94403" lon="1.97657">
        <ele>545</ele>
        <time>2016-11-01T11:49:39.008Z</time>
      </trkpt>
      <trkpt lat="42.94398" lon="1.9765">
        <ele>544.1280128</ele>
        <time>2016-11-01T11:49:41.008Z</time>
      </trkpt>
      <trkpt lat="42.94394" lon="1.97642">
        <ele>541</ele>
        <time>2016-11-01T11:49:43.008Z</time>
      </trkpt>
      <trkpt lat="42.9439" lon="1.97633">
        <ele>541</ele>
        <time>2016-11-01T11:49:45.008Z</time>
      </trkpt>
      <trkpt lat="42.94387" lon="1.97625">
        <ele>538</ele>
        <time>2016-11-01T11:49:47.008Z</time>
      </trkpt>
      <trkpt lat="42.94384" lon="1.97618">
        <ele>538</ele>
        <time>2016-11-01T11:49:49.008Z</time>
      </trkpt>
      <trkpt lat="42.94377" lon="1.97627">
        <ele>533</ele>
        <time>2016-11-01T11:49:55.008Z</time>
      </trkpt>
      <trkpt lat="42.94376" lon="1.97634">
        <ele>533</ele>
        <time>2016-11-01T11:49:57.008Z</time>
      </trkpt>
      <trkpt lat="42.94373" lon="1.97643">
        <ele>532.7820032</ele>
        <time>2016-11-01T11:49:59.008Z</time>
      </trkpt>
      <trkpt lat="42.94369" lon="1.97653">
        <ele>532</ele>
        <time>2016-11-01T11:50:01.008Z</time>
      </trkpt>
      <trkpt lat="42.94367" lon="1.97659">
        <ele>532</ele>
        <time>2016-11-01T11:50:02.008Z</time>
      </trkpt>
      <trkpt lat="42.94364" lon="1.97665">
        <ele>532</ele>
        <time>2016-11-01T11:50:03.008Z</time>
      </trkpt>
      <trkpt lat="42.94361" lon="1.97673">
        <ele>532</ele>
        <time>2016-11-01T11:50:04.008Z</time>
      </trkpt>
      <trkpt lat="42.94358" lon="1.97681">
        <ele>532</ele>
        <time>2016-11-01T11:50:05.008Z</time>
      </trkpt>
      <trkpt lat="42.94355" lon="1.9769">
        <ele>532</ele>
        <time>2016-11-01T11:50:06.008Z</time>
      </trkpt>
      <trkpt lat="42.94351" lon="1.97699">
        <ele>532</ele>
        <time>2016-11-01T11:50:07.008Z</time>
      </trkpt>
      <trkpt lat="42.94348" lon="1.97708">
        <ele>532</ele>
        <time>2016-11-01T11:50:08.008Z</time>
      </trkpt>
      <trkpt lat="42.94344" lon="1.97717">
        <ele>532</ele>
        <time>2016-11-01T11:50:09.008Z</time>
      </trkpt>
      <trkpt lat="42.9434" lon="1.97726">
        <ele>532</ele>
        <time>2016-11-01T11:50:10.008Z</time>
      </trkpt>
      <trkpt lat="42.94336" lon="1.97734">
        <ele>531.1280128</ele>
        <time>2016-11-01T11:50:11.008Z</time>
      </trkpt>
      <trkpt lat="42.94332" lon="1.97742">
        <ele>528</ele>
        <time>2016-11-01T11:50:12.008Z</time>
      </trkpt>
      <trkpt lat="42.94326" lon="1.97755">
        <ele>528</ele>
        <time>2016-11-01T11:50:14.008Z</time>
      </trkpt>
      <trkpt lat="42.94321" lon="1.97766">
        <ele>527.1280128</ele>
        <time>2016-11-01T11:50:16.008Z</time>
      </trkpt>
      <trkpt lat="42.94316" lon="1.97775">
        <ele>524</ele>
        <time>2016-11-01T11:50:18.008Z</time>
      </trkpt>
      <trkpt lat="42.94311" lon="1.97786">
        <ele>524</ele>
        <time>2016-11-01T11:50:20.008Z</time>
      </trkpt>
      <trkpt lat="42.94304" lon="1.97796">
        <ele>522.78989966901</ele>
        <time>2016-11-01T11:50:22.008Z</time>
      </trkpt>
      <trkpt lat="42.94298" lon="1.97806">
        <ele>522</ele>
        <time>2016-11-01T11:50:24.008Z</time>
      </trkpt>
      <trkpt lat="42.94292" lon="1.97817">
        <ele>523</ele>
        <time>2016-11-01T11:50:26.008Z</time>
      </trkpt>
      <trkpt lat="42.94289" lon="1.97822">
        <ele>523</ele>
        <time>2016-11-01T11:50:27.008Z</time>
      </trkpt>
      <trkpt lat="42.94284" lon="1.97833">
        <ele>522</ele>
        <time>2016-11-01T11:50:29.008Z</time>
      </trkpt>
      <trkpt lat="42.94279" lon="1.97844">
        <ele>522</ele>
        <time>2016-11-01T11:50:31.008Z</time>
      </trkpt>
      <trkpt lat="42.94273" lon="1.97852">
        <ele>522</ele>
        <time>2016-11-01T11:50:33.008Z</time>
      </trkpt>
      <trkpt lat="42.94269" lon="1.97862">
        <ele>522</ele>
        <time>2016-11-01T11:50:35.008Z</time>
      </trkpt>
      <trkpt lat="42.94265" lon="1.97871">
        <ele>522</ele>
        <time>2016-11-01T11:50:37.008Z</time>
      </trkpt>
      <trkpt lat="42.94261" lon="1.9788">
        <ele>522</ele>
        <time>2016-11-01T11:50:39.008Z</time>
      </trkpt>
      <trkpt lat="42.94257" lon="1.97888">
        <ele>522.2179968</ele>
        <time>2016-11-01T11:50:41.008Z</time>
      </trkpt>
      <trkpt lat="42.94254" lon="1.97897">
        <ele>523</ele>
        <time>2016-11-01T11:50:43.008Z</time>
      </trkpt>
      <trkpt lat="42.9425" lon="1.97906">
        <ele>523</ele>
        <time>2016-11-01T11:50:45.008Z</time>
      </trkpt>
      <trkpt lat="42.94247" lon="1.97915">
        <ele>523</ele>
        <time>2016-11-01T11:50:47.008Z</time>
      </trkpt>
      <trkpt lat="42.94245" lon="1.97924">
        <ele>523</ele>
        <time>2016-11-01T11:50:49.008Z</time>
      </trkpt>
      <trkpt lat="42.94242" lon="1.97934">
        <ele>523.2179968</ele>
        <time>2016-11-01T11:50:51.008Z</time>
      </trkpt>
      <trkpt lat="42.94239" lon="1.97943">
        <ele>524</ele>
        <time>2016-11-01T11:50:53.008Z</time>
      </trkpt>
      <trkpt lat="42.94236" lon="1.97952">
        <ele>524</ele>
        <time>2016-11-01T11:50:55.008Z</time>
      </trkpt>
      <trkpt lat="42.94235" lon="1.97962">
        <ele>524</ele>
        <time>2016-11-01T11:50:57.008Z</time>
      </trkpt>
      <trkpt lat="42.94232" lon="1.97971">
        <ele>524</ele>
        <time>2016-11-01T11:50:59.008Z</time>
      </trkpt>
      <trkpt lat="42.9423" lon="1.97981">
        <ele>524</ele>
        <time>2016-11-01T11:51:01.008Z</time>
      </trkpt>
      <trkpt lat="42.94229" lon="1.97991">
        <ele>524</ele>
        <time>2016-11-01T11:51:03.008Z</time>
      </trkpt>
      <trkpt lat="42.94229" lon="1.98002">
        <ele>524</ele>
        <time>2016-11-01T11:51:05.008Z</time>
      </trkpt>
      <trkpt lat="42.94228" lon="1.98013">
        <ele>524</ele>
        <time>2016-11-01T11:51:07.008Z</time>
      </trkpt>
      <trkpt lat="42.94227" lon="1.98024">
        <ele>524</ele>
        <time>2016-11-01T11:51:09.008Z</time>
      </trkpt>
      <trkpt lat="42.94227" lon="1.98035">
        <ele>524.4359936</ele>
        <time>2016-11-01T11:51:11.008Z</time>
      </trkpt>
      <trkpt lat="42.94227" lon="1.98044">
        <ele>526</ele>
        <time>2016-11-01T11:51:13.008Z</time>
      </trkpt>
      <trkpt lat="42.94227" lon="1.98054">
        <ele>526</ele>
        <time>2016-11-01T11:51:15.008Z</time>
      </trkpt>
      <trkpt lat="42.94227" lon="1.98064">
        <ele>526</ele>
        <time>2016-11-01T11:51:17.008Z</time>
      </trkpt>
      <trkpt lat="42.94226" lon="1.98075">
        <ele>526</ele>
        <time>2016-11-01T11:51:19.008Z</time>
      </trkpt>
      <trkpt lat="42.94225" lon="1.98086">
        <ele>526.2179968</ele>
        <time>2016-11-01T11:51:21.008Z</time>
      </trkpt>
      <trkpt lat="42.94224" lon="1.98096">
        <ele>527</ele>
        <time>2016-11-01T11:51:23.008Z</time>
      </trkpt>
      <trkpt lat="42.94223" lon="1.98107">
        <ele>527</ele>
        <time>2016-11-01T11:51:25.008Z</time>
      </trkpt>
      <trkpt lat="42.94222" lon="1.98118">
        <ele>527</ele>
        <time>2016-11-01T11:51:27.008Z</time>
      </trkpt>
      <trkpt lat="42.94221" lon="1.9813">
        <ele>527</ele>
        <time>2016-11-01T11:51:29.008Z</time>
      </trkpt>
      <trkpt lat="42.94221" lon="1.98141">
        <ele>527.2179968</ele>
        <time>2016-11-01T11:51:31.008Z</time>
      </trkpt>
      <trkpt lat="42.9422" lon="1.98151">
        <ele>528</ele>
        <time>2016-11-01T11:51:33.008Z</time>
      </trkpt>
      <trkpt lat="42.94219" lon="1.98161">
        <ele>528</ele>
        <time>2016-11-01T11:51:35.008Z</time>
      </trkpt>
      <trkpt lat="42.94217" lon="1.98171">
        <ele>528</ele>
        <time>2016-11-01T11:51:37.008Z</time>
      </trkpt>
      <trkpt lat="42.94214" lon="1.98181">
        <ele>528</ele>
        <time>2016-11-01T11:51:39.008Z</time>
      </trkpt>
      <trkpt lat="42.9421" lon="1.9819">
        <ele>528.21583909969</ele>
        <time>2016-11-01T11:51:41.008Z</time>
      </trkpt>
      <trkpt lat="42.94206" lon="1.98199">
        <ele>529</ele>
        <time>2016-11-01T11:51:43.008Z</time>
      </trkpt>
      <trkpt lat="42.94201" lon="1.9821">
        <ele>529</ele>
        <time>2016-11-01T11:51:45.008Z</time>
      </trkpt>
      <trkpt lat="42.942" lon="1.98216">
        <ele>529</ele>
        <time>2016-11-01T11:51:46.008Z</time>
      </trkpt>
      <trkpt lat="42.94198" lon="1.98223">
        <ele>529</ele>
        <time>2016-11-01T11:51:47.008Z</time>
      </trkpt>
      <trkpt lat="42.94197" lon="1.9823">
        <ele>529</ele>
        <time>2016-11-01T11:51:48.008Z</time>
      </trkpt>
      <trkpt lat="42.94197" lon="1.98238">
        <ele>529</ele>
        <time>2016-11-01T11:51:49.008Z</time>
      </trkpt>
      <trkpt lat="42.94194" lon="1.98254">
        <ele>528.7820032</ele>
        <time>2016-11-01T11:51:51.008Z</time>
      </trkpt>
      <trkpt lat="42.94193" lon="1.98262">
        <ele>528</ele>
        <time>2016-11-01T11:51:52.008Z</time>
      </trkpt>
      <trkpt lat="42.94191" lon="1.98269">
        <ele>528</ele>
        <time>2016-11-01T11:51:53.008Z</time>
      </trkpt>
      <trkpt lat="42.94189" lon="1.98276">
        <ele>528</ele>
        <time>2016-11-01T11:51:54.008Z</time>
      </trkpt>
      <trkpt lat="42.94187" lon="1.98283">
        <ele>528</ele>
        <time>2016-11-01T11:51:55.008Z</time>
      </trkpt>
      <trkpt lat="42.94185" lon="1.9829">
        <ele>528</ele>
        <time>2016-11-01T11:51:56.008Z</time>
      </trkpt>
      <trkpt lat="42.94184" lon="1.98297">
        <ele>528</ele>
        <time>2016-11-01T11:51:57.008Z</time>
      </trkpt>
      <trkpt lat="42.94183" lon="1.98303">
        <ele>528</ele>
        <time>2016-11-01T11:51:58.008Z</time>
      </trkpt>
      <trkpt lat="42.94181" lon="1.98309">
        <ele>528</ele>
        <time>2016-11-01T11:51:59.008Z</time>
      </trkpt>
      <trkpt lat="42.94179" lon="1.98315">
        <ele>528</ele>
        <time>2016-11-01T11:52:00.008Z</time>
      </trkpt>
      <trkpt lat="42.94176" lon="1.9832">
        <ele>528</ele>
        <time>2016-11-01T11:52:01.008Z</time>
      </trkpt>
      <trkpt lat="42.9417" lon="1.98328">
        <ele>528</ele>
        <time>2016-11-01T11:52:03.008Z</time>
      </trkpt>
      <trkpt lat="42.94167" lon="1.98332">
        <ele>528</ele>
        <time>2016-11-01T11:52:04.008Z</time>
      </trkpt>
      <trkpt lat="42.94165" lon="1.98336">
        <ele>528</ele>
        <time>2016-11-01T11:52:05.008Z</time>
      </trkpt>
      <trkpt lat="42.94162" lon="1.98345">
        <ele>528</ele>
        <time>2016-11-01T11:52:07.008Z</time>
      </trkpt>
      <trkpt lat="42.94161" lon="1.98358">
        <ele>528</ele>
        <time>2016-11-01T11:52:10.008Z</time>
      </trkpt>
      <trkpt lat="42.9416" lon="1.98369">
        <ele>532</ele>
        <time>2016-11-01T11:52:13.008Z</time>
      </trkpt>
      <trkpt lat="42.9416" lon="1.9838">
        <ele>532.4359936</ele>
        <time>2016-11-01T11:52:16.008Z</time>
      </trkpt>
      <trkpt lat="42.9416" lon="1.98391">
        <ele>534</ele>
        <time>2016-11-01T11:52:19.008Z</time>
      </trkpt>
      <trkpt lat="42.9416" lon="1.98402">
        <ele>536</ele>
        <time>2016-11-01T11:52:22.008Z</time>
      </trkpt>
      <trkpt lat="42.94159" lon="1.98413">
        <ele>536</ele>
        <time>2016-11-01T11:52:25.008Z</time>
      </trkpt>
      <trkpt lat="42.94159" lon="1.9842">
        <ele>538</ele>
        <time>2016-11-01T11:52:27.008Z</time>
      </trkpt>
      <trkpt lat="42.94158" lon="1.98428">
        <ele>538</ele>
        <time>2016-11-01T11:52:29.008Z</time>
      </trkpt>
      <trkpt lat="42.94158" lon="1.98435">
        <ele>538.2179968</ele>
        <time>2016-11-01T11:52:31.008Z</time>
      </trkpt>
      <trkpt lat="42.94157" lon="1.98443">
        <ele>539</ele>
        <time>2016-11-01T11:52:33.008Z</time>
      </trkpt>
      <trkpt lat="42.94154" lon="1.98452">
        <ele>539</ele>
        <time>2016-11-01T11:52:35.008Z</time>
      </trkpt>
      <trkpt lat="42.94152" lon="1.98456">
        <ele>538.7820032</ele>
        <time>2016-11-01T11:52:36.008Z</time>
      </trkpt>
      <trkpt lat="42.94149" lon="1.98461">
        <ele>538</ele>
        <time>2016-11-01T11:52:37.008Z</time>
      </trkpt>
      <trkpt lat="42.94142" lon="1.98469">
        <ele>538</ele>
        <time>2016-11-01T11:52:39.008Z</time>
      </trkpt>
      <trkpt lat="42.94137" lon="1.98472">
        <ele>538</ele>
        <time>2016-11-01T11:52:40.008Z</time>
      </trkpt>
      <trkpt lat="42.94133" lon="1.98475">
        <ele>536.910016</ele>
        <time>2016-11-01T11:52:41.008Z</time>
      </trkpt>
      <trkpt lat="42.94127" lon="1.98477">
        <ele>532.7820032</ele>
        <time>2016-11-01T11:52:42.008Z</time>
      </trkpt>
      <trkpt lat="42.94116" lon="1.98479">
        <ele>530.7820032</ele>
        <time>2016-11-01T11:52:44.008Z</time>
      </trkpt>
      <trkpt lat="42.94105" lon="1.98482">
        <ele>528.7820032</ele>
        <time>2016-11-01T11:52:46.008Z</time>
      </trkpt>
      <trkpt lat="42.94094" lon="1.98488">
        <ele>527.7820032</ele>
        <time>2016-11-01T11:52:48.008Z</time>
      </trkpt>
      <trkpt lat="42.94086" lon="1.985">
        <ele>527</ele>
        <time>2016-11-01T11:52:50.008Z</time>
      </trkpt>
      <trkpt lat="42.94082" lon="1.98507">
        <ele>526.7820032</ele>
        <time>2016-11-01T11:52:51.008Z</time>
      </trkpt>
      <trkpt lat="42.94079" lon="1.98515">
        <ele>525.7820032</ele>
        <time>2016-11-01T11:52:52.008Z</time>
      </trkpt>
      <trkpt lat="42.94073" lon="1.98529">
        <ele>523.5640064</ele>
        <time>2016-11-01T11:52:54.008Z</time>
      </trkpt>
      <trkpt lat="42.94068" lon="1.98544">
        <ele>520.7820032</ele>
        <time>2016-11-01T11:52:56.008Z</time>
      </trkpt>
      <trkpt lat="42.94068" lon="1.98561">
        <ele>520</ele>
        <time>2016-11-01T11:52:58.008Z</time>
      </trkpt>
      <trkpt lat="42.94068" lon="1.9858">
        <ele>519</ele>
        <time>2016-11-01T11:53:00.008Z</time>
      </trkpt>
      <trkpt lat="42.94067" lon="1.98589">
        <ele>518.5640064</ele>
        <time>2016-11-01T11:53:01.008Z</time>
      </trkpt>
      <trkpt lat="42.94066" lon="1.98608">
        <ele>518</ele>
        <time>2016-11-01T11:53:03.008Z</time>
      </trkpt>
      <trkpt lat="42.94065" lon="1.98624">
        <ele>515.5725526121</ele>
        <time>2016-11-01T11:53:05.008Z</time>
      </trkpt>
      <trkpt lat="42.94057" lon="1.98631">
        <ele>513.7820032</ele>
        <time>2016-11-01T11:53:07.008Z</time>
      </trkpt>
      <trkpt lat="42.94049" lon="1.98619">
        <ele>512</ele>
        <time>2016-11-01T11:53:09.008Z</time>
      </trkpt>
      <trkpt lat="42.94046" lon="1.98611">
        <ele>511.7820032</ele>
        <time>2016-11-01T11:53:10.008Z</time>
      </trkpt>
      <trkpt lat="42.94042" lon="1.98603">
        <ele>510.7820032</ele>
        <time>2016-11-01T11:53:11.008Z</time>
      </trkpt>
      <trkpt lat="42.94038" lon="1.98595">
        <ele>510</ele>
        <time>2016-11-01T11:53:12.008Z</time>
      </trkpt>
      <trkpt lat="42.94032" lon="1.98588">
        <ele>510</ele>
        <time>2016-11-01T11:53:13.008Z</time>
      </trkpt>
      <trkpt lat="42.94017" lon="1.98583">
        <ele>509.7820032</ele>
        <time>2016-11-01T11:53:15.008Z</time>
      </trkpt>
      <trkpt lat="42.94" lon="1.98581">
        <ele>508.5640064</ele>
        <time>2016-11-01T11:53:17.008Z</time>
      </trkpt>
      <trkpt lat="42.93992" lon="1.98583">
        <ele>507</ele>
        <time>2016-11-01T11:53:18.008Z</time>
      </trkpt>
      <trkpt lat="42.93983" lon="1.98586">
        <ele>506.7820032</ele>
        <time>2016-11-01T11:53:19.008Z</time>
      </trkpt>
      <trkpt lat="42.93974" lon="1.9859">
        <ele>506</ele>
        <time>2016-11-01T11:53:20.008Z</time>
      </trkpt>
      <trkpt lat="42.93965" lon="1.98594">
        <ele>506</ele>
        <time>2016-11-01T11:53:21.008Z</time>
      </trkpt>
      <trkpt lat="42.93955" lon="1.98595">
        <ele>506</ele>
        <time>2016-11-01T11:53:22.008Z</time>
      </trkpt>
      <trkpt lat="42.93946" lon="1.98593">
        <ele>506</ele>
        <time>2016-11-01T11:53:23.008Z</time>
      </trkpt>
      <trkpt lat="42.93938" lon="1.98589">
        <ele>506</ele>
        <time>2016-11-01T11:53:24.008Z</time>
      </trkpt>
      <trkpt lat="42.9393" lon="1.98585">
        <ele>506</ele>
        <time>2016-11-01T11:53:25.008Z</time>
      </trkpt>
      <trkpt lat="42.93923" lon="1.98584">
        <ele>505.3460096</ele>
        <time>2016-11-01T11:53:26.008Z</time>
      </trkpt>
      <trkpt lat="42.93916" lon="1.98587">
        <ele>503</ele>
        <time>2016-11-01T11:53:27.008Z</time>
      </trkpt>
      <trkpt lat="42.93912" lon="1.98593">
        <ele>503</ele>
        <time>2016-11-01T11:53:28.008Z</time>
      </trkpt>
      <trkpt lat="42.93909" lon="1.98603">
        <ele>503</ele>
        <time>2016-11-01T11:53:29.008Z</time>
      </trkpt>
      <trkpt lat="42.9391" lon="1.98613">
        <ele>503</ele>
        <time>2016-11-01T11:53:30.008Z</time>
      </trkpt>
      <trkpt lat="42.93921" lon="1.98629">
        <ele>499.7820032</ele>
        <time>2016-11-01T11:53:32.008Z</time>
      </trkpt>
      <trkpt lat="42.93936" lon="1.98639">
        <ele>499</ele>
        <time>2016-11-01T11:53:34.008Z</time>
      </trkpt>
      <trkpt lat="42.93952" lon="1.98647">
        <ele>498.7820032</ele>
        <time>2016-11-01T11:53:36.008Z</time>
      </trkpt>
      <trkpt lat="42.93968" lon="1.98652">
        <ele>498</ele>
        <time>2016-11-01T11:53:38.008Z</time>
      </trkpt>
      <trkpt lat="42.93976" lon="1.98651">
        <ele>498</ele>
        <time>2016-11-01T11:53:39.008Z</time>
      </trkpt>
      <trkpt lat="42.93983" lon="1.9865">
        <ele>498</ele>
        <time>2016-11-01T11:53:40.008Z</time>
      </trkpt>
      <trkpt lat="42.93991" lon="1.9865">
        <ele>498</ele>
        <time>2016-11-01T11:53:41.008Z</time>
      </trkpt>
      <trkpt lat="42.93999" lon="1.98653">
        <ele>498</ele>
        <time>2016-11-01T11:53:42.008Z</time>
      </trkpt>
      <trkpt lat="42.94005" lon="1.98659">
        <ele>498</ele>
        <time>2016-11-01T11:53:43.008Z</time>
      </trkpt>
      <trkpt lat="42.9401" lon="1.98667">
        <ele>498</ele>
        <time>2016-11-01T11:53:44.008Z</time>
      </trkpt>
      <trkpt lat="42.94014" lon="1.98675">
        <ele>498</ele>
        <time>2016-11-01T11:53:45.008Z</time>
      </trkpt>
      <trkpt lat="42.94018" lon="1.98684">
        <ele>497.7820032</ele>
        <time>2016-11-01T11:53:46.008Z</time>
      </trkpt>
      <trkpt lat="42.94022" lon="1.98693">
        <ele>497</ele>
        <time>2016-11-01T11:53:47.008Z</time>
      </trkpt>
      <trkpt lat="42.94027" lon="1.98701">
        <ele>497</ele>
        <time>2016-11-01T11:53:48.008Z</time>
      </trkpt>
      <trkpt lat="42.94032" lon="1.98709">
        <ele>497</ele>
        <time>2016-11-01T11:53:49.008Z</time>
      </trkpt>
      <trkpt lat="42.94037" lon="1.98716">
        <ele>497</ele>
        <time>2016-11-01T11:53:50.008Z</time>
      </trkpt>
      <trkpt lat="42.94044" lon="1.98722">
        <ele>496.3460096</ele>
        <time>2016-11-01T11:53:51.008Z</time>
      </trkpt>
      <trkpt lat="42.9405" lon="1.98726">
        <ele>494</ele>
        <time>2016-11-01T11:53:52.008Z</time>
      </trkpt>
      <trkpt lat="42.94058" lon="1.98729">
        <ele>494</ele>
        <time>2016-11-01T11:53:53.008Z</time>
      </trkpt>
      <trkpt lat="42.94065" lon="1.9873">
        <ele>494</ele>
        <time>2016-11-01T11:53:54.008Z</time>
      </trkpt>
      <trkpt lat="42.94072" lon="1.9873">
        <ele>494</ele>
        <time>2016-11-01T11:53:55.008Z</time>
      </trkpt>
      <trkpt lat="42.9408" lon="1.98727">
        <ele>493.7820032</ele>
        <time>2016-11-01T11:53:56.008Z</time>
      </trkpt>
      <trkpt lat="42.94087" lon="1.98724">
        <ele>493</ele>
        <time>2016-11-01T11:53:57.008Z</time>
      </trkpt>
      <trkpt lat="42.94094" lon="1.98721">
        <ele>493</ele>
        <time>2016-11-01T11:53:58.008Z</time>
      </trkpt>
      <trkpt lat="42.941" lon="1.98717">
        <ele>493</ele>
        <time>2016-11-01T11:53:59.008Z</time>
      </trkpt>
      <trkpt lat="42.94107" lon="1.98714">
        <ele>493</ele>
        <time>2016-11-01T11:54:00.008Z</time>
      </trkpt>
      <trkpt lat="42.94113" lon="1.9871">
        <ele>492.7820032</ele>
        <time>2016-11-01T11:54:01.008Z</time>
      </trkpt>
      <trkpt lat="42.9412" lon="1.98707">
        <ele>492</ele>
        <time>2016-11-01T11:54:02.008Z</time>
      </trkpt>
      <trkpt lat="42.94126" lon="1.98704">
        <ele>492</ele>
        <time>2016-11-01T11:54:03.008Z</time>
      </trkpt>
      <trkpt lat="42.94133" lon="1.98702">
        <ele>492</ele>
        <time>2016-11-01T11:54:04.008Z</time>
      </trkpt>
      <trkpt lat="42.9414" lon="1.98702">
        <ele>492</ele>
        <time>2016-11-01T11:54:05.008Z</time>
      </trkpt>
      <trkpt lat="42.94147" lon="1.98704">
        <ele>492</ele>
        <time>2016-11-01T11:54:06.008Z</time>
      </trkpt>
      <trkpt lat="42.94153" lon="1.9871">
        <ele>492</ele>
        <time>2016-11-01T11:54:07.008Z</time>
      </trkpt>
      <trkpt lat="42.94157" lon="1.98718">
        <ele>492</ele>
        <time>2016-11-01T11:54:08.008Z</time>
      </trkpt>
      <trkpt lat="42.94158" lon="1.98729">
        <ele>492</ele>
        <time>2016-11-01T11:54:09.008Z</time>
      </trkpt>
      <trkpt lat="42.94155" lon="1.9874">
        <ele>492</ele>
        <time>2016-11-01T11:54:10.008Z</time>
      </trkpt>
      <trkpt lat="42.94149" lon="1.98747">
        <ele>491.3460096</ele>
        <time>2016-11-01T11:54:11.008Z</time>
      </trkpt>
      <trkpt lat="42.94141" lon="1.98751">
        <ele>489</ele>
        <time>2016-11-01T11:54:12.008Z</time>
      </trkpt>
      <trkpt lat="42.94133" lon="1.98753">
        <ele>489</ele>
        <time>2016-11-01T11:54:13.008Z</time>
      </trkpt>
      <trkpt lat="42.94124" lon="1.98753">
        <ele>489</ele>
        <time>2016-11-01T11:54:14.008Z</time>
      </trkpt>
      <trkpt lat="42.94116" lon="1.98753">
        <ele>489</ele>
        <time>2016-11-01T11:54:15.008Z</time>
      </trkpt>
      <trkpt lat="42.94108" lon="1.98755">
        <ele>488.5640064</ele>
        <time>2016-11-01T11:54:16.008Z</time>
      </trkpt>
      <trkpt lat="42.941" lon="1.9876">
        <ele>487</ele>
        <time>2016-11-01T11:54:17.008Z</time>
      </trkpt>
      <trkpt lat="42.94093" lon="1.98766">
        <ele>487</ele>
        <time>2016-11-01T11:54:18.008Z</time>
      </trkpt>
      <trkpt lat="42.94087" lon="1.98774">
        <ele>487</ele>
        <time>2016-11-01T11:54:19.008Z</time>
      </trkpt>
      <trkpt lat="42.9408" lon="1.98783">
        <ele>487</ele>
        <time>2016-11-01T11:54:20.008Z</time>
      </trkpt>
      <trkpt lat="42.94073" lon="1.98791">
        <ele>486.5640064</ele>
        <time>2016-11-01T11:54:21.008Z</time>
      </trkpt>
      <trkpt lat="42.94065" lon="1.98799">
        <ele>485</ele>
        <time>2016-11-01T11:54:22.008Z</time>
      </trkpt>
      <trkpt lat="42.94056" lon="1.98804">
        <ele>485</ele>
        <time>2016-11-01T11:54:23.008Z</time>
      </trkpt>
      <trkpt lat="42.94047" lon="1.98806">
        <ele>485</ele>
        <time>2016-11-01T11:54:24.008Z</time>
      </trkpt>
      <trkpt lat="42.94038" lon="1.98806">
        <ele>485</ele>
        <time>2016-11-01T11:54:25.008Z</time>
      </trkpt>
      <trkpt lat="42.94029" lon="1.98807">
        <ele>483.6920192</ele>
        <time>2016-11-01T11:54:26.008Z</time>
      </trkpt>
      <trkpt lat="42.94021" lon="1.9881">
        <ele>479</ele>
        <time>2016-11-01T11:54:27.008Z</time>
      </trkpt>
      <trkpt lat="42.94015" lon="1.98818">
        <ele>479</ele>
        <time>2016-11-01T11:54:28.008Z</time>
      </trkpt>
      <trkpt lat="42.94011" lon="1.98828">
        <ele>479</ele>
        <time>2016-11-01T11:54:29.008Z</time>
      </trkpt>
      <trkpt lat="42.94008" lon="1.98839">
        <ele>479</ele>
        <time>2016-11-01T11:54:30.008Z</time>
      </trkpt>
      <trkpt lat="42.94007" lon="1.98851">
        <ele>478.3460096</ele>
        <time>2016-11-01T11:54:31.008Z</time>
      </trkpt>
      <trkpt lat="42.94008" lon="1.98863">
        <ele>475.7820032</ele>
        <time>2016-11-01T11:54:32.008Z</time>
      </trkpt>
      <trkpt lat="42.94008" lon="1.98875">
        <ele>474.7820032</ele>
        <time>2016-11-01T11:54:33.008Z</time>
      </trkpt>
      <trkpt lat="42.94009" lon="1.98888">
        <ele>473.7820032</ele>
        <time>2016-11-01T11:54:34.008Z</time>
      </trkpt>
      <trkpt lat="42.94008" lon="1.98901">
        <ele>473</ele>
        <time>2016-11-01T11:54:35.008Z</time>
      </trkpt>
      <trkpt lat="42.94007" lon="1.98914">
        <ele>472.78989966901</ele>
        <time>2016-11-01T11:54:36.008Z</time>
      </trkpt>
      <trkpt lat="42.94006" lon="1.98929">
        <ele>471.7820032</ele>
        <time>2016-11-01T11:54:37.008Z</time>
      </trkpt>
      <trkpt lat="42.94006" lon="1.98943">
        <ele>471</ele>
        <time>2016-11-01T11:54:38.008Z</time>
      </trkpt>
      <trkpt lat="42.94007" lon="1.98957">
        <ele>470.7820032</ele>
        <time>2016-11-01T11:54:39.008Z</time>
      </trkpt>
      <trkpt lat="42.94009" lon="1.98972">
        <ele>469.7820032</ele>
        <time>2016-11-01T11:54:40.008Z</time>
      </trkpt>
      <trkpt lat="42.94011" lon="1.98987">
        <ele>468.7820032</ele>
        <time>2016-11-01T11:54:41.008Z</time>
      </trkpt>
      <trkpt lat="42.94013" lon="1.99001">
        <ele>467.7820032</ele>
        <time>2016-11-01T11:54:42.008Z</time>
      </trkpt>
      <trkpt lat="42.94016" lon="1.99016">
        <ele>466.7820032</ele>
        <time>2016-11-01T11:54:43.008Z</time>
      </trkpt>
      <trkpt lat="42.94018" lon="1.99031">
        <ele>465.7820032</ele>
        <time>2016-11-01T11:54:44.008Z</time>
      </trkpt>
      <trkpt lat="42.94021" lon="1.99046">
        <ele>464.7820032</ele>
        <time>2016-11-01T11:54:45.008Z</time>
      </trkpt>
      <trkpt lat="42.94024" lon="1.99061">
        <ele>463.7820032</ele>
        <time>2016-11-01T11:54:46.008Z</time>
      </trkpt>
      <trkpt lat="42.94027" lon="1.99076">
        <ele>463</ele>
        <time>2016-11-01T11:54:47.008Z</time>
      </trkpt>
      <trkpt lat="42.9403" lon="1.99091">
        <ele>463</ele>
        <time>2016-11-01T11:54:48.008Z</time>
      </trkpt>
      <trkpt lat="42.94033" lon="1.99106">
        <ele>462.5640064</ele>
        <time>2016-11-01T11:54:49.008Z</time>
      </trkpt>
      <trkpt lat="42.94035" lon="1.99121">
        <ele>460.7820032</ele>
        <time>2016-11-01T11:54:50.008Z</time>
      </trkpt>
      <trkpt lat="42.94036" lon="1.99136">
        <ele>459.7820032</ele>
        <time>2016-11-01T11:54:51.008Z</time>
      </trkpt>
      <trkpt lat="42.94038" lon="1.9915">
        <ele>459</ele>
        <time>2016-11-01T11:54:52.008Z</time>
      </trkpt>
      <trkpt lat="42.9404" lon="1.99164">
        <ele>458.7820032</ele>
        <time>2016-11-01T11:54:53.008Z</time>
      </trkpt>
      <trkpt lat="42.94043" lon="1.99178">
        <ele>457.7820032</ele>
        <time>2016-11-01T11:54:54.008Z</time>
      </trkpt>
      <trkpt lat="42.94047" lon="1.99192">
        <ele>456.7820032</ele>
        <time>2016-11-01T11:54:55.008Z</time>
      </trkpt>
      <trkpt lat="42.94051" lon="1.99206">
        <ele>455.7820032</ele>
        <time>2016-11-01T11:54:56.008Z</time>
      </trkpt>
      <trkpt lat="42.94055" lon="1.9922">
        <ele>454.7820032</ele>
        <time>2016-11-01T11:54:57.008Z</time>
      </trkpt>
      <trkpt lat="42.94059" lon="1.99235">
        <ele>454</ele>
        <time>2016-11-01T11:54:58.008Z</time>
      </trkpt>
      <trkpt lat="42.94062" lon="1.99249">
        <ele>453.7820032</ele>
        <time>2016-11-01T11:54:59.008Z</time>
      </trkpt>
      <trkpt lat="42.94066" lon="1.99264">
        <ele>453</ele>
        <time>2016-11-01T11:55:00.008Z</time>
      </trkpt>
      <trkpt lat="42.94069" lon="1.99278">
        <ele>452.5640064</ele>
        <time>2016-11-01T11:55:01.008Z</time>
      </trkpt>
      <trkpt lat="42.94072" lon="1.99293">
        <ele>450.7820032</ele>
        <time>2016-11-01T11:55:02.008Z</time>
      </trkpt>
      <trkpt lat="42.94074" lon="1.99307">
        <ele>449.78416090031</ele>
        <time>2016-11-01T11:55:03.008Z</time>
      </trkpt>
      <trkpt lat="42.94077" lon="1.99322">
        <ele>449</ele>
        <time>2016-11-01T11:55:04.008Z</time>
      </trkpt>
      <trkpt lat="42.94079" lon="1.99336">
        <ele>448.7820032</ele>
        <time>2016-11-01T11:55:05.008Z</time>
      </trkpt>
      <trkpt lat="42.94081" lon="1.9935">
        <ele>447.7820032</ele>
        <time>2016-11-01T11:55:06.008Z</time>
      </trkpt>
      <trkpt lat="42.94082" lon="1.99364">
        <ele>446.7820032</ele>
        <time>2016-11-01T11:55:07.008Z</time>
      </trkpt>
      <trkpt lat="42.94084" lon="1.99378">
        <ele>446</ele>
        <time>2016-11-01T11:55:08.008Z</time>
      </trkpt>
      <trkpt lat="42.94086" lon="1.99392">
        <ele>445.7820032</ele>
        <time>2016-11-01T11:55:09.008Z</time>
      </trkpt>
      <trkpt lat="42.94089" lon="1.99405">
        <ele>444.7820032</ele>
        <time>2016-11-01T11:55:10.008Z</time>
      </trkpt>
      <trkpt lat="42.94092" lon="1.99419">
        <ele>443.7820032</ele>
        <time>2016-11-01T11:55:11.008Z</time>
      </trkpt>
      <trkpt lat="42.94096" lon="1.99432">
        <ele>442.7820032</ele>
        <time>2016-11-01T11:55:12.008Z</time>
      </trkpt>
      <trkpt lat="42.94099" lon="1.99446">
        <ele>442</ele>
        <time>2016-11-01T11:55:13.008Z</time>
      </trkpt>
      <trkpt lat="42.94103" lon="1.9946">
        <ele>441.7820032</ele>
        <time>2016-11-01T11:55:14.008Z</time>
      </trkpt>
      <trkpt lat="42.94106" lon="1.99474">
        <ele>440.7820032</ele>
        <time>2016-11-01T11:55:15.008Z</time>
      </trkpt>
      <trkpt lat="42.94109" lon="1.99486">
        <ele>439.7820032</ele>
        <time>2016-11-01T11:55:16.008Z</time>
      </trkpt>
      <trkpt lat="42.94112" lon="1.99498">
        <ele>438.7820032</ele>
        <time>2016-11-01T11:55:17.008Z</time>
      </trkpt>
      <trkpt lat="42.94116" lon="1.99509">
        <ele>437.7820032</ele>
        <time>2016-11-01T11:55:18.008Z</time>
      </trkpt>
      <trkpt lat="42.94122" lon="1.99518">
        <ele>436.7820032</ele>
        <time>2016-11-01T11:55:19.008Z</time>
      </trkpt>
      <trkpt lat="42.94129" lon="1.99527">
        <ele>436</ele>
        <time>2016-11-01T11:55:20.008Z</time>
      </trkpt>
      <trkpt lat="42.94135" lon="1.99536">
        <ele>436</ele>
        <time>2016-11-01T11:55:21.008Z</time>
      </trkpt>
      <trkpt lat="42.94149" lon="1.99568">
        <ele>436</ele>
        <time>2016-11-01T11:55:24.008Z</time>
      </trkpt>
      <trkpt lat="42.94153" lon="1.99579">
        <ele>435.5640064</ele>
        <time>2016-11-01T11:55:25.008Z</time>
      </trkpt>
      <trkpt lat="42.94156" lon="1.99591">
        <ele>433.7820032</ele>
        <time>2016-11-01T11:55:26.008Z</time>
      </trkpt>
      <trkpt lat="42.94161" lon="1.99601">
        <ele>432.7820032</ele>
        <time>2016-11-01T11:55:27.008Z</time>
      </trkpt>
      <trkpt lat="42.94167" lon="1.99612">
        <ele>432</ele>
        <time>2016-11-01T11:55:28.008Z</time>
      </trkpt>
      <trkpt lat="42.94175" lon="1.99634">
        <ele>430.7820032</ele>
        <time>2016-11-01T11:55:30.008Z</time>
      </trkpt>
      <trkpt lat="42.94176" lon="1.99647">
        <ele>430</ele>
        <time>2016-11-01T11:55:31.008Z</time>
      </trkpt>
      <trkpt lat="42.94176" lon="1.9966">
        <ele>429.7820032</ele>
        <time>2016-11-01T11:55:32.008Z</time>
      </trkpt>
      <trkpt lat="42.94172" lon="1.99686">
        <ele>427.78416090031</ele>
        <time>2016-11-01T11:55:34.008Z</time>
      </trkpt>
      <trkpt lat="42.94172" lon="1.99698">
        <ele>427</ele>
        <time>2016-11-01T11:55:35.008Z</time>
      </trkpt>
      <trkpt lat="42.94173" lon="1.99711">
        <ele>427</ele>
        <time>2016-11-01T11:55:36.008Z</time>
      </trkpt>
      <trkpt lat="42.94174" lon="1.99724">
        <ele>426.5640064</ele>
        <time>2016-11-01T11:55:37.008Z</time>
      </trkpt>
      <trkpt lat="42.94177" lon="1.99736">
        <ele>424.7820032</ele>
        <time>2016-11-01T11:55:38.008Z</time>
      </trkpt>
      <trkpt lat="42.9418" lon="1.99748">
        <ele>424</ele>
        <time>2016-11-01T11:55:39.008Z</time>
      </trkpt>
      <trkpt lat="42.94183" lon="1.99759">
        <ele>423.7820032</ele>
        <time>2016-11-01T11:55:40.008Z</time>
      </trkpt>
      <trkpt lat="42.94192" lon="1.99777">
        <ele>422.5640064</ele>
        <time>2016-11-01T11:55:42.008Z</time>
      </trkpt>
      <trkpt lat="42.942" lon="1.99781">
        <ele>420.7820032</ele>
        <time>2016-11-01T11:55:43.008Z</time>
      </trkpt>
      <trkpt lat="42.94208" lon="1.99782">
        <ele>420</ele>
        <time>2016-11-01T11:55:44.008Z</time>
      </trkpt>
      <trkpt lat="42.94217" lon="1.99783">
        <ele>419.7820032</ele>
        <time>2016-11-01T11:55:45.008Z</time>
      </trkpt>
      <trkpt lat="42.94226" lon="1.99784">
        <ele>418.7820032</ele>
        <time>2016-11-01T11:55:46.008Z</time>
      </trkpt>
      <trkpt lat="42.94235" lon="1.99787">
        <ele>418</ele>
        <time>2016-11-01T11:55:47.008Z</time>
      </trkpt>
      <trkpt lat="42.94243" lon="1.99791">
        <ele>417.7820032</ele>
        <time>2016-11-01T11:55:48.008Z</time>
      </trkpt>
      <trkpt lat="42.94252" lon="1.99795">
        <ele>417</ele>
        <time>2016-11-01T11:55:49.008Z</time>
      </trkpt>
      <trkpt lat="42.9426" lon="1.998">
        <ele>416.7820032</ele>
        <time>2016-11-01T11:55:50.008Z</time>
      </trkpt>
      <trkpt lat="42.94268" lon="1.99805">
        <ele>415.7820032</ele>
        <time>2016-11-01T11:55:51.008Z</time>
      </trkpt>
      <trkpt lat="42.94276" lon="1.9981">
        <ele>414.7820032</ele>
        <time>2016-11-01T11:55:52.008Z</time>
      </trkpt>
      <trkpt lat="42.94284" lon="1.99815">
        <ele>414</ele>
        <time>2016-11-01T11:55:53.008Z</time>
      </trkpt>
      <trkpt lat="42.94291" lon="1.99823">
        <ele>413.7820032</ele>
        <time>2016-11-01T11:55:54.008Z</time>
      </trkpt>
      <trkpt lat="42.94297" lon="1.99832">
        <ele>412.7820032</ele>
        <time>2016-11-01T11:55:55.008Z</time>
      </trkpt>
      <trkpt lat="42.94301" lon="1.99842">
        <ele>412</ele>
        <time>2016-11-01T11:55:56.008Z</time>
      </trkpt>
      <trkpt lat="42.94303" lon="1.99854">
        <ele>411.7820032</ele>
        <time>2016-11-01T11:55:57.008Z</time>
      </trkpt>
      <trkpt lat="42.94304" lon="1.99867">
        <ele>411</ele>
        <time>2016-11-01T11:55:58.008Z</time>
      </trkpt>
      <trkpt lat="42.94306" lon="1.99878">
        <ele>411</ele>
        <time>2016-11-01T11:55:59.008Z</time>
      </trkpt>
      <trkpt lat="42.94308" lon="1.9989">
        <ele>411</ele>
        <time>2016-11-01T11:56:00.008Z</time>
      </trkpt>
      <trkpt lat="42.94309" lon="1.999">
        <ele>410.7820032</ele>
        <time>2016-11-01T11:56:01.008Z</time>
      </trkpt>
      <trkpt lat="42.94313" lon="1.99921">
        <ele>410.21010033099</ele>
        <time>2016-11-01T11:56:03.008Z</time>
      </trkpt>
      <trkpt lat="42.94314" lon="1.9993">
        <ele>411</ele>
        <time>2016-11-01T11:56:04.008Z</time>
      </trkpt>
      <trkpt lat="42.94315" lon="1.99948">
        <ele>411</ele>
        <time>2016-11-01T11:56:06.008Z</time>
      </trkpt>
      <trkpt lat="42.94316" lon="1.99955">
        <ele>411</ele>
        <time>2016-11-01T11:56:07.008Z</time>
      </trkpt>
      <trkpt lat="42.94316" lon="1.99962">
        <ele>411</ele>
        <time>2016-11-01T11:56:08.008Z</time>
      </trkpt>
      <trkpt lat="42.94315" lon="1.9997">
        <ele>411</ele>
        <time>2016-11-01T11:56:10.008Z</time>
      </trkpt>
      <trkpt lat="42.94307" lon="1.9996">
        <ele>411</ele>
        <time>2016-11-01T11:56:16.008Z</time>
      </trkpt>
      <trkpt lat="42.94299" lon="1.99952">
        <ele>411</ele>
        <time>2016-11-01T11:56:21.008Z</time>
      </trkpt>
      <trkpt lat="42.94293" lon="1.99948">
        <ele>411</ele>
        <time>2016-11-01T11:56:24.008Z</time>
      </trkpt>
      <trkpt lat="42.94284" lon="1.99943">
        <ele>411</ele>
        <time>2016-11-01T11:56:27.008Z</time>
      </trkpt>
      <trkpt lat="42.94277" lon="1.9994">
        <ele>411</ele>
        <time>2016-11-01T11:56:29.008Z</time>
      </trkpt>
      <trkpt lat="42.9427" lon="1.99937">
        <ele>411</ele>
        <time>2016-11-01T11:56:31.008Z</time>
      </trkpt>
      <trkpt lat="42.94263" lon="1.99933">
        <ele>411</ele>
        <time>2016-11-01T11:56:33.008Z</time>
      </trkpt>
      <trkpt lat="42.94256" lon="1.9993">
        <ele>411</ele>
        <time>2016-11-01T11:56:35.008Z</time>
      </trkpt>
      <trkpt lat="42.94249" lon="1.99926">
        <ele>411</ele>
        <time>2016-11-01T11:56:37.008Z</time>
      </trkpt>
      <trkpt lat="42.94242" lon="1.99922">
        <ele>411</ele>
        <time>2016-11-01T11:56:39.008Z</time>
      </trkpt>
      <trkpt lat="42.94234" lon="1.99917">
        <ele>411</ele>
        <time>2016-11-01T11:56:41.008Z</time>
      </trkpt>
      <trkpt lat="42.94227" lon="1.99912">
        <ele>411</ele>
        <time>2016-11-01T11:56:43.008Z</time>
      </trkpt>
      <trkpt lat="42.94219" lon="1.99907">
        <ele>411</ele>
        <time>2016-11-01T11:56:45.008Z</time>
      </trkpt>
      <trkpt lat="42.94211" lon="1.99904">
        <ele>411</ele>
        <time>2016-11-01T11:56:47.008Z</time>
      </trkpt>
      <trkpt lat="42.94203" lon="1.99901">
        <ele>411</ele>
        <time>2016-11-01T11:56:49.008Z</time>
      </trkpt>
      <trkpt lat="42.94195" lon="1.99897">
        <ele>411.4359936</ele>
        <time>2016-11-01T11:56:51.008Z</time>
      </trkpt>
      <trkpt lat="42.94187" lon="1.99894">
        <ele>413</ele>
        <time>2016-11-01T11:56:53.008Z</time>
      </trkpt>
      <trkpt lat="42.94179" lon="1.99891">
        <ele>413</ele>
        <time>2016-11-01T11:56:55.008Z</time>
      </trkpt>
      <trkpt lat="42.9417" lon="1.99887">
        <ele>413</ele>
        <time>2016-11-01T11:56:57.008Z</time>
      </trkpt>
      <trkpt lat="42.94162" lon="1.99884">
        <ele>413</ele>
        <time>2016-11-01T11:56:59.008Z</time>
      </trkpt>
      <trkpt lat="42.94153" lon="1.99881">
        <ele>413.2179968</ele>
        <time>2016-11-01T11:57:01.008Z</time>
      </trkpt>
      <trkpt lat="42.94145" lon="1.99877">
        <ele>414</ele>
        <time>2016-11-01T11:57:03.008Z</time>
      </trkpt>
      <trkpt lat="42.94136" lon="1.99874">
        <ele>414</ele>
        <time>2016-11-01T11:57:05.008Z</time>
      </trkpt>
      <trkpt lat="42.94128" lon="1.99871">
        <ele>414</ele>
        <time>2016-11-01T11:57:07.008Z</time>
      </trkpt>
      <trkpt lat="42.94121" lon="1.99868">
        <ele>414</ele>
        <time>2016-11-01T11:57:09.008Z</time>
      </trkpt>
      <trkpt lat="42.94114" lon="1.99866">
        <ele>414.4359936</ele>
        <time>2016-11-01T11:57:11.008Z</time>
      </trkpt>
      <trkpt lat="42.94104" lon="1.99865">
        <ele>416</ele>
        <time>2016-11-01T11:57:14.008Z</time>
      </trkpt>
      <trkpt lat="42.94096" lon="1.99866">
        <ele>416</ele>
        <time>2016-11-01T11:57:17.008Z</time>
      </trkpt>
      <trkpt lat="42.94087" lon="1.99864">
        <ele>416</ele>
        <time>2016-11-01T11:57:20.008Z</time>
      </trkpt>
      <trkpt lat="42.9408" lon="1.99861">
        <ele>417</ele>
        <time>2016-11-01T11:57:23.008Z</time>
      </trkpt>
      <trkpt lat="42.9407" lon="1.99856">
        <ele>417</ele>
        <time>2016-11-01T11:57:28.008Z</time>
      </trkpt>
      <trkpt lat="42.94062" lon="1.99853">
        <ele>421</ele>
        <time>2016-11-01T11:57:32.008Z</time>
      </trkpt>
      <trkpt lat="42.94051" lon="1.9985">
        <ele>423</ele>
        <time>2016-11-01T11:57:37.008Z</time>
      </trkpt>
      <trkpt lat="42.94043" lon="1.9985">
        <ele>423.4359936</ele>
        <time>2016-11-01T11:57:41.008Z</time>
      </trkpt>
      <trkpt lat="42.94035" lon="1.99846">
        <ele>425.2179968</ele>
        <time>2016-11-01T11:57:46.008Z</time>
      </trkpt>
      <trkpt lat="42.94026" lon="1.99843">
        <ele>426</ele>
        <time>2016-11-01T11:57:50.008Z</time>
      </trkpt>
      <trkpt lat="42.9402" lon="1.99841">
        <ele>426</ele>
        <time>2016-11-01T11:57:53.008Z</time>
      </trkpt>
      <trkpt lat="42.94012" lon="1.99839">
        <ele>426</ele>
        <time>2016-11-01T11:57:56.008Z</time>
      </trkpt>
      <trkpt lat="42.94002" lon="1.99838">
        <ele>426</ele>
        <time>2016-11-01T11:57:59.008Z</time>
      </trkpt>
      <trkpt lat="42.93995" lon="1.99836">
        <ele>425.78989966901</ele>
        <time>2016-11-01T11:58:01.008Z</time>
      </trkpt>
      <trkpt lat="42.93988" lon="1.99834">
        <ele>425</ele>
        <time>2016-11-01T11:58:03.008Z</time>
      </trkpt>
      <trkpt lat="42.93977" lon="1.9983">
        <ele>425</ele>
        <time>2016-11-01T11:58:06.008Z</time>
      </trkpt>
      <trkpt lat="42.93968" lon="1.99823">
        <ele>425</ele>
        <time>2016-11-01T11:58:09.008Z</time>
      </trkpt>
      <trkpt lat="42.93956" lon="1.99815">
        <ele>427</ele>
        <time>2016-11-01T11:58:13.008Z</time>
      </trkpt>
      <trkpt lat="42.93946" lon="1.99808">
        <ele>427</ele>
        <time>2016-11-01T11:58:17.008Z</time>
      </trkpt>
      <trkpt lat="42.93934" lon="1.99803">
        <ele>427.2179968</ele>
        <time>2016-11-01T11:58:21.008Z</time>
      </trkpt>
      <trkpt lat="42.93921" lon="1.99804">
        <ele>428</ele>
        <time>2016-11-01T11:58:25.008Z</time>
      </trkpt>
      <trkpt lat="42.9391" lon="1.99806">
        <ele>428</ele>
        <time>2016-11-01T11:58:28.008Z</time>
      </trkpt>
      <trkpt lat="42.939" lon="1.99807">
        <ele>428.4359936</ele>
        <time>2016-11-01T11:58:31.008Z</time>
      </trkpt>
      <trkpt lat="42.93891" lon="1.99808">
        <ele>430</ele>
        <time>2016-11-01T11:58:34.008Z</time>
      </trkpt>
      <trkpt lat="42.93883" lon="1.9981">
        <ele>430</ele>
        <time>2016-11-01T11:58:37.008Z</time>
      </trkpt>
      <trkpt lat="42.93874" lon="1.99812">
        <ele>430</ele>
        <time>2016-11-01T11:58:40.008Z</time>
      </trkpt>
      <trkpt lat="42.93867" lon="1.99816">
        <ele>432</ele>
        <time>2016-11-01T11:58:43.008Z</time>
      </trkpt>
      <trkpt lat="42.93857" lon="1.9982">
        <ele>434</ele>
        <time>2016-11-01T11:58:47.008Z</time>
      </trkpt>
      <trkpt lat="42.93849" lon="1.99824">
        <ele>434</ele>
        <time>2016-11-01T11:58:50.008Z</time>
      </trkpt>
      <trkpt lat="42.93841" lon="1.99828">
        <ele>436</ele>
        <time>2016-11-01T11:58:53.008Z</time>
      </trkpt>
      <trkpt lat="42.93833" lon="1.99832">
        <ele>436</ele>
        <time>2016-11-01T11:58:56.008Z</time>
      </trkpt>
      <trkpt lat="42.93822" lon="1.99839">
        <ele>436</ele>
        <time>2016-11-01T11:59:01.008Z</time>
      </trkpt>
      <trkpt lat="42.93811" lon="1.99846">
        <ele>436</ele>
        <time>2016-11-01T11:59:05.008Z</time>
      </trkpt>
      <trkpt lat="42.93802" lon="1.99853">
        <ele>436</ele>
        <time>2016-11-01T11:59:08.008Z</time>
      </trkpt>
      <trkpt lat="42.93793" lon="1.9986">
        <ele>436.2179968</ele>
        <time>2016-11-01T11:59:11.008Z</time>
      </trkpt>
      <trkpt lat="42.93784" lon="1.99862">
        <ele>437</ele>
        <time>2016-11-01T11:59:14.008Z</time>
      </trkpt>
      <trkpt lat="42.93772" lon="1.99866">
        <ele>437</ele>
        <time>2016-11-01T11:59:18.008Z</time>
      </trkpt>
      <trkpt lat="42.93761" lon="1.99869">
        <ele>439</ele>
        <time>2016-11-01T11:59:22.008Z</time>
      </trkpt>
      <trkpt lat="42.9375" lon="1.99873">
        <ele>439</ele>
        <time>2016-11-01T11:59:26.008Z</time>
      </trkpt>
      <trkpt lat="42.9374" lon="1.99879">
        <ele>439</ele>
        <time>2016-11-01T11:59:30.008Z</time>
      </trkpt>
      <trkpt lat="42.93729" lon="1.99885">
        <ele>442</ele>
        <time>2016-11-01T11:59:34.008Z</time>
      </trkpt>
      <trkpt lat="42.93718" lon="1.99891">
        <ele>442</ele>
        <time>2016-11-01T11:59:38.008Z</time>
      </trkpt>
      <trkpt lat="42.93708" lon="1.99898">
        <ele>442</ele>
        <time>2016-11-01T11:59:42.008Z</time>
      </trkpt>
      <trkpt lat="42.93697" lon="1.99903">
        <ele>442</ele>
        <time>2016-11-01T11:59:45.008Z</time>
      </trkpt>
      <trkpt lat="42.93687" lon="1.99906">
        <ele>442</ele>
        <time>2016-11-01T11:59:47.008Z</time>
      </trkpt>
      <trkpt lat="42.93673" lon="1.99911">
        <ele>442</ele>
        <time>2016-11-01T11:59:50.008Z</time>
      </trkpt>
      <trkpt lat="42.93664" lon="1.99914">
        <ele>442</ele>
        <time>2016-11-01T11:59:52.008Z</time>
      </trkpt>
      <trkpt lat="42.93651" lon="1.99918">
        <ele>442</ele>
        <time>2016-11-01T11:59:55.008Z</time>
      </trkpt>
      <trkpt lat="42.93638" lon="1.9992">
        <ele>442</ele>
        <time>2016-11-01T11:59:58.008Z</time>
      </trkpt>
      <trkpt lat="42.93627" lon="1.99927">
        <ele>441.5640064</ele>
        <time>2016-11-01T12:00:01.008Z</time>
      </trkpt>
      <trkpt lat="42.93619" lon="1.99939">
        <ele>440</ele>
        <time>2016-11-01T12:00:04.008Z</time>
      </trkpt>
      <trkpt lat="42.9361" lon="1.99949">
        <ele>440</ele>
        <time>2016-11-01T12:00:08.008Z</time>
      </trkpt>
      <trkpt lat="42.93601" lon="1.99957">
        <ele>442</ele>
        <time>2016-11-01T12:00:12.008Z</time>
      </trkpt>
      <trkpt lat="42.93592" lon="1.99964">
        <ele>442.4359936</ele>
        <time>2016-11-01T12:00:16.008Z</time>
      </trkpt>
      <trkpt lat="42.93582" lon="1.99972">
        <ele>444</ele>
        <time>2016-11-01T12:00:20.008Z</time>
      </trkpt>
      <trkpt lat="42.93573" lon="1.99979">
        <ele>446</ele>
        <time>2016-11-01T12:00:24.008Z</time>
      </trkpt>
      <trkpt lat="42.93564" lon="1.99986">
        <ele>447</ele>
        <time>2016-11-01T12:00:28.008Z</time>
      </trkpt>
      <trkpt lat="42.93554" lon="1.99991">
        <ele>448</ele>
        <time>2016-11-01T12:00:32.008Z</time>
      </trkpt>
      <trkpt lat="42.93544" lon="1.99997">
        <ele>448.21583909969</ele>
        <time>2016-11-01T12:00:36.008Z</time>
      </trkpt>
      <trkpt lat="42.93533" lon="1.99999">
        <ele>449</ele>
        <time>2016-11-01T12:00:40.008Z</time>
      </trkpt>
      <trkpt lat="42.9352" lon="1.99997">
        <ele>449</ele>
        <time>2016-11-01T12:00:44.008Z</time>
      </trkpt>
      <trkpt lat="42.93511" lon="1.99995">
        <ele>449</ele>
        <time>2016-11-01T12:00:47.008Z</time>
      </trkpt>
      <trkpt lat="42.93503" lon="1.99994">
        <ele>449</ele>
        <time>2016-11-01T12:00:49.008Z</time>
      </trkpt>
      <trkpt lat="42.93496" lon="1.99994">
        <ele>449.2179968</ele>
        <time>2016-11-01T12:00:51.008Z</time>
      </trkpt>
      <trkpt lat="42.9349" lon="1.99994">
        <ele>450</ele>
        <time>2016-11-01T12:00:53.008Z</time>
      </trkpt>
      <trkpt lat="42.93484" lon="1.99995">
        <ele>450</ele>
        <time>2016-11-01T12:00:55.008Z</time>
      </trkpt>
      <trkpt lat="42.93475" lon="1.99997">
        <ele>450</ele>
        <time>2016-11-01T12:00:58.008Z</time>
      </trkpt>
      <trkpt lat="42.93469" lon="1.99999">
        <ele>450</ele>
        <time>2016-11-01T12:01:00.008Z</time>
      </trkpt>
      <trkpt lat="42.93463" lon="2.00001">
        <ele>452</ele>
        <time>2016-11-01T12:01:02.008Z</time>
      </trkpt>
      <trkpt lat="42.93457" lon="2.00003">
        <ele>452</ele>
        <time>2016-11-01T12:01:04.008Z</time>
      </trkpt>
      <trkpt lat="42.93451" lon="2.00006">
        <ele>452.2179968</ele>
        <time>2016-11-01T12:01:06.008Z</time>
      </trkpt>
      <trkpt lat="42.93446" lon="2.0001">
        <ele>453</ele>
        <time>2016-11-01T12:01:08.008Z</time>
      </trkpt>
      <trkpt lat="42.93437" lon="2.00016">
        <ele>455</ele>
        <time>2016-11-01T12:01:12.008Z</time>
      </trkpt>
      <trkpt lat="42.93429" lon="2.0001">
        <ele>456</ele>
        <time>2016-11-01T12:01:17.008Z</time>
      </trkpt>
      <trkpt lat="42.93428" lon="2">
        <ele>456.2179968</ele>
        <time>2016-11-01T12:01:21.008Z</time>
      </trkpt>
      <trkpt lat="42.93427" lon="1.99988">
        <ele>457</ele>
        <time>2016-11-01T12:01:25.008Z</time>
      </trkpt>
      <trkpt lat="42.93426" lon="1.99979">
        <ele>457</ele>
        <time>2016-11-01T12:01:28.008Z</time>
      </trkpt>
      <trkpt lat="42.93422" lon="1.99966">
        <ele>458</ele>
        <time>2016-11-01T12:01:32.008Z</time>
      </trkpt>
      <trkpt lat="42.93419" lon="1.99952">
        <ele>458</ele>
        <time>2016-11-01T12:01:36.008Z</time>
      </trkpt>
      <trkpt lat="42.93418" lon="1.99937">
        <ele>458</ele>
        <time>2016-11-01T12:01:39.008Z</time>
      </trkpt>
      <trkpt lat="42.93418" lon="1.99927">
        <ele>458.2179968</ele>
        <time>2016-11-01T12:01:41.008Z</time>
      </trkpt>
      <trkpt lat="42.93413" lon="1.99916">
        <ele>459</ele>
        <time>2016-11-01T12:01:44.008Z</time>
      </trkpt>
      <trkpt lat="42.93406" lon="1.99912">
        <ele>459</ele>
        <time>2016-11-01T12:01:47.008Z</time>
      </trkpt>
      <trkpt lat="42.93401" lon="1.9992">
        <ele>459.6539904</ele>
        <time>2016-11-01T12:01:51.008Z</time>
      </trkpt>
      <trkpt lat="42.93404" lon="1.99929">
        <ele>462</ele>
        <time>2016-11-01T12:01:55.008Z</time>
      </trkpt>
      <trkpt lat="42.93405" lon="1.99939">
        <ele>464</ele>
        <time>2016-11-01T12:01:59.008Z</time>
      </trkpt>
      <trkpt lat="42.93403" lon="1.99947">
        <ele>466</ele>
        <time>2016-11-01T12:02:02.008Z</time>
      </trkpt>
      <trkpt lat="42.93401" lon="1.99954">
        <ele>466</ele>
        <time>2016-11-01T12:02:05.008Z</time>
      </trkpt>
      <trkpt lat="42.93399" lon="1.99964">
        <ele>467</ele>
        <time>2016-11-01T12:02:09.008Z</time>
      </trkpt>
      <trkpt lat="42.93396" lon="1.99978">
        <ele>469</ele>
        <time>2016-11-01T12:02:14.008Z</time>
      </trkpt>
      <trkpt lat="42.93392" lon="1.99988">
        <ele>469</ele>
        <time>2016-11-01T12:02:18.008Z</time>
      </trkpt>
      <trkpt lat="42.93388" lon="1.99996">
        <ele>471</ele>
        <time>2016-11-01T12:02:22.008Z</time>
      </trkpt>
      <trkpt lat="42.93386" lon="2">
        <ele>471</ele>
        <time>2016-11-01T12:02:24.008Z</time>
      </trkpt>
      <trkpt lat="42.93383" lon="2.00005">
        <ele>471.2179968</ele>
        <time>2016-11-01T12:02:26.008Z</time>
      </trkpt>
      <trkpt lat="42.93379" lon="2.00008">
        <ele>472</ele>
        <time>2016-11-01T12:02:28.008Z</time>
      </trkpt>
      <trkpt lat="42.93375" lon="2.0001">
        <ele>472</ele>
        <time>2016-11-01T12:02:30.008Z</time>
      </trkpt>
      <trkpt lat="42.93372" lon="2.00013">
        <ele>474</ele>
        <time>2016-11-01T12:02:32.008Z</time>
      </trkpt>
      <trkpt lat="42.93369" lon="2.00017">
        <ele>474</ele>
        <time>2016-11-01T12:02:34.008Z</time>
      </trkpt>
      <trkpt lat="42.93367" lon="2.00021">
        <ele>474.2179968</ele>
        <time>2016-11-01T12:02:36.008Z</time>
      </trkpt>
      <trkpt lat="42.93364" lon="2.00026">
        <ele>475</ele>
        <time>2016-11-01T12:02:38.008Z</time>
      </trkpt>
      <trkpt lat="42.93361" lon="2.0003">
        <ele>475</ele>
        <time>2016-11-01T12:02:40.008Z</time>
      </trkpt>
      <trkpt lat="42.93355" lon="2.00036">
        <ele>477</ele>
        <time>2016-11-01T12:02:44.008Z</time>
      </trkpt>
      <trkpt lat="42.9335" lon="2.00043">
        <ele>478</ele>
        <time>2016-11-01T12:02:48.008Z</time>
      </trkpt>
      <trkpt lat="42.93346" lon="2.00049">
        <ele>478.2179968</ele>
        <time>2016-11-01T12:02:51.008Z</time>
      </trkpt>
      <trkpt lat="42.93343" lon="2.00056">
        <ele>479</ele>
        <time>2016-11-01T12:02:54.008Z</time>
      </trkpt>
      <trkpt lat="42.93338" lon="2.00064">
        <ele>479</ele>
        <time>2016-11-01T12:02:58.008Z</time>
      </trkpt>
      <trkpt lat="42.93334" lon="2.00071">
        <ele>479.4359936</ele>
        <time>2016-11-01T12:03:01.008Z</time>
      </trkpt>
      <trkpt lat="42.93331" lon="2.00078">
        <ele>481</ele>
        <time>2016-11-01T12:03:04.008Z</time>
      </trkpt>
      <trkpt lat="42.93328" lon="2.00085">
        <ele>483</ele>
        <time>2016-11-01T12:03:07.008Z</time>
      </trkpt>
      <trkpt lat="42.93323" lon="2.00091">
        <ele>483</ele>
        <time>2016-11-01T12:03:10.008Z</time>
      </trkpt>
      <trkpt lat="42.93317" lon="2.00092">
        <ele>484</ele>
        <time>2016-11-01T12:03:13.008Z</time>
      </trkpt>
      <trkpt lat="42.93312" lon="2.00087">
        <ele>484.4359936</ele>
        <time>2016-11-01T12:03:16.008Z</time>
      </trkpt>
      <trkpt lat="42.93308" lon="2.0008">
        <ele>486</ele>
        <time>2016-11-01T12:03:19.008Z</time>
      </trkpt>
      <trkpt lat="42.93305" lon="2.00073">
        <ele>488</ele>
        <time>2016-11-01T12:03:22.008Z</time>
      </trkpt>
      <trkpt lat="42.93299" lon="2.00065">
        <ele>488.4359936</ele>
        <time>2016-11-01T12:03:26.008Z</time>
      </trkpt>
      <trkpt lat="42.93292" lon="2.00063">
        <ele>490</ele>
        <time>2016-11-01T12:03:30.008Z</time>
      </trkpt>
      <trkpt lat="42.9329" lon="2.00071">
        <ele>492</ele>
        <time>2016-11-01T12:03:33.008Z</time>
      </trkpt>
      <trkpt lat="42.93288" lon="2.00079">
        <ele>492.4359936</ele>
        <time>2016-11-01T12:03:36.008Z</time>
      </trkpt>
      <trkpt lat="42.93285" lon="2.00086">
        <ele>494</ele>
        <time>2016-11-01T12:03:39.008Z</time>
      </trkpt>
      <trkpt lat="42.93282" lon="2.00094">
        <ele>496</ele>
        <time>2016-11-01T12:03:42.008Z</time>
      </trkpt>
      <trkpt lat="42.93279" lon="2.00102">
        <ele>496</ele>
        <time>2016-11-01T12:03:45.008Z</time>
      </trkpt>
      <trkpt lat="42.93277" lon="2.0011">
        <ele>496</ele>
        <time>2016-11-01T12:03:48.008Z</time>
      </trkpt>
      <trkpt lat="42.93274" lon="2.0012">
        <ele>496.2179968</ele>
        <time>2016-11-01T12:03:51.008Z</time>
      </trkpt>
      <trkpt lat="42.93272" lon="2.00129">
        <ele>497</ele>
        <time>2016-11-01T12:03:54.008Z</time>
      </trkpt>
      <trkpt lat="42.93272" lon="2.00135">
        <ele>497</ele>
        <time>2016-11-01T12:03:56.008Z</time>
      </trkpt>
      <trkpt lat="42.93273" lon="2.00149">
        <ele>497</ele>
        <time>2016-11-01T12:04:00.008Z</time>
      </trkpt>
      <trkpt lat="42.93272" lon="2.00158">
        <ele>500</ele>
        <time>2016-11-01T12:04:03.008Z</time>
      </trkpt>
      <trkpt lat="42.93269" lon="2.00167">
        <ele>500.2179968</ele>
        <time>2016-11-01T12:04:06.008Z</time>
      </trkpt>
      <trkpt lat="42.93264" lon="2.00175">
        <ele>501</ele>
        <time>2016-11-01T12:04:10.008Z</time>
      </trkpt>
      <trkpt lat="42.93258" lon="2.00178">
        <ele>502</ele>
        <time>2016-11-01T12:04:13.008Z</time>
      </trkpt>
      <trkpt lat="42.93254" lon="2.0018">
        <ele>502</ele>
        <time>2016-11-01T12:04:15.008Z</time>
      </trkpt>
      <trkpt lat="42.93249" lon="2.0018">
        <ele>504</ele>
        <time>2016-11-01T12:04:17.008Z</time>
      </trkpt>
      <trkpt lat="42.93241" lon="2.00179">
        <ele>504</ele>
        <time>2016-11-01T12:04:20.008Z</time>
      </trkpt>
      <trkpt lat="42.93235" lon="2.00175">
        <ele>506</ele>
        <time>2016-11-01T12:04:23.008Z</time>
      </trkpt>
      <trkpt lat="42.93229" lon="2.0017">
        <ele>506.4359936</ele>
        <time>2016-11-01T12:04:26.008Z</time>
      </trkpt>
      <trkpt lat="42.93225" lon="2.00167">
        <ele>508</ele>
        <time>2016-11-01T12:04:28.008Z</time>
      </trkpt>
      <trkpt lat="42.9322" lon="2.00165">
        <ele>508</ele>
        <time>2016-11-01T12:04:30.008Z</time>
      </trkpt>
      <trkpt lat="42.93215" lon="2.00164">
        <ele>509</ele>
        <time>2016-11-01T12:04:32.008Z</time>
      </trkpt>
      <trkpt lat="42.93211" lon="2.00161">
        <ele>509</ele>
        <time>2016-11-01T12:04:34.008Z</time>
      </trkpt>
      <trkpt lat="42.93206" lon="2.00159">
        <ele>509.4359936</ele>
        <time>2016-11-01T12:04:36.008Z</time>
      </trkpt>
      <trkpt lat="42.93202" lon="2.00157">
        <ele>511</ele>
        <time>2016-11-01T12:04:38.008Z</time>
      </trkpt>
      <trkpt lat="42.93197" lon="2.00155">
        <ele>511</ele>
        <time>2016-11-01T12:04:40.008Z</time>
      </trkpt>
      <trkpt lat="42.93193" lon="2.00152">
        <ele>513</ele>
        <time>2016-11-01T12:04:42.008Z</time>
      </trkpt>
      <trkpt lat="42.93189" lon="2.00151">
        <ele>513</ele>
        <time>2016-11-01T12:04:44.008Z</time>
      </trkpt>
      <trkpt lat="42.93185" lon="2.00152">
        <ele>513.2179968</ele>
        <time>2016-11-01T12:04:46.008Z</time>
      </trkpt>
      <trkpt lat="42.93181" lon="2.00155">
        <ele>514</ele>
        <time>2016-11-01T12:04:48.008Z</time>
      </trkpt>
      <trkpt lat="42.93177" lon="2.00162">
        <ele>514.2179968</ele>
        <time>2016-11-01T12:04:51.008Z</time>
      </trkpt>
      <trkpt lat="42.93174" lon="2.00169">
        <ele>515</ele>
        <time>2016-11-01T12:04:54.008Z</time>
      </trkpt>
      <trkpt lat="42.93171" lon="2.00176">
        <ele>517</ele>
        <time>2016-11-01T12:04:57.008Z</time>
      </trkpt>
      <trkpt lat="42.93168" lon="2.00183">
        <ele>517</ele>
        <time>2016-11-01T12:05:00.008Z</time>
      </trkpt>
      <trkpt lat="42.93165" lon="2.00191">
        <ele>519</ele>
        <time>2016-11-01T12:05:03.008Z</time>
      </trkpt>
      <trkpt lat="42.93161" lon="2.00198">
        <ele>519.2179968</ele>
        <time>2016-11-01T12:05:06.008Z</time>
      </trkpt>
      <trkpt lat="42.93159" lon="2.00206">
        <ele>520</ele>
        <time>2016-11-01T12:05:09.008Z</time>
      </trkpt>
      <trkpt lat="42.93156" lon="2.00213">
        <ele>522</ele>
        <time>2016-11-01T12:05:12.008Z</time>
      </trkpt>
      <trkpt lat="42.93153" lon="2.00221">
        <ele>522</ele>
        <time>2016-11-01T12:05:15.008Z</time>
      </trkpt>
      <trkpt lat="42.93151" lon="2.00229">
        <ele>524</ele>
        <time>2016-11-01T12:05:18.008Z</time>
      </trkpt>
      <trkpt lat="42.93148" lon="2.00237">
        <ele>524.2179968</ele>
        <time>2016-11-01T12:05:21.008Z</time>
      </trkpt>
      <trkpt lat="42.93146" lon="2.00244">
        <ele>525</ele>
        <time>2016-11-01T12:05:24.008Z</time>
      </trkpt>
      <trkpt lat="42.93143" lon="2.00252">
        <ele>526</ele>
        <time>2016-11-01T12:05:27.008Z</time>
      </trkpt>
      <trkpt lat="42.9314" lon="2.00259">
        <ele>526</ele>
        <time>2016-11-01T12:05:30.008Z</time>
      </trkpt>
      <trkpt lat="42.93136" lon="2.00266">
        <ele>527</ele>
        <time>2016-11-01T12:05:33.008Z</time>
      </trkpt>
      <trkpt lat="42.93133" lon="2.00274">
        <ele>527.4359936</ele>
        <time>2016-11-01T12:05:36.008Z</time>
      </trkpt>
      <trkpt lat="42.93129" lon="2.00281">
        <ele>529</ele>
        <time>2016-11-01T12:05:39.008Z</time>
      </trkpt>
      <trkpt lat="42.93125" lon="2.00289">
        <ele>530</ele>
        <time>2016-11-01T12:05:42.008Z</time>
      </trkpt>
      <trkpt lat="42.93123" lon="2.00294">
        <ele>530</ele>
        <time>2016-11-01T12:05:44.008Z</time>
      </trkpt>
      <trkpt lat="42.9312" lon="2.00303">
        <ele>532</ele>
        <time>2016-11-01T12:05:47.008Z</time>
      </trkpt>
      <trkpt lat="42.93115" lon="2.0031">
        <ele>532</ele>
        <time>2016-11-01T12:05:50.008Z</time>
      </trkpt>
      <trkpt lat="42.93109" lon="2.00315">
        <ele>534</ele>
        <time>2016-11-01T12:05:53.008Z</time>
      </trkpt>
      <trkpt lat="42.93104" lon="2.00319">
        <ele>537</ele>
        <time>2016-11-01T12:05:57.008Z</time>
      </trkpt>
      <trkpt lat="42.93099" lon="2.00322">
        <ele>537</ele>
        <time>2016-11-01T12:05:59.008Z</time>
      </trkpt>
      <trkpt lat="42.93095" lon="2.00325">
        <ele>537.2179968</ele>
        <time>2016-11-01T12:06:01.008Z</time>
      </trkpt>
      <trkpt lat="42.93091" lon="2.00328">
        <ele>538</ele>
        <time>2016-11-01T12:06:03.008Z</time>
      </trkpt>
      <trkpt lat="42.93087" lon="2.00331">
        <ele>538</ele>
        <time>2016-11-01T12:06:05.008Z</time>
      </trkpt>
      <trkpt lat="42.93084" lon="2.00334">
        <ele>539</ele>
        <time>2016-11-01T12:06:07.008Z</time>
      </trkpt>
      <trkpt lat="42.93079" lon="2.00339">
        <ele>539</ele>
        <time>2016-11-01T12:06:10.008Z</time>
      </trkpt>
      <trkpt lat="42.93075" lon="2.00344">
        <ele>541</ele>
        <time>2016-11-01T12:06:13.008Z</time>
      </trkpt>
      <trkpt lat="42.9307" lon="2.0035">
        <ele>541.4359936</ele>
        <time>2016-11-01T12:06:16.008Z</time>
      </trkpt>
      <trkpt lat="42.93065" lon="2.00355">
        <ele>543</ele>
        <time>2016-11-01T12:06:19.008Z</time>
      </trkpt>
      <trkpt lat="42.93062" lon="2.00358">
        <ele>543.4359936</ele>
        <time>2016-11-01T12:06:21.008Z</time>
      </trkpt>
      <trkpt lat="42.93058" lon="2.00361">
        <ele>545</ele>
        <time>2016-11-01T12:06:23.008Z</time>
      </trkpt>
      <trkpt lat="42.93055" lon="2.00364">
        <ele>545</ele>
        <time>2016-11-01T12:06:25.008Z</time>
      </trkpt>
      <trkpt lat="42.93051" lon="2.00367">
        <ele>546</ele>
        <time>2016-11-01T12:06:27.008Z</time>
      </trkpt>
      <trkpt lat="42.93048" lon="2.0037">
        <ele>546</ele>
        <time>2016-11-01T12:06:29.008Z</time>
      </trkpt>
      <trkpt lat="42.93045" lon="2.00374">
        <ele>546.2179968</ele>
        <time>2016-11-01T12:06:31.008Z</time>
      </trkpt>
      <trkpt lat="42.93041" lon="2.00377">
        <ele>547</ele>
        <time>2016-11-01T12:06:33.008Z</time>
      </trkpt>
      <trkpt lat="42.93038" lon="2.00381">
        <ele>547</ele>
        <time>2016-11-01T12:06:35.008Z</time>
      </trkpt>
      <trkpt lat="42.93034" lon="2.00388">
        <ele>548</ele>
        <time>2016-11-01T12:06:38.008Z</time>
      </trkpt>
      <trkpt lat="42.93029" lon="2.00394">
        <ele>548.4359936</ele>
        <time>2016-11-01T12:06:41.008Z</time>
      </trkpt>
      <trkpt lat="42.93025" lon="2.00401">
        <ele>550</ele>
        <time>2016-11-01T12:06:44.008Z</time>
      </trkpt>
      <trkpt lat="42.93022" lon="2.00405">
        <ele>550.4359936</ele>
        <time>2016-11-01T12:06:46.008Z</time>
      </trkpt>
      <trkpt lat="42.93017" lon="2.00411">
        <ele>552</ele>
        <time>2016-11-01T12:06:49.008Z</time>
      </trkpt>
      <trkpt lat="42.93013" lon="2.00417">
        <ele>553</ele>
        <time>2016-11-01T12:06:52.008Z</time>
      </trkpt>
      <trkpt lat="42.93009" lon="2.00419">
        <ele>553</ele>
        <time>2016-11-01T12:06:54.008Z</time>
      </trkpt>
      <trkpt lat="42.93005" lon="2.00422">
        <ele>553.4359936</ele>
        <time>2016-11-01T12:06:56.008Z</time>
      </trkpt>
      <trkpt lat="42.92999" lon="2.00427">
        <ele>555</ele>
        <time>2016-11-01T12:06:59.008Z</time>
      </trkpt>
      <trkpt lat="42.92995" lon="2.0043">
        <ele>555.2179968</ele>
        <time>2016-11-01T12:07:01.008Z</time>
      </trkpt>
      <trkpt lat="42.92992" lon="2.00434">
        <ele>556</ele>
        <time>2016-11-01T12:07:03.008Z</time>
      </trkpt>
      <trkpt lat="42.92988" lon="2.00438">
        <ele>556</ele>
        <time>2016-11-01T12:07:05.008Z</time>
      </trkpt>
      <trkpt lat="42.92985" lon="2.00442">
        <ele>557</ele>
        <time>2016-11-01T12:07:07.008Z</time>
      </trkpt>
      <trkpt lat="42.92981" lon="2.00447">
        <ele>557</ele>
        <time>2016-11-01T12:07:09.008Z</time>
      </trkpt>
      <trkpt lat="42.92976" lon="2.00454">
        <ele>559</ele>
        <time>2016-11-01T12:07:12.008Z</time>
      </trkpt>
      <trkpt lat="42.92971" lon="2.00461">
        <ele>559</ele>
        <time>2016-11-01T12:07:15.008Z</time>
      </trkpt>
      <trkpt lat="42.92965" lon="2.00467">
        <ele>562</ele>
        <time>2016-11-01T12:07:18.008Z</time>
      </trkpt>
      <trkpt lat="42.9296" lon="2.00474">
        <ele>562</ele>
        <time>2016-11-01T12:07:21.008Z</time>
      </trkpt>
      <trkpt lat="42.92954" lon="2.0048">
        <ele>562</ele>
        <time>2016-11-01T12:07:24.008Z</time>
      </trkpt>
      <trkpt lat="42.92949" lon="2.00487">
        <ele>564</ele>
        <time>2016-11-01T12:07:27.008Z</time>
      </trkpt>
      <trkpt lat="42.92943" lon="2.00494">
        <ele>564</ele>
        <time>2016-11-01T12:07:30.008Z</time>
      </trkpt>
      <trkpt lat="42.9294" lon="2.00498">
        <ele>565</ele>
        <time>2016-11-01T12:07:32.008Z</time>
      </trkpt>
      <trkpt lat="42.92936" lon="2.00502">
        <ele>565</ele>
        <time>2016-11-01T12:07:34.008Z</time>
      </trkpt>
      <trkpt lat="42.92933" lon="2.00507">
        <ele>565.4359936</ele>
        <time>2016-11-01T12:07:36.008Z</time>
      </trkpt>
      <trkpt lat="42.92928" lon="2.00514">
        <ele>567</ele>
        <time>2016-11-01T12:07:39.008Z</time>
      </trkpt>
      <trkpt lat="42.92923" lon="2.00521">
        <ele>569</ele>
        <time>2016-11-01T12:07:42.008Z</time>
      </trkpt>
      <trkpt lat="42.92917" lon="2.00526">
        <ele>569</ele>
        <time>2016-11-01T12:07:45.008Z</time>
      </trkpt>
      <trkpt lat="42.92909" lon="2.00534">
        <ele>570</ele>
        <time>2016-11-01T12:07:49.008Z</time>
      </trkpt>
      <trkpt lat="42.92903" lon="2.0054">
        <ele>571</ele>
        <time>2016-11-01T12:07:54.008Z</time>
      </trkpt>
      <trkpt lat="42.92901" lon="2.0055">
        <ele>571</ele>
        <time>2016-11-01T12:12:26.008Z</time>
      </trkpt>
      <trkpt lat="42.92898" lon="2.00559">
        <ele>571</ele>
        <time>2016-11-01T12:12:30.008Z</time>
      </trkpt>
      <trkpt lat="42.92897" lon="2.00572">
        <ele>573</ele>
        <time>2016-11-01T12:12:34.008Z</time>
      </trkpt>
      <trkpt lat="42.92896" lon="2.00583">
        <ele>573</ele>
        <time>2016-11-01T12:12:38.008Z</time>
      </trkpt>
      <trkpt lat="42.92895" lon="2.00592">
        <ele>573.4359936</ele>
        <time>2016-11-01T12:12:41.008Z</time>
      </trkpt>
      <trkpt lat="42.92893" lon="2.00601">
        <ele>575</ele>
        <time>2016-11-01T12:12:44.008Z</time>
      </trkpt>
      <trkpt lat="42.92891" lon="2.0061">
        <ele>575</ele>
        <time>2016-11-01T12:12:47.008Z</time>
      </trkpt>
      <trkpt lat="42.92888" lon="2.00619">
        <ele>575</ele>
        <time>2016-11-01T12:12:50.008Z</time>
      </trkpt>
      <trkpt lat="42.92886" lon="2.00628">
        <ele>577</ele>
        <time>2016-11-01T12:12:53.008Z</time>
      </trkpt>
      <trkpt lat="42.92883" lon="2.00636">
        <ele>577</ele>
        <time>2016-11-01T12:12:56.008Z</time>
      </trkpt>
      <trkpt lat="42.9288" lon="2.00644">
        <ele>577</ele>
        <time>2016-11-01T12:12:59.008Z</time>
      </trkpt>
      <trkpt lat="42.92878" lon="2.0065">
        <ele>577.8719872</ele>
        <time>2016-11-01T12:13:01.008Z</time>
      </trkpt>
      <trkpt lat="42.92876" lon="2.00656">
        <ele>581</ele>
        <time>2016-11-01T12:13:03.008Z</time>
      </trkpt>
      <trkpt lat="42.92874" lon="2.00661">
        <ele>581</ele>
        <time>2016-11-01T12:13:05.008Z</time>
      </trkpt>
      <trkpt lat="42.92872" lon="2.00667">
        <ele>581</ele>
        <time>2016-11-01T12:13:07.008Z</time>
      </trkpt>
      <trkpt lat="42.9287" lon="2.00672">
        <ele>581</ele>
        <time>2016-11-01T12:13:09.008Z</time>
      </trkpt>
      <trkpt lat="42.92866" lon="2.00679">
        <ele>583</ele>
        <time>2016-11-01T12:13:12.008Z</time>
      </trkpt>
      <trkpt lat="42.92861" lon="2.00686">
        <ele>583</ele>
        <time>2016-11-01T12:13:15.008Z</time>
      </trkpt>
      <trkpt lat="42.92858" lon="2.00689">
        <ele>583</ele>
        <time>2016-11-01T12:13:17.008Z</time>
      </trkpt>
      <trkpt lat="42.92852" lon="2.00694">
        <ele>583</ele>
        <time>2016-11-01T12:13:20.008Z</time>
      </trkpt>
      <trkpt lat="42.92847" lon="2.007">
        <ele>584</ele>
        <time>2016-11-01T12:13:23.008Z</time>
      </trkpt>
      <trkpt lat="42.92842" lon="2.00707">
        <ele>584</ele>
        <time>2016-11-01T12:13:26.008Z</time>
      </trkpt>
      <trkpt lat="42.92838" lon="2.00715">
        <ele>584</ele>
        <time>2016-11-01T12:13:29.008Z</time>
      </trkpt>
      <trkpt lat="42.92835" lon="2.00723">
        <ele>586</ele>
        <time>2016-11-01T12:13:32.008Z</time>
      </trkpt>
      <trkpt lat="42.92833" lon="2.00729">
        <ele>586</ele>
        <time>2016-11-01T12:13:34.008Z</time>
      </trkpt>
      <trkpt lat="42.92832" lon="2.00738">
        <ele>586</ele>
        <time>2016-11-01T12:13:37.008Z</time>
      </trkpt>
      <trkpt lat="42.92829" lon="2.00746">
        <ele>586</ele>
        <time>2016-11-01T12:13:40.008Z</time>
      </trkpt>
      <trkpt lat="42.92822" lon="2.00753">
        <ele>588</ele>
        <time>2016-11-01T12:13:44.008Z</time>
      </trkpt>
      <trkpt lat="42.92816" lon="2.00757">
        <ele>588</ele>
        <time>2016-11-01T12:13:47.008Z</time>
      </trkpt>
      <trkpt lat="42.9281" lon="2.00761">
        <ele>588</ele>
        <time>2016-11-01T12:13:50.008Z</time>
      </trkpt>
      <trkpt lat="42.92806" lon="2.00768">
        <ele>591</ele>
        <time>2016-11-01T12:13:53.008Z</time>
      </trkpt>
      <trkpt lat="42.92802" lon="2.00775">
        <ele>591.2179968</ele>
        <time>2016-11-01T12:13:56.008Z</time>
      </trkpt>
      <trkpt lat="42.92798" lon="2.00781">
        <ele>592</ele>
        <time>2016-11-01T12:13:59.008Z</time>
      </trkpt>
      <trkpt lat="42.92792" lon="2.00785">
        <ele>593</ele>
        <time>2016-11-01T12:14:02.008Z</time>
      </trkpt>
      <trkpt lat="42.92786" lon="2.00789">
        <ele>593</ele>
        <time>2016-11-01T12:14:05.008Z</time>
      </trkpt>
      <trkpt lat="42.92781" lon="2.0079">
        <ele>593</ele>
        <time>2016-11-01T12:14:07.008Z</time>
      </trkpt>
      <trkpt lat="42.92776" lon="2.00791">
        <ele>593</ele>
        <time>2016-11-01T12:14:09.008Z</time>
      </trkpt>
      <trkpt lat="42.92771" lon="2.00793">
        <ele>593.4359936</ele>
        <time>2016-11-01T12:14:11.008Z</time>
      </trkpt>
      <trkpt lat="42.92766" lon="2.00794">
        <ele>595</ele>
        <time>2016-11-01T12:14:13.008Z</time>
      </trkpt>
      <trkpt lat="42.92762" lon="2.00796">
        <ele>595</ele>
        <time>2016-11-01T12:14:15.008Z</time>
      </trkpt>
      <trkpt lat="42.92757" lon="2.00799">
        <ele>595</ele>
        <time>2016-11-01T12:14:17.008Z</time>
      </trkpt>
      <trkpt lat="42.92753" lon="2.00802">
        <ele>595</ele>
        <time>2016-11-01T12:14:19.008Z</time>
      </trkpt>
      <trkpt lat="42.92749" lon="2.00806">
        <ele>595.4359936</ele>
        <time>2016-11-01T12:14:21.008Z</time>
      </trkpt>
      <trkpt lat="42.92743" lon="2.00812">
        <ele>597</ele>
        <time>2016-11-01T12:14:24.008Z</time>
      </trkpt>
      <trkpt lat="42.92739" lon="2.00817">
        <ele>597</ele>
        <time>2016-11-01T12:14:26.008Z</time>
      </trkpt>
      <trkpt lat="42.92736" lon="2.00822">
        <ele>597</ele>
        <time>2016-11-01T12:14:28.008Z</time>
      </trkpt>
      <trkpt lat="42.92733" lon="2.00827">
        <ele>597</ele>
        <time>2016-11-01T12:14:30.008Z</time>
      </trkpt>
      <trkpt lat="42.92727" lon="2.00832">
        <ele>599</ele>
        <time>2016-11-01T12:14:33.008Z</time>
      </trkpt>
      <trkpt lat="42.92722" lon="2.00839">
        <ele>599</ele>
        <time>2016-11-01T12:14:36.008Z</time>
      </trkpt>
      <trkpt lat="42.92719" lon="2.00843">
        <ele>599</ele>
        <time>2016-11-01T12:14:38.008Z</time>
      </trkpt>
      <trkpt lat="42.92715" lon="2.00849">
        <ele>599.6539904</ele>
        <time>2016-11-01T12:14:41.008Z</time>
      </trkpt>
      <trkpt lat="42.92711" lon="2.00856">
        <ele>602</ele>
        <time>2016-11-01T12:14:44.008Z</time>
      </trkpt>
      <trkpt lat="42.92706" lon="2.00864">
        <ele>603</ele>
        <time>2016-11-01T12:14:47.008Z</time>
      </trkpt>
      <trkpt lat="42.92703" lon="2.00868">
        <ele>603</ele>
        <time>2016-11-01T12:14:49.008Z</time>
      </trkpt>
      <trkpt lat="42.927" lon="2.00873">
        <ele>603.2179968</ele>
        <time>2016-11-01T12:14:51.008Z</time>
      </trkpt>
      <trkpt lat="42.92696" lon="2.00877">
        <ele>604</ele>
        <time>2016-11-01T12:14:53.008Z</time>
      </trkpt>
      <trkpt lat="42.92693" lon="2.0088">
        <ele>604</ele>
        <time>2016-11-01T12:14:55.008Z</time>
      </trkpt>
      <trkpt lat="42.92689" lon="2.00884">
        <ele>604</ele>
        <time>2016-11-01T12:14:57.008Z</time>
      </trkpt>
      <trkpt lat="42.92683" lon="2.00889">
        <ele>604</ele>
        <time>2016-11-01T12:15:00.008Z</time>
      </trkpt>
      <trkpt lat="42.92677" lon="2.00895">
        <ele>606</ele>
        <time>2016-11-01T12:15:03.008Z</time>
      </trkpt>
      <trkpt lat="42.92671" lon="2.00899">
        <ele>606</ele>
        <time>2016-11-01T12:15:06.008Z</time>
      </trkpt>
      <trkpt lat="42.92667" lon="2.00902">
        <ele>606</ele>
        <time>2016-11-01T12:15:08.008Z</time>
      </trkpt>
      <trkpt lat="42.92663" lon="2.00904">
        <ele>606</ele>
        <time>2016-11-01T12:15:10.008Z</time>
      </trkpt>
      <trkpt lat="42.92659" lon="2.00907">
        <ele>608</ele>
        <time>2016-11-01T12:15:12.008Z</time>
      </trkpt>
      <trkpt lat="42.92655" lon="2.0091">
        <ele>608</ele>
        <time>2016-11-01T12:15:14.008Z</time>
      </trkpt>
      <trkpt lat="42.92651" lon="2.00913">
        <ele>608</ele>
        <time>2016-11-01T12:15:16.008Z</time>
      </trkpt>
      <trkpt lat="42.92647" lon="2.00916">
        <ele>608</ele>
        <time>2016-11-01T12:15:18.008Z</time>
      </trkpt>
      <trkpt lat="42.92643" lon="2.00919">
        <ele>608</ele>
        <time>2016-11-01T12:15:20.008Z</time>
      </trkpt>
      <trkpt lat="42.92639" lon="2.00922">
        <ele>610</ele>
        <time>2016-11-01T12:15:22.008Z</time>
      </trkpt>
      <trkpt lat="42.92635" lon="2.00924">
        <ele>610</ele>
        <time>2016-11-01T12:15:24.008Z</time>
      </trkpt>
      <trkpt lat="42.92631" lon="2.00926">
        <ele>610.2179968</ele>
        <time>2016-11-01T12:15:26.008Z</time>
      </trkpt>
      <trkpt lat="42.92626" lon="2.00927">
        <ele>611</ele>
        <time>2016-11-01T12:15:28.008Z</time>
      </trkpt>
      <trkpt lat="42.92622" lon="2.00928">
        <ele>611</ele>
        <time>2016-11-01T12:15:30.008Z</time>
      </trkpt>
      <trkpt lat="42.92618" lon="2.00928">
        <ele>613</ele>
        <time>2016-11-01T12:15:32.008Z</time>
      </trkpt>
      <trkpt lat="42.92611" lon="2.00927">
        <ele>613</ele>
        <time>2016-11-01T12:15:35.008Z</time>
      </trkpt>
      <trkpt lat="42.92604" lon="2.00923">
        <ele>614</ele>
        <time>2016-11-01T12:15:39.008Z</time>
      </trkpt>
      <trkpt lat="42.92598" lon="2.00919">
        <ele>614</ele>
        <time>2016-11-01T12:15:42.008Z</time>
      </trkpt>
      <trkpt lat="42.92591" lon="2.00916">
        <ele>614</ele>
        <time>2016-11-01T12:15:45.008Z</time>
      </trkpt>
      <trkpt lat="42.92586" lon="2.00913">
        <ele>614</ele>
        <time>2016-11-01T12:15:47.008Z</time>
      </trkpt>
      <trkpt lat="42.92582" lon="2.00911">
        <ele>614</ele>
        <time>2016-11-01T12:15:49.008Z</time>
      </trkpt>
      <trkpt lat="42.92577" lon="2.00907">
        <ele>614</ele>
        <time>2016-11-01T12:15:52.008Z</time>
      </trkpt>
      <trkpt lat="42.92575" lon="2.00905">
        <ele>614</ele>
        <time>2016-11-01T12:15:54.008Z</time>
      </trkpt>
      <trkpt lat="42.9257" lon="2.00903">
        <ele>615</ele>
        <time>2016-11-01T12:16:22.008Z</time>
      </trkpt>
      <trkpt lat="42.92567" lon="2.00901">
        <ele>615</ele>
        <time>2016-11-01T12:16:24.008Z</time>
      </trkpt>
      <trkpt lat="42.92563" lon="2.00898">
        <ele>615</ele>
        <time>2016-11-01T12:16:26.008Z</time>
      </trkpt>
      <trkpt lat="42.92559" lon="2.00895">
        <ele>615</ele>
        <time>2016-11-01T12:16:28.008Z</time>
      </trkpt>
      <trkpt lat="42.92552" lon="2.00889">
        <ele>615</ele>
        <time>2016-11-01T12:16:31.008Z</time>
      </trkpt>
      <trkpt lat="42.92547" lon="2.00885">
        <ele>615</ele>
        <time>2016-11-01T12:16:33.008Z</time>
      </trkpt>
      <trkpt lat="42.92541" lon="2.00881">
        <ele>615</ele>
        <time>2016-11-01T12:16:35.008Z</time>
      </trkpt>
      <trkpt lat="42.92536" lon="2.00878">
        <ele>615</ele>
        <time>2016-11-01T12:16:37.008Z</time>
      </trkpt>
      <trkpt lat="42.9253" lon="2.0088">
        <ele>615</ele>
        <time>2016-11-01T12:16:39.008Z</time>
      </trkpt>
      <trkpt lat="42.92525" lon="2.00883">
        <ele>615.2179968</ele>
        <time>2016-11-01T12:16:41.008Z</time>
      </trkpt>
      <trkpt lat="42.92521" lon="2.00888">
        <ele>616</ele>
        <time>2016-11-01T12:16:43.008Z</time>
      </trkpt>
      <trkpt lat="42.92517" lon="2.00893">
        <ele>616</ele>
        <time>2016-11-01T12:16:45.008Z</time>
      </trkpt>
      <trkpt lat="42.92512" lon="2.00897">
        <ele>616</ele>
        <time>2016-11-01T12:16:47.008Z</time>
      </trkpt>
      <trkpt lat="42.92507" lon="2.00901">
        <ele>616</ele>
        <time>2016-11-01T12:16:49.008Z</time>
      </trkpt>
      <trkpt lat="42.92502" lon="2.00904">
        <ele>616.6539904</ele>
        <time>2016-11-01T12:16:51.008Z</time>
      </trkpt>
      <trkpt lat="42.92496" lon="2.00908">
        <ele>619</ele>
        <time>2016-11-01T12:16:53.008Z</time>
      </trkpt>
      <trkpt lat="42.9249" lon="2.0091">
        <ele>619</ele>
        <time>2016-11-01T12:16:55.008Z</time>
      </trkpt>
      <trkpt lat="42.92485" lon="2.00913">
        <ele>619</ele>
        <time>2016-11-01T12:16:57.008Z</time>
      </trkpt>
      <trkpt lat="42.92479" lon="2.00917">
        <ele>619</ele>
        <time>2016-11-01T12:16:59.008Z</time>
      </trkpt>
      <trkpt lat="42.92474" lon="2.00921">
        <ele>619.4359936</ele>
        <time>2016-11-01T12:17:01.008Z</time>
      </trkpt>
      <trkpt lat="42.92468" lon="2.00924">
        <ele>621</ele>
        <time>2016-11-01T12:17:03.008Z</time>
      </trkpt>
      <trkpt lat="42.92462" lon="2.00929">
        <ele>621</ele>
        <time>2016-11-01T12:17:05.008Z</time>
      </trkpt>
      <trkpt lat="42.92455" lon="2.00933">
        <ele>621</ele>
        <time>2016-11-01T12:17:07.008Z</time>
      </trkpt>
      <trkpt lat="42.92446" lon="2.00939">
        <ele>621</ele>
        <time>2016-11-01T12:17:10.008Z</time>
      </trkpt>
      <trkpt lat="42.92438" lon="2.00945">
        <ele>622</ele>
        <time>2016-11-01T12:17:13.008Z</time>
      </trkpt>
      <trkpt lat="42.9243" lon="2.00951">
        <ele>622</ele>
        <time>2016-11-01T12:17:16.008Z</time>
      </trkpt>
      <trkpt lat="42.92423" lon="2.00959">
        <ele>622</ele>
        <time>2016-11-01T12:17:19.008Z</time>
      </trkpt>
      <trkpt lat="42.92415" lon="2.00967">
        <ele>623</ele>
        <time>2016-11-01T12:17:22.008Z</time>
      </trkpt>
      <trkpt lat="42.92406" lon="2.00976">
        <ele>623</ele>
        <time>2016-11-01T12:17:25.008Z</time>
      </trkpt>
      <trkpt lat="42.92399" lon="2.00982">
        <ele>623</ele>
        <time>2016-11-01T12:17:27.008Z</time>
      </trkpt>
      <trkpt lat="42.92392" lon="2.00988">
        <ele>623</ele>
        <time>2016-11-01T12:17:29.008Z</time>
      </trkpt>
      <trkpt lat="42.92385" lon="2.00992">
        <ele>623.21583909969</ele>
        <time>2016-11-01T12:17:31.008Z</time>
      </trkpt>
      <trkpt lat="42.92377" lon="2.00996">
        <ele>624</ele>
        <time>2016-11-01T12:17:33.008Z</time>
      </trkpt>
      <trkpt lat="42.9237" lon="2.00998">
        <ele>624</ele>
        <time>2016-11-01T12:17:35.008Z</time>
      </trkpt>
      <trkpt lat="42.92363" lon="2.01">
        <ele>624</ele>
        <time>2016-11-01T12:17:37.008Z</time>
      </trkpt>
      <trkpt lat="42.92356" lon="2.01004">
        <ele>624</ele>
        <time>2016-11-01T12:17:39.008Z</time>
      </trkpt>
      <trkpt lat="42.92349" lon="2.01009">
        <ele>624</ele>
        <time>2016-11-01T12:17:41.008Z</time>
      </trkpt>
      <trkpt lat="42.92344" lon="2.01016">
        <ele>624</ele>
        <time>2016-11-01T12:17:43.008Z</time>
      </trkpt>
      <trkpt lat="42.92338" lon="2.01025">
        <ele>624</ele>
        <time>2016-11-01T12:17:45.008Z</time>
      </trkpt>
      <trkpt lat="42.92334" lon="2.01029">
        <ele>624</ele>
        <time>2016-11-01T12:17:46.008Z</time>
      </trkpt>
      <trkpt lat="42.92327" lon="2.01038">
        <ele>624</ele>
        <time>2016-11-01T12:17:48.008Z</time>
      </trkpt>
      <trkpt lat="42.92319" lon="2.01046">
        <ele>624</ele>
        <time>2016-11-01T12:17:50.008Z</time>
      </trkpt>
      <trkpt lat="42.92311" lon="2.01054">
        <ele>623</ele>
        <time>2016-11-01T12:17:52.008Z</time>
      </trkpt>
      <trkpt lat="42.92301" lon="2.01057">
        <ele>623</ele>
        <time>2016-11-01T12:17:54.008Z</time>
      </trkpt>
      <trkpt lat="42.92293" lon="2.01051">
        <ele>623</ele>
        <time>2016-11-01T12:17:56.008Z</time>
      </trkpt>
      <trkpt lat="42.92286" lon="2.01045">
        <ele>623</ele>
        <time>2016-11-01T12:17:58.008Z</time>
      </trkpt>
      <trkpt lat="42.92275" lon="2.01042">
        <ele>623.2179968</ele>
        <time>2016-11-01T12:18:01.008Z</time>
      </trkpt>
      <trkpt lat="42.92268" lon="2.01042">
        <ele>624</ele>
        <time>2016-11-01T12:18:03.008Z</time>
      </trkpt>
      <trkpt lat="42.9226" lon="2.01044">
        <ele>624</ele>
        <time>2016-11-01T12:18:05.008Z</time>
      </trkpt>
      <trkpt lat="42.92253" lon="2.01046">
        <ele>624</ele>
        <time>2016-11-01T12:18:07.008Z</time>
      </trkpt>
      <trkpt lat="42.92248" lon="2.01048">
        <ele>624</ele>
        <time>2016-11-01T12:18:08.008Z</time>
      </trkpt>
      <trkpt lat="42.92244" lon="2.01049">
        <ele>624</ele>
        <time>2016-11-01T12:18:09.008Z</time>
      </trkpt>
      <trkpt lat="42.9224" lon="2.01051">
        <ele>624</ele>
        <time>2016-11-01T12:18:10.008Z</time>
      </trkpt>
      <trkpt lat="42.92236" lon="2.01053">
        <ele>624.2179968</ele>
        <time>2016-11-01T12:18:11.008Z</time>
      </trkpt>
      <trkpt lat="42.92229" lon="2.01058">
        <ele>625</ele>
        <time>2016-11-01T12:18:13.008Z</time>
      </trkpt>
      <trkpt lat="42.92221" lon="2.01063">
        <ele>625</ele>
        <time>2016-11-01T12:18:15.008Z</time>
      </trkpt>
      <trkpt lat="42.92218" lon="2.01066">
        <ele>625</ele>
        <time>2016-11-01T12:18:16.008Z</time>
      </trkpt>
      <trkpt lat="42.92212" lon="2.01071">
        <ele>625</ele>
        <time>2016-11-01T12:18:18.008Z</time>
      </trkpt>
      <trkpt lat="42.92205" lon="2.01077">
        <ele>625</ele>
        <time>2016-11-01T12:18:20.008Z</time>
      </trkpt>
      <trkpt lat="42.92199" lon="2.01084">
        <ele>625</ele>
        <time>2016-11-01T12:18:22.008Z</time>
      </trkpt>
      <trkpt lat="42.92194" lon="2.01092">
        <ele>625</ele>
        <time>2016-11-01T12:18:24.008Z</time>
      </trkpt>
      <trkpt lat="42.92189" lon="2.01101">
        <ele>625</ele>
        <time>2016-11-01T12:18:26.008Z</time>
      </trkpt>
      <trkpt lat="42.92184" lon="2.0111">
        <ele>625</ele>
        <time>2016-11-01T12:18:28.008Z</time>
      </trkpt>
      <trkpt lat="42.92178" lon="2.0112">
        <ele>625</ele>
        <time>2016-11-01T12:18:30.008Z</time>
      </trkpt>
      <trkpt lat="42.92173" lon="2.01129">
        <ele>626</ele>
        <time>2016-11-01T12:18:32.008Z</time>
      </trkpt>
      <trkpt lat="42.92169" lon="2.01137">
        <ele>626</ele>
        <time>2016-11-01T12:18:34.008Z</time>
      </trkpt>
      <trkpt lat="42.92164" lon="2.01146">
        <ele>626</ele>
        <time>2016-11-01T12:18:36.008Z</time>
      </trkpt>
      <trkpt lat="42.92161" lon="2.01157">
        <ele>626</ele>
        <time>2016-11-01T12:18:38.008Z</time>
      </trkpt>
      <trkpt lat="42.92159" lon="2.01169">
        <ele>626</ele>
        <time>2016-11-01T12:18:40.008Z</time>
      </trkpt>
      <trkpt lat="42.92157" lon="2.0118">
        <ele>626</ele>
        <time>2016-11-01T12:18:42.008Z</time>
      </trkpt>
      <trkpt lat="42.92155" lon="2.01191">
        <ele>626</ele>
        <time>2016-11-01T12:18:44.008Z</time>
      </trkpt>
      <trkpt lat="42.92153" lon="2.01201">
        <ele>626</ele>
        <time>2016-11-01T12:18:46.008Z</time>
      </trkpt>
      <trkpt lat="42.92151" lon="2.01212">
        <ele>626</ele>
        <time>2016-11-01T12:18:48.008Z</time>
      </trkpt>
      <trkpt lat="42.92147" lon="2.01222">
        <ele>626</ele>
        <time>2016-11-01T12:18:50.008Z</time>
      </trkpt>
      <trkpt lat="42.92143" lon="2.01232">
        <ele>627</ele>
        <time>2016-11-01T12:18:52.008Z</time>
      </trkpt>
      <trkpt lat="42.92138" lon="2.01243">
        <ele>627</ele>
        <time>2016-11-01T12:18:54.008Z</time>
      </trkpt>
      <trkpt lat="42.92132" lon="2.01252">
        <ele>627</ele>
        <time>2016-11-01T12:18:56.008Z</time>
      </trkpt>
      <trkpt lat="42.92126" lon="2.0126">
        <ele>627</ele>
        <time>2016-11-01T12:18:58.008Z</time>
      </trkpt>
      <trkpt lat="42.9212" lon="2.01269">
        <ele>627</ele>
        <time>2016-11-01T12:19:00.008Z</time>
      </trkpt>
      <trkpt lat="42.92115" lon="2.01278">
        <ele>627</ele>
        <time>2016-11-01T12:19:02.008Z</time>
      </trkpt>
      <trkpt lat="42.9211" lon="2.01288">
        <ele>627</ele>
        <time>2016-11-01T12:19:04.008Z</time>
      </trkpt>
      <trkpt lat="42.92106" lon="2.01298">
        <ele>627</ele>
        <time>2016-11-01T12:19:06.008Z</time>
      </trkpt>
      <trkpt lat="42.92101" lon="2.01307">
        <ele>627</ele>
        <time>2016-11-01T12:19:08.008Z</time>
      </trkpt>
      <trkpt lat="42.92095" lon="2.01316">
        <ele>627</ele>
        <time>2016-11-01T12:19:10.008Z</time>
      </trkpt>
      <trkpt lat="42.92089" lon="2.01324">
        <ele>629</ele>
        <time>2016-11-01T12:19:12.008Z</time>
      </trkpt>
      <trkpt lat="42.92083" lon="2.01332">
        <ele>629</ele>
        <time>2016-11-01T12:19:14.008Z</time>
      </trkpt>
      <trkpt lat="42.92079" lon="2.01336">
        <ele>629</ele>
        <time>2016-11-01T12:19:15.008Z</time>
      </trkpt>
      <trkpt lat="42.92073" lon="2.01344">
        <ele>629</ele>
        <time>2016-11-01T12:19:17.008Z</time>
      </trkpt>
      <trkpt lat="42.9207" lon="2.01347">
        <ele>629</ele>
        <time>2016-11-01T12:19:18.008Z</time>
      </trkpt>
      <trkpt lat="42.92066" lon="2.01351">
        <ele>629</ele>
        <time>2016-11-01T12:19:19.008Z</time>
      </trkpt>
      <trkpt lat="42.92063" lon="2.01354">
        <ele>629</ele>
        <time>2016-11-01T12:19:20.008Z</time>
      </trkpt>
      <trkpt lat="42.92056" lon="2.01362">
        <ele>629</ele>
        <time>2016-11-01T12:19:22.008Z</time>
      </trkpt>
      <trkpt lat="42.9205" lon="2.0137">
        <ele>629</ele>
        <time>2016-11-01T12:19:24.008Z</time>
      </trkpt>
      <trkpt lat="42.92044" lon="2.01379">
        <ele>629</ele>
        <time>2016-11-01T12:19:26.008Z</time>
      </trkpt>
      <trkpt lat="42.92039" lon="2.01387">
        <ele>629</ele>
        <time>2016-11-01T12:19:28.008Z</time>
      </trkpt>
      <trkpt lat="42.92033" lon="2.01395">
        <ele>629</ele>
        <time>2016-11-01T12:19:30.008Z</time>
      </trkpt>
      <trkpt lat="42.92027" lon="2.01404">
        <ele>630</ele>
        <time>2016-11-01T12:19:32.008Z</time>
      </trkpt>
      <trkpt lat="42.92021" lon="2.01411">
        <ele>630</ele>
        <time>2016-11-01T12:19:34.008Z</time>
      </trkpt>
      <trkpt lat="42.92014" lon="2.0142">
        <ele>630</ele>
        <time>2016-11-01T12:19:36.008Z</time>
      </trkpt>
      <trkpt lat="42.92008" lon="2.01427">
        <ele>630</ele>
        <time>2016-11-01T12:19:38.008Z</time>
      </trkpt>
      <trkpt lat="42.92001" lon="2.01435">
        <ele>630</ele>
        <time>2016-11-01T12:19:40.008Z</time>
      </trkpt>
      <trkpt lat="42.91994" lon="2.01444">
        <ele>631</ele>
        <time>2016-11-01T12:19:42.008Z</time>
      </trkpt>
      <trkpt lat="42.91988" lon="2.01452">
        <ele>631</ele>
        <time>2016-11-01T12:19:44.008Z</time>
      </trkpt>
      <trkpt lat="42.91982" lon="2.01461">
        <ele>631</ele>
        <time>2016-11-01T12:19:46.008Z</time>
      </trkpt>
      <trkpt lat="42.91977" lon="2.01469">
        <ele>631</ele>
        <time>2016-11-01T12:19:48.008Z</time>
      </trkpt>
      <trkpt lat="42.91971" lon="2.01478">
        <ele>631</ele>
        <time>2016-11-01T12:19:50.008Z</time>
      </trkpt>
      <trkpt lat="42.91965" lon="2.01487">
        <ele>632</ele>
        <time>2016-11-01T12:19:52.008Z</time>
      </trkpt>
      <trkpt lat="42.9196" lon="2.01496">
        <ele>632</ele>
        <time>2016-11-01T12:19:54.008Z</time>
      </trkpt>
      <trkpt lat="42.91954" lon="2.01505">
        <ele>632</ele>
        <time>2016-11-01T12:19:56.008Z</time>
      </trkpt>
      <trkpt lat="42.91948" lon="2.01513">
        <ele>632</ele>
        <time>2016-11-01T12:19:58.008Z</time>
      </trkpt>
      <trkpt lat="42.91941" lon="2.0152">
        <ele>632</ele>
        <time>2016-11-01T12:20:00.008Z</time>
      </trkpt>
      <trkpt lat="42.91935" lon="2.01528">
        <ele>631</ele>
        <time>2016-11-01T12:20:02.008Z</time>
      </trkpt>
      <trkpt lat="42.91932" lon="2.01533">
        <ele>631</ele>
        <time>2016-11-01T12:20:03.008Z</time>
      </trkpt>
      <trkpt lat="42.91925" lon="2.01541">
        <ele>631</ele>
        <time>2016-11-01T12:20:05.008Z</time>
      </trkpt>
      <trkpt lat="42.91922" lon="2.01545">
        <ele>631</ele>
        <time>2016-11-01T12:20:06.008Z</time>
      </trkpt>
      <trkpt lat="42.91916" lon="2.01554">
        <ele>631</ele>
        <time>2016-11-01T12:20:08.008Z</time>
      </trkpt>
      <trkpt lat="42.91913" lon="2.01558">
        <ele>631</ele>
        <time>2016-11-01T12:20:09.008Z</time>
      </trkpt>
      <trkpt lat="42.9191" lon="2.01563">
        <ele>631</ele>
        <time>2016-11-01T12:20:10.008Z</time>
      </trkpt>
      <trkpt lat="42.91908" lon="2.01567">
        <ele>631.2179968</ele>
        <time>2016-11-01T12:20:11.008Z</time>
      </trkpt>
      <trkpt lat="42.91905" lon="2.01572">
        <ele>632</ele>
        <time>2016-11-01T12:20:12.008Z</time>
      </trkpt>
      <trkpt lat="42.91903" lon="2.01576">
        <ele>632</ele>
        <time>2016-11-01T12:20:13.008Z</time>
      </trkpt>
      <trkpt lat="42.91897" lon="2.01583">
        <ele>632</ele>
        <time>2016-11-01T12:20:15.008Z</time>
      </trkpt>
      <trkpt lat="42.91894" lon="2.01587">
        <ele>632</ele>
        <time>2016-11-01T12:20:16.008Z</time>
      </trkpt>
      <trkpt lat="42.91891" lon="2.0159">
        <ele>632</ele>
        <time>2016-11-01T12:20:17.008Z</time>
      </trkpt>
      <trkpt lat="42.91888" lon="2.01594">
        <ele>632</ele>
        <time>2016-11-01T12:20:18.008Z</time>
      </trkpt>
      <trkpt lat="42.91885" lon="2.01598">
        <ele>632</ele>
        <time>2016-11-01T12:20:19.008Z</time>
      </trkpt>
      <trkpt lat="42.91881" lon="2.01602">
        <ele>632</ele>
        <time>2016-11-01T12:20:20.008Z</time>
      </trkpt>
      <trkpt lat="42.91878" lon="2.01607">
        <ele>632</ele>
        <time>2016-11-01T12:20:21.008Z</time>
      </trkpt>
      <trkpt lat="42.91874" lon="2.01612">
        <ele>632</ele>
        <time>2016-11-01T12:20:22.008Z</time>
      </trkpt>
      <trkpt lat="42.9187" lon="2.01617">
        <ele>632</ele>
        <time>2016-11-01T12:20:23.008Z</time>
      </trkpt>
      <trkpt lat="42.91866" lon="2.01623">
        <ele>632</ele>
        <time>2016-11-01T12:20:24.008Z</time>
      </trkpt>
      <trkpt lat="42.91862" lon="2.01628">
        <ele>632</ele>
        <time>2016-11-01T12:20:25.008Z</time>
      </trkpt>
      <trkpt lat="42.91858" lon="2.01634">
        <ele>632</ele>
        <time>2016-11-01T12:20:26.008Z</time>
      </trkpt>
      <trkpt lat="42.91854" lon="2.0164">
        <ele>632</ele>
        <time>2016-11-01T12:20:27.008Z</time>
      </trkpt>
      <trkpt lat="42.9185" lon="2.01646">
        <ele>632</ele>
        <time>2016-11-01T12:20:28.008Z</time>
      </trkpt>
      <trkpt lat="42.91846" lon="2.01653">
        <ele>632</ele>
        <time>2016-11-01T12:20:29.008Z</time>
      </trkpt>
      <trkpt lat="42.91842" lon="2.01659">
        <ele>632</ele>
        <time>2016-11-01T12:20:30.008Z</time>
      </trkpt>
      <trkpt lat="42.91838" lon="2.01666">
        <ele>631.5640064</ele>
        <time>2016-11-01T12:20:31.008Z</time>
      </trkpt>
      <trkpt lat="42.91834" lon="2.01671">
        <ele>630</ele>
        <time>2016-11-01T12:20:32.008Z</time>
      </trkpt>
      <trkpt lat="42.91828" lon="2.01676">
        <ele>630</ele>
        <time>2016-11-01T12:20:33.008Z</time>
      </trkpt>
      <trkpt lat="42.91822" lon="2.01681">
        <ele>630</ele>
        <time>2016-11-01T12:20:34.008Z</time>
      </trkpt>
      <trkpt lat="42.91817" lon="2.01685">
        <ele>630</ele>
        <time>2016-11-01T12:20:35.008Z</time>
      </trkpt>
      <trkpt lat="42.91811" lon="2.01689">
        <ele>630</ele>
        <time>2016-11-01T12:20:36.008Z</time>
      </trkpt>
      <trkpt lat="42.91806" lon="2.01694">
        <ele>630</ele>
        <time>2016-11-01T12:20:37.008Z</time>
      </trkpt>
      <trkpt lat="42.91802" lon="2.01699">
        <ele>630</ele>
        <time>2016-11-01T12:20:38.008Z</time>
      </trkpt>
      <trkpt lat="42.91798" lon="2.01705">
        <ele>630</ele>
        <time>2016-11-01T12:20:39.008Z</time>
      </trkpt>
      <trkpt lat="42.91795" lon="2.0171">
        <ele>630</ele>
        <time>2016-11-01T12:20:40.008Z</time>
      </trkpt>
      <trkpt lat="42.91792" lon="2.01716">
        <ele>629.7820032</ele>
        <time>2016-11-01T12:20:41.008Z</time>
      </trkpt>
      <trkpt lat="42.91789" lon="2.01722">
        <ele>629</ele>
        <time>2016-11-01T12:20:42.008Z</time>
      </trkpt>
      <trkpt lat="42.91786" lon="2.01728">
        <ele>629</ele>
        <time>2016-11-01T12:20:43.008Z</time>
      </trkpt>
      <trkpt lat="42.91783" lon="2.01733">
        <ele>629</ele>
        <time>2016-11-01T12:20:44.008Z</time>
      </trkpt>
      <trkpt lat="42.9178" lon="2.01739">
        <ele>629</ele>
        <time>2016-11-01T12:20:45.008Z</time>
      </trkpt>
      <trkpt lat="42.91777" lon="2.01745">
        <ele>629</ele>
        <time>2016-11-01T12:20:46.008Z</time>
      </trkpt>
      <trkpt lat="42.91773" lon="2.01751">
        <ele>629</ele>
        <time>2016-11-01T12:20:47.008Z</time>
      </trkpt>
      <trkpt lat="42.91769" lon="2.01757">
        <ele>629</ele>
        <time>2016-11-01T12:20:48.008Z</time>
      </trkpt>
      <trkpt lat="42.91765" lon="2.01763">
        <ele>629</ele>
        <time>2016-11-01T12:20:49.008Z</time>
      </trkpt>
      <trkpt lat="42.91761" lon="2.0177">
        <ele>629</ele>
        <time>2016-11-01T12:20:50.008Z</time>
      </trkpt>
      <trkpt lat="42.91756" lon="2.01777">
        <ele>628.5640064</ele>
        <time>2016-11-01T12:20:51.008Z</time>
      </trkpt>
      <trkpt lat="42.9175" lon="2.01784">
        <ele>627</ele>
        <time>2016-11-01T12:20:52.008Z</time>
      </trkpt>
      <trkpt lat="42.91744" lon="2.0179">
        <ele>627</ele>
        <time>2016-11-01T12:20:53.008Z</time>
      </trkpt>
      <trkpt lat="42.91738" lon="2.01795">
        <ele>627</ele>
        <time>2016-11-01T12:20:54.008Z</time>
      </trkpt>
      <trkpt lat="42.91731" lon="2.01799">
        <ele>627</ele>
        <time>2016-11-01T12:20:55.008Z</time>
      </trkpt>
      <trkpt lat="42.91724" lon="2.01802">
        <ele>626.7820032</ele>
        <time>2016-11-01T12:20:56.008Z</time>
      </trkpt>
      <trkpt lat="42.91718" lon="2.01804">
        <ele>626</ele>
        <time>2016-11-01T12:20:57.008Z</time>
      </trkpt>
      <trkpt lat="42.91711" lon="2.01804">
        <ele>626</ele>
        <time>2016-11-01T12:20:58.008Z</time>
      </trkpt>
      <trkpt lat="42.91705" lon="2.01804">
        <ele>626</ele>
        <time>2016-11-01T12:20:59.008Z</time>
      </trkpt>
      <trkpt lat="42.91699" lon="2.01805">
        <ele>626</ele>
        <time>2016-11-01T12:21:00.008Z</time>
      </trkpt>
      <trkpt lat="42.91693" lon="2.01807">
        <ele>626</ele>
        <time>2016-11-01T12:21:01.008Z</time>
      </trkpt>
      <trkpt lat="42.91688" lon="2.01809">
        <ele>626</ele>
        <time>2016-11-01T12:21:02.008Z</time>
      </trkpt>
      <trkpt lat="42.91683" lon="2.01812">
        <ele>626</ele>
        <time>2016-11-01T12:21:03.008Z</time>
      </trkpt>
      <trkpt lat="42.91678" lon="2.01816">
        <ele>626</ele>
        <time>2016-11-01T12:21:04.008Z</time>
      </trkpt>
      <trkpt lat="42.91674" lon="2.0182">
        <ele>626</ele>
        <time>2016-11-01T12:21:05.008Z</time>
      </trkpt>
      <trkpt lat="42.9167" lon="2.01825">
        <ele>626</ele>
        <time>2016-11-01T12:21:06.008Z</time>
      </trkpt>
      <trkpt lat="42.91666" lon="2.0183">
        <ele>626</ele>
        <time>2016-11-01T12:21:07.008Z</time>
      </trkpt>
      <trkpt lat="42.91663" lon="2.01834">
        <ele>626</ele>
        <time>2016-11-01T12:21:08.008Z</time>
      </trkpt>
      <trkpt lat="42.91659" lon="2.01839">
        <ele>626</ele>
        <time>2016-11-01T12:21:09.008Z</time>
      </trkpt>
      <trkpt lat="42.91656" lon="2.01843">
        <ele>626</ele>
        <time>2016-11-01T12:21:10.008Z</time>
      </trkpt>
      <trkpt lat="42.91653" lon="2.01848">
        <ele>626.2179968</ele>
        <time>2016-11-01T12:21:11.008Z</time>
      </trkpt>
      <trkpt lat="42.91649" lon="2.01852">
        <ele>627</ele>
        <time>2016-11-01T12:21:12.008Z</time>
      </trkpt>
      <trkpt lat="42.91646" lon="2.01856">
        <ele>627</ele>
        <time>2016-11-01T12:21:13.008Z</time>
      </trkpt>
      <trkpt lat="42.91643" lon="2.0186">
        <ele>627</ele>
        <time>2016-11-01T12:21:14.008Z</time>
      </trkpt>
      <trkpt lat="42.9164" lon="2.01864">
        <ele>627</ele>
        <time>2016-11-01T12:21:15.008Z</time>
      </trkpt>
      <trkpt lat="42.91636" lon="2.01868">
        <ele>627</ele>
        <time>2016-11-01T12:21:16.008Z</time>
      </trkpt>
      <trkpt lat="42.91633" lon="2.01872">
        <ele>627</ele>
        <time>2016-11-01T12:21:17.008Z</time>
      </trkpt>
      <trkpt lat="42.91629" lon="2.01877">
        <ele>627</ele>
        <time>2016-11-01T12:21:18.008Z</time>
      </trkpt>
      <trkpt lat="42.91626" lon="2.01882">
        <ele>627</ele>
        <time>2016-11-01T12:21:19.008Z</time>
      </trkpt>
      <trkpt lat="42.91623" lon="2.01887">
        <ele>627</ele>
        <time>2016-11-01T12:21:20.008Z</time>
      </trkpt>
      <trkpt lat="42.91619" lon="2.01891">
        <ele>627.4359936</ele>
        <time>2016-11-01T12:21:21.008Z</time>
      </trkpt>
      <trkpt lat="42.91616" lon="2.01895">
        <ele>629</ele>
        <time>2016-11-01T12:21:22.008Z</time>
      </trkpt>
      <trkpt lat="42.91612" lon="2.019">
        <ele>629</ele>
        <time>2016-11-01T12:21:23.008Z</time>
      </trkpt>
      <trkpt lat="42.91609" lon="2.01904">
        <ele>629</ele>
        <time>2016-11-01T12:21:24.008Z</time>
      </trkpt>
      <trkpt lat="42.91606" lon="2.01908">
        <ele>629</ele>
        <time>2016-11-01T12:21:25.008Z</time>
      </trkpt>
      <trkpt lat="42.91603" lon="2.01913">
        <ele>629</ele>
        <time>2016-11-01T12:21:26.008Z</time>
      </trkpt>
      <trkpt lat="42.916" lon="2.01917">
        <ele>629</ele>
        <time>2016-11-01T12:21:27.008Z</time>
      </trkpt>
      <trkpt lat="42.91597" lon="2.01921">
        <ele>629</ele>
        <time>2016-11-01T12:21:28.008Z</time>
      </trkpt>
      <trkpt lat="42.91593" lon="2.01925">
        <ele>629</ele>
        <time>2016-11-01T12:21:29.008Z</time>
      </trkpt>
      <trkpt lat="42.9159" lon="2.0193">
        <ele>629</ele>
        <time>2016-11-01T12:21:30.008Z</time>
      </trkpt>
      <trkpt lat="42.91587" lon="2.01934">
        <ele>629.4359936</ele>
        <time>2016-11-01T12:21:31.008Z</time>
      </trkpt>
      <trkpt lat="42.91583" lon="2.01938">
        <ele>631</ele>
        <time>2016-11-01T12:21:32.008Z</time>
      </trkpt>
      <trkpt lat="42.9158" lon="2.01942">
        <ele>631</ele>
        <time>2016-11-01T12:21:33.008Z</time>
      </trkpt>
      <trkpt lat="42.91576" lon="2.01947">
        <ele>631</ele>
        <time>2016-11-01T12:21:34.008Z</time>
      </trkpt>
      <trkpt lat="42.91573" lon="2.01951">
        <ele>631</ele>
        <time>2016-11-01T12:21:35.008Z</time>
      </trkpt>
      <trkpt lat="42.9157" lon="2.01955">
        <ele>631</ele>
        <time>2016-11-01T12:21:36.008Z</time>
      </trkpt>
      <trkpt lat="42.91566" lon="2.01959">
        <ele>631</ele>
        <time>2016-11-01T12:21:37.008Z</time>
      </trkpt>
      <trkpt lat="42.9156" lon="2.01967">
        <ele>631</ele>
        <time>2016-11-01T12:21:39.008Z</time>
      </trkpt>
      <trkpt lat="42.91556" lon="2.01971">
        <ele>631</ele>
        <time>2016-11-01T12:21:40.008Z</time>
      </trkpt>
      <trkpt lat="42.91553" lon="2.01974">
        <ele>631.6539904</ele>
        <time>2016-11-01T12:21:41.008Z</time>
      </trkpt>
      <trkpt lat="42.9155" lon="2.01978">
        <ele>634</ele>
        <time>2016-11-01T12:21:42.008Z</time>
      </trkpt>
      <trkpt lat="42.91546" lon="2.01982">
        <ele>634</ele>
        <time>2016-11-01T12:21:43.008Z</time>
      </trkpt>
      <trkpt lat="42.91543" lon="2.01985">
        <ele>634</ele>
        <time>2016-11-01T12:21:44.008Z</time>
      </trkpt>
      <trkpt lat="42.91536" lon="2.01991">
        <ele>634.4359936</ele>
        <time>2016-11-01T12:21:46.008Z</time>
      </trkpt>
      <trkpt lat="42.91532" lon="2.01993">
        <ele>636</ele>
        <time>2016-11-01T12:21:47.008Z</time>
      </trkpt>
      <trkpt lat="42.91524" lon="2.01993">
        <ele>636</ele>
        <time>2016-11-01T12:21:49.008Z</time>
      </trkpt>
      <trkpt lat="42.91515" lon="2.01993">
        <ele>636.2179968</ele>
        <time>2016-11-01T12:21:51.008Z</time>
      </trkpt>
      <trkpt lat="42.91507" lon="2.01994">
        <ele>637</ele>
        <time>2016-11-01T12:21:53.008Z</time>
      </trkpt>
      <trkpt lat="42.91499" lon="2.01994">
        <ele>637</ele>
        <time>2016-11-01T12:21:55.008Z</time>
      </trkpt>
      <trkpt lat="42.91491" lon="2.01995">
        <ele>639</ele>
        <time>2016-11-01T12:21:57.008Z</time>
      </trkpt>
      <trkpt lat="42.91483" lon="2.01996">
        <ele>639</ele>
        <time>2016-11-01T12:21:59.008Z</time>
      </trkpt>
      <trkpt lat="42.91474" lon="2.01998">
        <ele>639.2179968</ele>
        <time>2016-11-01T12:22:01.008Z</time>
      </trkpt>
      <trkpt lat="42.91465" lon="2.02">
        <ele>640</ele>
        <time>2016-11-01T12:22:03.008Z</time>
      </trkpt>
      <trkpt lat="42.91456" lon="2.02002">
        <ele>640</ele>
        <time>2016-11-01T12:22:05.008Z</time>
      </trkpt>
      <trkpt lat="42.91447" lon="2.02006">
        <ele>640</ele>
        <time>2016-11-01T12:22:07.008Z</time>
      </trkpt>
      <trkpt lat="42.91438" lon="2.02008">
        <ele>640</ele>
        <time>2016-11-01T12:22:09.008Z</time>
      </trkpt>
      <trkpt lat="42.91429" lon="2.02008">
        <ele>640.2179968</ele>
        <time>2016-11-01T12:22:11.008Z</time>
      </trkpt>
      <trkpt lat="42.9142" lon="2.02005">
        <ele>641</ele>
        <time>2016-11-01T12:22:13.008Z</time>
      </trkpt>
      <trkpt lat="42.91412" lon="2.01999">
        <ele>641</ele>
        <time>2016-11-01T12:22:15.008Z</time>
      </trkpt>
      <trkpt lat="42.91404" lon="2.0199">
        <ele>641</ele>
        <time>2016-11-01T12:22:17.008Z</time>
      </trkpt>
      <trkpt lat="42.91395" lon="2.01982">
        <ele>641</ele>
        <time>2016-11-01T12:22:19.008Z</time>
      </trkpt>
      <trkpt lat="42.9139" lon="2.01981">
        <ele>641</ele>
        <time>2016-11-01T12:22:20.008Z</time>
      </trkpt>
      <trkpt lat="42.9138" lon="2.01982">
        <ele>641</ele>
        <time>2016-11-01T12:22:22.008Z</time>
      </trkpt>
      <trkpt lat="42.91372" lon="2.01989">
        <ele>641</ele>
        <time>2016-11-01T12:22:24.008Z</time>
      </trkpt>
      <trkpt lat="42.91368" lon="2.01993">
        <ele>641</ele>
        <time>2016-11-01T12:22:25.008Z</time>
      </trkpt>
      <trkpt lat="42.91365" lon="2.01996">
        <ele>641</ele>
        <time>2016-11-01T12:22:26.008Z</time>
      </trkpt>
      <trkpt lat="42.91357" lon="2.02003">
        <ele>641</ele>
        <time>2016-11-01T12:22:28.008Z</time>
      </trkpt>
      <trkpt lat="42.91354" lon="2.02006">
        <ele>641</ele>
        <time>2016-11-01T12:22:29.008Z</time>
      </trkpt>
      <trkpt lat="42.91349" lon="2.02009">
        <ele>641</ele>
        <time>2016-11-01T12:22:30.008Z</time>
      </trkpt>
      <trkpt lat="42.91345" lon="2.02012">
        <ele>641.4359936</ele>
        <time>2016-11-01T12:22:31.008Z</time>
      </trkpt>
      <trkpt lat="42.9134" lon="2.02015">
        <ele>643</ele>
        <time>2016-11-01T12:22:32.008Z</time>
      </trkpt>
      <trkpt lat="42.91336" lon="2.02017">
        <ele>643</ele>
        <time>2016-11-01T12:22:33.008Z</time>
      </trkpt>
      <trkpt lat="42.91331" lon="2.02019">
        <ele>643</ele>
        <time>2016-11-01T12:22:34.008Z</time>
      </trkpt>
      <trkpt lat="42.91326" lon="2.02021">
        <ele>643</ele>
        <time>2016-11-01T12:22:35.008Z</time>
      </trkpt>
      <trkpt lat="42.9132" lon="2.02023">
        <ele>643</ele>
        <time>2016-11-01T12:22:36.008Z</time>
      </trkpt>
      <trkpt lat="42.91315" lon="2.02025">
        <ele>643</ele>
        <time>2016-11-01T12:22:37.008Z</time>
      </trkpt>
      <trkpt lat="42.9131" lon="2.02028">
        <ele>643</ele>
        <time>2016-11-01T12:22:38.008Z</time>
      </trkpt>
      <trkpt lat="42.91306" lon="2.0203">
        <ele>643</ele>
        <time>2016-11-01T12:22:39.008Z</time>
      </trkpt>
      <trkpt lat="42.91301" lon="2.02033">
        <ele>643</ele>
        <time>2016-11-01T12:22:40.008Z</time>
      </trkpt>
      <trkpt lat="42.91296" lon="2.02035">
        <ele>643.2179968</ele>
        <time>2016-11-01T12:22:41.008Z</time>
      </trkpt>
      <trkpt lat="42.91291" lon="2.02038">
        <ele>644</ele>
        <time>2016-11-01T12:22:42.008Z</time>
      </trkpt>
      <trkpt lat="42.91287" lon="2.0204">
        <ele>644</ele>
        <time>2016-11-01T12:22:43.008Z</time>
      </trkpt>
      <trkpt lat="42.91283" lon="2.02043">
        <ele>644</ele>
        <time>2016-11-01T12:22:44.008Z</time>
      </trkpt>
      <trkpt lat="42.91278" lon="2.02045">
        <ele>644</ele>
        <time>2016-11-01T12:22:45.008Z</time>
      </trkpt>
      <trkpt lat="42.91274" lon="2.02048">
        <ele>644</ele>
        <time>2016-11-01T12:22:46.008Z</time>
      </trkpt>
      <trkpt lat="42.9127" lon="2.0205">
        <ele>644</ele>
        <time>2016-11-01T12:22:47.008Z</time>
      </trkpt>
      <trkpt lat="42.91266" lon="2.02053">
        <ele>644</ele>
        <time>2016-11-01T12:22:48.008Z</time>
      </trkpt>
      <trkpt lat="42.91262" lon="2.02055">
        <ele>644</ele>
        <time>2016-11-01T12:22:49.008Z</time>
      </trkpt>
      <trkpt lat="42.91258" lon="2.02057">
        <ele>644</ele>
        <time>2016-11-01T12:22:50.008Z</time>
      </trkpt>
      <trkpt lat="42.91254" lon="2.02059">
        <ele>644.2179968</ele>
        <time>2016-11-01T12:22:51.008Z</time>
      </trkpt>
      <trkpt lat="42.91246" lon="2.02061">
        <ele>645</ele>
        <time>2016-11-01T12:22:53.008Z</time>
      </trkpt>
      <trkpt lat="42.91238" lon="2.02062">
        <ele>645</ele>
        <time>2016-11-01T12:22:55.008Z</time>
      </trkpt>
      <trkpt lat="42.9123" lon="2.02062">
        <ele>645</ele>
        <time>2016-11-01T12:22:57.008Z</time>
      </trkpt>
      <trkpt lat="42.91222" lon="2.0206">
        <ele>645</ele>
        <time>2016-11-01T12:22:59.008Z</time>
      </trkpt>
      <trkpt lat="42.91215" lon="2.02057">
        <ele>646.089984</ele>
        <time>2016-11-01T12:23:01.008Z</time>
      </trkpt>
      <trkpt lat="42.91207" lon="2.02053">
        <ele>650</ele>
        <time>2016-11-01T12:23:03.008Z</time>
      </trkpt>
      <trkpt lat="42.912" lon="2.02048">
        <ele>650</ele>
        <time>2016-11-01T12:23:05.008Z</time>
      </trkpt>
      <trkpt lat="42.91192" lon="2.02043">
        <ele>651</ele>
        <time>2016-11-01T12:23:07.008Z</time>
      </trkpt>
      <trkpt lat="42.91185" lon="2.02038">
        <ele>651</ele>
        <time>2016-11-01T12:23:09.008Z</time>
      </trkpt>
      <trkpt lat="42.91178" lon="2.02034">
        <ele>651.21583909969</ele>
        <time>2016-11-01T12:23:11.008Z</time>
      </trkpt>
      <trkpt lat="42.91174" lon="2.02031">
        <ele>652</ele>
        <time>2016-11-01T12:23:12.008Z</time>
      </trkpt>
      <trkpt lat="42.91167" lon="2.02025">
        <ele>652</ele>
        <time>2016-11-01T12:23:14.008Z</time>
      </trkpt>
      <trkpt lat="42.91162" lon="2.02022">
        <ele>652</ele>
        <time>2016-11-01T12:23:15.008Z</time>
      </trkpt>
      <trkpt lat="42.91158" lon="2.02019">
        <ele>652</ele>
        <time>2016-11-01T12:23:16.008Z</time>
      </trkpt>
      <trkpt lat="42.91153" lon="2.02016">
        <ele>652</ele>
        <time>2016-11-01T12:23:17.008Z</time>
      </trkpt>
      <trkpt lat="42.91149" lon="2.02012">
        <ele>652</ele>
        <time>2016-11-01T12:23:18.008Z</time>
      </trkpt>
      <trkpt lat="42.91144" lon="2.02008">
        <ele>652</ele>
        <time>2016-11-01T12:23:19.008Z</time>
      </trkpt>
      <trkpt lat="42.9114" lon="2.02005">
        <ele>652</ele>
        <time>2016-11-01T12:23:20.008Z</time>
      </trkpt>
      <trkpt lat="42.91136" lon="2.02">
        <ele>652</ele>
        <time>2016-11-01T12:23:21.008Z</time>
      </trkpt>
      <trkpt lat="42.91131" lon="2.01996">
        <ele>652</ele>
        <time>2016-11-01T12:23:22.008Z</time>
      </trkpt>
      <trkpt lat="42.91127" lon="2.01992">
        <ele>652</ele>
        <time>2016-11-01T12:23:23.008Z</time>
      </trkpt>
      <trkpt lat="42.91123" lon="2.01988">
        <ele>652</ele>
        <time>2016-11-01T12:23:24.008Z</time>
      </trkpt>
      <trkpt lat="42.91119" lon="2.01983">
        <ele>652</ele>
        <time>2016-11-01T12:23:25.008Z</time>
      </trkpt>
      <trkpt lat="42.91115" lon="2.01978">
        <ele>652</ele>
        <time>2016-11-01T12:23:26.008Z</time>
      </trkpt>
      <trkpt lat="42.91108" lon="2.01968">
        <ele>652</ele>
        <time>2016-11-01T12:23:28.008Z</time>
      </trkpt>
      <trkpt lat="42.91102" lon="2.01957">
        <ele>652</ele>
        <time>2016-11-01T12:23:30.008Z</time>
      </trkpt>
      <trkpt lat="42.91097" lon="2.01946">
        <ele>652</ele>
        <time>2016-11-01T12:23:32.008Z</time>
      </trkpt>
      <trkpt lat="42.91091" lon="2.01936">
        <ele>652</ele>
        <time>2016-11-01T12:23:34.008Z</time>
      </trkpt>
      <trkpt lat="42.91087" lon="2.01925">
        <ele>652</ele>
        <time>2016-11-01T12:23:36.008Z</time>
      </trkpt>
      <trkpt lat="42.91081" lon="2.01916">
        <ele>652</ele>
        <time>2016-11-01T12:23:38.008Z</time>
      </trkpt>
      <trkpt lat="42.91075" lon="2.01908">
        <ele>652</ele>
        <time>2016-11-01T12:23:40.008Z</time>
      </trkpt>
      <trkpt lat="42.91068" lon="2.01902">
        <ele>655</ele>
        <time>2016-11-01T12:23:42.008Z</time>
      </trkpt>
      <trkpt lat="42.91062" lon="2.01899">
        <ele>655</ele>
        <time>2016-11-01T12:23:44.008Z</time>
      </trkpt>
      <trkpt lat="42.91062" lon="2.01907">
        <ele>657</ele>
        <time>2016-11-01T12:23:52.008Z</time>
      </trkpt>
      <trkpt lat="42.91066" lon="2.01909">
        <ele>658</ele>
        <time>2016-11-01T12:24:05.008Z</time>
      </trkpt>
      <trkpt lat="42.91071" lon="2.01916">
        <ele>658</ele>
        <time>2016-11-01T12:24:08.008Z</time>
      </trkpt>
      <trkpt lat="42.91075" lon="2.01922">
        <ele>658</ele>
        <time>2016-11-01T12:24:10.008Z</time>
      </trkpt>
      <trkpt lat="42.9108" lon="2.01929">
        <ele>658</ele>
        <time>2016-11-01T12:24:12.008Z</time>
      </trkpt>
      <trkpt lat="42.91086" lon="2.01941">
        <ele>658</ele>
        <time>2016-11-01T12:24:15.008Z</time>
      </trkpt>
      <trkpt lat="42.91091" lon="2.01949">
        <ele>658</ele>
        <time>2016-11-01T12:24:17.008Z</time>
      </trkpt>
      <trkpt lat="42.91095" lon="2.01958">
        <ele>658</ele>
        <time>2016-11-01T12:24:19.008Z</time>
      </trkpt>
      <trkpt lat="42.91098" lon="2.01967">
        <ele>658.2179968</ele>
        <time>2016-11-01T12:24:21.008Z</time>
      </trkpt>
      <trkpt lat="42.91101" lon="2.01976">
        <ele>659</ele>
        <time>2016-11-01T12:24:23.008Z</time>
      </trkpt>
      <trkpt lat="42.91105" lon="2.01986">
        <ele>659</ele>
        <time>2016-11-01T12:24:25.008Z</time>
      </trkpt>
      <trkpt lat="42.9111" lon="2.01995">
        <ele>659</ele>
        <time>2016-11-01T12:24:27.008Z</time>
      </trkpt>
      <trkpt lat="42.91114" lon="2.02004">
        <ele>659</ele>
        <time>2016-11-01T12:24:29.008Z</time>
      </trkpt>
      <trkpt lat="42.91117" lon="2.02015">
        <ele>659.2179968</ele>
        <time>2016-11-01T12:24:31.008Z</time>
      </trkpt>
      <trkpt lat="42.91121" lon="2.02025">
        <ele>660</ele>
        <time>2016-11-01T12:24:33.008Z</time>
      </trkpt>
      <trkpt lat="42.91126" lon="2.02035">
        <ele>660</ele>
        <time>2016-11-01T12:24:35.008Z</time>
      </trkpt>
      <trkpt lat="42.9113" lon="2.02046">
        <ele>660</ele>
        <time>2016-11-01T12:24:37.008Z</time>
      </trkpt>
      <trkpt lat="42.91135" lon="2.02058">
        <ele>660</ele>
        <time>2016-11-01T12:24:39.008Z</time>
      </trkpt>
      <trkpt lat="42.91142" lon="2.02076">
        <ele>659</ele>
        <time>2016-11-01T12:24:42.008Z</time>
      </trkpt>
      <trkpt lat="42.91146" lon="2.0209">
        <ele>659</ele>
        <time>2016-11-01T12:24:44.008Z</time>
      </trkpt>
      <trkpt lat="42.91151" lon="2.02104">
        <ele>659</ele>
        <time>2016-11-01T12:24:46.008Z</time>
      </trkpt>
      <trkpt lat="42.91157" lon="2.02119">
        <ele>659</ele>
        <time>2016-11-01T12:24:48.008Z</time>
      </trkpt>
      <trkpt lat="42.91164" lon="2.02136">
        <ele>659</ele>
        <time>2016-11-01T12:24:50.008Z</time>
      </trkpt>
      <trkpt lat="42.91171" lon="2.02156">
        <ele>656</ele>
        <time>2016-11-01T12:24:52.008Z</time>
      </trkpt>
      <trkpt lat="42.91175" lon="2.02178">
        <ele>656</ele>
        <time>2016-11-01T12:24:54.008Z</time>
      </trkpt>
      <trkpt lat="42.91176" lon="2.0219">
        <ele>656</ele>
        <time>2016-11-01T12:24:55.008Z</time>
      </trkpt>
      <trkpt lat="42.91178" lon="2.02203">
        <ele>655.3460096</ele>
        <time>2016-11-01T12:24:56.008Z</time>
      </trkpt>
      <trkpt lat="42.9118" lon="2.02214">
        <ele>653</ele>
        <time>2016-11-01T12:24:57.008Z</time>
      </trkpt>
      <trkpt lat="42.91181" lon="2.02225">
        <ele>653</ele>
        <time>2016-11-01T12:24:58.008Z</time>
      </trkpt>
      <trkpt lat="42.91184" lon="2.02236">
        <ele>653</ele>
        <time>2016-11-01T12:24:59.008Z</time>
      </trkpt>
      <trkpt lat="42.91188" lon="2.02255">
        <ele>652.3460096</ele>
        <time>2016-11-01T12:25:01.008Z</time>
      </trkpt>
      <trkpt lat="42.91195" lon="2.02271">
        <ele>651</ele>
        <time>2016-11-01T12:25:03.008Z</time>
      </trkpt>
      <trkpt lat="42.91204" lon="2.02283">
        <ele>651</ele>
        <time>2016-11-01T12:25:05.008Z</time>
      </trkpt>
      <trkpt lat="42.91213" lon="2.02291">
        <ele>651</ele>
        <time>2016-11-01T12:25:07.008Z</time>
      </trkpt>
      <trkpt lat="42.9122" lon="2.02298">
        <ele>651</ele>
        <time>2016-11-01T12:25:09.008Z</time>
      </trkpt>
      <trkpt lat="42.91228" lon="2.02302">
        <ele>652</ele>
        <time>2016-11-01T12:25:11.008Z</time>
      </trkpt>
      <trkpt lat="42.91238" lon="2.02307">
        <ele>652</ele>
        <time>2016-11-01T12:25:14.008Z</time>
      </trkpt>
      <trkpt lat="42.91246" lon="2.02311">
        <ele>652</ele>
        <time>2016-11-01T12:25:16.008Z</time>
      </trkpt>
      <trkpt lat="42.91253" lon="2.02314">
        <ele>652</ele>
        <time>2016-11-01T12:25:18.008Z</time>
      </trkpt>
      <trkpt lat="42.91259" lon="2.02316">
        <ele>652</ele>
        <time>2016-11-01T12:25:20.008Z</time>
      </trkpt>
      <trkpt lat="42.91266" lon="2.02319">
        <ele>653</ele>
        <time>2016-11-01T12:25:22.008Z</time>
      </trkpt>
      <trkpt lat="42.91272" lon="2.02322">
        <ele>653</ele>
        <time>2016-11-01T12:25:24.008Z</time>
      </trkpt>
      <trkpt lat="42.9128" lon="2.02325">
        <ele>653</ele>
        <time>2016-11-01T12:25:27.008Z</time>
      </trkpt>
      <trkpt lat="42.91288" lon="2.02329">
        <ele>653</ele>
        <time>2016-11-01T12:25:30.008Z</time>
      </trkpt>
      <trkpt lat="42.91297" lon="2.02333">
        <ele>655</ele>
        <time>2016-11-01T12:25:33.008Z</time>
      </trkpt>
      <trkpt lat="42.91304" lon="2.02337">
        <ele>655</ele>
        <time>2016-11-01T12:25:35.008Z</time>
      </trkpt>
      <trkpt lat="42.91311" lon="2.02342">
        <ele>655</ele>
        <time>2016-11-01T12:25:37.008Z</time>
      </trkpt>
      <trkpt lat="42.91317" lon="2.02345">
        <ele>655</ele>
        <time>2016-11-01T12:25:39.008Z</time>
      </trkpt>
      <trkpt lat="42.91323" lon="2.02349">
        <ele>655.6539904</ele>
        <time>2016-11-01T12:25:41.008Z</time>
      </trkpt>
      <trkpt lat="42.9133" lon="2.02353">
        <ele>658</ele>
        <time>2016-11-01T12:25:43.008Z</time>
      </trkpt>
      <trkpt lat="42.91337" lon="2.02357">
        <ele>658</ele>
        <time>2016-11-01T12:25:45.008Z</time>
      </trkpt>
      <trkpt lat="42.91346" lon="2.02362">
        <ele>658</ele>
        <time>2016-11-01T12:25:47.008Z</time>
      </trkpt>
      <trkpt lat="42.91355" lon="2.02367">
        <ele>658</ele>
        <time>2016-11-01T12:25:49.008Z</time>
      </trkpt>
      <trkpt lat="42.91364" lon="2.02373">
        <ele>657.7820032</ele>
        <time>2016-11-01T12:25:51.008Z</time>
      </trkpt>
      <trkpt lat="42.9137" lon="2.02379">
        <ele>657</ele>
        <time>2016-11-01T12:25:53.008Z</time>
      </trkpt>
      <trkpt lat="42.91376" lon="2.02385">
        <ele>657</ele>
        <time>2016-11-01T12:25:55.008Z</time>
      </trkpt>
      <trkpt lat="42.91382" lon="2.0239">
        <ele>657</ele>
        <time>2016-11-01T12:25:57.008Z</time>
      </trkpt>
      <trkpt lat="42.91387" lon="2.02397">
        <ele>657</ele>
        <time>2016-11-01T12:25:59.008Z</time>
      </trkpt>
      <trkpt lat="42.91392" lon="2.02402">
        <ele>657.6539904</ele>
        <time>2016-11-01T12:26:01.008Z</time>
      </trkpt>
      <trkpt lat="42.91398" lon="2.02408">
        <ele>660</ele>
        <time>2016-11-01T12:26:03.008Z</time>
      </trkpt>
      <trkpt lat="42.91403" lon="2.02414">
        <ele>660</ele>
        <time>2016-11-01T12:26:05.008Z</time>
      </trkpt>
      <trkpt lat="42.91409" lon="2.0242">
        <ele>660</ele>
        <time>2016-11-01T12:26:07.008Z</time>
      </trkpt>
      <trkpt lat="42.91414" lon="2.02426">
        <ele>660</ele>
        <time>2016-11-01T12:26:09.008Z</time>
      </trkpt>
      <trkpt lat="42.9142" lon="2.02433">
        <ele>660</ele>
        <time>2016-11-01T12:26:11.008Z</time>
      </trkpt>
      <trkpt lat="42.91426" lon="2.02439">
        <ele>660</ele>
        <time>2016-11-01T12:26:13.008Z</time>
      </trkpt>
      <trkpt lat="42.91431" lon="2.02444">
        <ele>660</ele>
        <time>2016-11-01T12:26:15.008Z</time>
      </trkpt>
      <trkpt lat="42.91439" lon="2.02454">
        <ele>660</ele>
        <time>2016-11-01T12:26:18.008Z</time>
      </trkpt>
      <trkpt lat="42.91445" lon="2.02461">
        <ele>660</ele>
        <time>2016-11-01T12:26:20.008Z</time>
      </trkpt>
      <trkpt lat="42.91451" lon="2.02468">
        <ele>661</ele>
        <time>2016-11-01T12:26:22.008Z</time>
      </trkpt>
      <trkpt lat="42.91458" lon="2.02477">
        <ele>661</ele>
        <time>2016-11-01T12:26:24.008Z</time>
      </trkpt>
      <trkpt lat="42.91463" lon="2.02484">
        <ele>661</ele>
        <time>2016-11-01T12:26:26.008Z</time>
      </trkpt>
      <trkpt lat="42.91471" lon="2.02493">
        <ele>661</ele>
        <time>2016-11-01T12:26:29.008Z</time>
      </trkpt>
      <trkpt lat="42.91477" lon="2.02499">
        <ele>661</ele>
        <time>2016-11-01T12:26:31.008Z</time>
      </trkpt>
      <trkpt lat="42.91484" lon="2.02508">
        <ele>661</ele>
        <time>2016-11-01T12:26:34.008Z</time>
      </trkpt>
      <trkpt lat="42.91489" lon="2.02515">
        <ele>661</ele>
        <time>2016-11-01T12:26:36.008Z</time>
      </trkpt>
      <trkpt lat="42.91495" lon="2.02518">
        <ele>661</ele>
        <time>2016-11-01T12:26:38.008Z</time>
      </trkpt>
      <trkpt lat="42.91502" lon="2.02521">
        <ele>661</ele>
        <time>2016-11-01T12:26:40.008Z</time>
      </trkpt>
      <trkpt lat="42.91509" lon="2.02525">
        <ele>662</ele>
        <time>2016-11-01T12:26:42.008Z</time>
      </trkpt>
      <trkpt lat="42.91516" lon="2.02529">
        <ele>662</ele>
        <time>2016-11-01T12:26:44.008Z</time>
      </trkpt>
      <trkpt lat="42.91523" lon="2.02533">
        <ele>662</ele>
        <time>2016-11-01T12:26:46.008Z</time>
      </trkpt>
      <trkpt lat="42.91528" lon="2.02539">
        <ele>662</ele>
        <time>2016-11-01T12:26:48.008Z</time>
      </trkpt>
      <trkpt lat="42.91535" lon="2.02546">
        <ele>662</ele>
        <time>2016-11-01T12:26:50.008Z</time>
      </trkpt>
      <trkpt lat="42.91542" lon="2.02554">
        <ele>661</ele>
        <time>2016-11-01T12:26:52.008Z</time>
      </trkpt>
      <trkpt lat="42.91548" lon="2.02564">
        <ele>661</ele>
        <time>2016-11-01T12:26:54.008Z</time>
      </trkpt>
      <trkpt lat="42.91559" lon="2.02575">
        <ele>661</ele>
        <time>2016-11-01T12:26:57.008Z</time>
      </trkpt>
      <trkpt lat="42.91574" lon="2.02579">
        <ele>661</ele>
        <time>2016-11-01T12:27:00.008Z</time>
      </trkpt>
      <trkpt lat="42.91584" lon="2.02581">
        <ele>659</ele>
        <time>2016-11-01T12:27:02.008Z</time>
      </trkpt>
      <trkpt lat="42.91593" lon="2.02582">
        <ele>659</ele>
        <time>2016-11-01T12:27:04.008Z</time>
      </trkpt>
      <trkpt lat="42.91602" lon="2.02586">
        <ele>659</ele>
        <time>2016-11-01T12:27:07.008Z</time>
      </trkpt>
      <trkpt lat="42.91612" lon="2.02592">
        <ele>659</ele>
        <time>2016-11-01T12:27:10.008Z</time>
      </trkpt>
      <trkpt lat="42.9162" lon="2.026">
        <ele>661</ele>
        <time>2016-11-01T12:27:13.008Z</time>
      </trkpt>
      <trkpt lat="42.91628" lon="2.02609">
        <ele>661</ele>
        <time>2016-11-01T12:27:16.008Z</time>
      </trkpt>
      <trkpt lat="42.91635" lon="2.02617">
        <ele>661</ele>
        <time>2016-11-01T12:27:19.008Z</time>
      </trkpt>
      <trkpt lat="42.91642" lon="2.02624">
        <ele>663</ele>
        <time>2016-11-01T12:27:22.008Z</time>
      </trkpt>
      <trkpt lat="42.9165" lon="2.02629">
        <ele>663</ele>
        <time>2016-11-01T12:27:25.008Z</time>
      </trkpt>
      <trkpt lat="42.91657" lon="2.0263">
        <ele>663</ele>
        <time>2016-11-01T12:27:28.008Z</time>
      </trkpt>
      <trkpt lat="42.91663" lon="2.02626">
        <ele>663.4359936</ele>
        <time>2016-11-01T12:27:31.008Z</time>
      </trkpt>
      <trkpt lat="42.91669" lon="2.02623">
        <ele>665</ele>
        <time>2016-11-01T12:27:34.008Z</time>
      </trkpt>
      <trkpt lat="42.91677" lon="2.02621">
        <ele>665</ele>
        <time>2016-11-01T12:27:38.008Z</time>
      </trkpt>
      <trkpt lat="42.91684" lon="2.0262">
        <ele>665.43167819938</ele>
        <time>2016-11-01T12:27:41.008Z</time>
      </trkpt>
      <trkpt lat="42.91691" lon="2.02618">
        <ele>667</ele>
        <time>2016-11-01T12:27:44.008Z</time>
      </trkpt>
      <trkpt lat="42.91698" lon="2.02617">
        <ele>667</ele>
        <time>2016-11-01T12:27:47.008Z</time>
      </trkpt>
      <trkpt lat="42.91706" lon="2.02615">
        <ele>667</ele>
        <time>2016-11-01T12:27:50.008Z</time>
      </trkpt>
      <trkpt lat="42.91714" lon="2.02612">
        <ele>668</ele>
        <time>2016-11-01T12:27:53.008Z</time>
      </trkpt>
      <trkpt lat="42.91721" lon="2.02609">
        <ele>668</ele>
        <time>2016-11-01T12:27:56.008Z</time>
      </trkpt>
      <trkpt lat="42.9173" lon="2.02608">
        <ele>668</ele>
        <time>2016-11-01T12:27:59.008Z</time>
      </trkpt>
      <trkpt lat="42.91739" lon="2.02609">
        <ele>669</ele>
        <time>2016-11-01T12:28:02.008Z</time>
      </trkpt>
      <trkpt lat="42.91745" lon="2.02615">
        <ele>669</ele>
        <time>2016-11-01T12:28:05.008Z</time>
      </trkpt>
      <trkpt lat="42.91753" lon="2.02623">
        <ele>669</ele>
        <time>2016-11-01T12:28:09.008Z</time>
      </trkpt>
      <trkpt lat="42.91761" lon="2.02626">
        <ele>671</ele>
        <time>2016-11-01T12:28:12.008Z</time>
      </trkpt>
      <trkpt lat="42.91767" lon="2.02627">
        <ele>671</ele>
        <time>2016-11-01T12:28:14.008Z</time>
      </trkpt>
      <trkpt lat="42.91772" lon="2.02629">
        <ele>671</ele>
        <time>2016-11-01T12:28:16.008Z</time>
      </trkpt>
      <trkpt lat="42.91778" lon="2.02631">
        <ele>671</ele>
        <time>2016-11-01T12:28:18.008Z</time>
      </trkpt>
      <trkpt lat="42.91784" lon="2.02634">
        <ele>671</ele>
        <time>2016-11-01T12:28:20.008Z</time>
      </trkpt>
      <trkpt lat="42.91789" lon="2.02637">
        <ele>671</ele>
        <time>2016-11-01T12:28:22.008Z</time>
      </trkpt>
      <trkpt lat="42.91795" lon="2.02641">
        <ele>671</ele>
        <time>2016-11-01T12:28:24.008Z</time>
      </trkpt>
      <trkpt lat="42.918" lon="2.02644">
        <ele>671</ele>
        <time>2016-11-01T12:28:26.008Z</time>
      </trkpt>
      <trkpt lat="42.91806" lon="2.02647">
        <ele>671</ele>
        <time>2016-11-01T12:28:28.008Z</time>
      </trkpt>
      <trkpt lat="42.91811" lon="2.02651">
        <ele>671</ele>
        <time>2016-11-01T12:28:30.008Z</time>
      </trkpt>
      <trkpt lat="42.91817" lon="2.02654">
        <ele>672</ele>
        <time>2016-11-01T12:28:32.008Z</time>
      </trkpt>
      <trkpt lat="42.91822" lon="2.02658">
        <ele>672</ele>
        <time>2016-11-01T12:28:34.008Z</time>
      </trkpt>
      <trkpt lat="42.9183" lon="2.02663">
        <ele>672</ele>
        <time>2016-11-01T12:28:37.008Z</time>
      </trkpt>
      <trkpt lat="42.91835" lon="2.02668">
        <ele>672</ele>
        <time>2016-11-01T12:28:39.008Z</time>
      </trkpt>
      <trkpt lat="42.9184" lon="2.02673">
        <ele>672.4359936</ele>
        <time>2016-11-01T12:28:41.008Z</time>
      </trkpt>
      <trkpt lat="42.91847" lon="2.02678">
        <ele>674</ele>
        <time>2016-11-01T12:28:44.008Z</time>
      </trkpt>
      <trkpt lat="42.91855" lon="2.02683">
        <ele>674</ele>
        <time>2016-11-01T12:28:47.008Z</time>
      </trkpt>
      <trkpt lat="42.91862" lon="2.02686">
        <ele>674</ele>
        <time>2016-11-01T12:28:50.008Z</time>
      </trkpt>
      <trkpt lat="42.9187" lon="2.02691">
        <ele>676</ele>
        <time>2016-11-01T12:28:53.008Z</time>
      </trkpt>
      <trkpt lat="42.91877" lon="2.02697">
        <ele>676</ele>
        <time>2016-11-01T12:28:56.008Z</time>
      </trkpt>
      <trkpt lat="42.91883" lon="2.02702">
        <ele>676</ele>
        <time>2016-11-01T12:28:58.008Z</time>
      </trkpt>
      <trkpt lat="42.91892" lon="2.02706">
        <ele>676</ele>
        <time>2016-11-01T12:29:01.008Z</time>
      </trkpt>
      <trkpt lat="42.91898" lon="2.02709">
        <ele>676</ele>
        <time>2016-11-01T12:29:03.008Z</time>
      </trkpt>
      <trkpt lat="42.91904" lon="2.02711">
        <ele>676</ele>
        <time>2016-11-01T12:29:05.008Z</time>
      </trkpt>
      <trkpt lat="42.91912" lon="2.02715">
        <ele>676</ele>
        <time>2016-11-01T12:29:08.008Z</time>
      </trkpt>
      <trkpt lat="42.91919" lon="2.02718">
        <ele>676.4359936</ele>
        <time>2016-11-01T12:29:11.008Z</time>
      </trkpt>
      <trkpt lat="42.91926" lon="2.02721">
        <ele>678</ele>
        <time>2016-11-01T12:29:14.008Z</time>
      </trkpt>
      <trkpt lat="42.91934" lon="2.0272">
        <ele>678</ele>
        <time>2016-11-01T12:29:17.008Z</time>
      </trkpt>
      <trkpt lat="42.9194" lon="2.02718">
        <ele>678</ele>
        <time>2016-11-01T12:29:19.008Z</time>
      </trkpt>
      <trkpt lat="42.91948" lon="2.02716">
        <ele>677.5725526121</ele>
        <time>2016-11-01T12:29:21.008Z</time>
      </trkpt>
      <trkpt lat="42.91956" lon="2.02716">
        <ele>676</ele>
        <time>2016-11-01T12:29:23.008Z</time>
      </trkpt>
      <trkpt lat="42.91964" lon="2.02719">
        <ele>676</ele>
        <time>2016-11-01T12:29:25.008Z</time>
      </trkpt>
      <trkpt lat="42.91975" lon="2.02723">
        <ele>676</ele>
        <time>2016-11-01T12:29:27.008Z</time>
      </trkpt>
      <trkpt lat="42.91988" lon="2.0273">
        <ele>676</ele>
        <time>2016-11-01T12:29:29.008Z</time>
      </trkpt>
      <trkpt lat="42.91997" lon="2.02736">
        <ele>676</ele>
        <time>2016-11-01T12:29:30.008Z</time>
      </trkpt>
      <trkpt lat="42.92007" lon="2.02745">
        <ele>673</ele>
        <time>2016-11-01T12:29:32.008Z</time>
      </trkpt>
      <trkpt lat="42.92015" lon="2.02754">
        <ele>673</ele>
        <time>2016-11-01T12:29:34.008Z</time>
      </trkpt>
      <trkpt lat="42.92022" lon="2.02762">
        <ele>673</ele>
        <time>2016-11-01T12:29:36.008Z</time>
      </trkpt>
      <trkpt lat="42.92029" lon="2.02769">
        <ele>673</ele>
        <time>2016-11-01T12:29:38.008Z</time>
      </trkpt>
      <trkpt lat="42.92035" lon="2.02777">
        <ele>673</ele>
        <time>2016-11-01T12:29:40.008Z</time>
      </trkpt>
      <trkpt lat="42.92041" lon="2.02783">
        <ele>673</ele>
        <time>2016-11-01T12:29:42.008Z</time>
      </trkpt>
      <trkpt lat="42.92048" lon="2.02789">
        <ele>673</ele>
        <time>2016-11-01T12:29:44.008Z</time>
      </trkpt>
      <trkpt lat="42.92056" lon="2.02796">
        <ele>673</ele>
        <time>2016-11-01T12:29:46.008Z</time>
      </trkpt>
      <trkpt lat="42.92064" lon="2.02804">
        <ele>673</ele>
        <time>2016-11-01T12:29:48.008Z</time>
      </trkpt>
      <trkpt lat="42.92072" lon="2.02813">
        <ele>673</ele>
        <time>2016-11-01T12:29:50.008Z</time>
      </trkpt>
      <trkpt lat="42.92083" lon="2.02818">
        <ele>671</ele>
        <time>2016-11-01T12:29:52.008Z</time>
      </trkpt>
      <trkpt lat="42.92095" lon="2.02821">
        <ele>671</ele>
        <time>2016-11-01T12:29:54.008Z</time>
      </trkpt>
      <trkpt lat="42.92106" lon="2.02824">
        <ele>671</ele>
        <time>2016-11-01T12:29:56.008Z</time>
      </trkpt>
      <trkpt lat="42.92117" lon="2.02828">
        <ele>671</ele>
        <time>2016-11-01T12:29:58.008Z</time>
      </trkpt>
      <trkpt lat="42.92129" lon="2.02831">
        <ele>671</ele>
        <time>2016-11-01T12:30:00.008Z</time>
      </trkpt>
      <trkpt lat="42.92144" lon="2.02838">
        <ele>663</ele>
        <time>2016-11-01T12:30:02.008Z</time>
      </trkpt>
      <trkpt lat="42.92161" lon="2.02844">
        <ele>660.7820032</ele>
        <time>2016-11-01T12:30:04.008Z</time>
      </trkpt>
      <trkpt lat="42.92176" lon="2.02853">
        <ele>659.7820032</ele>
        <time>2016-11-01T12:30:06.008Z</time>
      </trkpt>
      <trkpt lat="42.9219" lon="2.02861">
        <ele>657.7820032</ele>
        <time>2016-11-01T12:30:08.008Z</time>
      </trkpt>
      <trkpt lat="42.92205" lon="2.02868">
        <ele>655.3460096</ele>
        <time>2016-11-01T12:30:10.008Z</time>
      </trkpt>
      <trkpt lat="42.92213" lon="2.0287">
        <ele>653</ele>
        <time>2016-11-01T12:30:11.008Z</time>
      </trkpt>
      <trkpt lat="42.92228" lon="2.02878">
        <ele>653</ele>
        <time>2016-11-01T12:30:13.008Z</time>
      </trkpt>
      <trkpt lat="42.92245" lon="2.02886">
        <ele>653</ele>
        <time>2016-11-01T12:30:15.008Z</time>
      </trkpt>
      <trkpt lat="42.9226" lon="2.02898">
        <ele>653</ele>
        <time>2016-11-01T12:30:17.008Z</time>
      </trkpt>
      <trkpt lat="42.92272" lon="2.0291">
        <ele>654</ele>
        <time>2016-11-01T12:30:19.008Z</time>
      </trkpt>
      <trkpt lat="42.9228" lon="2.0292">
        <ele>654</ele>
        <time>2016-11-01T12:30:21.008Z</time>
      </trkpt>
      <trkpt lat="42.92286" lon="2.02927">
        <ele>654</ele>
        <time>2016-11-01T12:30:23.008Z</time>
      </trkpt>
      <trkpt lat="42.92291" lon="2.02933">
        <ele>654</ele>
        <time>2016-11-01T12:30:25.008Z</time>
      </trkpt>
      <trkpt lat="42.92296" lon="2.02939">
        <ele>654</ele>
        <time>2016-11-01T12:30:27.008Z</time>
      </trkpt>
      <trkpt lat="42.92301" lon="2.02944">
        <ele>654</ele>
        <time>2016-11-01T12:30:29.008Z</time>
      </trkpt>
      <trkpt lat="42.92305" lon="2.02949">
        <ele>654.6539904</ele>
        <time>2016-11-01T12:30:31.008Z</time>
      </trkpt>
      <trkpt lat="42.92309" lon="2.02954">
        <ele>657</ele>
        <time>2016-11-01T12:30:33.008Z</time>
      </trkpt>
      <trkpt lat="42.92314" lon="2.02959">
        <ele>657</ele>
        <time>2016-11-01T12:30:35.008Z</time>
      </trkpt>
      <trkpt lat="42.92317" lon="2.02964">
        <ele>660</ele>
        <time>2016-11-01T12:30:37.008Z</time>
      </trkpt>
      <trkpt lat="42.92322" lon="2.02969">
        <ele>660</ele>
        <time>2016-11-01T12:30:39.008Z</time>
      </trkpt>
      <trkpt lat="42.92326" lon="2.02973">
        <ele>660.2179968</ele>
        <time>2016-11-01T12:30:41.008Z</time>
      </trkpt>
      <trkpt lat="42.92331" lon="2.0298">
        <ele>661</ele>
        <time>2016-11-01T12:30:44.008Z</time>
      </trkpt>
      <trkpt lat="42.92337" lon="2.02987">
        <ele>662</ele>
        <time>2016-11-01T12:30:47.008Z</time>
      </trkpt>
      <trkpt lat="42.92343" lon="2.02994">
        <ele>662</ele>
        <time>2016-11-01T12:30:50.008Z</time>
      </trkpt>
      <trkpt lat="42.9235" lon="2.03001">
        <ele>663</ele>
        <time>2016-11-01T12:30:54.008Z</time>
      </trkpt>
      <trkpt lat="42.92357" lon="2.03007">
        <ele>663</ele>
        <time>2016-11-01T12:30:57.008Z</time>
      </trkpt>
      <trkpt lat="42.92364" lon="2.03013">
        <ele>663</ele>
        <time>2016-11-01T12:31:00.008Z</time>
      </trkpt>
      <trkpt lat="42.9237" lon="2.03018">
        <ele>664</ele>
        <time>2016-11-01T12:31:03.008Z</time>
      </trkpt>
      <trkpt lat="42.92376" lon="2.03024">
        <ele>664</ele>
        <time>2016-11-01T12:31:06.008Z</time>
      </trkpt>
      <trkpt lat="42.92382" lon="2.03027">
        <ele>664</ele>
        <time>2016-11-01T12:31:09.008Z</time>
      </trkpt>
      <trkpt lat="42.92389" lon="2.0303">
        <ele>664</ele>
        <time>2016-11-01T12:31:12.008Z</time>
      </trkpt>
      <trkpt lat="42.92397" lon="2.03032">
        <ele>664</ele>
        <time>2016-11-01T12:31:15.008Z</time>
      </trkpt>
      <trkpt lat="42.92405" lon="2.03034">
        <ele>664</ele>
        <time>2016-11-01T12:31:18.008Z</time>
      </trkpt>
      <trkpt lat="42.92412" lon="2.03037">
        <ele>664</ele>
        <time>2016-11-01T12:31:21.008Z</time>
      </trkpt>
      <trkpt lat="42.9242" lon="2.03039">
        <ele>664</ele>
        <time>2016-11-01T12:31:24.008Z</time>
      </trkpt>
      <trkpt lat="42.9243" lon="2.03042">
        <ele>664</ele>
        <time>2016-11-01T12:31:27.008Z</time>
      </trkpt>
      <trkpt lat="42.92439" lon="2.03047">
        <ele>664</ele>
        <time>2016-11-01T12:31:30.008Z</time>
      </trkpt>
      <trkpt lat="42.92446" lon="2.03051">
        <ele>665</ele>
        <time>2016-11-01T12:31:33.008Z</time>
      </trkpt>
      <trkpt lat="42.92452" lon="2.03054">
        <ele>665</ele>
        <time>2016-11-01T12:31:35.008Z</time>
      </trkpt>
      <trkpt lat="42.92457" lon="2.03057">
        <ele>665</ele>
        <time>2016-11-01T12:31:37.008Z</time>
      </trkpt>
      <trkpt lat="42.92463" lon="2.03059">
        <ele>665</ele>
        <time>2016-11-01T12:31:39.008Z</time>
      </trkpt>
      <trkpt lat="42.92472" lon="2.03061">
        <ele>665</ele>
        <time>2016-11-01T12:31:42.008Z</time>
      </trkpt>
      <trkpt lat="42.92479" lon="2.03063">
        <ele>665</ele>
        <time>2016-11-01T12:31:44.008Z</time>
      </trkpt>
      <trkpt lat="42.92486" lon="2.03065">
        <ele>665</ele>
        <time>2016-11-01T12:31:46.008Z</time>
      </trkpt>
      <trkpt lat="42.92494" lon="2.03067">
        <ele>665</ele>
        <time>2016-11-01T12:31:48.008Z</time>
      </trkpt>
      <trkpt lat="42.92502" lon="2.03069">
        <ele>665</ele>
        <time>2016-11-01T12:31:50.008Z</time>
      </trkpt>
      <trkpt lat="42.9251" lon="2.03072">
        <ele>663</ele>
        <time>2016-11-01T12:31:52.008Z</time>
      </trkpt>
      <trkpt lat="42.92523" lon="2.03075">
        <ele>663</ele>
        <time>2016-11-01T12:31:54.008Z</time>
      </trkpt>
      <trkpt lat="42.92535" lon="2.03078">
        <ele>663</ele>
        <time>2016-11-01T12:31:56.008Z</time>
      </trkpt>
      <trkpt lat="42.92548" lon="2.03083">
        <ele>663</ele>
        <time>2016-11-01T12:31:58.008Z</time>
      </trkpt>
      <trkpt lat="42.92562" lon="2.03087">
        <ele>663</ele>
        <time>2016-11-01T12:32:00.008Z</time>
      </trkpt>
      <trkpt lat="42.92574" lon="2.03091">
        <ele>656</ele>
        <time>2016-11-01T12:32:02.008Z</time>
      </trkpt>
      <trkpt lat="42.92586" lon="2.03093">
        <ele>655</ele>
        <time>2016-11-01T12:32:04.008Z</time>
      </trkpt>
      <trkpt lat="42.926" lon="2.03096">
        <ele>654.7820032</ele>
        <time>2016-11-01T12:32:06.008Z</time>
      </trkpt>
      <trkpt lat="42.92613" lon="2.031">
        <ele>654</ele>
        <time>2016-11-01T12:32:08.008Z</time>
      </trkpt>
      <trkpt lat="42.92627" lon="2.03104">
        <ele>654</ele>
        <time>2016-11-01T12:32:10.008Z</time>
      </trkpt>
      <trkpt lat="42.9264" lon="2.03106">
        <ele>653</ele>
        <time>2016-11-01T12:32:12.008Z</time>
      </trkpt>
      <trkpt lat="42.92653" lon="2.03109">
        <ele>653</ele>
        <time>2016-11-01T12:32:14.008Z</time>
      </trkpt>
      <trkpt lat="42.92665" lon="2.03113">
        <ele>652.5640064</ele>
        <time>2016-11-01T12:32:16.008Z</time>
      </trkpt>
      <trkpt lat="42.92677" lon="2.03117">
        <ele>651</ele>
        <time>2016-11-01T12:32:18.008Z</time>
      </trkpt>
      <trkpt lat="42.92683" lon="2.0312">
        <ele>651</ele>
        <time>2016-11-01T12:32:19.008Z</time>
      </trkpt>
      <trkpt lat="42.92689" lon="2.03122">
        <ele>651</ele>
        <time>2016-11-01T12:32:20.008Z</time>
      </trkpt>
      <trkpt lat="42.92695" lon="2.03124">
        <ele>649.910016</ele>
        <time>2016-11-01T12:32:21.008Z</time>
      </trkpt>
      <trkpt lat="42.927" lon="2.03126">
        <ele>645.7820032</ele>
        <time>2016-11-01T12:32:22.008Z</time>
      </trkpt>
      <trkpt lat="42.92706" lon="2.03127">
        <ele>644.78416090031</ele>
        <time>2016-11-01T12:32:23.008Z</time>
      </trkpt>
      <trkpt lat="42.92713" lon="2.03127">
        <ele>643.57979933802</ele>
        <time>2016-11-01T12:32:24.008Z</time>
      </trkpt>
      <trkpt lat="42.9272" lon="2.03127">
        <ele>641.5640064</ele>
        <time>2016-11-01T12:32:25.008Z</time>
      </trkpt>
      <trkpt lat="42.92728" lon="2.03127">
        <ele>639.7820032</ele>
        <time>2016-11-01T12:32:26.008Z</time>
      </trkpt>
      <trkpt lat="42.92735" lon="2.03128">
        <ele>639</ele>
        <time>2016-11-01T12:32:27.008Z</time>
      </trkpt>
      <trkpt lat="42.92742" lon="2.03129">
        <ele>638.7820032</ele>
        <time>2016-11-01T12:32:28.008Z</time>
      </trkpt>
      <trkpt lat="42.92756" lon="2.03128">
        <ele>636.5640064</ele>
        <time>2016-11-01T12:32:30.008Z</time>
      </trkpt>
      <trkpt lat="42.9277" lon="2.03126">
        <ele>634</ele>
        <time>2016-11-01T12:32:32.008Z</time>
      </trkpt>
      <trkpt lat="42.92783" lon="2.03122">
        <ele>633</ele>
        <time>2016-11-01T12:32:34.008Z</time>
      </trkpt>
      <trkpt lat="42.92796" lon="2.03117">
        <ele>631.7820032</ele>
        <time>2016-11-01T12:32:36.008Z</time>
      </trkpt>
      <trkpt lat="42.92803" lon="2.03115">
        <ele>630.7820032</ele>
        <time>2016-11-01T12:32:37.008Z</time>
      </trkpt>
      <trkpt lat="42.9281" lon="2.03115">
        <ele>630</ele>
        <time>2016-11-01T12:32:38.008Z</time>
      </trkpt>
      <trkpt lat="42.92824" lon="2.03117">
        <ele>630</ele>
        <time>2016-11-01T12:32:40.008Z</time>
      </trkpt>
      <trkpt lat="42.92836" lon="2.03116">
        <ele>630</ele>
        <time>2016-11-01T12:32:42.008Z</time>
      </trkpt>
      <trkpt lat="42.9285" lon="2.03116">
        <ele>630</ele>
        <time>2016-11-01T12:32:44.008Z</time>
      </trkpt>
      <trkpt lat="42.92857" lon="2.03118">
        <ele>630</ele>
        <time>2016-11-01T12:32:45.008Z</time>
      </trkpt>
      <trkpt lat="42.92864" lon="2.03119">
        <ele>629.5640064</ele>
        <time>2016-11-01T12:32:46.008Z</time>
      </trkpt>
      <trkpt lat="42.92877" lon="2.0312">
        <ele>628</ele>
        <time>2016-11-01T12:32:48.008Z</time>
      </trkpt>
      <trkpt lat="42.92888" lon="2.03115">
        <ele>628</ele>
        <time>2016-11-01T12:32:50.008Z</time>
      </trkpt>
      <trkpt lat="42.92901" lon="2.03105">
        <ele>623.5640064</ele>
        <time>2016-11-01T12:32:52.008Z</time>
      </trkpt>
      <trkpt lat="42.92913" lon="2.03101">
        <ele>620.7820032</ele>
        <time>2016-11-01T12:32:54.008Z</time>
      </trkpt>
      <trkpt lat="42.92925" lon="2.03096">
        <ele>618.7820032</ele>
        <time>2016-11-01T12:32:56.008Z</time>
      </trkpt>
      <trkpt lat="42.92939" lon="2.03087">
        <ele>617.7820032</ele>
        <time>2016-11-01T12:32:58.008Z</time>
      </trkpt>
      <trkpt lat="42.92952" lon="2.03075">
        <ele>616</ele>
        <time>2016-11-01T12:33:00.008Z</time>
      </trkpt>
      <trkpt lat="42.92964" lon="2.03063">
        <ele>614.7820032</ele>
        <time>2016-11-01T12:33:02.008Z</time>
      </trkpt>
      <trkpt lat="42.9297" lon="2.03056">
        <ele>613.7820032</ele>
        <time>2016-11-01T12:33:03.008Z</time>
      </trkpt>
      <trkpt lat="42.92978" lon="2.03044">
        <ele>612.7820032</ele>
        <time>2016-11-01T12:33:05.008Z</time>
      </trkpt>
      <trkpt lat="42.92984" lon="2.03045">
        <ele>612</ele>
        <time>2016-11-01T12:33:16.008Z</time>
      </trkpt>
      <trkpt lat="42.92981" lon="2.0305">
        <ele>611</ele>
        <time>2016-11-01T12:34:10.008Z</time>
      </trkpt>
      <trkpt lat="42.92981" lon="2.03059">
        <ele>611</ele>
        <time>2016-11-01T12:34:17.008Z</time>
      </trkpt>
      <trkpt lat="42.92985" lon="2.03068">
        <ele>611</ele>
        <time>2016-11-01T12:34:30.008Z</time>
      </trkpt>
      <trkpt lat="42.92988" lon="2.03077">
        <ele>609</ele>
        <time>2016-11-01T12:34:32.008Z</time>
      </trkpt>
      <trkpt lat="42.92992" lon="2.03089">
        <ele>609</ele>
        <time>2016-11-01T12:34:34.008Z</time>
      </trkpt>
      <trkpt lat="42.92996" lon="2.03107">
        <ele>609</ele>
        <time>2016-11-01T12:34:36.008Z</time>
      </trkpt>
      <trkpt lat="42.92997" lon="2.03127">
        <ele>609</ele>
        <time>2016-11-01T12:34:38.008Z</time>
      </trkpt>
      <trkpt lat="42.92999" lon="2.03146">
        <ele>609</ele>
        <time>2016-11-01T12:34:40.008Z</time>
      </trkpt>
      <trkpt lat="42.93001" lon="2.03163">
        <ele>607</ele>
        <time>2016-11-01T12:34:42.008Z</time>
      </trkpt>
      <trkpt lat="42.93004" lon="2.03179">
        <ele>607</ele>
        <time>2016-11-01T12:34:44.008Z</time>
      </trkpt>
      <trkpt lat="42.93008" lon="2.03195">
        <ele>606.3460096</ele>
        <time>2016-11-01T12:34:46.008Z</time>
      </trkpt>
      <trkpt lat="42.9301" lon="2.03212">
        <ele>604</ele>
        <time>2016-11-01T12:34:48.008Z</time>
      </trkpt>
      <trkpt lat="42.93015" lon="2.0323">
        <ele>604</ele>
        <time>2016-11-01T12:34:50.008Z</time>
      </trkpt>
      <trkpt lat="42.93021" lon="2.03249">
        <ele>600.7820032</ele>
        <time>2016-11-01T12:34:52.008Z</time>
      </trkpt>
      <trkpt lat="42.93026" lon="2.03266">
        <ele>600</ele>
        <time>2016-11-01T12:34:54.008Z</time>
      </trkpt>
      <trkpt lat="42.93029" lon="2.03283">
        <ele>599</ele>
        <time>2016-11-01T12:34:56.008Z</time>
      </trkpt>
      <trkpt lat="42.93026" lon="2.03294">
        <ele>598</ele>
        <time>2016-11-01T12:34:58.008Z</time>
      </trkpt>
      <trkpt lat="42.93018" lon="2.03297">
        <ele>598</ele>
        <time>2016-11-01T12:35:00.008Z</time>
      </trkpt>
      <trkpt lat="42.93008" lon="2.03295">
        <ele>595</ele>
        <time>2016-11-01T12:35:02.008Z</time>
      </trkpt>
      <trkpt lat="42.92996" lon="2.03292">
        <ele>594.7820032</ele>
        <time>2016-11-01T12:35:04.008Z</time>
      </trkpt>
      <trkpt lat="42.92985" lon="2.0329">
        <ele>593.7820032</ele>
        <time>2016-11-01T12:35:06.008Z</time>
      </trkpt>
      <trkpt lat="42.92973" lon="2.03289">
        <ele>591.7820032</ele>
        <time>2016-11-01T12:35:08.008Z</time>
      </trkpt>
      <trkpt lat="42.92961" lon="2.03291">
        <ele>591</ele>
        <time>2016-11-01T12:35:10.008Z</time>
      </trkpt>
      <trkpt lat="42.9295" lon="2.03299">
        <ele>591</ele>
        <time>2016-11-01T12:35:12.008Z</time>
      </trkpt>
      <trkpt lat="42.92943" lon="2.03309">
        <ele>591</ele>
        <time>2016-11-01T12:35:14.008Z</time>
      </trkpt>
      <trkpt lat="42.92939" lon="2.03326">
        <ele>590.7820032</ele>
        <time>2016-11-01T12:35:16.008Z</time>
      </trkpt>
      <trkpt lat="42.92937" lon="2.03344">
        <ele>590</ele>
        <time>2016-11-01T12:35:18.008Z</time>
      </trkpt>
      <trkpt lat="42.92935" lon="2.03362">
        <ele>590</ele>
        <time>2016-11-01T12:35:20.008Z</time>
      </trkpt>
      <trkpt lat="42.92932" lon="2.03377">
        <ele>588</ele>
        <time>2016-11-01T12:35:22.008Z</time>
      </trkpt>
      <trkpt lat="42.92929" lon="2.0339">
        <ele>588</ele>
        <time>2016-11-01T12:35:24.008Z</time>
      </trkpt>
      <trkpt lat="42.92928" lon="2.03404">
        <ele>587.7820032</ele>
        <time>2016-11-01T12:35:26.008Z</time>
      </trkpt>
      <trkpt lat="42.92926" lon="2.03416">
        <ele>587</ele>
        <time>2016-11-01T12:35:28.008Z</time>
      </trkpt>
      <trkpt lat="42.92924" lon="2.03429">
        <ele>587</ele>
        <time>2016-11-01T12:35:30.008Z</time>
      </trkpt>
      <trkpt lat="42.9292" lon="2.03441">
        <ele>587</ele>
        <time>2016-11-01T12:35:32.008Z</time>
      </trkpt>
      <trkpt lat="42.92916" lon="2.03455">
        <ele>587</ele>
        <time>2016-11-01T12:35:34.008Z</time>
      </trkpt>
      <trkpt lat="42.92914" lon="2.03462">
        <ele>587</ele>
        <time>2016-11-01T12:35:35.008Z</time>
      </trkpt>
      <trkpt lat="42.92912" lon="2.03469">
        <ele>587</ele>
        <time>2016-11-01T12:35:36.008Z</time>
      </trkpt>
      <trkpt lat="42.92911" lon="2.03477">
        <ele>587</ele>
        <time>2016-11-01T12:35:37.008Z</time>
      </trkpt>
      <trkpt lat="42.92909" lon="2.03484">
        <ele>587</ele>
        <time>2016-11-01T12:35:38.008Z</time>
      </trkpt>
      <trkpt lat="42.92907" lon="2.03491">
        <ele>587</ele>
        <time>2016-11-01T12:35:39.008Z</time>
      </trkpt>
      <trkpt lat="42.92905" lon="2.03498">
        <ele>587</ele>
        <time>2016-11-01T12:35:40.008Z</time>
      </trkpt>
      <trkpt lat="42.92901" lon="2.03511">
        <ele>587</ele>
        <time>2016-11-01T12:35:42.008Z</time>
      </trkpt>
      <trkpt lat="42.92894" lon="2.0352">
        <ele>587</ele>
        <time>2016-11-01T12:35:44.008Z</time>
      </trkpt>
      <trkpt lat="42.92888" lon="2.03528">
        <ele>587</ele>
        <time>2016-11-01T12:35:46.008Z</time>
      </trkpt>
      <trkpt lat="42.92882" lon="2.03536">
        <ele>587</ele>
        <time>2016-11-01T12:35:48.008Z</time>
      </trkpt>
      <trkpt lat="42.92876" lon="2.03545">
        <ele>587</ele>
        <time>2016-11-01T12:35:50.008Z</time>
      </trkpt>
      <trkpt lat="42.9287" lon="2.03557">
        <ele>585</ele>
        <time>2016-11-01T12:35:52.008Z</time>
      </trkpt>
      <trkpt lat="42.92864" lon="2.03571">
        <ele>585</ele>
        <time>2016-11-01T12:35:54.008Z</time>
      </trkpt>
      <trkpt lat="42.92858" lon="2.03585">
        <ele>585</ele>
        <time>2016-11-01T12:35:56.008Z</time>
      </trkpt>
      <trkpt lat="42.92852" lon="2.03599">
        <ele>585</ele>
        <time>2016-11-01T12:35:58.008Z</time>
      </trkpt>
      <trkpt lat="42.9285" lon="2.03606">
        <ele>585</ele>
        <time>2016-11-01T12:35:59.008Z</time>
      </trkpt>
      <trkpt lat="42.92847" lon="2.03613">
        <ele>585</ele>
        <time>2016-11-01T12:36:00.008Z</time>
      </trkpt>
      <trkpt lat="42.92843" lon="2.03619">
        <ele>584.5640064</ele>
        <time>2016-11-01T12:36:01.008Z</time>
      </trkpt>
      <trkpt lat="42.92838" lon="2.03623">
        <ele>583</ele>
        <time>2016-11-01T12:36:02.008Z</time>
      </trkpt>
      <trkpt lat="42.92833" lon="2.03624">
        <ele>583</ele>
        <time>2016-11-01T12:36:03.008Z</time>
      </trkpt>
      <trkpt lat="42.92827" lon="2.03624">
        <ele>583</ele>
        <time>2016-11-01T12:36:04.008Z</time>
      </trkpt>
      <trkpt lat="42.92822" lon="2.03623">
        <ele>583</ele>
        <time>2016-11-01T12:36:05.008Z</time>
      </trkpt>
      <trkpt lat="42.92816" lon="2.0362">
        <ele>583</ele>
        <time>2016-11-01T12:36:06.008Z</time>
      </trkpt>
      <trkpt lat="42.92809" lon="2.03618">
        <ele>583</ele>
        <time>2016-11-01T12:36:07.008Z</time>
      </trkpt>
      <trkpt lat="42.92803" lon="2.03614">
        <ele>583</ele>
        <time>2016-11-01T12:36:08.008Z</time>
      </trkpt>
      <trkpt lat="42.92796" lon="2.0361">
        <ele>583</ele>
        <time>2016-11-01T12:36:09.008Z</time>
      </trkpt>
      <trkpt lat="42.92789" lon="2.03606">
        <ele>583</ele>
        <time>2016-11-01T12:36:10.008Z</time>
      </trkpt>
      <trkpt lat="42.92782" lon="2.03601">
        <ele>582.5640064</ele>
        <time>2016-11-01T12:36:11.008Z</time>
      </trkpt>
      <trkpt lat="42.92775" lon="2.03597">
        <ele>581</ele>
        <time>2016-11-01T12:36:12.008Z</time>
      </trkpt>
      <trkpt lat="42.92769" lon="2.03594">
        <ele>581</ele>
        <time>2016-11-01T12:36:13.008Z</time>
      </trkpt>
      <trkpt lat="42.92755" lon="2.03592">
        <ele>581</ele>
        <time>2016-11-01T12:36:15.008Z</time>
      </trkpt>
      <trkpt lat="42.92748" lon="2.03593">
        <ele>580.15959867604</ele>
        <time>2016-11-01T12:36:16.008Z</time>
      </trkpt>
      <trkpt lat="42.92735" lon="2.03598">
        <ele>577</ele>
        <time>2016-11-01T12:36:18.008Z</time>
      </trkpt>
      <trkpt lat="42.9272" lon="2.03602">
        <ele>577</ele>
        <time>2016-11-01T12:36:20.008Z</time>
      </trkpt>
      <trkpt lat="42.92707" lon="2.03608">
        <ele>573</ele>
        <time>2016-11-01T12:36:22.008Z</time>
      </trkpt>
      <trkpt lat="42.92696" lon="2.03614">
        <ele>571.7820032</ele>
        <time>2016-11-01T12:36:24.008Z</time>
      </trkpt>
      <trkpt lat="42.92691" lon="2.03624">
        <ele>570.2179968</ele>
        <time>2016-11-01T12:36:26.008Z</time>
      </trkpt>
      <trkpt lat="42.92694" lon="2.03637">
        <ele>570.7820032</ele>
        <time>2016-11-01T12:36:28.008Z</time>
      </trkpt>
      <trkpt lat="42.92695" lon="2.03643">
        <ele>570</ele>
        <time>2016-11-01T12:36:29.008Z</time>
      </trkpt>
      <trkpt lat="42.92692" lon="2.03653">
        <ele>569.7820032</ele>
        <time>2016-11-01T12:36:31.008Z</time>
      </trkpt>
      <trkpt lat="42.92685" lon="2.03656">
        <ele>569</ele>
        <time>2016-11-01T12:36:33.008Z</time>
      </trkpt>
      <trkpt lat="42.92679" lon="2.03657">
        <ele>569</ele>
        <time>2016-11-01T12:36:35.008Z</time>
      </trkpt>
      <trkpt lat="42.92674" lon="2.03656">
        <ele>570</ele>
        <time>2016-11-01T12:36:37.008Z</time>
      </trkpt>
      <trkpt lat="42.92669" lon="2.03656">
        <ele>570</ele>
        <time>2016-11-01T12:36:39.008Z</time>
      </trkpt>
      <trkpt lat="42.92664" lon="2.03657">
        <ele>570</ele>
        <time>2016-11-01T12:36:41.008Z</time>
      </trkpt>
      <trkpt lat="42.9266" lon="2.03659">
        <ele>570</ele>
        <time>2016-11-01T12:36:43.008Z</time>
      </trkpt>
      <trkpt lat="42.92655" lon="2.03662">
        <ele>570</ele>
        <time>2016-11-01T12:36:45.008Z</time>
      </trkpt>
      <trkpt lat="42.92648" lon="2.03667">
        <ele>570</ele>
        <time>2016-11-01T12:36:47.008Z</time>
      </trkpt>
      <trkpt lat="42.92641" lon="2.03674">
        <ele>570</ele>
        <time>2016-11-01T12:36:49.008Z</time>
      </trkpt>
      <trkpt lat="42.92633" lon="2.03686">
        <ele>569.3460096</ele>
        <time>2016-11-01T12:36:51.008Z</time>
      </trkpt>
      <trkpt lat="42.92625" lon="2.037">
        <ele>567</ele>
        <time>2016-11-01T12:36:53.008Z</time>
      </trkpt>
      <trkpt lat="42.9262" lon="2.03708">
        <ele>567</ele>
        <time>2016-11-01T12:36:54.008Z</time>
      </trkpt>
      <trkpt lat="42.92615" lon="2.03716">
        <ele>567</ele>
        <time>2016-11-01T12:36:55.008Z</time>
      </trkpt>
      <trkpt lat="42.9261" lon="2.03725">
        <ele>566.1280128</ele>
        <time>2016-11-01T12:36:56.008Z</time>
      </trkpt>
      <trkpt lat="42.92605" lon="2.03735">
        <ele>563</ele>
        <time>2016-11-01T12:36:57.008Z</time>
      </trkpt>
      <trkpt lat="42.92601" lon="2.03746">
        <ele>563</ele>
        <time>2016-11-01T12:36:58.008Z</time>
      </trkpt>
      <trkpt lat="42.92598" lon="2.03757">
        <ele>563</ele>
        <time>2016-11-01T12:36:59.008Z</time>
      </trkpt>
      <trkpt lat="42.92597" lon="2.03769">
        <ele>563</ele>
        <time>2016-11-01T12:37:00.008Z</time>
      </trkpt>
      <trkpt lat="42.92598" lon="2.03781">
        <ele>562.3460096</ele>
        <time>2016-11-01T12:37:01.008Z</time>
      </trkpt>
      <trkpt lat="42.92601" lon="2.03793">
        <ele>560</ele>
        <time>2016-11-01T12:37:02.008Z</time>
      </trkpt>
      <trkpt lat="42.92605" lon="2.03805">
        <ele>560</ele>
        <time>2016-11-01T12:37:03.008Z</time>
      </trkpt>
      <trkpt lat="42.92607" lon="2.03817">
        <ele>559.7820032</ele>
        <time>2016-11-01T12:37:04.008Z</time>
      </trkpt>
      <trkpt lat="42.92608" lon="2.0383">
        <ele>558.7820032</ele>
        <time>2016-11-01T12:37:05.008Z</time>
      </trkpt>
      <trkpt lat="42.92606" lon="2.03843">
        <ele>558</ele>
        <time>2016-11-01T12:37:06.008Z</time>
      </trkpt>
      <trkpt lat="42.92603" lon="2.03856">
        <ele>557.7820032</ele>
        <time>2016-11-01T12:37:07.008Z</time>
      </trkpt>
      <trkpt lat="42.92598" lon="2.03867">
        <ele>556.7820032</ele>
        <time>2016-11-01T12:37:08.008Z</time>
      </trkpt>
      <trkpt lat="42.92593" lon="2.03878">
        <ele>555.7820032</ele>
        <time>2016-11-01T12:37:09.008Z</time>
      </trkpt>
      <trkpt lat="42.92586" lon="2.03889">
        <ele>554.7820032</ele>
        <time>2016-11-01T12:37:10.008Z</time>
      </trkpt>
      <trkpt lat="42.9258" lon="2.039">
        <ele>554</ele>
        <time>2016-11-01T12:37:11.008Z</time>
      </trkpt>
      <trkpt lat="42.92574" lon="2.0391">
        <ele>553.7820032</ele>
        <time>2016-11-01T12:37:12.008Z</time>
      </trkpt>
      <trkpt lat="42.92568" lon="2.03922">
        <ele>553</ele>
        <time>2016-11-01T12:37:13.008Z</time>
      </trkpt>
      <trkpt lat="42.92562" lon="2.03933">
        <ele>552.7820032</ele>
        <time>2016-11-01T12:37:14.008Z</time>
      </trkpt>
      <trkpt lat="42.92557" lon="2.03945">
        <ele>552</ele>
        <time>2016-11-01T12:37:15.008Z</time>
      </trkpt>
      <trkpt lat="42.92553" lon="2.03958">
        <ele>551.78627630605</ele>
        <time>2016-11-01T12:37:16.008Z</time>
      </trkpt>
      <trkpt lat="42.92551" lon="2.03971">
        <ele>551</ele>
        <time>2016-11-01T12:37:17.008Z</time>
      </trkpt>
      <trkpt lat="42.92551" lon="2.03985">
        <ele>550.7820032</ele>
        <time>2016-11-01T12:37:18.008Z</time>
      </trkpt>
      <trkpt lat="42.92554" lon="2.03998">
        <ele>549.7820032</ele>
        <time>2016-11-01T12:37:19.008Z</time>
      </trkpt>
      <trkpt lat="42.92558" lon="2.04011">
        <ele>548.7820032</ele>
        <time>2016-11-01T12:37:20.008Z</time>
      </trkpt>
      <trkpt lat="42.92562" lon="2.04024">
        <ele>548</ele>
        <time>2016-11-01T12:37:21.008Z</time>
      </trkpt>
      <trkpt lat="42.92566" lon="2.04038">
        <ele>547.7820032</ele>
        <time>2016-11-01T12:37:22.008Z</time>
      </trkpt>
      <trkpt lat="42.92567" lon="2.04052">
        <ele>546.7820032</ele>
        <time>2016-11-01T12:37:23.008Z</time>
      </trkpt>
      <trkpt lat="42.92567" lon="2.04066">
        <ele>546</ele>
        <time>2016-11-01T12:37:24.008Z</time>
      </trkpt>
      <trkpt lat="42.92566" lon="2.04081">
        <ele>545.7820032</ele>
        <time>2016-11-01T12:37:25.008Z</time>
      </trkpt>
      <trkpt lat="42.92563" lon="2.04095">
        <ele>545</ele>
        <time>2016-11-01T12:37:26.008Z</time>
      </trkpt>
      <trkpt lat="42.9256" lon="2.04108">
        <ele>544.7820032</ele>
        <time>2016-11-01T12:37:27.008Z</time>
      </trkpt>
      <trkpt lat="42.92554" lon="2.04119">
        <ele>543.7820032</ele>
        <time>2016-11-01T12:37:28.008Z</time>
      </trkpt>
      <trkpt lat="42.92547" lon="2.04129">
        <ele>542.7820032</ele>
        <time>2016-11-01T12:37:29.008Z</time>
      </trkpt>
      <trkpt lat="42.92539" lon="2.04137">
        <ele>541.7820032</ele>
        <time>2016-11-01T12:37:30.008Z</time>
      </trkpt>
      <trkpt lat="42.9253" lon="2.04144">
        <ele>540.7820032</ele>
        <time>2016-11-01T12:37:31.008Z</time>
      </trkpt>
      <trkpt lat="42.92522" lon="2.0415">
        <ele>540</ele>
        <time>2016-11-01T12:37:32.008Z</time>
      </trkpt>
      <trkpt lat="42.92514" lon="2.04157">
        <ele>539.7820032</ele>
        <time>2016-11-01T12:37:33.008Z</time>
      </trkpt>
      <trkpt lat="42.92506" lon="2.04163">
        <ele>539</ele>
        <time>2016-11-01T12:37:34.008Z</time>
      </trkpt>
      <trkpt lat="42.92499" lon="2.04169">
        <ele>539</ele>
        <time>2016-11-01T12:37:35.008Z</time>
      </trkpt>
      <trkpt lat="42.92492" lon="2.04174">
        <ele>539</ele>
        <time>2016-11-01T12:37:36.008Z</time>
      </trkpt>
      <trkpt lat="42.92484" lon="2.04177">
        <ele>538.7820032</ele>
        <time>2016-11-01T12:37:37.008Z</time>
      </trkpt>
      <trkpt lat="42.92477" lon="2.04177">
        <ele>538</ele>
        <time>2016-11-01T12:37:38.008Z</time>
      </trkpt>
      <trkpt lat="42.9247" lon="2.04176">
        <ele>537.7820032</ele>
        <time>2016-11-01T12:37:39.008Z</time>
      </trkpt>
      <trkpt lat="42.92463" lon="2.04174">
        <ele>537</ele>
        <time>2016-11-01T12:37:40.008Z</time>
      </trkpt>
      <trkpt lat="42.92456" lon="2.04173">
        <ele>537</ele>
        <time>2016-11-01T12:37:41.008Z</time>
      </trkpt>
      <trkpt lat="42.9245" lon="2.04174">
        <ele>537</ele>
        <time>2016-11-01T12:37:42.008Z</time>
      </trkpt>
      <trkpt lat="42.92444" lon="2.04175">
        <ele>537</ele>
        <time>2016-11-01T12:37:43.008Z</time>
      </trkpt>
      <trkpt lat="42.92437" lon="2.04177">
        <ele>537</ele>
        <time>2016-11-01T12:37:44.008Z</time>
      </trkpt>
      <trkpt lat="42.92431" lon="2.04179">
        <ele>537</ele>
        <time>2016-11-01T12:37:45.008Z</time>
      </trkpt>
      <trkpt lat="42.92424" lon="2.04181">
        <ele>536.5640064</ele>
        <time>2016-11-01T12:37:46.008Z</time>
      </trkpt>
      <trkpt lat="42.92418" lon="2.04184">
        <ele>535</ele>
        <time>2016-11-01T12:37:47.008Z</time>
      </trkpt>
      <trkpt lat="42.92411" lon="2.04186">
        <ele>535</ele>
        <time>2016-11-01T12:37:48.008Z</time>
      </trkpt>
      <trkpt lat="42.92404" lon="2.04189">
        <ele>535</ele>
        <time>2016-11-01T12:37:49.008Z</time>
      </trkpt>
      <trkpt lat="42.92397" lon="2.04192">
        <ele>535</ele>
        <time>2016-11-01T12:37:50.008Z</time>
      </trkpt>
      <trkpt lat="42.9239" lon="2.04195">
        <ele>534.5640064</ele>
        <time>2016-11-01T12:37:51.008Z</time>
      </trkpt>
      <trkpt lat="42.92382" lon="2.04197">
        <ele>533</ele>
        <time>2016-11-01T12:37:52.008Z</time>
      </trkpt>
      <trkpt lat="42.92375" lon="2.042">
        <ele>533</ele>
        <time>2016-11-01T12:37:53.008Z</time>
      </trkpt>
      <trkpt lat="42.92367" lon="2.04202">
        <ele>533</ele>
        <time>2016-11-01T12:37:54.008Z</time>
      </trkpt>
      <trkpt lat="42.92359" lon="2.04205">
        <ele>533</ele>
        <time>2016-11-01T12:37:55.008Z</time>
      </trkpt>
      <trkpt lat="42.92351" lon="2.04208">
        <ele>532.5640064</ele>
        <time>2016-11-01T12:37:56.008Z</time>
      </trkpt>
      <trkpt lat="42.92344" lon="2.04211">
        <ele>531</ele>
        <time>2016-11-01T12:37:57.008Z</time>
      </trkpt>
      <trkpt lat="42.92336" lon="2.04213">
        <ele>531</ele>
        <time>2016-11-01T12:37:58.008Z</time>
      </trkpt>
      <trkpt lat="42.92328" lon="2.04215">
        <ele>531</ele>
        <time>2016-11-01T12:37:59.008Z</time>
      </trkpt>
      <trkpt lat="42.92321" lon="2.04218">
        <ele>531</ele>
        <time>2016-11-01T12:38:00.008Z</time>
      </trkpt>
      <trkpt lat="42.92314" lon="2.0422">
        <ele>530.5640064</ele>
        <time>2016-11-01T12:38:01.008Z</time>
      </trkpt>
      <trkpt lat="42.92308" lon="2.04222">
        <ele>529</ele>
        <time>2016-11-01T12:38:02.008Z</time>
      </trkpt>
      <trkpt lat="42.92302" lon="2.04224">
        <ele>529</ele>
        <time>2016-11-01T12:38:03.008Z</time>
      </trkpt>
      <trkpt lat="42.92297" lon="2.04226">
        <ele>529</ele>
        <time>2016-11-01T12:38:04.008Z</time>
      </trkpt>
      <trkpt lat="42.92292" lon="2.04232">
        <ele>528.5640064</ele>
        <time>2016-11-01T12:38:06.008Z</time>
      </trkpt>
      <trkpt lat="42.92294" lon="2.04239">
        <ele>527</ele>
        <time>2016-11-01T12:38:08.008Z</time>
      </trkpt>
      <trkpt lat="42.92303" lon="2.04244">
        <ele>527</ele>
        <time>2016-11-01T12:38:10.008Z</time>
      </trkpt>
      <trkpt lat="42.92307" lon="2.04248">
        <ele>526.7820032</ele>
        <time>2016-11-01T12:38:11.008Z</time>
      </trkpt>
      <trkpt lat="42.92312" lon="2.04252">
        <ele>526</ele>
        <time>2016-11-01T12:38:12.008Z</time>
      </trkpt>
      <trkpt lat="42.92317" lon="2.04256">
        <ele>526</ele>
        <time>2016-11-01T12:38:13.008Z</time>
      </trkpt>
      <trkpt lat="42.92322" lon="2.04261">
        <ele>526</ele>
        <time>2016-11-01T12:38:14.008Z</time>
      </trkpt>
      <trkpt lat="42.92326" lon="2.04268">
        <ele>526</ele>
        <time>2016-11-01T12:38:15.008Z</time>
      </trkpt>
      <trkpt lat="42.9233" lon="2.04275">
        <ele>525.7820032</ele>
        <time>2016-11-01T12:38:16.008Z</time>
      </trkpt>
      <trkpt lat="42.92333" lon="2.04283">
        <ele>525</ele>
        <time>2016-11-01T12:38:17.008Z</time>
      </trkpt>
      <trkpt lat="42.92336" lon="2.04291">
        <ele>525</ele>
        <time>2016-11-01T12:38:18.008Z</time>
      </trkpt>
      <trkpt lat="42.92338" lon="2.043">
        <ele>525</ele>
        <time>2016-11-01T12:38:19.008Z</time>
      </trkpt>
      <trkpt lat="42.9234" lon="2.04309">
        <ele>525</ele>
        <time>2016-11-01T12:38:20.008Z</time>
      </trkpt>
      <trkpt lat="42.9234" lon="2.04318">
        <ele>524.5640064</ele>
        <time>2016-11-01T12:38:21.008Z</time>
      </trkpt>
      <trkpt lat="42.9234" lon="2.04325">
        <ele>523</ele>
        <time>2016-11-01T12:38:22.008Z</time>
      </trkpt>
      <trkpt lat="42.92337" lon="2.0433">
        <ele>523</ele>
        <time>2016-11-01T12:38:23.008Z</time>
      </trkpt>
      <trkpt lat="42.92332" lon="2.04335">
        <ele>523</ele>
        <time>2016-11-01T12:38:24.008Z</time>
      </trkpt>
      <trkpt lat="42.92328" lon="2.0434">
        <ele>523</ele>
        <time>2016-11-01T12:38:25.008Z</time>
      </trkpt>
      <trkpt lat="42.92323" lon="2.04346">
        <ele>522.3460096</ele>
        <time>2016-11-01T12:38:26.008Z</time>
      </trkpt>
      <trkpt lat="42.92318" lon="2.04352">
        <ele>520</ele>
        <time>2016-11-01T12:38:27.008Z</time>
      </trkpt>
      <trkpt lat="42.92312" lon="2.04359">
        <ele>520</ele>
        <time>2016-11-01T12:38:28.008Z</time>
      </trkpt>
      <trkpt lat="42.92307" lon="2.04366">
        <ele>520</ele>
        <time>2016-11-01T12:38:29.008Z</time>
      </trkpt>
      <trkpt lat="42.92301" lon="2.04374">
        <ele>520</ele>
        <time>2016-11-01T12:38:30.008Z</time>
      </trkpt>
      <trkpt lat="42.92295" lon="2.04381">
        <ele>519.5640064</ele>
        <time>2016-11-01T12:38:31.008Z</time>
      </trkpt>
      <trkpt lat="42.92289" lon="2.04389">
        <ele>517.7820032</ele>
        <time>2016-11-01T12:38:32.008Z</time>
      </trkpt>
      <trkpt lat="42.92282" lon="2.04397">
        <ele>516.7820032</ele>
        <time>2016-11-01T12:38:33.008Z</time>
      </trkpt>
      <trkpt lat="42.92276" lon="2.04406">
        <ele>515.7820032</ele>
        <time>2016-11-01T12:38:34.008Z</time>
      </trkpt>
      <trkpt lat="42.9227" lon="2.04414">
        <ele>514.7820032</ele>
        <time>2016-11-01T12:38:35.008Z</time>
      </trkpt>
      <trkpt lat="42.92264" lon="2.04423">
        <ele>514</ele>
        <time>2016-11-01T12:38:36.008Z</time>
      </trkpt>
      <trkpt lat="42.92257" lon="2.0443">
        <ele>514</ele>
        <time>2016-11-01T12:38:37.008Z</time>
      </trkpt>
      <trkpt lat="42.9225" lon="2.04437">
        <ele>513.7820032</ele>
        <time>2016-11-01T12:38:38.008Z</time>
      </trkpt>
      <trkpt lat="42.92243" lon="2.04443">
        <ele>513</ele>
        <time>2016-11-01T12:38:39.008Z</time>
      </trkpt>
      <trkpt lat="42.92235" lon="2.04449">
        <ele>512.78416090031</ele>
        <time>2016-11-01T12:38:40.008Z</time>
      </trkpt>
      <trkpt lat="42.92227" lon="2.04454">
        <ele>512</ele>
        <time>2016-11-01T12:38:41.008Z</time>
      </trkpt>
      <trkpt lat="42.92219" lon="2.0446">
        <ele>511.7820032</ele>
        <time>2016-11-01T12:38:42.008Z</time>
      </trkpt>
      <trkpt lat="42.92211" lon="2.04466">
        <ele>511</ele>
        <time>2016-11-01T12:38:43.008Z</time>
      </trkpt>
      <trkpt lat="42.92204" lon="2.04472">
        <ele>510.7820032</ele>
        <time>2016-11-01T12:38:44.008Z</time>
      </trkpt>
      <trkpt lat="42.92196" lon="2.04478">
        <ele>510</ele>
        <time>2016-11-01T12:38:45.008Z</time>
      </trkpt>
      <trkpt lat="42.92188" lon="2.04484">
        <ele>509.7820032</ele>
        <time>2016-11-01T12:38:46.008Z</time>
      </trkpt>
      <trkpt lat="42.92179" lon="2.0449">
        <ele>508.7820032</ele>
        <time>2016-11-01T12:38:47.008Z</time>
      </trkpt>
      <trkpt lat="42.92171" lon="2.04495">
        <ele>508</ele>
        <time>2016-11-01T12:38:48.008Z</time>
      </trkpt>
      <trkpt lat="42.92164" lon="2.04498">
        <ele>507.7820032</ele>
        <time>2016-11-01T12:38:49.008Z</time>
      </trkpt>
      <trkpt lat="42.92157" lon="2.045">
        <ele>507</ele>
        <time>2016-11-01T12:38:50.008Z</time>
      </trkpt>
      <trkpt lat="42.92152" lon="2.045">
        <ele>506.7820032</ele>
        <time>2016-11-01T12:38:51.008Z</time>
      </trkpt>
      <trkpt lat="42.92148" lon="2.04499">
        <ele>506</ele>
        <time>2016-11-01T12:38:52.008Z</time>
      </trkpt>
      <trkpt lat="42.92142" lon="2.04495">
        <ele>506</ele>
        <time>2016-11-01T12:38:54.008Z</time>
      </trkpt>
      <trkpt lat="42.92138" lon="2.04494">
        <ele>506</ele>
        <time>2016-11-01T12:38:55.008Z</time>
      </trkpt>
      <trkpt lat="42.92134" lon="2.04495">
        <ele>506</ele>
        <time>2016-11-01T12:38:56.008Z</time>
      </trkpt>
      <trkpt lat="42.9213" lon="2.04497">
        <ele>506</ele>
        <time>2016-11-01T12:38:57.008Z</time>
      </trkpt>
      <trkpt lat="42.92126" lon="2.045">
        <ele>505.7820032</ele>
        <time>2016-11-01T12:38:58.008Z</time>
      </trkpt>
      <trkpt lat="42.92122" lon="2.04503">
        <ele>504.7820032</ele>
        <time>2016-11-01T12:38:59.008Z</time>
      </trkpt>
      <trkpt lat="42.92118" lon="2.04506">
        <ele>504</ele>
        <time>2016-11-01T12:39:00.008Z</time>
      </trkpt>
      <trkpt lat="42.92114" lon="2.04511">
        <ele>504</ele>
        <time>2016-11-01T12:39:01.008Z</time>
      </trkpt>
      <trkpt lat="42.92108" lon="2.04523">
        <ele>504</ele>
        <time>2016-11-01T12:39:03.008Z</time>
      </trkpt>
      <trkpt lat="42.92104" lon="2.04539">
        <ele>504</ele>
        <time>2016-11-01T12:39:05.008Z</time>
      </trkpt>
      <trkpt lat="42.92101" lon="2.04556">
        <ele>504</ele>
        <time>2016-11-01T12:39:07.008Z</time>
      </trkpt>
      <trkpt lat="42.92097" lon="2.04572">
        <ele>504</ele>
        <time>2016-11-01T12:39:09.008Z</time>
      </trkpt>
      <trkpt lat="42.92089" lon="2.04582">
        <ele>502.6920192</ele>
        <time>2016-11-01T12:39:11.008Z</time>
      </trkpt>
      <trkpt lat="42.9208" lon="2.04588">
        <ele>494.7820032</ele>
        <time>2016-11-01T12:39:13.008Z</time>
      </trkpt>
      <trkpt lat="42.92072" lon="2.04595">
        <ele>493</ele>
        <time>2016-11-01T12:39:16.008Z</time>
      </trkpt>
      <trkpt lat="42.92063" lon="2.04595">
        <ele>493</ele>
        <time>2016-11-01T12:39:19.008Z</time>
      </trkpt>
      <trkpt lat="42.92054" lon="2.04597">
        <ele>492</ele>
        <time>2016-11-01T12:39:21.008Z</time>
      </trkpt>
      <trkpt lat="42.92045" lon="2.046">
        <ele>492</ele>
        <time>2016-11-01T12:39:23.008Z</time>
      </trkpt>
      <trkpt lat="42.92034" lon="2.04603">
        <ele>490.7820032</ele>
        <time>2016-11-01T12:39:25.008Z</time>
      </trkpt>
      <trkpt lat="42.92023" lon="2.04606">
        <ele>489</ele>
        <time>2016-11-01T12:39:27.008Z</time>
      </trkpt>
      <trkpt lat="42.92012" lon="2.04609">
        <ele>489</ele>
        <time>2016-11-01T12:39:29.008Z</time>
      </trkpt>
      <trkpt lat="42.92004" lon="2.04612">
        <ele>488</ele>
        <time>2016-11-01T12:39:31.008Z</time>
      </trkpt>
      <trkpt lat="42.91996" lon="2.04613">
        <ele>488</ele>
        <time>2016-11-01T12:39:33.008Z</time>
      </trkpt>
      <trkpt lat="42.91992" lon="2.04622">
        <ele>488</ele>
        <time>2016-11-01T12:39:36.008Z</time>
      </trkpt>
      <trkpt lat="42.9199" lon="2.04631">
        <ele>488</ele>
        <time>2016-11-01T12:39:38.008Z</time>
      </trkpt>
      <trkpt lat="42.91985" lon="2.04637">
        <ele>488</ele>
        <time>2016-11-01T12:39:40.008Z</time>
      </trkpt>
      <trkpt lat="42.91979" lon="2.04635">
        <ele>487</ele>
        <time>2016-11-01T12:39:42.008Z</time>
      </trkpt>
      <trkpt lat="42.91973" lon="2.0463">
        <ele>487</ele>
        <time>2016-11-01T12:39:44.008Z</time>
      </trkpt>
      <trkpt lat="42.91968" lon="2.04626">
        <ele>487</ele>
        <time>2016-11-01T12:39:46.008Z</time>
      </trkpt>
      <trkpt lat="42.91962" lon="2.04621">
        <ele>487</ele>
        <time>2016-11-01T12:39:48.008Z</time>
      </trkpt>
      <trkpt lat="42.91956" lon="2.04615">
        <ele>487</ele>
        <time>2016-11-01T12:39:50.008Z</time>
      </trkpt>
      <trkpt lat="42.91949" lon="2.04607">
        <ele>486</ele>
        <time>2016-11-01T12:39:52.008Z</time>
      </trkpt>
      <trkpt lat="42.91942" lon="2.04598">
        <ele>486</ele>
        <time>2016-11-01T12:39:54.008Z</time>
      </trkpt>
      <trkpt lat="42.91936" lon="2.04588">
        <ele>486</ele>
        <time>2016-11-01T12:39:56.008Z</time>
      </trkpt>
      <trkpt lat="42.9193" lon="2.04577">
        <ele>486</ele>
        <time>2016-11-01T12:39:58.008Z</time>
      </trkpt>
      <trkpt lat="42.91925" lon="2.04566">
        <ele>486</ele>
        <time>2016-11-01T12:40:00.008Z</time>
      </trkpt>
      <trkpt lat="42.9192" lon="2.04556">
        <ele>486</ele>
        <time>2016-11-01T12:40:02.008Z</time>
      </trkpt>
      <trkpt lat="42.91913" lon="2.04547">
        <ele>486</ele>
        <time>2016-11-01T12:40:04.008Z</time>
      </trkpt>
      <trkpt lat="42.91905" lon="2.0454">
        <ele>486</ele>
        <time>2016-11-01T12:40:06.008Z</time>
      </trkpt>
      <trkpt lat="42.91896" lon="2.04534">
        <ele>486</ele>
        <time>2016-11-01T12:40:08.008Z</time>
      </trkpt>
      <trkpt lat="42.91887" lon="2.04529">
        <ele>486</ele>
        <time>2016-11-01T12:40:10.008Z</time>
      </trkpt>
      <trkpt lat="42.91879" lon="2.04524">
        <ele>486</ele>
        <time>2016-11-01T12:40:12.008Z</time>
      </trkpt>
      <trkpt lat="42.91871" lon="2.04518">
        <ele>486</ele>
        <time>2016-11-01T12:40:14.008Z</time>
      </trkpt>
      <trkpt lat="42.91862" lon="2.04514">
        <ele>486</ele>
        <time>2016-11-01T12:40:16.008Z</time>
      </trkpt>
      <trkpt lat="42.91853" lon="2.04512">
        <ele>486</ele>
        <time>2016-11-01T12:40:18.008Z</time>
      </trkpt>
      <trkpt lat="42.91843" lon="2.0451">
        <ele>486</ele>
        <time>2016-11-01T12:40:20.008Z</time>
      </trkpt>
      <trkpt lat="42.91838" lon="2.04509">
        <ele>485.7820032</ele>
        <time>2016-11-01T12:40:21.008Z</time>
      </trkpt>
      <trkpt lat="42.91833" lon="2.04508">
        <ele>485</ele>
        <time>2016-11-01T12:40:22.008Z</time>
      </trkpt>
      <trkpt lat="42.91828" lon="2.04508">
        <ele>485</ele>
        <time>2016-11-01T12:40:23.008Z</time>
      </trkpt>
      <trkpt lat="42.91818" lon="2.04507">
        <ele>485</ele>
        <time>2016-11-01T12:40:25.008Z</time>
      </trkpt>
      <trkpt lat="42.91808" lon="2.04507">
        <ele>485</ele>
        <time>2016-11-01T12:40:27.008Z</time>
      </trkpt>
      <trkpt lat="42.91798" lon="2.04507">
        <ele>485</ele>
        <time>2016-11-01T12:40:29.008Z</time>
      </trkpt>
      <trkpt lat="42.91789" lon="2.04509">
        <ele>485</ele>
        <time>2016-11-01T12:40:31.008Z</time>
      </trkpt>
      <trkpt lat="42.9178" lon="2.04511">
        <ele>485</ele>
        <time>2016-11-01T12:40:33.008Z</time>
      </trkpt>
      <trkpt lat="42.91772" lon="2.04515">
        <ele>485</ele>
        <time>2016-11-01T12:40:35.008Z</time>
      </trkpt>
      <trkpt lat="42.91765" lon="2.04519">
        <ele>485</ele>
        <time>2016-11-01T12:40:37.008Z</time>
      </trkpt>
      <trkpt lat="42.91758" lon="2.04525">
        <ele>485</ele>
        <time>2016-11-01T12:40:39.008Z</time>
      </trkpt>
      <trkpt lat="42.91753" lon="2.04536">
        <ele>485</ele>
        <time>2016-11-01T12:40:41.008Z</time>
      </trkpt>
      <trkpt lat="42.91748" lon="2.0455">
        <ele>485</ele>
        <time>2016-11-01T12:40:43.008Z</time>
      </trkpt>
      <trkpt lat="42.91743" lon="2.04563">
        <ele>485</ele>
        <time>2016-11-01T12:40:45.008Z</time>
      </trkpt>
      <trkpt lat="42.91739" lon="2.04576">
        <ele>485</ele>
        <time>2016-11-01T12:40:47.008Z</time>
      </trkpt>
      <trkpt lat="42.91734" lon="2.04589">
        <ele>485</ele>
        <time>2016-11-01T12:40:49.008Z</time>
      </trkpt>
      <trkpt lat="42.91732" lon="2.04595">
        <ele>485</ele>
        <time>2016-11-01T12:40:50.008Z</time>
      </trkpt>
      <trkpt lat="42.9173" lon="2.04602">
        <ele>485</ele>
        <time>2016-11-01T12:40:51.008Z</time>
      </trkpt>
      <trkpt lat="42.91727" lon="2.04608">
        <ele>485</ele>
        <time>2016-11-01T12:40:52.008Z</time>
      </trkpt>
      <trkpt lat="42.91725" lon="2.04614">
        <ele>485</ele>
        <time>2016-11-01T12:40:53.008Z</time>
      </trkpt>
      <trkpt lat="42.91723" lon="2.0462">
        <ele>485</ele>
        <time>2016-11-01T12:40:54.008Z</time>
      </trkpt>
      <trkpt lat="42.91721" lon="2.04625">
        <ele>485</ele>
        <time>2016-11-01T12:40:55.008Z</time>
      </trkpt>
      <trkpt lat="42.91719" lon="2.04631">
        <ele>485</ele>
        <time>2016-11-01T12:40:56.008Z</time>
      </trkpt>
      <trkpt lat="42.91718" lon="2.04636">
        <ele>485</ele>
        <time>2016-11-01T12:40:57.008Z</time>
      </trkpt>
      <trkpt lat="42.91716" lon="2.04641">
        <ele>485</ele>
        <time>2016-11-01T12:40:58.008Z</time>
      </trkpt>
      <trkpt lat="42.91714" lon="2.04645">
        <ele>485</ele>
        <time>2016-11-01T12:40:59.008Z</time>
      </trkpt>
      <trkpt lat="42.91712" lon="2.0465">
        <ele>485</ele>
        <time>2016-11-01T12:41:00.008Z</time>
      </trkpt>
      <trkpt lat="42.91711" lon="2.04655">
        <ele>485.8719872</ele>
        <time>2016-11-01T12:41:01.008Z</time>
      </trkpt>
      <trkpt lat="42.91709" lon="2.04659">
        <ele>489</ele>
        <time>2016-11-01T12:41:02.008Z</time>
      </trkpt>
      <trkpt lat="42.91708" lon="2.04669">
        <ele>489</ele>
        <time>2016-11-01T12:41:04.008Z</time>
      </trkpt>
      <trkpt lat="42.9171" lon="2.04679">
        <ele>489</ele>
        <time>2016-11-01T12:41:06.008Z</time>
      </trkpt>
      <trkpt lat="42.91712" lon="2.0469">
        <ele>489</ele>
        <time>2016-11-01T12:41:08.008Z</time>
      </trkpt>
      <trkpt lat="42.91713" lon="2.04702">
        <ele>489</ele>
        <time>2016-11-01T12:41:10.008Z</time>
      </trkpt>
      <trkpt lat="42.91713" lon="2.04714">
        <ele>489</ele>
        <time>2016-11-01T12:41:12.008Z</time>
      </trkpt>
      <trkpt lat="42.91714" lon="2.04727">
        <ele>489</ele>
        <time>2016-11-01T12:41:14.008Z</time>
      </trkpt>
      <trkpt lat="42.91715" lon="2.04735">
        <ele>489</ele>
        <time>2016-11-01T12:41:15.008Z</time>
      </trkpt>
      <trkpt lat="42.91715" lon="2.04743">
        <ele>489</ele>
        <time>2016-11-01T12:41:16.008Z</time>
      </trkpt>
      <trkpt lat="42.91715" lon="2.04751">
        <ele>489</ele>
        <time>2016-11-01T12:41:17.008Z</time>
      </trkpt>
      <trkpt lat="42.91715" lon="2.04759">
        <ele>489</ele>
        <time>2016-11-01T12:41:18.008Z</time>
      </trkpt>
      <trkpt lat="42.91715" lon="2.04767">
        <ele>489</ele>
        <time>2016-11-01T12:41:19.008Z</time>
      </trkpt>
      <trkpt lat="42.91715" lon="2.04776">
        <ele>489</ele>
        <time>2016-11-01T12:41:20.008Z</time>
      </trkpt>
      <trkpt lat="42.91714" lon="2.04785">
        <ele>488.7820032</ele>
        <time>2016-11-01T12:41:21.008Z</time>
      </trkpt>
      <trkpt lat="42.91712" lon="2.04796">
        <ele>488</ele>
        <time>2016-11-01T12:41:22.008Z</time>
      </trkpt>
      <trkpt lat="42.9171" lon="2.04807">
        <ele>488</ele>
        <time>2016-11-01T12:41:23.008Z</time>
      </trkpt>
      <trkpt lat="42.91707" lon="2.04818">
        <ele>488</ele>
        <time>2016-11-01T12:41:24.008Z</time>
      </trkpt>
      <trkpt lat="42.91704" lon="2.0483">
        <ele>488</ele>
        <time>2016-11-01T12:41:25.008Z</time>
      </trkpt>
      <trkpt lat="42.91701" lon="2.0484">
        <ele>488</ele>
        <time>2016-11-01T12:41:26.008Z</time>
      </trkpt>
      <trkpt lat="42.91698" lon="2.04851">
        <ele>488</ele>
        <time>2016-11-01T12:41:27.008Z</time>
      </trkpt>
      <trkpt lat="42.91695" lon="2.04861">
        <ele>488</ele>
        <time>2016-11-01T12:41:28.008Z</time>
      </trkpt>
      <trkpt lat="42.91692" lon="2.0487">
        <ele>488</ele>
        <time>2016-11-01T12:41:29.008Z</time>
      </trkpt>
      <trkpt lat="42.91689" lon="2.0488">
        <ele>488</ele>
        <time>2016-11-01T12:41:30.008Z</time>
      </trkpt>
      <trkpt lat="42.91686" lon="2.04889">
        <ele>487.1280128</ele>
        <time>2016-11-01T12:41:31.008Z</time>
      </trkpt>
      <trkpt lat="42.91684" lon="2.04897">
        <ele>484</ele>
        <time>2016-11-01T12:41:32.008Z</time>
      </trkpt>
      <trkpt lat="42.91681" lon="2.04904">
        <ele>484</ele>
        <time>2016-11-01T12:41:33.008Z</time>
      </trkpt>
      <trkpt lat="42.91678" lon="2.0491">
        <ele>484</ele>
        <time>2016-11-01T12:41:34.008Z</time>
      </trkpt>
      <trkpt lat="42.91674" lon="2.04915">
        <ele>484</ele>
        <time>2016-11-01T12:41:35.008Z</time>
      </trkpt>
      <trkpt lat="42.91666" lon="2.04918">
        <ele>483</ele>
        <time>2016-11-01T12:41:37.008Z</time>
      </trkpt>
      <trkpt lat="42.91657" lon="2.04917">
        <ele>483</ele>
        <time>2016-11-01T12:41:39.008Z</time>
      </trkpt>
      <trkpt lat="42.91649" lon="2.04915">
        <ele>483</ele>
        <time>2016-11-01T12:41:41.008Z</time>
      </trkpt>
      <trkpt lat="42.9164" lon="2.04913">
        <ele>483</ele>
        <time>2016-11-01T12:41:43.008Z</time>
      </trkpt>
      <trkpt lat="42.91632" lon="2.04913">
        <ele>483</ele>
        <time>2016-11-01T12:41:45.008Z</time>
      </trkpt>
      <trkpt lat="42.91622" lon="2.04913">
        <ele>483</ele>
        <time>2016-11-01T12:41:47.008Z</time>
      </trkpt>
      <trkpt lat="42.91612" lon="2.04914">
        <ele>483</ele>
        <time>2016-11-01T12:41:49.008Z</time>
      </trkpt>
      <trkpt lat="42.91603" lon="2.04916">
        <ele>483</ele>
        <time>2016-11-01T12:41:51.008Z</time>
      </trkpt>
      <trkpt lat="42.91593" lon="2.04918">
        <ele>483</ele>
        <time>2016-11-01T12:41:53.008Z</time>
      </trkpt>
      <trkpt lat="42.91583" lon="2.04921">
        <ele>483</ele>
        <time>2016-11-01T12:41:55.008Z</time>
      </trkpt>
      <trkpt lat="42.91574" lon="2.04924">
        <ele>483</ele>
        <time>2016-11-01T12:41:57.008Z</time>
      </trkpt>
      <trkpt lat="42.91567" lon="2.04931">
        <ele>483</ele>
        <time>2016-11-01T12:41:59.008Z</time>
      </trkpt>
      <trkpt lat="42.91564" lon="2.04944">
        <ele>482.7820032</ele>
        <time>2016-11-01T12:42:01.008Z</time>
      </trkpt>
      <trkpt lat="42.91563" lon="2.04957">
        <ele>482</ele>
        <time>2016-11-01T12:42:03.008Z</time>
      </trkpt>
      <trkpt lat="42.91563" lon="2.04967">
        <ele>482</ele>
        <time>2016-11-01T12:42:05.008Z</time>
      </trkpt>
      <trkpt lat="42.91562" lon="2.04977">
        <ele>482</ele>
        <time>2016-11-01T12:42:07.008Z</time>
      </trkpt>
      <trkpt lat="42.91561" lon="2.04987">
        <ele>482</ele>
        <time>2016-11-01T12:42:09.008Z</time>
      </trkpt>
      <trkpt lat="42.9156" lon="2.04996">
        <ele>482.2179968</ele>
        <time>2016-11-01T12:42:11.008Z</time>
      </trkpt>
      <trkpt lat="42.9156" lon="2.05005">
        <ele>483</ele>
        <time>2016-11-01T12:42:13.008Z</time>
      </trkpt>
      <trkpt lat="42.91559" lon="2.05012">
        <ele>483</ele>
        <time>2016-11-01T12:42:15.008Z</time>
      </trkpt>
      <trkpt lat="42.91563" lon="2.05018">
        <ele>483</ele>
        <time>2016-11-01T12:42:17.008Z</time>
      </trkpt>
      <trkpt lat="42.9157" lon="2.0502">
        <ele>483</ele>
        <time>2016-11-01T12:42:19.008Z</time>
      </trkpt>
      <trkpt lat="42.91573" lon="2.05019">
        <ele>483</ele>
        <time>2016-11-01T12:42:20.008Z</time>
      </trkpt>
      <trkpt lat="42.91577" lon="2.05019">
        <ele>483.2179968</ele>
        <time>2016-11-01T12:42:21.008Z</time>
      </trkpt>
      <trkpt lat="42.91581" lon="2.05018">
        <ele>484</ele>
        <time>2016-11-01T12:42:22.008Z</time>
      </trkpt>
      <trkpt lat="42.91585" lon="2.05018">
        <ele>484</ele>
        <time>2016-11-01T12:42:23.008Z</time>
      </trkpt>
      <trkpt lat="42.91589" lon="2.05017">
        <ele>484</ele>
        <time>2016-11-01T12:42:24.008Z</time>
      </trkpt>
      <trkpt lat="42.91593" lon="2.05017">
        <ele>484</ele>
        <time>2016-11-01T12:42:25.008Z</time>
      </trkpt>
      <trkpt lat="42.91597" lon="2.05016">
        <ele>484</ele>
        <time>2016-11-01T12:42:26.008Z</time>
      </trkpt>
      <trkpt lat="42.91601" lon="2.05016">
        <ele>484</ele>
        <time>2016-11-01T12:42:27.008Z</time>
      </trkpt>
      <trkpt lat="42.91606" lon="2.05017">
        <ele>484</ele>
        <time>2016-11-01T12:42:28.008Z</time>
      </trkpt>
      <trkpt lat="42.9161" lon="2.05018">
        <ele>484</ele>
        <time>2016-11-01T12:42:29.008Z</time>
      </trkpt>
      <trkpt lat="42.91614" lon="2.05018">
        <ele>484</ele>
        <time>2016-11-01T12:42:30.008Z</time>
      </trkpt>
      <trkpt lat="42.91618" lon="2.05019">
        <ele>483.7820032</ele>
        <time>2016-11-01T12:42:31.008Z</time>
      </trkpt>
      <trkpt lat="42.91623" lon="2.05019">
        <ele>483</ele>
        <time>2016-11-01T12:42:32.008Z</time>
      </trkpt>
      <trkpt lat="42.91627" lon="2.05019">
        <ele>483</ele>
        <time>2016-11-01T12:42:33.008Z</time>
      </trkpt>
      <trkpt lat="42.91631" lon="2.05018">
        <ele>483</ele>
        <time>2016-11-01T12:42:34.008Z</time>
      </trkpt>
      <trkpt lat="42.91635" lon="2.05017">
        <ele>483</ele>
        <time>2016-11-01T12:42:35.008Z</time>
      </trkpt>
      <trkpt lat="42.91643" lon="2.05014">
        <ele>483</ele>
        <time>2016-11-01T12:42:37.008Z</time>
      </trkpt>
      <trkpt lat="42.91648" lon="2.05012">
        <ele>483</ele>
        <time>2016-11-01T12:42:38.008Z</time>
      </trkpt>
      <trkpt lat="42.91652" lon="2.05011">
        <ele>483</ele>
        <time>2016-11-01T12:42:39.008Z</time>
      </trkpt>
      <trkpt lat="42.91656" lon="2.05009">
        <ele>483</ele>
        <time>2016-11-01T12:42:40.008Z</time>
      </trkpt>
      <trkpt lat="42.91661" lon="2.05007">
        <ele>483</ele>
        <time>2016-11-01T12:42:41.008Z</time>
      </trkpt>
      <trkpt lat="42.91665" lon="2.05006">
        <ele>483</ele>
        <time>2016-11-01T12:42:42.008Z</time>
      </trkpt>
      <trkpt lat="42.9167" lon="2.05004">
        <ele>483</ele>
        <time>2016-11-01T12:42:43.008Z</time>
      </trkpt>
      <trkpt lat="42.91674" lon="2.05003">
        <ele>483</ele>
        <time>2016-11-01T12:42:44.008Z</time>
      </trkpt>
      <trkpt lat="42.91679" lon="2.05001">
        <ele>483</ele>
        <time>2016-11-01T12:42:45.008Z</time>
      </trkpt>
      <trkpt lat="42.91684" lon="2.05">
        <ele>483</ele>
        <time>2016-11-01T12:42:46.008Z</time>
      </trkpt>
      <trkpt lat="42.91688" lon="2.04999">
        <ele>483</ele>
        <time>2016-11-01T12:42:47.008Z</time>
      </trkpt>
      <trkpt lat="42.91693" lon="2.04999">
        <ele>483</ele>
        <time>2016-11-01T12:42:48.008Z</time>
      </trkpt>
      <trkpt lat="42.91698" lon="2.04999">
        <ele>483</ele>
        <time>2016-11-01T12:42:49.008Z</time>
      </trkpt>
      <trkpt lat="42.91702" lon="2.04998">
        <ele>483</ele>
        <time>2016-11-01T12:42:50.008Z</time>
      </trkpt>
      <trkpt lat="42.91706" lon="2.04998">
        <ele>483.2179968</ele>
        <time>2016-11-01T12:42:51.008Z</time>
      </trkpt>
      <trkpt lat="42.91711" lon="2.04998">
        <ele>484</ele>
        <time>2016-11-01T12:42:52.008Z</time>
      </trkpt>
      <trkpt lat="42.91715" lon="2.04997">
        <ele>484</ele>
        <time>2016-11-01T12:42:53.008Z</time>
      </trkpt>
      <trkpt lat="42.91719" lon="2.04997">
        <ele>484</ele>
        <time>2016-11-01T12:42:54.008Z</time>
      </trkpt>
      <trkpt lat="42.91723" lon="2.04996">
        <ele>484</ele>
        <time>2016-11-01T12:42:55.008Z</time>
      </trkpt>
      <trkpt lat="42.91727" lon="2.04996">
        <ele>484</ele>
        <time>2016-11-01T12:42:56.008Z</time>
      </trkpt>
      <trkpt lat="42.91731" lon="2.04996">
        <ele>484</ele>
        <time>2016-11-01T12:42:57.008Z</time>
      </trkpt>
      <trkpt lat="42.91735" lon="2.04998">
        <ele>484</ele>
        <time>2016-11-01T12:42:58.008Z</time>
      </trkpt>
      <trkpt lat="42.91737" lon="2.05002">
        <ele>484</ele>
        <time>2016-11-01T12:42:59.008Z</time>
      </trkpt>
      <trkpt lat="42.91738" lon="2.05007">
        <ele>484</ele>
        <time>2016-11-01T12:43:00.008Z</time>
      </trkpt>
      <trkpt lat="42.91738" lon="2.05013">
        <ele>484.2179968</ele>
        <time>2016-11-01T12:43:01.008Z</time>
      </trkpt>
      <trkpt lat="42.91737" lon="2.05018">
        <ele>485</ele>
        <time>2016-11-01T12:43:02.008Z</time>
      </trkpt>
      <trkpt lat="42.91737" lon="2.05024">
        <ele>485</ele>
        <time>2016-11-01T12:43:03.008Z</time>
      </trkpt>
      <trkpt lat="42.91737" lon="2.0503">
        <ele>485</ele>
        <time>2016-11-01T12:43:04.008Z</time>
      </trkpt>
      <trkpt lat="42.91737" lon="2.05036">
        <ele>485</ele>
        <time>2016-11-01T12:43:05.008Z</time>
      </trkpt>
      <trkpt lat="42.91736" lon="2.05042">
        <ele>485</ele>
        <time>2016-11-01T12:43:06.008Z</time>
      </trkpt>
      <trkpt lat="42.91737" lon="2.05048">
        <ele>484.7820032</ele>
        <time>2016-11-01T12:43:07.008Z</time>
      </trkpt>
      <trkpt lat="42.91737" lon="2.05054">
        <ele>484</ele>
        <time>2016-11-01T12:43:08.008Z</time>
      </trkpt>
      <trkpt lat="42.91738" lon="2.05059">
        <ele>484</ele>
        <time>2016-11-01T12:43:09.008Z</time>
      </trkpt>
      <trkpt lat="42.91738" lon="2.05065">
        <ele>484</ele>
        <time>2016-11-01T12:43:10.008Z</time>
      </trkpt>
      <trkpt lat="42.91738" lon="2.0507">
        <ele>484</ele>
        <time>2016-11-01T12:43:11.008Z</time>
      </trkpt>
      <trkpt lat="42.91738" lon="2.05075">
        <ele>484</ele>
        <time>2016-11-01T12:43:12.008Z</time>
      </trkpt>
      <trkpt lat="42.91737" lon="2.0508">
        <ele>484</ele>
        <time>2016-11-01T12:43:13.008Z</time>
      </trkpt>
      <trkpt lat="42.91737" lon="2.05086">
        <ele>484</ele>
        <time>2016-11-01T12:43:14.008Z</time>
      </trkpt>
      <trkpt lat="42.91736" lon="2.05091">
        <ele>484</ele>
        <time>2016-11-01T12:43:15.008Z</time>
      </trkpt>
      <trkpt lat="42.91736" lon="2.05096">
        <ele>484</ele>
        <time>2016-11-01T12:43:16.008Z</time>
      </trkpt>
      <trkpt lat="42.91736" lon="2.05102">
        <ele>484</ele>
        <time>2016-11-01T12:43:17.008Z</time>
      </trkpt>
      <trkpt lat="42.91735" lon="2.05107">
        <ele>484</ele>
        <time>2016-11-01T12:43:18.008Z</time>
      </trkpt>
      <trkpt lat="42.91735" lon="2.05113">
        <ele>484</ele>
        <time>2016-11-01T12:43:19.008Z</time>
      </trkpt>
      <trkpt lat="42.91734" lon="2.05118">
        <ele>484</ele>
        <time>2016-11-01T12:43:20.008Z</time>
      </trkpt>
      <trkpt lat="42.91733" lon="2.05123">
        <ele>484</ele>
        <time>2016-11-01T12:43:21.008Z</time>
      </trkpt>
      <trkpt lat="42.91733" lon="2.05129">
        <ele>484</ele>
        <time>2016-11-01T12:43:22.008Z</time>
      </trkpt>
      <trkpt lat="42.91732" lon="2.05135">
        <ele>484</ele>
        <time>2016-11-01T12:43:23.008Z</time>
      </trkpt>
      <trkpt lat="42.91732" lon="2.0514">
        <ele>484</ele>
        <time>2016-11-01T12:43:24.008Z</time>
      </trkpt>
      <trkpt lat="42.91731" lon="2.05146">
        <ele>484</ele>
        <time>2016-11-01T12:43:25.008Z</time>
      </trkpt>
      <trkpt lat="42.9173" lon="2.05151">
        <ele>484</ele>
        <time>2016-11-01T12:43:26.008Z</time>
      </trkpt>
      <trkpt lat="42.9173" lon="2.05157">
        <ele>484</ele>
        <time>2016-11-01T12:43:27.008Z</time>
      </trkpt>
      <trkpt lat="42.91729" lon="2.05163">
        <ele>484</ele>
        <time>2016-11-01T12:43:28.008Z</time>
      </trkpt>
      <trkpt lat="42.91729" lon="2.05168">
        <ele>484</ele>
        <time>2016-11-01T12:43:29.008Z</time>
      </trkpt>
      <trkpt lat="42.91728" lon="2.05174">
        <ele>484</ele>
        <time>2016-11-01T12:43:30.008Z</time>
      </trkpt>
      <trkpt lat="42.91727" lon="2.0518">
        <ele>484</ele>
        <time>2016-11-01T12:43:31.008Z</time>
      </trkpt>
      <trkpt lat="42.91727" lon="2.05186">
        <ele>484</ele>
        <time>2016-11-01T12:43:32.008Z</time>
      </trkpt>
      <trkpt lat="42.91726" lon="2.05192">
        <ele>484</ele>
        <time>2016-11-01T12:43:33.008Z</time>
      </trkpt>
      <trkpt lat="42.91725" lon="2.05198">
        <ele>484</ele>
        <time>2016-11-01T12:43:34.008Z</time>
      </trkpt>
      <trkpt lat="42.91725" lon="2.05204">
        <ele>484</ele>
        <time>2016-11-01T12:43:35.008Z</time>
      </trkpt>
      <trkpt lat="42.91724" lon="2.05209">
        <ele>484</ele>
        <time>2016-11-01T12:43:36.008Z</time>
      </trkpt>
      <trkpt lat="42.91723" lon="2.05215">
        <ele>484</ele>
        <time>2016-11-01T12:43:37.008Z</time>
      </trkpt>
      <trkpt lat="42.91722" lon="2.05221">
        <ele>484</ele>
        <time>2016-11-01T12:43:38.008Z</time>
      </trkpt>
      <trkpt lat="42.91722" lon="2.05227">
        <ele>484</ele>
        <time>2016-11-01T12:43:39.008Z</time>
      </trkpt>
      <trkpt lat="42.91721" lon="2.05232">
        <ele>483.7820032</ele>
        <time>2016-11-01T12:43:40.008Z</time>
      </trkpt>
      <trkpt lat="42.9172" lon="2.05238">
        <ele>483.2179968</ele>
        <time>2016-11-01T12:43:41.008Z</time>
      </trkpt>
      <trkpt lat="42.9172" lon="2.05244">
        <ele>484</ele>
        <time>2016-11-01T12:43:42.008Z</time>
      </trkpt>
      <trkpt lat="42.9172" lon="2.05249">
        <ele>484</ele>
        <time>2016-11-01T12:43:43.008Z</time>
      </trkpt>
      <trkpt lat="42.9172" lon="2.05255">
        <ele>484</ele>
        <time>2016-11-01T12:43:44.008Z</time>
      </trkpt>
      <trkpt lat="42.9172" lon="2.0526">
        <ele>484</ele>
        <time>2016-11-01T12:43:45.008Z</time>
      </trkpt>
      <trkpt lat="42.9172" lon="2.05265">
        <ele>484</ele>
        <time>2016-11-01T12:43:46.008Z</time>
      </trkpt>
      <trkpt lat="42.91719" lon="2.0527">
        <ele>484</ele>
        <time>2016-11-01T12:43:47.008Z</time>
      </trkpt>
      <trkpt lat="42.91719" lon="2.05276">
        <ele>484</ele>
        <time>2016-11-01T12:43:48.008Z</time>
      </trkpt>
      <trkpt lat="42.91719" lon="2.05281">
        <ele>484</ele>
        <time>2016-11-01T12:43:49.008Z</time>
      </trkpt>
      <trkpt lat="42.91719" lon="2.05286">
        <ele>484</ele>
        <time>2016-11-01T12:43:50.008Z</time>
      </trkpt>
      <trkpt lat="42.91719" lon="2.05291">
        <ele>484.2179968</ele>
        <time>2016-11-01T12:43:51.008Z</time>
      </trkpt>
      <trkpt lat="42.91719" lon="2.05296">
        <ele>485</ele>
        <time>2016-11-01T12:43:52.008Z</time>
      </trkpt>
      <trkpt lat="42.91719" lon="2.05301">
        <ele>485</ele>
        <time>2016-11-01T12:43:53.008Z</time>
      </trkpt>
      <trkpt lat="42.91719" lon="2.05306">
        <ele>485</ele>
        <time>2016-11-01T12:43:54.008Z</time>
      </trkpt>
      <trkpt lat="42.9172" lon="2.05312">
        <ele>485</ele>
        <time>2016-11-01T12:43:55.008Z</time>
      </trkpt>
      <trkpt lat="42.9172" lon="2.05317">
        <ele>485</ele>
        <time>2016-11-01T12:43:56.008Z</time>
      </trkpt>
      <trkpt lat="42.91721" lon="2.05323">
        <ele>485</ele>
        <time>2016-11-01T12:43:57.008Z</time>
      </trkpt>
      <trkpt lat="42.91721" lon="2.05328">
        <ele>485</ele>
        <time>2016-11-01T12:43:58.008Z</time>
      </trkpt>
      <trkpt lat="42.91722" lon="2.05334">
        <ele>485</ele>
        <time>2016-11-01T12:43:59.008Z</time>
      </trkpt>
      <trkpt lat="42.91723" lon="2.05339">
        <ele>485</ele>
        <time>2016-11-01T12:44:00.008Z</time>
      </trkpt>
      <trkpt lat="42.91723" lon="2.05344">
        <ele>485</ele>
        <time>2016-11-01T12:44:01.008Z</time>
      </trkpt>
      <trkpt lat="42.91724" lon="2.0535">
        <ele>485</ele>
        <time>2016-11-01T12:44:02.008Z</time>
      </trkpt>
      <trkpt lat="42.91725" lon="2.05356">
        <ele>485</ele>
        <time>2016-11-01T12:44:03.008Z</time>
      </trkpt>
      <trkpt lat="42.91726" lon="2.05361">
        <ele>485</ele>
        <time>2016-11-01T12:44:04.008Z</time>
      </trkpt>
      <trkpt lat="42.91727" lon="2.05367">
        <ele>485</ele>
        <time>2016-11-01T12:44:05.008Z</time>
      </trkpt>
      <trkpt lat="42.91728" lon="2.05373">
        <ele>484.7820032</ele>
        <time>2016-11-01T12:44:06.008Z</time>
      </trkpt>
      <trkpt lat="42.91729" lon="2.05379">
        <ele>484</ele>
        <time>2016-11-01T12:44:07.008Z</time>
      </trkpt>
      <trkpt lat="42.9173" lon="2.05384">
        <ele>484</ele>
        <time>2016-11-01T12:44:08.008Z</time>
      </trkpt>
      <trkpt lat="42.91732" lon="2.0539">
        <ele>484</ele>
        <time>2016-11-01T12:44:09.008Z</time>
      </trkpt>
      <trkpt lat="42.91733" lon="2.05396">
        <ele>484</ele>
        <time>2016-11-01T12:44:10.008Z</time>
      </trkpt>
      <trkpt lat="42.91735" lon="2.05402">
        <ele>484</ele>
        <time>2016-11-01T12:44:11.008Z</time>
      </trkpt>
      <trkpt lat="42.91736" lon="2.05408">
        <ele>484</ele>
        <time>2016-11-01T12:44:12.008Z</time>
      </trkpt>
      <trkpt lat="42.91737" lon="2.05413">
        <ele>484</ele>
        <time>2016-11-01T12:44:13.008Z</time>
      </trkpt>
      <trkpt lat="42.91738" lon="2.05419">
        <ele>484</ele>
        <time>2016-11-01T12:44:14.008Z</time>
      </trkpt>
      <trkpt lat="42.9174" lon="2.05425">
        <ele>484</ele>
        <time>2016-11-01T12:44:15.008Z</time>
      </trkpt>
      <trkpt lat="42.91741" lon="2.0543">
        <ele>484</ele>
        <time>2016-11-01T12:44:16.008Z</time>
      </trkpt>
      <trkpt lat="42.91742" lon="2.05435">
        <ele>484</ele>
        <time>2016-11-01T12:44:17.008Z</time>
      </trkpt>
      <trkpt lat="42.91744" lon="2.05441">
        <ele>484</ele>
        <time>2016-11-01T12:44:18.008Z</time>
      </trkpt>
      <trkpt lat="42.91745" lon="2.05446">
        <ele>484</ele>
        <time>2016-11-01T12:44:19.008Z</time>
      </trkpt>
      <trkpt lat="42.91746" lon="2.05451">
        <ele>484</ele>
        <time>2016-11-01T12:44:20.008Z</time>
      </trkpt>
      <trkpt lat="42.91747" lon="2.05457">
        <ele>484</ele>
        <time>2016-11-01T12:44:21.008Z</time>
      </trkpt>
      <trkpt lat="42.91749" lon="2.05462">
        <ele>484</ele>
        <time>2016-11-01T12:44:22.008Z</time>
      </trkpt>
      <trkpt lat="42.9175" lon="2.05467">
        <ele>484</ele>
        <time>2016-11-01T12:44:23.008Z</time>
      </trkpt>
      <trkpt lat="42.91751" lon="2.05472">
        <ele>484</ele>
        <time>2016-11-01T12:44:24.008Z</time>
      </trkpt>
      <trkpt lat="42.91752" lon="2.05477">
        <ele>484</ele>
        <time>2016-11-01T12:44:25.008Z</time>
      </trkpt>
      <trkpt lat="42.91753" lon="2.05482">
        <ele>484</ele>
        <time>2016-11-01T12:44:26.008Z</time>
      </trkpt>
      <trkpt lat="42.91755" lon="2.05487">
        <ele>484</ele>
        <time>2016-11-01T12:44:27.008Z</time>
      </trkpt>
      <trkpt lat="42.91756" lon="2.05492">
        <ele>484</ele>
        <time>2016-11-01T12:44:28.008Z</time>
      </trkpt>
      <trkpt lat="42.91757" lon="2.05497">
        <ele>484</ele>
        <time>2016-11-01T12:44:29.008Z</time>
      </trkpt>
      <trkpt lat="42.91758" lon="2.05502">
        <ele>484</ele>
        <time>2016-11-01T12:44:30.008Z</time>
      </trkpt>
      <trkpt lat="42.9176" lon="2.05507">
        <ele>484.21372369395</ele>
        <time>2016-11-01T12:44:31.008Z</time>
      </trkpt>
      <trkpt lat="42.91761" lon="2.05512">
        <ele>485</ele>
        <time>2016-11-01T12:44:32.008Z</time>
      </trkpt>
      <trkpt lat="42.91762" lon="2.05517">
        <ele>485</ele>
        <time>2016-11-01T12:44:33.008Z</time>
      </trkpt>
      <trkpt lat="42.91764" lon="2.05522">
        <ele>485</ele>
        <time>2016-11-01T12:44:34.008Z</time>
      </trkpt>
      <trkpt lat="42.91765" lon="2.05527">
        <ele>485</ele>
        <time>2016-11-01T12:44:35.008Z</time>
      </trkpt>
      <trkpt lat="42.91766" lon="2.05532">
        <ele>485</ele>
        <time>2016-11-01T12:44:36.008Z</time>
      </trkpt>
      <trkpt lat="42.91767" lon="2.05537">
        <ele>485</ele>
        <time>2016-11-01T12:44:37.008Z</time>
      </trkpt>
      <trkpt lat="42.91769" lon="2.05542">
        <ele>485</ele>
        <time>2016-11-01T12:44:38.008Z</time>
      </trkpt>
      <trkpt lat="42.9177" lon="2.05548">
        <ele>485</ele>
        <time>2016-11-01T12:44:39.008Z</time>
      </trkpt>
      <trkpt lat="42.91771" lon="2.05553">
        <ele>485</ele>
        <time>2016-11-01T12:44:40.008Z</time>
      </trkpt>
      <trkpt lat="42.91773" lon="2.05559">
        <ele>485</ele>
        <time>2016-11-01T12:44:41.008Z</time>
      </trkpt>
      <trkpt lat="42.91775" lon="2.05564">
        <ele>485</ele>
        <time>2016-11-01T12:44:42.008Z</time>
      </trkpt>
      <trkpt lat="42.91776" lon="2.05569">
        <ele>485</ele>
        <time>2016-11-01T12:44:43.008Z</time>
      </trkpt>
      <trkpt lat="42.91777" lon="2.05575">
        <ele>485</ele>
        <time>2016-11-01T12:44:44.008Z</time>
      </trkpt>
      <trkpt lat="42.91779" lon="2.0558">
        <ele>485</ele>
        <time>2016-11-01T12:44:45.008Z</time>
      </trkpt>
      <trkpt lat="42.9178" lon="2.05585">
        <ele>484.7820032</ele>
        <time>2016-11-01T12:44:46.008Z</time>
      </trkpt>
      <trkpt lat="42.91782" lon="2.0559">
        <ele>484</ele>
        <time>2016-11-01T12:44:47.008Z</time>
      </trkpt>
      <trkpt lat="42.91783" lon="2.05596">
        <ele>484</ele>
        <time>2016-11-01T12:44:48.008Z</time>
      </trkpt>
      <trkpt lat="42.91784" lon="2.05601">
        <ele>484</ele>
        <time>2016-11-01T12:44:49.008Z</time>
      </trkpt>
      <trkpt lat="42.91785" lon="2.05606">
        <ele>484</ele>
        <time>2016-11-01T12:44:50.008Z</time>
      </trkpt>
      <trkpt lat="42.91787" lon="2.05611">
        <ele>484</ele>
        <time>2016-11-01T12:44:51.008Z</time>
      </trkpt>
      <trkpt lat="42.91788" lon="2.05616">
        <ele>484</ele>
        <time>2016-11-01T12:44:52.008Z</time>
      </trkpt>
      <trkpt lat="42.91789" lon="2.05621">
        <ele>484</ele>
        <time>2016-11-01T12:44:53.008Z</time>
      </trkpt>
      <trkpt lat="42.9179" lon="2.05626">
        <ele>484</ele>
        <time>2016-11-01T12:44:54.008Z</time>
      </trkpt>
      <trkpt lat="42.91792" lon="2.05632">
        <ele>484</ele>
        <time>2016-11-01T12:44:55.008Z</time>
      </trkpt>
      <trkpt lat="42.91793" lon="2.05637">
        <ele>484</ele>
        <time>2016-11-01T12:44:56.008Z</time>
      </trkpt>
      <trkpt lat="42.91794" lon="2.05642">
        <ele>484</ele>
        <time>2016-11-01T12:44:57.008Z</time>
      </trkpt>
      <trkpt lat="42.91795" lon="2.05648">
        <ele>484</ele>
        <time>2016-11-01T12:44:58.008Z</time>
      </trkpt>
      <trkpt lat="42.91796" lon="2.05653">
        <ele>484</ele>
        <time>2016-11-01T12:44:59.008Z</time>
      </trkpt>
      <trkpt lat="42.91797" lon="2.05658">
        <ele>484</ele>
        <time>2016-11-01T12:45:00.008Z</time>
      </trkpt>
      <trkpt lat="42.91799" lon="2.05663">
        <ele>484.4359936</ele>
        <time>2016-11-01T12:45:01.008Z</time>
      </trkpt>
      <trkpt lat="42.918" lon="2.05669">
        <ele>486</ele>
        <time>2016-11-01T12:45:02.008Z</time>
      </trkpt>
      <trkpt lat="42.91801" lon="2.05674">
        <ele>486</ele>
        <time>2016-11-01T12:45:03.008Z</time>
      </trkpt>
      <trkpt lat="42.91802" lon="2.0568">
        <ele>486</ele>
        <time>2016-11-01T12:45:04.008Z</time>
      </trkpt>
      <trkpt lat="42.91803" lon="2.05685">
        <ele>486</ele>
        <time>2016-11-01T12:45:05.008Z</time>
      </trkpt>
      <trkpt lat="42.91804" lon="2.0569">
        <ele>486</ele>
        <time>2016-11-01T12:45:06.008Z</time>
      </trkpt>
      <trkpt lat="42.91804" lon="2.05696">
        <ele>486</ele>
        <time>2016-11-01T12:45:07.008Z</time>
      </trkpt>
      <trkpt lat="42.91805" lon="2.05701">
        <ele>486</ele>
        <time>2016-11-01T12:45:08.008Z</time>
      </trkpt>
      <trkpt lat="42.91806" lon="2.05707">
        <ele>486</ele>
        <time>2016-11-01T12:45:09.008Z</time>
      </trkpt>
      <trkpt lat="42.91807" lon="2.05712">
        <ele>486</ele>
        <time>2016-11-01T12:45:10.008Z</time>
      </trkpt>
      <trkpt lat="42.91808" lon="2.05717">
        <ele>486.2179968</ele>
        <time>2016-11-01T12:45:11.008Z</time>
      </trkpt>
      <trkpt lat="42.9181" lon="2.05723">
        <ele>487</ele>
        <time>2016-11-01T12:45:12.008Z</time>
      </trkpt>
      <trkpt lat="42.91811" lon="2.05728">
        <ele>487</ele>
        <time>2016-11-01T12:45:13.008Z</time>
      </trkpt>
      <trkpt lat="42.91812" lon="2.05733">
        <ele>487</ele>
        <time>2016-11-01T12:45:14.008Z</time>
      </trkpt>
      <trkpt lat="42.91813" lon="2.05738">
        <ele>487</ele>
        <time>2016-11-01T12:45:15.008Z</time>
      </trkpt>
      <trkpt lat="42.91814" lon="2.05743">
        <ele>487</ele>
        <time>2016-11-01T12:45:16.008Z</time>
      </trkpt>
      <trkpt lat="42.91816" lon="2.05748">
        <ele>487</ele>
        <time>2016-11-01T12:45:17.008Z</time>
      </trkpt>
      <trkpt lat="42.91817" lon="2.05753">
        <ele>487</ele>
        <time>2016-11-01T12:45:18.008Z</time>
      </trkpt>
      <trkpt lat="42.91818" lon="2.05757">
        <ele>487</ele>
        <time>2016-11-01T12:45:19.008Z</time>
      </trkpt>
      <trkpt lat="42.9182" lon="2.05762">
        <ele>487</ele>
        <time>2016-11-01T12:45:20.008Z</time>
      </trkpt>
      <trkpt lat="42.91821" lon="2.05767">
        <ele>487.21010033099</ele>
        <time>2016-11-01T12:45:21.008Z</time>
      </trkpt>
      <trkpt lat="42.91822" lon="2.05771">
        <ele>488</ele>
        <time>2016-11-01T12:45:22.008Z</time>
      </trkpt>
      <trkpt lat="42.91823" lon="2.05776">
        <ele>488</ele>
        <time>2016-11-01T12:45:23.008Z</time>
      </trkpt>
      <trkpt lat="42.91824" lon="2.05781">
        <ele>488</ele>
        <time>2016-11-01T12:45:24.008Z</time>
      </trkpt>
      <trkpt lat="42.91825" lon="2.05785">
        <ele>488</ele>
        <time>2016-11-01T12:45:25.008Z</time>
      </trkpt>
      <trkpt lat="42.91826" lon="2.0579">
        <ele>488</ele>
        <time>2016-11-01T12:45:26.008Z</time>
      </trkpt>
      <trkpt lat="42.91827" lon="2.05795">
        <ele>488</ele>
        <time>2016-11-01T12:45:27.008Z</time>
      </trkpt>
      <trkpt lat="42.91828" lon="2.05799">
        <ele>488</ele>
        <time>2016-11-01T12:45:28.008Z</time>
      </trkpt>
      <trkpt lat="42.91829" lon="2.05804">
        <ele>488</ele>
        <time>2016-11-01T12:45:29.008Z</time>
      </trkpt>
      <trkpt lat="42.91831" lon="2.05812">
        <ele>487.4359936</ele>
        <time>2016-11-01T12:45:31.008Z</time>
      </trkpt>
      <trkpt lat="42.91833" lon="2.05821">
        <ele>489</ele>
        <time>2016-11-01T12:45:33.008Z</time>
      </trkpt>
      <trkpt lat="42.91835" lon="2.05826">
        <ele>489</ele>
        <time>2016-11-01T12:45:34.008Z</time>
      </trkpt>
      <trkpt lat="42.91836" lon="2.0583">
        <ele>489</ele>
        <time>2016-11-01T12:45:35.008Z</time>
      </trkpt>
      <trkpt lat="42.91838" lon="2.05838">
        <ele>489</ele>
        <time>2016-11-01T12:45:37.008Z</time>
      </trkpt>
      <trkpt lat="42.91839" lon="2.05843">
        <ele>489</ele>
        <time>2016-11-01T12:45:38.008Z</time>
      </trkpt>
      <trkpt lat="42.91841" lon="2.05851">
        <ele>489</ele>
        <time>2016-11-01T12:45:40.008Z</time>
      </trkpt>
      <trkpt lat="42.91843" lon="2.05858">
        <ele>492</ele>
        <time>2016-11-01T12:45:42.008Z</time>
      </trkpt>
      <trkpt lat="42.91844" lon="2.05862">
        <ele>492</ele>
        <time>2016-11-01T12:45:43.008Z</time>
      </trkpt>
      <trkpt lat="42.91846" lon="2.0587">
        <ele>492</ele>
        <time>2016-11-01T12:45:45.008Z</time>
      </trkpt>
      <trkpt lat="42.91847" lon="2.05878">
        <ele>493</ele>
        <time>2016-11-01T12:45:47.008Z</time>
      </trkpt>
      <trkpt lat="42.91849" lon="2.05885">
        <ele>493</ele>
        <time>2016-11-01T12:45:49.008Z</time>
      </trkpt>
      <trkpt lat="42.9185" lon="2.05893">
        <ele>493.2179968</ele>
        <time>2016-11-01T12:45:51.008Z</time>
      </trkpt>
      <trkpt lat="42.91852" lon="2.05901">
        <ele>494</ele>
        <time>2016-11-01T12:45:53.008Z</time>
      </trkpt>
      <trkpt lat="42.91853" lon="2.0591">
        <ele>494</ele>
        <time>2016-11-01T12:45:55.008Z</time>
      </trkpt>
      <trkpt lat="42.91854" lon="2.05918">
        <ele>496</ele>
        <time>2016-11-01T12:45:57.008Z</time>
      </trkpt>
      <trkpt lat="42.91856" lon="2.05927">
        <ele>496</ele>
        <time>2016-11-01T12:45:59.008Z</time>
      </trkpt>
      <trkpt lat="42.91857" lon="2.05935">
        <ele>496.2179968</ele>
        <time>2016-11-01T12:46:01.008Z</time>
      </trkpt>
      <trkpt lat="42.91859" lon="2.05943">
        <ele>497</ele>
        <time>2016-11-01T12:46:03.008Z</time>
      </trkpt>
      <trkpt lat="42.9186" lon="2.05952">
        <ele>497</ele>
        <time>2016-11-01T12:46:05.008Z</time>
      </trkpt>
      <trkpt lat="42.91862" lon="2.0596">
        <ele>497</ele>
        <time>2016-11-01T12:46:07.008Z</time>
      </trkpt>
      <trkpt lat="42.91863" lon="2.05968">
        <ele>497</ele>
        <time>2016-11-01T12:46:09.008Z</time>
      </trkpt>
      <trkpt lat="42.91865" lon="2.05977">
        <ele>497.2179968</ele>
        <time>2016-11-01T12:46:11.008Z</time>
      </trkpt>
      <trkpt lat="42.91866" lon="2.05986">
        <ele>498</ele>
        <time>2016-11-01T12:46:13.008Z</time>
      </trkpt>
      <trkpt lat="42.91867" lon="2.05995">
        <ele>498</ele>
        <time>2016-11-01T12:46:15.008Z</time>
      </trkpt>
      <trkpt lat="42.91869" lon="2.06004">
        <ele>498</ele>
        <time>2016-11-01T12:46:17.008Z</time>
      </trkpt>
      <trkpt lat="42.9187" lon="2.06012">
        <ele>498</ele>
        <time>2016-11-01T12:46:19.008Z</time>
      </trkpt>
      <trkpt lat="42.91872" lon="2.06021">
        <ele>498.4359936</ele>
        <time>2016-11-01T12:46:21.008Z</time>
      </trkpt>
      <trkpt lat="42.91873" lon="2.06029">
        <ele>500</ele>
        <time>2016-11-01T12:46:23.008Z</time>
      </trkpt>
      <trkpt lat="42.91875" lon="2.06037">
        <ele>500</ele>
        <time>2016-11-01T12:46:25.008Z</time>
      </trkpt>
      <trkpt lat="42.91876" lon="2.06045">
        <ele>500</ele>
        <time>2016-11-01T12:46:27.008Z</time>
      </trkpt>
      <trkpt lat="42.91877" lon="2.06053">
        <ele>500</ele>
        <time>2016-11-01T12:46:29.008Z</time>
      </trkpt>
      <trkpt lat="42.91878" lon="2.0606">
        <ele>500.2179968</ele>
        <time>2016-11-01T12:46:31.008Z</time>
      </trkpt>
      <trkpt lat="42.9188" lon="2.06067">
        <ele>501</ele>
        <time>2016-11-01T12:46:33.008Z</time>
      </trkpt>
      <trkpt lat="42.91881" lon="2.06075">
        <ele>501</ele>
        <time>2016-11-01T12:46:35.008Z</time>
      </trkpt>
      <trkpt lat="42.91882" lon="2.06082">
        <ele>501</ele>
        <time>2016-11-01T12:46:37.008Z</time>
      </trkpt>
      <trkpt lat="42.91883" lon="2.06089">
        <ele>501</ele>
        <time>2016-11-01T12:46:39.008Z</time>
      </trkpt>
      <trkpt lat="42.91889" lon="2.06083">
        <ele>503</ele>
        <time>2016-11-01T12:46:45.008Z</time>
      </trkpt>
      <trkpt lat="42.9189" lon="2.06075">
        <ele>503</ele>
        <time>2016-11-01T12:46:48.008Z</time>
      </trkpt>
      <trkpt lat="42.9189" lon="2.06068">
        <ele>503</ele>
        <time>2016-11-01T12:46:50.008Z</time>
      </trkpt>
      <trkpt lat="42.91891" lon="2.06061">
        <ele>506</ele>
        <time>2016-11-01T12:46:52.008Z</time>
      </trkpt>
      <trkpt lat="42.91892" lon="2.06054">
        <ele>506</ele>
        <time>2016-11-01T12:46:54.008Z</time>
      </trkpt>
      <trkpt lat="42.91892" lon="2.06047">
        <ele>506</ele>
        <time>2016-11-01T12:46:56.008Z</time>
      </trkpt>
      <trkpt lat="42.91892" lon="2.0604">
        <ele>506</ele>
        <time>2016-11-01T12:46:58.008Z</time>
      </trkpt>
      <trkpt lat="42.91892" lon="2.06033">
        <ele>506</ele>
        <time>2016-11-01T12:47:00.008Z</time>
      </trkpt>
      <trkpt lat="42.91891" lon="2.06024">
        <ele>508</ele>
        <time>2016-11-01T12:47:03.008Z</time>
      </trkpt>
      <trkpt lat="42.91894" lon="2.0602">
        <ele>508</ele>
        <time>2016-11-01T12:47:07.008Z</time>
      </trkpt>
      <trkpt lat="42.91898" lon="2.06022">
        <ele>509</ele>
        <time>2016-11-01T12:47:52.008Z</time>
      </trkpt>
      <trkpt lat="42.91899" lon="2.06026">
        <ele>509</ele>
        <time>2016-11-01T12:47:54.008Z</time>
      </trkpt>
      <trkpt lat="42.919" lon="2.06033">
        <ele>509</ele>
        <time>2016-11-01T12:47:56.008Z</time>
      </trkpt>
      <trkpt lat="42.91902" lon="2.06039">
        <ele>509</ele>
        <time>2016-11-01T12:47:58.008Z</time>
      </trkpt>
      <trkpt lat="42.91906" lon="2.06043">
        <ele>509</ele>
        <time>2016-11-01T12:48:00.008Z</time>
      </trkpt>
      <trkpt lat="42.9191" lon="2.06042">
        <ele>510</ele>
        <time>2016-11-01T12:48:02.008Z</time>
      </trkpt>
      <trkpt lat="42.91913" lon="2.06037">
        <ele>510</ele>
        <time>2016-11-01T12:48:04.008Z</time>
      </trkpt>
      <trkpt lat="42.91915" lon="2.06029">
        <ele>510</ele>
        <time>2016-11-01T12:48:07.008Z</time>
      </trkpt>
      <trkpt lat="42.91917" lon="2.0602">
        <ele>510</ele>
        <time>2016-11-01T12:48:10.008Z</time>
      </trkpt>
      <trkpt lat="42.91918" lon="2.06014">
        <ele>513</ele>
        <time>2016-11-01T12:48:12.008Z</time>
      </trkpt>
      <trkpt lat="42.91919" lon="2.06008">
        <ele>513</ele>
        <time>2016-11-01T12:48:14.008Z</time>
      </trkpt>
      <trkpt lat="42.91922" lon="2.05999">
        <ele>516</ele>
        <time>2016-11-01T12:48:17.008Z</time>
      </trkpt>
      <trkpt lat="42.91924" lon="2.05989">
        <ele>516</ele>
        <time>2016-11-01T12:48:20.008Z</time>
      </trkpt>
      <trkpt lat="42.91926" lon="2.05983">
        <ele>518</ele>
        <time>2016-11-01T12:48:22.008Z</time>
      </trkpt>
      <trkpt lat="42.91928" lon="2.05977">
        <ele>518</ele>
        <time>2016-11-01T12:48:24.008Z</time>
      </trkpt>
      <trkpt lat="42.91929" lon="2.05971">
        <ele>518.4359936</ele>
        <time>2016-11-01T12:48:26.008Z</time>
      </trkpt>
      <trkpt lat="42.91931" lon="2.05964">
        <ele>520</ele>
        <time>2016-11-01T12:48:28.008Z</time>
      </trkpt>
      <trkpt lat="42.91932" lon="2.05958">
        <ele>520</ele>
        <time>2016-11-01T12:48:30.008Z</time>
      </trkpt>
      <trkpt lat="42.91933" lon="2.05951">
        <ele>522</ele>
        <time>2016-11-01T12:48:32.008Z</time>
      </trkpt>
      <trkpt lat="42.91934" lon="2.05944">
        <ele>522</ele>
        <time>2016-11-01T12:48:34.008Z</time>
      </trkpt>
      <trkpt lat="42.91935" lon="2.05938">
        <ele>522.2179968</ele>
        <time>2016-11-01T12:48:36.008Z</time>
      </trkpt>
      <trkpt lat="42.91936" lon="2.05931">
        <ele>523</ele>
        <time>2016-11-01T12:48:38.008Z</time>
      </trkpt>
      <trkpt lat="42.91937" lon="2.05925">
        <ele>523</ele>
        <time>2016-11-01T12:48:40.008Z</time>
      </trkpt>
      <trkpt lat="42.91938" lon="2.05918">
        <ele>525</ele>
        <time>2016-11-01T12:48:42.008Z</time>
      </trkpt>
      <trkpt lat="42.91939" lon="2.05912">
        <ele>525</ele>
        <time>2016-11-01T12:48:44.008Z</time>
      </trkpt>
      <trkpt lat="42.91939" lon="2.05905">
        <ele>525.4359936</ele>
        <time>2016-11-01T12:48:46.008Z</time>
      </trkpt>
      <trkpt lat="42.9194" lon="2.05898">
        <ele>527</ele>
        <time>2016-11-01T12:48:48.008Z</time>
      </trkpt>
      <trkpt lat="42.91941" lon="2.05892">
        <ele>527</ele>
        <time>2016-11-01T12:48:50.008Z</time>
      </trkpt>
      <trkpt lat="42.91942" lon="2.05885">
        <ele>529</ele>
        <time>2016-11-01T12:48:52.008Z</time>
      </trkpt>
      <trkpt lat="42.91943" lon="2.05878">
        <ele>529</ele>
        <time>2016-11-01T12:48:54.008Z</time>
      </trkpt>
      <trkpt lat="42.91945" lon="2.05872">
        <ele>529.2179968</ele>
        <time>2016-11-01T12:48:56.008Z</time>
      </trkpt>
      <trkpt lat="42.91947" lon="2.05862">
        <ele>530</ele>
        <time>2016-11-01T12:48:59.008Z</time>
      </trkpt>
      <trkpt lat="42.91949" lon="2.05853">
        <ele>532</ele>
        <time>2016-11-01T12:49:02.008Z</time>
      </trkpt>
      <trkpt lat="42.91951" lon="2.05847">
        <ele>532</ele>
        <time>2016-11-01T12:49:04.008Z</time>
      </trkpt>
      <trkpt lat="42.91952" lon="2.05841">
        <ele>532.4359936</ele>
        <time>2016-11-01T12:49:06.008Z</time>
      </trkpt>
      <trkpt lat="42.91954" lon="2.05835">
        <ele>534</ele>
        <time>2016-11-01T12:49:08.008Z</time>
      </trkpt>
      <trkpt lat="42.91955" lon="2.05828">
        <ele>534</ele>
        <time>2016-11-01T12:49:10.008Z</time>
      </trkpt>
      <trkpt lat="42.91957" lon="2.05822">
        <ele>535</ele>
        <time>2016-11-01T12:49:12.008Z</time>
      </trkpt>
      <trkpt lat="42.91958" lon="2.05816">
        <ele>535</ele>
        <time>2016-11-01T12:49:14.008Z</time>
      </trkpt>
      <trkpt lat="42.91959" lon="2.05809">
        <ele>535.2179968</ele>
        <time>2016-11-01T12:49:16.008Z</time>
      </trkpt>
      <trkpt lat="42.91961" lon="2.05804">
        <ele>536</ele>
        <time>2016-11-01T12:49:18.008Z</time>
      </trkpt>
      <trkpt lat="42.91962" lon="2.05797">
        <ele>536</ele>
        <time>2016-11-01T12:49:20.008Z</time>
      </trkpt>
      <trkpt lat="42.91964" lon="2.05791">
        <ele>539</ele>
        <time>2016-11-01T12:49:22.008Z</time>
      </trkpt>
      <trkpt lat="42.91965" lon="2.05785">
        <ele>539</ele>
        <time>2016-11-01T12:49:24.008Z</time>
      </trkpt>
      <trkpt lat="42.91967" lon="2.05779">
        <ele>539.4359936</ele>
        <time>2016-11-01T12:49:26.008Z</time>
      </trkpt>
      <trkpt lat="42.91968" lon="2.05773">
        <ele>541</ele>
        <time>2016-11-01T12:49:28.008Z</time>
      </trkpt>
      <trkpt lat="42.9197" lon="2.05767">
        <ele>541</ele>
        <time>2016-11-01T12:49:30.008Z</time>
      </trkpt>
      <trkpt lat="42.91971" lon="2.05761">
        <ele>543</ele>
        <time>2016-11-01T12:49:32.008Z</time>
      </trkpt>
      <trkpt lat="42.91973" lon="2.05755">
        <ele>543</ele>
        <time>2016-11-01T12:49:34.008Z</time>
      </trkpt>
      <trkpt lat="42.91975" lon="2.05749">
        <ele>543.2179968</ele>
        <time>2016-11-01T12:49:36.008Z</time>
      </trkpt>
      <trkpt lat="42.91977" lon="2.05743">
        <ele>544</ele>
        <time>2016-11-01T12:49:38.008Z</time>
      </trkpt>
      <trkpt lat="42.91978" lon="2.05736">
        <ele>544</ele>
        <time>2016-11-01T12:49:40.008Z</time>
      </trkpt>
      <trkpt lat="42.9198" lon="2.05727">
        <ele>547</ele>
        <time>2016-11-01T12:49:43.008Z</time>
      </trkpt>
      <trkpt lat="42.91982" lon="2.05721">
        <ele>547</ele>
        <time>2016-11-01T12:49:45.008Z</time>
      </trkpt>
      <trkpt lat="42.91984" lon="2.05711">
        <ele>549</ele>
        <time>2016-11-01T12:49:48.008Z</time>
      </trkpt>
      <trkpt lat="42.91985" lon="2.05704">
        <ele>549</ele>
        <time>2016-11-01T12:49:50.008Z</time>
      </trkpt>
      <trkpt lat="42.91986" lon="2.05698">
        <ele>551</ele>
        <time>2016-11-01T12:49:52.008Z</time>
      </trkpt>
      <trkpt lat="42.91988" lon="2.05689">
        <ele>551</ele>
        <time>2016-11-01T12:49:55.008Z</time>
      </trkpt>
      <trkpt lat="42.9199" lon="2.05683">
        <ele>553</ele>
        <time>2016-11-01T12:49:57.008Z</time>
      </trkpt>
      <trkpt lat="42.91991" lon="2.05676">
        <ele>553</ele>
        <time>2016-11-01T12:49:59.008Z</time>
      </trkpt>
      <trkpt lat="42.91992" lon="2.0567">
        <ele>553.4359936</ele>
        <time>2016-11-01T12:50:01.008Z</time>
      </trkpt>
      <trkpt lat="42.91993" lon="2.05663">
        <ele>555</ele>
        <time>2016-11-01T12:50:03.008Z</time>
      </trkpt>
      <trkpt lat="42.91994" lon="2.05657">
        <ele>555</ele>
        <time>2016-11-01T12:50:05.008Z</time>
      </trkpt>
      <trkpt lat="42.91995" lon="2.05651">
        <ele>557</ele>
        <time>2016-11-01T12:50:07.008Z</time>
      </trkpt>
      <trkpt lat="42.91997" lon="2.05641">
        <ele>557</ele>
        <time>2016-11-01T12:50:10.008Z</time>
      </trkpt>
      <trkpt lat="42.91998" lon="2.05632">
        <ele>559</ele>
        <time>2016-11-01T12:50:13.008Z</time>
      </trkpt>
      <trkpt lat="42.91999" lon="2.05623">
        <ele>559.4359936</ele>
        <time>2016-11-01T12:50:16.008Z</time>
      </trkpt>
      <trkpt lat="42.92002" lon="2.05612">
        <ele>561</ele>
        <time>2016-11-01T12:50:20.008Z</time>
      </trkpt>
      <trkpt lat="42.92008" lon="2.05608">
        <ele>562</ele>
        <time>2016-11-01T12:50:23.008Z</time>
      </trkpt>
      <trkpt lat="42.92012" lon="2.05615">
        <ele>562.6539904</ele>
        <time>2016-11-01T12:50:26.008Z</time>
      </trkpt>
      <trkpt lat="42.92014" lon="2.05622">
        <ele>565</ele>
        <time>2016-11-01T12:50:28.008Z</time>
      </trkpt>
      <trkpt lat="42.92016" lon="2.05628">
        <ele>565</ele>
        <time>2016-11-01T12:50:30.008Z</time>
      </trkpt>
      <trkpt lat="42.92018" lon="2.05635">
        <ele>567</ele>
        <time>2016-11-01T12:50:32.008Z</time>
      </trkpt>
      <trkpt lat="42.9202" lon="2.05641">
        <ele>567</ele>
        <time>2016-11-01T12:50:34.008Z</time>
      </trkpt>
      <trkpt lat="42.92022" lon="2.05647">
        <ele>567.4359936</ele>
        <time>2016-11-01T12:50:36.008Z</time>
      </trkpt>
      <trkpt lat="42.92024" lon="2.05654">
        <ele>569</ele>
        <time>2016-11-01T12:50:38.008Z</time>
      </trkpt>
      <trkpt lat="42.92026" lon="2.0566">
        <ele>569</ele>
        <time>2016-11-01T12:50:40.008Z</time>
      </trkpt>
      <trkpt lat="42.92029" lon="2.05664">
        <ele>571</ele>
        <time>2016-11-01T12:50:42.008Z</time>
      </trkpt>
      <trkpt lat="42.92036" lon="2.05662">
        <ele>571.2179968</ele>
        <time>2016-11-01T12:50:46.008Z</time>
      </trkpt>
      <trkpt lat="42.92038" lon="2.05652">
        <ele>572</ele>
        <time>2016-11-01T12:50:49.008Z</time>
      </trkpt>
      <trkpt lat="42.92039" lon="2.05645">
        <ele>572.6539904</ele>
        <time>2016-11-01T12:50:51.008Z</time>
      </trkpt>
      <trkpt lat="42.92039" lon="2.05637">
        <ele>575</ele>
        <time>2016-11-01T12:50:53.008Z</time>
      </trkpt>
      <trkpt lat="42.9204" lon="2.0563">
        <ele>575</ele>
        <time>2016-11-01T12:50:55.008Z</time>
      </trkpt>
      <trkpt lat="42.92041" lon="2.05623">
        <ele>577</ele>
        <time>2016-11-01T12:50:57.008Z</time>
      </trkpt>
      <trkpt lat="42.92042" lon="2.05617">
        <ele>577</ele>
        <time>2016-11-01T12:50:59.008Z</time>
      </trkpt>
      <trkpt lat="42.92043" lon="2.0561">
        <ele>577.4359936</ele>
        <time>2016-11-01T12:51:01.008Z</time>
      </trkpt>
      <trkpt lat="42.92044" lon="2.05601">
        <ele>579</ele>
        <time>2016-11-01T12:51:04.008Z</time>
      </trkpt>
      <trkpt lat="42.92044" lon="2.05594">
        <ele>579.2179968</ele>
        <time>2016-11-01T12:51:06.008Z</time>
      </trkpt>
      <trkpt lat="42.92045" lon="2.05588">
        <ele>580</ele>
        <time>2016-11-01T12:51:08.008Z</time>
      </trkpt>
      <trkpt lat="42.92045" lon="2.05577">
        <ele>580.4359936</ele>
        <time>2016-11-01T12:51:11.008Z</time>
      </trkpt>
      <trkpt lat="42.92045" lon="2.05568">
        <ele>582</ele>
        <time>2016-11-01T12:51:14.008Z</time>
      </trkpt>
      <trkpt lat="42.92045" lon="2.05558">
        <ele>584</ele>
        <time>2016-11-01T12:51:17.008Z</time>
      </trkpt>
      <trkpt lat="42.92046" lon="2.05552">
        <ele>584</ele>
        <time>2016-11-01T12:51:19.008Z</time>
      </trkpt>
      <trkpt lat="42.92046" lon="2.05545">
        <ele>584.2179968</ele>
        <time>2016-11-01T12:51:21.008Z</time>
      </trkpt>
      <trkpt lat="42.92048" lon="2.05535">
        <ele>585</ele>
        <time>2016-11-01T12:51:24.008Z</time>
      </trkpt>
      <trkpt lat="42.92048" lon="2.05526">
        <ele>587</ele>
        <time>2016-11-01T12:51:27.008Z</time>
      </trkpt>
      <trkpt lat="42.92049" lon="2.05518">
        <ele>587</ele>
        <time>2016-11-01T12:51:30.008Z</time>
      </trkpt>
      <trkpt lat="42.92049" lon="2.05509">
        <ele>588</ele>
        <time>2016-11-01T12:51:33.008Z</time>
      </trkpt>
      <trkpt lat="42.92049" lon="2.05503">
        <ele>588</ele>
        <time>2016-11-01T12:51:35.008Z</time>
      </trkpt>
      <trkpt lat="42.92049" lon="2.05496">
        <ele>589</ele>
        <time>2016-11-01T12:51:37.008Z</time>
      </trkpt>
      <trkpt lat="42.92048" lon="2.05488">
        <ele>589</ele>
        <time>2016-11-01T12:51:40.008Z</time>
      </trkpt>
      <trkpt lat="42.92048" lon="2.05479">
        <ele>589</ele>
        <time>2016-11-01T12:51:43.008Z</time>
      </trkpt>
      <trkpt lat="42.92048" lon="2.05471">
        <ele>589</ele>
        <time>2016-11-01T12:51:46.008Z</time>
      </trkpt>
      <trkpt lat="42.92048" lon="2.05463">
        <ele>589</ele>
        <time>2016-11-01T12:51:49.008Z</time>
      </trkpt>
      <trkpt lat="42.92049" lon="2.05455">
        <ele>590</ele>
        <time>2016-11-01T12:51:54.008Z</time>
      </trkpt>
      <trkpt lat="42.92047" lon="2.05451">
        <ele>590</ele>
        <time>2016-11-01T12:51:58.008Z</time>
      </trkpt>
      <trkpt lat="42.92044" lon="2.05455">
        <ele>589.7820032</ele>
        <time>2016-11-01T12:52:01.008Z</time>
      </trkpt>
      <trkpt lat="42.92045" lon="2.05458">
        <ele>589</ele>
        <time>2016-11-01T12:52:03.008Z</time>
      </trkpt>
      <trkpt lat="42.92048" lon="2.05466">
        <ele>589</ele>
        <time>2016-11-01T12:52:07.008Z</time>
      </trkpt>
      <trkpt lat="42.92049" lon="2.05473">
        <ele>589</ele>
        <time>2016-11-01T12:52:09.008Z</time>
      </trkpt>
      <trkpt lat="42.92049" lon="2.05479">
        <ele>589.2179968</ele>
        <time>2016-11-01T12:52:11.008Z</time>
      </trkpt>
      <trkpt lat="42.92048" lon="2.05487">
        <ele>590</ele>
        <time>2016-11-01T12:52:14.008Z</time>
      </trkpt>
      <trkpt lat="42.92047" lon="2.05492">
        <ele>590</ele>
        <time>2016-11-01T12:52:17.008Z</time>
      </trkpt>
      <trkpt lat="42.92047" lon="2.05497">
        <ele>590</ele>
        <time>2016-11-01T12:52:19.008Z</time>
      </trkpt>
      <trkpt lat="42.92048" lon="2.05504">
        <ele>590</ele>
        <time>2016-11-01T12:52:21.008Z</time>
      </trkpt>
      <trkpt lat="42.92049" lon="2.05511">
        <ele>590</ele>
        <time>2016-11-01T12:52:23.008Z</time>
      </trkpt>
      <trkpt lat="42.92051" lon="2.05519">
        <ele>590</ele>
        <time>2016-11-01T12:52:25.008Z</time>
      </trkpt>
      <trkpt lat="42.92052" lon="2.05524">
        <ele>590</ele>
        <time>2016-11-01T12:52:26.008Z</time>
      </trkpt>
      <trkpt lat="42.92053" lon="2.05529">
        <ele>590</ele>
        <time>2016-11-01T12:52:27.008Z</time>
      </trkpt>
      <trkpt lat="42.92054" lon="2.05537">
        <ele>590</ele>
        <time>2016-11-01T12:52:29.008Z</time>
      </trkpt>
      <trkpt lat="42.92055" lon="2.05545">
        <ele>590</ele>
        <time>2016-11-01T12:52:31.008Z</time>
      </trkpt>
      <trkpt lat="42.92056" lon="2.05552">
        <ele>590</ele>
        <time>2016-11-01T12:52:33.008Z</time>
      </trkpt>
      <trkpt lat="42.92057" lon="2.05561">
        <ele>590</ele>
        <time>2016-11-01T12:52:35.008Z</time>
      </trkpt>
      <trkpt lat="42.92058" lon="2.05569">
        <ele>590</ele>
        <time>2016-11-01T12:52:37.008Z</time>
      </trkpt>
      <trkpt lat="42.9206" lon="2.05577">
        <ele>590</ele>
        <time>2016-11-01T12:52:39.008Z</time>
      </trkpt>
      <trkpt lat="42.92062" lon="2.05584">
        <ele>590</ele>
        <time>2016-11-01T12:52:41.008Z</time>
      </trkpt>
      <trkpt lat="42.92064" lon="2.05592">
        <ele>590</ele>
        <time>2016-11-01T12:52:43.008Z</time>
      </trkpt>
      <trkpt lat="42.92066" lon="2.056">
        <ele>590</ele>
        <time>2016-11-01T12:52:45.008Z</time>
      </trkpt>
      <trkpt lat="42.92068" lon="2.05607">
        <ele>590</ele>
        <time>2016-11-01T12:52:47.008Z</time>
      </trkpt>
      <trkpt lat="42.9207" lon="2.05614">
        <ele>590</ele>
        <time>2016-11-01T12:52:49.008Z</time>
      </trkpt>
      <trkpt lat="42.92074" lon="2.05624">
        <ele>592</ele>
        <time>2016-11-01T12:52:52.008Z</time>
      </trkpt>
      <trkpt lat="42.92078" lon="2.05633">
        <ele>592</ele>
        <time>2016-11-01T12:52:55.008Z</time>
      </trkpt>
      <trkpt lat="42.92081" lon="2.05642">
        <ele>592</ele>
        <time>2016-11-01T12:52:58.008Z</time>
      </trkpt>
      <trkpt lat="42.92082" lon="2.0565">
        <ele>592</ele>
        <time>2016-11-01T12:53:00.008Z</time>
      </trkpt>
      <trkpt lat="42.92084" lon="2.05658">
        <ele>595</ele>
        <time>2016-11-01T12:53:02.008Z</time>
      </trkpt>
      <trkpt lat="42.92085" lon="2.05665">
        <ele>595</ele>
        <time>2016-11-01T12:53:04.008Z</time>
      </trkpt>
      <trkpt lat="42.92087" lon="2.05673">
        <ele>595.2179968</ele>
        <time>2016-11-01T12:53:06.008Z</time>
      </trkpt>
      <trkpt lat="42.9209" lon="2.05683">
        <ele>596</ele>
        <time>2016-11-01T12:53:09.008Z</time>
      </trkpt>
      <trkpt lat="42.92093" lon="2.05689">
        <ele>596.2179968</ele>
        <time>2016-11-01T12:53:11.008Z</time>
      </trkpt>
      <trkpt lat="42.92095" lon="2.05696">
        <ele>597</ele>
        <time>2016-11-01T12:53:13.008Z</time>
      </trkpt>
      <trkpt lat="42.92098" lon="2.05702">
        <ele>597</ele>
        <time>2016-11-01T12:53:15.008Z</time>
      </trkpt>
      <trkpt lat="42.92101" lon="2.05709">
        <ele>599</ele>
        <time>2016-11-01T12:53:17.008Z</time>
      </trkpt>
      <trkpt lat="42.92104" lon="2.05715">
        <ele>599</ele>
        <time>2016-11-01T12:53:19.008Z</time>
      </trkpt>
      <trkpt lat="42.92107" lon="2.0572">
        <ele>599.4359936</ele>
        <time>2016-11-01T12:53:21.008Z</time>
      </trkpt>
      <trkpt lat="42.92111" lon="2.05724">
        <ele>601</ele>
        <time>2016-11-01T12:53:23.008Z</time>
      </trkpt>
      <trkpt lat="42.92114" lon="2.0573">
        <ele>601</ele>
        <time>2016-11-01T12:53:25.008Z</time>
      </trkpt>
      <trkpt lat="42.92118" lon="2.05737">
        <ele>603</ele>
        <time>2016-11-01T12:53:28.008Z</time>
      </trkpt>
      <trkpt lat="42.92123" lon="2.05731">
        <ele>603</ele>
        <time>2016-11-01T12:53:37.008Z</time>
      </trkpt>
      <trkpt lat="42.92125" lon="2.05725">
        <ele>605</ele>
        <time>2016-11-01T12:53:42.008Z</time>
      </trkpt>
      <trkpt lat="42.92128" lon="2.05718">
        <ele>605</ele>
        <time>2016-11-01T12:53:49.008Z</time>
      </trkpt>
      <trkpt lat="42.92127" lon="2.05711">
        <ele>606</ele>
        <time>2016-11-01T12:53:54.008Z</time>
      </trkpt>
      <trkpt lat="42.92126" lon="2.05705">
        <ele>606</ele>
        <time>2016-11-01T12:53:59.008Z</time>
      </trkpt>
      <trkpt lat="42.92128" lon="2.05701">
        <ele>606</ele>
        <time>2016-11-01T12:54:46.008Z</time>
      </trkpt>
      <trkpt lat="42.92128" lon="2.05705">
        <ele>606</ele>
        <time>2016-11-01T12:54:55.008Z</time>
      </trkpt>
      <trkpt lat="42.92127" lon="2.0571">
        <ele>606</ele>
        <time>2016-11-01T12:55:01.008Z</time>
      </trkpt>
      <trkpt lat="42.92127" lon="2.05718">
        <ele>606</ele>
        <time>2016-11-01T12:55:04.008Z</time>
      </trkpt>
      <trkpt lat="42.92126" lon="2.05724">
        <ele>606</ele>
        <time>2016-11-01T12:55:06.008Z</time>
      </trkpt>
      <trkpt lat="42.92124" lon="2.05729">
        <ele>606</ele>
        <time>2016-11-01T12:55:08.008Z</time>
      </trkpt>
      <trkpt lat="42.92122" lon="2.05734">
        <ele>606</ele>
        <time>2016-11-01T12:55:10.008Z</time>
      </trkpt>
      <trkpt lat="42.92117" lon="2.05735">
        <ele>605</ele>
        <time>2016-11-01T12:55:13.008Z</time>
      </trkpt>
      <trkpt lat="42.92112" lon="2.05727">
        <ele>605</ele>
        <time>2016-11-01T12:55:15.008Z</time>
      </trkpt>
      <trkpt lat="42.92106" lon="2.05717">
        <ele>605</ele>
        <time>2016-11-01T12:55:17.008Z</time>
      </trkpt>
      <trkpt lat="42.92098" lon="2.05704">
        <ele>605</ele>
        <time>2016-11-01T12:55:19.008Z</time>
      </trkpt>
      <trkpt lat="42.92094" lon="2.05695">
        <ele>605</ele>
        <time>2016-11-01T12:55:20.008Z</time>
      </trkpt>
      <trkpt lat="42.92091" lon="2.05686">
        <ele>603.910016</ele>
        <time>2016-11-01T12:55:21.008Z</time>
      </trkpt>
      <trkpt lat="42.92085" lon="2.05667">
        <ele>600</ele>
        <time>2016-11-01T12:55:23.008Z</time>
      </trkpt>
      <trkpt lat="42.92082" lon="2.05657">
        <ele>600</ele>
        <time>2016-11-01T12:55:24.008Z</time>
      </trkpt>
      <trkpt lat="42.9208" lon="2.05647">
        <ele>600</ele>
        <time>2016-11-01T12:55:25.008Z</time>
      </trkpt>
      <trkpt lat="42.92075" lon="2.05628">
        <ele>597</ele>
        <time>2016-11-01T12:55:27.008Z</time>
      </trkpt>
      <trkpt lat="42.92069" lon="2.0561">
        <ele>596.7820032</ele>
        <time>2016-11-01T12:55:29.008Z</time>
      </trkpt>
      <trkpt lat="42.92066" lon="2.056">
        <ele>596</ele>
        <time>2016-11-01T12:55:30.008Z</time>
      </trkpt>
      <trkpt lat="42.92063" lon="2.0559">
        <ele>595.5640064</ele>
        <time>2016-11-01T12:55:31.008Z</time>
      </trkpt>
      <trkpt lat="42.92061" lon="2.05579">
        <ele>593.7820032</ele>
        <time>2016-11-01T12:55:32.008Z</time>
      </trkpt>
      <trkpt lat="42.92058" lon="2.05569">
        <ele>593</ele>
        <time>2016-11-01T12:55:33.008Z</time>
      </trkpt>
      <trkpt lat="42.92056" lon="2.05558">
        <ele>592.7820032</ele>
        <time>2016-11-01T12:55:34.008Z</time>
      </trkpt>
      <trkpt lat="42.92054" lon="2.05547">
        <ele>592</ele>
        <time>2016-11-01T12:55:35.008Z</time>
      </trkpt>
      <trkpt lat="42.92053" lon="2.05537">
        <ele>591.7820032</ele>
        <time>2016-11-01T12:55:36.008Z</time>
      </trkpt>
      <trkpt lat="42.92051" lon="2.05526">
        <ele>590.7820032</ele>
        <time>2016-11-01T12:55:37.008Z</time>
      </trkpt>
      <trkpt lat="42.9205" lon="2.05516">
        <ele>589.78627630605</ele>
        <time>2016-11-01T12:55:38.008Z</time>
      </trkpt>
      <trkpt lat="42.92049" lon="2.05506">
        <ele>589</ele>
        <time>2016-11-01T12:55:39.008Z</time>
      </trkpt>
      <trkpt lat="42.92048" lon="2.05497">
        <ele>589.2179968</ele>
        <time>2016-11-01T12:55:40.008Z</time>
      </trkpt>
      <trkpt lat="42.92047" lon="2.05481">
        <ele>590</ele>
        <time>2016-11-01T12:55:42.008Z</time>
      </trkpt>
      <trkpt lat="42.92047" lon="2.05469">
        <ele>590</ele>
        <time>2016-11-01T12:55:44.008Z</time>
      </trkpt>
      <trkpt lat="42.92047" lon="2.05463">
        <ele>590</ele>
        <time>2016-11-01T12:55:45.008Z</time>
      </trkpt>
      <trkpt lat="42.92047" lon="2.0545">
        <ele>591</ele>
        <time>2016-11-01T12:55:47.008Z</time>
      </trkpt>
      <trkpt lat="42.92047" lon="2.05445">
        <ele>591</ele>
        <time>2016-11-01T12:55:48.008Z</time>
      </trkpt>
      <trkpt lat="42.92048" lon="2.05434">
        <ele>591</ele>
        <time>2016-11-01T12:55:50.008Z</time>
      </trkpt>
      <trkpt lat="42.92048" lon="2.05429">
        <ele>591</ele>
        <time>2016-11-01T12:55:51.008Z</time>
      </trkpt>
      <trkpt lat="42.92047" lon="2.0542">
        <ele>591</ele>
        <time>2016-11-01T12:55:53.008Z</time>
      </trkpt>
      <trkpt lat="42.92047" lon="2.05415">
        <ele>591</ele>
        <time>2016-11-01T12:55:54.008Z</time>
      </trkpt>
      <trkpt lat="42.92047" lon="2.0541">
        <ele>591</ele>
        <time>2016-11-01T12:55:55.008Z</time>
      </trkpt>
      <trkpt lat="42.92047" lon="2.05402">
        <ele>591</ele>
        <time>2016-11-01T12:55:57.008Z</time>
      </trkpt>
      <trkpt lat="42.92047" lon="2.05394">
        <ele>591</ele>
        <time>2016-11-01T12:55:59.008Z</time>
      </trkpt>
      <trkpt lat="42.92048" lon="2.05388">
        <ele>590.7820032</ele>
        <time>2016-11-01T12:56:01.008Z</time>
      </trkpt>
      <trkpt lat="42.92049" lon="2.05383">
        <ele>590</ele>
        <time>2016-11-01T12:56:04.008Z</time>
      </trkpt>
      <trkpt lat="42.9205" lon="2.05377">
        <ele>590</ele>
        <time>2016-11-01T12:56:10.008Z</time>
      </trkpt>
      <trkpt lat="42.92052" lon="2.05383">
        <ele>590</ele>
        <time>2016-11-01T12:56:34.008Z</time>
      </trkpt>
      <trkpt lat="42.9205" lon="2.05388">
        <ele>590</ele>
        <time>2016-11-01T12:56:44.008Z</time>
      </trkpt>
      <trkpt lat="42.92049" lon="2.05394">
        <ele>590</ele>
        <time>2016-11-01T12:56:49.008Z</time>
      </trkpt>
      <trkpt lat="42.92051" lon="2.05386">
        <ele>591.7820032</ele>
        <time>2016-11-01T12:57:21.008Z</time>
      </trkpt>
      <trkpt lat="42.9205" lon="2.05395">
        <ele>590</ele>
        <time>2016-11-01T12:57:37.008Z</time>
      </trkpt>
      <trkpt lat="42.9205" lon="2.05388">
        <ele>591</ele>
        <time>2016-11-01T13:25:05.008Z</time>
      </trkpt>
      <trkpt lat="42.92051" lon="2.05383">
        <ele>591</ele>
        <time>2016-11-01T13:25:21.008Z</time>
      </trkpt>
      <trkpt lat="42.92052" lon="2.05387">
        <ele>591</ele>
        <time>2016-11-01T13:28:03.008Z</time>
      </trkpt>
      <trkpt lat="42.92051" lon="2.0538">
        <ele>591</ele>
        <time>2016-11-01T13:28:57.008Z</time>
      </trkpt>
      <trkpt lat="42.92053" lon="2.05371">
        <ele>591</ele>
        <time>2016-11-01T13:29:00.008Z</time>
      </trkpt>
      <trkpt lat="42.92057" lon="2.05365">
        <ele>589</ele>
        <time>2016-11-01T13:29:02.008Z</time>
      </trkpt>
      <trkpt lat="42.92063" lon="2.05359">
        <ele>589</ele>
        <time>2016-11-01T13:29:04.008Z</time>
      </trkpt>
      <trkpt lat="42.92071" lon="2.05354">
        <ele>589</ele>
        <time>2016-11-01T13:29:06.008Z</time>
      </trkpt>
      <trkpt lat="42.92082" lon="2.05351">
        <ele>589</ele>
        <time>2016-11-01T13:29:08.008Z</time>
      </trkpt>
      <trkpt lat="42.92095" lon="2.05349">
        <ele>589</ele>
        <time>2016-11-01T13:29:10.008Z</time>
      </trkpt>
      <trkpt lat="42.92109" lon="2.05351">
        <ele>582.1280128</ele>
        <time>2016-11-01T13:29:12.008Z</time>
      </trkpt>
      <trkpt lat="42.92117" lon="2.05352">
        <ele>578.7820032</ele>
        <time>2016-11-01T13:29:13.008Z</time>
      </trkpt>
      <trkpt lat="42.92132" lon="2.05355">
        <ele>576.5640064</ele>
        <time>2016-11-01T13:29:15.008Z</time>
      </trkpt>
      <trkpt lat="42.92148" lon="2.05358">
        <ele>573.7820032</ele>
        <time>2016-11-01T13:29:17.008Z</time>
      </trkpt>
      <trkpt lat="42.92162" lon="2.05363">
        <ele>571.7820032</ele>
        <time>2016-11-01T13:29:19.008Z</time>
      </trkpt>
      <trkpt lat="42.92175" lon="2.0537">
        <ele>569.5640064</ele>
        <time>2016-11-01T13:29:21.008Z</time>
      </trkpt>
      <trkpt lat="42.92185" lon="2.05382">
        <ele>566.7820032</ele>
        <time>2016-11-01T13:29:23.008Z</time>
      </trkpt>
      <trkpt lat="42.92197" lon="2.05396">
        <ele>565.3460096</ele>
        <time>2016-11-01T13:29:25.008Z</time>
      </trkpt>
      <trkpt lat="42.92208" lon="2.05411">
        <ele>562</ele>
        <time>2016-11-01T13:29:27.008Z</time>
      </trkpt>
      <trkpt lat="42.92219" lon="2.05425">
        <ele>560.7820032</ele>
        <time>2016-11-01T13:29:29.008Z</time>
      </trkpt>
      <trkpt lat="42.92229" lon="2.05439">
        <ele>557.7820032</ele>
        <time>2016-11-01T13:29:31.008Z</time>
      </trkpt>
      <trkpt lat="42.92238" lon="2.05451">
        <ele>556.3460096</ele>
        <time>2016-11-01T13:29:33.008Z</time>
      </trkpt>
      <trkpt lat="42.92246" lon="2.05464">
        <ele>553.7820032</ele>
        <time>2016-11-01T13:29:35.008Z</time>
      </trkpt>
      <trkpt lat="42.92255" lon="2.05476">
        <ele>551</ele>
        <time>2016-11-01T13:29:37.008Z</time>
      </trkpt>
      <trkpt lat="42.92264" lon="2.05488">
        <ele>550.5640064</ele>
        <time>2016-11-01T13:29:39.008Z</time>
      </trkpt>
      <trkpt lat="42.92269" lon="2.05502">
        <ele>547.5640064</ele>
        <time>2016-11-01T13:29:41.008Z</time>
      </trkpt>
      <trkpt lat="42.92272" lon="2.0552">
        <ele>545</ele>
        <time>2016-11-01T13:29:43.008Z</time>
      </trkpt>
      <trkpt lat="42.92278" lon="2.05536">
        <ele>543.5640064</ele>
        <time>2016-11-01T13:29:45.008Z</time>
      </trkpt>
      <trkpt lat="42.92286" lon="2.05549">
        <ele>541</ele>
        <time>2016-11-01T13:29:47.008Z</time>
      </trkpt>
      <trkpt lat="42.92295" lon="2.0556">
        <ele>539.7820032</ele>
        <time>2016-11-01T13:29:49.008Z</time>
      </trkpt>
      <trkpt lat="42.92304" lon="2.0557">
        <ele>539</ele>
        <time>2016-11-01T13:29:51.008Z</time>
      </trkpt>
      <trkpt lat="42.92311" lon="2.05582">
        <ele>537.5640064</ele>
        <time>2016-11-01T13:29:53.008Z</time>
      </trkpt>
      <trkpt lat="42.92317" lon="2.05596">
        <ele>535.2179968</ele>
        <time>2016-11-01T13:29:55.008Z</time>
      </trkpt>
      <trkpt lat="42.92324" lon="2.05608">
        <ele>534</ele>
        <time>2016-11-01T13:29:57.008Z</time>
      </trkpt>
      <trkpt lat="42.92334" lon="2.05619">
        <ele>533.7820032</ele>
        <time>2016-11-01T13:29:59.008Z</time>
      </trkpt>
      <trkpt lat="42.92346" lon="2.05632">
        <ele>532</ele>
        <time>2016-11-01T13:30:01.008Z</time>
      </trkpt>
      <trkpt lat="42.92356" lon="2.05645">
        <ele>531.7820032</ele>
        <time>2016-11-01T13:30:03.008Z</time>
      </trkpt>
      <trkpt lat="42.92368" lon="2.05653">
        <ele>532</ele>
        <time>2016-11-01T13:30:05.008Z</time>
      </trkpt>
      <trkpt lat="42.92379" lon="2.0566">
        <ele>532</ele>
        <time>2016-11-01T13:30:07.008Z</time>
      </trkpt>
      <trkpt lat="42.92388" lon="2.05665">
        <ele>532</ele>
        <time>2016-11-01T13:30:09.008Z</time>
      </trkpt>
      <trkpt lat="42.92396" lon="2.05669">
        <ele>532</ele>
        <time>2016-11-01T13:30:11.008Z</time>
      </trkpt>
      <trkpt lat="42.92402" lon="2.0567">
        <ele>532</ele>
        <time>2016-11-01T13:30:13.008Z</time>
      </trkpt>
      <trkpt lat="42.92407" lon="2.0567">
        <ele>532</ele>
        <time>2016-11-01T13:30:15.008Z</time>
      </trkpt>
      <trkpt lat="42.92411" lon="2.05668">
        <ele>532</ele>
        <time>2016-11-01T13:30:17.008Z</time>
      </trkpt>
      <trkpt lat="42.92413" lon="2.05664">
        <ele>532</ele>
        <time>2016-11-01T13:30:19.008Z</time>
      </trkpt>
      <trkpt lat="42.92417" lon="2.05661">
        <ele>534</ele>
        <time>2016-11-01T13:30:22.008Z</time>
      </trkpt>
      <trkpt lat="42.92419" lon="2.05656">
        <ele>534</ele>
        <time>2016-11-01T13:30:26.008Z</time>
      </trkpt>
      <trkpt lat="42.92419" lon="2.05651">
        <ele>534</ele>
        <time>2016-11-01T13:30:28.008Z</time>
      </trkpt>
      <trkpt lat="42.92419" lon="2.05644">
        <ele>534</ele>
        <time>2016-11-01T13:30:31.008Z</time>
      </trkpt>
      <trkpt lat="42.92419" lon="2.0564">
        <ele>534</ele>
        <time>2016-11-01T13:30:33.008Z</time>
      </trkpt>
      <trkpt lat="42.92419" lon="2.05636">
        <ele>534</ele>
        <time>2016-11-01T13:30:35.008Z</time>
      </trkpt>
      <trkpt lat="42.92418" lon="2.0563">
        <ele>534</ele>
        <time>2016-11-01T13:30:38.008Z</time>
      </trkpt>
      <trkpt lat="42.92418" lon="2.05625">
        <ele>534</ele>
        <time>2016-11-01T13:30:40.008Z</time>
      </trkpt>
      <trkpt lat="42.92416" lon="2.05617">
        <ele>534</ele>
        <time>2016-11-01T13:30:42.008Z</time>
      </trkpt>
      <trkpt lat="42.92416" lon="2.05612">
        <ele>534</ele>
        <time>2016-11-01T13:30:43.008Z</time>
      </trkpt>
      <trkpt lat="42.92414" lon="2.05602">
        <ele>534</ele>
        <time>2016-11-01T13:30:45.008Z</time>
      </trkpt>
      <trkpt lat="42.92413" lon="2.05596">
        <ele>534</ele>
        <time>2016-11-01T13:30:46.008Z</time>
      </trkpt>
      <trkpt lat="42.92412" lon="2.05589">
        <ele>534</ele>
        <time>2016-11-01T13:30:47.008Z</time>
      </trkpt>
      <trkpt lat="42.92412" lon="2.05582">
        <ele>534</ele>
        <time>2016-11-01T13:30:48.008Z</time>
      </trkpt>
      <trkpt lat="42.92411" lon="2.05575">
        <ele>534</ele>
        <time>2016-11-01T13:30:49.008Z</time>
      </trkpt>
      <trkpt lat="42.92411" lon="2.05568">
        <ele>534</ele>
        <time>2016-11-01T13:30:50.008Z</time>
      </trkpt>
      <trkpt lat="42.92411" lon="2.0556">
        <ele>533.7820032</ele>
        <time>2016-11-01T13:30:51.008Z</time>
      </trkpt>
      <trkpt lat="42.92412" lon="2.05553">
        <ele>533</ele>
        <time>2016-11-01T13:30:52.008Z</time>
      </trkpt>
      <trkpt lat="42.92413" lon="2.05538">
        <ele>533</ele>
        <time>2016-11-01T13:30:54.008Z</time>
      </trkpt>
      <trkpt lat="42.92415" lon="2.05524">
        <ele>533</ele>
        <time>2016-11-01T13:30:56.008Z</time>
      </trkpt>
      <trkpt lat="42.92417" lon="2.05517">
        <ele>533</ele>
        <time>2016-11-01T13:30:57.008Z</time>
      </trkpt>
      <trkpt lat="42.92419" lon="2.05509">
        <ele>533</ele>
        <time>2016-11-01T13:30:58.008Z</time>
      </trkpt>
      <trkpt lat="42.92421" lon="2.05502">
        <ele>533</ele>
        <time>2016-11-01T13:30:59.008Z</time>
      </trkpt>
      <trkpt lat="42.92423" lon="2.05495">
        <ele>533</ele>
        <time>2016-11-01T13:31:00.008Z</time>
      </trkpt>
      <trkpt lat="42.92424" lon="2.05487">
        <ele>532.5640064</ele>
        <time>2016-11-01T13:31:01.008Z</time>
      </trkpt>
      <trkpt lat="42.92426" lon="2.05479">
        <ele>531</ele>
        <time>2016-11-01T13:31:02.008Z</time>
      </trkpt>
      <trkpt lat="42.92427" lon="2.05471">
        <ele>531</ele>
        <time>2016-11-01T13:31:03.008Z</time>
      </trkpt>
      <trkpt lat="42.92428" lon="2.05462">
        <ele>531</ele>
        <time>2016-11-01T13:31:04.008Z</time>
      </trkpt>
      <trkpt lat="42.92429" lon="2.05454">
        <ele>531</ele>
        <time>2016-11-01T13:31:05.008Z</time>
      </trkpt>
      <trkpt lat="42.92431" lon="2.05446">
        <ele>531</ele>
        <time>2016-11-01T13:31:06.008Z</time>
      </trkpt>
      <trkpt lat="42.92432" lon="2.05437">
        <ele>531</ele>
        <time>2016-11-01T13:31:07.008Z</time>
      </trkpt>
      <trkpt lat="42.92433" lon="2.05428">
        <ele>531</ele>
        <time>2016-11-01T13:31:08.008Z</time>
      </trkpt>
      <trkpt lat="42.92434" lon="2.05419">
        <ele>531</ele>
        <time>2016-11-01T13:31:09.008Z</time>
      </trkpt>
      <trkpt lat="42.92435" lon="2.0541">
        <ele>531</ele>
        <time>2016-11-01T13:31:10.008Z</time>
      </trkpt>
      <trkpt lat="42.92436" lon="2.054">
        <ele>530.7820032</ele>
        <time>2016-11-01T13:31:11.008Z</time>
      </trkpt>
      <trkpt lat="42.92437" lon="2.0539">
        <ele>530</ele>
        <time>2016-11-01T13:31:12.008Z</time>
      </trkpt>
      <trkpt lat="42.92437" lon="2.0538">
        <ele>530</ele>
        <time>2016-11-01T13:31:13.008Z</time>
      </trkpt>
      <trkpt lat="42.92438" lon="2.0537">
        <ele>530</ele>
        <time>2016-11-01T13:31:14.008Z</time>
      </trkpt>
      <trkpt lat="42.92438" lon="2.0536">
        <ele>530</ele>
        <time>2016-11-01T13:31:15.008Z</time>
      </trkpt>
      <trkpt lat="42.92438" lon="2.0535">
        <ele>530</ele>
        <time>2016-11-01T13:31:16.008Z</time>
      </trkpt>
      <trkpt lat="42.92438" lon="2.0534">
        <ele>530</ele>
        <time>2016-11-01T13:31:17.008Z</time>
      </trkpt>
      <trkpt lat="42.92438" lon="2.0533">
        <ele>530</ele>
        <time>2016-11-01T13:31:18.008Z</time>
      </trkpt>
      <trkpt lat="42.92438" lon="2.0532">
        <ele>530</ele>
        <time>2016-11-01T13:31:19.008Z</time>
      </trkpt>
      <trkpt lat="42.92438" lon="2.0531">
        <ele>530</ele>
        <time>2016-11-01T13:31:20.008Z</time>
      </trkpt>
      <trkpt lat="42.92437" lon="2.053">
        <ele>529.5640064</ele>
        <time>2016-11-01T13:31:21.008Z</time>
      </trkpt>
      <trkpt lat="42.92436" lon="2.05289">
        <ele>528</ele>
        <time>2016-11-01T13:31:22.008Z</time>
      </trkpt>
      <trkpt lat="42.92435" lon="2.05278">
        <ele>528</ele>
        <time>2016-11-01T13:31:23.008Z</time>
      </trkpt>
      <trkpt lat="42.92434" lon="2.05268">
        <ele>528</ele>
        <time>2016-11-01T13:31:24.008Z</time>
      </trkpt>
      <trkpt lat="42.92433" lon="2.05257">
        <ele>528</ele>
        <time>2016-11-01T13:31:25.008Z</time>
      </trkpt>
      <trkpt lat="42.92431" lon="2.05248">
        <ele>528</ele>
        <time>2016-11-01T13:31:26.008Z</time>
      </trkpt>
      <trkpt lat="42.92429" lon="2.05239">
        <ele>528</ele>
        <time>2016-11-01T13:31:27.008Z</time>
      </trkpt>
      <trkpt lat="42.92427" lon="2.05231">
        <ele>528</ele>
        <time>2016-11-01T13:31:28.008Z</time>
      </trkpt>
      <trkpt lat="42.92425" lon="2.05224">
        <ele>528</ele>
        <time>2016-11-01T13:31:29.008Z</time>
      </trkpt>
      <trkpt lat="42.92424" lon="2.05218">
        <ele>528</ele>
        <time>2016-11-01T13:31:30.008Z</time>
      </trkpt>
      <trkpt lat="42.92422" lon="2.05213">
        <ele>527.7820032</ele>
        <time>2016-11-01T13:31:31.008Z</time>
      </trkpt>
      <trkpt lat="42.92421" lon="2.05206">
        <ele>527</ele>
        <time>2016-11-01T13:31:33.008Z</time>
      </trkpt>
      <trkpt lat="42.92426" lon="2.05209">
        <ele>529</ele>
        <time>2016-11-01T13:32:43.008Z</time>
      </trkpt>
      <trkpt lat="42.92431" lon="2.05214">
        <ele>529</ele>
        <time>2016-11-01T13:32:47.008Z</time>
      </trkpt>
      <trkpt lat="42.92436" lon="2.0522">
        <ele>529</ele>
        <time>2016-11-01T13:32:50.008Z</time>
      </trkpt>
      <trkpt lat="42.9244" lon="2.05227">
        <ele>531</ele>
        <time>2016-11-01T13:32:53.008Z</time>
      </trkpt>
      <trkpt lat="42.92445" lon="2.05234">
        <ele>531</ele>
        <time>2016-11-01T13:32:56.008Z</time>
      </trkpt>
      <trkpt lat="42.92448" lon="2.05241">
        <ele>531</ele>
        <time>2016-11-01T13:32:59.008Z</time>
      </trkpt>
      <trkpt lat="42.92453" lon="2.05248">
        <ele>534</ele>
        <time>2016-11-01T13:33:02.008Z</time>
      </trkpt>
      <trkpt lat="42.92457" lon="2.05254">
        <ele>534</ele>
        <time>2016-11-01T13:33:05.008Z</time>
      </trkpt>
      <trkpt lat="42.92463" lon="2.05259">
        <ele>535</ele>
        <time>2016-11-01T13:33:08.008Z</time>
      </trkpt>
      <trkpt lat="42.92468" lon="2.05263">
        <ele>535.2179968</ele>
        <time>2016-11-01T13:33:11.008Z</time>
      </trkpt>
      <trkpt lat="42.92474" lon="2.05267">
        <ele>536</ele>
        <time>2016-11-01T13:33:14.008Z</time>
      </trkpt>
      <trkpt lat="42.92479" lon="2.05271">
        <ele>536</ele>
        <time>2016-11-01T13:33:17.008Z</time>
      </trkpt>
      <trkpt lat="42.92484" lon="2.05276">
        <ele>536</ele>
        <time>2016-11-01T13:33:20.008Z</time>
      </trkpt>
      <trkpt lat="42.92488" lon="2.05283">
        <ele>538</ele>
        <time>2016-11-01T13:33:23.008Z</time>
      </trkpt>
      <trkpt lat="42.92489" lon="2.05291">
        <ele>538.2179968</ele>
        <time>2016-11-01T13:33:26.008Z</time>
      </trkpt>
      <trkpt lat="42.92492" lon="2.05299">
        <ele>539</ele>
        <time>2016-11-01T13:33:29.008Z</time>
      </trkpt>
      <trkpt lat="42.92495" lon="2.05306">
        <ele>541</ele>
        <time>2016-11-01T13:33:32.008Z</time>
      </trkpt>
      <trkpt lat="42.92499" lon="2.05313">
        <ele>541</ele>
        <time>2016-11-01T13:33:35.008Z</time>
      </trkpt>
      <trkpt lat="42.92502" lon="2.05318">
        <ele>541</ele>
        <time>2016-11-01T13:33:37.008Z</time>
      </trkpt>
      <trkpt lat="42.92505" lon="2.05324">
        <ele>541</ele>
        <time>2016-11-01T13:33:39.008Z</time>
      </trkpt>
      <trkpt lat="42.92509" lon="2.05331">
        <ele>543</ele>
        <time>2016-11-01T13:33:42.008Z</time>
      </trkpt>
      <trkpt lat="42.92513" lon="2.05339">
        <ele>542.78989966901</ele>
        <time>2016-11-01T13:33:45.008Z</time>
      </trkpt>
      <trkpt lat="42.92515" lon="2.05344">
        <ele>542</ele>
        <time>2016-11-01T13:33:47.008Z</time>
      </trkpt>
      <trkpt lat="42.92519" lon="2.05351">
        <ele>542</ele>
        <time>2016-11-01T13:33:50.008Z</time>
      </trkpt>
      <trkpt lat="42.92522" lon="2.05356">
        <ele>543</ele>
        <time>2016-11-01T13:33:52.008Z</time>
      </trkpt>
      <trkpt lat="42.92526" lon="2.05364">
        <ele>543</ele>
        <time>2016-11-01T13:33:55.008Z</time>
      </trkpt>
      <trkpt lat="42.9253" lon="2.05371">
        <ele>543</ele>
        <time>2016-11-01T13:33:58.008Z</time>
      </trkpt>
      <trkpt lat="42.92534" lon="2.05379">
        <ele>543.2179968</ele>
        <time>2016-11-01T13:34:01.008Z</time>
      </trkpt>
      <trkpt lat="42.92538" lon="2.05383">
        <ele>544</ele>
        <time>2016-11-01T13:34:03.008Z</time>
      </trkpt>
      <trkpt lat="42.92541" lon="2.05388">
        <ele>544</ele>
        <time>2016-11-01T13:34:05.008Z</time>
      </trkpt>
      <trkpt lat="42.92544" lon="2.05392">
        <ele>544</ele>
        <time>2016-11-01T13:34:07.008Z</time>
      </trkpt>
      <trkpt lat="42.92549" lon="2.05399">
        <ele>544</ele>
        <time>2016-11-01T13:34:10.008Z</time>
      </trkpt>
      <trkpt lat="42.92552" lon="2.05403">
        <ele>546</ele>
        <time>2016-11-01T13:34:12.008Z</time>
      </trkpt>
      <trkpt lat="42.92558" lon="2.0541">
        <ele>546</ele>
        <time>2016-11-01T13:34:15.008Z</time>
      </trkpt>
      <trkpt lat="42.92561" lon="2.05415">
        <ele>546</ele>
        <time>2016-11-01T13:34:17.008Z</time>
      </trkpt>
      <trkpt lat="42.92565" lon="2.05419">
        <ele>546</ele>
        <time>2016-11-01T13:34:19.008Z</time>
      </trkpt>
      <trkpt lat="42.92568" lon="2.05423">
        <ele>546.6539904</ele>
        <time>2016-11-01T13:34:21.008Z</time>
      </trkpt>
      <trkpt lat="42.92572" lon="2.05428">
        <ele>549</ele>
        <time>2016-11-01T13:34:23.008Z</time>
      </trkpt>
      <trkpt lat="42.92576" lon="2.05433">
        <ele>549</ele>
        <time>2016-11-01T13:34:25.008Z</time>
      </trkpt>
      <trkpt lat="42.92579" lon="2.05438">
        <ele>549</ele>
        <time>2016-11-01T13:34:27.008Z</time>
      </trkpt>
      <trkpt lat="42.92583" lon="2.05442">
        <ele>549</ele>
        <time>2016-11-01T13:34:29.008Z</time>
      </trkpt>
      <trkpt lat="42.92585" lon="2.05445">
        <ele>549</ele>
        <time>2016-11-01T13:34:30.008Z</time>
      </trkpt>
      <trkpt lat="42.92587" lon="2.05447">
        <ele>549</ele>
        <time>2016-11-01T13:34:31.008Z</time>
      </trkpt>
      <trkpt lat="42.92589" lon="2.0545">
        <ele>549</ele>
        <time>2016-11-01T13:34:32.008Z</time>
      </trkpt>
      <trkpt lat="42.92593" lon="2.05455">
        <ele>549</ele>
        <time>2016-11-01T13:34:34.008Z</time>
      </trkpt>
      <trkpt lat="42.92595" lon="2.05457">
        <ele>549</ele>
        <time>2016-11-01T13:34:35.008Z</time>
      </trkpt>
      <trkpt lat="42.92599" lon="2.05462">
        <ele>549</ele>
        <time>2016-11-01T13:34:37.008Z</time>
      </trkpt>
      <trkpt lat="42.92602" lon="2.05467">
        <ele>549</ele>
        <time>2016-11-01T13:34:39.008Z</time>
      </trkpt>
      <trkpt lat="42.92606" lon="2.05472">
        <ele>549.4359936</ele>
        <time>2016-11-01T13:34:41.008Z</time>
      </trkpt>
      <trkpt lat="42.9261" lon="2.05476">
        <ele>551</ele>
        <time>2016-11-01T13:34:43.008Z</time>
      </trkpt>
      <trkpt lat="42.92614" lon="2.05481">
        <ele>551</ele>
        <time>2016-11-01T13:34:45.008Z</time>
      </trkpt>
      <trkpt lat="42.92616" lon="2.05484">
        <ele>551</ele>
        <time>2016-11-01T13:34:46.008Z</time>
      </trkpt>
      <trkpt lat="42.92618" lon="2.05486">
        <ele>551</ele>
        <time>2016-11-01T13:34:47.008Z</time>
      </trkpt>
      <trkpt lat="42.9262" lon="2.05489">
        <ele>551</ele>
        <time>2016-11-01T13:34:48.008Z</time>
      </trkpt>
      <trkpt lat="42.92622" lon="2.05491">
        <ele>551</ele>
        <time>2016-11-01T13:34:49.008Z</time>
      </trkpt>
      <trkpt lat="42.92624" lon="2.05494">
        <ele>551</ele>
        <time>2016-11-01T13:34:50.008Z</time>
      </trkpt>
      <trkpt lat="42.92626" lon="2.05496">
        <ele>551.6539904</ele>
        <time>2016-11-01T13:34:51.008Z</time>
      </trkpt>
      <trkpt lat="42.92629" lon="2.05502">
        <ele>554</ele>
        <time>2016-11-01T13:34:53.008Z</time>
      </trkpt>
      <trkpt lat="42.92631" lon="2.05509">
        <ele>554</ele>
        <time>2016-11-01T13:34:55.008Z</time>
      </trkpt>
      <trkpt lat="42.92631" lon="2.05516">
        <ele>555</ele>
        <time>2016-11-01T13:34:57.008Z</time>
      </trkpt>
      <trkpt lat="42.9263" lon="2.05523">
        <ele>555</ele>
        <time>2016-11-01T13:34:59.008Z</time>
      </trkpt>
      <trkpt lat="42.92633" lon="2.05532">
        <ele>556</ele>
        <time>2016-11-01T13:35:02.008Z</time>
      </trkpt>
      <trkpt lat="42.92639" lon="2.05539">
        <ele>556</ele>
        <time>2016-11-01T13:35:05.008Z</time>
      </trkpt>
      <trkpt lat="42.92645" lon="2.05545">
        <ele>556</ele>
        <time>2016-11-01T13:35:08.008Z</time>
      </trkpt>
      <trkpt lat="42.92652" lon="2.05552">
        <ele>556.2179968</ele>
        <time>2016-11-01T13:35:11.008Z</time>
      </trkpt>
      <trkpt lat="42.92656" lon="2.05559">
        <ele>557</ele>
        <time>2016-11-01T13:35:14.008Z</time>
      </trkpt>
      <trkpt lat="42.92661" lon="2.05566">
        <ele>557</ele>
        <time>2016-11-01T13:35:17.008Z</time>
      </trkpt>
      <trkpt lat="42.92667" lon="2.05567">
        <ele>557</ele>
        <time>2016-11-01T13:35:20.008Z</time>
      </trkpt>
      <trkpt lat="42.92675" lon="2.05568">
        <ele>561</ele>
        <time>2016-11-01T13:35:23.008Z</time>
      </trkpt>
      <trkpt lat="42.92681" lon="2.0557">
        <ele>561</ele>
        <time>2016-11-01T13:35:25.008Z</time>
      </trkpt>
      <trkpt lat="42.92688" lon="2.05573">
        <ele>561</ele>
        <time>2016-11-01T13:35:27.008Z</time>
      </trkpt>
      <trkpt lat="42.92692" lon="2.05575">
        <ele>561</ele>
        <time>2016-11-01T13:35:28.008Z</time>
      </trkpt>
      <trkpt lat="42.92696" lon="2.05577">
        <ele>561</ele>
        <time>2016-11-01T13:35:29.008Z</time>
      </trkpt>
      <trkpt lat="42.92701" lon="2.05579">
        <ele>561</ele>
        <time>2016-11-01T13:35:30.008Z</time>
      </trkpt>
      <trkpt lat="42.92706" lon="2.05582">
        <ele>560.7820032</ele>
        <time>2016-11-01T13:35:31.008Z</time>
      </trkpt>
      <trkpt lat="42.92711" lon="2.05585">
        <ele>560</ele>
        <time>2016-11-01T13:35:32.008Z</time>
      </trkpt>
      <trkpt lat="42.92715" lon="2.05587">
        <ele>560</ele>
        <time>2016-11-01T13:35:33.008Z</time>
      </trkpt>
      <trkpt lat="42.9272" lon="2.05589">
        <ele>560</ele>
        <time>2016-11-01T13:35:34.008Z</time>
      </trkpt>
      <trkpt lat="42.92724" lon="2.0559">
        <ele>560</ele>
        <time>2016-11-01T13:35:35.008Z</time>
      </trkpt>
      <trkpt lat="42.92732" lon="2.05591">
        <ele>559.7820032</ele>
        <time>2016-11-01T13:35:37.008Z</time>
      </trkpt>
      <trkpt lat="42.9274" lon="2.05591">
        <ele>559</ele>
        <time>2016-11-01T13:35:39.008Z</time>
      </trkpt>
      <trkpt lat="42.92748" lon="2.05592">
        <ele>559</ele>
        <time>2016-11-01T13:35:41.008Z</time>
      </trkpt>
      <trkpt lat="42.92752" lon="2.05593">
        <ele>559</ele>
        <time>2016-11-01T13:35:44.008Z</time>
      </trkpt>
      <trkpt lat="42.92759" lon="2.05593">
        <ele>559</ele>
        <time>2016-11-01T13:35:46.008Z</time>
      </trkpt>
      <trkpt lat="42.92765" lon="2.05594">
        <ele>559</ele>
        <time>2016-11-01T13:35:48.008Z</time>
      </trkpt>
      <trkpt lat="42.92771" lon="2.05594">
        <ele>559</ele>
        <time>2016-11-01T13:35:50.008Z</time>
      </trkpt>
      <trkpt lat="42.92776" lon="2.05594">
        <ele>563</ele>
        <time>2016-11-01T13:35:52.008Z</time>
      </trkpt>
      <trkpt lat="42.92782" lon="2.05595">
        <ele>563</ele>
        <time>2016-11-01T13:35:54.008Z</time>
      </trkpt>
      <trkpt lat="42.92786" lon="2.05595">
        <ele>563.8719872</ele>
        <time>2016-11-01T13:35:56.008Z</time>
      </trkpt>
      <trkpt lat="42.92791" lon="2.05595">
        <ele>567</ele>
        <time>2016-11-01T13:35:58.008Z</time>
      </trkpt>
      <trkpt lat="42.92796" lon="2.05595">
        <ele>566.7820032</ele>
        <time>2016-11-01T13:36:00.008Z</time>
      </trkpt>
      <trkpt lat="42.92801" lon="2.05594">
        <ele>568.2179968</ele>
        <time>2016-11-01T13:36:02.008Z</time>
      </trkpt>
      <trkpt lat="42.92806" lon="2.05593">
        <ele>569.2179968</ele>
        <time>2016-11-01T13:36:04.008Z</time>
      </trkpt>
      <trkpt lat="42.92811" lon="2.05593">
        <ele>570</ele>
        <time>2016-11-01T13:36:06.008Z</time>
      </trkpt>
      <trkpt lat="42.92815" lon="2.05592">
        <ele>571</ele>
        <time>2016-11-01T13:36:08.008Z</time>
      </trkpt>
      <trkpt lat="42.9282" lon="2.05591">
        <ele>571.2179968</ele>
        <time>2016-11-01T13:36:10.008Z</time>
      </trkpt>
      <trkpt lat="42.92825" lon="2.0559">
        <ele>573</ele>
        <time>2016-11-01T13:36:12.008Z</time>
      </trkpt>
      <trkpt lat="42.92829" lon="2.0559">
        <ele>573</ele>
        <time>2016-11-01T13:36:14.008Z</time>
      </trkpt>
      <trkpt lat="42.92834" lon="2.05589">
        <ele>573</ele>
        <time>2016-11-01T13:36:16.008Z</time>
      </trkpt>
      <trkpt lat="42.92839" lon="2.05587">
        <ele>573</ele>
        <time>2016-11-01T13:36:18.008Z</time>
      </trkpt>
      <trkpt lat="42.92844" lon="2.05583">
        <ele>573</ele>
        <time>2016-11-01T13:36:20.008Z</time>
      </trkpt>
      <trkpt lat="42.92849" lon="2.0558">
        <ele>573</ele>
        <time>2016-11-01T13:36:22.008Z</time>
      </trkpt>
      <trkpt lat="42.92854" lon="2.05577">
        <ele>573</ele>
        <time>2016-11-01T13:36:24.008Z</time>
      </trkpt>
      <trkpt lat="42.92858" lon="2.05575">
        <ele>573</ele>
        <time>2016-11-01T13:36:26.008Z</time>
      </trkpt>
      <trkpt lat="42.92863" lon="2.05573">
        <ele>573</ele>
        <time>2016-11-01T13:36:28.008Z</time>
      </trkpt>
      <trkpt lat="42.92867" lon="2.0557">
        <ele>573</ele>
        <time>2016-11-01T13:36:30.008Z</time>
      </trkpt>
      <trkpt lat="42.92872" lon="2.05568">
        <ele>575</ele>
        <time>2016-11-01T13:36:32.008Z</time>
      </trkpt>
      <trkpt lat="42.92876" lon="2.05566">
        <ele>575</ele>
        <time>2016-11-01T13:36:34.008Z</time>
      </trkpt>
      <trkpt lat="42.92881" lon="2.05563">
        <ele>575</ele>
        <time>2016-11-01T13:36:36.008Z</time>
      </trkpt>
      <trkpt lat="42.92885" lon="2.0556">
        <ele>575</ele>
        <time>2016-11-01T13:36:38.008Z</time>
      </trkpt>
      <trkpt lat="42.92889" lon="2.05557">
        <ele>575</ele>
        <time>2016-11-01T13:36:40.008Z</time>
      </trkpt>
      <trkpt lat="42.92894" lon="2.05553">
        <ele>578</ele>
        <time>2016-11-01T13:36:42.008Z</time>
      </trkpt>
      <trkpt lat="42.929" lon="2.05547">
        <ele>578</ele>
        <time>2016-11-01T13:36:45.008Z</time>
      </trkpt>
      <trkpt lat="42.92905" lon="2.05542">
        <ele>579</ele>
        <time>2016-11-01T13:36:47.008Z</time>
      </trkpt>
      <trkpt lat="42.92913" lon="2.05539">
        <ele>579</ele>
        <time>2016-11-01T13:36:50.008Z</time>
      </trkpt>
      <trkpt lat="42.92921" lon="2.05537">
        <ele>580</ele>
        <time>2016-11-01T13:36:53.008Z</time>
      </trkpt>
      <trkpt lat="42.92927" lon="2.05536">
        <ele>580</ele>
        <time>2016-11-01T13:36:55.008Z</time>
      </trkpt>
      <trkpt lat="42.92934" lon="2.05535">
        <ele>579</ele>
        <time>2016-11-01T13:36:57.008Z</time>
      </trkpt>
      <trkpt lat="42.92941" lon="2.05533">
        <ele>579</ele>
        <time>2016-11-01T13:36:59.008Z</time>
      </trkpt>
      <trkpt lat="42.92947" lon="2.05532">
        <ele>579</ele>
        <time>2016-11-01T13:37:01.008Z</time>
      </trkpt>
      <trkpt lat="42.92953" lon="2.05531">
        <ele>579</ele>
        <time>2016-11-01T13:37:03.008Z</time>
      </trkpt>
      <trkpt lat="42.92958" lon="2.0553">
        <ele>579</ele>
        <time>2016-11-01T13:37:05.008Z</time>
      </trkpt>
      <trkpt lat="42.92963" lon="2.05531">
        <ele>579</ele>
        <time>2016-11-01T13:37:07.008Z</time>
      </trkpt>
      <trkpt lat="42.92964" lon="2.05539">
        <ele>579</ele>
        <time>2016-11-01T13:37:10.008Z</time>
      </trkpt>
      <trkpt lat="42.92962" lon="2.05544">
        <ele>581</ele>
        <time>2016-11-01T13:37:12.008Z</time>
      </trkpt>
      <trkpt lat="42.92958" lon="2.05547">
        <ele>581</ele>
        <time>2016-11-01T13:37:14.008Z</time>
      </trkpt>
      <trkpt lat="42.92954" lon="2.05551">
        <ele>581</ele>
        <time>2016-11-01T13:37:17.008Z</time>
      </trkpt>
      <trkpt lat="42.9295" lon="2.05556">
        <ele>581</ele>
        <time>2016-11-01T13:37:20.008Z</time>
      </trkpt>
      <trkpt lat="42.92948" lon="2.05559">
        <ele>583</ele>
        <time>2016-11-01T13:37:29.008Z</time>
      </trkpt>
      <trkpt lat="42.92946" lon="2.05562">
        <ele>583</ele>
        <time>2016-11-01T13:37:52.008Z</time>
      </trkpt>
      <trkpt lat="42.92943" lon="2.05566">
        <ele>583</ele>
        <time>2016-11-01T13:37:55.008Z</time>
      </trkpt>
      <trkpt lat="42.92939" lon="2.0557">
        <ele>583</ele>
        <time>2016-11-01T13:37:58.008Z</time>
      </trkpt>
      <trkpt lat="42.92936" lon="2.05576">
        <ele>583.4359936</ele>
        <time>2016-11-01T13:38:01.008Z</time>
      </trkpt>
      <trkpt lat="42.92933" lon="2.05582">
        <ele>585</ele>
        <time>2016-11-01T13:38:04.008Z</time>
      </trkpt>
      <trkpt lat="42.9293" lon="2.05588">
        <ele>587</ele>
        <time>2016-11-01T13:38:07.008Z</time>
      </trkpt>
      <trkpt lat="42.92926" lon="2.05594">
        <ele>587</ele>
        <time>2016-11-01T13:38:10.008Z</time>
      </trkpt>
      <trkpt lat="42.92924" lon="2.056">
        <ele>589</ele>
        <time>2016-11-01T13:38:13.008Z</time>
      </trkpt>
      <trkpt lat="42.92922" lon="2.05606">
        <ele>589.4359936</ele>
        <time>2016-11-01T13:38:16.008Z</time>
      </trkpt>
      <trkpt lat="42.92919" lon="2.05613">
        <ele>591</ele>
        <time>2016-11-01T13:38:19.008Z</time>
      </trkpt>
      <trkpt lat="42.92916" lon="2.05619">
        <ele>592</ele>
        <time>2016-11-01T13:38:22.008Z</time>
      </trkpt>
      <trkpt lat="42.92913" lon="2.05626">
        <ele>592</ele>
        <time>2016-11-01T13:38:25.008Z</time>
      </trkpt>
      <trkpt lat="42.9291" lon="2.05632">
        <ele>593</ele>
        <time>2016-11-01T13:38:28.008Z</time>
      </trkpt>
      <trkpt lat="42.92908" lon="2.05639">
        <ele>593</ele>
        <time>2016-11-01T13:38:31.008Z</time>
      </trkpt>
      <trkpt lat="42.92905" lon="2.05645">
        <ele>593</ele>
        <time>2016-11-01T13:38:34.008Z</time>
      </trkpt>
      <trkpt lat="42.92902" lon="2.05651">
        <ele>593</ele>
        <time>2016-11-01T13:38:37.008Z</time>
      </trkpt>
      <trkpt lat="42.92901" lon="2.05657">
        <ele>593</ele>
        <time>2016-11-01T13:38:40.008Z</time>
      </trkpt>
      <trkpt lat="42.929" lon="2.05666">
        <ele>597</ele>
        <time>2016-11-01T13:38:44.008Z</time>
      </trkpt>
      <trkpt lat="42.92898" lon="2.05674">
        <ele>600</ele>
        <time>2016-11-01T13:38:47.008Z</time>
      </trkpt>
      <trkpt lat="42.92894" lon="2.0568">
        <ele>600</ele>
        <time>2016-11-01T13:38:50.008Z</time>
      </trkpt>
      <trkpt lat="42.92891" lon="2.05684">
        <ele>601</ele>
        <time>2016-11-01T13:38:52.008Z</time>
      </trkpt>
      <trkpt lat="42.92887" lon="2.05688">
        <ele>601</ele>
        <time>2016-11-01T13:38:54.008Z</time>
      </trkpt>
      <trkpt lat="42.92884" lon="2.05691">
        <ele>601.2179968</ele>
        <time>2016-11-01T13:38:56.008Z</time>
      </trkpt>
      <trkpt lat="42.9288" lon="2.05694">
        <ele>602</ele>
        <time>2016-11-01T13:38:58.008Z</time>
      </trkpt>
      <trkpt lat="42.92877" lon="2.05697">
        <ele>602</ele>
        <time>2016-11-01T13:39:00.008Z</time>
      </trkpt>
      <trkpt lat="42.92874" lon="2.05701">
        <ele>603</ele>
        <time>2016-11-01T13:39:02.008Z</time>
      </trkpt>
      <trkpt lat="42.92872" lon="2.05704">
        <ele>603</ele>
        <time>2016-11-01T13:39:04.008Z</time>
      </trkpt>
      <trkpt lat="42.92869" lon="2.05709">
        <ele>603.2179968</ele>
        <time>2016-11-01T13:39:06.008Z</time>
      </trkpt>
      <trkpt lat="42.92868" lon="2.05716">
        <ele>604</ele>
        <time>2016-11-01T13:39:09.008Z</time>
      </trkpt>
      <trkpt lat="42.92866" lon="2.05723">
        <ele>606</ele>
        <time>2016-11-01T13:39:12.008Z</time>
      </trkpt>
      <trkpt lat="42.92863" lon="2.05727">
        <ele>606</ele>
        <time>2016-11-01T13:39:14.008Z</time>
      </trkpt>
      <trkpt lat="42.92859" lon="2.05732">
        <ele>608</ele>
        <time>2016-11-01T13:39:17.008Z</time>
      </trkpt>
      <trkpt lat="42.92855" lon="2.05738">
        <ele>608</ele>
        <time>2016-11-01T13:39:20.008Z</time>
      </trkpt>
      <trkpt lat="42.92851" lon="2.05743">
        <ele>609</ele>
        <time>2016-11-01T13:39:23.008Z</time>
      </trkpt>
      <trkpt lat="42.92847" lon="2.05748">
        <ele>609.4359936</ele>
        <time>2016-11-01T13:39:26.008Z</time>
      </trkpt>
      <trkpt lat="42.92843" lon="2.05755">
        <ele>611</ele>
        <time>2016-11-01T13:39:29.008Z</time>
      </trkpt>
      <trkpt lat="42.9284" lon="2.05759">
        <ele>611.4359936</ele>
        <time>2016-11-01T13:39:31.008Z</time>
      </trkpt>
      <trkpt lat="42.92837" lon="2.05763">
        <ele>613</ele>
        <time>2016-11-01T13:39:33.008Z</time>
      </trkpt>
      <trkpt lat="42.92834" lon="2.05768">
        <ele>613</ele>
        <time>2016-11-01T13:39:35.008Z</time>
      </trkpt>
      <trkpt lat="42.92832" lon="2.05773">
        <ele>613</ele>
        <time>2016-11-01T13:39:37.008Z</time>
      </trkpt>
      <trkpt lat="42.92829" lon="2.05778">
        <ele>613</ele>
        <time>2016-11-01T13:39:39.008Z</time>
      </trkpt>
      <trkpt lat="42.92827" lon="2.05783">
        <ele>613.4359936</ele>
        <time>2016-11-01T13:39:41.008Z</time>
      </trkpt>
      <trkpt lat="42.92825" lon="2.05789">
        <ele>615</ele>
        <time>2016-11-01T13:39:43.008Z</time>
      </trkpt>
      <trkpt lat="42.92823" lon="2.05794">
        <ele>615</ele>
        <time>2016-11-01T13:39:45.008Z</time>
      </trkpt>
      <trkpt lat="42.92822" lon="2.058">
        <ele>615</ele>
        <time>2016-11-01T13:39:47.008Z</time>
      </trkpt>
      <trkpt lat="42.92821" lon="2.05805">
        <ele>615</ele>
        <time>2016-11-01T13:39:49.008Z</time>
      </trkpt>
      <trkpt lat="42.9282" lon="2.0581">
        <ele>615.4359936</ele>
        <time>2016-11-01T13:39:51.008Z</time>
      </trkpt>
      <trkpt lat="42.92818" lon="2.05816">
        <ele>617</ele>
        <time>2016-11-01T13:39:53.008Z</time>
      </trkpt>
      <trkpt lat="42.92816" lon="2.05821">
        <ele>617</ele>
        <time>2016-11-01T13:39:55.008Z</time>
      </trkpt>
      <trkpt lat="42.92814" lon="2.05827">
        <ele>617</ele>
        <time>2016-11-01T13:39:57.008Z</time>
      </trkpt>
      <trkpt lat="42.92812" lon="2.05834">
        <ele>617</ele>
        <time>2016-11-01T13:39:59.008Z</time>
      </trkpt>
      <trkpt lat="42.92811" lon="2.0584">
        <ele>617</ele>
        <time>2016-11-01T13:40:00.008Z</time>
      </trkpt>
      <trkpt lat="42.9281" lon="2.05846">
        <ele>617</ele>
        <time>2016-11-01T13:40:01.008Z</time>
      </trkpt>
      <trkpt lat="42.9281" lon="2.05853">
        <ele>617</ele>
        <time>2016-11-01T13:40:02.008Z</time>
      </trkpt>
      <trkpt lat="42.92809" lon="2.0586">
        <ele>617</ele>
        <time>2016-11-01T13:40:03.008Z</time>
      </trkpt>
      <trkpt lat="42.92808" lon="2.05868">
        <ele>617</ele>
        <time>2016-11-01T13:40:04.008Z</time>
      </trkpt>
      <trkpt lat="42.92807" lon="2.05876">
        <ele>617</ele>
        <time>2016-11-01T13:40:05.008Z</time>
      </trkpt>
      <trkpt lat="42.92806" lon="2.05889">
        <ele>617</ele>
        <time>2016-11-01T13:40:07.008Z</time>
      </trkpt>
      <trkpt lat="42.92805" lon="2.05895">
        <ele>617</ele>
        <time>2016-11-01T13:40:08.008Z</time>
      </trkpt>
      <trkpt lat="42.92804" lon="2.05904">
        <ele>617</ele>
        <time>2016-11-01T13:40:10.008Z</time>
      </trkpt>
      <trkpt lat="42.92803" lon="2.05913">
        <ele>618</ele>
        <time>2016-11-01T13:40:12.008Z</time>
      </trkpt>
      <trkpt lat="42.92802" lon="2.05921">
        <ele>618</ele>
        <time>2016-11-01T13:40:14.008Z</time>
      </trkpt>
      <trkpt lat="42.92802" lon="2.05929">
        <ele>618</ele>
        <time>2016-11-01T13:40:16.008Z</time>
      </trkpt>
      <trkpt lat="42.92801" lon="2.05937">
        <ele>618</ele>
        <time>2016-11-01T13:40:18.008Z</time>
      </trkpt>
      <trkpt lat="42.92799" lon="2.05944">
        <ele>618</ele>
        <time>2016-11-01T13:40:20.008Z</time>
      </trkpt>
      <trkpt lat="42.92797" lon="2.05952">
        <ele>619</ele>
        <time>2016-11-01T13:40:22.008Z</time>
      </trkpt>
      <trkpt lat="42.92795" lon="2.05959">
        <ele>619</ele>
        <time>2016-11-01T13:40:24.008Z</time>
      </trkpt>
      <trkpt lat="42.92795" lon="2.05967">
        <ele>619</ele>
        <time>2016-11-01T13:40:26.008Z</time>
      </trkpt>
      <trkpt lat="42.92795" lon="2.05974">
        <ele>619</ele>
        <time>2016-11-01T13:40:28.008Z</time>
      </trkpt>
      <trkpt lat="42.92796" lon="2.05981">
        <ele>619</ele>
        <time>2016-11-01T13:40:30.008Z</time>
      </trkpt>
      <trkpt lat="42.92797" lon="2.05987">
        <ele>621</ele>
        <time>2016-11-01T13:40:32.008Z</time>
      </trkpt>
      <trkpt lat="42.92798" lon="2.05993">
        <ele>621</ele>
        <time>2016-11-01T13:40:34.008Z</time>
      </trkpt>
      <trkpt lat="42.92799" lon="2.06002">
        <ele>621</ele>
        <time>2016-11-01T13:40:37.008Z</time>
      </trkpt>
      <trkpt lat="42.92798" lon="2.06008">
        <ele>621</ele>
        <time>2016-11-01T13:40:39.008Z</time>
      </trkpt>
      <trkpt lat="42.92795" lon="2.06015">
        <ele>621.2179968</ele>
        <time>2016-11-01T13:40:41.008Z</time>
      </trkpt>
      <trkpt lat="42.92794" lon="2.06022">
        <ele>622</ele>
        <time>2016-11-01T13:40:43.008Z</time>
      </trkpt>
      <trkpt lat="42.92793" lon="2.06029">
        <ele>622</ele>
        <time>2016-11-01T13:40:45.008Z</time>
      </trkpt>
      <trkpt lat="42.92793" lon="2.06036">
        <ele>622</ele>
        <time>2016-11-01T13:40:47.008Z</time>
      </trkpt>
      <trkpt lat="42.92794" lon="2.06042">
        <ele>622</ele>
        <time>2016-11-01T13:40:49.008Z</time>
      </trkpt>
      <trkpt lat="42.92794" lon="2.06051">
        <ele>625</ele>
        <time>2016-11-01T13:40:52.008Z</time>
      </trkpt>
      <trkpt lat="42.92796" lon="2.0606">
        <ele>625</ele>
        <time>2016-11-01T13:40:55.008Z</time>
      </trkpt>
      <trkpt lat="42.92796" lon="2.06066">
        <ele>628</ele>
        <time>2016-11-01T13:40:57.008Z</time>
      </trkpt>
      <trkpt lat="42.92797" lon="2.06072">
        <ele>628</ele>
        <time>2016-11-01T13:40:59.008Z</time>
      </trkpt>
      <trkpt lat="42.92798" lon="2.06078">
        <ele>628.4359936</ele>
        <time>2016-11-01T13:41:01.008Z</time>
      </trkpt>
      <trkpt lat="42.928" lon="2.06087">
        <ele>630</ele>
        <time>2016-11-01T13:41:04.008Z</time>
      </trkpt>
      <trkpt lat="42.92801" lon="2.06094">
        <ele>631</ele>
        <time>2016-11-01T13:41:06.008Z</time>
      </trkpt>
      <trkpt lat="42.92802" lon="2.061">
        <ele>631</ele>
        <time>2016-11-01T13:41:08.008Z</time>
      </trkpt>
      <trkpt lat="42.92803" lon="2.06107">
        <ele>631</ele>
        <time>2016-11-01T13:41:10.008Z</time>
      </trkpt>
      <trkpt lat="42.92803" lon="2.06115">
        <ele>631</ele>
        <time>2016-11-01T13:41:12.008Z</time>
      </trkpt>
      <trkpt lat="42.92803" lon="2.0612">
        <ele>631</ele>
        <time>2016-11-01T13:41:13.008Z</time>
      </trkpt>
      <trkpt lat="42.92805" lon="2.06125">
        <ele>631</ele>
        <time>2016-11-01T13:41:14.008Z</time>
      </trkpt>
      <trkpt lat="42.92806" lon="2.06129">
        <ele>631</ele>
        <time>2016-11-01T13:41:15.008Z</time>
      </trkpt>
      <trkpt lat="42.92807" lon="2.06137">
        <ele>631</ele>
        <time>2016-11-01T13:41:17.008Z</time>
      </trkpt>
      <trkpt lat="42.92808" lon="2.06142">
        <ele>631</ele>
        <time>2016-11-01T13:41:18.008Z</time>
      </trkpt>
      <trkpt lat="42.92808" lon="2.06151">
        <ele>631</ele>
        <time>2016-11-01T13:41:20.008Z</time>
      </trkpt>
      <trkpt lat="42.92808" lon="2.06159">
        <ele>631</ele>
        <time>2016-11-01T13:41:22.008Z</time>
      </trkpt>
      <trkpt lat="42.92809" lon="2.06167">
        <ele>631</ele>
        <time>2016-11-01T13:41:24.008Z</time>
      </trkpt>
      <trkpt lat="42.92809" lon="2.06175">
        <ele>631</ele>
        <time>2016-11-01T13:41:26.008Z</time>
      </trkpt>
      <trkpt lat="42.92812" lon="2.0618">
        <ele>631</ele>
        <time>2016-11-01T13:41:29.008Z</time>
      </trkpt>
      <trkpt lat="42.92817" lon="2.06179">
        <ele>632</ele>
        <time>2016-11-01T13:41:36.008Z</time>
      </trkpt>
      <trkpt lat="42.92823" lon="2.0618">
        <ele>635</ele>
        <time>2016-11-01T13:41:44.008Z</time>
      </trkpt>
      <trkpt lat="42.92827" lon="2.06179">
        <ele>638</ele>
        <time>2016-11-01T13:41:53.008Z</time>
      </trkpt>
      <trkpt lat="42.92833" lon="2.06178">
        <ele>640.2179968</ele>
        <time>2016-11-01T13:42:06.008Z</time>
      </trkpt>
      <trkpt lat="42.92838" lon="2.06177">
        <ele>645.2179968</ele>
        <time>2016-11-01T13:42:21.008Z</time>
      </trkpt>
      <trkpt lat="42.92844" lon="2.06177">
        <ele>648</ele>
        <time>2016-11-01T13:42:33.008Z</time>
      </trkpt>
      <trkpt lat="42.92847" lon="2.06181">
        <ele>649</ele>
        <time>2016-11-01T13:42:41.008Z</time>
      </trkpt>
      <trkpt lat="42.92847" lon="2.06187">
        <ele>649</ele>
        <time>2016-11-01T13:42:48.008Z</time>
      </trkpt>
      <trkpt lat="42.92845" lon="2.06193">
        <ele>650</ele>
        <time>2016-11-01T13:44:01.008Z</time>
      </trkpt>
      <trkpt lat="42.92844" lon="2.06198">
        <ele>650</ele>
        <time>2016-11-01T13:44:03.008Z</time>
      </trkpt>
      <trkpt lat="42.92843" lon="2.06206">
        <ele>650</ele>
        <time>2016-11-01T13:44:05.008Z</time>
      </trkpt>
      <trkpt lat="42.92843" lon="2.06214">
        <ele>650</ele>
        <time>2016-11-01T13:44:07.008Z</time>
      </trkpt>
      <trkpt lat="42.92842" lon="2.06223">
        <ele>650</ele>
        <time>2016-11-01T13:44:09.008Z</time>
      </trkpt>
      <trkpt lat="42.92843" lon="2.06232">
        <ele>650</ele>
        <time>2016-11-01T13:44:11.008Z</time>
      </trkpt>
      <trkpt lat="42.92845" lon="2.06242">
        <ele>650</ele>
        <time>2016-11-01T13:44:14.008Z</time>
      </trkpt>
      <trkpt lat="42.92847" lon="2.06253">
        <ele>650</ele>
        <time>2016-11-01T13:44:18.008Z</time>
      </trkpt>
      <trkpt lat="42.92849" lon="2.06262">
        <ele>650.4359936</ele>
        <time>2016-11-01T13:44:21.008Z</time>
      </trkpt>
      <trkpt lat="42.92847" lon="2.0627">
        <ele>652</ele>
        <time>2016-11-01T13:44:23.008Z</time>
      </trkpt>
      <trkpt lat="42.92846" lon="2.06281">
        <ele>652</ele>
        <time>2016-11-01T13:44:25.008Z</time>
      </trkpt>
      <trkpt lat="42.92844" lon="2.06292">
        <ele>652</ele>
        <time>2016-11-01T13:44:27.008Z</time>
      </trkpt>
      <trkpt lat="42.92845" lon="2.06302">
        <ele>652</ele>
        <time>2016-11-01T13:44:29.008Z</time>
      </trkpt>
      <trkpt lat="42.92849" lon="2.06311">
        <ele>654</ele>
        <time>2016-11-01T13:44:32.008Z</time>
      </trkpt>
      <trkpt lat="42.9285" lon="2.06319">
        <ele>654</ele>
        <time>2016-11-01T13:44:38.008Z</time>
      </trkpt>
      <trkpt lat="42.92848" lon="2.06324">
        <ele>655</ele>
        <time>2016-11-01T13:45:01.008Z</time>
      </trkpt>
      <trkpt lat="42.92847" lon="2.06329">
        <ele>655</ele>
        <time>2016-11-01T13:45:39.008Z</time>
      </trkpt>
      <trkpt lat="42.92846" lon="2.06337">
        <ele>655</ele>
        <time>2016-11-01T13:45:44.008Z</time>
      </trkpt>
      <trkpt lat="42.92847" lon="2.06346">
        <ele>655</ele>
        <time>2016-11-01T13:45:48.008Z</time>
      </trkpt>
      <trkpt lat="42.92849" lon="2.06355">
        <ele>655</ele>
        <time>2016-11-01T13:45:51.008Z</time>
      </trkpt>
      <trkpt lat="42.92849" lon="2.06363">
        <ele>655</ele>
        <time>2016-11-01T13:45:53.008Z</time>
      </trkpt>
      <trkpt lat="42.92848" lon="2.06374">
        <ele>655</ele>
        <time>2016-11-01T13:45:55.008Z</time>
      </trkpt>
      <trkpt lat="42.92849" lon="2.06383">
        <ele>655</ele>
        <time>2016-11-01T13:45:57.008Z</time>
      </trkpt>
      <trkpt lat="42.92851" lon="2.06395">
        <ele>655</ele>
        <time>2016-11-01T13:46:00.008Z</time>
      </trkpt>
      <trkpt lat="42.92849" lon="2.06403">
        <ele>656</ele>
        <time>2016-11-01T13:46:03.008Z</time>
      </trkpt>
      <trkpt lat="42.92846" lon="2.06418">
        <ele>656</ele>
        <time>2016-11-01T13:46:08.008Z</time>
      </trkpt>
      <trkpt lat="42.92843" lon="2.0643">
        <ele>656</ele>
        <time>2016-11-01T13:46:11.008Z</time>
      </trkpt>
      <trkpt lat="42.92845" lon="2.0644">
        <ele>656</ele>
        <time>2016-11-01T13:46:14.008Z</time>
      </trkpt>
      <trkpt lat="42.92849" lon="2.0645">
        <ele>656</ele>
        <time>2016-11-01T13:46:18.008Z</time>
      </trkpt>
      <trkpt lat="42.92853" lon="2.06456">
        <ele>656.2179968</ele>
        <time>2016-11-01T13:46:21.008Z</time>
      </trkpt>
      <trkpt lat="42.92856" lon="2.06465">
        <ele>657</ele>
        <time>2016-11-01T13:46:24.008Z</time>
      </trkpt>
      <trkpt lat="42.9286" lon="2.06471">
        <ele>657</ele>
        <time>2016-11-01T13:46:27.008Z</time>
      </trkpt>
      <trkpt lat="42.92863" lon="2.06481">
        <ele>657.6539904</ele>
        <time>2016-11-01T13:46:31.008Z</time>
      </trkpt>
      <trkpt lat="42.92863" lon="2.0649">
        <ele>660</ele>
        <time>2016-11-01T13:46:35.008Z</time>
      </trkpt>
      <trkpt lat="42.92864" lon="2.06499">
        <ele>661</ele>
        <time>2016-11-01T13:46:39.008Z</time>
      </trkpt>
      <trkpt lat="42.92864" lon="2.06509">
        <ele>662</ele>
        <time>2016-11-01T13:46:53.008Z</time>
      </trkpt>
      <trkpt lat="42.92863" lon="2.06519">
        <ele>662</ele>
        <time>2016-11-01T13:46:57.008Z</time>
      </trkpt>
      <trkpt lat="42.92864" lon="2.0653">
        <ele>662</ele>
        <time>2016-11-01T13:47:01.008Z</time>
      </trkpt>
      <trkpt lat="42.92859" lon="2.06544">
        <ele>662</ele>
        <time>2016-11-01T13:47:06.008Z</time>
      </trkpt>
      <trkpt lat="42.92855" lon="2.06557">
        <ele>662</ele>
        <time>2016-11-01T13:47:09.008Z</time>
      </trkpt>
      <trkpt lat="42.9285" lon="2.06571">
        <ele>662</ele>
        <time>2016-11-01T13:47:13.008Z</time>
      </trkpt>
      <trkpt lat="42.92847" lon="2.06583">
        <ele>662</ele>
        <time>2016-11-01T13:47:17.008Z</time>
      </trkpt>
      <trkpt lat="42.92846" lon="2.06599">
        <ele>664</ele>
        <time>2016-11-01T13:47:22.008Z</time>
      </trkpt>
      <trkpt lat="42.92843" lon="2.06614">
        <ele>664</ele>
        <time>2016-11-01T13:47:27.008Z</time>
      </trkpt>
      <trkpt lat="42.92843" lon="2.06626">
        <ele>664</ele>
        <time>2016-11-01T13:47:34.008Z</time>
      </trkpt>
      <trkpt lat="42.92842" lon="2.0664">
        <ele>664</ele>
        <time>2016-11-01T13:47:41.008Z</time>
      </trkpt>
      <trkpt lat="42.92843" lon="2.06651">
        <ele>664</ele>
        <time>2016-11-01T13:47:48.008Z</time>
      </trkpt>
      <trkpt lat="42.92843" lon="2.06664">
        <ele>664</ele>
        <time>2016-11-01T13:47:53.008Z</time>
      </trkpt>
      <trkpt lat="42.92839" lon="2.06678">
        <ele>664</ele>
        <time>2016-11-01T13:47:58.008Z</time>
      </trkpt>
      <trkpt lat="42.92837" lon="2.06694">
        <ele>664</ele>
        <time>2016-11-01T13:48:03.008Z</time>
      </trkpt>
      <trkpt lat="42.92835" lon="2.0671">
        <ele>664</ele>
        <time>2016-11-01T13:48:07.008Z</time>
      </trkpt>
      <trkpt lat="42.92833" lon="2.06725">
        <ele>663.7820032</ele>
        <time>2016-11-01T13:48:11.008Z</time>
      </trkpt>
      <trkpt lat="42.92832" lon="2.06744">
        <ele>663</ele>
        <time>2016-11-01T13:48:14.008Z</time>
      </trkpt>
      <trkpt lat="42.92836" lon="2.06757">
        <ele>663</ele>
        <time>2016-11-01T13:48:17.008Z</time>
      </trkpt>
      <trkpt lat="42.92842" lon="2.06768">
        <ele>663</ele>
        <time>2016-11-01T13:48:20.008Z</time>
      </trkpt>
      <trkpt lat="42.92849" lon="2.0678">
        <ele>662</ele>
        <time>2016-11-01T13:48:24.008Z</time>
      </trkpt>
      <trkpt lat="42.92854" lon="2.06793">
        <ele>662</ele>
        <time>2016-11-01T13:48:29.008Z</time>
      </trkpt>
      <trkpt lat="42.92853" lon="2.06806">
        <ele>664</ele>
        <time>2016-11-01T13:48:33.008Z</time>
      </trkpt>
      <trkpt lat="42.92849" lon="2.06822">
        <ele>664</ele>
        <time>2016-11-01T13:48:37.008Z</time>
      </trkpt>
      <trkpt lat="42.92847" lon="2.06837">
        <ele>664</ele>
        <time>2016-11-01T13:48:40.008Z</time>
      </trkpt>
      <trkpt lat="42.92849" lon="2.06855">
        <ele>663</ele>
        <time>2016-11-01T13:48:44.008Z</time>
      </trkpt>
      <trkpt lat="42.92848" lon="2.06872">
        <ele>663</ele>
        <time>2016-11-01T13:48:48.008Z</time>
      </trkpt>
      <trkpt lat="42.92848" lon="2.06886">
        <ele>662.7820032</ele>
        <time>2016-11-01T13:48:51.008Z</time>
      </trkpt>
      <trkpt lat="42.92847" lon="2.06902">
        <ele>662</ele>
        <time>2016-11-01T13:48:55.008Z</time>
      </trkpt>
      <trkpt lat="42.92842" lon="2.06916">
        <ele>662.8719872</ele>
        <time>2016-11-01T13:49:01.008Z</time>
      </trkpt>
      <trkpt lat="42.92841" lon="2.06932">
        <ele>666</ele>
        <time>2016-11-01T13:49:06.008Z</time>
      </trkpt>
      <trkpt lat="42.92842" lon="2.06947">
        <ele>666</ele>
        <time>2016-11-01T13:49:10.008Z</time>
      </trkpt>
      <trkpt lat="42.92845" lon="2.06963">
        <ele>666</ele>
        <time>2016-11-01T13:49:14.008Z</time>
      </trkpt>
      <trkpt lat="42.92848" lon="2.06977">
        <ele>666</ele>
        <time>2016-11-01T13:49:18.008Z</time>
      </trkpt>
      <trkpt lat="42.92851" lon="2.06994">
        <ele>666</ele>
        <time>2016-11-01T13:49:23.008Z</time>
      </trkpt>
      <trkpt lat="42.92852" lon="2.07009">
        <ele>666</ele>
        <time>2016-11-01T13:49:27.008Z</time>
      </trkpt>
      <trkpt lat="42.9285" lon="2.07024">
        <ele>666</ele>
        <time>2016-11-01T13:49:32.008Z</time>
      </trkpt>
      <trkpt lat="42.9285" lon="2.07038">
        <ele>666</ele>
        <time>2016-11-01T13:49:37.008Z</time>
      </trkpt>
      <trkpt lat="42.92849" lon="2.07056">
        <ele>666</ele>
        <time>2016-11-01T13:49:41.008Z</time>
      </trkpt>
      <trkpt lat="42.92851" lon="2.07073">
        <ele>666</ele>
        <time>2016-11-01T13:49:45.008Z</time>
      </trkpt>
      <trkpt lat="42.9285" lon="2.07087">
        <ele>666</ele>
        <time>2016-11-01T13:49:48.008Z</time>
      </trkpt>
      <trkpt lat="42.92849" lon="2.07104">
        <ele>665</ele>
        <time>2016-11-01T13:49:52.008Z</time>
      </trkpt>
      <trkpt lat="42.92848" lon="2.07121">
        <ele>665</ele>
        <time>2016-11-01T13:49:56.008Z</time>
      </trkpt>
      <trkpt lat="42.92852" lon="2.07134">
        <ele>665</ele>
        <time>2016-11-01T13:49:59.008Z</time>
      </trkpt>
      <trkpt lat="42.92859" lon="2.07147">
        <ele>661</ele>
        <time>2016-11-01T13:50:02.008Z</time>
      </trkpt>
      <trkpt lat="42.92865" lon="2.07161">
        <ele>661</ele>
        <time>2016-11-01T13:50:05.008Z</time>
      </trkpt>
      <trkpt lat="42.9287" lon="2.07175">
        <ele>661</ele>
        <time>2016-11-01T13:50:08.008Z</time>
      </trkpt>
      <trkpt lat="42.92871" lon="2.07189">
        <ele>660.7820032</ele>
        <time>2016-11-01T13:50:11.008Z</time>
      </trkpt>
      <trkpt lat="42.92875" lon="2.072">
        <ele>660</ele>
        <time>2016-11-01T13:50:14.008Z</time>
      </trkpt>
      <trkpt lat="42.92877" lon="2.07219">
        <ele>660</ele>
        <time>2016-11-01T13:50:18.008Z</time>
      </trkpt>
      <trkpt lat="42.92874" lon="2.07233">
        <ele>659.3460096</ele>
        <time>2016-11-01T13:50:21.008Z</time>
      </trkpt>
      <trkpt lat="42.92871" lon="2.07243">
        <ele>656</ele>
        <time>2016-11-01T13:50:27.008Z</time>
      </trkpt>
      <trkpt lat="42.92869" lon="2.07249">
        <ele>653.5640064</ele>
        <time>2016-11-01T13:50:36.008Z</time>
      </trkpt>
      <trkpt lat="42.92864" lon="2.07256">
        <ele>652</ele>
        <time>2016-11-01T13:50:40.008Z</time>
      </trkpt>
      <trkpt lat="42.92858" lon="2.07267">
        <ele>646</ele>
        <time>2016-11-01T13:50:47.008Z</time>
      </trkpt>
      <trkpt lat="42.92857" lon="2.0728">
        <ele>643</ele>
        <time>2016-11-01T13:50:53.008Z</time>
      </trkpt>
      <trkpt lat="42.92858" lon="2.07294">
        <ele>641.7820032</ele>
        <time>2016-11-01T13:50:56.008Z</time>
      </trkpt>
      <trkpt lat="42.92855" lon="2.07312">
        <ele>641</ele>
        <time>2016-11-01T13:50:59.008Z</time>
      </trkpt>
      <trkpt lat="42.92855" lon="2.07328">
        <ele>641</ele>
        <time>2016-11-01T13:51:02.008Z</time>
      </trkpt>
      <trkpt lat="42.92861" lon="2.07341">
        <ele>641</ele>
        <time>2016-11-01T13:51:05.008Z</time>
      </trkpt>
      <trkpt lat="42.92867" lon="2.07354">
        <ele>640</ele>
        <time>2016-11-01T13:51:08.008Z</time>
      </trkpt>
      <trkpt lat="42.92868" lon="2.07369">
        <ele>639.5640064</ele>
        <time>2016-11-01T13:51:11.008Z</time>
      </trkpt>
      <trkpt lat="42.92869" lon="2.07385">
        <ele>638</ele>
        <time>2016-11-01T13:51:14.008Z</time>
      </trkpt>
      <trkpt lat="42.92879" lon="2.07385">
        <ele>637</ele>
        <time>2016-11-01T13:51:19.008Z</time>
      </trkpt>
      <trkpt lat="42.92892" lon="2.07392">
        <ele>636</ele>
        <time>2016-11-01T13:51:22.008Z</time>
      </trkpt>
      <trkpt lat="42.929" lon="2.07406">
        <ele>636</ele>
        <time>2016-11-01T13:51:25.008Z</time>
      </trkpt>
      <trkpt lat="42.92904" lon="2.0742">
        <ele>636</ele>
        <time>2016-11-01T13:51:28.008Z</time>
      </trkpt>
      <trkpt lat="42.92916" lon="2.07419">
        <ele>625.7820032</ele>
        <time>2016-11-01T13:51:33.008Z</time>
      </trkpt>
      <trkpt lat="42.92925" lon="2.07414">
        <ele>625</ele>
        <time>2016-11-01T13:51:35.008Z</time>
      </trkpt>
      <trkpt lat="42.92939" lon="2.07408">
        <ele>623.7820032</ele>
        <time>2016-11-01T13:51:38.008Z</time>
      </trkpt>
      <trkpt lat="42.92951" lon="2.07399">
        <ele>618.7820032</ele>
        <time>2016-11-01T13:51:41.008Z</time>
      </trkpt>
      <trkpt lat="42.92964" lon="2.0739">
        <ele>617.5640064</ele>
        <time>2016-11-01T13:51:44.008Z</time>
      </trkpt>
      <trkpt lat="42.92973" lon="2.07383">
        <ele>614.7820032</ele>
        <time>2016-11-01T13:51:47.008Z</time>
      </trkpt>
      <trkpt lat="42.9298" lon="2.07372">
        <ele>611.7820032</ele>
        <time>2016-11-01T13:51:50.008Z</time>
      </trkpt>
      <trkpt lat="42.92992" lon="2.07375">
        <ele>609</ele>
        <time>2016-11-01T13:51:54.008Z</time>
      </trkpt>
      <trkpt lat="42.93003" lon="2.07379">
        <ele>605.7820032</ele>
        <time>2016-11-01T13:51:58.008Z</time>
      </trkpt>
      <trkpt lat="42.93015" lon="2.07384">
        <ele>602.5640064</ele>
        <time>2016-11-01T13:52:01.008Z</time>
      </trkpt>
      <trkpt lat="42.93026" lon="2.07389">
        <ele>598.7820032</ele>
        <time>2016-11-01T13:52:05.008Z</time>
      </trkpt>
      <trkpt lat="42.93037" lon="2.07395">
        <ele>596.3460096</ele>
        <time>2016-11-01T13:52:08.008Z</time>
      </trkpt>
      <trkpt lat="42.93045" lon="2.07403">
        <ele>592.7820032</ele>
        <time>2016-11-01T13:52:10.008Z</time>
      </trkpt>
      <trkpt lat="42.93054" lon="2.07415">
        <ele>590.7820032</ele>
        <time>2016-11-01T13:52:12.008Z</time>
      </trkpt>
      <trkpt lat="42.93061" lon="2.07428">
        <ele>589</ele>
        <time>2016-11-01T13:52:14.008Z</time>
      </trkpt>
      <trkpt lat="42.93066" lon="2.07446">
        <ele>587.7820032</ele>
        <time>2016-11-01T13:52:16.008Z</time>
      </trkpt>
      <trkpt lat="42.9307" lon="2.07466">
        <ele>585.7820032</ele>
        <time>2016-11-01T13:52:18.008Z</time>
      </trkpt>
      <trkpt lat="42.93075" lon="2.0748">
        <ele>583.7820032</ele>
        <time>2016-11-01T13:52:20.008Z</time>
      </trkpt>
      <trkpt lat="42.93082" lon="2.07492">
        <ele>581.7820032</ele>
        <time>2016-11-01T13:52:22.008Z</time>
      </trkpt>
      <trkpt lat="42.93089" lon="2.07502">
        <ele>579.5640064</ele>
        <time>2016-11-01T13:52:24.008Z</time>
      </trkpt>
      <trkpt lat="42.93097" lon="2.0752">
        <ele>575.7820032</ele>
        <time>2016-11-01T13:52:27.008Z</time>
      </trkpt>
      <trkpt lat="42.93111" lon="2.07528">
        <ele>572.7820032</ele>
        <time>2016-11-01T13:52:30.008Z</time>
      </trkpt>
      <trkpt lat="42.93123" lon="2.0753">
        <ele>571</ele>
        <time>2016-11-01T13:52:32.008Z</time>
      </trkpt>
      <trkpt lat="42.93137" lon="2.07531">
        <ele>568.7820032</ele>
        <time>2016-11-01T13:52:35.008Z</time>
      </trkpt>
      <trkpt lat="42.93149" lon="2.0753">
        <ele>565.7820032</ele>
        <time>2016-11-01T13:52:38.008Z</time>
      </trkpt>
      <trkpt lat="42.9316" lon="2.07533">
        <ele>564</ele>
        <time>2016-11-01T13:52:40.008Z</time>
      </trkpt>
      <trkpt lat="42.93171" lon="2.07536">
        <ele>563.7820032</ele>
        <time>2016-11-01T13:52:42.008Z</time>
      </trkpt>
      <trkpt lat="42.93183" lon="2.07529">
        <ele>562</ele>
        <time>2016-11-01T13:52:45.008Z</time>
      </trkpt>
      <trkpt lat="42.93193" lon="2.07528">
        <ele>562</ele>
        <time>2016-11-01T13:52:47.008Z</time>
      </trkpt>
      <trkpt lat="42.93205" lon="2.07527">
        <ele>562</ele>
        <time>2016-11-01T13:52:49.008Z</time>
      </trkpt>
      <trkpt lat="42.93216" lon="2.07524">
        <ele>560.7820032</ele>
        <time>2016-11-01T13:52:51.008Z</time>
      </trkpt>
      <trkpt lat="42.9323" lon="2.07523">
        <ele>560</ele>
        <time>2016-11-01T13:52:54.008Z</time>
      </trkpt>
      <trkpt lat="42.93237" lon="2.07517">
        <ele>560</ele>
        <time>2016-11-01T13:52:58.008Z</time>
      </trkpt>
      <trkpt lat="42.93242" lon="2.0751">
        <ele>559</ele>
        <time>2016-11-01T13:53:04.008Z</time>
      </trkpt>
      <trkpt lat="42.9325" lon="2.07513">
        <ele>560</ele>
        <time>2016-11-01T13:53:15.008Z</time>
      </trkpt>
      <trkpt lat="42.93255" lon="2.07515">
        <ele>560</ele>
        <time>2016-11-01T13:53:18.008Z</time>
      </trkpt>
      <trkpt lat="42.93259" lon="2.07517">
        <ele>560</ele>
        <time>2016-11-01T13:53:20.008Z</time>
      </trkpt>
      <trkpt lat="42.93264" lon="2.0752">
        <ele>560</ele>
        <time>2016-11-01T13:53:22.008Z</time>
      </trkpt>
      <trkpt lat="42.93268" lon="2.07524">
        <ele>560</ele>
        <time>2016-11-01T13:53:24.008Z</time>
      </trkpt>
      <trkpt lat="42.93272" lon="2.07529">
        <ele>560</ele>
        <time>2016-11-01T13:53:26.008Z</time>
      </trkpt>
      <trkpt lat="42.93277" lon="2.07533">
        <ele>560</ele>
        <time>2016-11-01T13:53:28.008Z</time>
      </trkpt>
      <trkpt lat="42.93281" lon="2.07537">
        <ele>560</ele>
        <time>2016-11-01T13:53:30.008Z</time>
      </trkpt>
      <trkpt lat="42.93286" lon="2.07542">
        <ele>562</ele>
        <time>2016-11-01T13:53:32.008Z</time>
      </trkpt>
      <trkpt lat="42.93291" lon="2.07547">
        <ele>562</ele>
        <time>2016-11-01T13:53:34.008Z</time>
      </trkpt>
      <trkpt lat="42.93296" lon="2.07552">
        <ele>562</ele>
        <time>2016-11-01T13:53:36.008Z</time>
      </trkpt>
      <trkpt lat="42.93301" lon="2.07556">
        <ele>562</ele>
        <time>2016-11-01T13:53:38.008Z</time>
      </trkpt>
      <trkpt lat="42.93306" lon="2.07561">
        <ele>562</ele>
        <time>2016-11-01T13:53:40.008Z</time>
      </trkpt>
      <trkpt lat="42.93311" lon="2.07567">
        <ele>563</ele>
        <time>2016-11-01T13:53:42.008Z</time>
      </trkpt>
      <trkpt lat="42.93316" lon="2.07572">
        <ele>563</ele>
        <time>2016-11-01T13:53:44.008Z</time>
      </trkpt>
      <trkpt lat="42.93321" lon="2.07577">
        <ele>563</ele>
        <time>2016-11-01T13:53:46.008Z</time>
      </trkpt>
      <trkpt lat="42.93326" lon="2.07584">
        <ele>563</ele>
        <time>2016-11-01T13:53:48.008Z</time>
      </trkpt>
      <trkpt lat="42.9333" lon="2.0759">
        <ele>563</ele>
        <time>2016-11-01T13:53:50.008Z</time>
      </trkpt>
      <trkpt lat="42.93334" lon="2.07598">
        <ele>565</ele>
        <time>2016-11-01T13:53:52.008Z</time>
      </trkpt>
      <trkpt lat="42.93337" lon="2.07606">
        <ele>565</ele>
        <time>2016-11-01T13:53:54.008Z</time>
      </trkpt>
      <trkpt lat="42.9334" lon="2.07614">
        <ele>565</ele>
        <time>2016-11-01T13:53:56.008Z</time>
      </trkpt>
      <trkpt lat="42.93342" lon="2.07623">
        <ele>565</ele>
        <time>2016-11-01T13:53:58.008Z</time>
      </trkpt>
      <trkpt lat="42.93344" lon="2.07632">
        <ele>565</ele>
        <time>2016-11-01T13:54:00.008Z</time>
      </trkpt>
      <trkpt lat="42.93345" lon="2.07641">
        <ele>568</ele>
        <time>2016-11-01T13:54:02.008Z</time>
      </trkpt>
      <trkpt lat="42.93347" lon="2.0765">
        <ele>568</ele>
        <time>2016-11-01T13:54:04.008Z</time>
      </trkpt>
      <trkpt lat="42.93348" lon="2.07659">
        <ele>568.2179968</ele>
        <time>2016-11-01T13:54:06.008Z</time>
      </trkpt>
      <trkpt lat="42.93349" lon="2.07668">
        <ele>569</ele>
        <time>2016-11-01T13:54:08.008Z</time>
      </trkpt>
      <trkpt lat="42.9335" lon="2.07677">
        <ele>569</ele>
        <time>2016-11-01T13:54:10.008Z</time>
      </trkpt>
      <trkpt lat="42.93352" lon="2.07686">
        <ele>570</ele>
        <time>2016-11-01T13:54:12.008Z</time>
      </trkpt>
      <trkpt lat="42.93354" lon="2.07694">
        <ele>570</ele>
        <time>2016-11-01T13:54:14.008Z</time>
      </trkpt>
      <trkpt lat="42.93356" lon="2.07703">
        <ele>570</ele>
        <time>2016-11-01T13:54:16.008Z</time>
      </trkpt>
      <trkpt lat="42.93359" lon="2.07711">
        <ele>570</ele>
        <time>2016-11-01T13:54:18.008Z</time>
      </trkpt>
      <trkpt lat="42.93362" lon="2.07719">
        <ele>570</ele>
        <time>2016-11-01T13:54:20.008Z</time>
      </trkpt>
      <trkpt lat="42.93367" lon="2.07731">
        <ele>571</ele>
        <time>2016-11-01T13:54:23.008Z</time>
      </trkpt>
      <trkpt lat="42.93371" lon="2.07739">
        <ele>571</ele>
        <time>2016-11-01T13:54:25.008Z</time>
      </trkpt>
      <trkpt lat="42.93375" lon="2.07747">
        <ele>571</ele>
        <time>2016-11-01T13:54:27.008Z</time>
      </trkpt>
      <trkpt lat="42.93378" lon="2.07755">
        <ele>571</ele>
        <time>2016-11-01T13:54:29.008Z</time>
      </trkpt>
      <trkpt lat="42.93382" lon="2.07763">
        <ele>571.2179968</ele>
        <time>2016-11-01T13:54:31.008Z</time>
      </trkpt>
      <trkpt lat="42.93387" lon="2.07771">
        <ele>572</ele>
        <time>2016-11-01T13:54:33.008Z</time>
      </trkpt>
      <trkpt lat="42.93391" lon="2.0778">
        <ele>572</ele>
        <time>2016-11-01T13:54:35.008Z</time>
      </trkpt>
      <trkpt lat="42.93395" lon="2.07787">
        <ele>572</ele>
        <time>2016-11-01T13:54:37.008Z</time>
      </trkpt>
      <trkpt lat="42.93401" lon="2.07797">
        <ele>572</ele>
        <time>2016-11-01T13:54:40.008Z</time>
      </trkpt>
      <trkpt lat="42.93409" lon="2.07804">
        <ele>574</ele>
        <time>2016-11-01T13:54:43.008Z</time>
      </trkpt>
      <trkpt lat="42.93416" lon="2.07805">
        <ele>574</ele>
        <time>2016-11-01T13:54:45.008Z</time>
      </trkpt>
      <trkpt lat="42.93422" lon="2.07801">
        <ele>574</ele>
        <time>2016-11-01T13:54:47.008Z</time>
      </trkpt>
      <trkpt lat="42.93426" lon="2.07795">
        <ele>574</ele>
        <time>2016-11-01T13:54:49.008Z</time>
      </trkpt>
      <trkpt lat="42.93426" lon="2.07786">
        <ele>574.4359936</ele>
        <time>2016-11-01T13:54:51.008Z</time>
      </trkpt>
      <trkpt lat="42.93424" lon="2.07778">
        <ele>576</ele>
        <time>2016-11-01T13:54:53.008Z</time>
      </trkpt>
      <trkpt lat="42.9342" lon="2.07771">
        <ele>576</ele>
        <time>2016-11-01T13:54:55.008Z</time>
      </trkpt>
      <trkpt lat="42.93415" lon="2.07765">
        <ele>576</ele>
        <time>2016-11-01T13:54:57.008Z</time>
      </trkpt>
      <trkpt lat="42.9341" lon="2.07758">
        <ele>576</ele>
        <time>2016-11-01T13:54:59.008Z</time>
      </trkpt>
      <trkpt lat="42.93405" lon="2.07752">
        <ele>576.4359936</ele>
        <time>2016-11-01T13:55:01.008Z</time>
      </trkpt>
      <trkpt lat="42.934" lon="2.07745">
        <ele>578</ele>
        <time>2016-11-01T13:55:03.008Z</time>
      </trkpt>
      <trkpt lat="42.93396" lon="2.07738">
        <ele>578</ele>
        <time>2016-11-01T13:55:05.008Z</time>
      </trkpt>
      <trkpt lat="42.93392" lon="2.0773">
        <ele>578</ele>
        <time>2016-11-01T13:55:07.008Z</time>
      </trkpt>
      <trkpt lat="42.93389" lon="2.07721">
        <ele>578</ele>
        <time>2016-11-01T13:55:09.008Z</time>
      </trkpt>
      <trkpt lat="42.93387" lon="2.07712">
        <ele>578.37264512176</ele>
        <time>2016-11-01T13:55:11.008Z</time>
      </trkpt>
      <trkpt lat="42.93385" lon="2.07703">
        <ele>580</ele>
        <time>2016-11-01T13:55:13.008Z</time>
      </trkpt>
      <trkpt lat="42.93384" lon="2.07693">
        <ele>580</ele>
        <time>2016-11-01T13:55:15.008Z</time>
      </trkpt>
      <trkpt lat="42.93385" lon="2.07684">
        <ele>580</ele>
        <time>2016-11-01T13:55:17.008Z</time>
      </trkpt>
      <trkpt lat="42.93386" lon="2.07674">
        <ele>580</ele>
        <time>2016-11-01T13:55:19.008Z</time>
      </trkpt>
      <trkpt lat="42.93389" lon="2.07665">
        <ele>580.2179968</ele>
        <time>2016-11-01T13:55:21.008Z</time>
      </trkpt>
      <trkpt lat="42.93392" lon="2.07656">
        <ele>581</ele>
        <time>2016-11-01T13:55:23.008Z</time>
      </trkpt>
      <trkpt lat="42.93395" lon="2.07648">
        <ele>581</ele>
        <time>2016-11-01T13:55:25.008Z</time>
      </trkpt>
      <trkpt lat="42.93397" lon="2.07644">
        <ele>581</ele>
        <time>2016-11-01T13:55:26.008Z</time>
      </trkpt>
      <trkpt lat="42.93399" lon="2.0764">
        <ele>581</ele>
        <time>2016-11-01T13:55:27.008Z</time>
      </trkpt>
      <trkpt lat="42.93401" lon="2.07636">
        <ele>581</ele>
        <time>2016-11-01T13:55:28.008Z</time>
      </trkpt>
      <trkpt lat="42.93403" lon="2.07633">
        <ele>581</ele>
        <time>2016-11-01T13:55:29.008Z</time>
      </trkpt>
      <trkpt lat="42.93406" lon="2.07629">
        <ele>581</ele>
        <time>2016-11-01T13:55:30.008Z</time>
      </trkpt>
      <trkpt lat="42.93408" lon="2.07625">
        <ele>581.4359936</ele>
        <time>2016-11-01T13:55:31.008Z</time>
      </trkpt>
      <trkpt lat="42.9341" lon="2.07622">
        <ele>583</ele>
        <time>2016-11-01T13:55:32.008Z</time>
      </trkpt>
      <trkpt lat="42.93413" lon="2.07618">
        <ele>583</ele>
        <time>2016-11-01T13:55:33.008Z</time>
      </trkpt>
      <trkpt lat="42.93415" lon="2.07615">
        <ele>583</ele>
        <time>2016-11-01T13:55:34.008Z</time>
      </trkpt>
      <trkpt lat="42.9342" lon="2.07608">
        <ele>583</ele>
        <time>2016-11-01T13:55:36.008Z</time>
      </trkpt>
      <trkpt lat="42.93425" lon="2.07601">
        <ele>583</ele>
        <time>2016-11-01T13:55:38.008Z</time>
      </trkpt>
      <trkpt lat="42.93429" lon="2.07594">
        <ele>583</ele>
        <time>2016-11-01T13:55:40.008Z</time>
      </trkpt>
      <trkpt lat="42.93434" lon="2.07587">
        <ele>585</ele>
        <time>2016-11-01T13:55:42.008Z</time>
      </trkpt>
      <trkpt lat="42.93439" lon="2.0758">
        <ele>585</ele>
        <time>2016-11-01T13:55:44.008Z</time>
      </trkpt>
      <trkpt lat="42.93444" lon="2.07573">
        <ele>585</ele>
        <time>2016-11-01T13:55:46.008Z</time>
      </trkpt>
      <trkpt lat="42.93449" lon="2.07566">
        <ele>585</ele>
        <time>2016-11-01T13:55:48.008Z</time>
      </trkpt>
      <trkpt lat="42.93453" lon="2.07559">
        <ele>585</ele>
        <time>2016-11-01T13:55:50.008Z</time>
      </trkpt>
      <trkpt lat="42.93458" lon="2.07551">
        <ele>588</ele>
        <time>2016-11-01T13:55:52.008Z</time>
      </trkpt>
      <trkpt lat="42.93462" lon="2.07543">
        <ele>588</ele>
        <time>2016-11-01T13:55:54.008Z</time>
      </trkpt>
      <trkpt lat="42.93467" lon="2.07535">
        <ele>588.2179968</ele>
        <time>2016-11-01T13:55:56.008Z</time>
      </trkpt>
      <trkpt lat="42.93471" lon="2.07527">
        <ele>589</ele>
        <time>2016-11-01T13:55:58.008Z</time>
      </trkpt>
      <trkpt lat="42.93474" lon="2.07518">
        <ele>589</ele>
        <time>2016-11-01T13:56:00.008Z</time>
      </trkpt>
      <trkpt lat="42.93478" lon="2.0751">
        <ele>589</ele>
        <time>2016-11-01T13:56:02.008Z</time>
      </trkpt>
      <trkpt lat="42.93481" lon="2.07501">
        <ele>589</ele>
        <time>2016-11-01T13:56:04.008Z</time>
      </trkpt>
      <trkpt lat="42.93484" lon="2.07491">
        <ele>589</ele>
        <time>2016-11-01T13:56:06.008Z</time>
      </trkpt>
      <trkpt lat="42.93486" lon="2.07482">
        <ele>589</ele>
        <time>2016-11-01T13:56:08.008Z</time>
      </trkpt>
      <trkpt lat="42.93489" lon="2.07473">
        <ele>589</ele>
        <time>2016-11-01T13:56:10.008Z</time>
      </trkpt>
      <trkpt lat="42.93491" lon="2.07463">
        <ele>591</ele>
        <time>2016-11-01T13:56:12.008Z</time>
      </trkpt>
      <trkpt lat="42.93493" lon="2.07454">
        <ele>591</ele>
        <time>2016-11-01T13:56:14.008Z</time>
      </trkpt>
      <trkpt lat="42.93495" lon="2.07444">
        <ele>591</ele>
        <time>2016-11-01T13:56:16.008Z</time>
      </trkpt>
      <trkpt lat="42.93496" lon="2.07435">
        <ele>591</ele>
        <time>2016-11-01T13:56:18.008Z</time>
      </trkpt>
      <trkpt lat="42.93499" lon="2.0742">
        <ele>591.6539904</ele>
        <time>2016-11-01T13:56:21.008Z</time>
      </trkpt>
      <trkpt lat="42.935" lon="2.07411">
        <ele>594</ele>
        <time>2016-11-01T13:56:23.008Z</time>
      </trkpt>
      <trkpt lat="42.93502" lon="2.07401">
        <ele>594</ele>
        <time>2016-11-01T13:56:25.008Z</time>
      </trkpt>
      <trkpt lat="42.93504" lon="2.07392">
        <ele>596</ele>
        <time>2016-11-01T13:56:27.008Z</time>
      </trkpt>
      <trkpt lat="42.93506" lon="2.07382">
        <ele>596</ele>
        <time>2016-11-01T13:56:29.008Z</time>
      </trkpt>
      <trkpt lat="42.93508" lon="2.07373">
        <ele>596.2179968</ele>
        <time>2016-11-01T13:56:31.008Z</time>
      </trkpt>
      <trkpt lat="42.9351" lon="2.07364">
        <ele>597</ele>
        <time>2016-11-01T13:56:33.008Z</time>
      </trkpt>
      <trkpt lat="42.93513" lon="2.07355">
        <ele>597</ele>
        <time>2016-11-01T13:56:35.008Z</time>
      </trkpt>
      <trkpt lat="42.93517" lon="2.07346">
        <ele>597</ele>
        <time>2016-11-01T13:56:37.008Z</time>
      </trkpt>
      <trkpt lat="42.93521" lon="2.07338">
        <ele>597</ele>
        <time>2016-11-01T13:56:39.008Z</time>
      </trkpt>
      <trkpt lat="42.93525" lon="2.07329">
        <ele>597.2179968</ele>
        <time>2016-11-01T13:56:41.008Z</time>
      </trkpt>
      <trkpt lat="42.93529" lon="2.07321">
        <ele>598</ele>
        <time>2016-11-01T13:56:43.008Z</time>
      </trkpt>
      <trkpt lat="42.93533" lon="2.07313">
        <ele>598</ele>
        <time>2016-11-01T13:56:45.008Z</time>
      </trkpt>
      <trkpt lat="42.93537" lon="2.07305">
        <ele>598</ele>
        <time>2016-11-01T13:56:47.008Z</time>
      </trkpt>
      <trkpt lat="42.93542" lon="2.07292">
        <ele>598</ele>
        <time>2016-11-01T13:56:50.008Z</time>
      </trkpt>
      <trkpt lat="42.93547" lon="2.07284">
        <ele>600</ele>
        <time>2016-11-01T13:56:52.008Z</time>
      </trkpt>
      <trkpt lat="42.93551" lon="2.07276">
        <ele>600</ele>
        <time>2016-11-01T13:56:54.008Z</time>
      </trkpt>
      <trkpt lat="42.93555" lon="2.07267">
        <ele>600</ele>
        <time>2016-11-01T13:56:56.008Z</time>
      </trkpt>
      <trkpt lat="42.93559" lon="2.07259">
        <ele>600</ele>
        <time>2016-11-01T13:56:58.008Z</time>
      </trkpt>
      <trkpt lat="42.93563" lon="2.0725">
        <ele>600</ele>
        <time>2016-11-01T13:57:00.008Z</time>
      </trkpt>
      <trkpt lat="42.93566" lon="2.07242">
        <ele>603</ele>
        <time>2016-11-01T13:57:02.008Z</time>
      </trkpt>
      <trkpt lat="42.93569" lon="2.07233">
        <ele>603</ele>
        <time>2016-11-01T13:57:04.008Z</time>
      </trkpt>
      <trkpt lat="42.93572" lon="2.07223">
        <ele>603</ele>
        <time>2016-11-01T13:57:06.008Z</time>
      </trkpt>
      <trkpt lat="42.93574" lon="2.07214">
        <ele>603</ele>
        <time>2016-11-01T13:57:08.008Z</time>
      </trkpt>
      <trkpt lat="42.93575" lon="2.07203">
        <ele>603</ele>
        <time>2016-11-01T13:57:10.008Z</time>
      </trkpt>
      <trkpt lat="42.93576" lon="2.07193">
        <ele>603</ele>
        <time>2016-11-01T13:57:12.008Z</time>
      </trkpt>
      <trkpt lat="42.93577" lon="2.07178">
        <ele>603</ele>
        <time>2016-11-01T13:57:15.008Z</time>
      </trkpt>
      <trkpt lat="42.93579" lon="2.07168">
        <ele>603</ele>
        <time>2016-11-01T13:57:17.008Z</time>
      </trkpt>
      <trkpt lat="42.93579" lon="2.07157">
        <ele>603</ele>
        <time>2016-11-01T13:57:19.008Z</time>
      </trkpt>
      <trkpt lat="42.93581" lon="2.07142">
        <ele>605</ele>
        <time>2016-11-01T13:57:22.008Z</time>
      </trkpt>
      <trkpt lat="42.93583" lon="2.07127">
        <ele>605</ele>
        <time>2016-11-01T13:57:25.008Z</time>
      </trkpt>
      <trkpt lat="42.93584" lon="2.07112">
        <ele>605</ele>
        <time>2016-11-01T13:57:28.008Z</time>
      </trkpt>
      <trkpt lat="42.93585" lon="2.07096">
        <ele>605.6539904</ele>
        <time>2016-11-01T13:57:31.008Z</time>
      </trkpt>
      <trkpt lat="42.93587" lon="2.07081">
        <ele>608</ele>
        <time>2016-11-01T13:57:34.008Z</time>
      </trkpt>
      <trkpt lat="42.9359" lon="2.07066">
        <ele>609</ele>
        <time>2016-11-01T13:57:37.008Z</time>
      </trkpt>
      <trkpt lat="42.93596" lon="2.07053">
        <ele>609</ele>
        <time>2016-11-01T13:57:40.008Z</time>
      </trkpt>
      <trkpt lat="42.93601" lon="2.0704">
        <ele>610</ele>
        <time>2016-11-01T13:57:43.008Z</time>
      </trkpt>
      <trkpt lat="42.93608" lon="2.07028">
        <ele>610</ele>
        <time>2016-11-01T13:57:46.008Z</time>
      </trkpt>
      <trkpt lat="42.93617" lon="2.0702">
        <ele>610</ele>
        <time>2016-11-01T13:57:49.008Z</time>
      </trkpt>
      <trkpt lat="42.93626" lon="2.07024">
        <ele>612</ele>
        <time>2016-11-01T13:57:52.008Z</time>
      </trkpt>
      <trkpt lat="42.93624" lon="2.07038">
        <ele>612</ele>
        <time>2016-11-01T13:57:55.008Z</time>
      </trkpt>
      <trkpt lat="42.93618" lon="2.07045">
        <ele>612</ele>
        <time>2016-11-01T13:57:57.008Z</time>
      </trkpt>
      <trkpt lat="42.93611" lon="2.07056">
        <ele>612</ele>
        <time>2016-11-01T13:58:00.008Z</time>
      </trkpt>
      <trkpt lat="42.93605" lon="2.07068">
        <ele>615</ele>
        <time>2016-11-01T13:58:03.008Z</time>
      </trkpt>
      <trkpt lat="42.93601" lon="2.07082">
        <ele>615.2179968</ele>
        <time>2016-11-01T13:58:06.008Z</time>
      </trkpt>
      <trkpt lat="42.936" lon="2.07096">
        <ele>616</ele>
        <time>2016-11-01T13:58:09.008Z</time>
      </trkpt>
      <trkpt lat="42.936" lon="2.07111">
        <ele>617</ele>
        <time>2016-11-01T13:58:12.008Z</time>
      </trkpt>
      <trkpt lat="42.93599" lon="2.07125">
        <ele>617</ele>
        <time>2016-11-01T13:58:15.008Z</time>
      </trkpt>
      <trkpt lat="42.93599" lon="2.0714">
        <ele>617</ele>
        <time>2016-11-01T13:58:18.008Z</time>
      </trkpt>
      <trkpt lat="42.93599" lon="2.07154">
        <ele>617.2179968</ele>
        <time>2016-11-01T13:58:21.008Z</time>
      </trkpt>
      <trkpt lat="42.93598" lon="2.07169">
        <ele>618</ele>
        <time>2016-11-01T13:58:24.008Z</time>
      </trkpt>
      <trkpt lat="42.93598" lon="2.07179">
        <ele>618</ele>
        <time>2016-11-01T13:58:26.008Z</time>
      </trkpt>
      <trkpt lat="42.93598" lon="2.07193">
        <ele>618</ele>
        <time>2016-11-01T13:58:29.008Z</time>
      </trkpt>
      <trkpt lat="42.93597" lon="2.07208">
        <ele>620</ele>
        <time>2016-11-01T13:58:32.008Z</time>
      </trkpt>
      <trkpt lat="42.93597" lon="2.07222">
        <ele>620</ele>
        <time>2016-11-01T13:58:35.008Z</time>
      </trkpt>
      <trkpt lat="42.93596" lon="2.07237">
        <ele>620</ele>
        <time>2016-11-01T13:58:38.008Z</time>
      </trkpt>
      <trkpt lat="42.93595" lon="2.07247">
        <ele>620</ele>
        <time>2016-11-01T13:58:40.008Z</time>
      </trkpt>
      <trkpt lat="42.93594" lon="2.07261">
        <ele>623</ele>
        <time>2016-11-01T13:58:43.008Z</time>
      </trkpt>
      <trkpt lat="42.93592" lon="2.07271">
        <ele>623</ele>
        <time>2016-11-01T13:58:45.008Z</time>
      </trkpt>
      <trkpt lat="42.93591" lon="2.07281">
        <ele>624</ele>
        <time>2016-11-01T13:58:47.008Z</time>
      </trkpt>
      <trkpt lat="42.9359" lon="2.0729">
        <ele>624</ele>
        <time>2016-11-01T13:58:49.008Z</time>
      </trkpt>
      <trkpt lat="42.93588" lon="2.073">
        <ele>624.2179968</ele>
        <time>2016-11-01T13:58:51.008Z</time>
      </trkpt>
      <trkpt lat="42.93586" lon="2.07309">
        <ele>625</ele>
        <time>2016-11-01T13:58:53.008Z</time>
      </trkpt>
      <trkpt lat="42.93583" lon="2.07318">
        <ele>625</ele>
        <time>2016-11-01T13:58:55.008Z</time>
      </trkpt>
      <trkpt lat="42.9358" lon="2.07333">
        <ele>625</ele>
        <time>2016-11-01T13:58:58.008Z</time>
      </trkpt>
      <trkpt lat="42.93577" lon="2.07342">
        <ele>625</ele>
        <time>2016-11-01T13:59:00.008Z</time>
      </trkpt>
      <trkpt lat="42.93573" lon="2.07356">
        <ele>627</ele>
        <time>2016-11-01T13:59:03.008Z</time>
      </trkpt>
      <trkpt lat="42.93569" lon="2.07369">
        <ele>627.2179968</ele>
        <time>2016-11-01T13:59:06.008Z</time>
      </trkpt>
      <trkpt lat="42.93566" lon="2.07383">
        <ele>628</ele>
        <time>2016-11-01T13:59:09.008Z</time>
      </trkpt>
      <trkpt lat="42.93565" lon="2.07398">
        <ele>629</ele>
        <time>2016-11-01T13:59:12.008Z</time>
      </trkpt>
      <trkpt lat="42.9357" lon="2.0741">
        <ele>629</ele>
        <time>2016-11-01T13:59:15.008Z</time>
      </trkpt>
      <trkpt lat="42.93579" lon="2.07415">
        <ele>629</ele>
        <time>2016-11-01T13:59:18.008Z</time>
      </trkpt>
      <trkpt lat="42.93585" lon="2.07412">
        <ele>629</ele>
        <time>2016-11-01T13:59:20.008Z</time>
      </trkpt>
      <trkpt lat="42.9359" lon="2.07406">
        <ele>632</ele>
        <time>2016-11-01T13:59:22.008Z</time>
      </trkpt>
      <trkpt lat="42.93592" lon="2.07396">
        <ele>632</ele>
        <time>2016-11-01T13:59:24.008Z</time>
      </trkpt>
      <trkpt lat="42.93594" lon="2.07387">
        <ele>632.4359936</ele>
        <time>2016-11-01T13:59:26.008Z</time>
      </trkpt>
      <trkpt lat="42.93595" lon="2.07377">
        <ele>634</ele>
        <time>2016-11-01T13:59:28.008Z</time>
      </trkpt>
      <trkpt lat="42.93596" lon="2.07367">
        <ele>634</ele>
        <time>2016-11-01T13:59:30.008Z</time>
      </trkpt>
      <trkpt lat="42.93598" lon="2.07357">
        <ele>635</ele>
        <time>2016-11-01T13:59:32.008Z</time>
      </trkpt>
      <trkpt lat="42.93601" lon="2.07342">
        <ele>635</ele>
        <time>2016-11-01T13:59:35.008Z</time>
      </trkpt>
      <trkpt lat="42.93605" lon="2.07329">
        <ele>635</ele>
        <time>2016-11-01T13:59:38.008Z</time>
      </trkpt>
      <trkpt lat="42.9361" lon="2.07316">
        <ele>635.2179968</ele>
        <time>2016-11-01T13:59:41.008Z</time>
      </trkpt>
      <trkpt lat="42.93614" lon="2.07307">
        <ele>636</ele>
        <time>2016-11-01T13:59:43.008Z</time>
      </trkpt>
      <trkpt lat="42.93617" lon="2.07297">
        <ele>636</ele>
        <time>2016-11-01T13:59:45.008Z</time>
      </trkpt>
      <trkpt lat="42.9362" lon="2.07288">
        <ele>636</ele>
        <time>2016-11-01T13:59:47.008Z</time>
      </trkpt>
      <trkpt lat="42.93624" lon="2.07279">
        <ele>636</ele>
        <time>2016-11-01T13:59:49.008Z</time>
      </trkpt>
      <trkpt lat="42.93627" lon="2.0727">
        <ele>636.43167819938</ele>
        <time>2016-11-01T13:59:51.008Z</time>
      </trkpt>
      <trkpt lat="42.9363" lon="2.07261">
        <ele>638</ele>
        <time>2016-11-01T13:59:53.008Z</time>
      </trkpt>
      <trkpt lat="42.93634" lon="2.07253">
        <ele>638</ele>
        <time>2016-11-01T13:59:55.008Z</time>
      </trkpt>
      <trkpt lat="42.93639" lon="2.07246">
        <ele>638</ele>
        <time>2016-11-01T13:59:57.008Z</time>
      </trkpt>
      <trkpt lat="42.93645" lon="2.07242">
        <ele>638</ele>
        <time>2016-11-01T13:59:59.008Z</time>
      </trkpt>
      <trkpt lat="42.93652" lon="2.0724">
        <ele>638.6539904</ele>
        <time>2016-11-01T14:00:01.008Z</time>
      </trkpt>
      <trkpt lat="42.9366" lon="2.07243">
        <ele>641</ele>
        <time>2016-11-01T14:00:03.008Z</time>
      </trkpt>
      <trkpt lat="42.93666" lon="2.07248">
        <ele>641</ele>
        <time>2016-11-01T14:00:05.008Z</time>
      </trkpt>
      <trkpt lat="42.93673" lon="2.07255">
        <ele>641</ele>
        <time>2016-11-01T14:00:07.008Z</time>
      </trkpt>
      <trkpt lat="42.93678" lon="2.07262">
        <ele>641</ele>
        <time>2016-11-01T14:00:09.008Z</time>
      </trkpt>
      <trkpt lat="42.93685" lon="2.07269">
        <ele>641.2179968</ele>
        <time>2016-11-01T14:00:11.008Z</time>
      </trkpt>
      <trkpt lat="42.93693" lon="2.07274">
        <ele>642</ele>
        <time>2016-11-01T14:00:13.008Z</time>
      </trkpt>
      <trkpt lat="42.93701" lon="2.07278">
        <ele>642</ele>
        <time>2016-11-01T14:00:15.008Z</time>
      </trkpt>
      <trkpt lat="42.93709" lon="2.07279">
        <ele>642</ele>
        <time>2016-11-01T14:00:17.008Z</time>
      </trkpt>
      <trkpt lat="42.93718" lon="2.07281">
        <ele>642</ele>
        <time>2016-11-01T14:00:19.008Z</time>
      </trkpt>
      <trkpt lat="42.93726" lon="2.0728">
        <ele>642.2179968</ele>
        <time>2016-11-01T14:00:21.008Z</time>
      </trkpt>
      <trkpt lat="42.93739" lon="2.0728">
        <ele>643</ele>
        <time>2016-11-01T14:00:24.008Z</time>
      </trkpt>
      <trkpt lat="42.93751" lon="2.07279">
        <ele>643</ele>
        <time>2016-11-01T14:00:27.008Z</time>
      </trkpt>
      <trkpt lat="42.93759" lon="2.07278">
        <ele>643</ele>
        <time>2016-11-01T14:00:29.008Z</time>
      </trkpt>
      <trkpt lat="42.93767" lon="2.07276">
        <ele>643</ele>
        <time>2016-11-01T14:00:31.008Z</time>
      </trkpt>
      <trkpt lat="42.9378" lon="2.07275">
        <ele>643</ele>
        <time>2016-11-01T14:00:34.008Z</time>
      </trkpt>
      <trkpt lat="42.93792" lon="2.07273">
        <ele>643</ele>
        <time>2016-11-01T14:00:37.008Z</time>
      </trkpt>
      <trkpt lat="42.93806" lon="2.07272">
        <ele>643</ele>
        <time>2016-11-01T14:00:40.008Z</time>
      </trkpt>
      <trkpt lat="42.93814" lon="2.07274">
        <ele>644</ele>
        <time>2016-11-01T14:00:42.008Z</time>
      </trkpt>
      <trkpt lat="42.93827" lon="2.07279">
        <ele>644</ele>
        <time>2016-11-01T14:00:45.008Z</time>
      </trkpt>
      <trkpt lat="42.93839" lon="2.07286">
        <ele>644</ele>
        <time>2016-11-01T14:00:48.008Z</time>
      </trkpt>
      <trkpt lat="42.93851" lon="2.07289">
        <ele>644.4359936</ele>
        <time>2016-11-01T14:00:51.008Z</time>
      </trkpt>
      <trkpt lat="42.93863" lon="2.07289">
        <ele>646</ele>
        <time>2016-11-01T14:00:54.008Z</time>
      </trkpt>
      <trkpt lat="42.93872" lon="2.07288">
        <ele>646</ele>
        <time>2016-11-01T14:00:56.008Z</time>
      </trkpt>
      <trkpt lat="42.9388" lon="2.07287">
        <ele>646</ele>
        <time>2016-11-01T14:00:58.008Z</time>
      </trkpt>
      <trkpt lat="42.93889" lon="2.07288">
        <ele>646</ele>
        <time>2016-11-01T14:01:00.008Z</time>
      </trkpt>
      <trkpt lat="42.93901" lon="2.07293">
        <ele>647</ele>
        <time>2016-11-01T14:01:03.008Z</time>
      </trkpt>
      <trkpt lat="42.93913" lon="2.07302">
        <ele>647</ele>
        <time>2016-11-01T14:01:06.008Z</time>
      </trkpt>
      <trkpt lat="42.93921" lon="2.07315">
        <ele>647</ele>
        <time>2016-11-01T14:01:09.008Z</time>
      </trkpt>
      <trkpt lat="42.93925" lon="2.07331">
        <ele>648</ele>
        <time>2016-11-01T14:01:12.008Z</time>
      </trkpt>
      <trkpt lat="42.93926" lon="2.0734">
        <ele>648</ele>
        <time>2016-11-01T14:01:14.008Z</time>
      </trkpt>
      <trkpt lat="42.93926" lon="2.07351">
        <ele>648</ele>
        <time>2016-11-01T14:01:16.008Z</time>
      </trkpt>
      <trkpt lat="42.93926" lon="2.07361">
        <ele>648</ele>
        <time>2016-11-01T14:01:18.008Z</time>
      </trkpt>
      <trkpt lat="42.93927" lon="2.07372">
        <ele>648</ele>
        <time>2016-11-01T14:01:20.008Z</time>
      </trkpt>
      <trkpt lat="42.93927" lon="2.07383">
        <ele>648</ele>
        <time>2016-11-01T14:01:22.008Z</time>
      </trkpt>
      <trkpt lat="42.93928" lon="2.07394">
        <ele>648</ele>
        <time>2016-11-01T14:01:24.008Z</time>
      </trkpt>
      <trkpt lat="42.93928" lon="2.07411">
        <ele>648</ele>
        <time>2016-11-01T14:01:27.008Z</time>
      </trkpt>
      <trkpt lat="42.93927" lon="2.07423">
        <ele>648</ele>
        <time>2016-11-01T14:01:29.008Z</time>
      </trkpt>
      <trkpt lat="42.93927" lon="2.0744">
        <ele>650</ele>
        <time>2016-11-01T14:01:32.008Z</time>
      </trkpt>
      <trkpt lat="42.93927" lon="2.07457">
        <ele>650</ele>
        <time>2016-11-01T14:01:35.008Z</time>
      </trkpt>
      <trkpt lat="42.93928" lon="2.07463">
        <ele>650</ele>
        <time>2016-11-01T14:01:36.008Z</time>
      </trkpt>
      <trkpt lat="42.93929" lon="2.07468">
        <ele>650</ele>
        <time>2016-11-01T14:01:37.008Z</time>
      </trkpt>
      <trkpt lat="42.93931" lon="2.07479">
        <ele>650</ele>
        <time>2016-11-01T14:01:39.008Z</time>
      </trkpt>
      <trkpt lat="42.93933" lon="2.07484">
        <ele>650</ele>
        <time>2016-11-01T14:01:40.008Z</time>
      </trkpt>
      <trkpt lat="42.93935" lon="2.07488">
        <ele>650.2179968</ele>
        <time>2016-11-01T14:01:41.008Z</time>
      </trkpt>
      <trkpt lat="42.93938" lon="2.07492">
        <ele>651</ele>
        <time>2016-11-01T14:01:42.008Z</time>
      </trkpt>
      <trkpt lat="42.93943" lon="2.075">
        <ele>651</ele>
        <time>2016-11-01T14:01:44.008Z</time>
      </trkpt>
      <trkpt lat="42.9395" lon="2.07506">
        <ele>651</ele>
        <time>2016-11-01T14:01:46.008Z</time>
      </trkpt>
      <trkpt lat="42.93959" lon="2.0751">
        <ele>651</ele>
        <time>2016-11-01T14:01:48.008Z</time>
      </trkpt>
      <trkpt lat="42.93967" lon="2.07514">
        <ele>651</ele>
        <time>2016-11-01T14:01:50.008Z</time>
      </trkpt>
      <trkpt lat="42.93975" lon="2.0752">
        <ele>652</ele>
        <time>2016-11-01T14:01:52.008Z</time>
      </trkpt>
      <trkpt lat="42.93982" lon="2.07526">
        <ele>652</ele>
        <time>2016-11-01T14:01:54.008Z</time>
      </trkpt>
      <trkpt lat="42.9399" lon="2.07533">
        <ele>652</ele>
        <time>2016-11-01T14:01:56.008Z</time>
      </trkpt>
      <trkpt lat="42.93997" lon="2.0754">
        <ele>652</ele>
        <time>2016-11-01T14:01:58.008Z</time>
      </trkpt>
      <trkpt lat="42.94006" lon="2.07552">
        <ele>652.2179968</ele>
        <time>2016-11-01T14:02:01.008Z</time>
      </trkpt>
      <trkpt lat="42.94012" lon="2.07562">
        <ele>653</ele>
        <time>2016-11-01T14:02:03.008Z</time>
      </trkpt>
      <trkpt lat="42.94019" lon="2.07577">
        <ele>653</ele>
        <time>2016-11-01T14:02:06.008Z</time>
      </trkpt>
      <trkpt lat="42.94026" lon="2.07593">
        <ele>653</ele>
        <time>2016-11-01T14:02:09.008Z</time>
      </trkpt>
      <trkpt lat="42.94031" lon="2.07603">
        <ele>653</ele>
        <time>2016-11-01T14:02:11.008Z</time>
      </trkpt>
      <trkpt lat="42.94036" lon="2.07613">
        <ele>653</ele>
        <time>2016-11-01T14:02:13.008Z</time>
      </trkpt>
      <trkpt lat="42.94041" lon="2.07629">
        <ele>653</ele>
        <time>2016-11-01T14:02:16.008Z</time>
      </trkpt>
      <trkpt lat="42.94044" lon="2.07645">
        <ele>653</ele>
        <time>2016-11-01T14:02:19.008Z</time>
      </trkpt>
      <trkpt lat="42.94045" lon="2.07661">
        <ele>655</ele>
        <time>2016-11-01T14:02:22.008Z</time>
      </trkpt>
      <trkpt lat="42.94048" lon="2.07677">
        <ele>655</ele>
        <time>2016-11-01T14:02:25.008Z</time>
      </trkpt>
      <trkpt lat="42.94054" lon="2.07691">
        <ele>655</ele>
        <time>2016-11-01T14:02:29.008Z</time>
      </trkpt>
      <trkpt lat="42.94063" lon="2.07698">
        <ele>657</ele>
        <time>2016-11-01T14:02:36.008Z</time>
      </trkpt>
      <trkpt lat="42.94071" lon="2.07704">
        <ele>657.8719872</ele>
        <time>2016-11-01T14:02:41.008Z</time>
      </trkpt>
      <trkpt lat="42.94079" lon="2.07709">
        <ele>661.4359936</ele>
        <time>2016-11-01T14:02:46.008Z</time>
      </trkpt>
      <trkpt lat="42.94087" lon="2.07717">
        <ele>663.2179968</ele>
        <time>2016-11-01T14:02:51.008Z</time>
      </trkpt>
      <trkpt lat="42.94095" lon="2.07726">
        <ele>664.2179968</ele>
        <time>2016-11-01T14:02:56.008Z</time>
      </trkpt>
      <trkpt lat="42.94102" lon="2.07737">
        <ele>667</ele>
        <time>2016-11-01T14:03:03.008Z</time>
      </trkpt>
      <trkpt lat="42.94108" lon="2.07747">
        <ele>669</ele>
        <time>2016-11-01T14:03:09.008Z</time>
      </trkpt>
      <trkpt lat="42.94114" lon="2.07759">
        <ele>670</ele>
        <time>2016-11-01T14:03:15.008Z</time>
      </trkpt>
      <trkpt lat="42.94118" lon="2.07773">
        <ele>671</ele>
        <time>2016-11-01T14:03:19.008Z</time>
      </trkpt>
      <trkpt lat="42.94118" lon="2.07788">
        <ele>671</ele>
        <time>2016-11-01T14:03:23.008Z</time>
      </trkpt>
      <trkpt lat="42.94118" lon="2.07802">
        <ele>671</ele>
        <time>2016-11-01T14:03:27.008Z</time>
      </trkpt>
      <trkpt lat="42.94117" lon="2.07819">
        <ele>672</ele>
        <time>2016-11-01T14:03:32.008Z</time>
      </trkpt>
      <trkpt lat="42.94121" lon="2.07832">
        <ele>672</ele>
        <time>2016-11-01T14:03:36.008Z</time>
      </trkpt>
      <trkpt lat="42.94125" lon="2.07848">
        <ele>672</ele>
        <time>2016-11-01T14:03:39.008Z</time>
      </trkpt>
      <trkpt lat="42.94128" lon="2.07863">
        <ele>672</ele>
        <time>2016-11-01T14:03:42.008Z</time>
      </trkpt>
      <trkpt lat="42.94137" lon="2.07872">
        <ele>672</ele>
        <time>2016-11-01T14:03:47.008Z</time>
      </trkpt>
      <trkpt lat="42.94146" lon="2.07871">
        <ele>673</ele>
        <time>2016-11-01T14:03:54.008Z</time>
      </trkpt>
      <trkpt lat="42.94156" lon="2.07872">
        <ele>673</ele>
        <time>2016-11-01T14:03:59.008Z</time>
      </trkpt>
      <trkpt lat="42.94166" lon="2.07875">
        <ele>676.2179968</ele>
        <time>2016-11-01T14:04:11.008Z</time>
      </trkpt>
      <trkpt lat="42.94168" lon="2.07881">
        <ele>677.2179968</ele>
        <time>2016-11-01T14:05:23.008Z</time>
      </trkpt>
      <trkpt lat="42.94176" lon="2.07881">
        <ele>678</ele>
        <time>2016-11-01T14:06:15.008Z</time>
      </trkpt>
      <trkpt lat="42.94186" lon="2.07885">
        <ele>678</ele>
        <time>2016-11-01T14:06:20.008Z</time>
      </trkpt>
      <trkpt lat="42.94194" lon="2.07892">
        <ele>677</ele>
        <time>2016-11-01T14:06:23.008Z</time>
      </trkpt>
      <trkpt lat="42.94205" lon="2.07897">
        <ele>677</ele>
        <time>2016-11-01T14:06:27.008Z</time>
      </trkpt>
      <trkpt lat="42.94215" lon="2.07903">
        <ele>676.7820032</ele>
        <time>2016-11-01T14:06:31.008Z</time>
      </trkpt>
      <trkpt lat="42.94224" lon="2.07908">
        <ele>676</ele>
        <time>2016-11-01T14:06:35.008Z</time>
      </trkpt>
      <trkpt lat="42.94232" lon="2.07919">
        <ele>676</ele>
        <time>2016-11-01T14:06:40.008Z</time>
      </trkpt>
      <trkpt lat="42.94236" lon="2.07932">
        <ele>678</ele>
        <time>2016-11-01T14:06:44.008Z</time>
      </trkpt>
      <trkpt lat="42.94237" lon="2.07946">
        <ele>678</ele>
        <time>2016-11-01T14:06:48.008Z</time>
      </trkpt>
      <trkpt lat="42.94241" lon="2.0796">
        <ele>678</ele>
        <time>2016-11-01T14:06:53.008Z</time>
      </trkpt>
      <trkpt lat="42.94247" lon="2.07972">
        <ele>678</ele>
        <time>2016-11-01T14:06:58.008Z</time>
      </trkpt>
      <trkpt lat="42.94255" lon="2.07982">
        <ele>679</ele>
        <time>2016-11-01T14:07:04.008Z</time>
      </trkpt>
      <trkpt lat="42.94246" lon="2.07973">
        <ele>680</ele>
        <time>2016-11-01T14:07:29.008Z</time>
      </trkpt>
      <trkpt lat="42.94241" lon="2.07961">
        <ele>679</ele>
        <time>2016-11-01T14:07:32.008Z</time>
      </trkpt>
      <trkpt lat="42.94238" lon="2.07944">
        <ele>679</ele>
        <time>2016-11-01T14:07:36.008Z</time>
      </trkpt>
      <trkpt lat="42.94241" lon="2.0793">
        <ele>679</ele>
        <time>2016-11-01T14:07:40.008Z</time>
      </trkpt>
      <trkpt lat="42.94232" lon="2.07918">
        <ele>678</ele>
        <time>2016-11-01T14:07:44.008Z</time>
      </trkpt>
      <trkpt lat="42.94221" lon="2.07908">
        <ele>678</ele>
        <time>2016-11-01T14:07:47.008Z</time>
      </trkpt>
      <trkpt lat="42.94211" lon="2.07901">
        <ele>678</ele>
        <time>2016-11-01T14:07:50.008Z</time>
      </trkpt>
      <trkpt lat="42.94221" lon="2.07908">
        <ele>676</ele>
        <time>2016-11-01T14:08:50.008Z</time>
      </trkpt>
      <trkpt lat="42.94232" lon="2.07914">
        <ele>676</ele>
        <time>2016-11-01T14:08:56.008Z</time>
      </trkpt>
      <trkpt lat="42.94238" lon="2.07926">
        <ele>676</ele>
        <time>2016-11-01T14:09:00.008Z</time>
      </trkpt>
      <trkpt lat="42.94241" lon="2.07942">
        <ele>678</ele>
        <time>2016-11-01T14:09:04.008Z</time>
      </trkpt>
      <trkpt lat="42.94243" lon="2.07958">
        <ele>678</ele>
        <time>2016-11-01T14:09:09.008Z</time>
      </trkpt>
      <trkpt lat="42.9425" lon="2.07971">
        <ele>679</ele>
        <time>2016-11-01T14:09:14.008Z</time>
      </trkpt>
      <trkpt lat="42.94257" lon="2.07982">
        <ele>679</ele>
        <time>2016-11-01T14:09:19.008Z</time>
      </trkpt>
      <trkpt lat="42.94265" lon="2.07996">
        <ele>681</ele>
        <time>2016-11-01T14:09:23.008Z</time>
      </trkpt>
      <trkpt lat="42.94269" lon="2.0801">
        <ele>681</ele>
        <time>2016-11-01T14:09:27.008Z</time>
      </trkpt>
      <trkpt lat="42.94271" lon="2.08025">
        <ele>681</ele>
        <time>2016-11-01T14:09:31.008Z</time>
      </trkpt>
      <trkpt lat="42.94277" lon="2.08044">
        <ele>681</ele>
        <time>2016-11-01T14:09:34.008Z</time>
      </trkpt>
      <trkpt lat="42.94283" lon="2.08063">
        <ele>681</ele>
        <time>2016-11-01T14:09:36.008Z</time>
      </trkpt>
      <trkpt lat="42.94293" lon="2.08081">
        <ele>681</ele>
        <time>2016-11-01T14:09:38.008Z</time>
      </trkpt>
      <trkpt lat="42.94304" lon="2.08085">
        <ele>681</ele>
        <time>2016-11-01T14:09:40.008Z</time>
      </trkpt>
      <trkpt lat="42.94315" lon="2.08085">
        <ele>678</ele>
        <time>2016-11-01T14:09:42.008Z</time>
      </trkpt>
      <trkpt lat="42.94326" lon="2.08077">
        <ele>678</ele>
        <time>2016-11-01T14:09:45.008Z</time>
      </trkpt>
      <trkpt lat="42.94333" lon="2.08067">
        <ele>676</ele>
        <time>2016-11-01T14:09:47.008Z</time>
      </trkpt>
      <trkpt lat="42.94342" lon="2.08057">
        <ele>676</ele>
        <time>2016-11-01T14:09:49.008Z</time>
      </trkpt>
      <trkpt lat="42.94352" lon="2.08045">
        <ele>677</ele>
        <time>2016-11-01T14:09:52.008Z</time>
      </trkpt>
      <trkpt lat="42.94361" lon="2.08034">
        <ele>677</ele>
        <time>2016-11-01T14:09:55.008Z</time>
      </trkpt>
      <trkpt lat="42.94366" lon="2.08019">
        <ele>677</ele>
        <time>2016-11-01T14:09:58.008Z</time>
      </trkpt>
      <trkpt lat="42.94372" lon="2.0801">
        <ele>677</ele>
        <time>2016-11-01T14:10:00.008Z</time>
      </trkpt>
      <trkpt lat="42.94379" lon="2.07999">
        <ele>671.2179968</ele>
        <time>2016-11-01T14:10:02.008Z</time>
      </trkpt>
      <trkpt lat="42.94386" lon="2.0799">
        <ele>673</ele>
        <time>2016-11-01T14:10:04.008Z</time>
      </trkpt>
      <trkpt lat="42.94394" lon="2.07984">
        <ele>672</ele>
        <time>2016-11-01T14:10:06.008Z</time>
      </trkpt>
      <trkpt lat="42.94402" lon="2.07978">
        <ele>672</ele>
        <time>2016-11-01T14:10:08.008Z</time>
      </trkpt>
      <trkpt lat="42.94409" lon="2.07974">
        <ele>672</ele>
        <time>2016-11-01T14:10:10.008Z</time>
      </trkpt>
      <trkpt lat="42.94419" lon="2.07971">
        <ele>672</ele>
        <time>2016-11-01T14:10:13.008Z</time>
      </trkpt>
      <trkpt lat="42.94428" lon="2.07971">
        <ele>672</ele>
        <time>2016-11-01T14:10:15.008Z</time>
      </trkpt>
      <trkpt lat="42.94435" lon="2.07976">
        <ele>672</ele>
        <time>2016-11-01T14:10:17.008Z</time>
      </trkpt>
      <trkpt lat="42.94443" lon="2.07982">
        <ele>672</ele>
        <time>2016-11-01T14:10:19.008Z</time>
      </trkpt>
      <trkpt lat="42.94449" lon="2.07987">
        <ele>672.2179968</ele>
        <time>2016-11-01T14:10:21.008Z</time>
      </trkpt>
      <trkpt lat="42.94459" lon="2.07994">
        <ele>673</ele>
        <time>2016-11-01T14:10:24.008Z</time>
      </trkpt>
      <trkpt lat="42.9447" lon="2.08">
        <ele>673</ele>
        <time>2016-11-01T14:10:27.008Z</time>
      </trkpt>
      <trkpt lat="42.94484" lon="2.08004">
        <ele>673.4359936</ele>
        <time>2016-11-01T14:10:31.008Z</time>
      </trkpt>
      <trkpt lat="42.94497" lon="2.08011">
        <ele>675</ele>
        <time>2016-11-01T14:10:34.008Z</time>
      </trkpt>
      <trkpt lat="42.94508" lon="2.08024">
        <ele>675</ele>
        <time>2016-11-01T14:10:37.008Z</time>
      </trkpt>
      <trkpt lat="42.94516" lon="2.08036">
        <ele>675</ele>
        <time>2016-11-01T14:10:40.008Z</time>
      </trkpt>
      <trkpt lat="42.94522" lon="2.08053">
        <ele>675</ele>
        <time>2016-11-01T14:10:43.008Z</time>
      </trkpt>
      <trkpt lat="42.94526" lon="2.08066">
        <ele>675</ele>
        <time>2016-11-01T14:10:45.008Z</time>
      </trkpt>
      <trkpt lat="42.94532" lon="2.08084">
        <ele>675</ele>
        <time>2016-11-01T14:10:48.008Z</time>
      </trkpt>
      <trkpt lat="42.94538" lon="2.081">
        <ele>675.4359936</ele>
        <time>2016-11-01T14:10:51.008Z</time>
      </trkpt>
      <trkpt lat="42.94546" lon="2.08115">
        <ele>677</ele>
        <time>2016-11-01T14:10:54.008Z</time>
      </trkpt>
      <trkpt lat="42.94555" lon="2.08127">
        <ele>677</ele>
        <time>2016-11-01T14:10:57.008Z</time>
      </trkpt>
      <trkpt lat="42.94563" lon="2.08132">
        <ele>677</ele>
        <time>2016-11-01T14:10:59.008Z</time>
      </trkpt>
      <trkpt lat="42.94572" lon="2.08134">
        <ele>677</ele>
        <time>2016-11-01T14:11:01.008Z</time>
      </trkpt>
      <trkpt lat="42.94581" lon="2.08134">
        <ele>677</ele>
        <time>2016-11-01T14:11:03.008Z</time>
      </trkpt>
      <trkpt lat="42.94589" lon="2.08133">
        <ele>677</ele>
        <time>2016-11-01T14:11:05.008Z</time>
      </trkpt>
      <trkpt lat="42.94596" lon="2.0813">
        <ele>677</ele>
        <time>2016-11-01T14:11:07.008Z</time>
      </trkpt>
      <trkpt lat="42.94603" lon="2.08119">
        <ele>677</ele>
        <time>2016-11-01T14:11:10.008Z</time>
      </trkpt>
      <trkpt lat="42.94608" lon="2.08105">
        <ele>678</ele>
        <time>2016-11-01T14:11:13.008Z</time>
      </trkpt>
      <trkpt lat="42.9461" lon="2.081">
        <ele>678</ele>
        <time>2016-11-01T14:11:14.008Z</time>
      </trkpt>
      <trkpt lat="42.94612" lon="2.08094">
        <ele>678</ele>
        <time>2016-11-01T14:11:15.008Z</time>
      </trkpt>
      <trkpt lat="42.94614" lon="2.08087">
        <ele>678</ele>
        <time>2016-11-01T14:11:16.008Z</time>
      </trkpt>
      <trkpt lat="42.94616" lon="2.08079">
        <ele>678</ele>
        <time>2016-11-01T14:11:17.008Z</time>
      </trkpt>
      <trkpt lat="42.94618" lon="2.08071">
        <ele>678</ele>
        <time>2016-11-01T14:11:18.008Z</time>
      </trkpt>
      <trkpt lat="42.94619" lon="2.08063">
        <ele>678</ele>
        <time>2016-11-01T14:11:19.008Z</time>
      </trkpt>
      <trkpt lat="42.9462" lon="2.08054">
        <ele>678</ele>
        <time>2016-11-01T14:11:20.008Z</time>
      </trkpt>
      <trkpt lat="42.94621" lon="2.08046">
        <ele>678</ele>
        <time>2016-11-01T14:11:21.008Z</time>
      </trkpt>
      <trkpt lat="42.94621" lon="2.08038">
        <ele>678</ele>
        <time>2016-11-01T14:11:22.008Z</time>
      </trkpt>
      <trkpt lat="42.94621" lon="2.0803">
        <ele>678</ele>
        <time>2016-11-01T14:11:23.008Z</time>
      </trkpt>
      <trkpt lat="42.9462" lon="2.08015">
        <ele>678</ele>
        <time>2016-11-01T14:11:25.008Z</time>
      </trkpt>
      <trkpt lat="42.94619" lon="2.08002">
        <ele>678</ele>
        <time>2016-11-01T14:11:27.008Z</time>
      </trkpt>
      <trkpt lat="42.94618" lon="2.07996">
        <ele>678</ele>
        <time>2016-11-01T14:11:28.008Z</time>
      </trkpt>
      <trkpt lat="42.94617" lon="2.07984">
        <ele>678</ele>
        <time>2016-11-01T14:11:30.008Z</time>
      </trkpt>
      <trkpt lat="42.94616" lon="2.07973">
        <ele>679</ele>
        <time>2016-11-01T14:11:32.008Z</time>
      </trkpt>
      <trkpt lat="42.94615" lon="2.07962">
        <ele>679</ele>
        <time>2016-11-01T14:11:34.008Z</time>
      </trkpt>
      <trkpt lat="42.94614" lon="2.07952">
        <ele>679</ele>
        <time>2016-11-01T14:11:36.008Z</time>
      </trkpt>
      <trkpt lat="42.94613" lon="2.07942">
        <ele>679</ele>
        <time>2016-11-01T14:11:38.008Z</time>
      </trkpt>
      <trkpt lat="42.94612" lon="2.07932">
        <ele>679</ele>
        <time>2016-11-01T14:11:40.008Z</time>
      </trkpt>
      <trkpt lat="42.94611" lon="2.07922">
        <ele>682</ele>
        <time>2016-11-01T14:11:42.008Z</time>
      </trkpt>
      <trkpt lat="42.94611" lon="2.07912">
        <ele>682</ele>
        <time>2016-11-01T14:11:44.008Z</time>
      </trkpt>
      <trkpt lat="42.94609" lon="2.07903">
        <ele>682.2179968</ele>
        <time>2016-11-01T14:11:46.008Z</time>
      </trkpt>
      <trkpt lat="42.94608" lon="2.07894">
        <ele>683</ele>
        <time>2016-11-01T14:11:48.008Z</time>
      </trkpt>
      <trkpt lat="42.94606" lon="2.07885">
        <ele>683</ele>
        <time>2016-11-01T14:11:50.008Z</time>
      </trkpt>
      <trkpt lat="42.94605" lon="2.07876">
        <ele>685</ele>
        <time>2016-11-01T14:11:52.008Z</time>
      </trkpt>
      <trkpt lat="42.94604" lon="2.07862">
        <ele>685</ele>
        <time>2016-11-01T14:11:55.008Z</time>
      </trkpt>
      <trkpt lat="42.94605" lon="2.07847">
        <ele>687</ele>
        <time>2016-11-01T14:11:58.008Z</time>
      </trkpt>
      <trkpt lat="42.94607" lon="2.07834">
        <ele>687.2179968</ele>
        <time>2016-11-01T14:12:01.008Z</time>
      </trkpt>
      <trkpt lat="42.9461" lon="2.07824">
        <ele>688</ele>
        <time>2016-11-01T14:12:03.008Z</time>
      </trkpt>
      <trkpt lat="42.94613" lon="2.07816">
        <ele>688</ele>
        <time>2016-11-01T14:12:05.008Z</time>
      </trkpt>
      <trkpt lat="42.94617" lon="2.07807">
        <ele>689</ele>
        <time>2016-11-01T14:12:07.008Z</time>
      </trkpt>
      <trkpt lat="42.94621" lon="2.078">
        <ele>689</ele>
        <time>2016-11-01T14:12:09.008Z</time>
      </trkpt>
      <trkpt lat="42.94624" lon="2.07792">
        <ele>689.42020066198</ele>
        <time>2016-11-01T14:12:11.008Z</time>
      </trkpt>
      <trkpt lat="42.94628" lon="2.07784">
        <ele>691</ele>
        <time>2016-11-01T14:12:13.008Z</time>
      </trkpt>
      <trkpt lat="42.94633" lon="2.07776">
        <ele>690.7820032</ele>
        <time>2016-11-01T14:12:15.008Z</time>
      </trkpt>
      <trkpt lat="42.94638" lon="2.07768">
        <ele>690</ele>
        <time>2016-11-01T14:12:17.008Z</time>
      </trkpt>
      <trkpt lat="42.94644" lon="2.07762">
        <ele>690</ele>
        <time>2016-11-01T14:12:19.008Z</time>
      </trkpt>
      <trkpt lat="42.94653" lon="2.07753">
        <ele>691</ele>
        <time>2016-11-01T14:12:22.008Z</time>
      </trkpt>
      <trkpt lat="42.94665" lon="2.07744">
        <ele>691</ele>
        <time>2016-11-01T14:12:25.008Z</time>
      </trkpt>
      <trkpt lat="42.94673" lon="2.07737">
        <ele>691</ele>
        <time>2016-11-01T14:12:27.008Z</time>
      </trkpt>
      <trkpt lat="42.94686" lon="2.07729">
        <ele>691</ele>
        <time>2016-11-01T14:12:30.008Z</time>
      </trkpt>
      <trkpt lat="42.94698" lon="2.07722">
        <ele>692</ele>
        <time>2016-11-01T14:12:33.008Z</time>
      </trkpt>
      <trkpt lat="42.94707" lon="2.07713">
        <ele>692</ele>
        <time>2016-11-01T14:12:36.008Z</time>
      </trkpt>
      <trkpt lat="42.94716" lon="2.07703">
        <ele>692</ele>
        <time>2016-11-01T14:12:39.008Z</time>
      </trkpt>
      <trkpt lat="42.94724" lon="2.07692">
        <ele>694</ele>
        <time>2016-11-01T14:12:42.008Z</time>
      </trkpt>
      <trkpt lat="42.94731" lon="2.07685">
        <ele>694</ele>
        <time>2016-11-01T14:12:44.008Z</time>
      </trkpt>
      <trkpt lat="42.94737" lon="2.07676">
        <ele>694</ele>
        <time>2016-11-01T14:12:46.008Z</time>
      </trkpt>
      <trkpt lat="42.94742" lon="2.07667">
        <ele>694</ele>
        <time>2016-11-01T14:12:48.008Z</time>
      </trkpt>
      <trkpt lat="42.94745" lon="2.07657">
        <ele>694</ele>
        <time>2016-11-01T14:12:50.008Z</time>
      </trkpt>
      <trkpt lat="42.94749" lon="2.07646">
        <ele>695</ele>
        <time>2016-11-01T14:12:52.008Z</time>
      </trkpt>
      <trkpt lat="42.94752" lon="2.07635">
        <ele>695</ele>
        <time>2016-11-01T14:12:54.008Z</time>
      </trkpt>
      <trkpt lat="42.94755" lon="2.07623">
        <ele>695</ele>
        <time>2016-11-01T14:12:56.008Z</time>
      </trkpt>
      <trkpt lat="42.9476" lon="2.07607">
        <ele>695</ele>
        <time>2016-11-01T14:12:59.008Z</time>
      </trkpt>
      <trkpt lat="42.94763" lon="2.07596">
        <ele>695.4359936</ele>
        <time>2016-11-01T14:13:01.008Z</time>
      </trkpt>
      <trkpt lat="42.94766" lon="2.07586">
        <ele>697</ele>
        <time>2016-11-01T14:13:03.008Z</time>
      </trkpt>
      <trkpt lat="42.94769" lon="2.07575">
        <ele>697</ele>
        <time>2016-11-01T14:13:05.008Z</time>
      </trkpt>
      <trkpt lat="42.94774" lon="2.07561">
        <ele>697</ele>
        <time>2016-11-01T14:13:08.008Z</time>
      </trkpt>
      <trkpt lat="42.94777" lon="2.07551">
        <ele>697</ele>
        <time>2016-11-01T14:13:10.008Z</time>
      </trkpt>
      <trkpt lat="42.94779" lon="2.07541">
        <ele>699</ele>
        <time>2016-11-01T14:13:12.008Z</time>
      </trkpt>
      <trkpt lat="42.94782" lon="2.07532">
        <ele>699</ele>
        <time>2016-11-01T14:13:14.008Z</time>
      </trkpt>
      <trkpt lat="42.94785" lon="2.07523">
        <ele>699</ele>
        <time>2016-11-01T14:13:16.008Z</time>
      </trkpt>
      <trkpt lat="42.94788" lon="2.0751">
        <ele>699</ele>
        <time>2016-11-01T14:13:19.008Z</time>
      </trkpt>
      <trkpt lat="42.94792" lon="2.07496">
        <ele>702</ele>
        <time>2016-11-01T14:13:22.008Z</time>
      </trkpt>
      <trkpt lat="42.94795" lon="2.07481">
        <ele>702</ele>
        <time>2016-11-01T14:13:25.008Z</time>
      </trkpt>
      <trkpt lat="42.94799" lon="2.07467">
        <ele>703</ele>
        <time>2016-11-01T14:13:28.008Z</time>
      </trkpt>
      <trkpt lat="42.94803" lon="2.07453">
        <ele>703.4359936</ele>
        <time>2016-11-01T14:13:31.008Z</time>
      </trkpt>
      <trkpt lat="42.94807" lon="2.07438">
        <ele>705</ele>
        <time>2016-11-01T14:13:34.008Z</time>
      </trkpt>
      <trkpt lat="42.9481" lon="2.07429">
        <ele>705</ele>
        <time>2016-11-01T14:13:36.008Z</time>
      </trkpt>
      <trkpt lat="42.94814" lon="2.07415">
        <ele>705</ele>
        <time>2016-11-01T14:13:39.008Z</time>
      </trkpt>
      <trkpt lat="42.94817" lon="2.07405">
        <ele>705.2179968</ele>
        <time>2016-11-01T14:13:41.008Z</time>
      </trkpt>
      <trkpt lat="42.9482" lon="2.07396">
        <ele>706</ele>
        <time>2016-11-01T14:13:43.008Z</time>
      </trkpt>
      <trkpt lat="42.94825" lon="2.07383">
        <ele>706</ele>
        <time>2016-11-01T14:13:46.008Z</time>
      </trkpt>
      <trkpt lat="42.9483" lon="2.07371">
        <ele>706</ele>
        <time>2016-11-01T14:13:49.008Z</time>
      </trkpt>
      <trkpt lat="42.94837" lon="2.07361">
        <ele>706</ele>
        <time>2016-11-01T14:13:52.008Z</time>
      </trkpt>
      <trkpt lat="42.94844" lon="2.07366">
        <ele>706</ele>
        <time>2016-11-01T14:13:55.008Z</time>
      </trkpt>
      <trkpt lat="42.94842" lon="2.07377">
        <ele>706</ele>
        <time>2016-11-01T14:13:58.008Z</time>
      </trkpt>
      <trkpt lat="42.94839" lon="2.07388">
        <ele>706.42020066198</ele>
        <time>2016-11-01T14:14:01.008Z</time>
      </trkpt>
      <trkpt lat="42.94837" lon="2.074">
        <ele>708</ele>
        <time>2016-11-01T14:14:04.008Z</time>
      </trkpt>
      <trkpt lat="42.94836" lon="2.07411">
        <ele>708</ele>
        <time>2016-11-01T14:14:07.008Z</time>
      </trkpt>
      <trkpt lat="42.94836" lon="2.07423">
        <ele>708</ele>
        <time>2016-11-01T14:14:10.008Z</time>
      </trkpt>
      <trkpt lat="42.94835" lon="2.07438">
        <ele>710</ele>
        <time>2016-11-01T14:14:14.008Z</time>
      </trkpt>
      <trkpt lat="42.94834" lon="2.07452">
        <ele>710</ele>
        <time>2016-11-01T14:14:18.008Z</time>
      </trkpt>
      <trkpt lat="42.94835" lon="2.07463">
        <ele>710.6539904</ele>
        <time>2016-11-01T14:14:21.008Z</time>
      </trkpt>
      <trkpt lat="42.94837" lon="2.07477">
        <ele>713</ele>
        <time>2016-11-01T14:14:25.008Z</time>
      </trkpt>
      <trkpt lat="42.94835" lon="2.0749">
        <ele>715</ele>
        <time>2016-11-01T14:14:29.008Z</time>
      </trkpt>
      <trkpt lat="42.94834" lon="2.07502">
        <ele>717</ele>
        <time>2016-11-01T14:14:32.008Z</time>
      </trkpt>
      <trkpt lat="42.94832" lon="2.07515">
        <ele>717</ele>
        <time>2016-11-01T14:14:35.008Z</time>
      </trkpt>
      <trkpt lat="42.94832" lon="2.07527">
        <ele>718</ele>
        <time>2016-11-01T14:14:38.008Z</time>
      </trkpt>
      <trkpt lat="42.94838" lon="2.07537">
        <ele>718</ele>
        <time>2016-11-01T14:14:41.008Z</time>
      </trkpt>
      <trkpt lat="42.94849" lon="2.07541">
        <ele>718</ele>
        <time>2016-11-01T14:14:44.008Z</time>
      </trkpt>
      <trkpt lat="42.94857" lon="2.07541">
        <ele>718</ele>
        <time>2016-11-01T14:14:47.008Z</time>
      </trkpt>
      <trkpt lat="42.94867" lon="2.07541">
        <ele>718</ele>
        <time>2016-11-01T14:14:50.008Z</time>
      </trkpt>
      <trkpt lat="42.94877" lon="2.0754">
        <ele>720</ele>
        <time>2016-11-01T14:14:54.008Z</time>
      </trkpt>
      <trkpt lat="42.94886" lon="2.07541">
        <ele>720</ele>
        <time>2016-11-01T14:14:57.008Z</time>
      </trkpt>
      <trkpt lat="42.94897" lon="2.07544">
        <ele>720</ele>
        <time>2016-11-01T14:15:00.008Z</time>
      </trkpt>
      <trkpt lat="42.94906" lon="2.07547">
        <ele>723</ele>
        <time>2016-11-01T14:15:03.008Z</time>
      </trkpt>
      <trkpt lat="42.94916" lon="2.07551">
        <ele>723</ele>
        <time>2016-11-01T14:15:06.008Z</time>
      </trkpt>
      <trkpt lat="42.94926" lon="2.07555">
        <ele>723</ele>
        <time>2016-11-01T14:15:09.008Z</time>
      </trkpt>
      <trkpt lat="42.94934" lon="2.07561">
        <ele>724</ele>
        <time>2016-11-01T14:15:12.008Z</time>
      </trkpt>
      <trkpt lat="42.9494" lon="2.07568">
        <ele>724</ele>
        <time>2016-11-01T14:15:14.008Z</time>
      </trkpt>
      <trkpt lat="42.9495" lon="2.07578">
        <ele>724</ele>
        <time>2016-11-01T14:15:17.008Z</time>
      </trkpt>
      <trkpt lat="42.94961" lon="2.07585">
        <ele>724</ele>
        <time>2016-11-01T14:15:20.008Z</time>
      </trkpt>
      <trkpt lat="42.94973" lon="2.07586">
        <ele>724</ele>
        <time>2016-11-01T14:15:23.008Z</time>
      </trkpt>
      <trkpt lat="42.94985" lon="2.07587">
        <ele>724</ele>
        <time>2016-11-01T14:15:27.008Z</time>
      </trkpt>
      <trkpt lat="42.94996" lon="2.07587">
        <ele>724</ele>
        <time>2016-11-01T14:15:30.008Z</time>
      </trkpt>
      <trkpt lat="42.95009" lon="2.07589">
        <ele>726</ele>
        <time>2016-11-01T14:15:34.008Z</time>
      </trkpt>
      <trkpt lat="42.95021" lon="2.07591">
        <ele>726</ele>
        <time>2016-11-01T14:15:38.008Z</time>
      </trkpt>
      <trkpt lat="42.95031" lon="2.07594">
        <ele>726.6539904</ele>
        <time>2016-11-01T14:15:41.008Z</time>
      </trkpt>
      <trkpt lat="42.95044" lon="2.076">
        <ele>729</ele>
        <time>2016-11-01T14:15:45.008Z</time>
      </trkpt>
      <trkpt lat="42.95055" lon="2.07606">
        <ele>731</ele>
        <time>2016-11-01T14:15:49.008Z</time>
      </trkpt>
      <trkpt lat="42.95065" lon="2.07612">
        <ele>733</ele>
        <time>2016-11-01T14:15:53.008Z</time>
      </trkpt>
      <trkpt lat="42.95076" lon="2.07617">
        <ele>734</ele>
        <time>2016-11-01T14:15:58.008Z</time>
      </trkpt>
      <trkpt lat="42.95086" lon="2.0762">
        <ele>736</ele>
        <time>2016-11-01T14:16:02.008Z</time>
      </trkpt>
      <trkpt lat="42.95098" lon="2.07624">
        <ele>738</ele>
        <time>2016-11-01T14:16:07.008Z</time>
      </trkpt>
      <trkpt lat="42.95108" lon="2.07627">
        <ele>738</ele>
        <time>2016-11-01T14:16:10.008Z</time>
      </trkpt>
      <trkpt lat="42.95116" lon="2.07629">
        <ele>739</ele>
        <time>2016-11-01T14:16:13.008Z</time>
      </trkpt>
      <trkpt lat="42.95125" lon="2.07632">
        <ele>739.2179968</ele>
        <time>2016-11-01T14:16:16.008Z</time>
      </trkpt>
      <trkpt lat="42.95129" lon="2.07648">
        <ele>740</ele>
        <time>2016-11-01T14:16:20.008Z</time>
      </trkpt>
      <trkpt lat="42.95133" lon="2.07666">
        <ele>739</ele>
        <time>2016-11-01T14:16:23.008Z</time>
      </trkpt>
      <trkpt lat="42.95138" lon="2.07681">
        <ele>739</ele>
        <time>2016-11-01T14:16:25.008Z</time>
      </trkpt>
      <trkpt lat="42.95141" lon="2.07699">
        <ele>739</ele>
        <time>2016-11-01T14:16:27.008Z</time>
      </trkpt>
      <trkpt lat="42.95142" lon="2.07719">
        <ele>739</ele>
        <time>2016-11-01T14:16:29.008Z</time>
      </trkpt>
      <trkpt lat="42.95144" lon="2.07741">
        <ele>738.15959867604</ele>
        <time>2016-11-01T14:16:31.008Z</time>
      </trkpt>
      <trkpt lat="42.95145" lon="2.07765">
        <ele>735</ele>
        <time>2016-11-01T14:16:33.008Z</time>
      </trkpt>
      <trkpt lat="42.95149" lon="2.07788">
        <ele>735</ele>
        <time>2016-11-01T14:16:35.008Z</time>
      </trkpt>
      <trkpt lat="42.95155" lon="2.07809">
        <ele>732</ele>
        <time>2016-11-01T14:16:37.008Z</time>
      </trkpt>
      <trkpt lat="42.95162" lon="2.07827">
        <ele>732</ele>
        <time>2016-11-01T14:16:39.008Z</time>
      </trkpt>
      <trkpt lat="42.95172" lon="2.07839">
        <ele>731.5640064</ele>
        <time>2016-11-01T14:16:41.008Z</time>
      </trkpt>
      <trkpt lat="42.95186" lon="2.07849">
        <ele>728.7820032</ele>
        <time>2016-11-01T14:16:43.008Z</time>
      </trkpt>
      <trkpt lat="42.952" lon="2.0786">
        <ele>727</ele>
        <time>2016-11-01T14:16:45.008Z</time>
      </trkpt>
      <trkpt lat="42.95214" lon="2.07871">
        <ele>726.7820032</ele>
        <time>2016-11-01T14:16:47.008Z</time>
      </trkpt>
      <trkpt lat="42.95228" lon="2.07881">
        <ele>726</ele>
        <time>2016-11-01T14:16:49.008Z</time>
      </trkpt>
      <trkpt lat="42.9524" lon="2.07891">
        <ele>725.7820032</ele>
        <time>2016-11-01T14:16:51.008Z</time>
      </trkpt>
      <trkpt lat="42.95249" lon="2.07902">
        <ele>722.7820032</ele>
        <time>2016-11-01T14:16:53.008Z</time>
      </trkpt>
      <trkpt lat="42.95252" lon="2.07922">
        <ele>720.3460096</ele>
        <time>2016-11-01T14:16:55.008Z</time>
      </trkpt>
      <trkpt lat="42.95254" lon="2.07944">
        <ele>716.7820032</ele>
        <time>2016-11-01T14:16:57.008Z</time>
      </trkpt>
      <trkpt lat="42.95259" lon="2.07961">
        <ele>713.78989966901</ele>
        <time>2016-11-01T14:16:59.008Z</time>
      </trkpt>
      <trkpt lat="42.95266" lon="2.07977">
        <ele>709.3460096</ele>
        <time>2016-11-01T14:17:01.008Z</time>
      </trkpt>
      <trkpt lat="42.95272" lon="2.07996">
        <ele>706.7820032</ele>
        <time>2016-11-01T14:17:03.008Z</time>
      </trkpt>
      <trkpt lat="42.95278" lon="2.08015">
        <ele>704.7820032</ele>
        <time>2016-11-01T14:17:05.008Z</time>
      </trkpt>
      <trkpt lat="42.95283" lon="2.08029">
        <ele>701.5640064</ele>
        <time>2016-11-01T14:17:07.008Z</time>
      </trkpt>
      <trkpt lat="42.95288" lon="2.08046">
        <ele>700</ele>
        <time>2016-11-01T14:17:09.008Z</time>
      </trkpt>
      <trkpt lat="42.95292" lon="2.08065">
        <ele>698.7820032</ele>
        <time>2016-11-01T14:17:11.008Z</time>
      </trkpt>
      <trkpt lat="42.95299" lon="2.08079">
        <ele>696.7820032</ele>
        <time>2016-11-01T14:17:13.008Z</time>
      </trkpt>
      <trkpt lat="42.9531" lon="2.08087">
        <ele>694.5640064</ele>
        <time>2016-11-01T14:17:15.008Z</time>
      </trkpt>
      <trkpt lat="42.95323" lon="2.08083">
        <ele>691.7820032</ele>
        <time>2016-11-01T14:17:17.008Z</time>
      </trkpt>
      <trkpt lat="42.95336" lon="2.08084">
        <ele>689.5640064</ele>
        <time>2016-11-01T14:17:19.008Z</time>
      </trkpt>
      <trkpt lat="42.95348" lon="2.08089">
        <ele>685.7820032</ele>
        <time>2016-11-01T14:17:21.008Z</time>
      </trkpt>
      <trkpt lat="42.95361" lon="2.08092">
        <ele>682.7820032</ele>
        <time>2016-11-01T14:17:23.008Z</time>
      </trkpt>
      <trkpt lat="42.95374" lon="2.08094">
        <ele>680.5640064</ele>
        <time>2016-11-01T14:17:25.008Z</time>
      </trkpt>
      <trkpt lat="42.95389" lon="2.08095">
        <ele>676.7820032</ele>
        <time>2016-11-01T14:17:27.008Z</time>
      </trkpt>
      <trkpt lat="42.95404" lon="2.08095">
        <ele>675.7820032</ele>
        <time>2016-11-01T14:17:29.008Z</time>
      </trkpt>
      <trkpt lat="42.95415" lon="2.08099">
        <ele>674</ele>
        <time>2016-11-01T14:17:31.008Z</time>
      </trkpt>
      <trkpt lat="42.95423" lon="2.08104">
        <ele>674.2179968</ele>
        <time>2016-11-01T14:17:33.008Z</time>
      </trkpt>
      <trkpt lat="42.95433" lon="2.08108">
        <ele>675</ele>
        <time>2016-11-01T14:17:38.008Z</time>
      </trkpt>
      <trkpt lat="42.9544" lon="2.08102">
        <ele>677</ele>
        <time>2016-11-01T14:17:41.008Z</time>
      </trkpt>
      <trkpt lat="42.95446" lon="2.08098">
        <ele>677</ele>
        <time>2016-11-01T14:17:44.008Z</time>
      </trkpt>
      <trkpt lat="42.95453" lon="2.08092">
        <ele>678</ele>
        <time>2016-11-01T14:17:47.008Z</time>
      </trkpt>
      <trkpt lat="42.95459" lon="2.08087">
        <ele>678</ele>
        <time>2016-11-01T14:17:50.008Z</time>
      </trkpt>
      <trkpt lat="42.95465" lon="2.08082">
        <ele>680</ele>
        <time>2016-11-01T14:17:53.008Z</time>
      </trkpt>
      <trkpt lat="42.95471" lon="2.08073">
        <ele>682</ele>
        <time>2016-11-01T14:17:57.008Z</time>
      </trkpt>
      <trkpt lat="42.95477" lon="2.08066">
        <ele>682</ele>
        <time>2016-11-01T14:18:00.008Z</time>
      </trkpt>
      <trkpt lat="42.95485" lon="2.08059">
        <ele>683</ele>
        <time>2016-11-01T14:18:03.008Z</time>
      </trkpt>
      <trkpt lat="42.95493" lon="2.08051">
        <ele>683.2179968</ele>
        <time>2016-11-01T14:18:06.008Z</time>
      </trkpt>
      <trkpt lat="42.955" lon="2.08046">
        <ele>684</ele>
        <time>2016-11-01T14:18:09.008Z</time>
      </trkpt>
      <trkpt lat="42.95507" lon="2.08038">
        <ele>686</ele>
        <time>2016-11-01T14:18:12.008Z</time>
      </trkpt>
      <trkpt lat="42.95515" lon="2.08031">
        <ele>686</ele>
        <time>2016-11-01T14:18:15.008Z</time>
      </trkpt>
      <trkpt lat="42.9552" lon="2.08027">
        <ele>687</ele>
        <time>2016-11-01T14:18:17.008Z</time>
      </trkpt>
      <trkpt lat="42.95526" lon="2.08023">
        <ele>687</ele>
        <time>2016-11-01T14:18:19.008Z</time>
      </trkpt>
      <trkpt lat="42.95531" lon="2.08019">
        <ele>687.4359936</ele>
        <time>2016-11-01T14:18:21.008Z</time>
      </trkpt>
      <trkpt lat="42.95537" lon="2.08017">
        <ele>689</ele>
        <time>2016-11-01T14:18:23.008Z</time>
      </trkpt>
      <trkpt lat="42.95543" lon="2.08014">
        <ele>689</ele>
        <time>2016-11-01T14:18:25.008Z</time>
      </trkpt>
      <trkpt lat="42.95549" lon="2.08012">
        <ele>691</ele>
        <time>2016-11-01T14:18:27.008Z</time>
      </trkpt>
      <trkpt lat="42.95555" lon="2.08011">
        <ele>691</ele>
        <time>2016-11-01T14:18:29.008Z</time>
      </trkpt>
      <trkpt lat="42.95561" lon="2.08009">
        <ele>691.2179968</ele>
        <time>2016-11-01T14:18:31.008Z</time>
      </trkpt>
      <trkpt lat="42.95568" lon="2.08007">
        <ele>692</ele>
        <time>2016-11-01T14:18:33.008Z</time>
      </trkpt>
      <trkpt lat="42.95574" lon="2.08006">
        <ele>692</ele>
        <time>2016-11-01T14:18:35.008Z</time>
      </trkpt>
      <trkpt lat="42.9558" lon="2.08004">
        <ele>693</ele>
        <time>2016-11-01T14:18:37.008Z</time>
      </trkpt>
      <trkpt lat="42.9559" lon="2.08">
        <ele>693</ele>
        <time>2016-11-01T14:18:40.008Z</time>
      </trkpt>
      <trkpt lat="42.95598" lon="2.07998">
        <ele>695</ele>
        <time>2016-11-01T14:18:43.008Z</time>
      </trkpt>
      <trkpt lat="42.95607" lon="2.07996">
        <ele>695.2179968</ele>
        <time>2016-11-01T14:18:46.008Z</time>
      </trkpt>
      <trkpt lat="42.95616" lon="2.07996">
        <ele>696</ele>
        <time>2016-11-01T14:18:49.008Z</time>
      </trkpt>
      <trkpt lat="42.95623" lon="2.07996">
        <ele>696.2179968</ele>
        <time>2016-11-01T14:18:51.008Z</time>
      </trkpt>
      <trkpt lat="42.95629" lon="2.07998">
        <ele>697</ele>
        <time>2016-11-01T14:18:53.008Z</time>
      </trkpt>
      <trkpt lat="42.95635" lon="2.08001">
        <ele>697</ele>
        <time>2016-11-01T14:18:55.008Z</time>
      </trkpt>
      <trkpt lat="42.9564" lon="2.08004">
        <ele>697</ele>
        <time>2016-11-01T14:18:57.008Z</time>
      </trkpt>
      <trkpt lat="42.95645" lon="2.0801">
        <ele>697</ele>
        <time>2016-11-01T14:19:03.008Z</time>
      </trkpt>
      <trkpt lat="42.95654" lon="2.08015">
        <ele>698</ele>
        <time>2016-11-01T14:24:27.008Z</time>
      </trkpt>
      <trkpt lat="42.95662" lon="2.08024">
        <ele>698</ele>
        <time>2016-11-01T14:24:30.008Z</time>
      </trkpt>
      <trkpt lat="42.95668" lon="2.0803">
        <ele>698</ele>
        <time>2016-11-01T14:24:32.008Z</time>
      </trkpt>
      <trkpt lat="42.95675" lon="2.08036">
        <ele>698</ele>
        <time>2016-11-01T14:24:34.008Z</time>
      </trkpt>
      <trkpt lat="42.95681" lon="2.08044">
        <ele>698</ele>
        <time>2016-11-01T14:24:36.008Z</time>
      </trkpt>
      <trkpt lat="42.95689" lon="2.08052">
        <ele>698</ele>
        <time>2016-11-01T14:24:38.008Z</time>
      </trkpt>
      <trkpt lat="42.95698" lon="2.08061">
        <ele>698</ele>
        <time>2016-11-01T14:24:40.008Z</time>
      </trkpt>
      <trkpt lat="42.95707" lon="2.08071">
        <ele>696</ele>
        <time>2016-11-01T14:24:42.008Z</time>
      </trkpt>
      <trkpt lat="42.95716" lon="2.08082">
        <ele>696</ele>
        <time>2016-11-01T14:24:44.008Z</time>
      </trkpt>
      <trkpt lat="42.95722" lon="2.08087">
        <ele>696</ele>
        <time>2016-11-01T14:24:45.008Z</time>
      </trkpt>
      <trkpt lat="42.95727" lon="2.08093">
        <ele>696</ele>
        <time>2016-11-01T14:24:46.008Z</time>
      </trkpt>
      <trkpt lat="42.95732" lon="2.08098">
        <ele>696</ele>
        <time>2016-11-01T14:24:47.008Z</time>
      </trkpt>
      <trkpt lat="42.95738" lon="2.08104">
        <ele>696</ele>
        <time>2016-11-01T14:24:48.008Z</time>
      </trkpt>
      <trkpt lat="42.95744" lon="2.08109">
        <ele>696</ele>
        <time>2016-11-01T14:24:49.008Z</time>
      </trkpt>
      <trkpt lat="42.9575" lon="2.08114">
        <ele>696</ele>
        <time>2016-11-01T14:24:50.008Z</time>
      </trkpt>
      <trkpt lat="42.95756" lon="2.08118">
        <ele>695.3460096</ele>
        <time>2016-11-01T14:24:51.008Z</time>
      </trkpt>
      <trkpt lat="42.95769" lon="2.08127">
        <ele>693</ele>
        <time>2016-11-01T14:24:53.008Z</time>
      </trkpt>
      <trkpt lat="42.95783" lon="2.08135">
        <ele>693</ele>
        <time>2016-11-01T14:24:55.008Z</time>
      </trkpt>
      <trkpt lat="42.95797" lon="2.08142">
        <ele>692</ele>
        <time>2016-11-01T14:24:57.008Z</time>
      </trkpt>
      <trkpt lat="42.95811" lon="2.08149">
        <ele>692</ele>
        <time>2016-11-01T14:24:59.008Z</time>
      </trkpt>
      <trkpt lat="42.95823" lon="2.08156">
        <ele>691.7820032</ele>
        <time>2016-11-01T14:25:01.008Z</time>
      </trkpt>
      <trkpt lat="42.95836" lon="2.08163">
        <ele>691</ele>
        <time>2016-11-01T14:25:03.008Z</time>
      </trkpt>
      <trkpt lat="42.95847" lon="2.08169">
        <ele>691</ele>
        <time>2016-11-01T14:25:05.008Z</time>
      </trkpt>
      <trkpt lat="42.95857" lon="2.08173">
        <ele>692</ele>
        <time>2016-11-01T14:25:07.008Z</time>
      </trkpt>
      <trkpt lat="42.95866" lon="2.08177">
        <ele>692</ele>
        <time>2016-11-01T14:25:09.008Z</time>
      </trkpt>
      <trkpt lat="42.95873" lon="2.08181">
        <ele>692.2179968</ele>
        <time>2016-11-01T14:25:11.008Z</time>
      </trkpt>
      <trkpt lat="42.95879" lon="2.08186">
        <ele>693</ele>
        <time>2016-11-01T14:25:13.008Z</time>
      </trkpt>
      <trkpt lat="42.95886" lon="2.08193">
        <ele>693</ele>
        <time>2016-11-01T14:25:15.008Z</time>
      </trkpt>
      <trkpt lat="42.95892" lon="2.08198">
        <ele>693</ele>
        <time>2016-11-01T14:25:17.008Z</time>
      </trkpt>
      <trkpt lat="42.95899" lon="2.08201">
        <ele>693</ele>
        <time>2016-11-01T14:25:19.008Z</time>
      </trkpt>
      <trkpt lat="42.95905" lon="2.08204">
        <ele>693</ele>
        <time>2016-11-01T14:25:21.008Z</time>
      </trkpt>
      <trkpt lat="42.95912" lon="2.08207">
        <ele>693</ele>
        <time>2016-11-01T14:25:23.008Z</time>
      </trkpt>
      <trkpt lat="42.95919" lon="2.08211">
        <ele>693</ele>
        <time>2016-11-01T14:25:25.008Z</time>
      </trkpt>
      <trkpt lat="42.95928" lon="2.08215">
        <ele>693</ele>
        <time>2016-11-01T14:25:27.008Z</time>
      </trkpt>
      <trkpt lat="42.95937" lon="2.0822">
        <ele>693</ele>
        <time>2016-11-01T14:25:29.008Z</time>
      </trkpt>
      <trkpt lat="42.95948" lon="2.08224">
        <ele>692.7820032</ele>
        <time>2016-11-01T14:25:31.008Z</time>
      </trkpt>
      <trkpt lat="42.95957" lon="2.0823">
        <ele>692</ele>
        <time>2016-11-01T14:25:33.008Z</time>
      </trkpt>
      <trkpt lat="42.95967" lon="2.08236">
        <ele>692</ele>
        <time>2016-11-01T14:25:35.008Z</time>
      </trkpt>
      <trkpt lat="42.95977" lon="2.08244">
        <ele>692</ele>
        <time>2016-11-01T14:25:37.008Z</time>
      </trkpt>
      <trkpt lat="42.95989" lon="2.08252">
        <ele>692</ele>
        <time>2016-11-01T14:25:39.008Z</time>
      </trkpt>
      <trkpt lat="42.96001" lon="2.0826">
        <ele>691.5640064</ele>
        <time>2016-11-01T14:25:41.008Z</time>
      </trkpt>
      <trkpt lat="42.96016" lon="2.08268">
        <ele>690</ele>
        <time>2016-11-01T14:25:43.008Z</time>
      </trkpt>
      <trkpt lat="42.96023" lon="2.08272">
        <ele>690</ele>
        <time>2016-11-01T14:25:44.008Z</time>
      </trkpt>
      <trkpt lat="42.9603" lon="2.08275">
        <ele>690</ele>
        <time>2016-11-01T14:25:45.008Z</time>
      </trkpt>
      <trkpt lat="42.96044" lon="2.08284">
        <ele>689</ele>
        <time>2016-11-01T14:25:47.008Z</time>
      </trkpt>
      <trkpt lat="42.96051" lon="2.08287">
        <ele>689</ele>
        <time>2016-11-01T14:25:48.008Z</time>
      </trkpt>
      <trkpt lat="42.96058" lon="2.0829">
        <ele>689</ele>
        <time>2016-11-01T14:25:49.008Z</time>
      </trkpt>
      <trkpt lat="42.96065" lon="2.08292">
        <ele>689</ele>
        <time>2016-11-01T14:25:50.008Z</time>
      </trkpt>
      <trkpt lat="42.96073" lon="2.08294">
        <ele>688.7820032</ele>
        <time>2016-11-01T14:25:51.008Z</time>
      </trkpt>
      <trkpt lat="42.9608" lon="2.08295">
        <ele>688</ele>
        <time>2016-11-01T14:25:52.008Z</time>
      </trkpt>
      <trkpt lat="42.96087" lon="2.08295">
        <ele>688</ele>
        <time>2016-11-01T14:25:53.008Z</time>
      </trkpt>
      <trkpt lat="42.96094" lon="2.08295">
        <ele>688</ele>
        <time>2016-11-01T14:25:54.008Z</time>
      </trkpt>
      <trkpt lat="42.96101" lon="2.08294">
        <ele>688</ele>
        <time>2016-11-01T14:25:55.008Z</time>
      </trkpt>
      <trkpt lat="42.96108" lon="2.08293">
        <ele>688</ele>
        <time>2016-11-01T14:25:56.008Z</time>
      </trkpt>
      <trkpt lat="42.96122" lon="2.08289">
        <ele>688</ele>
        <time>2016-11-01T14:25:58.008Z</time>
      </trkpt>
      <trkpt lat="42.96135" lon="2.08283">
        <ele>688</ele>
        <time>2016-11-01T14:26:00.008Z</time>
      </trkpt>
      <trkpt lat="42.9615" lon="2.08275">
        <ele>684</ele>
        <time>2016-11-01T14:26:02.008Z</time>
      </trkpt>
      <trkpt lat="42.96163" lon="2.08264">
        <ele>684</ele>
        <time>2016-11-01T14:26:04.008Z</time>
      </trkpt>
      <trkpt lat="42.96173" lon="2.08252">
        <ele>684</ele>
        <time>2016-11-01T14:26:06.008Z</time>
      </trkpt>
      <trkpt lat="42.96178" lon="2.08238">
        <ele>684</ele>
        <time>2016-11-01T14:26:08.008Z</time>
      </trkpt>
      <trkpt lat="42.9618" lon="2.08223">
        <ele>684</ele>
        <time>2016-11-01T14:26:10.008Z</time>
      </trkpt>
      <trkpt lat="42.96182" lon="2.0821">
        <ele>682</ele>
        <time>2016-11-01T14:26:12.008Z</time>
      </trkpt>
      <trkpt lat="42.96183" lon="2.08201">
        <ele>682</ele>
        <time>2016-11-01T14:26:15.008Z</time>
      </trkpt>
      <trkpt lat="42.96187" lon="2.08193">
        <ele>680</ele>
        <time>2016-11-01T14:26:19.008Z</time>
      </trkpt>
      <trkpt lat="42.96189" lon="2.08181">
        <ele>678</ele>
        <time>2016-11-01T14:26:22.008Z</time>
      </trkpt>
      <trkpt lat="42.96193" lon="2.08168">
        <ele>677</ele>
        <time>2016-11-01T14:26:30.008Z</time>
      </trkpt>
      <trkpt lat="42.96196" lon="2.08157">
        <ele>677</ele>
        <time>2016-11-01T14:26:32.008Z</time>
      </trkpt>
      <trkpt lat="42.962" lon="2.08144">
        <ele>677</ele>
        <time>2016-11-01T14:26:34.008Z</time>
      </trkpt>
      <trkpt lat="42.96205" lon="2.08129">
        <ele>677</ele>
        <time>2016-11-01T14:26:36.008Z</time>
      </trkpt>
      <trkpt lat="42.96211" lon="2.08113">
        <ele>677</ele>
        <time>2016-11-01T14:26:38.008Z</time>
      </trkpt>
      <trkpt lat="42.96217" lon="2.08095">
        <ele>677</ele>
        <time>2016-11-01T14:26:40.008Z</time>
      </trkpt>
      <trkpt lat="42.96223" lon="2.08074">
        <ele>674</ele>
        <time>2016-11-01T14:26:42.008Z</time>
      </trkpt>
      <trkpt lat="42.9623" lon="2.08054">
        <ele>674</ele>
        <time>2016-11-01T14:26:44.008Z</time>
      </trkpt>
      <trkpt lat="42.96233" lon="2.08044">
        <ele>674</ele>
        <time>2016-11-01T14:26:45.008Z</time>
      </trkpt>
      <trkpt lat="42.96239" lon="2.08022">
        <ele>670</ele>
        <time>2016-11-01T14:26:47.008Z</time>
      </trkpt>
      <trkpt lat="42.96245" lon="2.08">
        <ele>670</ele>
        <time>2016-11-01T14:26:49.008Z</time>
      </trkpt>
      <trkpt lat="42.9625" lon="2.07976">
        <ele>669.5640064</ele>
        <time>2016-11-01T14:26:51.008Z</time>
      </trkpt>
      <trkpt lat="42.96256" lon="2.07955">
        <ele>667</ele>
        <time>2016-11-01T14:26:53.008Z</time>
      </trkpt>
      <trkpt lat="42.96263" lon="2.07932">
        <ele>666</ele>
        <time>2016-11-01T14:26:55.008Z</time>
      </trkpt>
      <trkpt lat="42.9627" lon="2.0791">
        <ele>664.7820032</ele>
        <time>2016-11-01T14:26:57.008Z</time>
      </trkpt>
      <trkpt lat="42.96276" lon="2.07889">
        <ele>663</ele>
        <time>2016-11-01T14:26:59.008Z</time>
      </trkpt>
      <trkpt lat="42.9628" lon="2.07868">
        <ele>662.5640064</ele>
        <time>2016-11-01T14:27:01.008Z</time>
      </trkpt>
      <trkpt lat="42.96282" lon="2.07847">
        <ele>661</ele>
        <time>2016-11-01T14:27:03.008Z</time>
      </trkpt>
      <trkpt lat="42.96284" lon="2.07826">
        <ele>660</ele>
        <time>2016-11-01T14:27:05.008Z</time>
      </trkpt>
      <trkpt lat="42.96285" lon="2.07803">
        <ele>659.36969900703</ele>
        <time>2016-11-01T14:27:07.008Z</time>
      </trkpt>
      <trkpt lat="42.96286" lon="2.0778">
        <ele>657.5640064</ele>
        <time>2016-11-01T14:27:09.008Z</time>
      </trkpt>
      <trkpt lat="42.96286" lon="2.07755">
        <ele>655</ele>
        <time>2016-11-01T14:27:11.008Z</time>
      </trkpt>
      <trkpt lat="42.96287" lon="2.07733">
        <ele>653.7820032</ele>
        <time>2016-11-01T14:27:13.008Z</time>
      </trkpt>
      <trkpt lat="42.96287" lon="2.07723">
        <ele>652.7820032</ele>
        <time>2016-11-01T14:27:14.008Z</time>
      </trkpt>
      <trkpt lat="42.96287" lon="2.07712">
        <ele>652</ele>
        <time>2016-11-01T14:27:15.008Z</time>
      </trkpt>
      <trkpt lat="42.96288" lon="2.07702">
        <ele>651.7820032</ele>
        <time>2016-11-01T14:27:16.008Z</time>
      </trkpt>
      <trkpt lat="42.96289" lon="2.07691">
        <ele>650.7820032</ele>
        <time>2016-11-01T14:27:17.008Z</time>
      </trkpt>
      <trkpt lat="42.96291" lon="2.07681">
        <ele>650</ele>
        <time>2016-11-01T14:27:18.008Z</time>
      </trkpt>
      <trkpt lat="42.96293" lon="2.07673">
        <ele>649.7820032</ele>
        <time>2016-11-01T14:27:19.008Z</time>
      </trkpt>
      <trkpt lat="42.96297" lon="2.07667">
        <ele>648.7820032</ele>
        <time>2016-11-01T14:27:20.008Z</time>
      </trkpt>
      <trkpt lat="42.96307" lon="2.07663">
        <ele>647.7820032</ele>
        <time>2016-11-01T14:27:22.008Z</time>
      </trkpt>
      <trkpt lat="42.96317" lon="2.07668">
        <ele>646</ele>
        <time>2016-11-01T14:27:24.008Z</time>
      </trkpt>
      <trkpt lat="42.96327" lon="2.07675">
        <ele>645</ele>
        <time>2016-11-01T14:27:26.008Z</time>
      </trkpt>
      <trkpt lat="42.96337" lon="2.07684">
        <ele>645</ele>
        <time>2016-11-01T14:27:28.008Z</time>
      </trkpt>
      <trkpt lat="42.96346" lon="2.07694">
        <ele>645.7820032</ele>
        <time>2016-11-01T14:27:30.008Z</time>
      </trkpt>
      <trkpt lat="42.96354" lon="2.07703">
        <ele>644</ele>
        <time>2016-11-01T14:27:32.008Z</time>
      </trkpt>
      <trkpt lat="42.96365" lon="2.07711">
        <ele>644</ele>
        <time>2016-11-01T14:27:35.008Z</time>
      </trkpt>
      <trkpt lat="42.96379" lon="2.07705">
        <ele>643</ele>
        <time>2016-11-01T14:27:38.008Z</time>
      </trkpt>
      <trkpt lat="42.96392" lon="2.077">
        <ele>641.6920192</ele>
        <time>2016-11-01T14:27:41.008Z</time>
      </trkpt>
      <trkpt lat="42.96405" lon="2.07692">
        <ele>633.7820032</ele>
        <time>2016-11-01T14:27:44.008Z</time>
      </trkpt>
      <trkpt lat="42.96406" lon="2.07673">
        <ele>634</ele>
        <time>2016-11-01T14:27:47.008Z</time>
      </trkpt>
      <trkpt lat="42.96403" lon="2.07655">
        <ele>632</ele>
        <time>2016-11-01T14:27:50.008Z</time>
      </trkpt>
      <trkpt lat="42.96404" lon="2.07636">
        <ele>630.7820032</ele>
        <time>2016-11-01T14:27:53.008Z</time>
      </trkpt>
      <trkpt lat="42.96402" lon="2.07622">
        <ele>630</ele>
        <time>2016-11-01T14:27:55.008Z</time>
      </trkpt>
      <trkpt lat="42.96396" lon="2.07612">
        <ele>630</ele>
        <time>2016-11-01T14:27:59.008Z</time>
      </trkpt>
      <trkpt lat="42.96394" lon="2.07595">
        <ele>631</ele>
        <time>2016-11-01T14:28:03.008Z</time>
      </trkpt>
      <trkpt lat="42.96392" lon="2.07578">
        <ele>631</ele>
        <time>2016-11-01T14:28:07.008Z</time>
      </trkpt>
      <trkpt lat="42.96388" lon="2.07563">
        <ele>631</ele>
        <time>2016-11-01T14:28:10.008Z</time>
      </trkpt>
      <trkpt lat="42.96383" lon="2.07544">
        <ele>631</ele>
        <time>2016-11-01T14:28:13.008Z</time>
      </trkpt>
      <trkpt lat="42.9638" lon="2.07529">
        <ele>631</ele>
        <time>2016-11-01T14:28:15.008Z</time>
      </trkpt>
      <trkpt lat="42.96375" lon="2.07517">
        <ele>631</ele>
        <time>2016-11-01T14:28:17.008Z</time>
      </trkpt>
      <trkpt lat="42.96369" lon="2.07506">
        <ele>631</ele>
        <time>2016-11-01T14:28:19.008Z</time>
      </trkpt>
      <trkpt lat="42.96362" lon="2.07495">
        <ele>630.3460096</ele>
        <time>2016-11-01T14:28:21.008Z</time>
      </trkpt>
      <trkpt lat="42.96354" lon="2.07484">
        <ele>628</ele>
        <time>2016-11-01T14:28:23.008Z</time>
      </trkpt>
      <trkpt lat="42.96345" lon="2.07471">
        <ele>628</ele>
        <time>2016-11-01T14:28:25.008Z</time>
      </trkpt>
      <trkpt lat="42.96336" lon="2.07459">
        <ele>626</ele>
        <time>2016-11-01T14:28:27.008Z</time>
      </trkpt>
      <trkpt lat="42.96327" lon="2.07447">
        <ele>626</ele>
        <time>2016-11-01T14:28:29.008Z</time>
      </trkpt>
      <trkpt lat="42.96316" lon="2.07433">
        <ele>624.6920192</ele>
        <time>2016-11-01T14:28:31.008Z</time>
      </trkpt>
      <trkpt lat="42.96304" lon="2.07419">
        <ele>618.5640064</ele>
        <time>2016-11-01T14:28:33.008Z</time>
      </trkpt>
      <trkpt lat="42.96294" lon="2.07405">
        <ele>614.78416090031</ele>
        <time>2016-11-01T14:28:35.008Z</time>
      </trkpt>
      <trkpt lat="42.96286" lon="2.07391">
        <ele>611.7820032</ele>
        <time>2016-11-01T14:28:37.008Z</time>
      </trkpt>
      <trkpt lat="42.96277" lon="2.07382">
        <ele>611</ele>
        <time>2016-11-01T14:28:39.008Z</time>
      </trkpt>
      <trkpt lat="42.96266" lon="2.07378">
        <ele>609.7820032</ele>
        <time>2016-11-01T14:28:41.008Z</time>
      </trkpt>
      <trkpt lat="42.96255" lon="2.07372">
        <ele>607.7820032</ele>
        <time>2016-11-01T14:28:43.008Z</time>
      </trkpt>
      <trkpt lat="42.96253" lon="2.07357">
        <ele>605.7820032</ele>
        <time>2016-11-01T14:28:45.008Z</time>
      </trkpt>
      <trkpt lat="42.96252" lon="2.07339">
        <ele>603.5640064</ele>
        <time>2016-11-01T14:28:47.008Z</time>
      </trkpt>
      <trkpt lat="42.96252" lon="2.07324">
        <ele>601.7820032</ele>
        <time>2016-11-01T14:28:49.008Z</time>
      </trkpt>
      <trkpt lat="42.96246" lon="2.07308">
        <ele>599.5640064</ele>
        <time>2016-11-01T14:28:51.008Z</time>
      </trkpt>
      <trkpt lat="42.96242" lon="2.0729">
        <ele>596.7820032</ele>
        <time>2016-11-01T14:28:53.008Z</time>
      </trkpt>
      <trkpt lat="42.96232" lon="2.07279">
        <ele>593.7820032</ele>
        <time>2016-11-01T14:28:56.008Z</time>
      </trkpt>
      <trkpt lat="42.96223" lon="2.07288">
        <ele>593</ele>
        <time>2016-11-01T14:28:58.008Z</time>
      </trkpt>
      <trkpt lat="42.96222" lon="2.07306">
        <ele>592</ele>
        <time>2016-11-01T14:29:00.008Z</time>
      </trkpt>
      <trkpt lat="42.96225" lon="2.07327">
        <ele>590.2179968</ele>
        <time>2016-11-01T14:29:02.008Z</time>
      </trkpt>
      <trkpt lat="42.96223" lon="2.07345">
        <ele>591</ele>
        <time>2016-11-01T14:29:04.008Z</time>
      </trkpt>
      <trkpt lat="42.9622" lon="2.07363">
        <ele>590</ele>
        <time>2016-11-01T14:29:06.008Z</time>
      </trkpt>
      <trkpt lat="42.96215" lon="2.07382">
        <ele>589</ele>
        <time>2016-11-01T14:29:08.008Z</time>
      </trkpt>
      <trkpt lat="42.96212" lon="2.07399">
        <ele>588.7820032</ele>
        <time>2016-11-01T14:29:10.008Z</time>
      </trkpt>
      <trkpt lat="42.96208" lon="2.07418">
        <ele>588</ele>
        <time>2016-11-01T14:29:12.008Z</time>
      </trkpt>
      <trkpt lat="42.96203" lon="2.07439">
        <ele>588</ele>
        <time>2016-11-01T14:29:14.008Z</time>
      </trkpt>
      <trkpt lat="42.96195" lon="2.07457">
        <ele>588</ele>
        <time>2016-11-01T14:29:16.008Z</time>
      </trkpt>
      <trkpt lat="42.96187" lon="2.07472">
        <ele>588</ele>
        <time>2016-11-01T14:29:18.008Z</time>
      </trkpt>
      <trkpt lat="42.9618" lon="2.07491">
        <ele>588</ele>
        <time>2016-11-01T14:29:20.008Z</time>
      </trkpt>
      <trkpt lat="42.96174" lon="2.07508">
        <ele>584</ele>
        <time>2016-11-01T14:29:22.008Z</time>
      </trkpt>
      <trkpt lat="42.96168" lon="2.07526">
        <ele>584</ele>
        <time>2016-11-01T14:29:24.008Z</time>
      </trkpt>
      <trkpt lat="42.96162" lon="2.07545">
        <ele>583.1280128</ele>
        <time>2016-11-01T14:29:26.008Z</time>
      </trkpt>
      <trkpt lat="42.96155" lon="2.07564">
        <ele>580</ele>
        <time>2016-11-01T14:29:28.008Z</time>
      </trkpt>
      <trkpt lat="42.96149" lon="2.0758">
        <ele>580</ele>
        <time>2016-11-01T14:29:30.008Z</time>
      </trkpt>
      <trkpt lat="42.96145" lon="2.07596">
        <ele>576.5640064</ele>
        <time>2016-11-01T14:29:32.008Z</time>
      </trkpt>
      <trkpt lat="42.96141" lon="2.07612">
        <ele>574</ele>
        <time>2016-11-01T14:29:34.008Z</time>
      </trkpt>
      <trkpt lat="42.96137" lon="2.07595">
        <ele>571</ele>
        <time>2016-11-01T14:29:42.008Z</time>
      </trkpt>
      <trkpt lat="42.96134" lon="2.07581">
        <ele>570.7820032</ele>
        <time>2016-11-01T14:29:44.008Z</time>
      </trkpt>
      <trkpt lat="42.96132" lon="2.07566">
        <ele>569</ele>
        <time>2016-11-01T14:29:46.008Z</time>
      </trkpt>
      <trkpt lat="42.96133" lon="2.07549">
        <ele>567.7820032</ele>
        <time>2016-11-01T14:29:48.008Z</time>
      </trkpt>
      <trkpt lat="42.96134" lon="2.07533">
        <ele>566.7820032</ele>
        <time>2016-11-01T14:29:50.008Z</time>
      </trkpt>
      <trkpt lat="42.96132" lon="2.07517">
        <ele>565.7820032</ele>
        <time>2016-11-01T14:29:52.008Z</time>
      </trkpt>
      <trkpt lat="42.9613" lon="2.07497">
        <ele>564.7820032</ele>
        <time>2016-11-01T14:29:54.008Z</time>
      </trkpt>
      <trkpt lat="42.96129" lon="2.07477">
        <ele>563.7820032</ele>
        <time>2016-11-01T14:29:56.008Z</time>
      </trkpt>
      <trkpt lat="42.96127" lon="2.07458">
        <ele>561.7820032</ele>
        <time>2016-11-01T14:29:58.008Z</time>
      </trkpt>
      <trkpt lat="42.96127" lon="2.07439">
        <ele>559.7820032</ele>
        <time>2016-11-01T14:30:00.008Z</time>
      </trkpt>
      <trkpt lat="42.96125" lon="2.0742">
        <ele>558</ele>
        <time>2016-11-01T14:30:02.008Z</time>
      </trkpt>
      <trkpt lat="42.96124" lon="2.0741">
        <ele>558</ele>
        <time>2016-11-01T14:30:03.008Z</time>
      </trkpt>
      <trkpt lat="42.96122" lon="2.07399">
        <ele>557.7820032</ele>
        <time>2016-11-01T14:30:04.008Z</time>
      </trkpt>
      <trkpt lat="42.96121" lon="2.07389">
        <ele>556.7820032</ele>
        <time>2016-11-01T14:30:05.008Z</time>
      </trkpt>
      <trkpt lat="42.96119" lon="2.07379">
        <ele>556</ele>
        <time>2016-11-01T14:30:06.008Z</time>
      </trkpt>
      <trkpt lat="42.96118" lon="2.07369">
        <ele>555.7820032</ele>
        <time>2016-11-01T14:30:07.008Z</time>
      </trkpt>
      <trkpt lat="42.96116" lon="2.0736">
        <ele>554.3460096</ele>
        <time>2016-11-01T14:30:08.008Z</time>
      </trkpt>
      <trkpt lat="42.96115" lon="2.07351">
        <ele>551.78416090031</ele>
        <time>2016-11-01T14:30:09.008Z</time>
      </trkpt>
      <trkpt lat="42.96113" lon="2.07333">
        <ele>551</ele>
        <time>2016-11-01T14:30:11.008Z</time>
      </trkpt>
      <trkpt lat="42.9611" lon="2.07315">
        <ele>549.7820032</ele>
        <time>2016-11-01T14:30:13.008Z</time>
      </trkpt>
      <trkpt lat="42.96107" lon="2.07299">
        <ele>548.7820032</ele>
        <time>2016-11-01T14:30:15.008Z</time>
      </trkpt>
      <trkpt lat="42.96099" lon="2.07285">
        <ele>547.7820032</ele>
        <time>2016-11-01T14:30:17.008Z</time>
      </trkpt>
      <trkpt lat="42.96087" lon="2.07278">
        <ele>545.7820032</ele>
        <time>2016-11-01T14:30:19.008Z</time>
      </trkpt>
      <trkpt lat="42.96078" lon="2.07271">
        <ele>544</ele>
        <time>2016-11-01T14:30:21.008Z</time>
      </trkpt>
      <trkpt lat="42.96089" lon="2.07264">
        <ele>543</ele>
        <time>2016-11-01T14:30:26.008Z</time>
      </trkpt>
      <trkpt lat="42.96101" lon="2.07259">
        <ele>542</ele>
        <time>2016-11-01T14:30:29.008Z</time>
      </trkpt>
      <trkpt lat="42.96106" lon="2.07242">
        <ele>542</ele>
        <time>2016-11-01T14:30:32.008Z</time>
      </trkpt>
      <trkpt lat="42.96106" lon="2.07225">
        <ele>542</ele>
        <time>2016-11-01T14:30:35.008Z</time>
      </trkpt>
      <trkpt lat="42.96108" lon="2.07205">
        <ele>542</ele>
        <time>2016-11-01T14:30:38.008Z</time>
      </trkpt>
      <trkpt lat="42.96108" lon="2.07189">
        <ele>542</ele>
        <time>2016-11-01T14:30:40.008Z</time>
      </trkpt>
      <trkpt lat="42.96108" lon="2.07173">
        <ele>541</ele>
        <time>2016-11-01T14:30:42.008Z</time>
      </trkpt>
      <trkpt lat="42.96114" lon="2.07154">
        <ele>541</ele>
        <time>2016-11-01T14:30:44.008Z</time>
      </trkpt>
      <trkpt lat="42.96122" lon="2.07135">
        <ele>541</ele>
        <time>2016-11-01T14:30:46.008Z</time>
      </trkpt>
      <trkpt lat="42.96129" lon="2.07117">
        <ele>541</ele>
        <time>2016-11-01T14:30:48.008Z</time>
      </trkpt>
      <trkpt lat="42.96137" lon="2.07098">
        <ele>541</ele>
        <time>2016-11-01T14:30:50.008Z</time>
      </trkpt>
      <trkpt lat="42.96144" lon="2.07078">
        <ele>535.5640064</ele>
        <time>2016-11-01T14:30:52.008Z</time>
      </trkpt>
      <trkpt lat="42.9615" lon="2.07057">
        <ele>534</ele>
        <time>2016-11-01T14:30:54.008Z</time>
      </trkpt>
      <trkpt lat="42.96158" lon="2.07043">
        <ele>532.7820032</ele>
        <time>2016-11-01T14:30:56.008Z</time>
      </trkpt>
      <trkpt lat="42.96165" lon="2.0703">
        <ele>531.7820032</ele>
        <time>2016-11-01T14:30:59.008Z</time>
      </trkpt>
      <trkpt lat="42.96169" lon="2.07015">
        <ele>532</ele>
        <time>2016-11-01T14:31:04.008Z</time>
      </trkpt>
      <trkpt lat="42.96176" lon="2.07005">
        <ele>532</ele>
        <time>2016-11-01T14:31:07.008Z</time>
      </trkpt>
      <trkpt lat="42.96182" lon="2.06989">
        <ele>532.4359936</ele>
        <time>2016-11-01T14:31:11.008Z</time>
      </trkpt>
      <trkpt lat="42.96189" lon="2.06976">
        <ele>534</ele>
        <time>2016-11-01T14:31:14.008Z</time>
      </trkpt>
      <trkpt lat="42.96194" lon="2.06962">
        <ele>535</ele>
        <time>2016-11-01T14:31:17.008Z</time>
      </trkpt>
      <trkpt lat="42.96197" lon="2.0695">
        <ele>535</ele>
        <time>2016-11-01T14:31:19.008Z</time>
      </trkpt>
      <trkpt lat="42.96199" lon="2.06934">
        <ele>534.7820032</ele>
        <time>2016-11-01T14:31:21.008Z</time>
      </trkpt>
      <trkpt lat="42.96202" lon="2.0692">
        <ele>534</ele>
        <time>2016-11-01T14:31:23.008Z</time>
      </trkpt>
      <trkpt lat="42.96205" lon="2.06905">
        <ele>534</ele>
        <time>2016-11-01T14:31:25.008Z</time>
      </trkpt>
      <trkpt lat="42.96208" lon="2.06889">
        <ele>534</ele>
        <time>2016-11-01T14:31:27.008Z</time>
      </trkpt>
      <trkpt lat="42.96211" lon="2.06874">
        <ele>534</ele>
        <time>2016-11-01T14:31:29.008Z</time>
      </trkpt>
      <trkpt lat="42.96215" lon="2.0686">
        <ele>533.7820032</ele>
        <time>2016-11-01T14:31:31.008Z</time>
      </trkpt>
      <trkpt lat="42.96218" lon="2.06846">
        <ele>533</ele>
        <time>2016-11-01T14:31:33.008Z</time>
      </trkpt>
      <trkpt lat="42.96221" lon="2.06833">
        <ele>533</ele>
        <time>2016-11-01T14:31:35.008Z</time>
      </trkpt>
      <trkpt lat="42.96222" lon="2.06819">
        <ele>533</ele>
        <time>2016-11-01T14:31:37.008Z</time>
      </trkpt>
      <trkpt lat="42.96224" lon="2.06805">
        <ele>533</ele>
        <time>2016-11-01T14:31:39.008Z</time>
      </trkpt>
      <trkpt lat="42.96226" lon="2.0679">
        <ele>532.7820032</ele>
        <time>2016-11-01T14:31:41.008Z</time>
      </trkpt>
      <trkpt lat="42.96228" lon="2.06777">
        <ele>532</ele>
        <time>2016-11-01T14:31:43.008Z</time>
      </trkpt>
      <trkpt lat="42.96231" lon="2.06762">
        <ele>532</ele>
        <time>2016-11-01T14:31:45.008Z</time>
      </trkpt>
      <trkpt lat="42.96233" lon="2.06748">
        <ele>532</ele>
        <time>2016-11-01T14:31:47.008Z</time>
      </trkpt>
      <trkpt lat="42.96234" lon="2.06733">
        <ele>532</ele>
        <time>2016-11-01T14:31:49.008Z</time>
      </trkpt>
      <trkpt lat="42.96236" lon="2.06718">
        <ele>532</ele>
        <time>2016-11-01T14:31:51.008Z</time>
      </trkpt>
      <trkpt lat="42.96238" lon="2.06702">
        <ele>532</ele>
        <time>2016-11-01T14:31:53.008Z</time>
      </trkpt>
      <trkpt lat="42.96238" lon="2.06688">
        <ele>532</ele>
        <time>2016-11-01T14:31:55.008Z</time>
      </trkpt>
      <trkpt lat="42.9624" lon="2.06673">
        <ele>532</ele>
        <time>2016-11-01T14:31:57.008Z</time>
      </trkpt>
      <trkpt lat="42.96241" lon="2.06656">
        <ele>532</ele>
        <time>2016-11-01T14:31:59.008Z</time>
      </trkpt>
      <trkpt lat="42.96242" lon="2.06639">
        <ele>531.5640064</ele>
        <time>2016-11-01T14:32:01.008Z</time>
      </trkpt>
      <trkpt lat="42.96242" lon="2.06624">
        <ele>530</ele>
        <time>2016-11-01T14:32:03.008Z</time>
      </trkpt>
      <trkpt lat="42.96242" lon="2.06608">
        <ele>530</ele>
        <time>2016-11-01T14:32:05.008Z</time>
      </trkpt>
      <trkpt lat="42.96243" lon="2.06592">
        <ele>530</ele>
        <time>2016-11-01T14:32:07.008Z</time>
      </trkpt>
      <trkpt lat="42.96244" lon="2.06576">
        <ele>530</ele>
        <time>2016-11-01T14:32:09.008Z</time>
      </trkpt>
      <trkpt lat="42.96249" lon="2.06559">
        <ele>529.5640064</ele>
        <time>2016-11-01T14:32:11.008Z</time>
      </trkpt>
      <trkpt lat="42.96256" lon="2.06542">
        <ele>528</ele>
        <time>2016-11-01T14:32:13.008Z</time>
      </trkpt>
      <trkpt lat="42.96265" lon="2.06527">
        <ele>528</ele>
        <time>2016-11-01T14:32:15.008Z</time>
      </trkpt>
      <trkpt lat="42.96274" lon="2.06515">
        <ele>528</ele>
        <time>2016-11-01T14:32:17.008Z</time>
      </trkpt>
      <trkpt lat="42.96282" lon="2.06503">
        <ele>528</ele>
        <time>2016-11-01T14:32:19.008Z</time>
      </trkpt>
      <trkpt lat="42.96277" lon="2.06487">
        <ele>526</ele>
        <time>2016-11-01T14:32:23.008Z</time>
      </trkpt>
      <trkpt lat="42.96281" lon="2.06473">
        <ele>526</ele>
        <time>2016-11-01T14:32:26.008Z</time>
      </trkpt>
      <trkpt lat="42.96286" lon="2.06461">
        <ele>526</ele>
        <time>2016-11-01T14:32:28.008Z</time>
      </trkpt>
      <trkpt lat="42.96292" lon="2.06448">
        <ele>526</ele>
        <time>2016-11-01T14:32:30.008Z</time>
      </trkpt>
      <trkpt lat="42.963" lon="2.06434">
        <ele>525</ele>
        <time>2016-11-01T14:32:32.008Z</time>
      </trkpt>
      <trkpt lat="42.96306" lon="2.06419">
        <ele>525</ele>
        <time>2016-11-01T14:32:34.008Z</time>
      </trkpt>
      <trkpt lat="42.9631" lon="2.06405">
        <ele>525</ele>
        <time>2016-11-01T14:32:36.008Z</time>
      </trkpt>
      <trkpt lat="42.96312" lon="2.0639">
        <ele>525</ele>
        <time>2016-11-01T14:32:38.008Z</time>
      </trkpt>
      <trkpt lat="42.96314" lon="2.06374">
        <ele>525</ele>
        <time>2016-11-01T14:32:40.008Z</time>
      </trkpt>
      <trkpt lat="42.96317" lon="2.06356">
        <ele>522</ele>
        <time>2016-11-01T14:32:42.008Z</time>
      </trkpt>
      <trkpt lat="42.9632" lon="2.06337">
        <ele>522</ele>
        <time>2016-11-01T14:32:44.008Z</time>
      </trkpt>
      <trkpt lat="42.9632" lon="2.06317">
        <ele>521.5640064</ele>
        <time>2016-11-01T14:32:46.008Z</time>
      </trkpt>
      <trkpt lat="42.96319" lon="2.06297">
        <ele>520</ele>
        <time>2016-11-01T14:32:48.008Z</time>
      </trkpt>
      <trkpt lat="42.96319" lon="2.06277">
        <ele>520</ele>
        <time>2016-11-01T14:32:50.008Z</time>
      </trkpt>
      <trkpt lat="42.96321" lon="2.06261">
        <ele>517</ele>
        <time>2016-11-01T14:32:52.008Z</time>
      </trkpt>
      <trkpt lat="42.96325" lon="2.06246">
        <ele>516.7820032</ele>
        <time>2016-11-01T14:32:54.008Z</time>
      </trkpt>
      <trkpt lat="42.9633" lon="2.06234">
        <ele>516</ele>
        <time>2016-11-01T14:32:56.008Z</time>
      </trkpt>
      <trkpt lat="42.96339" lon="2.06219">
        <ele>514.2179968</ele>
        <time>2016-11-01T14:32:59.008Z</time>
      </trkpt>
      <trkpt lat="42.96346" lon="2.06209">
        <ele>515</ele>
        <time>2016-11-01T14:33:01.008Z</time>
      </trkpt>
      <trkpt lat="42.96355" lon="2.062">
        <ele>515</ele>
        <time>2016-11-01T14:33:03.008Z</time>
      </trkpt>
      <trkpt lat="42.96363" lon="2.0619">
        <ele>515</ele>
        <time>2016-11-01T14:33:05.008Z</time>
      </trkpt>
      <trkpt lat="42.96373" lon="2.06181">
        <ele>515</ele>
        <time>2016-11-01T14:33:07.008Z</time>
      </trkpt>
      <trkpt lat="42.96384" lon="2.06182">
        <ele>514</ele>
        <time>2016-11-01T14:33:16.008Z</time>
      </trkpt>
      <trkpt lat="42.96394" lon="2.06177">
        <ele>513</ele>
        <time>2016-11-01T14:33:25.008Z</time>
      </trkpt>
      <trkpt lat="42.96399" lon="2.06173">
        <ele>513.2179968</ele>
        <time>2016-11-01T14:33:31.008Z</time>
      </trkpt>
      <trkpt lat="42.96399" lon="2.06167">
        <ele>514</ele>
        <time>2016-11-01T14:33:48.008Z</time>
      </trkpt>
      <trkpt lat="42.96392" lon="2.06163">
        <ele>514</ele>
        <time>2016-11-01T14:34:39.008Z</time>
      </trkpt>
      <trkpt lat="42.96386" lon="2.06157">
        <ele>514</ele>
        <time>2016-11-01T14:34:42.008Z</time>
      </trkpt>
      <trkpt lat="42.96377" lon="2.06153">
        <ele>514</ele>
        <time>2016-11-01T14:34:45.008Z</time>
      </trkpt>
      <trkpt lat="42.96365" lon="2.06151">
        <ele>514</ele>
        <time>2016-11-01T14:34:48.008Z</time>
      </trkpt>
      <trkpt lat="42.96352" lon="2.06148">
        <ele>513.78989966901</ele>
        <time>2016-11-01T14:34:51.008Z</time>
      </trkpt>
      <trkpt lat="42.96341" lon="2.06145">
        <ele>513</ele>
        <time>2016-11-01T14:34:54.008Z</time>
      </trkpt>
      <trkpt lat="42.96331" lon="2.06141">
        <ele>513</ele>
        <time>2016-11-01T14:34:57.008Z</time>
      </trkpt>
      <trkpt lat="42.96318" lon="2.06135">
        <ele>513</ele>
        <time>2016-11-01T14:35:00.008Z</time>
      </trkpt>
      <trkpt lat="42.96308" lon="2.06123">
        <ele>513</ele>
        <time>2016-11-01T14:35:03.008Z</time>
      </trkpt>
      <trkpt lat="42.96306" lon="2.0611">
        <ele>513</ele>
        <time>2016-11-01T14:35:05.008Z</time>
      </trkpt>
      <trkpt lat="42.9631" lon="2.06092">
        <ele>513</ele>
        <time>2016-11-01T14:35:07.008Z</time>
      </trkpt>
      <trkpt lat="42.96316" lon="2.06074">
        <ele>513</ele>
        <time>2016-11-01T14:35:09.008Z</time>
      </trkpt>
      <trkpt lat="42.96322" lon="2.06053">
        <ele>511.910016</ele>
        <time>2016-11-01T14:35:11.008Z</time>
      </trkpt>
      <trkpt lat="42.9633" lon="2.06031">
        <ele>508</ele>
        <time>2016-11-01T14:35:13.008Z</time>
      </trkpt>
      <trkpt lat="42.96338" lon="2.06012">
        <ele>508</ele>
        <time>2016-11-01T14:35:15.008Z</time>
      </trkpt>
      <trkpt lat="42.96347" lon="2.05993">
        <ele>506</ele>
        <time>2016-11-01T14:35:17.008Z</time>
      </trkpt>
      <trkpt lat="42.96354" lon="2.05974">
        <ele>506</ele>
        <time>2016-11-01T14:35:19.008Z</time>
      </trkpt>
      <trkpt lat="42.9636" lon="2.05955">
        <ele>505.5640064</ele>
        <time>2016-11-01T14:35:21.008Z</time>
      </trkpt>
      <trkpt lat="42.96367" lon="2.05937">
        <ele>504</ele>
        <time>2016-11-01T14:35:23.008Z</time>
      </trkpt>
      <trkpt lat="42.96373" lon="2.05919">
        <ele>504</ele>
        <time>2016-11-01T14:35:25.008Z</time>
      </trkpt>
      <trkpt lat="42.96378" lon="2.05901">
        <ele>503</ele>
        <time>2016-11-01T14:35:27.008Z</time>
      </trkpt>
      <trkpt lat="42.96383" lon="2.05884">
        <ele>503</ele>
        <time>2016-11-01T14:35:29.008Z</time>
      </trkpt>
      <trkpt lat="42.9639" lon="2.05867">
        <ele>502.5640064</ele>
        <time>2016-11-01T14:35:31.008Z</time>
      </trkpt>
      <trkpt lat="42.96396" lon="2.0585">
        <ele>501</ele>
        <time>2016-11-01T14:35:33.008Z</time>
      </trkpt>
      <trkpt lat="42.96404" lon="2.05833">
        <ele>501</ele>
        <time>2016-11-01T14:35:35.008Z</time>
      </trkpt>
      <trkpt lat="42.96411" lon="2.05816">
        <ele>500</ele>
        <time>2016-11-01T14:35:37.008Z</time>
      </trkpt>
      <trkpt lat="42.9642" lon="2.05799">
        <ele>500</ele>
        <time>2016-11-01T14:35:39.008Z</time>
      </trkpt>
      <trkpt lat="42.9643" lon="2.05782">
        <ele>499.5640064</ele>
        <time>2016-11-01T14:35:41.008Z</time>
      </trkpt>
      <trkpt lat="42.96438" lon="2.05764">
        <ele>498</ele>
        <time>2016-11-01T14:35:43.008Z</time>
      </trkpt>
      <trkpt lat="42.96447" lon="2.05746">
        <ele>498</ele>
        <time>2016-11-01T14:35:45.008Z</time>
      </trkpt>
      <trkpt lat="42.96457" lon="2.0573">
        <ele>496</ele>
        <time>2016-11-01T14:35:47.008Z</time>
      </trkpt>
      <trkpt lat="42.96464" lon="2.05712">
        <ele>496</ele>
        <time>2016-11-01T14:35:49.008Z</time>
      </trkpt>
      <trkpt lat="42.96471" lon="2.05692">
        <ele>495.5640064</ele>
        <time>2016-11-01T14:35:51.008Z</time>
      </trkpt>
      <trkpt lat="42.96474" lon="2.05682">
        <ele>494</ele>
        <time>2016-11-01T14:35:52.008Z</time>
      </trkpt>
      <trkpt lat="42.9648" lon="2.05663">
        <ele>494</ele>
        <time>2016-11-01T14:35:54.008Z</time>
      </trkpt>
      <trkpt lat="42.96487" lon="2.05645">
        <ele>493.56832180062</ele>
        <time>2016-11-01T14:35:56.008Z</time>
      </trkpt>
      <trkpt lat="42.96494" lon="2.05628">
        <ele>492</ele>
        <time>2016-11-01T14:35:58.008Z</time>
      </trkpt>
      <trkpt lat="42.96501" lon="2.05612">
        <ele>492</ele>
        <time>2016-11-01T14:36:00.008Z</time>
      </trkpt>
      <trkpt lat="42.96508" lon="2.05597">
        <ele>490</ele>
        <time>2016-11-01T14:36:02.008Z</time>
      </trkpt>
      <trkpt lat="42.96516" lon="2.05581">
        <ele>490</ele>
        <time>2016-11-01T14:36:04.008Z</time>
      </trkpt>
      <trkpt lat="42.96524" lon="2.05566">
        <ele>490</ele>
        <time>2016-11-01T14:36:06.008Z</time>
      </trkpt>
      <trkpt lat="42.96532" lon="2.05552">
        <ele>490</ele>
        <time>2016-11-01T14:36:08.008Z</time>
      </trkpt>
      <trkpt lat="42.96537" lon="2.05544">
        <ele>490</ele>
        <time>2016-11-01T14:36:09.008Z</time>
      </trkpt>
      <trkpt lat="42.96541" lon="2.05537">
        <ele>490</ele>
        <time>2016-11-01T14:36:10.008Z</time>
      </trkpt>
      <trkpt lat="42.96545" lon="2.0553">
        <ele>489.7820032</ele>
        <time>2016-11-01T14:36:11.008Z</time>
      </trkpt>
      <trkpt lat="42.96552" lon="2.05516">
        <ele>489</ele>
        <time>2016-11-01T14:36:13.008Z</time>
      </trkpt>
      <trkpt lat="42.96558" lon="2.05503">
        <ele>489</ele>
        <time>2016-11-01T14:36:15.008Z</time>
      </trkpt>
      <trkpt lat="42.96564" lon="2.0549">
        <ele>489</ele>
        <time>2016-11-01T14:36:17.008Z</time>
      </trkpt>
      <trkpt lat="42.9657" lon="2.05479">
        <ele>489</ele>
        <time>2016-11-01T14:36:19.008Z</time>
      </trkpt>
      <trkpt lat="42.96577" lon="2.05468">
        <ele>489</ele>
        <time>2016-11-01T14:36:21.008Z</time>
      </trkpt>
      <trkpt lat="42.96585" lon="2.05459">
        <ele>489</ele>
        <time>2016-11-01T14:36:23.008Z</time>
      </trkpt>
      <trkpt lat="42.96594" lon="2.0545">
        <ele>489</ele>
        <time>2016-11-01T14:36:25.008Z</time>
      </trkpt>
      <trkpt lat="42.96602" lon="2.05442">
        <ele>489</ele>
        <time>2016-11-01T14:36:27.008Z</time>
      </trkpt>
      <trkpt lat="42.9661" lon="2.05435">
        <ele>489</ele>
        <time>2016-11-01T14:36:29.008Z</time>
      </trkpt>
      <trkpt lat="42.96618" lon="2.05425">
        <ele>488.7820032</ele>
        <time>2016-11-01T14:36:31.008Z</time>
      </trkpt>
      <trkpt lat="42.96623" lon="2.05414">
        <ele>488</ele>
        <time>2016-11-01T14:36:33.008Z</time>
      </trkpt>
      <trkpt lat="42.96627" lon="2.05401">
        <ele>488</ele>
        <time>2016-11-01T14:36:35.008Z</time>
      </trkpt>
      <trkpt lat="42.96632" lon="2.05388">
        <ele>488</ele>
        <time>2016-11-01T14:36:37.008Z</time>
      </trkpt>
      <trkpt lat="42.96635" lon="2.05382">
        <ele>488</ele>
        <time>2016-11-01T14:36:38.008Z</time>
      </trkpt>
      <trkpt lat="42.96638" lon="2.05376">
        <ele>488</ele>
        <time>2016-11-01T14:36:39.008Z</time>
      </trkpt>
      <trkpt lat="42.96641" lon="2.0537">
        <ele>488</ele>
        <time>2016-11-01T14:36:40.008Z</time>
      </trkpt>
      <trkpt lat="42.96644" lon="2.05364">
        <ele>488</ele>
        <time>2016-11-01T14:36:41.008Z</time>
      </trkpt>
      <trkpt lat="42.96647" lon="2.05358">
        <ele>488</ele>
        <time>2016-11-01T14:36:42.008Z</time>
      </trkpt>
      <trkpt lat="42.9665" lon="2.05352">
        <ele>488</ele>
        <time>2016-11-01T14:36:43.008Z</time>
      </trkpt>
      <trkpt lat="42.96653" lon="2.05347">
        <ele>488</ele>
        <time>2016-11-01T14:36:44.008Z</time>
      </trkpt>
      <trkpt lat="42.96657" lon="2.0534">
        <ele>488</ele>
        <time>2016-11-01T14:36:45.008Z</time>
      </trkpt>
      <trkpt lat="42.9666" lon="2.05334">
        <ele>488</ele>
        <time>2016-11-01T14:36:46.008Z</time>
      </trkpt>
      <trkpt lat="42.96663" lon="2.05327">
        <ele>488</ele>
        <time>2016-11-01T14:36:47.008Z</time>
      </trkpt>
      <trkpt lat="42.96666" lon="2.0532">
        <ele>488</ele>
        <time>2016-11-01T14:36:48.008Z</time>
      </trkpt>
      <trkpt lat="42.96669" lon="2.05314">
        <ele>488</ele>
        <time>2016-11-01T14:36:49.008Z</time>
      </trkpt>
      <trkpt lat="42.96671" lon="2.05307">
        <ele>488</ele>
        <time>2016-11-01T14:36:50.008Z</time>
      </trkpt>
      <trkpt lat="42.96674" lon="2.053">
        <ele>487.5640064</ele>
        <time>2016-11-01T14:36:51.008Z</time>
      </trkpt>
      <trkpt lat="42.96676" lon="2.05294">
        <ele>486</ele>
        <time>2016-11-01T14:36:52.008Z</time>
      </trkpt>
      <trkpt lat="42.96679" lon="2.05287">
        <ele>486</ele>
        <time>2016-11-01T14:36:53.008Z</time>
      </trkpt>
      <trkpt lat="42.96681" lon="2.0528">
        <ele>486</ele>
        <time>2016-11-01T14:36:54.008Z</time>
      </trkpt>
      <trkpt lat="42.96684" lon="2.05273">
        <ele>486</ele>
        <time>2016-11-01T14:36:55.008Z</time>
      </trkpt>
      <trkpt lat="42.96687" lon="2.05267">
        <ele>486</ele>
        <time>2016-11-01T14:36:56.008Z</time>
      </trkpt>
      <trkpt lat="42.96689" lon="2.0526">
        <ele>486</ele>
        <time>2016-11-01T14:36:57.008Z</time>
      </trkpt>
      <trkpt lat="42.96692" lon="2.05253">
        <ele>486</ele>
        <time>2016-11-01T14:36:58.008Z</time>
      </trkpt>
      <trkpt lat="42.96694" lon="2.05246">
        <ele>486</ele>
        <time>2016-11-01T14:36:59.008Z</time>
      </trkpt>
      <trkpt lat="42.96697" lon="2.05238">
        <ele>486</ele>
        <time>2016-11-01T14:37:00.008Z</time>
      </trkpt>
      <trkpt lat="42.96699" lon="2.05231">
        <ele>485.3460096</ele>
        <time>2016-11-01T14:37:01.008Z</time>
      </trkpt>
      <trkpt lat="42.96702" lon="2.05223">
        <ele>483</ele>
        <time>2016-11-01T14:37:02.008Z</time>
      </trkpt>
      <trkpt lat="42.96705" lon="2.05215">
        <ele>483</ele>
        <time>2016-11-01T14:37:03.008Z</time>
      </trkpt>
      <trkpt lat="42.96707" lon="2.05207">
        <ele>483</ele>
        <time>2016-11-01T14:37:04.008Z</time>
      </trkpt>
      <trkpt lat="42.96711" lon="2.052">
        <ele>483</ele>
        <time>2016-11-01T14:37:05.008Z</time>
      </trkpt>
      <trkpt lat="42.96714" lon="2.05192">
        <ele>482.7820032</ele>
        <time>2016-11-01T14:37:06.008Z</time>
      </trkpt>
      <trkpt lat="42.96718" lon="2.05185">
        <ele>482</ele>
        <time>2016-11-01T14:37:07.008Z</time>
      </trkpt>
      <trkpt lat="42.96723" lon="2.05178">
        <ele>482</ele>
        <time>2016-11-01T14:37:08.008Z</time>
      </trkpt>
      <trkpt lat="42.96728" lon="2.05171">
        <ele>482</ele>
        <time>2016-11-01T14:37:09.008Z</time>
      </trkpt>
      <trkpt lat="42.96733" lon="2.05164">
        <ele>482</ele>
        <time>2016-11-01T14:37:10.008Z</time>
      </trkpt>
      <trkpt lat="42.96738" lon="2.05157">
        <ele>481.5640064</ele>
        <time>2016-11-01T14:37:11.008Z</time>
      </trkpt>
      <trkpt lat="42.96743" lon="2.0515">
        <ele>480</ele>
        <time>2016-11-01T14:37:12.008Z</time>
      </trkpt>
      <trkpt lat="42.96748" lon="2.05143">
        <ele>480</ele>
        <time>2016-11-01T14:37:13.008Z</time>
      </trkpt>
      <trkpt lat="42.96753" lon="2.05136">
        <ele>480</ele>
        <time>2016-11-01T14:37:14.008Z</time>
      </trkpt>
      <trkpt lat="42.96758" lon="2.05129">
        <ele>480</ele>
        <time>2016-11-01T14:37:15.008Z</time>
      </trkpt>
      <trkpt lat="42.96762" lon="2.05123">
        <ele>479.78416090031</ele>
        <time>2016-11-01T14:37:16.008Z</time>
      </trkpt>
      <trkpt lat="42.96767" lon="2.05117">
        <ele>479</ele>
        <time>2016-11-01T14:37:17.008Z</time>
      </trkpt>
      <trkpt lat="42.96771" lon="2.05111">
        <ele>479</ele>
        <time>2016-11-01T14:37:18.008Z</time>
      </trkpt>
      <trkpt lat="42.96775" lon="2.05107">
        <ele>479</ele>
        <time>2016-11-01T14:37:19.008Z</time>
      </trkpt>
      <trkpt lat="42.96784" lon="2.05094">
        <ele>477</ele>
        <time>2016-11-01T14:37:22.008Z</time>
      </trkpt>
      <trkpt lat="42.96787" lon="2.05107">
        <ele>475</ele>
        <time>2016-11-01T14:37:34.008Z</time>
      </trkpt>
      <trkpt lat="42.96794" lon="2.05117">
        <ele>475</ele>
        <time>2016-11-01T14:37:39.008Z</time>
      </trkpt>
      <trkpt lat="42.96797" lon="2.05125">
        <ele>478</ele>
        <time>2016-11-01T14:37:42.008Z</time>
      </trkpt>
      <trkpt lat="42.96799" lon="2.05133">
        <ele>478</ele>
        <time>2016-11-01T14:37:45.008Z</time>
      </trkpt>
      <trkpt lat="42.96802" lon="2.05141">
        <ele>480</ele>
        <time>2016-11-01T14:37:48.008Z</time>
      </trkpt>
      <trkpt lat="42.96804" lon="2.05148">
        <ele>480.2179968</ele>
        <time>2016-11-01T14:37:51.008Z</time>
      </trkpt>
      <trkpt lat="42.96807" lon="2.05155">
        <ele>481</ele>
        <time>2016-11-01T14:37:54.008Z</time>
      </trkpt>
      <trkpt lat="42.9681" lon="2.05162">
        <ele>482</ele>
        <time>2016-11-01T14:37:57.008Z</time>
      </trkpt>
      <trkpt lat="42.96813" lon="2.05168">
        <ele>482</ele>
        <time>2016-11-01T14:38:00.008Z</time>
      </trkpt>
      <trkpt lat="42.96816" lon="2.05175">
        <ele>483</ele>
        <time>2016-11-01T14:38:03.008Z</time>
      </trkpt>
      <trkpt lat="42.9682" lon="2.05181">
        <ele>483</ele>
        <time>2016-11-01T14:38:06.008Z</time>
      </trkpt>
      <trkpt lat="42.96824" lon="2.05187">
        <ele>483</ele>
        <time>2016-11-01T14:38:09.008Z</time>
      </trkpt>
      <trkpt lat="42.96827" lon="2.05192">
        <ele>485</ele>
        <time>2016-11-01T14:38:12.008Z</time>
      </trkpt>
      <trkpt lat="42.96831" lon="2.05198">
        <ele>485</ele>
        <time>2016-11-01T14:38:15.008Z</time>
      </trkpt>
      <trkpt lat="42.96834" lon="2.05204">
        <ele>488</ele>
        <time>2016-11-01T14:38:18.008Z</time>
      </trkpt>
      <trkpt lat="42.96837" lon="2.0521">
        <ele>488.4359936</ele>
        <time>2016-11-01T14:38:21.008Z</time>
      </trkpt>
      <trkpt lat="42.96841" lon="2.05214">
        <ele>490</ele>
        <time>2016-11-01T14:38:24.008Z</time>
      </trkpt>
      <trkpt lat="42.96845" lon="2.05219">
        <ele>491</ele>
        <time>2016-11-01T14:38:27.008Z</time>
      </trkpt>
      <trkpt lat="42.96848" lon="2.05222">
        <ele>491</ele>
        <time>2016-11-01T14:38:29.008Z</time>
      </trkpt>
      <trkpt lat="42.96851" lon="2.05225">
        <ele>491.2179968</ele>
        <time>2016-11-01T14:38:31.008Z</time>
      </trkpt>
      <trkpt lat="42.96854" lon="2.05227">
        <ele>492</ele>
        <time>2016-11-01T14:38:33.008Z</time>
      </trkpt>
      <trkpt lat="42.96859" lon="2.05229">
        <ele>492.2179968</ele>
        <time>2016-11-01T14:38:36.008Z</time>
      </trkpt>
      <trkpt lat="42.96864" lon="2.05232">
        <ele>493</ele>
        <time>2016-11-01T14:38:39.008Z</time>
      </trkpt>
      <trkpt lat="42.96868" lon="2.05235">
        <ele>493.2179968</ele>
        <time>2016-11-01T14:38:41.008Z</time>
      </trkpt>
      <trkpt lat="42.96872" lon="2.05238">
        <ele>494</ele>
        <time>2016-11-01T14:38:43.008Z</time>
      </trkpt>
      <trkpt lat="42.96875" lon="2.05242">
        <ele>494</ele>
        <time>2016-11-01T14:38:45.008Z</time>
      </trkpt>
      <trkpt lat="42.9688" lon="2.05247">
        <ele>495</ele>
        <time>2016-11-01T14:38:48.008Z</time>
      </trkpt>
      <trkpt lat="42.96884" lon="2.05251">
        <ele>495</ele>
        <time>2016-11-01T14:38:50.008Z</time>
      </trkpt>
      <trkpt lat="42.96887" lon="2.05254">
        <ele>497</ele>
        <time>2016-11-01T14:38:52.008Z</time>
      </trkpt>
      <trkpt lat="42.96893" lon="2.0526">
        <ele>497</ele>
        <time>2016-11-01T14:38:55.008Z</time>
      </trkpt>
      <trkpt lat="42.96896" lon="2.05263">
        <ele>497</ele>
        <time>2016-11-01T14:38:57.008Z</time>
      </trkpt>
      <trkpt lat="42.969" lon="2.05269">
        <ele>497</ele>
        <time>2016-11-01T14:39:00.008Z</time>
      </trkpt>
      <trkpt lat="42.96905" lon="2.05274">
        <ele>498</ele>
        <time>2016-11-01T14:39:03.008Z</time>
      </trkpt>
      <trkpt lat="42.96911" lon="2.0528">
        <ele>498</ele>
        <time>2016-11-01T14:39:06.008Z</time>
      </trkpt>
      <trkpt lat="42.96915" lon="2.05286">
        <ele>498</ele>
        <time>2016-11-01T14:39:09.008Z</time>
      </trkpt>
      <trkpt lat="42.9692" lon="2.05292">
        <ele>499</ele>
        <time>2016-11-01T14:39:12.008Z</time>
      </trkpt>
      <trkpt lat="42.96925" lon="2.05298">
        <ele>499</ele>
        <time>2016-11-01T14:39:15.008Z</time>
      </trkpt>
      <trkpt lat="42.96929" lon="2.05304">
        <ele>499</ele>
        <time>2016-11-01T14:39:18.008Z</time>
      </trkpt>
      <trkpt lat="42.96933" lon="2.05309">
        <ele>499</ele>
        <time>2016-11-01T14:39:21.008Z</time>
      </trkpt>
      <trkpt lat="42.96939" lon="2.05316">
        <ele>499</ele>
        <time>2016-11-01T14:39:24.008Z</time>
      </trkpt>
      <trkpt lat="42.96943" lon="2.05321">
        <ele>499</ele>
        <time>2016-11-01T14:39:26.008Z</time>
      </trkpt>
      <trkpt lat="42.96949" lon="2.05328">
        <ele>499</ele>
        <time>2016-11-01T14:39:29.008Z</time>
      </trkpt>
      <trkpt lat="42.96953" lon="2.05334">
        <ele>499.2179968</ele>
        <time>2016-11-01T14:39:31.008Z</time>
      </trkpt>
      <trkpt lat="42.96959" lon="2.05341">
        <ele>500</ele>
        <time>2016-11-01T14:39:34.008Z</time>
      </trkpt>
      <trkpt lat="42.96965" lon="2.05348">
        <ele>500</ele>
        <time>2016-11-01T14:39:37.008Z</time>
      </trkpt>
      <trkpt lat="42.96973" lon="2.05359">
        <ele>500.21583909969</ele>
        <time>2016-11-01T14:39:41.008Z</time>
      </trkpt>
      <trkpt lat="42.96981" lon="2.05369">
        <ele>501</ele>
        <time>2016-11-01T14:39:45.008Z</time>
      </trkpt>
      <trkpt lat="42.96991" lon="2.05381">
        <ele>501</ele>
        <time>2016-11-01T14:39:49.008Z</time>
      </trkpt>
      <trkpt lat="42.96998" lon="2.05389">
        <ele>502</ele>
        <time>2016-11-01T14:39:52.008Z</time>
      </trkpt>
      <trkpt lat="42.97002" lon="2.05395">
        <ele>502</ele>
        <time>2016-11-01T14:39:54.008Z</time>
      </trkpt>
      <trkpt lat="42.97006" lon="2.05401">
        <ele>502</ele>
        <time>2016-11-01T14:39:56.008Z</time>
      </trkpt>
      <trkpt lat="42.9701" lon="2.05406">
        <ele>502</ele>
        <time>2016-11-01T14:39:58.008Z</time>
      </trkpt>
      <trkpt lat="42.97017" lon="2.05418">
        <ele>505</ele>
        <time>2016-11-01T14:40:02.008Z</time>
      </trkpt>
      <trkpt lat="42.97024" lon="2.05431">
        <ele>507</ele>
        <time>2016-11-01T14:40:07.008Z</time>
      </trkpt>
      <trkpt lat="42.97027" lon="2.05435">
        <ele>507</ele>
        <time>2016-11-01T14:40:09.008Z</time>
      </trkpt>
      <trkpt lat="42.97033" lon="2.05448">
        <ele>508</ele>
        <time>2016-11-01T14:40:14.008Z</time>
      </trkpt>
      <trkpt lat="42.97041" lon="2.05458">
        <ele>510</ele>
        <time>2016-11-01T14:40:19.008Z</time>
      </trkpt>
      <trkpt lat="42.97053" lon="2.05459">
        <ele>511</ele>
        <time>2016-11-01T14:40:24.008Z</time>
      </trkpt>
      <trkpt lat="42.97065" lon="2.05461">
        <ele>513</ele>
        <time>2016-11-01T14:40:29.008Z</time>
      </trkpt>
      <trkpt lat="42.97076" lon="2.05468">
        <ele>514</ele>
        <time>2016-11-01T14:40:34.008Z</time>
      </trkpt>
      <trkpt lat="42.97082" lon="2.05475">
        <ele>514</ele>
        <time>2016-11-01T14:40:37.008Z</time>
      </trkpt>
      <trkpt lat="42.97091" lon="2.05483">
        <ele>514.2179968</ele>
        <time>2016-11-01T14:40:41.008Z</time>
      </trkpt>
      <trkpt lat="42.97099" lon="2.0549">
        <ele>515</ele>
        <time>2016-11-01T14:40:44.008Z</time>
      </trkpt>
      <trkpt lat="42.97104" lon="2.05496">
        <ele>515</ele>
        <time>2016-11-01T14:40:46.008Z</time>
      </trkpt>
      <trkpt lat="42.97112" lon="2.05502">
        <ele>515</ele>
        <time>2016-11-01T14:40:49.008Z</time>
      </trkpt>
      <trkpt lat="42.97119" lon="2.05509">
        <ele>515</ele>
        <time>2016-11-01T14:40:52.008Z</time>
      </trkpt>
      <trkpt lat="42.97124" lon="2.05514">
        <ele>515</ele>
        <time>2016-11-01T14:40:54.008Z</time>
      </trkpt>
      <trkpt lat="42.97131" lon="2.05523">
        <ele>515</ele>
        <time>2016-11-01T14:40:57.008Z</time>
      </trkpt>
      <trkpt lat="42.97135" lon="2.05529">
        <ele>515</ele>
        <time>2016-11-01T14:40:59.008Z</time>
      </trkpt>
      <trkpt lat="42.9714" lon="2.05535">
        <ele>515.6539904</ele>
        <time>2016-11-01T14:41:01.008Z</time>
      </trkpt>
      <trkpt lat="42.97145" lon="2.05542">
        <ele>518</ele>
        <time>2016-11-01T14:41:03.008Z</time>
      </trkpt>
      <trkpt lat="42.97148" lon="2.05549">
        <ele>518</ele>
        <time>2016-11-01T14:41:05.008Z</time>
      </trkpt>
      <trkpt lat="42.97156" lon="2.05563">
        <ele>518</ele>
        <time>2016-11-01T14:41:09.008Z</time>
      </trkpt>
      <trkpt lat="42.97161" lon="2.05579">
        <ele>518</ele>
        <time>2016-11-01T14:41:13.008Z</time>
      </trkpt>
      <trkpt lat="42.97166" lon="2.05594">
        <ele>518</ele>
        <time>2016-11-01T14:41:17.008Z</time>
      </trkpt>
      <trkpt lat="42.9717" lon="2.05609">
        <ele>518.2179968</ele>
        <time>2016-11-01T14:41:21.008Z</time>
      </trkpt>
      <trkpt lat="42.97175" lon="2.05623">
        <ele>519</ele>
        <time>2016-11-01T14:41:27.008Z</time>
      </trkpt>
      <trkpt lat="42.9718" lon="2.05635">
        <ele>519</ele>
        <time>2016-11-01T14:41:31.008Z</time>
      </trkpt>
      <trkpt lat="42.97183" lon="2.05647">
        <ele>519</ele>
        <time>2016-11-01T14:41:34.008Z</time>
      </trkpt>
      <trkpt lat="42.97189" lon="2.05659">
        <ele>519</ele>
        <time>2016-11-01T14:41:37.008Z</time>
      </trkpt>
      <trkpt lat="42.97196" lon="2.05669">
        <ele>519</ele>
        <time>2016-11-01T14:41:40.008Z</time>
      </trkpt>
      <trkpt lat="42.97204" lon="2.05679">
        <ele>519</ele>
        <time>2016-11-01T14:41:43.008Z</time>
      </trkpt>
      <trkpt lat="42.97211" lon="2.05688">
        <ele>519</ele>
        <time>2016-11-01T14:41:46.008Z</time>
      </trkpt>
      <trkpt lat="42.97217" lon="2.057">
        <ele>519</ele>
        <time>2016-11-01T14:41:53.008Z</time>
      </trkpt>
      <trkpt lat="42.97225" lon="2.05708">
        <ele>519</ele>
        <time>2016-11-01T14:41:57.008Z</time>
      </trkpt>
      <trkpt lat="42.97231" lon="2.05718">
        <ele>519</ele>
        <time>2016-11-01T14:42:23.008Z</time>
      </trkpt>
      <trkpt lat="42.97233" lon="2.05728">
        <ele>519</ele>
        <time>2016-11-01T14:42:27.008Z</time>
      </trkpt>
      <trkpt lat="42.97237" lon="2.05739">
        <ele>519.2179968</ele>
        <time>2016-11-01T14:42:31.008Z</time>
      </trkpt>
      <trkpt lat="42.9724" lon="2.05748">
        <ele>520</ele>
        <time>2016-11-01T14:42:34.008Z</time>
      </trkpt>
      <trkpt lat="42.97245" lon="2.05758">
        <ele>520</ele>
        <time>2016-11-01T14:42:37.008Z</time>
      </trkpt>
      <trkpt lat="42.97249" lon="2.05768">
        <ele>520</ele>
        <time>2016-11-01T14:42:40.008Z</time>
      </trkpt>
      <trkpt lat="42.97253" lon="2.05778">
        <ele>521</ele>
        <time>2016-11-01T14:42:43.008Z</time>
      </trkpt>
      <trkpt lat="42.97258" lon="2.05788">
        <ele>521</ele>
        <time>2016-11-01T14:42:46.008Z</time>
      </trkpt>
      <trkpt lat="42.97264" lon="2.05797">
        <ele>521</ele>
        <time>2016-11-01T14:42:50.008Z</time>
      </trkpt>
      <trkpt lat="42.97269" lon="2.05806">
        <ele>522</ele>
        <time>2016-11-01T14:42:55.008Z</time>
      </trkpt>
      <trkpt lat="42.97273" lon="2.05816">
        <ele>522</ele>
        <time>2016-11-01T14:43:00.008Z</time>
      </trkpt>
      <trkpt lat="42.97276" lon="2.05829">
        <ele>521</ele>
        <time>2016-11-01T14:43:05.008Z</time>
      </trkpt>
      <trkpt lat="42.97283" lon="2.05842">
        <ele>521</ele>
        <time>2016-11-01T14:43:09.008Z</time>
      </trkpt>
      <trkpt lat="42.97292" lon="2.05851">
        <ele>521</ele>
        <time>2016-11-01T14:43:16.008Z</time>
      </trkpt>
      <trkpt lat="42.97301" lon="2.0586">
        <ele>521</ele>
        <time>2016-11-01T14:43:21.008Z</time>
      </trkpt>
      <trkpt lat="42.97307" lon="2.05869">
        <ele>521</ele>
        <time>2016-11-01T14:43:25.008Z</time>
      </trkpt>
      <trkpt lat="42.97311" lon="2.05884">
        <ele>521.4359936</ele>
        <time>2016-11-01T14:43:31.008Z</time>
      </trkpt>
      <trkpt lat="42.97307" lon="2.05896">
        <ele>523</ele>
        <time>2016-11-01T14:43:36.008Z</time>
      </trkpt>
      <trkpt lat="42.97304" lon="2.05911">
        <ele>526</ele>
        <time>2016-11-01T14:43:42.008Z</time>
      </trkpt>
      <trkpt lat="42.97301" lon="2.05924">
        <ele>529</ele>
        <time>2016-11-01T14:43:47.008Z</time>
      </trkpt>
      <trkpt lat="42.973" lon="2.05938">
        <ele>530</ele>
        <time>2016-11-01T14:43:53.008Z</time>
      </trkpt>
      <trkpt lat="42.97302" lon="2.05953">
        <ele>532</ele>
        <time>2016-11-01T14:44:00.008Z</time>
      </trkpt>
      <trkpt lat="42.97305" lon="2.05965">
        <ele>533</ele>
        <time>2016-11-01T14:44:06.008Z</time>
      </trkpt>
      <trkpt lat="42.97308" lon="2.05979">
        <ele>535</ele>
        <time>2016-11-01T14:44:12.008Z</time>
      </trkpt>
      <trkpt lat="42.97314" lon="2.05991">
        <ele>535</ele>
        <time>2016-11-01T14:44:18.008Z</time>
      </trkpt>
      <trkpt lat="42.97318" lon="2.06003">
        <ele>537</ele>
        <time>2016-11-01T14:44:24.008Z</time>
      </trkpt>
      <trkpt lat="42.97321" lon="2.06018">
        <ele>539</ele>
        <time>2016-11-01T14:44:30.008Z</time>
      </trkpt>
      <trkpt lat="42.97323" lon="2.06031">
        <ele>541.2179968</ele>
        <time>2016-11-01T14:44:36.008Z</time>
      </trkpt>
      <trkpt lat="42.97326" lon="2.06044">
        <ele>542</ele>
        <time>2016-11-01T14:44:42.008Z</time>
      </trkpt>
      <trkpt lat="42.97331" lon="2.06058">
        <ele>542</ele>
        <time>2016-11-01T14:44:48.008Z</time>
      </trkpt>
      <trkpt lat="42.97338" lon="2.06068">
        <ele>544</ele>
        <time>2016-11-01T14:44:53.008Z</time>
      </trkpt>
      <trkpt lat="42.97343" lon="2.06082">
        <ele>544</ele>
        <time>2016-11-01T14:44:58.008Z</time>
      </trkpt>
      <trkpt lat="42.97347" lon="2.06097">
        <ele>546</ele>
        <time>2016-11-01T14:45:04.008Z</time>
      </trkpt>
      <trkpt lat="42.97355" lon="2.0611">
        <ele>546</ele>
        <time>2016-11-01T14:45:09.008Z</time>
      </trkpt>
      <trkpt lat="42.97362" lon="2.06122">
        <ele>546</ele>
        <time>2016-11-01T14:45:14.008Z</time>
      </trkpt>
      <trkpt lat="42.97367" lon="2.06135">
        <ele>546</ele>
        <time>2016-11-01T14:45:20.008Z</time>
      </trkpt>
      <trkpt lat="42.97373" lon="2.06147">
        <ele>546</ele>
        <time>2016-11-01T14:45:24.008Z</time>
      </trkpt>
      <trkpt lat="42.97379" lon="2.06159">
        <ele>546</ele>
        <time>2016-11-01T14:45:30.008Z</time>
      </trkpt>
      <trkpt lat="42.97386" lon="2.06173">
        <ele>546</ele>
        <time>2016-11-01T14:45:35.008Z</time>
      </trkpt>
      <trkpt lat="42.97387" lon="2.06187">
        <ele>546</ele>
        <time>2016-11-01T14:45:38.008Z</time>
      </trkpt>
      <trkpt lat="42.9739" lon="2.06201">
        <ele>546</ele>
        <time>2016-11-01T14:45:41.008Z</time>
      </trkpt>
      <trkpt lat="42.97393" lon="2.06218">
        <ele>546</ele>
        <time>2016-11-01T14:45:44.008Z</time>
      </trkpt>
      <trkpt lat="42.97397" lon="2.06234">
        <ele>546</ele>
        <time>2016-11-01T14:45:48.008Z</time>
      </trkpt>
      <trkpt lat="42.97399" lon="2.06249">
        <ele>547</ele>
        <time>2016-11-01T14:45:52.008Z</time>
      </trkpt>
      <trkpt lat="42.97399" lon="2.06264">
        <ele>547</ele>
        <time>2016-11-01T14:45:57.008Z</time>
      </trkpt>
      <trkpt lat="42.974" lon="2.06278">
        <ele>550</ele>
        <time>2016-11-01T14:46:02.008Z</time>
      </trkpt>
      <trkpt lat="42.97405" lon="2.06292">
        <ele>552</ele>
        <time>2016-11-01T14:46:08.008Z</time>
      </trkpt>
      <trkpt lat="42.97408" lon="2.06305">
        <ele>554</ele>
        <time>2016-11-01T14:46:13.008Z</time>
      </trkpt>
      <trkpt lat="42.97415" lon="2.06314">
        <ele>555</ele>
        <time>2016-11-01T14:46:18.008Z</time>
      </trkpt>
      <trkpt lat="42.97422" lon="2.06324">
        <ele>556</ele>
        <time>2016-11-01T14:46:23.008Z</time>
      </trkpt>
      <trkpt lat="42.97429" lon="2.06334">
        <ele>558</ele>
        <time>2016-11-01T14:46:28.008Z</time>
      </trkpt>
      <trkpt lat="42.97434" lon="2.0634">
        <ele>558.4359936</ele>
        <time>2016-11-01T14:46:31.008Z</time>
      </trkpt>
      <trkpt lat="42.97441" lon="2.06349">
        <ele>560</ele>
        <time>2016-11-01T14:46:35.008Z</time>
      </trkpt>
      <trkpt lat="42.97446" lon="2.06356">
        <ele>561</ele>
        <time>2016-11-01T14:46:38.008Z</time>
      </trkpt>
      <trkpt lat="42.97451" lon="2.06365">
        <ele>562</ele>
        <time>2016-11-01T14:46:42.008Z</time>
      </trkpt>
      <trkpt lat="42.97457" lon="2.06375">
        <ele>562</ele>
        <time>2016-11-01T14:46:46.008Z</time>
      </trkpt>
      <trkpt lat="42.97464" lon="2.06389">
        <ele>562</ele>
        <time>2016-11-01T14:46:50.008Z</time>
      </trkpt>
      <trkpt lat="42.97472" lon="2.06402">
        <ele>563</ele>
        <time>2016-11-01T14:46:54.008Z</time>
      </trkpt>
      <trkpt lat="42.97477" lon="2.06414">
        <ele>563</ele>
        <time>2016-11-01T14:46:58.008Z</time>
      </trkpt>
      <trkpt lat="42.97476" lon="2.06428">
        <ele>563</ele>
        <time>2016-11-01T14:47:05.008Z</time>
      </trkpt>
      <trkpt lat="42.97481" lon="2.06444">
        <ele>563</ele>
        <time>2016-11-01T14:47:10.008Z</time>
      </trkpt>
      <trkpt lat="42.97487" lon="2.06456">
        <ele>563</ele>
        <time>2016-11-01T14:47:14.008Z</time>
      </trkpt>
      <trkpt lat="42.97491" lon="2.06469">
        <ele>563</ele>
        <time>2016-11-01T14:47:20.008Z</time>
      </trkpt>
      <trkpt lat="42.97487" lon="2.06475">
        <ele>563</ele>
        <time>2016-11-01T14:49:43.008Z</time>
      </trkpt>
      <trkpt lat="42.97495" lon="2.06484">
        <ele>564</ele>
        <time>2016-11-01T14:50:33.008Z</time>
      </trkpt>
      <trkpt lat="42.97501" lon="2.06498">
        <ele>564</ele>
        <time>2016-11-01T14:50:40.008Z</time>
      </trkpt>
      <trkpt lat="42.97507" lon="2.06512">
        <ele>565</ele>
        <time>2016-11-01T14:50:45.008Z</time>
      </trkpt>
      <trkpt lat="42.97512" lon="2.06527">
        <ele>565.6539904</ele>
        <time>2016-11-01T14:50:51.008Z</time>
      </trkpt>
      <trkpt lat="42.97512" lon="2.0654">
        <ele>568.4359936</ele>
        <time>2016-11-01T14:50:56.008Z</time>
      </trkpt>
      <trkpt lat="42.97514" lon="2.06548">
        <ele>570</ele>
        <time>2016-11-01T14:51:00.008Z</time>
      </trkpt>
      <trkpt lat="42.97521" lon="2.06561">
        <ele>569</ele>
        <time>2016-11-01T14:51:06.008Z</time>
      </trkpt>
      <trkpt lat="42.97527" lon="2.0657">
        <ele>569</ele>
        <time>2016-11-01T14:51:10.008Z</time>
      </trkpt>
      <trkpt lat="42.97529" lon="2.06572">
        <ele>569</ele>
        <time>2016-11-01T14:51:11.008Z</time>
      </trkpt>
      <trkpt lat="42.97537" lon="2.06581">
        <ele>569</ele>
        <time>2016-11-01T14:51:15.008Z</time>
      </trkpt>
      <trkpt lat="42.97548" lon="2.06589">
        <ele>569</ele>
        <time>2016-11-01T14:51:19.008Z</time>
      </trkpt>
      <trkpt lat="42.97558" lon="2.06593">
        <ele>569</ele>
        <time>2016-11-01T14:51:23.008Z</time>
      </trkpt>
      <trkpt lat="42.97567" lon="2.06588">
        <ele>569</ele>
        <time>2016-11-01T14:51:28.008Z</time>
      </trkpt>
      <trkpt lat="42.97574" lon="2.06577">
        <ele>570</ele>
        <time>2016-11-01T14:51:34.008Z</time>
      </trkpt>
      <trkpt lat="42.97578" lon="2.06566">
        <ele>573</ele>
        <time>2016-11-01T14:51:45.008Z</time>
      </trkpt>
      <trkpt lat="42.97582" lon="2.06552">
        <ele>575</ele>
        <time>2016-11-01T14:51:53.008Z</time>
      </trkpt>
      <trkpt lat="42.97585" lon="2.06539">
        <ele>575</ele>
        <time>2016-11-01T14:52:00.008Z</time>
      </trkpt>
      <trkpt lat="42.97593" lon="2.06527">
        <ele>577.4359936</ele>
        <time>2016-11-01T14:52:06.008Z</time>
      </trkpt>
      <trkpt lat="42.97602" lon="2.06522">
        <ele>581</ele>
        <time>2016-11-01T14:52:12.008Z</time>
      </trkpt>
      <trkpt lat="42.97611" lon="2.0652">
        <ele>581.4359936</ele>
        <time>2016-11-01T14:52:16.008Z</time>
      </trkpt>
      <trkpt lat="42.97621" lon="2.06521">
        <ele>583.4359936</ele>
        <time>2016-11-01T14:52:21.008Z</time>
      </trkpt>
      <trkpt lat="42.97632" lon="2.06522">
        <ele>586</ele>
        <time>2016-11-01T14:52:27.008Z</time>
      </trkpt>
      <trkpt lat="42.97643" lon="2.06521">
        <ele>587</ele>
        <time>2016-11-01T14:52:32.008Z</time>
      </trkpt>
      <trkpt lat="42.97652" lon="2.06525">
        <ele>588</ele>
        <time>2016-11-01T14:52:38.008Z</time>
      </trkpt>
      <trkpt lat="42.97662" lon="2.06527">
        <ele>590</ele>
        <time>2016-11-01T14:52:45.008Z</time>
      </trkpt>
      <trkpt lat="42.97671" lon="2.06529">
        <ele>592</ele>
        <time>2016-11-01T14:52:50.008Z</time>
      </trkpt>
      <trkpt lat="42.9768" lon="2.06532">
        <ele>593.4359936</ele>
        <time>2016-11-01T14:52:56.008Z</time>
      </trkpt>
      <trkpt lat="42.97687" lon="2.06534">
        <ele>595</ele>
        <time>2016-11-01T14:53:00.008Z</time>
      </trkpt>
      <trkpt lat="42.97697" lon="2.06538">
        <ele>596</ele>
        <time>2016-11-01T14:53:05.008Z</time>
      </trkpt>
      <trkpt lat="42.97706" lon="2.06541">
        <ele>598</ele>
        <time>2016-11-01T14:53:10.008Z</time>
      </trkpt>
      <trkpt lat="42.97715" lon="2.06543">
        <ele>599</ele>
        <time>2016-11-01T14:53:15.008Z</time>
      </trkpt>
      <trkpt lat="42.97722" lon="2.06546">
        <ele>600</ele>
        <time>2016-11-01T14:53:20.008Z</time>
      </trkpt>
      <trkpt lat="42.9773" lon="2.06549">
        <ele>601</ele>
        <time>2016-11-01T14:53:25.008Z</time>
      </trkpt>
      <trkpt lat="42.97739" lon="2.06552">
        <ele>602</ele>
        <time>2016-11-01T14:53:30.008Z</time>
      </trkpt>
      <trkpt lat="42.97746" lon="2.06553">
        <ele>604</ele>
        <time>2016-11-01T14:53:34.008Z</time>
      </trkpt>
      <trkpt lat="42.97753" lon="2.06555">
        <ele>606</ele>
        <time>2016-11-01T14:53:37.008Z</time>
      </trkpt>
      <trkpt lat="42.9776" lon="2.06559">
        <ele>606.4359936</ele>
        <time>2016-11-01T14:53:41.008Z</time>
      </trkpt>
      <trkpt lat="42.97767" lon="2.06563">
        <ele>608.4359936</ele>
        <time>2016-11-01T14:53:46.008Z</time>
      </trkpt>
      <trkpt lat="42.97774" lon="2.06568">
        <ele>610</ele>
        <time>2016-11-01T14:53:50.008Z</time>
      </trkpt>
      <trkpt lat="42.97781" lon="2.06574">
        <ele>611</ele>
        <time>2016-11-01T14:53:54.008Z</time>
      </trkpt>
      <trkpt lat="42.97792" lon="2.06578">
        <ele>611</ele>
        <time>2016-11-01T14:53:59.008Z</time>
      </trkpt>
      <trkpt lat="42.97801" lon="2.06578">
        <ele>613.4359936</ele>
        <time>2016-11-01T14:54:06.008Z</time>
      </trkpt>
      <trkpt lat="42.97809" lon="2.06572">
        <ele>617</ele>
        <time>2016-11-01T14:54:14.008Z</time>
      </trkpt>
      <trkpt lat="42.97818" lon="2.06565">
        <ele>619</ele>
        <time>2016-11-01T14:54:20.008Z</time>
      </trkpt>
      <trkpt lat="42.97826" lon="2.06562">
        <ele>621</ele>
        <time>2016-11-01T14:54:25.008Z</time>
      </trkpt>
      <trkpt lat="42.97834" lon="2.06563">
        <ele>622</ele>
        <time>2016-11-01T14:54:30.008Z</time>
      </trkpt>
      <trkpt lat="42.97844" lon="2.06561">
        <ele>624</ele>
        <time>2016-11-01T14:54:35.008Z</time>
      </trkpt>
      <trkpt lat="42.97852" lon="2.06561">
        <ele>626</ele>
        <time>2016-11-01T14:54:39.008Z</time>
      </trkpt>
      <trkpt lat="42.97861" lon="2.06563">
        <ele>628</ele>
        <time>2016-11-01T14:54:44.008Z</time>
      </trkpt>
      <trkpt lat="42.9787" lon="2.06566">
        <ele>626</ele>
        <time>2016-11-01T14:54:49.008Z</time>
      </trkpt>
      <trkpt lat="42.97879" lon="2.06568">
        <ele>630</ele>
        <time>2016-11-01T14:54:54.008Z</time>
      </trkpt>
      <trkpt lat="42.97886" lon="2.06574">
        <ele>630</ele>
        <time>2016-11-01T14:54:58.008Z</time>
      </trkpt>
      <trkpt lat="42.97893" lon="2.06579">
        <ele>635</ele>
        <time>2016-11-01T14:55:02.008Z</time>
      </trkpt>
      <trkpt lat="42.97899" lon="2.06585">
        <ele>635.2179968</ele>
        <time>2016-11-01T14:55:06.008Z</time>
      </trkpt>
      <trkpt lat="42.97905" lon="2.06591">
        <ele>638</ele>
        <time>2016-11-01T14:55:10.008Z</time>
      </trkpt>
      <trkpt lat="42.97913" lon="2.06595">
        <ele>637</ele>
        <time>2016-11-01T14:55:16.008Z</time>
      </trkpt>
      <trkpt lat="42.97923" lon="2.06595">
        <ele>637.4359936</ele>
        <time>2016-11-01T14:55:21.008Z</time>
      </trkpt>
      <trkpt lat="42.97931" lon="2.06591">
        <ele>639</ele>
        <time>2016-11-01T14:55:24.008Z</time>
      </trkpt>
      <trkpt lat="42.97939" lon="2.06585">
        <ele>639</ele>
        <time>2016-11-01T14:55:28.008Z</time>
      </trkpt>
      <trkpt lat="42.97947" lon="2.06573">
        <ele>640</ele>
        <time>2016-11-01T14:55:38.008Z</time>
      </trkpt>
      <trkpt lat="42.97955" lon="2.06564">
        <ele>643</ele>
        <time>2016-11-01T14:55:43.008Z</time>
      </trkpt>
      <trkpt lat="42.97964" lon="2.06557">
        <ele>646</ele>
        <time>2016-11-01T14:55:49.008Z</time>
      </trkpt>
      <trkpt lat="42.97974" lon="2.06546">
        <ele>647</ele>
        <time>2016-11-01T14:55:55.008Z</time>
      </trkpt>
      <trkpt lat="42.97982" lon="2.06538">
        <ele>649</ele>
        <time>2016-11-01T14:55:59.008Z</time>
      </trkpt>
      <trkpt lat="42.9799" lon="2.06528">
        <ele>651</ele>
        <time>2016-11-01T14:56:04.008Z</time>
      </trkpt>
      <trkpt lat="42.97993" lon="2.06519">
        <ele>652</ele>
        <time>2016-11-01T14:56:11.008Z</time>
      </trkpt>
      <trkpt lat="42.97987" lon="2.06513">
        <ele>653</ele>
        <time>2016-11-01T14:57:06.008Z</time>
      </trkpt>
      <trkpt lat="42.97982" lon="2.06505">
        <ele>654</ele>
        <time>2016-11-01T14:59:10.008Z</time>
      </trkpt>
      <trkpt lat="42.97978" lon="2.06494">
        <ele>654</ele>
        <time>2016-11-01T14:59:14.008Z</time>
      </trkpt>
      <trkpt lat="42.97976" lon="2.06482">
        <ele>654</ele>
        <time>2016-11-01T14:59:18.008Z</time>
      </trkpt>
      <trkpt lat="42.97972" lon="2.0647">
        <ele>654</ele>
        <time>2016-11-01T14:59:22.008Z</time>
      </trkpt>
      <trkpt lat="42.97967" lon="2.0646">
        <ele>654</ele>
        <time>2016-11-01T14:59:26.008Z</time>
      </trkpt>
      <trkpt lat="42.97959" lon="2.06448">
        <ele>654.4359936</ele>
        <time>2016-11-01T14:59:31.008Z</time>
      </trkpt>
      <trkpt lat="42.97951" lon="2.0644">
        <ele>656</ele>
        <time>2016-11-01T14:59:35.008Z</time>
      </trkpt>
      <trkpt lat="42.97944" lon="2.06433">
        <ele>656</ele>
        <time>2016-11-01T14:59:39.008Z</time>
      </trkpt>
      <trkpt lat="42.97934" lon="2.06426">
        <ele>657</ele>
        <time>2016-11-01T14:59:44.008Z</time>
      </trkpt>
      <trkpt lat="42.97924" lon="2.06421">
        <ele>657</ele>
        <time>2016-11-01T14:59:48.008Z</time>
      </trkpt>
      <trkpt lat="42.97915" lon="2.06415">
        <ele>659</ele>
        <time>2016-11-01T14:59:52.008Z</time>
      </trkpt>
      <trkpt lat="42.97906" lon="2.06405">
        <ele>659</ele>
        <time>2016-11-01T14:59:56.008Z</time>
      </trkpt>
      <trkpt lat="42.97902" lon="2.06398">
        <ele>659</ele>
        <time>2016-11-01T14:59:58.008Z</time>
      </trkpt>
      <trkpt lat="42.97897" lon="2.06391">
        <ele>659</ele>
        <time>2016-11-01T15:00:00.008Z</time>
      </trkpt>
      <trkpt lat="42.97894" lon="2.06383">
        <ele>660</ele>
        <time>2016-11-01T15:00:02.008Z</time>
      </trkpt>
      <trkpt lat="42.9789" lon="2.06369">
        <ele>660</ele>
        <time>2016-11-01T15:00:05.008Z</time>
      </trkpt>
      <trkpt lat="42.97892" lon="2.06359">
        <ele>660</ele>
        <time>2016-11-01T15:00:07.008Z</time>
      </trkpt>
      <trkpt lat="42.97895" lon="2.06351">
        <ele>660</ele>
        <time>2016-11-01T15:00:09.008Z</time>
      </trkpt>
      <trkpt lat="42.979" lon="2.06345">
        <ele>660.2179968</ele>
        <time>2016-11-01T15:00:11.008Z</time>
      </trkpt>
      <trkpt lat="42.97907" lon="2.06341">
        <ele>661</ele>
        <time>2016-11-01T15:00:13.008Z</time>
      </trkpt>
      <trkpt lat="42.97913" lon="2.06339">
        <ele>661</ele>
        <time>2016-11-01T15:00:15.008Z</time>
      </trkpt>
      <trkpt lat="42.97919" lon="2.06339">
        <ele>661</ele>
        <time>2016-11-01T15:00:17.008Z</time>
      </trkpt>
      <trkpt lat="42.97926" lon="2.06339">
        <ele>661</ele>
        <time>2016-11-01T15:00:19.008Z</time>
      </trkpt>
      <trkpt lat="42.97932" lon="2.0634">
        <ele>661.4359936</ele>
        <time>2016-11-01T15:00:21.008Z</time>
      </trkpt>
      <trkpt lat="42.97938" lon="2.06342">
        <ele>663</ele>
        <time>2016-11-01T15:00:23.008Z</time>
      </trkpt>
      <trkpt lat="42.97944" lon="2.06344">
        <ele>663</ele>
        <time>2016-11-01T15:00:25.008Z</time>
      </trkpt>
      <trkpt lat="42.97953" lon="2.06347">
        <ele>663</ele>
        <time>2016-11-01T15:00:28.008Z</time>
      </trkpt>
      <trkpt lat="42.97963" lon="2.0635">
        <ele>663.2179968</ele>
        <time>2016-11-01T15:00:31.008Z</time>
      </trkpt>
      <trkpt lat="42.97972" lon="2.06353">
        <ele>664</ele>
        <time>2016-11-01T15:00:34.008Z</time>
      </trkpt>
      <trkpt lat="42.97982" lon="2.06354">
        <ele>664</ele>
        <time>2016-11-01T15:00:37.008Z</time>
      </trkpt>
      <trkpt lat="42.97989" lon="2.06356">
        <ele>664</ele>
        <time>2016-11-01T15:00:39.008Z</time>
      </trkpt>
      <trkpt lat="42.97998" lon="2.06358">
        <ele>666</ele>
        <time>2016-11-01T15:00:42.008Z</time>
      </trkpt>
      <trkpt lat="42.98008" lon="2.06359">
        <ele>666</ele>
        <time>2016-11-01T15:00:45.008Z</time>
      </trkpt>
      <trkpt lat="42.98017" lon="2.0636">
        <ele>666</ele>
        <time>2016-11-01T15:00:48.008Z</time>
      </trkpt>
      <trkpt lat="42.98026" lon="2.06358">
        <ele>666.2179968</ele>
        <time>2016-11-01T15:00:51.008Z</time>
      </trkpt>
      <trkpt lat="42.98036" lon="2.06353">
        <ele>667</ele>
        <time>2016-11-01T15:00:54.008Z</time>
      </trkpt>
      <trkpt lat="42.98045" lon="2.06346">
        <ele>667</ele>
        <time>2016-11-01T15:00:57.008Z</time>
      </trkpt>
      <trkpt lat="42.98055" lon="2.06339">
        <ele>667</ele>
        <time>2016-11-01T15:01:00.008Z</time>
      </trkpt>
      <trkpt lat="42.98063" lon="2.06338">
        <ele>667</ele>
        <time>2016-11-01T15:01:02.008Z</time>
      </trkpt>
      <trkpt lat="42.9807" lon="2.06341">
        <ele>667</ele>
        <time>2016-11-01T15:01:04.008Z</time>
      </trkpt>
      <trkpt lat="42.98077" lon="2.06348">
        <ele>667</ele>
        <time>2016-11-01T15:01:06.008Z</time>
      </trkpt>
      <trkpt lat="42.98082" lon="2.06356">
        <ele>667</ele>
        <time>2016-11-01T15:01:08.008Z</time>
      </trkpt>
      <trkpt lat="42.98086" lon="2.06371">
        <ele>667.4359936</ele>
        <time>2016-11-01T15:01:11.008Z</time>
      </trkpt>
      <trkpt lat="42.98087" lon="2.06382">
        <ele>669</ele>
        <time>2016-11-01T15:01:13.008Z</time>
      </trkpt>
      <trkpt lat="42.98087" lon="2.06393">
        <ele>669</ele>
        <time>2016-11-01T15:01:15.008Z</time>
      </trkpt>
      <trkpt lat="42.98088" lon="2.06404">
        <ele>669</ele>
        <time>2016-11-01T15:01:17.008Z</time>
      </trkpt>
      <trkpt lat="42.98089" lon="2.06414">
        <ele>669</ele>
        <time>2016-11-01T15:01:19.008Z</time>
      </trkpt>
      <trkpt lat="42.98091" lon="2.06424">
        <ele>669.4359936</ele>
        <time>2016-11-01T15:01:21.008Z</time>
      </trkpt>
      <trkpt lat="42.98094" lon="2.06433">
        <ele>671</ele>
        <time>2016-11-01T15:01:23.008Z</time>
      </trkpt>
      <trkpt lat="42.98097" lon="2.06441">
        <ele>671</ele>
        <time>2016-11-01T15:01:25.008Z</time>
      </trkpt>
      <trkpt lat="42.981" lon="2.06449">
        <ele>671</ele>
        <time>2016-11-01T15:01:27.008Z</time>
      </trkpt>
      <trkpt lat="42.98104" lon="2.06456">
        <ele>671</ele>
        <time>2016-11-01T15:01:29.008Z</time>
      </trkpt>
      <trkpt lat="42.98107" lon="2.06464">
        <ele>671.2179968</ele>
        <time>2016-11-01T15:01:31.008Z</time>
      </trkpt>
      <trkpt lat="42.98111" lon="2.06471">
        <ele>672</ele>
        <time>2016-11-01T15:01:33.008Z</time>
      </trkpt>
      <trkpt lat="42.98115" lon="2.06479">
        <ele>672</ele>
        <time>2016-11-01T15:01:35.008Z</time>
      </trkpt>
      <trkpt lat="42.98118" lon="2.06487">
        <ele>672</ele>
        <time>2016-11-01T15:01:37.008Z</time>
      </trkpt>
      <trkpt lat="42.98122" lon="2.06494">
        <ele>672</ele>
        <time>2016-11-01T15:01:39.008Z</time>
      </trkpt>
      <trkpt lat="42.98127" lon="2.06501">
        <ele>672.2179968</ele>
        <time>2016-11-01T15:01:41.008Z</time>
      </trkpt>
      <trkpt lat="42.9813" lon="2.06504">
        <ele>673</ele>
        <time>2016-11-01T15:01:42.008Z</time>
      </trkpt>
      <trkpt lat="42.98137" lon="2.06508">
        <ele>673</ele>
        <time>2016-11-01T15:01:44.008Z</time>
      </trkpt>
      <trkpt lat="42.98143" lon="2.0651">
        <ele>673</ele>
        <time>2016-11-01T15:01:46.008Z</time>
      </trkpt>
      <trkpt lat="42.9815" lon="2.06511">
        <ele>673</ele>
        <time>2016-11-01T15:01:48.008Z</time>
      </trkpt>
      <trkpt lat="42.98157" lon="2.06512">
        <ele>673</ele>
        <time>2016-11-01T15:01:50.008Z</time>
      </trkpt>
      <trkpt lat="42.98164" lon="2.06512">
        <ele>675</ele>
        <time>2016-11-01T15:01:52.008Z</time>
      </trkpt>
      <trkpt lat="42.98171" lon="2.06512">
        <ele>675</ele>
        <time>2016-11-01T15:01:54.008Z</time>
      </trkpt>
      <trkpt lat="42.98178" lon="2.0651">
        <ele>675</ele>
        <time>2016-11-01T15:01:56.008Z</time>
      </trkpt>
      <trkpt lat="42.98189" lon="2.06506">
        <ele>675</ele>
        <time>2016-11-01T15:01:59.008Z</time>
      </trkpt>
      <trkpt lat="42.98196" lon="2.06504">
        <ele>675.4359936</ele>
        <time>2016-11-01T15:02:01.008Z</time>
      </trkpt>
      <trkpt lat="42.98202" lon="2.06502">
        <ele>677</ele>
        <time>2016-11-01T15:02:03.008Z</time>
      </trkpt>
      <trkpt lat="42.98209" lon="2.065">
        <ele>677</ele>
        <time>2016-11-01T15:02:05.008Z</time>
      </trkpt>
      <trkpt lat="42.98216" lon="2.06498">
        <ele>677</ele>
        <time>2016-11-01T15:02:08.008Z</time>
      </trkpt>
      <trkpt lat="42.98227" lon="2.06491">
        <ele>679</ele>
        <time>2016-11-01T15:02:12.008Z</time>
      </trkpt>
      <trkpt lat="42.98234" lon="2.06486">
        <ele>679</ele>
        <time>2016-11-01T15:02:14.008Z</time>
      </trkpt>
      <trkpt lat="42.98241" lon="2.0648">
        <ele>679</ele>
        <time>2016-11-01T15:02:16.008Z</time>
      </trkpt>
      <trkpt lat="42.98247" lon="2.06475">
        <ele>679</ele>
        <time>2016-11-01T15:02:18.008Z</time>
      </trkpt>
      <trkpt lat="42.98253" lon="2.0647">
        <ele>679</ele>
        <time>2016-11-01T15:02:20.008Z</time>
      </trkpt>
      <trkpt lat="42.98261" lon="2.06464">
        <ele>679</ele>
        <time>2016-11-01T15:02:23.008Z</time>
      </trkpt>
      <trkpt lat="42.98268" lon="2.06457">
        <ele>679</ele>
        <time>2016-11-01T15:02:31.008Z</time>
      </trkpt>
      <trkpt lat="42.98272" lon="2.0645">
        <ele>679</ele>
        <time>2016-11-01T15:02:34.008Z</time>
      </trkpt>
      <trkpt lat="42.98277" lon="2.06441">
        <ele>679</ele>
        <time>2016-11-01T15:02:37.008Z</time>
      </trkpt>
      <trkpt lat="42.98281" lon="2.06435">
        <ele>679</ele>
        <time>2016-11-01T15:02:39.008Z</time>
      </trkpt>
      <trkpt lat="42.98286" lon="2.06429">
        <ele>679.2179968</ele>
        <time>2016-11-01T15:02:41.008Z</time>
      </trkpt>
      <trkpt lat="42.98292" lon="2.06423">
        <ele>680</ele>
        <time>2016-11-01T15:02:43.008Z</time>
      </trkpt>
      <trkpt lat="42.98296" lon="2.06416">
        <ele>680</ele>
        <time>2016-11-01T15:02:45.008Z</time>
      </trkpt>
      <trkpt lat="42.98302" lon="2.0641">
        <ele>680</ele>
        <time>2016-11-01T15:02:47.008Z</time>
      </trkpt>
      <trkpt lat="42.98307" lon="2.06405">
        <ele>680</ele>
        <time>2016-11-01T15:02:49.008Z</time>
      </trkpt>
      <trkpt lat="42.98314" lon="2.06403">
        <ele>680.2179968</ele>
        <time>2016-11-01T15:02:51.008Z</time>
      </trkpt>
      <trkpt lat="42.9832" lon="2.06402">
        <ele>681</ele>
        <time>2016-11-01T15:02:53.008Z</time>
      </trkpt>
      <trkpt lat="42.98327" lon="2.06401">
        <ele>681</ele>
        <time>2016-11-01T15:02:55.008Z</time>
      </trkpt>
      <trkpt lat="42.98334" lon="2.06399">
        <ele>681</ele>
        <time>2016-11-01T15:02:57.008Z</time>
      </trkpt>
      <trkpt lat="42.98342" lon="2.06396">
        <ele>681</ele>
        <time>2016-11-01T15:02:59.008Z</time>
      </trkpt>
      <trkpt lat="42.98352" lon="2.06392">
        <ele>680.5640064</ele>
        <time>2016-11-01T15:03:01.008Z</time>
      </trkpt>
      <trkpt lat="42.98364" lon="2.06388">
        <ele>679</ele>
        <time>2016-11-01T15:03:03.008Z</time>
      </trkpt>
      <trkpt lat="42.9837" lon="2.06386">
        <ele>679</ele>
        <time>2016-11-01T15:03:04.008Z</time>
      </trkpt>
      <trkpt lat="42.98376" lon="2.06384">
        <ele>679</ele>
        <time>2016-11-01T15:03:05.008Z</time>
      </trkpt>
      <trkpt lat="42.98382" lon="2.06381">
        <ele>679</ele>
        <time>2016-11-01T15:03:06.008Z</time>
      </trkpt>
      <trkpt lat="42.98388" lon="2.06379">
        <ele>679</ele>
        <time>2016-11-01T15:03:07.008Z</time>
      </trkpt>
      <trkpt lat="42.98395" lon="2.06377">
        <ele>679</ele>
        <time>2016-11-01T15:03:08.008Z</time>
      </trkpt>
      <trkpt lat="42.98402" lon="2.06374">
        <ele>679</ele>
        <time>2016-11-01T15:03:09.008Z</time>
      </trkpt>
      <trkpt lat="42.98408" lon="2.06372">
        <ele>679</ele>
        <time>2016-11-01T15:03:10.008Z</time>
      </trkpt>
      <trkpt lat="42.98414" lon="2.0637">
        <ele>678.7820032</ele>
        <time>2016-11-01T15:03:11.008Z</time>
      </trkpt>
      <trkpt lat="42.98421" lon="2.06368">
        <ele>678</ele>
        <time>2016-11-01T15:03:12.008Z</time>
      </trkpt>
      <trkpt lat="42.98427" lon="2.06367">
        <ele>678</ele>
        <time>2016-11-01T15:03:13.008Z</time>
      </trkpt>
      <trkpt lat="42.98434" lon="2.06366">
        <ele>678</ele>
        <time>2016-11-01T15:03:14.008Z</time>
      </trkpt>
      <trkpt lat="42.9844" lon="2.06365">
        <ele>678</ele>
        <time>2016-11-01T15:03:15.008Z</time>
      </trkpt>
      <trkpt lat="42.98446" lon="2.06365">
        <ele>678</ele>
        <time>2016-11-01T15:03:16.008Z</time>
      </trkpt>
      <trkpt lat="42.98452" lon="2.06364">
        <ele>678</ele>
        <time>2016-11-01T15:03:17.008Z</time>
      </trkpt>
      <trkpt lat="42.98458" lon="2.06364">
        <ele>678</ele>
        <time>2016-11-01T15:03:18.008Z</time>
      </trkpt>
      <trkpt lat="42.98464" lon="2.06363">
        <ele>678</ele>
        <time>2016-11-01T15:03:19.008Z</time>
      </trkpt>
      <trkpt lat="42.9847" lon="2.06361">
        <ele>678</ele>
        <time>2016-11-01T15:03:20.008Z</time>
      </trkpt>
      <trkpt lat="42.98481" lon="2.06359">
        <ele>677</ele>
        <time>2016-11-01T15:03:22.008Z</time>
      </trkpt>
      <trkpt lat="42.98493" lon="2.06357">
        <ele>677</ele>
        <time>2016-11-01T15:03:24.008Z</time>
      </trkpt>
      <trkpt lat="42.98505" lon="2.06355">
        <ele>677</ele>
        <time>2016-11-01T15:03:26.008Z</time>
      </trkpt>
      <trkpt lat="42.98515" lon="2.06354">
        <ele>677</ele>
        <time>2016-11-01T15:03:28.008Z</time>
      </trkpt>
      <trkpt lat="42.98524" lon="2.06348">
        <ele>677</ele>
        <time>2016-11-01T15:03:30.008Z</time>
      </trkpt>
      <trkpt lat="42.98532" lon="2.06341">
        <ele>679</ele>
        <time>2016-11-01T15:03:32.008Z</time>
      </trkpt>
      <trkpt lat="42.98539" lon="2.06333">
        <ele>679</ele>
        <time>2016-11-01T15:03:34.008Z</time>
      </trkpt>
      <trkpt lat="42.98545" lon="2.06323">
        <ele>679</ele>
        <time>2016-11-01T15:03:36.008Z</time>
      </trkpt>
      <trkpt lat="42.9855" lon="2.06313">
        <ele>679</ele>
        <time>2016-11-01T15:03:38.008Z</time>
      </trkpt>
      <trkpt lat="42.98554" lon="2.06301">
        <ele>679.8719872</ele>
        <time>2016-11-01T15:03:41.008Z</time>
      </trkpt>
      <trkpt lat="42.98557" lon="2.06287">
        <ele>683</ele>
        <time>2016-11-01T15:03:44.008Z</time>
      </trkpt>
      <trkpt lat="42.9856" lon="2.0627">
        <ele>685</ele>
        <time>2016-11-01T15:03:47.008Z</time>
      </trkpt>
      <trkpt lat="42.98563" lon="2.06253">
        <ele>685</ele>
        <time>2016-11-01T15:03:50.008Z</time>
      </trkpt>
      <trkpt lat="42.98565" lon="2.06237">
        <ele>686</ele>
        <time>2016-11-01T15:03:53.008Z</time>
      </trkpt>
      <trkpt lat="42.98568" lon="2.06222">
        <ele>686.4359936</ele>
        <time>2016-11-01T15:03:56.008Z</time>
      </trkpt>
      <trkpt lat="42.98571" lon="2.06206">
        <ele>688</ele>
        <time>2016-11-01T15:03:59.008Z</time>
      </trkpt>
      <trkpt lat="42.98578" lon="2.0619">
        <ele>689</ele>
        <time>2016-11-01T15:04:02.008Z</time>
      </trkpt>
      <trkpt lat="42.98583" lon="2.0618">
        <ele>689</ele>
        <time>2016-11-01T15:04:04.008Z</time>
      </trkpt>
      <trkpt lat="42.98591" lon="2.06173">
        <ele>689</ele>
        <time>2016-11-01T15:04:06.008Z</time>
      </trkpt>
      <trkpt lat="42.986" lon="2.06169">
        <ele>689</ele>
        <time>2016-11-01T15:04:08.008Z</time>
      </trkpt>
      <trkpt lat="42.98611" lon="2.06168">
        <ele>689</ele>
        <time>2016-11-01T15:04:10.008Z</time>
      </trkpt>
      <trkpt lat="42.98617" lon="2.06168">
        <ele>688.7820032</ele>
        <time>2016-11-01T15:04:11.008Z</time>
      </trkpt>
      <trkpt lat="42.98623" lon="2.06169">
        <ele>688</ele>
        <time>2016-11-01T15:04:12.008Z</time>
      </trkpt>
      <trkpt lat="42.98637" lon="2.0617">
        <ele>688</ele>
        <time>2016-11-01T15:04:14.008Z</time>
      </trkpt>
      <trkpt lat="42.98652" lon="2.0617">
        <ele>688</ele>
        <time>2016-11-01T15:04:16.008Z</time>
      </trkpt>
      <trkpt lat="42.98666" lon="2.0617">
        <ele>688</ele>
        <time>2016-11-01T15:04:18.008Z</time>
      </trkpt>
      <trkpt lat="42.98675" lon="2.06167">
        <ele>688</ele>
        <time>2016-11-01T15:04:20.008Z</time>
      </trkpt>
      <trkpt lat="42.98663" lon="2.06161">
        <ele>686</ele>
        <time>2016-11-01T15:04:25.008Z</time>
      </trkpt>
      <trkpt lat="42.98652" lon="2.06159">
        <ele>683</ele>
        <time>2016-11-01T15:04:27.008Z</time>
      </trkpt>
      <trkpt lat="42.9864" lon="2.06156">
        <ele>683</ele>
        <time>2016-11-01T15:04:29.008Z</time>
      </trkpt>
      <trkpt lat="42.98629" lon="2.06152">
        <ele>682.7820032</ele>
        <time>2016-11-01T15:04:31.008Z</time>
      </trkpt>
      <trkpt lat="42.98618" lon="2.06144">
        <ele>682</ele>
        <time>2016-11-01T15:04:33.008Z</time>
      </trkpt>
      <trkpt lat="42.98608" lon="2.06135">
        <ele>682</ele>
        <time>2016-11-01T15:04:35.008Z</time>
      </trkpt>
      <trkpt lat="42.98599" lon="2.06123">
        <ele>681</ele>
        <time>2016-11-01T15:04:37.008Z</time>
      </trkpt>
      <trkpt lat="42.98587" lon="2.06111">
        <ele>681</ele>
        <time>2016-11-01T15:04:39.008Z</time>
      </trkpt>
      <trkpt lat="42.98574" lon="2.06097">
        <ele>680.1280128</ele>
        <time>2016-11-01T15:04:41.008Z</time>
      </trkpt>
      <trkpt lat="42.9856" lon="2.06082">
        <ele>673.7820032</ele>
        <time>2016-11-01T15:04:43.008Z</time>
      </trkpt>
      <trkpt lat="42.98547" lon="2.06065">
        <ele>670.7820032</ele>
        <time>2016-11-01T15:04:45.008Z</time>
      </trkpt>
      <trkpt lat="42.98537" lon="2.0605">
        <ele>669.5640064</ele>
        <time>2016-11-01T15:04:47.008Z</time>
      </trkpt>
      <trkpt lat="42.98532" lon="2.06032">
        <ele>667</ele>
        <time>2016-11-01T15:04:49.008Z</time>
      </trkpt>
      <trkpt lat="42.98528" lon="2.06012">
        <ele>666.56832180062</ele>
        <time>2016-11-01T15:04:51.008Z</time>
      </trkpt>
      <trkpt lat="42.98525" lon="2.05993">
        <ele>663.7820032</ele>
        <time>2016-11-01T15:04:53.008Z</time>
      </trkpt>
      <trkpt lat="42.98524" lon="2.05975">
        <ele>662</ele>
        <time>2016-11-01T15:04:55.008Z</time>
      </trkpt>
      <trkpt lat="42.98522" lon="2.05954">
        <ele>660.5640064</ele>
        <time>2016-11-01T15:04:57.008Z</time>
      </trkpt>
      <trkpt lat="42.98515" lon="2.05933">
        <ele>658.7820032</ele>
        <time>2016-11-01T15:04:59.008Z</time>
      </trkpt>
      <trkpt lat="42.98503" lon="2.05917">
        <ele>656.7820032</ele>
        <time>2016-11-01T15:05:01.008Z</time>
      </trkpt>
      <trkpt lat="42.9849" lon="2.05902">
        <ele>653.7820032</ele>
        <time>2016-11-01T15:05:03.008Z</time>
      </trkpt>
      <trkpt lat="42.98476" lon="2.05886">
        <ele>652</ele>
        <time>2016-11-01T15:05:05.008Z</time>
      </trkpt>
      <trkpt lat="42.98469" lon="2.05877">
        <ele>652</ele>
        <time>2016-11-01T15:05:06.008Z</time>
      </trkpt>
      <trkpt lat="42.98457" lon="2.05864">
        <ele>652</ele>
        <time>2016-11-01T15:05:08.008Z</time>
      </trkpt>
      <trkpt lat="42.98442" lon="2.05858">
        <ele>652</ele>
        <time>2016-11-01T15:05:10.008Z</time>
      </trkpt>
      <trkpt lat="42.98431" lon="2.05853">
        <ele>652</ele>
        <time>2016-11-01T15:05:12.008Z</time>
      </trkpt>
      <trkpt lat="42.98443" lon="2.05848">
        <ele>652</ele>
        <time>2016-11-01T15:05:19.008Z</time>
      </trkpt>
      <trkpt lat="42.98453" lon="2.05853">
        <ele>651.5640064</ele>
        <time>2016-11-01T15:05:21.008Z</time>
      </trkpt>
      <trkpt lat="42.98468" lon="2.05859">
        <ele>650</ele>
        <time>2016-11-01T15:05:23.008Z</time>
      </trkpt>
      <trkpt lat="42.98483" lon="2.05864">
        <ele>650</ele>
        <time>2016-11-01T15:05:25.008Z</time>
      </trkpt>
      <trkpt lat="42.98498" lon="2.05867">
        <ele>648</ele>
        <time>2016-11-01T15:05:27.008Z</time>
      </trkpt>
      <trkpt lat="42.98514" lon="2.05868">
        <ele>648</ele>
        <time>2016-11-01T15:05:29.008Z</time>
      </trkpt>
      <trkpt lat="42.9853" lon="2.0587">
        <ele>647.3460096</ele>
        <time>2016-11-01T15:05:31.008Z</time>
      </trkpt>
      <trkpt lat="42.98547" lon="2.05879">
        <ele>645</ele>
        <time>2016-11-01T15:05:33.008Z</time>
      </trkpt>
      <trkpt lat="42.98561" lon="2.05888">
        <ele>645</ele>
        <time>2016-11-01T15:05:35.008Z</time>
      </trkpt>
      <trkpt lat="42.98572" lon="2.05899">
        <ele>642</ele>
        <time>2016-11-01T15:05:37.008Z</time>
      </trkpt>
      <trkpt lat="42.98585" lon="2.05913">
        <ele>642</ele>
        <time>2016-11-01T15:05:39.008Z</time>
      </trkpt>
      <trkpt lat="42.98598" lon="2.05923">
        <ele>640.4740224</ele>
        <time>2016-11-01T15:05:41.008Z</time>
      </trkpt>
      <trkpt lat="42.98612" lon="2.05933">
        <ele>633</ele>
        <time>2016-11-01T15:05:43.008Z</time>
      </trkpt>
      <trkpt lat="42.98624" lon="2.05942">
        <ele>633</ele>
        <time>2016-11-01T15:05:45.008Z</time>
      </trkpt>
      <trkpt lat="42.98635" lon="2.05948">
        <ele>632.7820032</ele>
        <time>2016-11-01T15:05:47.008Z</time>
      </trkpt>
      <trkpt lat="42.98644" lon="2.05943">
        <ele>631.7820032</ele>
        <time>2016-11-01T15:05:50.008Z</time>
      </trkpt>
      <trkpt lat="42.98649" lon="2.05931">
        <ele>632</ele>
        <time>2016-11-01T15:05:56.008Z</time>
      </trkpt>
      <trkpt lat="42.98658" lon="2.05922">
        <ele>632</ele>
        <time>2016-11-01T15:06:01.008Z</time>
      </trkpt>
      <trkpt lat="42.98667" lon="2.05912">
        <ele>632</ele>
        <time>2016-11-01T15:06:04.008Z</time>
      </trkpt>
      <trkpt lat="42.98676" lon="2.05902">
        <ele>632</ele>
        <time>2016-11-01T15:06:08.008Z</time>
      </trkpt>
      <trkpt lat="42.98684" lon="2.05893">
        <ele>632.4359936</ele>
        <time>2016-11-01T15:06:11.008Z</time>
      </trkpt>
      <trkpt lat="42.98692" lon="2.05883">
        <ele>634</ele>
        <time>2016-11-01T15:06:14.008Z</time>
      </trkpt>
      <trkpt lat="42.987" lon="2.05874">
        <ele>634</ele>
        <time>2016-11-01T15:06:17.008Z</time>
      </trkpt>
      <trkpt lat="42.9871" lon="2.05865">
        <ele>634</ele>
        <time>2016-11-01T15:06:20.008Z</time>
      </trkpt>
      <trkpt lat="42.98718" lon="2.05856">
        <ele>636</ele>
        <time>2016-11-01T15:06:23.008Z</time>
      </trkpt>
      <trkpt lat="42.98726" lon="2.05847">
        <ele>636.4359936</ele>
        <time>2016-11-01T15:06:26.008Z</time>
      </trkpt>
      <trkpt lat="42.98734" lon="2.05836">
        <ele>638</ele>
        <time>2016-11-01T15:06:29.008Z</time>
      </trkpt>
      <trkpt lat="42.98739" lon="2.05827">
        <ele>638</ele>
        <time>2016-11-01T15:06:31.008Z</time>
      </trkpt>
      <trkpt lat="42.98746" lon="2.05815">
        <ele>638</ele>
        <time>2016-11-01T15:06:33.008Z</time>
      </trkpt>
      <trkpt lat="42.98749" lon="2.05799">
        <ele>638</ele>
        <time>2016-11-01T15:06:35.008Z</time>
      </trkpt>
      <trkpt lat="42.98751" lon="2.05779">
        <ele>638</ele>
        <time>2016-11-01T15:06:37.008Z</time>
      </trkpt>
      <trkpt lat="42.98753" lon="2.05762">
        <ele>638</ele>
        <time>2016-11-01T15:06:39.008Z</time>
      </trkpt>
      <trkpt lat="42.98754" lon="2.05746">
        <ele>637.5640064</ele>
        <time>2016-11-01T15:06:41.008Z</time>
      </trkpt>
      <trkpt lat="42.98754" lon="2.05731">
        <ele>636</ele>
        <time>2016-11-01T15:06:43.008Z</time>
      </trkpt>
      <trkpt lat="42.98754" lon="2.05714">
        <ele>635.7820032</ele>
        <time>2016-11-01T15:06:46.008Z</time>
      </trkpt>
      <trkpt lat="42.98755" lon="2.05699">
        <ele>635</ele>
        <time>2016-11-01T15:06:49.008Z</time>
      </trkpt>
      <trkpt lat="42.98758" lon="2.05684">
        <ele>636</ele>
        <time>2016-11-01T15:06:52.008Z</time>
      </trkpt>
      <trkpt lat="42.9876" lon="2.05669">
        <ele>636</ele>
        <time>2016-11-01T15:06:55.008Z</time>
      </trkpt>
      <trkpt lat="42.98761" lon="2.05655">
        <ele>636</ele>
        <time>2016-11-01T15:06:58.008Z</time>
      </trkpt>
      <trkpt lat="42.98762" lon="2.05642">
        <ele>636</ele>
        <time>2016-11-01T15:07:03.008Z</time>
      </trkpt>
      <trkpt lat="42.98765" lon="2.05629">
        <ele>636</ele>
        <time>2016-11-01T15:07:06.008Z</time>
      </trkpt>
      <trkpt lat="42.98766" lon="2.05614">
        <ele>636</ele>
        <time>2016-11-01T15:07:09.008Z</time>
      </trkpt>
      <trkpt lat="42.98766" lon="2.05603">
        <ele>636</ele>
        <time>2016-11-01T15:07:11.008Z</time>
      </trkpt>
      <trkpt lat="42.98765" lon="2.05587">
        <ele>636</ele>
        <time>2016-11-01T15:07:14.008Z</time>
      </trkpt>
      <trkpt lat="42.98764" lon="2.05575">
        <ele>636</ele>
        <time>2016-11-01T15:07:16.008Z</time>
      </trkpt>
      <trkpt lat="42.98762" lon="2.05562">
        <ele>636</ele>
        <time>2016-11-01T15:07:18.008Z</time>
      </trkpt>
      <trkpt lat="42.98758" lon="2.05549">
        <ele>636</ele>
        <time>2016-11-01T15:07:20.008Z</time>
      </trkpt>
      <trkpt lat="42.98754" lon="2.05538">
        <ele>635</ele>
        <time>2016-11-01T15:07:22.008Z</time>
      </trkpt>
      <trkpt lat="42.98751" lon="2.05525">
        <ele>635</ele>
        <time>2016-11-01T15:07:25.008Z</time>
      </trkpt>
      <trkpt lat="42.9875" lon="2.0551">
        <ele>635</ele>
        <time>2016-11-01T15:07:28.008Z</time>
      </trkpt>
      <trkpt lat="42.98747" lon="2.05494">
        <ele>635</ele>
        <time>2016-11-01T15:07:31.008Z</time>
      </trkpt>
      <trkpt lat="42.98745" lon="2.05483">
        <ele>635</ele>
        <time>2016-11-01T15:07:33.008Z</time>
      </trkpt>
      <trkpt lat="42.98745" lon="2.05469">
        <ele>635</ele>
        <time>2016-11-01T15:07:35.008Z</time>
      </trkpt>
      <trkpt lat="42.98744" lon="2.05455">
        <ele>635</ele>
        <time>2016-11-01T15:07:37.008Z</time>
      </trkpt>
      <trkpt lat="42.98741" lon="2.05441">
        <ele>635</ele>
        <time>2016-11-01T15:07:39.008Z</time>
      </trkpt>
      <trkpt lat="42.98737" lon="2.05424">
        <ele>634.5640064</ele>
        <time>2016-11-01T15:07:41.008Z</time>
      </trkpt>
      <trkpt lat="42.98732" lon="2.05406">
        <ele>633</ele>
        <time>2016-11-01T15:07:43.008Z</time>
      </trkpt>
      <trkpt lat="42.98728" lon="2.05388">
        <ele>633</ele>
        <time>2016-11-01T15:07:45.008Z</time>
      </trkpt>
      <trkpt lat="42.98726" lon="2.05378">
        <ele>633</ele>
        <time>2016-11-01T15:07:46.008Z</time>
      </trkpt>
      <trkpt lat="42.98724" lon="2.05367">
        <ele>633</ele>
        <time>2016-11-01T15:07:47.008Z</time>
      </trkpt>
      <trkpt lat="42.98719" lon="2.05347">
        <ele>633</ele>
        <time>2016-11-01T15:07:49.008Z</time>
      </trkpt>
      <trkpt lat="42.98713" lon="2.05328">
        <ele>631.73939801407</ele>
        <time>2016-11-01T15:07:51.008Z</time>
      </trkpt>
      <trkpt lat="42.98713" lon="2.05312">
        <ele>624</ele>
        <time>2016-11-01T15:07:53.008Z</time>
      </trkpt>
      <trkpt lat="42.98708" lon="2.05298">
        <ele>623</ele>
        <time>2016-11-01T15:07:56.008Z</time>
      </trkpt>
      <trkpt lat="42.98698" lon="2.05291">
        <ele>622</ele>
        <time>2016-11-01T15:07:58.008Z</time>
      </trkpt>
      <trkpt lat="42.98687" lon="2.05282">
        <ele>621.7820032</ele>
        <time>2016-11-01T15:08:00.008Z</time>
      </trkpt>
      <trkpt lat="42.98676" lon="2.0527">
        <ele>620</ele>
        <time>2016-11-01T15:08:02.008Z</time>
      </trkpt>
      <trkpt lat="42.98668" lon="2.05252">
        <ele>620</ele>
        <time>2016-11-01T15:08:04.008Z</time>
      </trkpt>
      <trkpt lat="42.98662" lon="2.05234">
        <ele>620</ele>
        <time>2016-11-01T15:08:06.008Z</time>
      </trkpt>
      <trkpt lat="42.98657" lon="2.05215">
        <ele>620</ele>
        <time>2016-11-01T15:08:08.008Z</time>
      </trkpt>
      <trkpt lat="42.98655" lon="2.05205">
        <ele>619.7820032</ele>
        <time>2016-11-01T15:08:09.008Z</time>
      </trkpt>
      <trkpt lat="42.98653" lon="2.05195">
        <ele>618.7820032</ele>
        <time>2016-11-01T15:08:10.008Z</time>
      </trkpt>
      <trkpt lat="42.98651" lon="2.05185">
        <ele>618</ele>
        <time>2016-11-01T15:08:11.008Z</time>
      </trkpt>
      <trkpt lat="42.98648" lon="2.05174">
        <ele>618</ele>
        <time>2016-11-01T15:08:12.008Z</time>
      </trkpt>
      <trkpt lat="42.98646" lon="2.05164">
        <ele>618</ele>
        <time>2016-11-01T15:08:13.008Z</time>
      </trkpt>
      <trkpt lat="42.98643" lon="2.05152">
        <ele>618</ele>
        <time>2016-11-01T15:08:14.008Z</time>
      </trkpt>
      <trkpt lat="42.98639" lon="2.05141">
        <ele>618</ele>
        <time>2016-11-01T15:08:15.008Z</time>
      </trkpt>
      <trkpt lat="42.98634" lon="2.05129">
        <ele>617.3460096</ele>
        <time>2016-11-01T15:08:16.008Z</time>
      </trkpt>
      <trkpt lat="42.9863" lon="2.05117">
        <ele>615</ele>
        <time>2016-11-01T15:08:17.008Z</time>
      </trkpt>
      <trkpt lat="42.98626" lon="2.05104">
        <ele>615</ele>
        <time>2016-11-01T15:08:18.008Z</time>
      </trkpt>
      <trkpt lat="42.98623" lon="2.05092">
        <ele>615</ele>
        <time>2016-11-01T15:08:19.008Z</time>
      </trkpt>
      <trkpt lat="42.9862" lon="2.0508">
        <ele>615</ele>
        <time>2016-11-01T15:08:20.008Z</time>
      </trkpt>
      <trkpt lat="42.98617" lon="2.05068">
        <ele>614.5640064</ele>
        <time>2016-11-01T15:08:21.008Z</time>
      </trkpt>
      <trkpt lat="42.98614" lon="2.05056">
        <ele>613</ele>
        <time>2016-11-01T15:08:22.008Z</time>
      </trkpt>
      <trkpt lat="42.98611" lon="2.05034">
        <ele>613</ele>
        <time>2016-11-01T15:08:24.008Z</time>
      </trkpt>
      <trkpt lat="42.98606" lon="2.05016">
        <ele>612.3460096</ele>
        <time>2016-11-01T15:08:26.008Z</time>
      </trkpt>
      <trkpt lat="42.986" lon="2.04999">
        <ele>610</ele>
        <time>2016-11-01T15:08:28.008Z</time>
      </trkpt>
      <trkpt lat="42.98594" lon="2.04983">
        <ele>610</ele>
        <time>2016-11-01T15:08:30.008Z</time>
      </trkpt>
      <trkpt lat="42.98588" lon="2.04967">
        <ele>610</ele>
        <time>2016-11-01T15:08:32.008Z</time>
      </trkpt>
      <trkpt lat="42.98584" lon="2.04951">
        <ele>610</ele>
        <time>2016-11-01T15:08:34.008Z</time>
      </trkpt>
      <trkpt lat="42.9858" lon="2.04933">
        <ele>610</ele>
        <time>2016-11-01T15:08:36.008Z</time>
      </trkpt>
      <trkpt lat="42.98575" lon="2.04914">
        <ele>610</ele>
        <time>2016-11-01T15:08:38.008Z</time>
      </trkpt>
      <trkpt lat="42.98571" lon="2.04904">
        <ele>610</ele>
        <time>2016-11-01T15:08:39.008Z</time>
      </trkpt>
      <trkpt lat="42.98566" lon="2.04894">
        <ele>610</ele>
        <time>2016-11-01T15:08:40.008Z</time>
      </trkpt>
      <trkpt lat="42.98559" lon="2.04885">
        <ele>608.70496540187</ele>
        <time>2016-11-01T15:08:41.008Z</time>
      </trkpt>
      <trkpt lat="42.98553" lon="2.04876">
        <ele>603.36969900703</ele>
        <time>2016-11-01T15:08:42.008Z</time>
      </trkpt>
      <trkpt lat="42.98546" lon="2.04867">
        <ele>601</ele>
        <time>2016-11-01T15:08:43.008Z</time>
      </trkpt>
      <trkpt lat="42.9854" lon="2.04858">
        <ele>601</ele>
        <time>2016-11-01T15:08:44.008Z</time>
      </trkpt>
      <trkpt lat="42.98528" lon="2.04848">
        <ele>600.7820032</ele>
        <time>2016-11-01T15:08:46.008Z</time>
      </trkpt>
      <trkpt lat="42.98517" lon="2.04845">
        <ele>598.7820032</ele>
        <time>2016-11-01T15:08:49.008Z</time>
      </trkpt>
      <trkpt lat="42.98525" lon="2.0485">
        <ele>599</ele>
        <time>2016-11-01T15:09:04.008Z</time>
      </trkpt>
      <trkpt lat="42.98527" lon="2.0484">
        <ele>599</ele>
        <time>2016-11-01T15:09:15.008Z</time>
      </trkpt>
      <trkpt lat="42.98526" lon="2.04824">
        <ele>599</ele>
        <time>2016-11-01T15:09:18.008Z</time>
      </trkpt>
      <trkpt lat="42.98522" lon="2.04812">
        <ele>599</ele>
        <time>2016-11-01T15:09:20.008Z</time>
      </trkpt>
      <trkpt lat="42.98516" lon="2.04795">
        <ele>598</ele>
        <time>2016-11-01T15:09:22.008Z</time>
      </trkpt>
      <trkpt lat="42.98511" lon="2.04781">
        <ele>598</ele>
        <time>2016-11-01T15:09:24.008Z</time>
      </trkpt>
      <trkpt lat="42.98503" lon="2.04765">
        <ele>598</ele>
        <time>2016-11-01T15:09:27.008Z</time>
      </trkpt>
      <trkpt lat="42.98497" lon="2.04751">
        <ele>598</ele>
        <time>2016-11-01T15:09:30.008Z</time>
      </trkpt>
      <trkpt lat="42.98493" lon="2.04736">
        <ele>597</ele>
        <time>2016-11-01T15:09:33.008Z</time>
      </trkpt>
      <trkpt lat="42.98486" lon="2.04723">
        <ele>597</ele>
        <time>2016-11-01T15:09:36.008Z</time>
      </trkpt>
      <trkpt lat="42.98479" lon="2.04709">
        <ele>597</ele>
        <time>2016-11-01T15:09:39.008Z</time>
      </trkpt>
      <trkpt lat="42.98472" lon="2.04699">
        <ele>599</ele>
        <time>2016-11-01T15:09:43.008Z</time>
      </trkpt>
      <trkpt lat="42.98464" lon="2.04688">
        <ele>599</ele>
        <time>2016-11-01T15:09:46.008Z</time>
      </trkpt>
      <trkpt lat="42.98454" lon="2.04678">
        <ele>599</ele>
        <time>2016-11-01T15:09:49.008Z</time>
      </trkpt>
      <trkpt lat="42.98444" lon="2.04666">
        <ele>598</ele>
        <time>2016-11-01T15:09:52.008Z</time>
      </trkpt>
      <trkpt lat="42.9843" lon="2.04655">
        <ele>598</ele>
        <time>2016-11-01T15:09:55.008Z</time>
      </trkpt>
      <trkpt lat="42.98422" lon="2.04644">
        <ele>598</ele>
        <time>2016-11-01T15:09:57.008Z</time>
      </trkpt>
      <trkpt lat="42.98415" lon="2.04635">
        <ele>598</ele>
        <time>2016-11-01T15:09:59.008Z</time>
      </trkpt>
      <trkpt lat="42.98405" lon="2.04624">
        <ele>586</ele>
        <time>2016-11-01T15:10:02.008Z</time>
      </trkpt>
      <trkpt lat="42.98401" lon="2.04614">
        <ele>585</ele>
        <time>2016-11-01T15:10:05.008Z</time>
      </trkpt>
      <trkpt lat="42.98395" lon="2.04603">
        <ele>585</ele>
        <time>2016-11-01T15:10:08.008Z</time>
      </trkpt>
      <trkpt lat="42.98388" lon="2.0459">
        <ele>586</ele>
        <time>2016-11-01T15:10:11.008Z</time>
      </trkpt>
      <trkpt lat="42.98384" lon="2.04581">
        <ele>586</ele>
        <time>2016-11-01T15:10:13.008Z</time>
      </trkpt>
      <trkpt lat="42.98379" lon="2.04572">
        <ele>586</ele>
        <time>2016-11-01T15:10:15.008Z</time>
      </trkpt>
      <trkpt lat="42.98374" lon="2.04563">
        <ele>586</ele>
        <time>2016-11-01T15:10:17.008Z</time>
      </trkpt>
      <trkpt lat="42.9837" lon="2.04554">
        <ele>586</ele>
        <time>2016-11-01T15:10:19.008Z</time>
      </trkpt>
      <trkpt lat="42.98363" lon="2.04543">
        <ele>586</ele>
        <time>2016-11-01T15:10:22.008Z</time>
      </trkpt>
      <trkpt lat="42.98356" lon="2.04532">
        <ele>586</ele>
        <time>2016-11-01T15:10:25.008Z</time>
      </trkpt>
      <trkpt lat="42.9835" lon="2.04523">
        <ele>586</ele>
        <time>2016-11-01T15:10:28.008Z</time>
      </trkpt>
      <trkpt lat="42.98342" lon="2.04513">
        <ele>586.2179968</ele>
        <time>2016-11-01T15:10:31.008Z</time>
      </trkpt>
      <trkpt lat="42.98335" lon="2.04501">
        <ele>587</ele>
        <time>2016-11-01T15:10:34.008Z</time>
      </trkpt>
      <trkpt lat="42.98329" lon="2.04491">
        <ele>587</ele>
        <time>2016-11-01T15:10:37.008Z</time>
      </trkpt>
      <trkpt lat="42.98324" lon="2.04482">
        <ele>587</ele>
        <time>2016-11-01T15:10:40.008Z</time>
      </trkpt>
      <trkpt lat="42.98317" lon="2.04469">
        <ele>585</ele>
        <time>2016-11-01T15:10:43.008Z</time>
      </trkpt>
      <trkpt lat="42.98311" lon="2.04459">
        <ele>585</ele>
        <time>2016-11-01T15:10:45.008Z</time>
      </trkpt>
      <trkpt lat="42.98305" lon="2.0445">
        <ele>585</ele>
        <time>2016-11-01T15:10:47.008Z</time>
      </trkpt>
      <trkpt lat="42.98298" lon="2.0444">
        <ele>585</ele>
        <time>2016-11-01T15:10:49.008Z</time>
      </trkpt>
      <trkpt lat="42.9829" lon="2.04429">
        <ele>584.5640064</ele>
        <time>2016-11-01T15:10:51.008Z</time>
      </trkpt>
      <trkpt lat="42.98282" lon="2.04417">
        <ele>583</ele>
        <time>2016-11-01T15:10:53.008Z</time>
      </trkpt>
      <trkpt lat="42.98273" lon="2.04405">
        <ele>583</ele>
        <time>2016-11-01T15:10:55.008Z</time>
      </trkpt>
      <trkpt lat="42.98262" lon="2.04394">
        <ele>582</ele>
        <time>2016-11-01T15:10:57.008Z</time>
      </trkpt>
      <trkpt lat="42.98249" lon="2.04384">
        <ele>582</ele>
        <time>2016-11-01T15:10:59.008Z</time>
      </trkpt>
      <trkpt lat="42.98242" lon="2.04379">
        <ele>582</ele>
        <time>2016-11-01T15:11:00.008Z</time>
      </trkpt>
      <trkpt lat="42.98236" lon="2.04373">
        <ele>580.910016</ele>
        <time>2016-11-01T15:11:01.008Z</time>
      </trkpt>
      <trkpt lat="42.9823" lon="2.04366">
        <ele>577</ele>
        <time>2016-11-01T15:11:02.008Z</time>
      </trkpt>
      <trkpt lat="42.98225" lon="2.0436">
        <ele>576.7820032</ele>
        <time>2016-11-01T15:11:03.008Z</time>
      </trkpt>
      <trkpt lat="42.98217" lon="2.04349">
        <ele>575.7820032</ele>
        <time>2016-11-01T15:11:05.008Z</time>
      </trkpt>
      <trkpt lat="42.9821" lon="2.04338">
        <ele>575</ele>
        <time>2016-11-01T15:11:07.008Z</time>
      </trkpt>
      <trkpt lat="42.98204" lon="2.04327">
        <ele>575</ele>
        <time>2016-11-01T15:11:09.008Z</time>
      </trkpt>
      <trkpt lat="42.98201" lon="2.04321">
        <ele>575</ele>
        <time>2016-11-01T15:11:10.008Z</time>
      </trkpt>
      <trkpt lat="42.98197" lon="2.04315">
        <ele>575</ele>
        <time>2016-11-01T15:11:11.008Z</time>
      </trkpt>
      <trkpt lat="42.98194" lon="2.04309">
        <ele>575</ele>
        <time>2016-11-01T15:11:12.008Z</time>
      </trkpt>
      <trkpt lat="42.98191" lon="2.04304">
        <ele>575</ele>
        <time>2016-11-01T15:11:13.008Z</time>
      </trkpt>
      <trkpt lat="42.98185" lon="2.04294">
        <ele>575</ele>
        <time>2016-11-01T15:11:15.008Z</time>
      </trkpt>
      <trkpt lat="42.9818" lon="2.04287">
        <ele>575</ele>
        <time>2016-11-01T15:11:17.008Z</time>
      </trkpt>
      <trkpt lat="42.98176" lon="2.04282">
        <ele>575</ele>
        <time>2016-11-01T15:11:19.008Z</time>
      </trkpt>
      <trkpt lat="42.98171" lon="2.04274">
        <ele>575</ele>
        <time>2016-11-01T15:11:23.008Z</time>
      </trkpt>
      <trkpt lat="42.98168" lon="2.04269">
        <ele>574</ele>
        <time>2016-11-01T15:11:52.008Z</time>
      </trkpt>
      <trkpt lat="42.98164" lon="2.04265">
        <ele>574</ele>
        <time>2016-11-01T15:12:27.008Z</time>
      </trkpt>
      <trkpt lat="42.9816" lon="2.04261">
        <ele>574</ele>
        <time>2016-11-01T15:12:32.008Z</time>
      </trkpt>
      <trkpt lat="42.98154" lon="2.04255">
        <ele>574</ele>
        <time>2016-11-01T15:12:36.008Z</time>
      </trkpt>
      <trkpt lat="42.98147" lon="2.0425">
        <ele>574</ele>
        <time>2016-11-01T15:12:39.008Z</time>
      </trkpt>
      <trkpt lat="42.9814" lon="2.04244">
        <ele>574</ele>
        <time>2016-11-01T15:12:42.008Z</time>
      </trkpt>
      <trkpt lat="42.98135" lon="2.04234">
        <ele>574</ele>
        <time>2016-11-01T15:12:45.008Z</time>
      </trkpt>
      <trkpt lat="42.9813" lon="2.04227">
        <ele>574</ele>
        <time>2016-11-01T15:12:47.008Z</time>
      </trkpt>
      <trkpt lat="42.98125" lon="2.04218">
        <ele>574</ele>
        <time>2016-11-01T15:12:49.008Z</time>
      </trkpt>
      <trkpt lat="42.98121" lon="2.04209">
        <ele>573.59591447566</ele>
        <time>2016-11-01T15:12:51.008Z</time>
      </trkpt>
      <trkpt lat="42.9812" lon="2.04198">
        <ele>572</ele>
        <time>2016-11-01T15:12:53.008Z</time>
      </trkpt>
      <trkpt lat="42.98118" lon="2.04184">
        <ele>572</ele>
        <time>2016-11-01T15:12:55.008Z</time>
      </trkpt>
      <trkpt lat="42.98116" lon="2.0417">
        <ele>572</ele>
        <time>2016-11-01T15:12:57.008Z</time>
      </trkpt>
      <trkpt lat="42.98113" lon="2.04157">
        <ele>572</ele>
        <time>2016-11-01T15:12:59.008Z</time>
      </trkpt>
      <trkpt lat="42.98109" lon="2.04144">
        <ele>570.910016</ele>
        <time>2016-11-01T15:13:01.008Z</time>
      </trkpt>
      <trkpt lat="42.98107" lon="2.04125">
        <ele>568</ele>
        <time>2016-11-01T15:13:04.008Z</time>
      </trkpt>
      <trkpt lat="42.98105" lon="2.04108">
        <ele>569</ele>
        <time>2016-11-01T15:13:07.008Z</time>
      </trkpt>
      <trkpt lat="42.98105" lon="2.04098">
        <ele>569</ele>
        <time>2016-11-01T15:13:09.008Z</time>
      </trkpt>
      <trkpt lat="42.98104" lon="2.04086">
        <ele>569</ele>
        <time>2016-11-01T15:13:12.008Z</time>
      </trkpt>
      <trkpt lat="42.98103" lon="2.04078">
        <ele>569</ele>
        <time>2016-11-01T15:13:16.008Z</time>
      </trkpt>
      <trkpt lat="42.98102" lon="2.0407">
        <ele>569</ele>
        <time>2016-11-01T15:13:21.008Z</time>
      </trkpt>
      <trkpt lat="42.98102" lon="2.04065">
        <ele>569</ele>
        <time>2016-11-01T15:13:28.008Z</time>
      </trkpt>
      <trkpt lat="42.981" lon="2.04058">
        <ele>569</ele>
        <time>2016-11-01T15:13:33.008Z</time>
      </trkpt>
      <trkpt lat="42.981" lon="2.04049">
        <ele>569</ele>
        <time>2016-11-01T15:13:38.008Z</time>
      </trkpt>
      <trkpt lat="42.98099" lon="2.04041">
        <ele>568</ele>
        <time>2016-11-01T15:13:44.008Z</time>
      </trkpt>
      <trkpt lat="42.98099" lon="2.04034">
        <ele>568</ele>
        <time>2016-11-01T15:13:49.008Z</time>
      </trkpt>
      <trkpt lat="42.98098" lon="2.04028">
        <ele>568</ele>
        <time>2016-11-01T15:13:52.008Z</time>
      </trkpt>
      <trkpt lat="42.98097" lon="2.0402">
        <ele>568</ele>
        <time>2016-11-01T15:13:54.008Z</time>
      </trkpt>
      <trkpt lat="42.98097" lon="2.0401">
        <ele>568</ele>
        <time>2016-11-01T15:13:56.008Z</time>
      </trkpt>
      <trkpt lat="42.98096" lon="2.03999">
        <ele>568</ele>
        <time>2016-11-01T15:13:58.008Z</time>
      </trkpt>
      <trkpt lat="42.98096" lon="2.03987">
        <ele>568</ele>
        <time>2016-11-01T15:14:00.008Z</time>
      </trkpt>
      <trkpt lat="42.98097" lon="2.03975">
        <ele>562</ele>
        <time>2016-11-01T15:14:02.008Z</time>
      </trkpt>
      <trkpt lat="42.981" lon="2.03964">
        <ele>561.7820032</ele>
        <time>2016-11-01T15:14:04.008Z</time>
      </trkpt>
      <trkpt lat="42.98108" lon="2.03951">
        <ele>559</ele>
        <time>2016-11-01T15:14:07.008Z</time>
      </trkpt>
      <trkpt lat="42.98117" lon="2.03937">
        <ele>557.7820032</ele>
        <time>2016-11-01T15:14:10.008Z</time>
      </trkpt>
      <trkpt lat="42.98123" lon="2.03924">
        <ele>554.7820032</ele>
        <time>2016-11-01T15:14:13.008Z</time>
      </trkpt>
      <trkpt lat="42.98131" lon="2.03908">
        <ele>551.7820032</ele>
        <time>2016-11-01T15:14:16.008Z</time>
      </trkpt>
      <trkpt lat="42.98138" lon="2.03893">
        <ele>549.7820032</ele>
        <time>2016-11-01T15:14:19.008Z</time>
      </trkpt>
      <trkpt lat="42.98141" lon="2.03876">
        <ele>547.7820032</ele>
        <time>2016-11-01T15:14:22.008Z</time>
      </trkpt>
      <trkpt lat="42.98149" lon="2.03861">
        <ele>546</ele>
        <time>2016-11-01T15:14:25.008Z</time>
      </trkpt>
      <trkpt lat="42.98143" lon="2.0385">
        <ele>542.7820032</ele>
        <time>2016-11-01T15:14:31.008Z</time>
      </trkpt>
      <trkpt lat="42.98135" lon="2.03842">
        <ele>541</ele>
        <time>2016-11-01T15:14:34.008Z</time>
      </trkpt>
      <trkpt lat="42.98135" lon="2.03828">
        <ele>539</ele>
        <time>2016-11-01T15:14:37.008Z</time>
      </trkpt>
      <trkpt lat="42.9814" lon="2.0381">
        <ele>535</ele>
        <time>2016-11-01T15:14:40.008Z</time>
      </trkpt>
      <trkpt lat="42.98144" lon="2.03797">
        <ele>535</ele>
        <time>2016-11-01T15:14:42.008Z</time>
      </trkpt>
      <trkpt lat="42.98148" lon="2.03784">
        <ele>533.5640064</ele>
        <time>2016-11-01T15:14:44.008Z</time>
      </trkpt>
      <trkpt lat="42.98155" lon="2.03774">
        <ele>531</ele>
        <time>2016-11-01T15:14:46.008Z</time>
      </trkpt>
      <trkpt lat="42.98162" lon="2.03764">
        <ele>529.7820032</ele>
        <time>2016-11-01T15:14:48.008Z</time>
      </trkpt>
      <trkpt lat="42.9817" lon="2.03751">
        <ele>529</ele>
        <time>2016-11-01T15:14:50.008Z</time>
      </trkpt>
      <trkpt lat="42.98177" lon="2.03737">
        <ele>528</ele>
        <time>2016-11-01T15:14:52.008Z</time>
      </trkpt>
      <trkpt lat="42.98184" lon="2.03725">
        <ele>526.7820032</ele>
        <time>2016-11-01T15:14:54.008Z</time>
      </trkpt>
      <trkpt lat="42.98193" lon="2.0371">
        <ele>525.5640064</ele>
        <time>2016-11-01T15:14:57.008Z</time>
      </trkpt>
      <trkpt lat="42.98201" lon="2.03695">
        <ele>521.7820032</ele>
        <time>2016-11-01T15:15:00.008Z</time>
      </trkpt>
      <trkpt lat="42.98209" lon="2.03678">
        <ele>519.7820032</ele>
        <time>2016-11-01T15:15:03.008Z</time>
      </trkpt>
      <trkpt lat="42.98217" lon="2.03663">
        <ele>515.7820032</ele>
        <time>2016-11-01T15:15:05.008Z</time>
      </trkpt>
      <trkpt lat="42.98226" lon="2.03647">
        <ele>513.3460096</ele>
        <time>2016-11-01T15:15:07.008Z</time>
      </trkpt>
      <trkpt lat="42.98236" lon="2.03633">
        <ele>510</ele>
        <time>2016-11-01T15:15:09.008Z</time>
      </trkpt>
      <trkpt lat="42.98246" lon="2.03619">
        <ele>510</ele>
        <time>2016-11-01T15:15:11.008Z</time>
      </trkpt>
      <trkpt lat="42.98256" lon="2.03606">
        <ele>507.7820032</ele>
        <time>2016-11-01T15:15:13.008Z</time>
      </trkpt>
      <trkpt lat="42.98264" lon="2.03592">
        <ele>506</ele>
        <time>2016-11-01T15:15:15.008Z</time>
      </trkpt>
      <trkpt lat="42.98272" lon="2.03583">
        <ele>504.7820032</ele>
        <time>2016-11-01T15:15:17.008Z</time>
      </trkpt>
      <trkpt lat="42.98281" lon="2.03572">
        <ele>503.7820032</ele>
        <time>2016-11-01T15:15:19.008Z</time>
      </trkpt>
      <trkpt lat="42.98291" lon="2.03562">
        <ele>499.78989966901</ele>
        <time>2016-11-01T15:15:22.008Z</time>
      </trkpt>
      <trkpt lat="42.98301" lon="2.03548">
        <ele>498</ele>
        <time>2016-11-01T15:15:26.008Z</time>
      </trkpt>
      <trkpt lat="42.98311" lon="2.03534">
        <ele>494.7820032</ele>
        <time>2016-11-01T15:15:29.008Z</time>
      </trkpt>
      <trkpt lat="42.9832" lon="2.03525">
        <ele>492.5640064</ele>
        <time>2016-11-01T15:15:31.008Z</time>
      </trkpt>
      <trkpt lat="42.98332" lon="2.03514">
        <ele>490.5640064</ele>
        <time>2016-11-01T15:15:33.008Z</time>
      </trkpt>
      <trkpt lat="42.98345" lon="2.03503">
        <ele>488</ele>
        <time>2016-11-01T15:15:35.008Z</time>
      </trkpt>
      <trkpt lat="42.98352" lon="2.03491">
        <ele>486.7820032</ele>
        <time>2016-11-01T15:15:37.008Z</time>
      </trkpt>
      <trkpt lat="42.98357" lon="2.03476">
        <ele>485</ele>
        <time>2016-11-01T15:15:40.008Z</time>
      </trkpt>
      <trkpt lat="42.98362" lon="2.03459">
        <ele>482.7820032</ele>
        <time>2016-11-01T15:15:43.008Z</time>
      </trkpt>
      <trkpt lat="42.98365" lon="2.03445">
        <ele>481</ele>
        <time>2016-11-01T15:15:45.008Z</time>
      </trkpt>
      <trkpt lat="42.98372" lon="2.03427">
        <ele>479.7820032</ele>
        <time>2016-11-01T15:15:48.008Z</time>
      </trkpt>
      <trkpt lat="42.98378" lon="2.03413">
        <ele>477.78989966901</ele>
        <time>2016-11-01T15:15:50.008Z</time>
      </trkpt>
      <trkpt lat="42.98383" lon="2.03399">
        <ele>475.7820032</ele>
        <time>2016-11-01T15:15:52.008Z</time>
      </trkpt>
      <trkpt lat="42.98388" lon="2.03385">
        <ele>473.5640064</ele>
        <time>2016-11-01T15:15:54.008Z</time>
      </trkpt>
      <trkpt lat="42.98394" lon="2.0337">
        <ele>469.7820032</ele>
        <time>2016-11-01T15:15:56.008Z</time>
      </trkpt>
      <trkpt lat="42.98399" lon="2.03354">
        <ele>467</ele>
        <time>2016-11-01T15:15:58.008Z</time>
      </trkpt>
      <trkpt lat="42.98404" lon="2.0334">
        <ele>466.3460096</ele>
        <time>2016-11-01T15:16:00.008Z</time>
      </trkpt>
      <trkpt lat="42.98409" lon="2.03323">
        <ele>461.7820032</ele>
        <time>2016-11-01T15:16:03.008Z</time>
      </trkpt>
      <trkpt lat="42.98406" lon="2.0331">
        <ele>461</ele>
        <time>2016-11-01T15:16:05.008Z</time>
      </trkpt>
      <trkpt lat="42.98401" lon="2.03296">
        <ele>458.7820032</ele>
        <time>2016-11-01T15:16:07.008Z</time>
      </trkpt>
      <trkpt lat="42.98395" lon="2.03281">
        <ele>456.7820032</ele>
        <time>2016-11-01T15:16:09.008Z</time>
      </trkpt>
      <trkpt lat="42.98391" lon="2.03267">
        <ele>455</ele>
        <time>2016-11-01T15:16:11.008Z</time>
      </trkpt>
      <trkpt lat="42.9839" lon="2.0326">
        <ele>454.5640064</ele>
        <time>2016-11-01T15:16:12.008Z</time>
      </trkpt>
      <trkpt lat="42.98388" lon="2.03251">
        <ele>452.7820032</ele>
        <time>2016-11-01T15:16:13.008Z</time>
      </trkpt>
      <trkpt lat="42.98385" lon="2.03243">
        <ele>451.7820032</ele>
        <time>2016-11-01T15:16:14.008Z</time>
      </trkpt>
      <trkpt lat="42.9838" lon="2.03227">
        <ele>449.57979933802</ele>
        <time>2016-11-01T15:16:16.008Z</time>
      </trkpt>
      <trkpt lat="42.98376" lon="2.03211">
        <ele>447.7820032</ele>
        <time>2016-11-01T15:16:18.008Z</time>
      </trkpt>
      <trkpt lat="42.98371" lon="2.03195">
        <ele>445.7820032</ele>
        <time>2016-11-01T15:16:20.008Z</time>
      </trkpt>
      <trkpt lat="42.98365" lon="2.03179">
        <ele>442.7820032</ele>
        <time>2016-11-01T15:16:22.008Z</time>
      </trkpt>
      <trkpt lat="42.98359" lon="2.03164">
        <ele>442</ele>
        <time>2016-11-01T15:16:24.008Z</time>
      </trkpt>
      <trkpt lat="42.98354" lon="2.03148">
        <ele>440.5640064</ele>
        <time>2016-11-01T15:16:26.008Z</time>
      </trkpt>
      <trkpt lat="42.98346" lon="2.03134">
        <ele>438.7820032</ele>
        <time>2016-11-01T15:16:28.008Z</time>
      </trkpt>
      <trkpt lat="42.98339" lon="2.0312">
        <ele>436.7820032</ele>
        <time>2016-11-01T15:16:30.008Z</time>
      </trkpt>
      <trkpt lat="42.98333" lon="2.03104">
        <ele>435.5640064</ele>
        <time>2016-11-01T15:16:32.008Z</time>
      </trkpt>
      <trkpt lat="42.9833" lon="2.03091">
        <ele>432.7820032</ele>
        <time>2016-11-01T15:16:34.008Z</time>
      </trkpt>
      <trkpt lat="42.98328" lon="2.03077">
        <ele>430.7820032</ele>
        <time>2016-11-01T15:16:37.008Z</time>
      </trkpt>
      <trkpt lat="42.98325" lon="2.03066">
        <ele>428.2179968</ele>
        <time>2016-11-01T15:16:44.008Z</time>
      </trkpt>
      <trkpt lat="42.98324" lon="2.03061">
        <ele>428</ele>
        <time>2016-11-01T15:17:06.008Z</time>
      </trkpt>
      <trkpt lat="42.9832" lon="2.03052">
        <ele>427</ele>
        <time>2016-11-01T15:17:13.008Z</time>
      </trkpt>
      <trkpt lat="42.98316" lon="2.03044">
        <ele>427</ele>
        <time>2016-11-01T15:17:17.008Z</time>
      </trkpt>
      <trkpt lat="42.98313" lon="2.03035">
        <ele>427.2179968</ele>
        <time>2016-11-01T15:17:21.008Z</time>
      </trkpt>
      <trkpt lat="42.98311" lon="2.03025">
        <ele>428</ele>
        <time>2016-11-01T15:17:24.008Z</time>
      </trkpt>
      <trkpt lat="42.9831" lon="2.03012">
        <ele>428</ele>
        <time>2016-11-01T15:17:28.008Z</time>
      </trkpt>
      <trkpt lat="42.98311" lon="2.03003">
        <ele>428.4359936</ele>
        <time>2016-11-01T15:17:31.008Z</time>
      </trkpt>
      <trkpt lat="42.98313" lon="2.02993">
        <ele>430</ele>
        <time>2016-11-01T15:17:34.008Z</time>
      </trkpt>
      <trkpt lat="42.98316" lon="2.0298">
        <ele>430</ele>
        <time>2016-11-01T15:17:38.008Z</time>
      </trkpt>
      <trkpt lat="42.98317" lon="2.02966">
        <ele>431</ele>
        <time>2016-11-01T15:17:42.008Z</time>
      </trkpt>
      <trkpt lat="42.98317" lon="2.02952">
        <ele>431</ele>
        <time>2016-11-01T15:17:46.008Z</time>
      </trkpt>
      <trkpt lat="42.98316" lon="2.02938">
        <ele>431</ele>
        <time>2016-11-01T15:17:50.008Z</time>
      </trkpt>
      <trkpt lat="42.98311" lon="2.02924">
        <ele>433</ele>
        <time>2016-11-01T15:17:54.008Z</time>
      </trkpt>
      <trkpt lat="42.98307" lon="2.0291">
        <ele>433</ele>
        <time>2016-11-01T15:17:58.008Z</time>
      </trkpt>
      <trkpt lat="42.98302" lon="2.02894">
        <ele>434</ele>
        <time>2016-11-01T15:18:02.008Z</time>
      </trkpt>
      <trkpt lat="42.983" lon="2.0288">
        <ele>434</ele>
        <time>2016-11-01T15:18:05.008Z</time>
      </trkpt>
      <trkpt lat="42.98295" lon="2.02868">
        <ele>434</ele>
        <time>2016-11-01T15:18:07.008Z</time>
      </trkpt>
      <trkpt lat="42.9829" lon="2.02859">
        <ele>434</ele>
        <time>2016-11-01T15:18:09.008Z</time>
      </trkpt>
      <trkpt lat="42.98281" lon="2.0285">
        <ele>430</ele>
        <time>2016-11-01T15:18:12.008Z</time>
      </trkpt>
      <trkpt lat="42.98278" lon="2.02834">
        <ele>430</ele>
        <time>2016-11-01T15:18:15.008Z</time>
      </trkpt>
      <trkpt lat="42.9828" lon="2.02821">
        <ele>429</ele>
        <time>2016-11-01T15:18:17.008Z</time>
      </trkpt>
      <trkpt lat="42.98281" lon="2.02807">
        <ele>429</ele>
        <time>2016-11-01T15:18:20.008Z</time>
      </trkpt>
      <trkpt lat="42.98287" lon="2.028">
        <ele>426</ele>
        <time>2016-11-01T15:18:24.008Z</time>
      </trkpt>
      <trkpt lat="42.98292" lon="2.02795">
        <ele>427</ele>
        <time>2016-11-01T15:18:27.008Z</time>
      </trkpt>
      <trkpt lat="42.98297" lon="2.02788">
        <ele>427</ele>
        <time>2016-11-01T15:18:30.008Z</time>
      </trkpt>
      <trkpt lat="42.98304" lon="2.0278">
        <ele>427</ele>
        <time>2016-11-01T15:18:33.008Z</time>
      </trkpt>
      <trkpt lat="42.98312" lon="2.0277">
        <ele>427</ele>
        <time>2016-11-01T15:18:37.008Z</time>
      </trkpt>
      <trkpt lat="42.98319" lon="2.02762">
        <ele>427</ele>
        <time>2016-11-01T15:18:40.008Z</time>
      </trkpt>
      <trkpt lat="42.98323" lon="2.02757">
        <ele>429</ele>
        <time>2016-11-01T15:18:42.008Z</time>
      </trkpt>
      <trkpt lat="42.98328" lon="2.02752">
        <ele>429</ele>
        <time>2016-11-01T15:18:44.008Z</time>
      </trkpt>
      <trkpt lat="42.98333" lon="2.02748">
        <ele>429</ele>
        <time>2016-11-01T15:18:46.008Z</time>
      </trkpt>
      <trkpt lat="42.98338" lon="2.02744">
        <ele>429</ele>
        <time>2016-11-01T15:18:48.008Z</time>
      </trkpt>
      <trkpt lat="42.98343" lon="2.0274">
        <ele>429</ele>
        <time>2016-11-01T15:18:50.008Z</time>
      </trkpt>
      <trkpt lat="42.98348" lon="2.02737">
        <ele>430</ele>
        <time>2016-11-01T15:18:52.008Z</time>
      </trkpt>
      <trkpt lat="42.98354" lon="2.02733">
        <ele>430</ele>
        <time>2016-11-01T15:18:54.008Z</time>
      </trkpt>
      <trkpt lat="42.98359" lon="2.0273">
        <ele>430</ele>
        <time>2016-11-01T15:18:56.008Z</time>
      </trkpt>
      <trkpt lat="42.98367" lon="2.02724">
        <ele>430</ele>
        <time>2016-11-01T15:18:59.008Z</time>
      </trkpt>
      <trkpt lat="42.98373" lon="2.02721">
        <ele>430.4359936</ele>
        <time>2016-11-01T15:19:01.008Z</time>
      </trkpt>
      <trkpt lat="42.98379" lon="2.02717">
        <ele>432</ele>
        <time>2016-11-01T15:19:03.008Z</time>
      </trkpt>
      <trkpt lat="42.98385" lon="2.02712">
        <ele>432</ele>
        <time>2016-11-01T15:19:05.008Z</time>
      </trkpt>
      <trkpt lat="42.98391" lon="2.02708">
        <ele>432</ele>
        <time>2016-11-01T15:19:07.008Z</time>
      </trkpt>
      <trkpt lat="42.98397" lon="2.02705">
        <ele>432</ele>
        <time>2016-11-01T15:19:09.008Z</time>
      </trkpt>
      <trkpt lat="42.98403" lon="2.02701">
        <ele>432.4359936</ele>
        <time>2016-11-01T15:19:11.008Z</time>
      </trkpt>
      <trkpt lat="42.98409" lon="2.02697">
        <ele>434</ele>
        <time>2016-11-01T15:19:13.008Z</time>
      </trkpt>
      <trkpt lat="42.98416" lon="2.02693">
        <ele>434</ele>
        <time>2016-11-01T15:19:15.008Z</time>
      </trkpt>
      <trkpt lat="42.98422" lon="2.02689">
        <ele>434</ele>
        <time>2016-11-01T15:19:17.008Z</time>
      </trkpt>
      <trkpt lat="42.98428" lon="2.02685">
        <ele>434</ele>
        <time>2016-11-01T15:19:19.008Z</time>
      </trkpt>
      <trkpt lat="42.98434" lon="2.02681">
        <ele>434.2179968</ele>
        <time>2016-11-01T15:19:21.008Z</time>
      </trkpt>
      <trkpt lat="42.9844" lon="2.02678">
        <ele>435</ele>
        <time>2016-11-01T15:19:23.008Z</time>
      </trkpt>
      <trkpt lat="42.98446" lon="2.02674">
        <ele>435</ele>
        <time>2016-11-01T15:19:25.008Z</time>
      </trkpt>
      <trkpt lat="42.98452" lon="2.0267">
        <ele>435</ele>
        <time>2016-11-01T15:19:27.008Z</time>
      </trkpt>
      <trkpt lat="42.98458" lon="2.02666">
        <ele>435</ele>
        <time>2016-11-01T15:19:29.008Z</time>
      </trkpt>
      <trkpt lat="42.98464" lon="2.02661">
        <ele>435</ele>
        <time>2016-11-01T15:19:31.008Z</time>
      </trkpt>
      <trkpt lat="42.98467" lon="2.02659">
        <ele>435</ele>
        <time>2016-11-01T15:19:32.008Z</time>
      </trkpt>
      <trkpt lat="42.9847" lon="2.02656">
        <ele>435</ele>
        <time>2016-11-01T15:19:33.008Z</time>
      </trkpt>
      <trkpt lat="42.98473" lon="2.02654">
        <ele>435</ele>
        <time>2016-11-01T15:19:34.008Z</time>
      </trkpt>
      <trkpt lat="42.98478" lon="2.02649">
        <ele>435</ele>
        <time>2016-11-01T15:19:36.008Z</time>
      </trkpt>
      <trkpt lat="42.98482" lon="2.02646">
        <ele>435</ele>
        <time>2016-11-01T15:19:38.008Z</time>
      </trkpt>
      <trkpt lat="42.98485" lon="2.02644">
        <ele>435</ele>
        <time>2016-11-01T15:20:53.008Z</time>
      </trkpt>
      <trkpt lat="42.98489" lon="2.02643">
        <ele>435</ele>
        <time>2016-11-01T15:20:55.008Z</time>
      </trkpt>
      <trkpt lat="42.98493" lon="2.02641">
        <ele>435</ele>
        <time>2016-11-01T15:20:57.008Z</time>
      </trkpt>
      <trkpt lat="42.98496" lon="2.0264">
        <ele>435</ele>
        <time>2016-11-01T15:20:58.008Z</time>
      </trkpt>
      <trkpt lat="42.98499" lon="2.02639">
        <ele>435</ele>
        <time>2016-11-01T15:20:59.008Z</time>
      </trkpt>
      <trkpt lat="42.98503" lon="2.02637">
        <ele>435</ele>
        <time>2016-11-01T15:21:00.008Z</time>
      </trkpt>
      <trkpt lat="42.9851" lon="2.02631">
        <ele>434</ele>
        <time>2016-11-01T15:21:02.008Z</time>
      </trkpt>
      <trkpt lat="42.98517" lon="2.02622">
        <ele>434</ele>
        <time>2016-11-01T15:21:04.008Z</time>
      </trkpt>
      <trkpt lat="42.98525" lon="2.02612">
        <ele>434</ele>
        <time>2016-11-01T15:21:06.008Z</time>
      </trkpt>
      <trkpt lat="42.98533" lon="2.026">
        <ele>434</ele>
        <time>2016-11-01T15:21:08.008Z</time>
      </trkpt>
      <trkpt lat="42.98541" lon="2.02587">
        <ele>434</ele>
        <time>2016-11-01T15:21:10.008Z</time>
      </trkpt>
      <trkpt lat="42.98549" lon="2.02573">
        <ele>432</ele>
        <time>2016-11-01T15:21:12.008Z</time>
      </trkpt>
      <trkpt lat="42.98553" lon="2.02566">
        <ele>432</ele>
        <time>2016-11-01T15:21:13.008Z</time>
      </trkpt>
      <trkpt lat="42.98557" lon="2.02559">
        <ele>432</ele>
        <time>2016-11-01T15:21:14.008Z</time>
      </trkpt>
      <trkpt lat="42.98561" lon="2.02551">
        <ele>432</ele>
        <time>2016-11-01T15:21:15.008Z</time>
      </trkpt>
      <trkpt lat="42.98564" lon="2.02543">
        <ele>432</ele>
        <time>2016-11-01T15:21:16.008Z</time>
      </trkpt>
      <trkpt lat="42.98568" lon="2.02535">
        <ele>432</ele>
        <time>2016-11-01T15:21:17.008Z</time>
      </trkpt>
      <trkpt lat="42.98573" lon="2.02526">
        <ele>432</ele>
        <time>2016-11-01T15:21:18.008Z</time>
      </trkpt>
      <trkpt lat="42.98577" lon="2.02518">
        <ele>432</ele>
        <time>2016-11-01T15:21:19.008Z</time>
      </trkpt>
      <trkpt lat="42.98581" lon="2.02508">
        <ele>432</ele>
        <time>2016-11-01T15:21:20.008Z</time>
      </trkpt>
      <trkpt lat="42.98585" lon="2.02499">
        <ele>431.5640064</ele>
        <time>2016-11-01T15:21:21.008Z</time>
      </trkpt>
      <trkpt lat="42.98588" lon="2.02488">
        <ele>430</ele>
        <time>2016-11-01T15:21:22.008Z</time>
      </trkpt>
      <trkpt lat="42.98592" lon="2.02478">
        <ele>430</ele>
        <time>2016-11-01T15:21:23.008Z</time>
      </trkpt>
      <trkpt lat="42.98596" lon="2.02467">
        <ele>430</ele>
        <time>2016-11-01T15:21:24.008Z</time>
      </trkpt>
      <trkpt lat="42.98599" lon="2.02456">
        <ele>430</ele>
        <time>2016-11-01T15:21:25.008Z</time>
      </trkpt>
      <trkpt lat="42.98602" lon="2.02445">
        <ele>429.15959867604</ele>
        <time>2016-11-01T15:21:26.008Z</time>
      </trkpt>
      <trkpt lat="42.98605" lon="2.02433">
        <ele>426</ele>
        <time>2016-11-01T15:21:27.008Z</time>
      </trkpt>
      <trkpt lat="42.98608" lon="2.02421">
        <ele>426</ele>
        <time>2016-11-01T15:21:28.008Z</time>
      </trkpt>
      <trkpt lat="42.98611" lon="2.02409">
        <ele>426</ele>
        <time>2016-11-01T15:21:29.008Z</time>
      </trkpt>
      <trkpt lat="42.98614" lon="2.02397">
        <ele>426</ele>
        <time>2016-11-01T15:21:30.008Z</time>
      </trkpt>
      <trkpt lat="42.98617" lon="2.02385">
        <ele>425.5640064</ele>
        <time>2016-11-01T15:21:31.008Z</time>
      </trkpt>
      <trkpt lat="42.9862" lon="2.02373">
        <ele>423.7820032</ele>
        <time>2016-11-01T15:21:32.008Z</time>
      </trkpt>
      <trkpt lat="42.98623" lon="2.02361">
        <ele>423</ele>
        <time>2016-11-01T15:21:33.008Z</time>
      </trkpt>
      <trkpt lat="42.98627" lon="2.02349">
        <ele>423</ele>
        <time>2016-11-01T15:21:34.008Z</time>
      </trkpt>
      <trkpt lat="42.98631" lon="2.02338">
        <ele>422.7820032</ele>
        <time>2016-11-01T15:21:35.008Z</time>
      </trkpt>
      <trkpt lat="42.98635" lon="2.02327">
        <ele>422</ele>
        <time>2016-11-01T15:21:36.008Z</time>
      </trkpt>
      <trkpt lat="42.98639" lon="2.02316">
        <ele>422</ele>
        <time>2016-11-01T15:21:37.008Z</time>
      </trkpt>
      <trkpt lat="42.98643" lon="2.02304">
        <ele>421.7820032</ele>
        <time>2016-11-01T15:21:38.008Z</time>
      </trkpt>
      <trkpt lat="42.98647" lon="2.02293">
        <ele>421</ele>
        <time>2016-11-01T15:21:39.008Z</time>
      </trkpt>
      <trkpt lat="42.98651" lon="2.02282">
        <ele>421</ele>
        <time>2016-11-01T15:21:40.008Z</time>
      </trkpt>
      <trkpt lat="42.98656" lon="2.02271">
        <ele>420.7820032</ele>
        <time>2016-11-01T15:21:41.008Z</time>
      </trkpt>
      <trkpt lat="42.9866" lon="2.0226">
        <ele>420</ele>
        <time>2016-11-01T15:21:42.008Z</time>
      </trkpt>
      <trkpt lat="42.98664" lon="2.02249">
        <ele>420</ele>
        <time>2016-11-01T15:21:43.008Z</time>
      </trkpt>
      <trkpt lat="42.98668" lon="2.02239">
        <ele>420</ele>
        <time>2016-11-01T15:21:44.008Z</time>
      </trkpt>
      <trkpt lat="42.98672" lon="2.02228">
        <ele>420</ele>
        <time>2016-11-01T15:21:45.008Z</time>
      </trkpt>
      <trkpt lat="42.98675" lon="2.02216">
        <ele>419.5640064</ele>
        <time>2016-11-01T15:21:46.008Z</time>
      </trkpt>
      <trkpt lat="42.98679" lon="2.02205">
        <ele>418</ele>
        <time>2016-11-01T15:21:47.008Z</time>
      </trkpt>
      <trkpt lat="42.98682" lon="2.02194">
        <ele>418</ele>
        <time>2016-11-01T15:21:48.008Z</time>
      </trkpt>
      <trkpt lat="42.98685" lon="2.02182">
        <ele>418</ele>
        <time>2016-11-01T15:21:49.008Z</time>
      </trkpt>
      <trkpt lat="42.98688" lon="2.02171">
        <ele>418</ele>
        <time>2016-11-01T15:21:50.008Z</time>
      </trkpt>
      <trkpt lat="42.98691" lon="2.02159">
        <ele>417.5640064</ele>
        <time>2016-11-01T15:21:51.008Z</time>
      </trkpt>
      <trkpt lat="42.98695" lon="2.02148">
        <ele>416</ele>
        <time>2016-11-01T15:21:52.008Z</time>
      </trkpt>
      <trkpt lat="42.98698" lon="2.02136">
        <ele>416</ele>
        <time>2016-11-01T15:21:53.008Z</time>
      </trkpt>
      <trkpt lat="42.98701" lon="2.02125">
        <ele>416</ele>
        <time>2016-11-01T15:21:54.008Z</time>
      </trkpt>
      <trkpt lat="42.98704" lon="2.02113">
        <ele>416</ele>
        <time>2016-11-01T15:21:55.008Z</time>
      </trkpt>
      <trkpt lat="42.98706" lon="2.02102">
        <ele>415.7820032</ele>
        <time>2016-11-01T15:21:56.008Z</time>
      </trkpt>
      <trkpt lat="42.98708" lon="2.0209">
        <ele>415</ele>
        <time>2016-11-01T15:21:57.008Z</time>
      </trkpt>
      <trkpt lat="42.9871" lon="2.02078">
        <ele>415</ele>
        <time>2016-11-01T15:21:58.008Z</time>
      </trkpt>
      <trkpt lat="42.98712" lon="2.02066">
        <ele>415</ele>
        <time>2016-11-01T15:21:59.008Z</time>
      </trkpt>
      <trkpt lat="42.98713" lon="2.02053">
        <ele>415</ele>
        <time>2016-11-01T15:22:00.008Z</time>
      </trkpt>
      <trkpt lat="42.98715" lon="2.02041">
        <ele>414.5640064</ele>
        <time>2016-11-01T15:22:01.008Z</time>
      </trkpt>
      <trkpt lat="42.98718" lon="2.02028">
        <ele>413</ele>
        <time>2016-11-01T15:22:02.008Z</time>
      </trkpt>
      <trkpt lat="42.98721" lon="2.02016">
        <ele>413</ele>
        <time>2016-11-01T15:22:03.008Z</time>
      </trkpt>
      <trkpt lat="42.98724" lon="2.02003">
        <ele>413</ele>
        <time>2016-11-01T15:22:04.008Z</time>
      </trkpt>
      <trkpt lat="42.98728" lon="2.0199">
        <ele>413</ele>
        <time>2016-11-01T15:22:05.008Z</time>
      </trkpt>
      <trkpt lat="42.98732" lon="2.01977">
        <ele>412.5640064</ele>
        <time>2016-11-01T15:22:06.008Z</time>
      </trkpt>
      <trkpt lat="42.98736" lon="2.01965">
        <ele>411</ele>
        <time>2016-11-01T15:22:07.008Z</time>
      </trkpt>
      <trkpt lat="42.9874" lon="2.01952">
        <ele>411</ele>
        <time>2016-11-01T15:22:08.008Z</time>
      </trkpt>
      <trkpt lat="42.98743" lon="2.01939">
        <ele>411</ele>
        <time>2016-11-01T15:22:09.008Z</time>
      </trkpt>
      <trkpt lat="42.98747" lon="2.01926">
        <ele>411</ele>
        <time>2016-11-01T15:22:10.008Z</time>
      </trkpt>
      <trkpt lat="42.98751" lon="2.01914">
        <ele>410.5640064</ele>
        <time>2016-11-01T15:22:11.008Z</time>
      </trkpt>
      <trkpt lat="42.98754" lon="2.01901">
        <ele>409</ele>
        <time>2016-11-01T15:22:12.008Z</time>
      </trkpt>
      <trkpt lat="42.98756" lon="2.01889">
        <ele>409</ele>
        <time>2016-11-01T15:22:13.008Z</time>
      </trkpt>
      <trkpt lat="42.98757" lon="2.01877">
        <ele>409</ele>
        <time>2016-11-01T15:22:14.008Z</time>
      </trkpt>
      <trkpt lat="42.98757" lon="2.01865">
        <ele>409</ele>
        <time>2016-11-01T15:22:15.008Z</time>
      </trkpt>
      <trkpt lat="42.98758" lon="2.01854">
        <ele>408.7820032</ele>
        <time>2016-11-01T15:22:16.008Z</time>
      </trkpt>
      <trkpt lat="42.98757" lon="2.01843">
        <ele>408</ele>
        <time>2016-11-01T15:22:17.008Z</time>
      </trkpt>
      <trkpt lat="42.98757" lon="2.01832">
        <ele>408</ele>
        <time>2016-11-01T15:22:18.008Z</time>
      </trkpt>
      <trkpt lat="42.98756" lon="2.01821">
        <ele>408</ele>
        <time>2016-11-01T15:22:19.008Z</time>
      </trkpt>
      <trkpt lat="42.98755" lon="2.01811">
        <ele>408</ele>
        <time>2016-11-01T15:22:20.008Z</time>
      </trkpt>
      <trkpt lat="42.98754" lon="2.01801">
        <ele>408</ele>
        <time>2016-11-01T15:22:21.008Z</time>
      </trkpt>
      <trkpt lat="42.98753" lon="2.01791">
        <ele>408</ele>
        <time>2016-11-01T15:22:22.008Z</time>
      </trkpt>
      <trkpt lat="42.98752" lon="2.01781">
        <ele>408</ele>
        <time>2016-11-01T15:22:23.008Z</time>
      </trkpt>
      <trkpt lat="42.98752" lon="2.01772">
        <ele>408</ele>
        <time>2016-11-01T15:22:24.008Z</time>
      </trkpt>
      <trkpt lat="42.98751" lon="2.01754">
        <ele>407</ele>
        <time>2016-11-01T15:22:26.008Z</time>
      </trkpt>
      <trkpt lat="42.9875" lon="2.01746">
        <ele>407</ele>
        <time>2016-11-01T15:22:27.008Z</time>
      </trkpt>
      <trkpt lat="42.9875" lon="2.01738">
        <ele>407</ele>
        <time>2016-11-01T15:22:28.008Z</time>
      </trkpt>
      <trkpt lat="42.98749" lon="2.01724">
        <ele>407</ele>
        <time>2016-11-01T15:22:30.008Z</time>
      </trkpt>
      <trkpt lat="42.98748" lon="2.01714">
        <ele>406.7820032</ele>
        <time>2016-11-01T15:22:32.008Z</time>
      </trkpt>
      <trkpt lat="42.98754" lon="2.01717">
        <ele>406</ele>
        <time>2016-11-01T15:22:36.008Z</time>
      </trkpt>
      <trkpt lat="42.98754" lon="2.01728">
        <ele>406</ele>
        <time>2016-11-01T15:22:39.008Z</time>
      </trkpt>
      <trkpt lat="42.98757" lon="2.01744">
        <ele>407</ele>
        <time>2016-11-01T15:22:43.008Z</time>
      </trkpt>
      <trkpt lat="42.98759" lon="2.01755">
        <ele>407</ele>
        <time>2016-11-01T15:22:46.008Z</time>
      </trkpt>
      <trkpt lat="42.98761" lon="2.01765">
        <ele>407</ele>
        <time>2016-11-01T15:22:49.008Z</time>
      </trkpt>
      <trkpt lat="42.98762" lon="2.01774">
        <ele>410</ele>
        <time>2016-11-01T15:22:52.008Z</time>
      </trkpt>
      <trkpt lat="42.98763" lon="2.01786">
        <ele>409.6539904</ele>
        <time>2016-11-01T15:22:56.008Z</time>
      </trkpt>
      <trkpt lat="42.98765" lon="2.01799">
        <ele>412</ele>
        <time>2016-11-01T15:23:00.008Z</time>
      </trkpt>
      <trkpt lat="42.98768" lon="2.01809">
        <ele>413</ele>
        <time>2016-11-01T15:23:03.008Z</time>
      </trkpt>
      <trkpt lat="42.98772" lon="2.01821">
        <ele>414</ele>
        <time>2016-11-01T15:23:07.008Z</time>
      </trkpt>
      <trkpt lat="42.98776" lon="2.0183">
        <ele>414</ele>
        <time>2016-11-01T15:23:10.008Z</time>
      </trkpt>
      <trkpt lat="42.98782" lon="2.01839">
        <ele>415</ele>
        <time>2016-11-01T15:23:14.008Z</time>
      </trkpt>
      <trkpt lat="42.98791" lon="2.01849">
        <ele>417</ele>
        <time>2016-11-01T15:23:19.008Z</time>
      </trkpt>
      <trkpt lat="42.98801" lon="2.01855">
        <ele>418</ele>
        <time>2016-11-01T15:23:23.008Z</time>
      </trkpt>
      <trkpt lat="42.98812" lon="2.01859">
        <ele>418</ele>
        <time>2016-11-01T15:23:27.008Z</time>
      </trkpt>
      <trkpt lat="42.98824" lon="2.01862">
        <ele>418</ele>
        <time>2016-11-01T15:23:31.008Z</time>
      </trkpt>
      <trkpt lat="42.98838" lon="2.01864">
        <ele>418</ele>
        <time>2016-11-01T15:23:35.008Z</time>
      </trkpt>
      <trkpt lat="42.98852" lon="2.01863">
        <ele>418</ele>
        <time>2016-11-01T15:23:38.008Z</time>
      </trkpt>
      <trkpt lat="42.98865" lon="2.0187">
        <ele>417.5640064</ele>
        <time>2016-11-01T15:23:41.008Z</time>
      </trkpt>
      <trkpt lat="42.98875" lon="2.01877">
        <ele>416</ele>
        <time>2016-11-01T15:23:43.008Z</time>
      </trkpt>
      <trkpt lat="42.98887" lon="2.01883">
        <ele>416</ele>
        <time>2016-11-01T15:23:45.008Z</time>
      </trkpt>
      <trkpt lat="42.98898" lon="2.01888">
        <ele>416</ele>
        <time>2016-11-01T15:23:47.008Z</time>
      </trkpt>
      <trkpt lat="42.98909" lon="2.01893">
        <ele>416</ele>
        <time>2016-11-01T15:23:49.008Z</time>
      </trkpt>
      <trkpt lat="42.98919" lon="2.01898">
        <ele>415.7820032</ele>
        <time>2016-11-01T15:23:51.008Z</time>
      </trkpt>
      <trkpt lat="42.98932" lon="2.01904">
        <ele>415</ele>
        <time>2016-11-01T15:23:54.008Z</time>
      </trkpt>
      <trkpt lat="42.98941" lon="2.01909">
        <ele>415</ele>
        <time>2016-11-01T15:23:56.008Z</time>
      </trkpt>
      <trkpt lat="42.98948" lon="2.01914">
        <ele>415</ele>
        <time>2016-11-01T15:23:58.008Z</time>
      </trkpt>
      <trkpt lat="42.98955" lon="2.01919">
        <ele>415</ele>
        <time>2016-11-01T15:24:00.008Z</time>
      </trkpt>
      <trkpt lat="42.98962" lon="2.01924">
        <ele>416</ele>
        <time>2016-11-01T15:24:02.008Z</time>
      </trkpt>
      <trkpt lat="42.98971" lon="2.01932">
        <ele>416</ele>
        <time>2016-11-01T15:24:05.008Z</time>
      </trkpt>
      <trkpt lat="42.98982" lon="2.01939">
        <ele>416</ele>
        <time>2016-11-01T15:24:09.008Z</time>
      </trkpt>
      <trkpt lat="42.98991" lon="2.0195">
        <ele>416</ele>
        <time>2016-11-01T15:24:13.008Z</time>
      </trkpt>
      <trkpt lat="42.98999" lon="2.01962">
        <ele>416</ele>
        <time>2016-11-01T15:24:17.008Z</time>
      </trkpt>
      <trkpt lat="42.99004" lon="2.01973">
        <ele>416</ele>
        <time>2016-11-01T15:24:20.008Z</time>
      </trkpt>
      <trkpt lat="42.99007" lon="2.01982">
        <ele>418</ele>
        <time>2016-11-01T15:24:22.008Z</time>
      </trkpt>
      <trkpt lat="42.99009" lon="2.01986">
        <ele>418</ele>
        <time>2016-11-01T15:24:23.008Z</time>
      </trkpt>
      <trkpt lat="42.9901" lon="2.01991">
        <ele>418</ele>
        <time>2016-11-01T15:24:24.008Z</time>
      </trkpt>
      <trkpt lat="42.99013" lon="2.02002">
        <ele>418</ele>
        <time>2016-11-01T15:24:26.008Z</time>
      </trkpt>
      <trkpt lat="42.99015" lon="2.02008">
        <ele>418</ele>
        <time>2016-11-01T15:24:27.008Z</time>
      </trkpt>
      <trkpt lat="42.99019" lon="2.02022">
        <ele>418</ele>
        <time>2016-11-01T15:24:29.008Z</time>
      </trkpt>
      <trkpt lat="42.99022" lon="2.02029">
        <ele>418</ele>
        <time>2016-11-01T15:24:30.008Z</time>
      </trkpt>
      <trkpt lat="42.99025" lon="2.02035">
        <ele>417.5640064</ele>
        <time>2016-11-01T15:24:31.008Z</time>
      </trkpt>
      <trkpt lat="42.99029" lon="2.02041">
        <ele>416</ele>
        <time>2016-11-01T15:24:32.008Z</time>
      </trkpt>
      <trkpt lat="42.99033" lon="2.02047">
        <ele>416</ele>
        <time>2016-11-01T15:24:33.008Z</time>
      </trkpt>
      <trkpt lat="42.9904" lon="2.02059">
        <ele>416</ele>
        <time>2016-11-01T15:24:35.008Z</time>
      </trkpt>
      <trkpt lat="42.99048" lon="2.02071">
        <ele>416</ele>
        <time>2016-11-01T15:24:37.008Z</time>
      </trkpt>
      <trkpt lat="42.99057" lon="2.02081">
        <ele>416</ele>
        <time>2016-11-01T15:24:39.008Z</time>
      </trkpt>
      <trkpt lat="42.99066" lon="2.02089">
        <ele>415.7820032</ele>
        <time>2016-11-01T15:24:41.008Z</time>
      </trkpt>
      <trkpt lat="42.99075" lon="2.02096">
        <ele>415</ele>
        <time>2016-11-01T15:24:43.008Z</time>
      </trkpt>
      <trkpt lat="42.99082" lon="2.02105">
        <ele>415</ele>
        <time>2016-11-01T15:24:45.008Z</time>
      </trkpt>
      <trkpt lat="42.99089" lon="2.02115">
        <ele>415</ele>
        <time>2016-11-01T15:24:47.008Z</time>
      </trkpt>
      <trkpt lat="42.99094" lon="2.02125">
        <ele>415</ele>
        <time>2016-11-01T15:24:49.008Z</time>
      </trkpt>
      <trkpt lat="42.991" lon="2.02135">
        <ele>415</ele>
        <time>2016-11-01T15:24:51.008Z</time>
      </trkpt>
      <trkpt lat="42.99109" lon="2.02148">
        <ele>415</ele>
        <time>2016-11-01T15:24:54.008Z</time>
      </trkpt>
      <trkpt lat="42.99116" lon="2.02155">
        <ele>415</ele>
        <time>2016-11-01T15:24:56.008Z</time>
      </trkpt>
      <trkpt lat="42.99126" lon="2.02165">
        <ele>415</ele>
        <time>2016-11-01T15:24:59.008Z</time>
      </trkpt>
      <trkpt lat="42.99134" lon="2.02173">
        <ele>416</ele>
        <time>2016-11-01T15:25:02.008Z</time>
      </trkpt>
      <trkpt lat="42.99141" lon="2.02181">
        <ele>416</ele>
        <time>2016-11-01T15:25:05.008Z</time>
      </trkpt>
      <trkpt lat="42.99151" lon="2.0219">
        <ele>416</ele>
        <time>2016-11-01T15:25:09.008Z</time>
      </trkpt>
      <trkpt lat="42.9916" lon="2.02197">
        <ele>418</ele>
        <time>2016-11-01T15:25:12.008Z</time>
      </trkpt>
      <trkpt lat="42.99174" lon="2.02204">
        <ele>418</ele>
        <time>2016-11-01T15:25:15.008Z</time>
      </trkpt>
      <trkpt lat="42.99185" lon="2.02208">
        <ele>418</ele>
        <time>2016-11-01T15:25:17.008Z</time>
      </trkpt>
      <trkpt lat="42.99194" lon="2.02214">
        <ele>418</ele>
        <time>2016-11-01T15:25:19.008Z</time>
      </trkpt>
      <trkpt lat="42.99206" lon="2.02224">
        <ele>418</ele>
        <time>2016-11-01T15:25:22.008Z</time>
      </trkpt>
      <trkpt lat="42.99215" lon="2.02235">
        <ele>418</ele>
        <time>2016-11-01T15:25:25.008Z</time>
      </trkpt>
      <trkpt lat="42.9922" lon="2.02248">
        <ele>418</ele>
        <time>2016-11-01T15:25:28.008Z</time>
      </trkpt>
      <trkpt lat="42.99225" lon="2.0226">
        <ele>418.4359936</ele>
        <time>2016-11-01T15:25:31.008Z</time>
      </trkpt>
      <trkpt lat="42.9923" lon="2.02273">
        <ele>420</ele>
        <time>2016-11-01T15:25:34.008Z</time>
      </trkpt>
      <trkpt lat="42.99234" lon="2.02287">
        <ele>420</ele>
        <time>2016-11-01T15:25:37.008Z</time>
      </trkpt>
      <trkpt lat="42.99238" lon="2.023">
        <ele>420</ele>
        <time>2016-11-01T15:25:40.008Z</time>
      </trkpt>
      <trkpt lat="42.99244" lon="2.02312">
        <ele>421</ele>
        <time>2016-11-01T15:25:43.008Z</time>
      </trkpt>
      <trkpt lat="42.99249" lon="2.02325">
        <ele>421</ele>
        <time>2016-11-01T15:25:46.008Z</time>
      </trkpt>
      <trkpt lat="42.99254" lon="2.02338">
        <ele>421</ele>
        <time>2016-11-01T15:25:49.008Z</time>
      </trkpt>
      <trkpt lat="42.99258" lon="2.02347">
        <ele>421.2179968</ele>
        <time>2016-11-01T15:25:51.008Z</time>
      </trkpt>
      <trkpt lat="42.99264" lon="2.02361">
        <ele>422</ele>
        <time>2016-11-01T15:25:54.008Z</time>
      </trkpt>
      <trkpt lat="42.99274" lon="2.02373">
        <ele>422</ele>
        <time>2016-11-01T15:25:57.008Z</time>
      </trkpt>
      <trkpt lat="42.99275" lon="2.02387">
        <ele>422</ele>
        <time>2016-11-01T15:26:00.008Z</time>
      </trkpt>
      <trkpt lat="42.99278" lon="2.02402">
        <ele>422</ele>
        <time>2016-11-01T15:26:04.008Z</time>
      </trkpt>
      <trkpt lat="42.99282" lon="2.02415">
        <ele>422</ele>
        <time>2016-11-01T15:26:09.008Z</time>
      </trkpt>
      <trkpt lat="42.99285" lon="2.0243">
        <ele>424</ele>
        <time>2016-11-01T15:26:13.008Z</time>
      </trkpt>
      <trkpt lat="42.99288" lon="2.02444">
        <ele>424</ele>
        <time>2016-11-01T15:26:17.008Z</time>
      </trkpt>
      <trkpt lat="42.9929" lon="2.0246">
        <ele>424.6539904</ele>
        <time>2016-11-01T15:26:21.008Z</time>
      </trkpt>
      <trkpt lat="42.99293" lon="2.02473">
        <ele>427</ele>
        <time>2016-11-01T15:26:25.008Z</time>
      </trkpt>
      <trkpt lat="42.99294" lon="2.02486">
        <ele>430</ele>
        <time>2016-11-01T15:26:28.008Z</time>
      </trkpt>
      <trkpt lat="42.99297" lon="2.02501">
        <ele>431</ele>
        <time>2016-11-01T15:26:32.008Z</time>
      </trkpt>
      <trkpt lat="42.99301" lon="2.02512">
        <ele>431</ele>
        <time>2016-11-01T15:26:35.008Z</time>
      </trkpt>
      <trkpt lat="42.99306" lon="2.02522">
        <ele>431</ele>
        <time>2016-11-01T15:26:38.008Z</time>
      </trkpt>
      <trkpt lat="42.99313" lon="2.02533">
        <ele>432</ele>
        <time>2016-11-01T15:26:42.008Z</time>
      </trkpt>
      <trkpt lat="42.9932" lon="2.02541">
        <ele>432</ele>
        <time>2016-11-01T15:26:45.008Z</time>
      </trkpt>
      <trkpt lat="42.99325" lon="2.02545">
        <ele>432</ele>
        <time>2016-11-01T15:26:47.008Z</time>
      </trkpt>
      <trkpt lat="42.9933" lon="2.0255">
        <ele>432</ele>
        <time>2016-11-01T15:26:49.008Z</time>
      </trkpt>
      <trkpt lat="42.99336" lon="2.02553">
        <ele>432.2179968</ele>
        <time>2016-11-01T15:26:51.008Z</time>
      </trkpt>
      <trkpt lat="42.99341" lon="2.02557">
        <ele>433</ele>
        <time>2016-11-01T15:26:53.008Z</time>
      </trkpt>
      <trkpt lat="42.99347" lon="2.02564">
        <ele>433</ele>
        <time>2016-11-01T15:26:56.008Z</time>
      </trkpt>
      <trkpt lat="42.99352" lon="2.02572">
        <ele>433</ele>
        <time>2016-11-01T15:26:59.008Z</time>
      </trkpt>
      <trkpt lat="42.9936" lon="2.02581">
        <ele>435</ele>
        <time>2016-11-01T15:27:02.008Z</time>
      </trkpt>
      <trkpt lat="42.99368" lon="2.02588">
        <ele>435</ele>
        <time>2016-11-01T15:27:05.008Z</time>
      </trkpt>
      <trkpt lat="42.99378" lon="2.02594">
        <ele>435</ele>
        <time>2016-11-01T15:27:08.008Z</time>
      </trkpt>
      <trkpt lat="42.99384" lon="2.02607">
        <ele>435</ele>
        <time>2016-11-01T15:27:11.008Z</time>
      </trkpt>
      <trkpt lat="42.99387" lon="2.0262">
        <ele>435</ele>
        <time>2016-11-01T15:27:13.008Z</time>
      </trkpt>
      <trkpt lat="42.99386" lon="2.02637">
        <ele>435</ele>
        <time>2016-11-01T15:27:15.008Z</time>
      </trkpt>
      <trkpt lat="42.99387" lon="2.02653">
        <ele>435</ele>
        <time>2016-11-01T15:27:17.008Z</time>
      </trkpt>
      <trkpt lat="42.99388" lon="2.02672">
        <ele>435</ele>
        <time>2016-11-01T15:27:19.008Z</time>
      </trkpt>
      <trkpt lat="42.99389" lon="2.0269">
        <ele>433.910016</ele>
        <time>2016-11-01T15:27:21.008Z</time>
      </trkpt>
      <trkpt lat="42.99392" lon="2.0271">
        <ele>427</ele>
        <time>2016-11-01T15:27:24.008Z</time>
      </trkpt>
      <trkpt lat="42.99395" lon="2.02725">
        <ele>428</ele>
        <time>2016-11-01T15:27:27.008Z</time>
      </trkpt>
      <trkpt lat="42.994" lon="2.02738">
        <ele>430.2179968</ele>
        <time>2016-11-01T15:27:31.008Z</time>
      </trkpt>
      <trkpt lat="42.99405" lon="2.02753">
        <ele>431</ele>
        <time>2016-11-01T15:27:37.008Z</time>
      </trkpt>
      <trkpt lat="42.99408" lon="2.02766">
        <ele>432</ele>
        <time>2016-11-01T15:27:42.008Z</time>
      </trkpt>
      <trkpt lat="42.99414" lon="2.02775">
        <ele>432</ele>
        <time>2016-11-01T15:27:48.008Z</time>
      </trkpt>
      <trkpt lat="42.99413" lon="2.02791">
        <ele>436</ele>
        <time>2016-11-01T15:28:17.008Z</time>
      </trkpt>
      <trkpt lat="42.99407" lon="2.02804">
        <ele>438</ele>
        <time>2016-11-01T15:28:23.008Z</time>
      </trkpt>
      <trkpt lat="42.99399" lon="2.02815">
        <ele>438</ele>
        <time>2016-11-01T15:28:29.008Z</time>
      </trkpt>
      <trkpt lat="42.99394" lon="2.02827">
        <ele>441</ele>
        <time>2016-11-01T15:28:34.008Z</time>
      </trkpt>
      <trkpt lat="42.99391" lon="2.0284">
        <ele>443</ele>
        <time>2016-11-01T15:28:39.008Z</time>
      </trkpt>
      <trkpt lat="42.99387" lon="2.02856">
        <ele>445</ele>
        <time>2016-11-01T15:28:45.008Z</time>
      </trkpt>
      <trkpt lat="42.99383" lon="2.0287">
        <ele>446</ele>
        <time>2016-11-01T15:28:49.008Z</time>
      </trkpt>
      <trkpt lat="42.99376" lon="2.02882">
        <ele>448</ele>
        <time>2016-11-01T15:28:53.008Z</time>
      </trkpt>
      <trkpt lat="42.99369" lon="2.02895">
        <ele>449</ele>
        <time>2016-11-01T15:28:58.008Z</time>
      </trkpt>
      <trkpt lat="42.99363" lon="2.02905">
        <ele>449</ele>
        <time>2016-11-01T15:29:02.008Z</time>
      </trkpt>
      <trkpt lat="42.99357" lon="2.02919">
        <ele>449</ele>
        <time>2016-11-01T15:29:06.008Z</time>
      </trkpt>
      <trkpt lat="42.99353" lon="2.02933">
        <ele>449</ele>
        <time>2016-11-01T15:29:09.008Z</time>
      </trkpt>
      <trkpt lat="42.99351" lon="2.02946">
        <ele>450</ele>
        <time>2016-11-01T15:29:13.008Z</time>
      </trkpt>
      <trkpt lat="42.99347" lon="2.0296">
        <ele>450</ele>
        <time>2016-11-01T15:29:17.008Z</time>
      </trkpt>
      <trkpt lat="42.99345" lon="2.02974">
        <ele>453</ele>
        <time>2016-11-01T15:29:22.008Z</time>
      </trkpt>
      <trkpt lat="42.99342" lon="2.02987">
        <ele>456</ele>
        <time>2016-11-01T15:29:27.008Z</time>
      </trkpt>
      <trkpt lat="42.99339" lon="2.03001">
        <ele>458</ele>
        <time>2016-11-01T15:29:32.008Z</time>
      </trkpt>
      <trkpt lat="42.99335" lon="2.03013">
        <ele>458.2179968</ele>
        <time>2016-11-01T15:29:36.008Z</time>
      </trkpt>
      <trkpt lat="42.99331" lon="2.03025">
        <ele>459.2179968</ele>
        <time>2016-11-01T15:29:41.008Z</time>
      </trkpt>
      <trkpt lat="42.99329" lon="2.03038">
        <ele>460.4359936</ele>
        <time>2016-11-01T15:29:46.008Z</time>
      </trkpt>
      <trkpt lat="42.99328" lon="2.0305">
        <ele>462</ele>
        <time>2016-11-01T15:29:50.008Z</time>
      </trkpt>
      <trkpt lat="42.99327" lon="2.03059">
        <ele>465</ele>
        <time>2016-11-01T15:29:54.008Z</time>
      </trkpt>
      <trkpt lat="42.99324" lon="2.03069">
        <ele>467</ele>
        <time>2016-11-01T15:29:58.008Z</time>
      </trkpt>
      <trkpt lat="42.99323" lon="2.0308">
        <ele>469</ele>
        <time>2016-11-01T15:30:02.008Z</time>
      </trkpt>
      <trkpt lat="42.99322" lon="2.03091">
        <ele>469.4359936</ele>
        <time>2016-11-01T15:30:06.008Z</time>
      </trkpt>
      <trkpt lat="42.99318" lon="2.03101">
        <ele>471</ele>
        <time>2016-11-01T15:30:10.008Z</time>
      </trkpt>
      <trkpt lat="42.99317" lon="2.03111">
        <ele>472</ele>
        <time>2016-11-01T15:30:14.008Z</time>
      </trkpt>
      <trkpt lat="42.99317" lon="2.03121">
        <ele>472</ele>
        <time>2016-11-01T15:30:17.008Z</time>
      </trkpt>
      <trkpt lat="42.99316" lon="2.0313">
        <ele>472</ele>
        <time>2016-11-01T15:30:20.008Z</time>
      </trkpt>
      <trkpt lat="42.99317" lon="2.03138">
        <ele>472</ele>
        <time>2016-11-01T15:30:24.008Z</time>
      </trkpt>
      <trkpt lat="42.99318" lon="2.03147">
        <ele>473</ele>
        <time>2016-11-01T15:30:52.008Z</time>
      </trkpt>
      <trkpt lat="42.99319" lon="2.03157">
        <ele>473</ele>
        <time>2016-11-01T15:30:56.008Z</time>
      </trkpt>
      <trkpt lat="42.99319" lon="2.03171">
        <ele>475</ele>
        <time>2016-11-01T15:31:03.008Z</time>
      </trkpt>
      <trkpt lat="42.99319" lon="2.03185">
        <ele>475.4359936</ele>
        <time>2016-11-01T15:31:11.008Z</time>
      </trkpt>
      <trkpt lat="42.9932" lon="2.03198">
        <ele>477.6539904</ele>
        <time>2016-11-01T15:31:16.008Z</time>
      </trkpt>
      <trkpt lat="42.9932" lon="2.03213">
        <ele>481</ele>
        <time>2016-11-01T15:31:22.008Z</time>
      </trkpt>
      <trkpt lat="42.99319" lon="2.03231">
        <ele>482</ele>
        <time>2016-11-01T15:31:27.008Z</time>
      </trkpt>
      <trkpt lat="42.99316" lon="2.03247">
        <ele>482.21010033099</ele>
        <time>2016-11-01T15:31:31.008Z</time>
      </trkpt>
      <trkpt lat="42.99317" lon="2.03263">
        <ele>483.4359936</ele>
        <time>2016-11-01T15:31:36.008Z</time>
      </trkpt>
      <trkpt lat="42.99325" lon="2.0327">
        <ele>488</ele>
        <time>2016-11-01T15:31:44.008Z</time>
      </trkpt>
      <trkpt lat="42.99333" lon="2.0326">
        <ele>490</ele>
        <time>2016-11-01T15:31:50.008Z</time>
      </trkpt>
      <trkpt lat="42.9934" lon="2.0325">
        <ele>491.2179968</ele>
        <time>2016-11-01T15:31:56.008Z</time>
      </trkpt>
      <trkpt lat="42.99348" lon="2.03239">
        <ele>494</ele>
        <time>2016-11-01T15:32:02.008Z</time>
      </trkpt>
      <trkpt lat="42.99353" lon="2.03225">
        <ele>494</ele>
        <time>2016-11-01T15:32:07.008Z</time>
      </trkpt>
      <trkpt lat="42.99354" lon="2.03213">
        <ele>494.2179968</ele>
        <time>2016-11-01T15:32:11.008Z</time>
      </trkpt>
      <trkpt lat="42.99357" lon="2.03198">
        <ele>495</ele>
        <time>2016-11-01T15:32:17.008Z</time>
      </trkpt>
      <trkpt lat="42.99357" lon="2.03183">
        <ele>497</ele>
        <time>2016-11-01T15:32:23.008Z</time>
      </trkpt>
      <trkpt lat="42.99359" lon="2.0317">
        <ele>497</ele>
        <time>2016-11-01T15:32:28.008Z</time>
      </trkpt>
      <trkpt lat="42.99359" lon="2.03157">
        <ele>499</ele>
        <time>2016-11-01T15:32:32.008Z</time>
      </trkpt>
      <trkpt lat="42.99361" lon="2.03145">
        <ele>499</ele>
        <time>2016-11-01T15:32:36.008Z</time>
      </trkpt>
      <trkpt lat="42.99365" lon="2.03127">
        <ele>499</ele>
        <time>2016-11-01T15:32:40.008Z</time>
      </trkpt>
      <trkpt lat="42.9937" lon="2.03113">
        <ele>499</ele>
        <time>2016-11-01T15:32:43.008Z</time>
      </trkpt>
      <trkpt lat="42.99376" lon="2.03104">
        <ele>499</ele>
        <time>2016-11-01T15:32:45.008Z</time>
      </trkpt>
      <trkpt lat="42.99381" lon="2.03095">
        <ele>499</ele>
        <time>2016-11-01T15:32:47.008Z</time>
      </trkpt>
      <trkpt lat="42.99389" lon="2.03087">
        <ele>499</ele>
        <time>2016-11-01T15:32:50.008Z</time>
      </trkpt>
      <trkpt lat="42.99396" lon="2.03077">
        <ele>499</ele>
        <time>2016-11-01T15:32:53.008Z</time>
      </trkpt>
      <trkpt lat="42.99403" lon="2.03067">
        <ele>499</ele>
        <time>2016-11-01T15:32:56.008Z</time>
      </trkpt>
      <trkpt lat="42.99409" lon="2.03054">
        <ele>499</ele>
        <time>2016-11-01T15:32:59.008Z</time>
      </trkpt>
      <trkpt lat="42.99416" lon="2.0304">
        <ele>499</ele>
        <time>2016-11-01T15:33:02.008Z</time>
      </trkpt>
      <trkpt lat="42.99423" lon="2.03029">
        <ele>499</ele>
        <time>2016-11-01T15:33:05.008Z</time>
      </trkpt>
      <trkpt lat="42.99426" lon="2.03021">
        <ele>499</ele>
        <time>2016-11-01T15:33:07.008Z</time>
      </trkpt>
      <trkpt lat="42.99431" lon="2.03015">
        <ele>499</ele>
        <time>2016-11-01T15:33:09.008Z</time>
      </trkpt>
      <trkpt lat="42.99435" lon="2.0301">
        <ele>499.4359936</ele>
        <time>2016-11-01T15:33:11.008Z</time>
      </trkpt>
      <trkpt lat="42.99441" lon="2.0301">
        <ele>501</ele>
        <time>2016-11-01T15:33:13.008Z</time>
      </trkpt>
      <trkpt lat="42.99446" lon="2.03016">
        <ele>501</ele>
        <time>2016-11-01T15:33:16.008Z</time>
      </trkpt>
      <trkpt lat="42.99447" lon="2.03027">
        <ele>501</ele>
        <time>2016-11-01T15:33:20.008Z</time>
      </trkpt>
      <trkpt lat="42.99447" lon="2.0304">
        <ele>502</ele>
        <time>2016-11-01T15:33:25.008Z</time>
      </trkpt>
      <trkpt lat="42.99447" lon="2.03055">
        <ele>502</ele>
        <time>2016-11-01T15:33:29.008Z</time>
      </trkpt>
      <trkpt lat="42.99446" lon="2.03066">
        <ele>505</ele>
        <time>2016-11-01T15:33:32.008Z</time>
      </trkpt>
      <trkpt lat="42.99445" lon="2.03075">
        <ele>505</ele>
        <time>2016-11-01T15:33:35.008Z</time>
      </trkpt>
      <trkpt lat="42.99445" lon="2.03086">
        <ele>508</ele>
        <time>2016-11-01T15:33:38.008Z</time>
      </trkpt>
      <trkpt lat="42.99443" lon="2.03097">
        <ele>509</ele>
        <time>2016-11-01T15:33:42.008Z</time>
      </trkpt>
      <trkpt lat="42.99445" lon="2.03108">
        <ele>509.4359936</ele>
        <time>2016-11-01T15:33:46.008Z</time>
      </trkpt>
      <trkpt lat="42.99443" lon="2.03119">
        <ele>511</ele>
        <time>2016-11-01T15:33:50.008Z</time>
      </trkpt>
      <trkpt lat="42.99442" lon="2.03131">
        <ele>512</ele>
        <time>2016-11-01T15:33:54.008Z</time>
      </trkpt>
      <trkpt lat="42.99442" lon="2.03139">
        <ele>514</ele>
        <time>2016-11-01T15:33:57.008Z</time>
      </trkpt>
      <trkpt lat="42.9944" lon="2.03148">
        <ele>514</ele>
        <time>2016-11-01T15:34:00.008Z</time>
      </trkpt>
      <trkpt lat="42.99439" lon="2.03155">
        <ele>517</ele>
        <time>2016-11-01T15:34:03.008Z</time>
      </trkpt>
      <trkpt lat="42.9944" lon="2.03163">
        <ele>518.2179968</ele>
        <time>2016-11-01T15:34:06.008Z</time>
      </trkpt>
      <trkpt lat="42.99438" lon="2.03172">
        <ele>520</ele>
        <time>2016-11-01T15:34:10.008Z</time>
      </trkpt>
      <trkpt lat="42.99437" lon="2.0318">
        <ele>520</ele>
        <time>2016-11-01T15:34:13.008Z</time>
      </trkpt>
      <trkpt lat="42.99436" lon="2.0319">
        <ele>521</ele>
        <time>2016-11-01T15:34:17.008Z</time>
      </trkpt>
      <trkpt lat="42.99436" lon="2.03198">
        <ele>521</ele>
        <time>2016-11-01T15:34:20.008Z</time>
      </trkpt>
      <trkpt lat="42.99436" lon="2.03207">
        <ele>522</ele>
        <time>2016-11-01T15:34:23.008Z</time>
      </trkpt>
      <trkpt lat="42.99437" lon="2.03216">
        <ele>522</ele>
        <time>2016-11-01T15:34:26.008Z</time>
      </trkpt>
      <trkpt lat="42.99436" lon="2.03226">
        <ele>522</ele>
        <time>2016-11-01T15:34:29.008Z</time>
      </trkpt>
      <trkpt lat="42.99436" lon="2.03236">
        <ele>524</ele>
        <time>2016-11-01T15:34:33.008Z</time>
      </trkpt>
      <trkpt lat="42.99435" lon="2.03245">
        <ele>524</ele>
        <time>2016-11-01T15:34:36.008Z</time>
      </trkpt>
      <trkpt lat="42.99434" lon="2.03255">
        <ele>524</ele>
        <time>2016-11-01T15:34:40.008Z</time>
      </trkpt>
      <trkpt lat="42.99434" lon="2.03265">
        <ele>527</ele>
        <time>2016-11-01T15:34:43.008Z</time>
      </trkpt>
      <trkpt lat="42.99434" lon="2.03276">
        <ele>528</ele>
        <time>2016-11-01T15:34:47.008Z</time>
      </trkpt>
      <trkpt lat="42.99433" lon="2.03288">
        <ele>530</ele>
        <time>2016-11-01T15:34:52.008Z</time>
      </trkpt>
      <trkpt lat="42.9943" lon="2.03298">
        <ele>530.2179968</ele>
        <time>2016-11-01T15:34:56.008Z</time>
      </trkpt>
      <trkpt lat="42.99427" lon="2.03307">
        <ele>531</ele>
        <time>2016-11-01T15:34:59.008Z</time>
      </trkpt>
      <trkpt lat="42.99424" lon="2.03316">
        <ele>531</ele>
        <time>2016-11-01T15:35:02.008Z</time>
      </trkpt>
      <trkpt lat="42.9942" lon="2.03325">
        <ele>531</ele>
        <time>2016-11-01T15:35:06.008Z</time>
      </trkpt>
      <trkpt lat="42.99419" lon="2.03334">
        <ele>531</ele>
        <time>2016-11-01T15:35:09.008Z</time>
      </trkpt>
      <trkpt lat="42.99418" lon="2.03343">
        <ele>533</ele>
        <time>2016-11-01T15:35:12.008Z</time>
      </trkpt>
      <trkpt lat="42.99418" lon="2.03351">
        <ele>533</ele>
        <time>2016-11-01T15:35:15.008Z</time>
      </trkpt>
      <trkpt lat="42.99418" lon="2.03363">
        <ele>533</ele>
        <time>2016-11-01T15:35:19.008Z</time>
      </trkpt>
      <trkpt lat="42.99419" lon="2.03374">
        <ele>535</ele>
        <time>2016-11-01T15:35:23.008Z</time>
      </trkpt>
      <trkpt lat="42.99418" lon="2.03385">
        <ele>536</ele>
        <time>2016-11-01T15:35:27.008Z</time>
      </trkpt>
      <trkpt lat="42.99418" lon="2.03396">
        <ele>536.4359936</ele>
        <time>2016-11-01T15:35:31.008Z</time>
      </trkpt>
      <trkpt lat="42.99419" lon="2.03406">
        <ele>538</ele>
        <time>2016-11-01T15:35:35.008Z</time>
      </trkpt>
      <trkpt lat="42.99421" lon="2.03414">
        <ele>541</ele>
        <time>2016-11-01T15:35:39.008Z</time>
      </trkpt>
      <trkpt lat="42.99421" lon="2.03421">
        <ele>542</ele>
        <time>2016-11-01T15:35:51.008Z</time>
      </trkpt>
      <trkpt lat="42.99419" lon="2.0343">
        <ele>543</ele>
        <time>2016-11-01T15:36:05.008Z</time>
      </trkpt>
      <trkpt lat="42.99418" lon="2.03439">
        <ele>543</ele>
        <time>2016-11-01T15:36:09.008Z</time>
      </trkpt>
      <trkpt lat="42.99418" lon="2.03449">
        <ele>545</ele>
        <time>2016-11-01T15:36:13.008Z</time>
      </trkpt>
      <trkpt lat="42.99418" lon="2.03459">
        <ele>545</ele>
        <time>2016-11-01T15:36:17.008Z</time>
      </trkpt>
      <trkpt lat="42.99419" lon="2.03469">
        <ele>545.6539904</ele>
        <time>2016-11-01T15:36:21.008Z</time>
      </trkpt>
      <trkpt lat="42.99418" lon="2.03479">
        <ele>549.4359936</ele>
        <time>2016-11-01T15:36:26.008Z</time>
      </trkpt>
      <trkpt lat="42.99419" lon="2.0349">
        <ele>551</ele>
        <time>2016-11-01T15:36:30.008Z</time>
      </trkpt>
      <trkpt lat="42.99419" lon="2.035">
        <ele>553</ele>
        <time>2016-11-01T15:36:33.008Z</time>
      </trkpt>
      <trkpt lat="42.9942" lon="2.0351">
        <ele>555</ele>
        <time>2016-11-01T15:36:37.008Z</time>
      </trkpt>
      <trkpt lat="42.99419" lon="2.0352">
        <ele>555</ele>
        <time>2016-11-01T15:36:40.008Z</time>
      </trkpt>
      <trkpt lat="42.99417" lon="2.0353">
        <ele>556</ele>
        <time>2016-11-01T15:36:44.008Z</time>
      </trkpt>
      <trkpt lat="42.99417" lon="2.03542">
        <ele>558</ele>
        <time>2016-11-01T15:36:48.008Z</time>
      </trkpt>
      <trkpt lat="42.99417" lon="2.03554">
        <ele>559</ele>
        <time>2016-11-01T15:36:52.008Z</time>
      </trkpt>
      <trkpt lat="42.99415" lon="2.03563">
        <ele>559</ele>
        <time>2016-11-01T15:36:55.008Z</time>
      </trkpt>
      <trkpt lat="42.99414" lon="2.03572">
        <ele>559</ele>
        <time>2016-11-01T15:36:58.008Z</time>
      </trkpt>
      <trkpt lat="42.99411" lon="2.03584">
        <ele>560</ele>
        <time>2016-11-01T15:37:02.008Z</time>
      </trkpt>
      <trkpt lat="42.9941" lon="2.03594">
        <ele>560</ele>
        <time>2016-11-01T15:37:05.008Z</time>
      </trkpt>
      <trkpt lat="42.99409" lon="2.03601">
        <ele>560</ele>
        <time>2016-11-01T15:37:07.008Z</time>
      </trkpt>
      <trkpt lat="42.99408" lon="2.03607">
        <ele>560</ele>
        <time>2016-11-01T15:37:09.008Z</time>
      </trkpt>
      <trkpt lat="42.99407" lon="2.03617">
        <ele>562</ele>
        <time>2016-11-01T15:37:12.008Z</time>
      </trkpt>
      <trkpt lat="42.99407" lon="2.03627">
        <ele>562</ele>
        <time>2016-11-01T15:37:15.008Z</time>
      </trkpt>
      <trkpt lat="42.99408" lon="2.03637">
        <ele>562</ele>
        <time>2016-11-01T15:37:18.008Z</time>
      </trkpt>
      <trkpt lat="42.99409" lon="2.03646">
        <ele>562.42020066198</ele>
        <time>2016-11-01T15:37:21.008Z</time>
      </trkpt>
      <trkpt lat="42.99409" lon="2.03655">
        <ele>564</ele>
        <time>2016-11-01T15:37:24.008Z</time>
      </trkpt>
      <trkpt lat="42.99409" lon="2.03665">
        <ele>564</ele>
        <time>2016-11-01T15:37:27.008Z</time>
      </trkpt>
      <trkpt lat="42.9941" lon="2.03673">
        <ele>564</ele>
        <time>2016-11-01T15:37:30.008Z</time>
      </trkpt>
      <trkpt lat="42.9941" lon="2.03681">
        <ele>569</ele>
        <time>2016-11-01T15:37:33.008Z</time>
      </trkpt>
      <trkpt lat="42.9941" lon="2.0369">
        <ele>569.2179968</ele>
        <time>2016-11-01T15:37:36.008Z</time>
      </trkpt>
      <trkpt lat="42.9941" lon="2.03699">
        <ele>570</ele>
        <time>2016-11-01T15:37:39.008Z</time>
      </trkpt>
      <trkpt lat="42.99408" lon="2.03708">
        <ele>570</ele>
        <time>2016-11-01T15:37:42.008Z</time>
      </trkpt>
      <trkpt lat="42.99406" lon="2.03714">
        <ele>571</ele>
        <time>2016-11-01T15:37:45.008Z</time>
      </trkpt>
      <trkpt lat="42.99404" lon="2.03723">
        <ele>571</ele>
        <time>2016-11-01T15:37:49.008Z</time>
      </trkpt>
      <trkpt lat="42.99401" lon="2.03732">
        <ele>572</ele>
        <time>2016-11-01T15:37:53.008Z</time>
      </trkpt>
      <trkpt lat="42.99399" lon="2.03743">
        <ele>572</ele>
        <time>2016-11-01T15:37:58.008Z</time>
      </trkpt>
      <trkpt lat="42.99395" lon="2.03752">
        <ele>572.2179968</ele>
        <time>2016-11-01T15:38:01.008Z</time>
      </trkpt>
      <trkpt lat="42.9939" lon="2.03762">
        <ele>573</ele>
        <time>2016-11-01T15:38:06.008Z</time>
      </trkpt>
      <trkpt lat="42.99387" lon="2.03775">
        <ele>573</ele>
        <time>2016-11-01T15:38:10.008Z</time>
      </trkpt>
      <trkpt lat="42.99384" lon="2.03786">
        <ele>575</ele>
        <time>2016-11-01T15:38:14.008Z</time>
      </trkpt>
      <trkpt lat="42.99382" lon="2.03798">
        <ele>575</ele>
        <time>2016-11-01T15:38:18.008Z</time>
      </trkpt>
      <trkpt lat="42.9938" lon="2.03811">
        <ele>578</ele>
        <time>2016-11-01T15:38:22.008Z</time>
      </trkpt>
      <trkpt lat="42.99381" lon="2.0382">
        <ele>578</ele>
        <time>2016-11-01T15:38:27.008Z</time>
      </trkpt>
      <trkpt lat="42.99379" lon="2.03826">
        <ele>577</ele>
        <time>2016-11-01T15:39:07.008Z</time>
      </trkpt>
      <trkpt lat="42.99378" lon="2.03837">
        <ele>578</ele>
        <time>2016-11-01T15:39:21.008Z</time>
      </trkpt>
      <trkpt lat="42.99379" lon="2.0385">
        <ele>578</ele>
        <time>2016-11-01T15:39:24.008Z</time>
      </trkpt>
      <trkpt lat="42.99381" lon="2.03866">
        <ele>578</ele>
        <time>2016-11-01T15:39:27.008Z</time>
      </trkpt>
      <trkpt lat="42.99382" lon="2.03878">
        <ele>578</ele>
        <time>2016-11-01T15:39:29.008Z</time>
      </trkpt>
      <trkpt lat="42.99384" lon="2.0389">
        <ele>577.7820032</ele>
        <time>2016-11-01T15:39:31.008Z</time>
      </trkpt>
      <trkpt lat="42.99385" lon="2.03904">
        <ele>577</ele>
        <time>2016-11-01T15:39:33.008Z</time>
      </trkpt>
      <trkpt lat="42.99387" lon="2.03916">
        <ele>577</ele>
        <time>2016-11-01T15:39:35.008Z</time>
      </trkpt>
      <trkpt lat="42.99388" lon="2.03929">
        <ele>577</ele>
        <time>2016-11-01T15:39:37.008Z</time>
      </trkpt>
      <trkpt lat="42.9939" lon="2.03942">
        <ele>577</ele>
        <time>2016-11-01T15:39:39.008Z</time>
      </trkpt>
      <trkpt lat="42.99392" lon="2.03962">
        <ele>576</ele>
        <time>2016-11-01T15:39:42.008Z</time>
      </trkpt>
      <trkpt lat="42.99392" lon="2.03976">
        <ele>576</ele>
        <time>2016-11-01T15:39:44.008Z</time>
      </trkpt>
      <trkpt lat="42.99392" lon="2.03991">
        <ele>576</ele>
        <time>2016-11-01T15:39:46.008Z</time>
      </trkpt>
      <trkpt lat="42.99392" lon="2.04007">
        <ele>576</ele>
        <time>2016-11-01T15:39:48.008Z</time>
      </trkpt>
      <trkpt lat="42.99393" lon="2.04022">
        <ele>576</ele>
        <time>2016-11-01T15:39:50.008Z</time>
      </trkpt>
      <trkpt lat="42.99393" lon="2.04035">
        <ele>575</ele>
        <time>2016-11-01T15:39:52.008Z</time>
      </trkpt>
      <trkpt lat="42.99393" lon="2.04049">
        <ele>575</ele>
        <time>2016-11-01T15:39:55.008Z</time>
      </trkpt>
      <trkpt lat="42.99392" lon="2.04061">
        <ele>575</ele>
        <time>2016-11-01T15:39:57.008Z</time>
      </trkpt>
      <trkpt lat="42.99391" lon="2.04074">
        <ele>575</ele>
        <time>2016-11-01T15:39:59.008Z</time>
      </trkpt>
      <trkpt lat="42.9939" lon="2.04087">
        <ele>575</ele>
        <time>2016-11-01T15:40:01.008Z</time>
      </trkpt>
      <trkpt lat="42.9939" lon="2.04098">
        <ele>575</ele>
        <time>2016-11-01T15:40:03.008Z</time>
      </trkpt>
      <trkpt lat="42.99389" lon="2.04109">
        <ele>575</ele>
        <time>2016-11-01T15:40:05.008Z</time>
      </trkpt>
      <trkpt lat="42.99389" lon="2.04121">
        <ele>575</ele>
        <time>2016-11-01T15:40:07.008Z</time>
      </trkpt>
      <trkpt lat="42.99389" lon="2.04132">
        <ele>575</ele>
        <time>2016-11-01T15:40:09.008Z</time>
      </trkpt>
      <trkpt lat="42.99389" lon="2.04143">
        <ele>575.2179968</ele>
        <time>2016-11-01T15:40:11.008Z</time>
      </trkpt>
      <trkpt lat="42.99389" lon="2.04155">
        <ele>576</ele>
        <time>2016-11-01T15:40:13.008Z</time>
      </trkpt>
      <trkpt lat="42.99389" lon="2.04168">
        <ele>576</ele>
        <time>2016-11-01T15:40:16.008Z</time>
      </trkpt>
      <trkpt lat="42.99389" lon="2.04183">
        <ele>576</ele>
        <time>2016-11-01T15:40:19.008Z</time>
      </trkpt>
      <trkpt lat="42.99388" lon="2.04194">
        <ele>576.2179968</ele>
        <time>2016-11-01T15:40:21.008Z</time>
      </trkpt>
      <trkpt lat="42.99388" lon="2.04208">
        <ele>577</ele>
        <time>2016-11-01T15:40:24.008Z</time>
      </trkpt>
      <trkpt lat="42.9939" lon="2.04221">
        <ele>577</ele>
        <time>2016-11-01T15:40:27.008Z</time>
      </trkpt>
      <trkpt lat="42.99393" lon="2.04232">
        <ele>577</ele>
        <time>2016-11-01T15:40:30.008Z</time>
      </trkpt>
      <trkpt lat="42.99395" lon="2.04245">
        <ele>579</ele>
        <time>2016-11-01T15:40:33.008Z</time>
      </trkpt>
      <trkpt lat="42.99397" lon="2.04257">
        <ele>579</ele>
        <time>2016-11-01T15:40:36.008Z</time>
      </trkpt>
      <trkpt lat="42.994" lon="2.04267">
        <ele>579</ele>
        <time>2016-11-01T15:40:39.008Z</time>
      </trkpt>
      <trkpt lat="42.99402" lon="2.04281">
        <ele>583</ele>
        <time>2016-11-01T15:40:42.008Z</time>
      </trkpt>
      <trkpt lat="42.99403" lon="2.04294">
        <ele>583</ele>
        <time>2016-11-01T15:40:45.008Z</time>
      </trkpt>
      <trkpt lat="42.99402" lon="2.04306">
        <ele>586</ele>
        <time>2016-11-01T15:40:49.008Z</time>
      </trkpt>
      <trkpt lat="42.99401" lon="2.04316">
        <ele>588</ele>
        <time>2016-11-01T15:40:52.008Z</time>
      </trkpt>
      <trkpt lat="42.99399" lon="2.04327">
        <ele>588.4359936</ele>
        <time>2016-11-01T15:40:56.008Z</time>
      </trkpt>
      <trkpt lat="42.99398" lon="2.04338">
        <ele>590</ele>
        <time>2016-11-01T15:41:00.008Z</time>
      </trkpt>
      <trkpt lat="42.99393" lon="2.04348">
        <ele>593</ele>
        <time>2016-11-01T15:41:04.008Z</time>
      </trkpt>
      <trkpt lat="42.99391" lon="2.04356">
        <ele>594</ele>
        <time>2016-11-01T15:41:07.008Z</time>
      </trkpt>
      <trkpt lat="42.99389" lon="2.04368">
        <ele>596</ele>
        <time>2016-11-01T15:41:12.008Z</time>
      </trkpt>
      <trkpt lat="42.99385" lon="2.04379">
        <ele>596.42020066198</ele>
        <time>2016-11-01T15:41:16.008Z</time>
      </trkpt>
      <trkpt lat="42.99382" lon="2.0439">
        <ele>598</ele>
        <time>2016-11-01T15:41:20.008Z</time>
      </trkpt>
      <trkpt lat="42.99379" lon="2.044">
        <ele>600</ele>
        <time>2016-11-01T15:41:24.008Z</time>
      </trkpt>
      <trkpt lat="42.99378" lon="2.0441">
        <ele>602</ele>
        <time>2016-11-01T15:41:28.008Z</time>
      </trkpt>
      <trkpt lat="42.99374" lon="2.04422">
        <ele>604</ele>
        <time>2016-11-01T15:41:33.008Z</time>
      </trkpt>
      <trkpt lat="42.99372" lon="2.04435">
        <ele>605</ele>
        <time>2016-11-01T15:41:37.008Z</time>
      </trkpt>
      <trkpt lat="42.99368" lon="2.04444">
        <ele>605</ele>
        <time>2016-11-01T15:41:40.008Z</time>
      </trkpt>
      <trkpt lat="42.99364" lon="2.04455">
        <ele>606</ele>
        <time>2016-11-01T15:41:43.008Z</time>
      </trkpt>
      <trkpt lat="42.99363" lon="2.04466">
        <ele>606</ele>
        <time>2016-11-01T15:41:46.008Z</time>
      </trkpt>
      <trkpt lat="42.99361" lon="2.04477">
        <ele>605.7820032</ele>
        <time>2016-11-01T15:41:51.008Z</time>
      </trkpt>
      <trkpt lat="42.99357" lon="2.04486">
        <ele>606</ele>
        <time>2016-11-01T15:41:56.008Z</time>
      </trkpt>
      <trkpt lat="42.99355" lon="2.04494">
        <ele>606</ele>
        <time>2016-11-01T15:42:26.008Z</time>
      </trkpt>
      <trkpt lat="42.99352" lon="2.04503">
        <ele>605.7820032</ele>
        <time>2016-11-01T15:42:31.008Z</time>
      </trkpt>
      <trkpt lat="42.99346" lon="2.04516">
        <ele>605</ele>
        <time>2016-11-01T15:42:34.008Z</time>
      </trkpt>
      <trkpt lat="42.99339" lon="2.0453">
        <ele>605</ele>
        <time>2016-11-01T15:42:36.008Z</time>
      </trkpt>
      <trkpt lat="42.99333" lon="2.04543">
        <ele>605</ele>
        <time>2016-11-01T15:42:38.008Z</time>
      </trkpt>
      <trkpt lat="42.99325" lon="2.04556">
        <ele>605</ele>
        <time>2016-11-01T15:42:40.008Z</time>
      </trkpt>
      <trkpt lat="42.99317" lon="2.04567">
        <ele>603</ele>
        <time>2016-11-01T15:42:42.008Z</time>
      </trkpt>
      <trkpt lat="42.99308" lon="2.04575">
        <ele>603</ele>
        <time>2016-11-01T15:42:44.008Z</time>
      </trkpt>
      <trkpt lat="42.993" lon="2.04581">
        <ele>603</ele>
        <time>2016-11-01T15:42:46.008Z</time>
      </trkpt>
      <trkpt lat="42.99291" lon="2.04586">
        <ele>603</ele>
        <time>2016-11-01T15:42:49.008Z</time>
      </trkpt>
      <trkpt lat="42.99281" lon="2.04588">
        <ele>602</ele>
        <time>2016-11-01T15:42:52.008Z</time>
      </trkpt>
      <trkpt lat="42.99271" lon="2.04589">
        <ele>602</ele>
        <time>2016-11-01T15:42:55.008Z</time>
      </trkpt>
      <trkpt lat="42.99263" lon="2.04589">
        <ele>602</ele>
        <time>2016-11-01T15:42:58.008Z</time>
      </trkpt>
      <trkpt lat="42.99254" lon="2.04588">
        <ele>602.6539904</ele>
        <time>2016-11-01T15:43:01.008Z</time>
      </trkpt>
      <trkpt lat="42.99242" lon="2.04587">
        <ele>605</ele>
        <time>2016-11-01T15:43:05.008Z</time>
      </trkpt>
      <trkpt lat="42.99231" lon="2.0459">
        <ele>606</ele>
        <time>2016-11-01T15:43:09.008Z</time>
      </trkpt>
      <trkpt lat="42.99229" lon="2.04606">
        <ele>606</ele>
        <time>2016-11-01T15:43:14.008Z</time>
      </trkpt>
      <trkpt lat="42.99231" lon="2.04622">
        <ele>606</ele>
        <time>2016-11-01T15:43:19.008Z</time>
      </trkpt>
      <trkpt lat="42.99233" lon="2.04634">
        <ele>606</ele>
        <time>2016-11-01T15:43:22.008Z</time>
      </trkpt>
      <trkpt lat="42.99236" lon="2.0465">
        <ele>606</ele>
        <time>2016-11-01T15:43:25.008Z</time>
      </trkpt>
      <trkpt lat="42.99239" lon="2.04668">
        <ele>606</ele>
        <time>2016-11-01T15:43:28.008Z</time>
      </trkpt>
      <trkpt lat="42.99241" lon="2.04681">
        <ele>606</ele>
        <time>2016-11-01T15:43:30.008Z</time>
      </trkpt>
      <trkpt lat="42.99248" lon="2.04698">
        <ele>605</ele>
        <time>2016-11-01T15:43:33.008Z</time>
      </trkpt>
      <trkpt lat="42.99251" lon="2.04709">
        <ele>605</ele>
        <time>2016-11-01T15:43:35.008Z</time>
      </trkpt>
      <trkpt lat="42.99255" lon="2.04721">
        <ele>605</ele>
        <time>2016-11-01T15:43:37.008Z</time>
      </trkpt>
      <trkpt lat="42.99257" lon="2.04734">
        <ele>605</ele>
        <time>2016-11-01T15:43:39.008Z</time>
      </trkpt>
      <trkpt lat="42.9926" lon="2.04749">
        <ele>604.7820032</ele>
        <time>2016-11-01T15:43:41.008Z</time>
      </trkpt>
      <trkpt lat="42.99264" lon="2.04762">
        <ele>604</ele>
        <time>2016-11-01T15:43:43.008Z</time>
      </trkpt>
      <trkpt lat="42.99268" lon="2.04775">
        <ele>604</ele>
        <time>2016-11-01T15:43:45.008Z</time>
      </trkpt>
      <trkpt lat="42.99271" lon="2.04787">
        <ele>604</ele>
        <time>2016-11-01T15:43:47.008Z</time>
      </trkpt>
      <trkpt lat="42.99272" lon="2.04798">
        <ele>604</ele>
        <time>2016-11-01T15:43:49.008Z</time>
      </trkpt>
      <trkpt lat="42.99273" lon="2.04809">
        <ele>604.4359936</ele>
        <time>2016-11-01T15:43:51.008Z</time>
      </trkpt>
      <trkpt lat="42.99272" lon="2.0482">
        <ele>606</ele>
        <time>2016-11-01T15:43:53.008Z</time>
      </trkpt>
      <trkpt lat="42.99271" lon="2.04831">
        <ele>606</ele>
        <time>2016-11-01T15:43:55.008Z</time>
      </trkpt>
      <trkpt lat="42.99269" lon="2.04841">
        <ele>606</ele>
        <time>2016-11-01T15:43:57.008Z</time>
      </trkpt>
      <trkpt lat="42.99268" lon="2.04852">
        <ele>606</ele>
        <time>2016-11-01T15:43:59.008Z</time>
      </trkpt>
      <trkpt lat="42.99267" lon="2.04862">
        <ele>606.4359936</ele>
        <time>2016-11-01T15:44:01.008Z</time>
      </trkpt>
      <trkpt lat="42.99267" lon="2.04872">
        <ele>608</ele>
        <time>2016-11-01T15:44:03.008Z</time>
      </trkpt>
      <trkpt lat="42.99269" lon="2.04882">
        <ele>608</ele>
        <time>2016-11-01T15:44:05.008Z</time>
      </trkpt>
      <trkpt lat="42.9927" lon="2.0489">
        <ele>608</ele>
        <time>2016-11-01T15:44:07.008Z</time>
      </trkpt>
      <trkpt lat="42.99271" lon="2.04898">
        <ele>608</ele>
        <time>2016-11-01T15:44:09.008Z</time>
      </trkpt>
      <trkpt lat="42.99273" lon="2.04908">
        <ele>610</ele>
        <time>2016-11-01T15:44:12.008Z</time>
      </trkpt>
      <trkpt lat="42.99274" lon="2.04919">
        <ele>610</ele>
        <time>2016-11-01T15:44:15.008Z</time>
      </trkpt>
      <trkpt lat="42.99272" lon="2.04934">
        <ele>613</ele>
        <time>2016-11-01T15:44:19.008Z</time>
      </trkpt>
      <trkpt lat="42.99268" lon="2.04945">
        <ele>614</ele>
        <time>2016-11-01T15:44:22.008Z</time>
      </trkpt>
      <trkpt lat="42.99264" lon="2.04956">
        <ele>614.4359936</ele>
        <time>2016-11-01T15:44:26.008Z</time>
      </trkpt>
      <trkpt lat="42.99256" lon="2.04964">
        <ele>616</ele>
        <time>2016-11-01T15:44:30.008Z</time>
      </trkpt>
      <trkpt lat="42.99251" lon="2.04975">
        <ele>617</ele>
        <time>2016-11-01T15:44:33.008Z</time>
      </trkpt>
      <trkpt lat="42.99245" lon="2.04983">
        <ele>617.2179968</ele>
        <time>2016-11-01T15:44:36.008Z</time>
      </trkpt>
      <trkpt lat="42.9924" lon="2.04991">
        <ele>618</ele>
        <time>2016-11-01T15:44:39.008Z</time>
      </trkpt>
      <trkpt lat="42.99236" lon="2.04997">
        <ele>619</ele>
        <time>2016-11-01T15:44:42.008Z</time>
      </trkpt>
      <trkpt lat="42.99232" lon="2.05006">
        <ele>619</ele>
        <time>2016-11-01T15:44:45.008Z</time>
      </trkpt>
      <trkpt lat="42.99227" lon="2.05016">
        <ele>620</ele>
        <time>2016-11-01T15:44:49.008Z</time>
      </trkpt>
      <trkpt lat="42.99221" lon="2.05028">
        <ele>622</ele>
        <time>2016-11-01T15:44:54.008Z</time>
      </trkpt>
      <trkpt lat="42.99217" lon="2.05038">
        <ele>623</ele>
        <time>2016-11-01T15:44:57.008Z</time>
      </trkpt>
      <trkpt lat="42.99212" lon="2.05047">
        <ele>623</ele>
        <time>2016-11-01T15:45:00.008Z</time>
      </trkpt>
      <trkpt lat="42.99206" lon="2.0506">
        <ele>623</ele>
        <time>2016-11-01T15:45:03.008Z</time>
      </trkpt>
      <trkpt lat="42.99204" lon="2.0507">
        <ele>623</ele>
        <time>2016-11-01T15:45:05.008Z</time>
      </trkpt>
      <trkpt lat="42.99204" lon="2.0508">
        <ele>623</ele>
        <time>2016-11-01T15:45:07.008Z</time>
      </trkpt>
      <trkpt lat="42.99204" lon="2.05091">
        <ele>623</ele>
        <time>2016-11-01T15:45:09.008Z</time>
      </trkpt>
      <trkpt lat="42.99204" lon="2.05103">
        <ele>623</ele>
        <time>2016-11-01T15:45:11.008Z</time>
      </trkpt>
      <trkpt lat="42.99205" lon="2.05118">
        <ele>623</ele>
        <time>2016-11-01T15:45:13.008Z</time>
      </trkpt>
      <trkpt lat="42.99208" lon="2.05132">
        <ele>623</ele>
        <time>2016-11-01T15:45:15.008Z</time>
      </trkpt>
      <trkpt lat="42.99211" lon="2.05146">
        <ele>623</ele>
        <time>2016-11-01T15:45:17.008Z</time>
      </trkpt>
      <trkpt lat="42.99217" lon="2.05161">
        <ele>623</ele>
        <time>2016-11-01T15:45:19.008Z</time>
      </trkpt>
      <trkpt lat="42.99227" lon="2.05175">
        <ele>622.3460096</ele>
        <time>2016-11-01T15:45:21.008Z</time>
      </trkpt>
      <trkpt lat="42.99235" lon="2.05188">
        <ele>620</ele>
        <time>2016-11-01T15:45:23.008Z</time>
      </trkpt>
      <trkpt lat="42.9924" lon="2.05201">
        <ele>620</ele>
        <time>2016-11-01T15:45:25.008Z</time>
      </trkpt>
      <trkpt lat="42.99244" lon="2.05212">
        <ele>619</ele>
        <time>2016-11-01T15:45:27.008Z</time>
      </trkpt>
      <trkpt lat="42.9925" lon="2.0522">
        <ele>619</ele>
        <time>2016-11-01T15:45:29.008Z</time>
      </trkpt>
      <trkpt lat="42.99255" lon="2.05228">
        <ele>619</ele>
        <time>2016-11-01T15:45:31.008Z</time>
      </trkpt>
      <trkpt lat="42.9926" lon="2.05235">
        <ele>619</ele>
        <time>2016-11-01T15:45:33.008Z</time>
      </trkpt>
      <trkpt lat="42.99267" lon="2.05243">
        <ele>619</ele>
        <time>2016-11-01T15:45:35.008Z</time>
      </trkpt>
      <trkpt lat="42.99272" lon="2.0525">
        <ele>619</ele>
        <time>2016-11-01T15:45:37.008Z</time>
      </trkpt>
      <trkpt lat="42.99278" lon="2.05257">
        <ele>619</ele>
        <time>2016-11-01T15:45:39.008Z</time>
      </trkpt>
      <trkpt lat="42.99284" lon="2.05264">
        <ele>619</ele>
        <time>2016-11-01T15:45:41.008Z</time>
      </trkpt>
      <trkpt lat="42.99291" lon="2.05271">
        <ele>619</ele>
        <time>2016-11-01T15:45:43.008Z</time>
      </trkpt>
      <trkpt lat="42.99298" lon="2.05279">
        <ele>619</ele>
        <time>2016-11-01T15:45:45.008Z</time>
      </trkpt>
      <trkpt lat="42.99305" lon="2.05287">
        <ele>619</ele>
        <time>2016-11-01T15:45:47.008Z</time>
      </trkpt>
      <trkpt lat="42.99312" lon="2.05293">
        <ele>619</ele>
        <time>2016-11-01T15:45:49.008Z</time>
      </trkpt>
      <trkpt lat="42.99319" lon="2.05297">
        <ele>619.2179968</ele>
        <time>2016-11-01T15:45:51.008Z</time>
      </trkpt>
      <trkpt lat="42.99327" lon="2.05299">
        <ele>620</ele>
        <time>2016-11-01T15:45:53.008Z</time>
      </trkpt>
      <trkpt lat="42.99339" lon="2.05301">
        <ele>620</ele>
        <time>2016-11-01T15:45:56.008Z</time>
      </trkpt>
      <trkpt lat="42.99349" lon="2.053">
        <ele>620</ele>
        <time>2016-11-01T15:45:58.008Z</time>
      </trkpt>
      <trkpt lat="42.99359" lon="2.05299">
        <ele>620</ele>
        <time>2016-11-01T15:46:00.008Z</time>
      </trkpt>
      <trkpt lat="42.99366" lon="2.05299">
        <ele>621</ele>
        <time>2016-11-01T15:46:02.008Z</time>
      </trkpt>
      <trkpt lat="42.99374" lon="2.05298">
        <ele>621</ele>
        <time>2016-11-01T15:46:04.008Z</time>
      </trkpt>
      <trkpt lat="42.99383" lon="2.05297">
        <ele>621</ele>
        <time>2016-11-01T15:46:06.008Z</time>
      </trkpt>
      <trkpt lat="42.99392" lon="2.05296">
        <ele>621</ele>
        <time>2016-11-01T15:46:08.008Z</time>
      </trkpt>
      <trkpt lat="42.994" lon="2.05296">
        <ele>621</ele>
        <time>2016-11-01T15:46:10.008Z</time>
      </trkpt>
      <trkpt lat="42.9941" lon="2.05294">
        <ele>621</ele>
        <time>2016-11-01T15:46:12.008Z</time>
      </trkpt>
      <trkpt lat="42.99418" lon="2.05293">
        <ele>621</ele>
        <time>2016-11-01T15:46:14.008Z</time>
      </trkpt>
      <trkpt lat="42.99428" lon="2.05293">
        <ele>621</ele>
        <time>2016-11-01T15:46:16.008Z</time>
      </trkpt>
      <trkpt lat="42.99439" lon="2.05293">
        <ele>621</ele>
        <time>2016-11-01T15:46:18.008Z</time>
      </trkpt>
      <trkpt lat="42.99449" lon="2.05292">
        <ele>621</ele>
        <time>2016-11-01T15:46:20.008Z</time>
      </trkpt>
      <trkpt lat="42.99459" lon="2.05291">
        <ele>622</ele>
        <time>2016-11-01T15:46:22.008Z</time>
      </trkpt>
      <trkpt lat="42.99469" lon="2.05292">
        <ele>622</ele>
        <time>2016-11-01T15:46:24.008Z</time>
      </trkpt>
      <trkpt lat="42.9948" lon="2.05293">
        <ele>622</ele>
        <time>2016-11-01T15:46:26.008Z</time>
      </trkpt>
      <trkpt lat="42.9949" lon="2.05299">
        <ele>622</ele>
        <time>2016-11-01T15:46:28.008Z</time>
      </trkpt>
      <trkpt lat="42.995" lon="2.05307">
        <ele>622</ele>
        <time>2016-11-01T15:46:30.008Z</time>
      </trkpt>
      <trkpt lat="42.99509" lon="2.05318">
        <ele>623</ele>
        <time>2016-11-01T15:46:32.008Z</time>
      </trkpt>
      <trkpt lat="42.99515" lon="2.0533">
        <ele>623</ele>
        <time>2016-11-01T15:46:34.008Z</time>
      </trkpt>
      <trkpt lat="42.9952" lon="2.05344">
        <ele>623</ele>
        <time>2016-11-01T15:46:36.008Z</time>
      </trkpt>
      <trkpt lat="42.99525" lon="2.05358">
        <ele>623</ele>
        <time>2016-11-01T15:46:38.008Z</time>
      </trkpt>
      <trkpt lat="42.9953" lon="2.05372">
        <ele>623</ele>
        <time>2016-11-01T15:46:40.008Z</time>
      </trkpt>
      <trkpt lat="42.99536" lon="2.05384">
        <ele>623</ele>
        <time>2016-11-01T15:46:42.008Z</time>
      </trkpt>
      <trkpt lat="42.99542" lon="2.05395">
        <ele>623</ele>
        <time>2016-11-01T15:46:44.008Z</time>
      </trkpt>
      <trkpt lat="42.99551" lon="2.05404">
        <ele>623</ele>
        <time>2016-11-01T15:46:46.008Z</time>
      </trkpt>
      <trkpt lat="42.99559" lon="2.05412">
        <ele>623</ele>
        <time>2016-11-01T15:46:48.008Z</time>
      </trkpt>
      <trkpt lat="42.99567" lon="2.05418">
        <ele>623</ele>
        <time>2016-11-01T15:46:50.008Z</time>
      </trkpt>
      <trkpt lat="42.99576" lon="2.05423">
        <ele>624</ele>
        <time>2016-11-01T15:46:52.008Z</time>
      </trkpt>
      <trkpt lat="42.99587" lon="2.05425">
        <ele>624</ele>
        <time>2016-11-01T15:46:54.008Z</time>
      </trkpt>
      <trkpt lat="42.99597" lon="2.05427">
        <ele>624</ele>
        <time>2016-11-01T15:46:56.008Z</time>
      </trkpt>
      <trkpt lat="42.99606" lon="2.05427">
        <ele>624</ele>
        <time>2016-11-01T15:46:58.008Z</time>
      </trkpt>
      <trkpt lat="42.99616" lon="2.05427">
        <ele>624</ele>
        <time>2016-11-01T15:47:00.008Z</time>
      </trkpt>
      <trkpt lat="42.99625" lon="2.05427">
        <ele>624</ele>
        <time>2016-11-01T15:47:02.008Z</time>
      </trkpt>
      <trkpt lat="42.99636" lon="2.05426">
        <ele>624</ele>
        <time>2016-11-01T15:47:04.008Z</time>
      </trkpt>
      <trkpt lat="42.99646" lon="2.05426">
        <ele>624</ele>
        <time>2016-11-01T15:47:06.008Z</time>
      </trkpt>
      <trkpt lat="42.99656" lon="2.05425">
        <ele>624</ele>
        <time>2016-11-01T15:47:08.008Z</time>
      </trkpt>
      <trkpt lat="42.99666" lon="2.05423">
        <ele>624</ele>
        <time>2016-11-01T15:47:10.008Z</time>
      </trkpt>
      <trkpt lat="42.99676" lon="2.05419">
        <ele>624</ele>
        <time>2016-11-01T15:47:12.008Z</time>
      </trkpt>
      <trkpt lat="42.99687" lon="2.05415">
        <ele>624</ele>
        <time>2016-11-01T15:47:14.008Z</time>
      </trkpt>
      <trkpt lat="42.99697" lon="2.05408">
        <ele>624</ele>
        <time>2016-11-01T15:47:16.008Z</time>
      </trkpt>
      <trkpt lat="42.99706" lon="2.05401">
        <ele>624</ele>
        <time>2016-11-01T15:47:18.008Z</time>
      </trkpt>
      <trkpt lat="42.99715" lon="2.05393">
        <ele>624</ele>
        <time>2016-11-01T15:47:20.008Z</time>
      </trkpt>
      <trkpt lat="42.99724" lon="2.05385">
        <ele>625</ele>
        <time>2016-11-01T15:47:22.008Z</time>
      </trkpt>
      <trkpt lat="42.99734" lon="2.05377">
        <ele>625</ele>
        <time>2016-11-01T15:47:24.008Z</time>
      </trkpt>
      <trkpt lat="42.99743" lon="2.05369">
        <ele>625</ele>
        <time>2016-11-01T15:47:26.008Z</time>
      </trkpt>
      <trkpt lat="42.99752" lon="2.05361">
        <ele>625</ele>
        <time>2016-11-01T15:47:28.008Z</time>
      </trkpt>
      <trkpt lat="42.99761" lon="2.05352">
        <ele>625</ele>
        <time>2016-11-01T15:47:30.008Z</time>
      </trkpt>
      <trkpt lat="42.99769" lon="2.05344">
        <ele>625</ele>
        <time>2016-11-01T15:47:32.008Z</time>
      </trkpt>
      <trkpt lat="42.99778" lon="2.05336">
        <ele>625</ele>
        <time>2016-11-01T15:47:34.008Z</time>
      </trkpt>
      <trkpt lat="42.99787" lon="2.05329">
        <ele>625</ele>
        <time>2016-11-01T15:47:36.008Z</time>
      </trkpt>
      <trkpt lat="42.99797" lon="2.05325">
        <ele>625</ele>
        <time>2016-11-01T15:47:38.008Z</time>
      </trkpt>
      <trkpt lat="42.99807" lon="2.05326">
        <ele>625</ele>
        <time>2016-11-01T15:47:40.008Z</time>
      </trkpt>
      <trkpt lat="42.99812" lon="2.05325">
        <ele>625</ele>
        <time>2016-11-01T15:47:42.008Z</time>
      </trkpt>
      <trkpt lat="42.99815" lon="2.05317">
        <ele>625</ele>
        <time>2016-11-01T15:47:44.008Z</time>
      </trkpt>
      <trkpt lat="42.99818" lon="2.05306">
        <ele>625</ele>
        <time>2016-11-01T15:47:46.008Z</time>
      </trkpt>
      <trkpt lat="42.99824" lon="2.05293">
        <ele>625</ele>
        <time>2016-11-01T15:47:48.008Z</time>
      </trkpt>
      <trkpt lat="42.99831" lon="2.05283">
        <ele>625</ele>
        <time>2016-11-01T15:47:50.008Z</time>
      </trkpt>
      <trkpt lat="42.99839" lon="2.0528">
        <ele>625</ele>
        <time>2016-11-01T15:47:52.008Z</time>
      </trkpt>
      <trkpt lat="42.99843" lon="2.05279">
        <ele>624</ele>
        <time>2016-11-01T15:48:03.008Z</time>
      </trkpt>
      <trkpt lat="42.99847" lon="2.05274">
        <ele>624</ele>
        <time>2016-11-01T15:48:09.008Z</time>
      </trkpt>
      <trkpt lat="42.9985" lon="2.05271">
        <ele>626</ele>
        <time>2016-11-01T15:48:13.008Z</time>
      </trkpt>
      <trkpt lat="42.99853" lon="2.05266">
        <ele>626</ele>
        <time>2016-11-01T15:48:18.008Z</time>
      </trkpt>
      <trkpt lat="42.99858" lon="2.05262">
        <ele>628</ele>
        <time>2016-11-01T15:48:23.008Z</time>
      </trkpt>
      <trkpt lat="42.99861" lon="2.05258">
        <ele>628</ele>
        <time>2016-11-01T15:48:28.008Z</time>
      </trkpt>
      <trkpt lat="42.99864" lon="2.05252">
        <ele>629</ele>
        <time>2016-11-01T15:48:34.008Z</time>
      </trkpt>
      <trkpt lat="42.99868" lon="2.05249">
        <ele>631</ele>
        <time>2016-11-01T15:48:47.008Z</time>
      </trkpt>
      <trkpt lat="42.9987" lon="2.05253">
        <ele>630</ele>
        <time>2016-11-01T15:53:05.008Z</time>
      </trkpt>
      <trkpt lat="42.99864" lon="2.05258">
        <ele>630</ele>
        <time>2016-11-01T15:54:11.008Z</time>
      </trkpt>
      <trkpt lat="42.9986" lon="2.05263">
        <ele>630</ele>
        <time>2016-11-01T15:54:16.008Z</time>
      </trkpt>
      <trkpt lat="42.99856" lon="2.05268">
        <ele>630</ele>
        <time>2016-11-01T15:54:20.008Z</time>
      </trkpt>
      <trkpt lat="42.99852" lon="2.05272">
        <ele>628</ele>
        <time>2016-11-01T15:54:24.008Z</time>
      </trkpt>
      <trkpt lat="42.99847" lon="2.05275">
        <ele>628</ele>
        <time>2016-11-01T15:54:27.008Z</time>
      </trkpt>
      <trkpt lat="42.99843" lon="2.05281">
        <ele>626</ele>
        <time>2016-11-01T15:54:32.008Z</time>
      </trkpt>
      <trkpt lat="42.99839" lon="2.05286">
        <ele>624</ele>
        <time>2016-11-01T15:54:39.008Z</time>
      </trkpt>
      <trkpt lat="42.99834" lon="2.0528">
        <ele>622</ele>
        <time>2016-11-01T15:54:52.008Z</time>
      </trkpt>
      <trkpt lat="42.99835" lon="2.05272">
        <ele>622</ele>
        <time>2016-11-01T15:54:59.008Z</time>
      </trkpt>
      <trkpt lat="42.99838" lon="2.05263">
        <ele>622</ele>
        <time>2016-11-01T15:55:03.008Z</time>
      </trkpt>
      <trkpt lat="42.99842" lon="2.05254">
        <ele>622</ele>
        <time>2016-11-01T15:55:06.008Z</time>
      </trkpt>
      <trkpt lat="42.99845" lon="2.05247">
        <ele>622</ele>
        <time>2016-11-01T15:55:08.008Z</time>
      </trkpt>
      <trkpt lat="42.99848" lon="2.05239">
        <ele>622</ele>
        <time>2016-11-01T15:55:10.008Z</time>
      </trkpt>
      <trkpt lat="42.99852" lon="2.05231">
        <ele>623</ele>
        <time>2016-11-01T15:55:12.008Z</time>
      </trkpt>
      <trkpt lat="42.99855" lon="2.05222">
        <ele>623</ele>
        <time>2016-11-01T15:55:14.008Z</time>
      </trkpt>
      <trkpt lat="42.99859" lon="2.05214">
        <ele>623</ele>
        <time>2016-11-01T15:55:16.008Z</time>
      </trkpt>
      <trkpt lat="42.99862" lon="2.05205">
        <ele>623</ele>
        <time>2016-11-01T15:55:18.008Z</time>
      </trkpt>
      <trkpt lat="42.99866" lon="2.05197">
        <ele>623</ele>
        <time>2016-11-01T15:55:20.008Z</time>
      </trkpt>
      <trkpt lat="42.99869" lon="2.05189">
        <ele>623</ele>
        <time>2016-11-01T15:55:22.008Z</time>
      </trkpt>
      <trkpt lat="42.99872" lon="2.05181">
        <ele>623</ele>
        <time>2016-11-01T15:55:24.008Z</time>
      </trkpt>
      <trkpt lat="42.99876" lon="2.05173">
        <ele>623</ele>
        <time>2016-11-01T15:55:26.008Z</time>
      </trkpt>
      <trkpt lat="42.99879" lon="2.05165">
        <ele>623</ele>
        <time>2016-11-01T15:55:28.008Z</time>
      </trkpt>
      <trkpt lat="42.99883" lon="2.05156">
        <ele>623</ele>
        <time>2016-11-01T15:55:30.008Z</time>
      </trkpt>
      <trkpt lat="42.99886" lon="2.05147">
        <ele>624</ele>
        <time>2016-11-01T15:55:32.008Z</time>
      </trkpt>
      <trkpt lat="42.9989" lon="2.05137">
        <ele>624</ele>
        <time>2016-11-01T15:55:34.008Z</time>
      </trkpt>
      <trkpt lat="42.99895" lon="2.05126">
        <ele>624</ele>
        <time>2016-11-01T15:55:36.008Z</time>
      </trkpt>
      <trkpt lat="42.99897" lon="2.0512">
        <ele>624</ele>
        <time>2016-11-01T15:55:37.008Z</time>
      </trkpt>
      <trkpt lat="42.99899" lon="2.05115">
        <ele>624</ele>
        <time>2016-11-01T15:55:38.008Z</time>
      </trkpt>
      <trkpt lat="42.99902" lon="2.05109">
        <ele>624</ele>
        <time>2016-11-01T15:55:39.008Z</time>
      </trkpt>
      <trkpt lat="42.99904" lon="2.05103">
        <ele>624</ele>
        <time>2016-11-01T15:55:40.008Z</time>
      </trkpt>
      <trkpt lat="42.99906" lon="2.05097">
        <ele>624</ele>
        <time>2016-11-01T15:55:41.008Z</time>
      </trkpt>
      <trkpt lat="42.99908" lon="2.05091">
        <ele>624</ele>
        <time>2016-11-01T15:55:42.008Z</time>
      </trkpt>
      <trkpt lat="42.9991" lon="2.05085">
        <ele>624</ele>
        <time>2016-11-01T15:55:43.008Z</time>
      </trkpt>
      <trkpt lat="42.99912" lon="2.05078">
        <ele>624</ele>
        <time>2016-11-01T15:55:44.008Z</time>
      </trkpt>
      <trkpt lat="42.99914" lon="2.05071">
        <ele>624</ele>
        <time>2016-11-01T15:55:45.008Z</time>
      </trkpt>
      <trkpt lat="42.99915" lon="2.05064">
        <ele>624</ele>
        <time>2016-11-01T15:55:46.008Z</time>
      </trkpt>
      <trkpt lat="42.99917" lon="2.05056">
        <ele>624</ele>
        <time>2016-11-01T15:55:47.008Z</time>
      </trkpt>
      <trkpt lat="42.99919" lon="2.05049">
        <ele>624</ele>
        <time>2016-11-01T15:55:48.008Z</time>
      </trkpt>
      <trkpt lat="42.99922" lon="2.05041">
        <ele>624</ele>
        <time>2016-11-01T15:55:49.008Z</time>
      </trkpt>
      <trkpt lat="42.99925" lon="2.05033">
        <ele>624</ele>
        <time>2016-11-01T15:55:50.008Z</time>
      </trkpt>
      <trkpt lat="42.99928" lon="2.05025">
        <ele>623.3460096</ele>
        <time>2016-11-01T15:55:51.008Z</time>
      </trkpt>
      <trkpt lat="42.99932" lon="2.05018">
        <ele>621</ele>
        <time>2016-11-01T15:55:52.008Z</time>
      </trkpt>
      <trkpt lat="42.99936" lon="2.05011">
        <ele>621</ele>
        <time>2016-11-01T15:55:53.008Z</time>
      </trkpt>
      <trkpt lat="42.99942" lon="2.05005">
        <ele>621</ele>
        <time>2016-11-01T15:55:54.008Z</time>
      </trkpt>
      <trkpt lat="42.99947" lon="2.04999">
        <ele>621</ele>
        <time>2016-11-01T15:55:55.008Z</time>
      </trkpt>
      <trkpt lat="42.99954" lon="2.04994">
        <ele>620.7820032</ele>
        <time>2016-11-01T15:55:56.008Z</time>
      </trkpt>
      <trkpt lat="42.9996" lon="2.0499">
        <ele>620</ele>
        <time>2016-11-01T15:55:57.008Z</time>
      </trkpt>
      <trkpt lat="42.99974" lon="2.04982">
        <ele>620</ele>
        <time>2016-11-01T15:55:59.008Z</time>
      </trkpt>
      <trkpt lat="42.99981" lon="2.04978">
        <ele>620</ele>
        <time>2016-11-01T15:56:00.008Z</time>
      </trkpt>
      <trkpt lat="42.99988" lon="2.04973">
        <ele>619.3460096</ele>
        <time>2016-11-01T15:56:01.008Z</time>
      </trkpt>
      <trkpt lat="42.99994" lon="2.04968">
        <ele>617</ele>
        <time>2016-11-01T15:56:02.008Z</time>
      </trkpt>
      <trkpt lat="43" lon="2.04962">
        <ele>617</ele>
        <time>2016-11-01T15:56:03.008Z</time>
      </trkpt>
      <trkpt lat="43.00006" lon="2.04954">
        <ele>617</ele>
        <time>2016-11-01T15:56:04.008Z</time>
      </trkpt>
      <trkpt lat="43.00011" lon="2.04946">
        <ele>617</ele>
        <time>2016-11-01T15:56:05.008Z</time>
      </trkpt>
      <trkpt lat="43.00016" lon="2.04938">
        <ele>617</ele>
        <time>2016-11-01T15:56:06.008Z</time>
      </trkpt>
      <trkpt lat="43.00021" lon="2.04929">
        <ele>617</ele>
        <time>2016-11-01T15:56:07.008Z</time>
      </trkpt>
      <trkpt lat="43.00025" lon="2.04921">
        <ele>617</ele>
        <time>2016-11-01T15:56:08.008Z</time>
      </trkpt>
      <trkpt lat="43.0003" lon="2.04913">
        <ele>617</ele>
        <time>2016-11-01T15:56:09.008Z</time>
      </trkpt>
      <trkpt lat="43.00035" lon="2.04905">
        <ele>617</ele>
        <time>2016-11-01T15:56:10.008Z</time>
      </trkpt>
      <trkpt lat="43.00039" lon="2.04897">
        <ele>616.7820032</ele>
        <time>2016-11-01T15:56:11.008Z</time>
      </trkpt>
      <trkpt lat="43.00043" lon="2.04889">
        <ele>616</ele>
        <time>2016-11-01T15:56:12.008Z</time>
      </trkpt>
      <trkpt lat="43.00047" lon="2.04881">
        <ele>616</ele>
        <time>2016-11-01T15:56:13.008Z</time>
      </trkpt>
      <trkpt lat="43.00051" lon="2.04873">
        <ele>616</ele>
        <time>2016-11-01T15:56:14.008Z</time>
      </trkpt>
      <trkpt lat="43.00054" lon="2.04865">
        <ele>616</ele>
        <time>2016-11-01T15:56:15.008Z</time>
      </trkpt>
      <trkpt lat="43.00058" lon="2.04858">
        <ele>616</ele>
        <time>2016-11-01T15:56:16.008Z</time>
      </trkpt>
      <trkpt lat="43.00062" lon="2.0485">
        <ele>616</ele>
        <time>2016-11-01T15:56:17.008Z</time>
      </trkpt>
      <trkpt lat="43.00066" lon="2.04843">
        <ele>616</ele>
        <time>2016-11-01T15:56:18.008Z</time>
      </trkpt>
      <trkpt lat="43.0007" lon="2.04835">
        <ele>616</ele>
        <time>2016-11-01T15:56:19.008Z</time>
      </trkpt>
      <trkpt lat="43.00078" lon="2.04819">
        <ele>615.5640064</ele>
        <time>2016-11-01T15:56:21.008Z</time>
      </trkpt>
      <trkpt lat="43.00086" lon="2.04804">
        <ele>614</ele>
        <time>2016-11-01T15:56:23.008Z</time>
      </trkpt>
      <trkpt lat="43.0009" lon="2.04796">
        <ele>614</ele>
        <time>2016-11-01T15:56:24.008Z</time>
      </trkpt>
      <trkpt lat="43.00094" lon="2.04789">
        <ele>614</ele>
        <time>2016-11-01T15:56:25.008Z</time>
      </trkpt>
      <trkpt lat="43.00098" lon="2.04781">
        <ele>614</ele>
        <time>2016-11-01T15:56:26.008Z</time>
      </trkpt>
      <trkpt lat="43.00102" lon="2.04774">
        <ele>614</ele>
        <time>2016-11-01T15:56:27.008Z</time>
      </trkpt>
      <trkpt lat="43.00106" lon="2.04766">
        <ele>614</ele>
        <time>2016-11-01T15:56:28.008Z</time>
      </trkpt>
      <trkpt lat="43.0011" lon="2.04759">
        <ele>614</ele>
        <time>2016-11-01T15:56:29.008Z</time>
      </trkpt>
      <trkpt lat="43.00115" lon="2.04752">
        <ele>614</ele>
        <time>2016-11-01T15:56:30.008Z</time>
      </trkpt>
      <trkpt lat="43.00118" lon="2.04745">
        <ele>613.7820032</ele>
        <time>2016-11-01T15:56:31.008Z</time>
      </trkpt>
      <trkpt lat="43.00125" lon="2.0473">
        <ele>613</ele>
        <time>2016-11-01T15:56:33.008Z</time>
      </trkpt>
      <trkpt lat="43.00131" lon="2.04706">
        <ele>613</ele>
        <time>2016-11-01T15:56:36.008Z</time>
      </trkpt>
      <trkpt lat="43.00135" lon="2.04692">
        <ele>613</ele>
        <time>2016-11-01T15:56:38.008Z</time>
      </trkpt>
      <trkpt lat="43.00138" lon="2.04678">
        <ele>613</ele>
        <time>2016-11-01T15:56:40.008Z</time>
      </trkpt>
      <trkpt lat="43.00141" lon="2.04663">
        <ele>612</ele>
        <time>2016-11-01T15:56:42.008Z</time>
      </trkpt>
      <trkpt lat="43.00144" lon="2.04649">
        <ele>612</ele>
        <time>2016-11-01T15:56:44.008Z</time>
      </trkpt>
      <trkpt lat="43.00147" lon="2.04634">
        <ele>612</ele>
        <time>2016-11-01T15:56:46.008Z</time>
      </trkpt>
      <trkpt lat="43.00149" lon="2.04619">
        <ele>612</ele>
        <time>2016-11-01T15:56:48.008Z</time>
      </trkpt>
      <trkpt lat="43.00148" lon="2.04606">
        <ele>612</ele>
        <time>2016-11-01T15:56:50.008Z</time>
      </trkpt>
      <trkpt lat="43.00146" lon="2.04589">
        <ele>610</ele>
        <time>2016-11-01T15:56:52.008Z</time>
      </trkpt>
      <trkpt lat="43.00144" lon="2.04569">
        <ele>610</ele>
        <time>2016-11-01T15:56:54.008Z</time>
      </trkpt>
      <trkpt lat="43.00139" lon="2.04549">
        <ele>610</ele>
        <time>2016-11-01T15:56:56.008Z</time>
      </trkpt>
      <trkpt lat="43.00132" lon="2.04534">
        <ele>610</ele>
        <time>2016-11-01T15:56:58.008Z</time>
      </trkpt>
      <trkpt lat="43.00127" lon="2.04519">
        <ele>610</ele>
        <time>2016-11-01T15:57:00.008Z</time>
      </trkpt>
      <trkpt lat="43.00124" lon="2.04506">
        <ele>607</ele>
        <time>2016-11-01T15:57:03.008Z</time>
      </trkpt>
      <trkpt lat="43.00119" lon="2.04494">
        <ele>607.2179968</ele>
        <time>2016-11-01T15:57:06.008Z</time>
      </trkpt>
      <trkpt lat="43.00113" lon="2.0448">
        <ele>608</ele>
        <time>2016-11-01T15:57:10.008Z</time>
      </trkpt>
      <trkpt lat="43.00106" lon="2.04469">
        <ele>609</ele>
        <time>2016-11-01T15:57:13.008Z</time>
      </trkpt>
      <trkpt lat="43.00096" lon="2.04461">
        <ele>609</ele>
        <time>2016-11-01T15:57:15.008Z</time>
      </trkpt>
      <trkpt lat="43.00087" lon="2.0445">
        <ele>607</ele>
        <time>2016-11-01T15:57:17.008Z</time>
      </trkpt>
      <trkpt lat="43.00079" lon="2.04438">
        <ele>607</ele>
        <time>2016-11-01T15:57:19.008Z</time>
      </trkpt>
      <trkpt lat="43.00073" lon="2.04425">
        <ele>606.3460096</ele>
        <time>2016-11-01T15:57:21.008Z</time>
      </trkpt>
      <trkpt lat="43.00066" lon="2.0441">
        <ele>602.7820032</ele>
        <time>2016-11-01T15:57:23.008Z</time>
      </trkpt>
      <trkpt lat="43.00062" lon="2.04395">
        <ele>599.7820032</ele>
        <time>2016-11-01T15:57:25.008Z</time>
      </trkpt>
      <trkpt lat="43.00059" lon="2.04375">
        <ele>598.7820032</ele>
        <time>2016-11-01T15:57:28.008Z</time>
      </trkpt>
      <trkpt lat="43.0006" lon="2.04359">
        <ele>597</ele>
        <time>2016-11-01T15:57:30.008Z</time>
      </trkpt>
      <trkpt lat="43.00061" lon="2.04339">
        <ele>595.78989966901</ele>
        <time>2016-11-01T15:57:32.008Z</time>
      </trkpt>
      <trkpt lat="43.00058" lon="2.04316">
        <ele>592.5640064</ele>
        <time>2016-11-01T15:57:34.008Z</time>
      </trkpt>
      <trkpt lat="43.00054" lon="2.04295">
        <ele>590</ele>
        <time>2016-11-01T15:57:36.008Z</time>
      </trkpt>
      <trkpt lat="43.00051" lon="2.04275">
        <ele>589.7820032</ele>
        <time>2016-11-01T15:57:38.008Z</time>
      </trkpt>
      <trkpt lat="43.0005" lon="2.04255">
        <ele>587.5640064</ele>
        <time>2016-11-01T15:57:40.008Z</time>
      </trkpt>
      <trkpt lat="43.00049" lon="2.04236">
        <ele>585.7820032</ele>
        <time>2016-11-01T15:57:42.008Z</time>
      </trkpt>
      <trkpt lat="43.00053" lon="2.04217">
        <ele>583</ele>
        <time>2016-11-01T15:57:44.008Z</time>
      </trkpt>
      <trkpt lat="43.0006" lon="2.04197">
        <ele>581.7820032</ele>
        <time>2016-11-01T15:57:46.008Z</time>
      </trkpt>
      <trkpt lat="43.00073" lon="2.04182">
        <ele>580.7820032</ele>
        <time>2016-11-01T15:57:48.008Z</time>
      </trkpt>
      <trkpt lat="43.00086" lon="2.04172">
        <ele>579.7820032</ele>
        <time>2016-11-01T15:57:50.008Z</time>
      </trkpt>
      <trkpt lat="43.00098" lon="2.04163">
        <ele>578</ele>
        <time>2016-11-01T15:57:52.008Z</time>
      </trkpt>
      <trkpt lat="43.00113" lon="2.0416">
        <ele>576.82834767885</ele>
        <time>2016-11-01T15:57:54.008Z</time>
      </trkpt>
      <trkpt lat="43.00127" lon="2.04152">
        <ele>575.7820032</ele>
        <time>2016-11-01T15:57:56.008Z</time>
      </trkpt>
      <trkpt lat="43.00141" lon="2.04146">
        <ele>573.2179968</ele>
        <time>2016-11-01T15:57:58.008Z</time>
      </trkpt>
      <trkpt lat="43.00155" lon="2.04142">
        <ele>572</ele>
        <time>2016-11-01T15:58:00.008Z</time>
      </trkpt>
      <trkpt lat="43.00167" lon="2.04137">
        <ele>572</ele>
        <time>2016-11-01T15:58:02.008Z</time>
      </trkpt>
      <trkpt lat="43.00178" lon="2.04133">
        <ele>570.56832180062</ele>
        <time>2016-11-01T15:58:04.008Z</time>
      </trkpt>
      <trkpt lat="43.00183" lon="2.04121">
        <ele>566.7820032</ele>
        <time>2016-11-01T15:58:08.008Z</time>
      </trkpt>
      <trkpt lat="43.00176" lon="2.04112">
        <ele>563.7820032</ele>
        <time>2016-11-01T15:58:10.008Z</time>
      </trkpt>
      <trkpt lat="43.00166" lon="2.04099">
        <ele>563</ele>
        <time>2016-11-01T15:58:12.008Z</time>
      </trkpt>
      <trkpt lat="43.00157" lon="2.04082">
        <ele>562.5640064</ele>
        <time>2016-11-01T15:58:14.008Z</time>
      </trkpt>
      <trkpt lat="43.00155" lon="2.04064">
        <ele>561</ele>
        <time>2016-11-01T15:58:16.008Z</time>
      </trkpt>
      <trkpt lat="43.00157" lon="2.0404">
        <ele>559.7820032</ele>
        <time>2016-11-01T15:58:18.008Z</time>
      </trkpt>
      <trkpt lat="43.00157" lon="2.0402">
        <ele>559</ele>
        <time>2016-11-01T15:58:20.008Z</time>
      </trkpt>
      <trkpt lat="43.0016" lon="2.04003">
        <ele>559</ele>
        <time>2016-11-01T15:58:22.008Z</time>
      </trkpt>
      <trkpt lat="43.00169" lon="2.0399">
        <ele>559</ele>
        <time>2016-11-01T15:58:25.008Z</time>
      </trkpt>
      <trkpt lat="43.00177" lon="2.03981">
        <ele>561</ele>
        <time>2016-11-01T15:58:28.008Z</time>
      </trkpt>
      <trkpt lat="43.00183" lon="2.03975">
        <ele>561.4359936</ele>
        <time>2016-11-01T15:58:31.008Z</time>
      </trkpt>
      <trkpt lat="43.00192" lon="2.03973">
        <ele>563</ele>
        <time>2016-11-01T15:58:35.008Z</time>
      </trkpt>
      <trkpt lat="43.00198" lon="2.0397">
        <ele>566</ele>
        <time>2016-11-01T15:58:38.008Z</time>
      </trkpt>
      <trkpt lat="43.00204" lon="2.03964">
        <ele>566.6539904</ele>
        <time>2016-11-01T15:58:41.008Z</time>
      </trkpt>
      <trkpt lat="43.00209" lon="2.0396">
        <ele>571.2179968</ele>
        <time>2016-11-01T15:58:44.008Z</time>
      </trkpt>
      <trkpt lat="43.00215" lon="2.03956">
        <ele>572</ele>
        <time>2016-11-01T15:58:47.008Z</time>
      </trkpt>
      <trkpt lat="43.0022" lon="2.03953">
        <ele>573</ele>
        <time>2016-11-01T15:58:50.008Z</time>
      </trkpt>
      <trkpt lat="43.00227" lon="2.03949">
        <ele>573</ele>
        <time>2016-11-01T15:58:54.008Z</time>
      </trkpt>
      <trkpt lat="43.00236" lon="2.03938">
        <ele>574</ele>
        <time>2016-11-01T15:59:00.008Z</time>
      </trkpt>
      <trkpt lat="43.00242" lon="2.03927">
        <ele>573</ele>
        <time>2016-11-01T15:59:26.008Z</time>
      </trkpt>
      <trkpt lat="43.0025" lon="2.03918">
        <ele>573</ele>
        <time>2016-11-01T15:59:30.008Z</time>
      </trkpt>
      <trkpt lat="43.00259" lon="2.03908">
        <ele>573</ele>
        <time>2016-11-01T15:59:33.008Z</time>
      </trkpt>
      <trkpt lat="43.00268" lon="2.03897">
        <ele>573</ele>
        <time>2016-11-01T15:59:36.008Z</time>
      </trkpt>
      <trkpt lat="43.00277" lon="2.03884">
        <ele>573</ele>
        <time>2016-11-01T15:59:39.008Z</time>
      </trkpt>
      <trkpt lat="43.00284" lon="2.03874">
        <ele>572.7820032</ele>
        <time>2016-11-01T15:59:41.008Z</time>
      </trkpt>
      <trkpt lat="43.00292" lon="2.03862">
        <ele>572</ele>
        <time>2016-11-01T15:59:43.008Z</time>
      </trkpt>
      <trkpt lat="43.003" lon="2.03848">
        <ele>572</ele>
        <time>2016-11-01T15:59:45.008Z</time>
      </trkpt>
      <trkpt lat="43.00307" lon="2.03835">
        <ele>572</ele>
        <time>2016-11-01T15:59:47.008Z</time>
      </trkpt>
      <trkpt lat="43.00314" lon="2.03822">
        <ele>572</ele>
        <time>2016-11-01T15:59:49.008Z</time>
      </trkpt>
      <trkpt lat="43.00321" lon="2.0381">
        <ele>571.5640064</ele>
        <time>2016-11-01T15:59:51.008Z</time>
      </trkpt>
      <trkpt lat="43.00327" lon="2.03796">
        <ele>570</ele>
        <time>2016-11-01T15:59:53.008Z</time>
      </trkpt>
      <trkpt lat="43.00333" lon="2.03783">
        <ele>570</ele>
        <time>2016-11-01T15:59:55.008Z</time>
      </trkpt>
      <trkpt lat="43.0034" lon="2.03772">
        <ele>570</ele>
        <time>2016-11-01T15:59:57.008Z</time>
      </trkpt>
      <trkpt lat="43.00346" lon="2.03759">
        <ele>570</ele>
        <time>2016-11-01T15:59:59.008Z</time>
      </trkpt>
      <trkpt lat="43.00352" lon="2.03747">
        <ele>569.7820032</ele>
        <time>2016-11-01T16:00:01.008Z</time>
      </trkpt>
      <trkpt lat="43.0036" lon="2.03732">
        <ele>569</ele>
        <time>2016-11-01T16:00:04.008Z</time>
      </trkpt>
      <trkpt lat="43.00369" lon="2.03715">
        <ele>569</ele>
        <time>2016-11-01T16:00:07.008Z</time>
      </trkpt>
      <trkpt lat="43.00378" lon="2.037">
        <ele>569</ele>
        <time>2016-11-01T16:00:10.008Z</time>
      </trkpt>
      <trkpt lat="43.00388" lon="2.03685">
        <ele>570</ele>
        <time>2016-11-01T16:00:13.008Z</time>
      </trkpt>
      <trkpt lat="43.00402" lon="2.03676">
        <ele>570</ele>
        <time>2016-11-01T16:00:16.008Z</time>
      </trkpt>
      <trkpt lat="43.0042" lon="2.03669">
        <ele>570</ele>
        <time>2016-11-01T16:00:18.008Z</time>
      </trkpt>
      <trkpt lat="43.00436" lon="2.03662">
        <ele>570</ele>
        <time>2016-11-01T16:00:20.008Z</time>
      </trkpt>
      <trkpt lat="43.00452" lon="2.0366">
        <ele>566</ele>
        <time>2016-11-01T16:00:22.008Z</time>
      </trkpt>
      <trkpt lat="43.00468" lon="2.03658">
        <ele>566</ele>
        <time>2016-11-01T16:00:24.008Z</time>
      </trkpt>
      <trkpt lat="43.0048" lon="2.03654">
        <ele>565.3460096</ele>
        <time>2016-11-01T16:00:26.008Z</time>
      </trkpt>
      <trkpt lat="43.00491" lon="2.03647">
        <ele>563</ele>
        <time>2016-11-01T16:00:28.008Z</time>
      </trkpt>
      <trkpt lat="43.00504" lon="2.03641">
        <ele>563</ele>
        <time>2016-11-01T16:00:30.008Z</time>
      </trkpt>
      <trkpt lat="43.00515" lon="2.03633">
        <ele>563</ele>
        <time>2016-11-01T16:00:32.008Z</time>
      </trkpt>
      <trkpt lat="43.00523" lon="2.03622">
        <ele>563</ele>
        <time>2016-11-01T16:00:34.008Z</time>
      </trkpt>
      <trkpt lat="43.00531" lon="2.03608">
        <ele>562.7820032</ele>
        <time>2016-11-01T16:00:36.008Z</time>
      </trkpt>
      <trkpt lat="43.00537" lon="2.03593">
        <ele>562</ele>
        <time>2016-11-01T16:00:38.008Z</time>
      </trkpt>
      <trkpt lat="43.00541" lon="2.03576">
        <ele>562</ele>
        <time>2016-11-01T16:00:40.008Z</time>
      </trkpt>
      <trkpt lat="43.00544" lon="2.0356">
        <ele>562</ele>
        <time>2016-11-01T16:00:42.008Z</time>
      </trkpt>
      <trkpt lat="43.00546" lon="2.03544">
        <ele>562</ele>
        <time>2016-11-01T16:00:44.008Z</time>
      </trkpt>
      <trkpt lat="43.00551" lon="2.03529">
        <ele>562</ele>
        <time>2016-11-01T16:00:46.008Z</time>
      </trkpt>
      <trkpt lat="43.00554" lon="2.03514">
        <ele>562</ele>
        <time>2016-11-01T16:00:48.008Z</time>
      </trkpt>
      <trkpt lat="43.00557" lon="2.03499">
        <ele>562</ele>
        <time>2016-11-01T16:00:50.008Z</time>
      </trkpt>
      <trkpt lat="43.00559" lon="2.03479">
        <ele>562</ele>
        <time>2016-11-01T16:00:53.008Z</time>
      </trkpt>
      <trkpt lat="43.00563" lon="2.03464">
        <ele>562</ele>
        <time>2016-11-01T16:00:55.008Z</time>
      </trkpt>
      <trkpt lat="43.00571" lon="2.0345">
        <ele>562</ele>
        <time>2016-11-01T16:00:57.008Z</time>
      </trkpt>
      <trkpt lat="43.00581" lon="2.0344">
        <ele>562</ele>
        <time>2016-11-01T16:00:59.008Z</time>
      </trkpt>
      <trkpt lat="43.00593" lon="2.03432">
        <ele>561.5640064</ele>
        <time>2016-11-01T16:01:01.008Z</time>
      </trkpt>
      <trkpt lat="43.00605" lon="2.03429">
        <ele>560</ele>
        <time>2016-11-01T16:01:03.008Z</time>
      </trkpt>
      <trkpt lat="43.00618" lon="2.03426">
        <ele>560</ele>
        <time>2016-11-01T16:01:05.008Z</time>
      </trkpt>
      <trkpt lat="43.00627" lon="2.03416">
        <ele>560</ele>
        <time>2016-11-01T16:01:07.008Z</time>
      </trkpt>
      <trkpt lat="43.00625" lon="2.03399">
        <ele>560</ele>
        <time>2016-11-01T16:01:09.008Z</time>
      </trkpt>
      <trkpt lat="43.00625" lon="2.03375">
        <ele>559.5640064</ele>
        <time>2016-11-01T16:01:11.008Z</time>
      </trkpt>
      <trkpt lat="43.00627" lon="2.03362">
        <ele>558</ele>
        <time>2016-11-01T16:01:12.008Z</time>
      </trkpt>
      <trkpt lat="43.00634" lon="2.03343">
        <ele>558</ele>
        <time>2016-11-01T16:01:14.008Z</time>
      </trkpt>
      <trkpt lat="43.00644" lon="2.03331">
        <ele>558</ele>
        <time>2016-11-01T16:01:16.008Z</time>
      </trkpt>
      <trkpt lat="43.00658" lon="2.03324">
        <ele>558</ele>
        <time>2016-11-01T16:01:18.008Z</time>
      </trkpt>
      <trkpt lat="43.00671" lon="2.03316">
        <ele>558</ele>
        <time>2016-11-01T16:01:20.008Z</time>
      </trkpt>
      <trkpt lat="43.00683" lon="2.03307">
        <ele>554</ele>
        <time>2016-11-01T16:01:22.008Z</time>
      </trkpt>
      <trkpt lat="43.00694" lon="2.03295">
        <ele>554</ele>
        <time>2016-11-01T16:01:24.008Z</time>
      </trkpt>
      <trkpt lat="43.00704" lon="2.0328">
        <ele>554</ele>
        <time>2016-11-01T16:01:26.008Z</time>
      </trkpt>
      <trkpt lat="43.00709" lon="2.03274">
        <ele>554</ele>
        <time>2016-11-01T16:01:27.008Z</time>
      </trkpt>
      <trkpt lat="43.00713" lon="2.03267">
        <ele>554</ele>
        <time>2016-11-01T16:01:28.008Z</time>
      </trkpt>
      <trkpt lat="43.00718" lon="2.0326">
        <ele>554</ele>
        <time>2016-11-01T16:01:29.008Z</time>
      </trkpt>
      <trkpt lat="43.00723" lon="2.03253">
        <ele>554</ele>
        <time>2016-11-01T16:01:30.008Z</time>
      </trkpt>
      <trkpt lat="43.00728" lon="2.03245">
        <ele>553.5640064</ele>
        <time>2016-11-01T16:01:31.008Z</time>
      </trkpt>
      <trkpt lat="43.00732" lon="2.03237">
        <ele>552</ele>
        <time>2016-11-01T16:01:32.008Z</time>
      </trkpt>
      <trkpt lat="43.00737" lon="2.03227">
        <ele>552</ele>
        <time>2016-11-01T16:01:33.008Z</time>
      </trkpt>
      <trkpt lat="43.0074" lon="2.03218">
        <ele>552</ele>
        <time>2016-11-01T16:01:34.008Z</time>
      </trkpt>
      <trkpt lat="43.00743" lon="2.03207">
        <ele>552</ele>
        <time>2016-11-01T16:01:35.008Z</time>
      </trkpt>
      <trkpt lat="43.00745" lon="2.03197">
        <ele>551.5640064</ele>
        <time>2016-11-01T16:01:36.008Z</time>
      </trkpt>
      <trkpt lat="43.00747" lon="2.03186">
        <ele>550</ele>
        <time>2016-11-01T16:01:37.008Z</time>
      </trkpt>
      <trkpt lat="43.00754" lon="2.03165">
        <ele>550</ele>
        <time>2016-11-01T16:01:39.008Z</time>
      </trkpt>
      <trkpt lat="43.00758" lon="2.03154">
        <ele>550</ele>
        <time>2016-11-01T16:01:40.008Z</time>
      </trkpt>
      <trkpt lat="43.00761" lon="2.03144">
        <ele>549.5640064</ele>
        <time>2016-11-01T16:01:41.008Z</time>
      </trkpt>
      <trkpt lat="43.00764" lon="2.03133">
        <ele>548</ele>
        <time>2016-11-01T16:01:42.008Z</time>
      </trkpt>
      <trkpt lat="43.00766" lon="2.03123">
        <ele>548</ele>
        <time>2016-11-01T16:01:43.008Z</time>
      </trkpt>
      <trkpt lat="43.00768" lon="2.03113">
        <ele>548</ele>
        <time>2016-11-01T16:01:44.008Z</time>
      </trkpt>
      <trkpt lat="43.0077" lon="2.03094">
        <ele>547.7820032</ele>
        <time>2016-11-01T16:01:46.008Z</time>
      </trkpt>
      <trkpt lat="43.00769" lon="2.03075">
        <ele>547</ele>
        <time>2016-11-01T16:01:48.008Z</time>
      </trkpt>
      <trkpt lat="43.00766" lon="2.03058">
        <ele>547</ele>
        <time>2016-11-01T16:01:50.008Z</time>
      </trkpt>
      <trkpt lat="43.00762" lon="2.03041">
        <ele>546</ele>
        <time>2016-11-01T16:01:52.008Z</time>
      </trkpt>
      <trkpt lat="43.0076" lon="2.03025">
        <ele>546</ele>
        <time>2016-11-01T16:01:54.008Z</time>
      </trkpt>
      <trkpt lat="43.0076" lon="2.03009">
        <ele>546</ele>
        <time>2016-11-01T16:01:56.008Z</time>
      </trkpt>
      <trkpt lat="43.00761" lon="2.02994">
        <ele>546</ele>
        <time>2016-11-01T16:01:58.008Z</time>
      </trkpt>
      <trkpt lat="43.00765" lon="2.02979">
        <ele>546</ele>
        <time>2016-11-01T16:02:00.008Z</time>
      </trkpt>
      <trkpt lat="43.00768" lon="2.02971">
        <ele>545.7820032</ele>
        <time>2016-11-01T16:02:01.008Z</time>
      </trkpt>
      <trkpt lat="43.0077" lon="2.02963">
        <ele>545</ele>
        <time>2016-11-01T16:02:02.008Z</time>
      </trkpt>
      <trkpt lat="43.00772" lon="2.02955">
        <ele>545</ele>
        <time>2016-11-01T16:02:03.008Z</time>
      </trkpt>
      <trkpt lat="43.00774" lon="2.02947">
        <ele>545</ele>
        <time>2016-11-01T16:02:04.008Z</time>
      </trkpt>
      <trkpt lat="43.00777" lon="2.02931">
        <ele>545</ele>
        <time>2016-11-01T16:02:06.008Z</time>
      </trkpt>
      <trkpt lat="43.0078" lon="2.02915">
        <ele>545</ele>
        <time>2016-11-01T16:02:08.008Z</time>
      </trkpt>
      <trkpt lat="43.00781" lon="2.02899">
        <ele>545</ele>
        <time>2016-11-01T16:02:10.008Z</time>
      </trkpt>
      <trkpt lat="43.00783" lon="2.02884">
        <ele>545</ele>
        <time>2016-11-01T16:02:12.008Z</time>
      </trkpt>
      <trkpt lat="43.00784" lon="2.02868">
        <ele>545</ele>
        <time>2016-11-01T16:02:14.008Z</time>
      </trkpt>
      <trkpt lat="43.00784" lon="2.02853">
        <ele>545</ele>
        <time>2016-11-01T16:02:16.008Z</time>
      </trkpt>
      <trkpt lat="43.00783" lon="2.02836">
        <ele>545</ele>
        <time>2016-11-01T16:02:18.008Z</time>
      </trkpt>
      <trkpt lat="43.00781" lon="2.02818">
        <ele>545</ele>
        <time>2016-11-01T16:02:20.008Z</time>
      </trkpt>
      <trkpt lat="43.00776" lon="2.028">
        <ele>544</ele>
        <time>2016-11-01T16:02:22.008Z</time>
      </trkpt>
      <trkpt lat="43.00771" lon="2.02781">
        <ele>544</ele>
        <time>2016-11-01T16:02:24.008Z</time>
      </trkpt>
      <trkpt lat="43.00766" lon="2.02766">
        <ele>544</ele>
        <time>2016-11-01T16:02:26.008Z</time>
      </trkpt>
      <trkpt lat="43.00763" lon="2.0276">
        <ele>544</ele>
        <time>2016-11-01T16:02:27.008Z</time>
      </trkpt>
      <trkpt lat="43.00757" lon="2.0275">
        <ele>544</ele>
        <time>2016-11-01T16:02:29.008Z</time>
      </trkpt>
      <trkpt lat="43.00753" lon="2.02741">
        <ele>543.3460096</ele>
        <time>2016-11-01T16:02:31.008Z</time>
      </trkpt>
      <trkpt lat="43.00748" lon="2.02734">
        <ele>541</ele>
        <time>2016-11-01T16:02:33.008Z</time>
      </trkpt>
      <trkpt lat="43.0074" lon="2.02728">
        <ele>541</ele>
        <time>2016-11-01T16:02:35.008Z</time>
      </trkpt>
      <trkpt lat="43.00731" lon="2.02723">
        <ele>540</ele>
        <time>2016-11-01T16:02:37.008Z</time>
      </trkpt>
      <trkpt lat="43.00722" lon="2.02718">
        <ele>540</ele>
        <time>2016-11-01T16:02:39.008Z</time>
      </trkpt>
      <trkpt lat="43.00713" lon="2.02713">
        <ele>539.7820032</ele>
        <time>2016-11-01T16:02:41.008Z</time>
      </trkpt>
      <trkpt lat="43.00698" lon="2.02705">
        <ele>539</ele>
        <time>2016-11-01T16:02:44.008Z</time>
      </trkpt>
      <trkpt lat="43.00688" lon="2.02699">
        <ele>539</ele>
        <time>2016-11-01T16:02:46.008Z</time>
      </trkpt>
      <trkpt lat="43.00678" lon="2.02695">
        <ele>539</ele>
        <time>2016-11-01T16:02:48.008Z</time>
      </trkpt>
      <trkpt lat="43.00668" lon="2.0269">
        <ele>539</ele>
        <time>2016-11-01T16:02:50.008Z</time>
      </trkpt>
      <trkpt lat="43.00658" lon="2.02686">
        <ele>539</ele>
        <time>2016-11-01T16:02:52.008Z</time>
      </trkpt>
      <trkpt lat="43.00647" lon="2.02681">
        <ele>539</ele>
        <time>2016-11-01T16:02:54.008Z</time>
      </trkpt>
      <trkpt lat="43.00637" lon="2.02678">
        <ele>539</ele>
        <time>2016-11-01T16:02:56.008Z</time>
      </trkpt>
      <trkpt lat="43.00627" lon="2.02674">
        <ele>539</ele>
        <time>2016-11-01T16:02:58.008Z</time>
      </trkpt>
      <trkpt lat="43.00618" lon="2.0267">
        <ele>539</ele>
        <time>2016-11-01T16:03:00.008Z</time>
      </trkpt>
      <trkpt lat="43.00609" lon="2.02666">
        <ele>540</ele>
        <time>2016-11-01T16:03:02.008Z</time>
      </trkpt>
      <trkpt lat="43.00595" lon="2.02659">
        <ele>540</ele>
        <time>2016-11-01T16:03:05.008Z</time>
      </trkpt>
      <trkpt lat="43.00586" lon="2.02654">
        <ele>540</ele>
        <time>2016-11-01T16:03:07.008Z</time>
      </trkpt>
      <trkpt lat="43.00577" lon="2.02649">
        <ele>540</ele>
        <time>2016-11-01T16:03:09.008Z</time>
      </trkpt>
      <trkpt lat="43.00567" lon="2.02645">
        <ele>540.2179968</ele>
        <time>2016-11-01T16:03:11.008Z</time>
      </trkpt>
      <trkpt lat="43.00558" lon="2.02641">
        <ele>541</ele>
        <time>2016-11-01T16:03:13.008Z</time>
      </trkpt>
      <trkpt lat="43.00544" lon="2.02637">
        <ele>541</ele>
        <time>2016-11-01T16:03:16.008Z</time>
      </trkpt>
      <trkpt lat="43.00534" lon="2.02635">
        <ele>541</ele>
        <time>2016-11-01T16:03:18.008Z</time>
      </trkpt>
      <trkpt lat="43.00523" lon="2.02633">
        <ele>541</ele>
        <time>2016-11-01T16:03:20.008Z</time>
      </trkpt>
      <trkpt lat="43.00511" lon="2.0263">
        <ele>541</ele>
        <time>2016-11-01T16:03:22.008Z</time>
      </trkpt>
      <trkpt lat="43.00498" lon="2.02626">
        <ele>541</ele>
        <time>2016-11-01T16:03:24.008Z</time>
      </trkpt>
      <trkpt lat="43.00485" lon="2.02614">
        <ele>541</ele>
        <time>2016-11-01T16:03:26.008Z</time>
      </trkpt>
      <trkpt lat="43.00479" lon="2.02604">
        <ele>541</ele>
        <time>2016-11-01T16:03:27.008Z</time>
      </trkpt>
      <trkpt lat="43.00465" lon="2.02585">
        <ele>541</ele>
        <time>2016-11-01T16:03:29.008Z</time>
      </trkpt>
      <trkpt lat="43.00458" lon="2.02575">
        <ele>541</ele>
        <time>2016-11-01T16:03:30.008Z</time>
      </trkpt>
      <trkpt lat="43.00451" lon="2.02567">
        <ele>539.910016</ele>
        <time>2016-11-01T16:03:31.008Z</time>
      </trkpt>
      <trkpt lat="43.00444" lon="2.02557">
        <ele>536</ele>
        <time>2016-11-01T16:03:32.008Z</time>
      </trkpt>
      <trkpt lat="43.00431" lon="2.0254">
        <ele>536</ele>
        <time>2016-11-01T16:03:34.008Z</time>
      </trkpt>
      <trkpt lat="43.00419" lon="2.02524">
        <ele>535.5640064</ele>
        <time>2016-11-01T16:03:36.008Z</time>
      </trkpt>
      <trkpt lat="43.00409" lon="2.0251">
        <ele>534</ele>
        <time>2016-11-01T16:03:38.008Z</time>
      </trkpt>
      <trkpt lat="43.00404" lon="2.02504">
        <ele>534</ele>
        <time>2016-11-01T16:03:39.008Z</time>
      </trkpt>
      <trkpt lat="43.00398" lon="2.02498">
        <ele>534</ele>
        <time>2016-11-01T16:03:40.008Z</time>
      </trkpt>
      <trkpt lat="43.00393" lon="2.02491">
        <ele>533.78989966901</ele>
        <time>2016-11-01T16:03:41.008Z</time>
      </trkpt>
      <trkpt lat="43.00388" lon="2.02485">
        <ele>533</ele>
        <time>2016-11-01T16:03:42.008Z</time>
      </trkpt>
      <trkpt lat="43.00383" lon="2.02478">
        <ele>533</ele>
        <time>2016-11-01T16:03:43.008Z</time>
      </trkpt>
      <trkpt lat="43.00379" lon="2.0247">
        <ele>533</ele>
        <time>2016-11-01T16:03:44.008Z</time>
      </trkpt>
      <trkpt lat="43.00375" lon="2.02462">
        <ele>533</ele>
        <time>2016-11-01T16:03:45.008Z</time>
      </trkpt>
      <trkpt lat="43.00372" lon="2.02454">
        <ele>532.7820032</ele>
        <time>2016-11-01T16:03:46.008Z</time>
      </trkpt>
      <trkpt lat="43.0037" lon="2.02447">
        <ele>532</ele>
        <time>2016-11-01T16:03:47.008Z</time>
      </trkpt>
      <trkpt lat="43.00365" lon="2.02432">
        <ele>532</ele>
        <time>2016-11-01T16:03:49.008Z</time>
      </trkpt>
      <trkpt lat="43.0036" lon="2.02418">
        <ele>532.2179968</ele>
        <time>2016-11-01T16:03:51.008Z</time>
      </trkpt>
      <trkpt lat="43.00356" lon="2.02405">
        <ele>533</ele>
        <time>2016-11-01T16:03:53.008Z</time>
      </trkpt>
      <trkpt lat="43.00352" lon="2.02393">
        <ele>533</ele>
        <time>2016-11-01T16:03:55.008Z</time>
      </trkpt>
      <trkpt lat="43.00348" lon="2.02381">
        <ele>533</ele>
        <time>2016-11-01T16:03:57.008Z</time>
      </trkpt>
      <trkpt lat="43.00346" lon="2.0237">
        <ele>533</ele>
        <time>2016-11-01T16:03:59.008Z</time>
      </trkpt>
      <trkpt lat="43.00344" lon="2.02359">
        <ele>533.4359936</ele>
        <time>2016-11-01T16:04:01.008Z</time>
      </trkpt>
      <trkpt lat="43.00342" lon="2.02348">
        <ele>535</ele>
        <time>2016-11-01T16:04:03.008Z</time>
      </trkpt>
      <trkpt lat="43.0034" lon="2.02337">
        <ele>535</ele>
        <time>2016-11-01T16:04:05.008Z</time>
      </trkpt>
      <trkpt lat="43.00338" lon="2.02327">
        <ele>535</ele>
        <time>2016-11-01T16:04:07.008Z</time>
      </trkpt>
      <trkpt lat="43.00337" lon="2.02312">
        <ele>535</ele>
        <time>2016-11-01T16:04:10.008Z</time>
      </trkpt>
      <trkpt lat="43.00337" lon="2.02297">
        <ele>536</ele>
        <time>2016-11-01T16:04:13.008Z</time>
      </trkpt>
      <trkpt lat="43.00337" lon="2.02285">
        <ele>536</ele>
        <time>2016-11-01T16:04:15.008Z</time>
      </trkpt>
      <trkpt lat="43.00336" lon="2.0227">
        <ele>536</ele>
        <time>2016-11-01T16:04:18.008Z</time>
      </trkpt>
      <trkpt lat="43.00334" lon="2.02255">
        <ele>536.6539904</ele>
        <time>2016-11-01T16:04:21.008Z</time>
      </trkpt>
      <trkpt lat="43.00331" lon="2.02246">
        <ele>539</ele>
        <time>2016-11-01T16:04:23.008Z</time>
      </trkpt>
      <trkpt lat="43.00327" lon="2.02233">
        <ele>539.6539904</ele>
        <time>2016-11-01T16:04:26.008Z</time>
      </trkpt>
      <trkpt lat="43.00323" lon="2.02224">
        <ele>542</ele>
        <time>2016-11-01T16:04:28.008Z</time>
      </trkpt>
      <trkpt lat="43.00318" lon="2.02215">
        <ele>542</ele>
        <time>2016-11-01T16:04:30.008Z</time>
      </trkpt>
      <trkpt lat="43.00313" lon="2.02207">
        <ele>544</ele>
        <time>2016-11-01T16:04:32.008Z</time>
      </trkpt>
      <trkpt lat="43.00307" lon="2.02199">
        <ele>544</ele>
        <time>2016-11-01T16:04:34.008Z</time>
      </trkpt>
      <trkpt lat="43.00301" lon="2.02192">
        <ele>544</ele>
        <time>2016-11-01T16:04:36.008Z</time>
      </trkpt>
      <trkpt lat="43.00291" lon="2.0218">
        <ele>544</ele>
        <time>2016-11-01T16:04:39.008Z</time>
      </trkpt>
      <trkpt lat="43.00282" lon="2.02169">
        <ele>544</ele>
        <time>2016-11-01T16:04:42.008Z</time>
      </trkpt>
      <trkpt lat="43.00273" lon="2.0216">
        <ele>544</ele>
        <time>2016-11-01T16:04:45.008Z</time>
      </trkpt>
      <trkpt lat="43.0026" lon="2.02155">
        <ele>544</ele>
        <time>2016-11-01T16:04:48.008Z</time>
      </trkpt>
      <trkpt lat="43.00246" lon="2.0215">
        <ele>544.2179968</ele>
        <time>2016-11-01T16:04:51.008Z</time>
      </trkpt>
      <trkpt lat="43.00228" lon="2.0214">
        <ele>545</ele>
        <time>2016-11-01T16:04:55.008Z</time>
      </trkpt>
      <trkpt lat="43.00221" lon="2.02132">
        <ele>545</ele>
        <time>2016-11-01T16:04:57.008Z</time>
      </trkpt>
      <trkpt lat="43.00214" lon="2.02123">
        <ele>545</ele>
        <time>2016-11-01T16:04:59.008Z</time>
      </trkpt>
      <trkpt lat="43.00208" lon="2.02113">
        <ele>545</ele>
        <time>2016-11-01T16:05:01.008Z</time>
      </trkpt>
      <trkpt lat="43.00203" lon="2.02103">
        <ele>545</ele>
        <time>2016-11-01T16:05:03.008Z</time>
      </trkpt>
      <trkpt lat="43.00198" lon="2.02092">
        <ele>545</ele>
        <time>2016-11-01T16:05:05.008Z</time>
      </trkpt>
      <trkpt lat="43.00194" lon="2.0208">
        <ele>545</ele>
        <time>2016-11-01T16:05:07.008Z</time>
      </trkpt>
      <trkpt lat="43.0019" lon="2.02068">
        <ele>545</ele>
        <time>2016-11-01T16:05:09.008Z</time>
      </trkpt>
      <trkpt lat="43.00188" lon="2.02056">
        <ele>545</ele>
        <time>2016-11-01T16:05:11.008Z</time>
      </trkpt>
      <trkpt lat="43.00185" lon="2.02043">
        <ele>545</ele>
        <time>2016-11-01T16:05:13.008Z</time>
      </trkpt>
      <trkpt lat="43.00184" lon="2.0203">
        <ele>545</ele>
        <time>2016-11-01T16:05:15.008Z</time>
      </trkpt>
      <trkpt lat="43.00183" lon="2.02018">
        <ele>545</ele>
        <time>2016-11-01T16:05:17.008Z</time>
      </trkpt>
      <trkpt lat="43.00183" lon="2.02005">
        <ele>545</ele>
        <time>2016-11-01T16:05:19.008Z</time>
      </trkpt>
      <trkpt lat="43.00182" lon="2.01993">
        <ele>545.4359936</ele>
        <time>2016-11-01T16:05:21.008Z</time>
      </trkpt>
      <trkpt lat="43.0018" lon="2.01982">
        <ele>547</ele>
        <time>2016-11-01T16:05:23.008Z</time>
      </trkpt>
      <trkpt lat="43.00174" lon="2.01974">
        <ele>547</ele>
        <time>2016-11-01T16:05:25.008Z</time>
      </trkpt>
      <trkpt lat="43.0017" lon="2.01972">
        <ele>547</ele>
        <time>2016-11-01T16:05:26.008Z</time>
      </trkpt>
      <trkpt lat="43.00161" lon="2.01974">
        <ele>547</ele>
        <time>2016-11-01T16:05:28.008Z</time>
      </trkpt>
      <trkpt lat="43.0015" lon="2.01979">
        <ele>547</ele>
        <time>2016-11-01T16:05:30.008Z</time>
      </trkpt>
      <trkpt lat="43.00138" lon="2.01984">
        <ele>545</ele>
        <time>2016-11-01T16:05:32.008Z</time>
      </trkpt>
      <trkpt lat="43.00126" lon="2.01989">
        <ele>545</ele>
        <time>2016-11-01T16:05:34.008Z</time>
      </trkpt>
      <trkpt lat="43.00119" lon="2.01992">
        <ele>545</ele>
        <time>2016-11-01T16:05:35.008Z</time>
      </trkpt>
      <trkpt lat="43.00112" lon="2.01995">
        <ele>545</ele>
        <time>2016-11-01T16:05:36.008Z</time>
      </trkpt>
      <trkpt lat="43.00105" lon="2.01997">
        <ele>545</ele>
        <time>2016-11-01T16:05:37.008Z</time>
      </trkpt>
      <trkpt lat="43.00098" lon="2.02">
        <ele>545</ele>
        <time>2016-11-01T16:05:38.008Z</time>
      </trkpt>
      <trkpt lat="43.00091" lon="2.02003">
        <ele>545</ele>
        <time>2016-11-01T16:05:39.008Z</time>
      </trkpt>
      <trkpt lat="43.00084" lon="2.02006">
        <ele>545</ele>
        <time>2016-11-01T16:05:40.008Z</time>
      </trkpt>
      <trkpt lat="43.00077" lon="2.02008">
        <ele>544.1280128</ele>
        <time>2016-11-01T16:05:41.008Z</time>
      </trkpt>
      <trkpt lat="43.00071" lon="2.02006">
        <ele>541</ele>
        <time>2016-11-01T16:05:42.008Z</time>
      </trkpt>
      <trkpt lat="43.00066" lon="2.01999">
        <ele>541</ele>
        <time>2016-11-01T16:05:43.008Z</time>
      </trkpt>
      <trkpt lat="43.00065" lon="2.01989">
        <ele>541</ele>
        <time>2016-11-01T16:05:44.008Z</time>
      </trkpt>
      <trkpt lat="43.00066" lon="2.01978">
        <ele>541</ele>
        <time>2016-11-01T16:05:45.008Z</time>
      </trkpt>
      <trkpt lat="43.00067" lon="2.01966">
        <ele>540.1280128</ele>
        <time>2016-11-01T16:05:46.008Z</time>
      </trkpt>
      <trkpt lat="43.00069" lon="2.01954">
        <ele>537</ele>
        <time>2016-11-01T16:05:47.008Z</time>
      </trkpt>
      <trkpt lat="43.0007" lon="2.01941">
        <ele>537</ele>
        <time>2016-11-01T16:05:48.008Z</time>
      </trkpt>
      <trkpt lat="43.0007" lon="2.01927">
        <ele>537</ele>
        <time>2016-11-01T16:05:49.008Z</time>
      </trkpt>
      <trkpt lat="43.00068" lon="2.01914">
        <ele>537</ele>
        <time>2016-11-01T16:05:50.008Z</time>
      </trkpt>
      <trkpt lat="43.00063" lon="2.01902">
        <ele>536.3460096</ele>
        <time>2016-11-01T16:05:51.008Z</time>
      </trkpt>
      <trkpt lat="43.00056" lon="2.01891">
        <ele>533.3460096</ele>
        <time>2016-11-01T16:05:52.008Z</time>
      </trkpt>
      <trkpt lat="43.00049" lon="2.01881">
        <ele>530.7820032</ele>
        <time>2016-11-01T16:05:53.008Z</time>
      </trkpt>
      <trkpt lat="43.00041" lon="2.0187">
        <ele>530</ele>
        <time>2016-11-01T16:05:54.008Z</time>
      </trkpt>
      <trkpt lat="43.00034" lon="2.0186">
        <ele>530</ele>
        <time>2016-11-01T16:05:55.008Z</time>
      </trkpt>
      <trkpt lat="43.00027" lon="2.0185">
        <ele>529.78989966901</ele>
        <time>2016-11-01T16:05:56.008Z</time>
      </trkpt>
      <trkpt lat="43.0002" lon="2.01842">
        <ele>529</ele>
        <time>2016-11-01T16:05:57.008Z</time>
      </trkpt>
      <trkpt lat="43.00011" lon="2.01836">
        <ele>528.7820032</ele>
        <time>2016-11-01T16:05:58.008Z</time>
      </trkpt>
      <trkpt lat="43.00002" lon="2.01834">
        <ele>528</ele>
        <time>2016-11-01T16:05:59.008Z</time>
      </trkpt>
      <trkpt lat="42.99992" lon="2.01833">
        <ele>527.7820032</ele>
        <time>2016-11-01T16:06:00.008Z</time>
      </trkpt>
      <trkpt lat="42.99982" lon="2.01833">
        <ele>526.7820032</ele>
        <time>2016-11-01T16:06:01.008Z</time>
      </trkpt>
      <trkpt lat="42.99971" lon="2.01832">
        <ele>526</ele>
        <time>2016-11-01T16:06:02.008Z</time>
      </trkpt>
      <trkpt lat="42.9995" lon="2.01831">
        <ele>525.7820032</ele>
        <time>2016-11-01T16:06:04.008Z</time>
      </trkpt>
      <trkpt lat="42.99939" lon="2.01832">
        <ele>524.5640064</ele>
        <time>2016-11-01T16:06:05.008Z</time>
      </trkpt>
      <trkpt lat="42.99928" lon="2.01831">
        <ele>522.7820032</ele>
        <time>2016-11-01T16:06:06.008Z</time>
      </trkpt>
      <trkpt lat="42.99916" lon="2.01831">
        <ele>522</ele>
        <time>2016-11-01T16:06:07.008Z</time>
      </trkpt>
      <trkpt lat="42.99905" lon="2.01831">
        <ele>521.3460096</ele>
        <time>2016-11-01T16:06:08.008Z</time>
      </trkpt>
      <trkpt lat="42.99893" lon="2.01831">
        <ele>518.5640064</ele>
        <time>2016-11-01T16:06:09.008Z</time>
      </trkpt>
      <trkpt lat="42.99882" lon="2.01831">
        <ele>517</ele>
        <time>2016-11-01T16:06:10.008Z</time>
      </trkpt>
      <trkpt lat="42.99873" lon="2.01831">
        <ele>516.7820032</ele>
        <time>2016-11-01T16:06:11.008Z</time>
      </trkpt>
      <trkpt lat="42.99864" lon="2.01831">
        <ele>515.5640064</ele>
        <time>2016-11-01T16:06:12.008Z</time>
      </trkpt>
      <trkpt lat="42.99857" lon="2.01828">
        <ele>513.7820032</ele>
        <time>2016-11-01T16:06:13.008Z</time>
      </trkpt>
      <trkpt lat="42.99852" lon="2.01821">
        <ele>512.7820032</ele>
        <time>2016-11-01T16:06:14.008Z</time>
      </trkpt>
      <trkpt lat="42.9985" lon="2.01812">
        <ele>512</ele>
        <time>2016-11-01T16:06:15.008Z</time>
      </trkpt>
      <trkpt lat="42.99852" lon="2.01802">
        <ele>511.7820032</ele>
        <time>2016-11-01T16:06:16.008Z</time>
      </trkpt>
      <trkpt lat="42.99855" lon="2.01792">
        <ele>510.7820032</ele>
        <time>2016-11-01T16:06:17.008Z</time>
      </trkpt>
      <trkpt lat="42.99859" lon="2.01781">
        <ele>510</ele>
        <time>2016-11-01T16:06:18.008Z</time>
      </trkpt>
      <trkpt lat="42.99862" lon="2.0177">
        <ele>509.7820032</ele>
        <time>2016-11-01T16:06:19.008Z</time>
      </trkpt>
      <trkpt lat="42.99865" lon="2.01758">
        <ele>508.7820032</ele>
        <time>2016-11-01T16:06:20.008Z</time>
      </trkpt>
      <trkpt lat="42.99868" lon="2.01746">
        <ele>507.7820032</ele>
        <time>2016-11-01T16:06:21.008Z</time>
      </trkpt>
      <trkpt lat="42.99871" lon="2.01733">
        <ele>506.7820032</ele>
        <time>2016-11-01T16:06:22.008Z</time>
      </trkpt>
      <trkpt lat="42.99874" lon="2.01719">
        <ele>505.7820032</ele>
        <time>2016-11-01T16:06:23.008Z</time>
      </trkpt>
      <trkpt lat="42.99877" lon="2.01706">
        <ele>505</ele>
        <time>2016-11-01T16:06:24.008Z</time>
      </trkpt>
      <trkpt lat="42.99881" lon="2.01692">
        <ele>504.7820032</ele>
        <time>2016-11-01T16:06:25.008Z</time>
      </trkpt>
      <trkpt lat="42.99884" lon="2.01678">
        <ele>503.7820032</ele>
        <time>2016-11-01T16:06:26.008Z</time>
      </trkpt>
      <trkpt lat="42.99888" lon="2.01664">
        <ele>502.7820032</ele>
        <time>2016-11-01T16:06:27.008Z</time>
      </trkpt>
      <trkpt lat="42.99891" lon="2.01649">
        <ele>502</ele>
        <time>2016-11-01T16:06:28.008Z</time>
      </trkpt>
      <trkpt lat="42.99895" lon="2.01635">
        <ele>502</ele>
        <time>2016-11-01T16:06:29.008Z</time>
      </trkpt>
      <trkpt lat="42.99899" lon="2.01621">
        <ele>502</ele>
        <time>2016-11-01T16:06:30.008Z</time>
      </trkpt>
      <trkpt lat="42.99904" lon="2.01608">
        <ele>501.7820032</ele>
        <time>2016-11-01T16:06:31.008Z</time>
      </trkpt>
      <trkpt lat="42.99911" lon="2.01597">
        <ele>500.7820032</ele>
        <time>2016-11-01T16:06:32.008Z</time>
      </trkpt>
      <trkpt lat="42.99919" lon="2.0159">
        <ele>499.5640064</ele>
        <time>2016-11-01T16:06:33.008Z</time>
      </trkpt>
      <trkpt lat="42.99928" lon="2.01585">
        <ele>497.7820032</ele>
        <time>2016-11-01T16:06:34.008Z</time>
      </trkpt>
      <trkpt lat="42.99936" lon="2.01579">
        <ele>496.7820032</ele>
        <time>2016-11-01T16:06:35.008Z</time>
      </trkpt>
      <trkpt lat="42.99941" lon="2.01571">
        <ele>495.7820032</ele>
        <time>2016-11-01T16:06:36.008Z</time>
      </trkpt>
      <trkpt lat="42.99943" lon="2.01561">
        <ele>494.7820032</ele>
        <time>2016-11-01T16:06:37.008Z</time>
      </trkpt>
      <trkpt lat="42.99941" lon="2.01553">
        <ele>494</ele>
        <time>2016-11-01T16:06:38.008Z</time>
      </trkpt>
      <trkpt lat="42.99938" lon="2.01547">
        <ele>493.7820032</ele>
        <time>2016-11-01T16:06:39.008Z</time>
      </trkpt>
      <trkpt lat="42.99931" lon="2.0154">
        <ele>492</ele>
        <time>2016-11-01T16:06:43.008Z</time>
      </trkpt>
      <trkpt lat="42.99935" lon="2.01546">
        <ele>493</ele>
        <time>2016-11-01T16:06:48.008Z</time>
      </trkpt>
      <trkpt lat="42.99939" lon="2.01552">
        <ele>493</ele>
        <time>2016-11-01T16:06:51.008Z</time>
      </trkpt>
      <trkpt lat="42.99942" lon="2.01557">
        <ele>493</ele>
        <time>2016-11-01T16:06:53.008Z</time>
      </trkpt>
      <trkpt lat="42.99947" lon="2.01558">
        <ele>493</ele>
        <time>2016-11-01T16:06:55.008Z</time>
      </trkpt>
      <trkpt lat="42.99947" lon="2.01548">
        <ele>493</ele>
        <time>2016-11-01T16:06:58.008Z</time>
      </trkpt>
      <trkpt lat="42.99945" lon="2.01541">
        <ele>493</ele>
        <time>2016-11-01T16:07:00.008Z</time>
      </trkpt>
      <trkpt lat="42.99942" lon="2.01534">
        <ele>496</ele>
        <time>2016-11-01T16:07:02.008Z</time>
      </trkpt>
      <trkpt lat="42.99939" lon="2.01527">
        <ele>496</ele>
        <time>2016-11-01T16:07:04.008Z</time>
      </trkpt>
      <trkpt lat="42.99934" lon="2.01516">
        <ele>498</ele>
        <time>2016-11-01T16:07:07.008Z</time>
      </trkpt>
      <trkpt lat="42.99929" lon="2.01506">
        <ele>498</ele>
        <time>2016-11-01T16:07:10.008Z</time>
      </trkpt>
      <trkpt lat="42.99926" lon="2.01499">
        <ele>498</ele>
        <time>2016-11-01T16:07:12.008Z</time>
      </trkpt>
      <trkpt lat="42.99922" lon="2.01488">
        <ele>498</ele>
        <time>2016-11-01T16:07:15.008Z</time>
      </trkpt>
      <trkpt lat="42.99917" lon="2.01476">
        <ele>500</ele>
        <time>2016-11-01T16:07:18.008Z</time>
      </trkpt>
      <trkpt lat="42.99913" lon="2.01464">
        <ele>500.2179968</ele>
        <time>2016-11-01T16:07:21.008Z</time>
      </trkpt>
      <trkpt lat="42.9991" lon="2.01451">
        <ele>501</ele>
        <time>2016-11-01T16:07:24.008Z</time>
      </trkpt>
      <trkpt lat="42.99908" lon="2.01447">
        <ele>501</ele>
        <time>2016-11-01T16:07:25.008Z</time>
      </trkpt>
      <trkpt lat="42.99907" lon="2.01442">
        <ele>501.2179968</ele>
        <time>2016-11-01T16:07:26.008Z</time>
      </trkpt>
      <trkpt lat="42.99906" lon="2.01438">
        <ele>502</ele>
        <time>2016-11-01T16:07:27.008Z</time>
      </trkpt>
      <trkpt lat="42.99904" lon="2.01434">
        <ele>502</ele>
        <time>2016-11-01T16:07:28.008Z</time>
      </trkpt>
      <trkpt lat="42.99903" lon="2.0143">
        <ele>502</ele>
        <time>2016-11-01T16:07:29.008Z</time>
      </trkpt>
      <trkpt lat="42.99902" lon="2.01426">
        <ele>502</ele>
        <time>2016-11-01T16:07:30.008Z</time>
      </trkpt>
      <trkpt lat="42.99899" lon="2.01419">
        <ele>504</ele>
        <time>2016-11-01T16:07:32.008Z</time>
      </trkpt>
      <trkpt lat="42.99896" lon="2.01412">
        <ele>504</ele>
        <time>2016-11-01T16:07:34.008Z</time>
      </trkpt>
      <trkpt lat="42.99893" lon="2.01405">
        <ele>504.2179968</ele>
        <time>2016-11-01T16:07:36.008Z</time>
      </trkpt>
      <trkpt lat="42.9989" lon="2.01399">
        <ele>505</ele>
        <time>2016-11-01T16:07:38.008Z</time>
      </trkpt>
      <trkpt lat="42.99887" lon="2.01393">
        <ele>505</ele>
        <time>2016-11-01T16:07:40.008Z</time>
      </trkpt>
      <trkpt lat="42.99883" lon="2.01388">
        <ele>507</ele>
        <time>2016-11-01T16:07:42.008Z</time>
      </trkpt>
      <trkpt lat="42.99879" lon="2.01382">
        <ele>507</ele>
        <time>2016-11-01T16:07:44.008Z</time>
      </trkpt>
      <trkpt lat="42.99875" lon="2.01377">
        <ele>507.4359936</ele>
        <time>2016-11-01T16:07:46.008Z</time>
      </trkpt>
      <trkpt lat="42.99872" lon="2.01371">
        <ele>509</ele>
        <time>2016-11-01T16:07:48.008Z</time>
      </trkpt>
      <trkpt lat="42.99868" lon="2.01365">
        <ele>509</ele>
        <time>2016-11-01T16:07:50.008Z</time>
      </trkpt>
      <trkpt lat="42.99865" lon="2.0136">
        <ele>510</ele>
        <time>2016-11-01T16:07:52.008Z</time>
      </trkpt>
      <trkpt lat="42.99863" lon="2.01356">
        <ele>510</ele>
        <time>2016-11-01T16:07:53.008Z</time>
      </trkpt>
      <trkpt lat="42.99861" lon="2.01353">
        <ele>510</ele>
        <time>2016-11-01T16:07:54.008Z</time>
      </trkpt>
      <trkpt lat="42.9986" lon="2.0135">
        <ele>510</ele>
        <time>2016-11-01T16:07:55.008Z</time>
      </trkpt>
      <trkpt lat="42.99858" lon="2.01347">
        <ele>510.2179968</ele>
        <time>2016-11-01T16:07:56.008Z</time>
      </trkpt>
      <trkpt lat="42.99856" lon="2.01344">
        <ele>511</ele>
        <time>2016-11-01T16:07:57.008Z</time>
      </trkpt>
      <trkpt lat="42.99854" lon="2.0134">
        <ele>511</ele>
        <time>2016-11-01T16:07:58.008Z</time>
      </trkpt>
      <trkpt lat="42.99851" lon="2.01334">
        <ele>511</ele>
        <time>2016-11-01T16:08:00.008Z</time>
      </trkpt>
      <trkpt lat="42.99847" lon="2.01328">
        <ele>511</ele>
        <time>2016-11-01T16:08:02.008Z</time>
      </trkpt>
      <trkpt lat="42.99845" lon="2.01325">
        <ele>511</ele>
        <time>2016-11-01T16:08:03.008Z</time>
      </trkpt>
      <trkpt lat="42.99843" lon="2.01322">
        <ele>511</ele>
        <time>2016-11-01T16:08:04.008Z</time>
      </trkpt>
      <trkpt lat="42.99838" lon="2.01316">
        <ele>511</ele>
        <time>2016-11-01T16:08:06.008Z</time>
      </trkpt>
      <trkpt lat="42.99836" lon="2.01313">
        <ele>511</ele>
        <time>2016-11-01T16:08:07.008Z</time>
      </trkpt>
      <trkpt lat="42.99833" lon="2.0131">
        <ele>511</ele>
        <time>2016-11-01T16:08:08.008Z</time>
      </trkpt>
      <trkpt lat="42.9983" lon="2.01307">
        <ele>511</ele>
        <time>2016-11-01T16:08:09.008Z</time>
      </trkpt>
      <trkpt lat="42.99828" lon="2.01304">
        <ele>511</ele>
        <time>2016-11-01T16:08:10.008Z</time>
      </trkpt>
      <trkpt lat="42.99825" lon="2.01301">
        <ele>511</ele>
        <time>2016-11-01T16:08:11.008Z</time>
      </trkpt>
      <trkpt lat="42.99821" lon="2.01297">
        <ele>511</ele>
        <time>2016-11-01T16:08:12.008Z</time>
      </trkpt>
      <trkpt lat="42.99818" lon="2.01293">
        <ele>511</ele>
        <time>2016-11-01T16:08:13.008Z</time>
      </trkpt>
      <trkpt lat="42.99815" lon="2.01289">
        <ele>511</ele>
        <time>2016-11-01T16:08:14.008Z</time>
      </trkpt>
      <trkpt lat="42.99811" lon="2.01285">
        <ele>511</ele>
        <time>2016-11-01T16:08:15.008Z</time>
      </trkpt>
      <trkpt lat="42.99807" lon="2.01281">
        <ele>511</ele>
        <time>2016-11-01T16:08:16.008Z</time>
      </trkpt>
      <trkpt lat="42.99804" lon="2.01277">
        <ele>511</ele>
        <time>2016-11-01T16:08:17.008Z</time>
      </trkpt>
      <trkpt lat="42.99797" lon="2.01269">
        <ele>511</ele>
        <time>2016-11-01T16:08:19.008Z</time>
      </trkpt>
      <trkpt lat="42.99794" lon="2.01264">
        <ele>511</ele>
        <time>2016-11-01T16:08:20.008Z</time>
      </trkpt>
      <trkpt lat="42.99791" lon="2.01259">
        <ele>511</ele>
        <time>2016-11-01T16:08:21.008Z</time>
      </trkpt>
      <trkpt lat="42.99788" lon="2.01255">
        <ele>511</ele>
        <time>2016-11-01T16:08:22.008Z</time>
      </trkpt>
      <trkpt lat="42.99785" lon="2.0125">
        <ele>511</ele>
        <time>2016-11-01T16:08:23.008Z</time>
      </trkpt>
      <trkpt lat="42.99781" lon="2.01246">
        <ele>511</ele>
        <time>2016-11-01T16:08:24.008Z</time>
      </trkpt>
      <trkpt lat="42.99777" lon="2.01242">
        <ele>511</ele>
        <time>2016-11-01T16:08:25.008Z</time>
      </trkpt>
      <trkpt lat="42.99773" lon="2.01239">
        <ele>511</ele>
        <time>2016-11-01T16:08:26.008Z</time>
      </trkpt>
      <trkpt lat="42.99769" lon="2.01236">
        <ele>511</ele>
        <time>2016-11-01T16:08:27.008Z</time>
      </trkpt>
      <trkpt lat="42.99766" lon="2.01233">
        <ele>511</ele>
        <time>2016-11-01T16:08:28.008Z</time>
      </trkpt>
      <trkpt lat="42.99758" lon="2.01227">
        <ele>511</ele>
        <time>2016-11-01T16:08:30.008Z</time>
      </trkpt>
      <trkpt lat="42.9975" lon="2.01221">
        <ele>511</ele>
        <time>2016-11-01T16:08:32.008Z</time>
      </trkpt>
      <trkpt lat="42.99742" lon="2.01216">
        <ele>511</ele>
        <time>2016-11-01T16:08:34.008Z</time>
      </trkpt>
      <trkpt lat="42.99735" lon="2.01211">
        <ele>511</ele>
        <time>2016-11-01T16:08:36.008Z</time>
      </trkpt>
      <trkpt lat="42.99727" lon="2.01208">
        <ele>511</ele>
        <time>2016-11-01T16:08:38.008Z</time>
      </trkpt>
      <trkpt lat="42.9972" lon="2.01204">
        <ele>511</ele>
        <time>2016-11-01T16:08:40.008Z</time>
      </trkpt>
      <trkpt lat="42.99713" lon="2.01202">
        <ele>513</ele>
        <time>2016-11-01T16:08:42.008Z</time>
      </trkpt>
      <trkpt lat="42.99707" lon="2.01199">
        <ele>513</ele>
        <time>2016-11-01T16:08:44.008Z</time>
      </trkpt>
      <trkpt lat="42.997" lon="2.01195">
        <ele>513</ele>
        <time>2016-11-01T16:08:46.008Z</time>
      </trkpt>
      <trkpt lat="42.99697" lon="2.01193">
        <ele>513</ele>
        <time>2016-11-01T16:08:47.008Z</time>
      </trkpt>
      <trkpt lat="42.99694" lon="2.01191">
        <ele>513</ele>
        <time>2016-11-01T16:08:48.008Z</time>
      </trkpt>
      <trkpt lat="42.99691" lon="2.01189">
        <ele>513</ele>
        <time>2016-11-01T16:08:49.008Z</time>
      </trkpt>
      <trkpt lat="42.99688" lon="2.01187">
        <ele>513</ele>
        <time>2016-11-01T16:08:50.008Z</time>
      </trkpt>
      <trkpt lat="42.99685" lon="2.01185">
        <ele>513.8719872</ele>
        <time>2016-11-01T16:08:51.008Z</time>
      </trkpt>
      <trkpt lat="42.99682" lon="2.01183">
        <ele>517</ele>
        <time>2016-11-01T16:08:52.008Z</time>
      </trkpt>
      <trkpt lat="42.99679" lon="2.0118">
        <ele>517</ele>
        <time>2016-11-01T16:08:53.008Z</time>
      </trkpt>
      <trkpt lat="42.99673" lon="2.01176">
        <ele>517</ele>
        <time>2016-11-01T16:08:55.008Z</time>
      </trkpt>
      <trkpt lat="42.99669" lon="2.01175">
        <ele>517.2179968</ele>
        <time>2016-11-01T16:08:56.008Z</time>
      </trkpt>
      <trkpt lat="42.99665" lon="2.01173">
        <ele>518</ele>
        <time>2016-11-01T16:08:57.008Z</time>
      </trkpt>
      <trkpt lat="42.99657" lon="2.01171">
        <ele>518</ele>
        <time>2016-11-01T16:08:59.008Z</time>
      </trkpt>
      <trkpt lat="42.99648" lon="2.0117">
        <ele>518.2179968</ele>
        <time>2016-11-01T16:09:01.008Z</time>
      </trkpt>
      <trkpt lat="42.99643" lon="2.0117">
        <ele>519</ele>
        <time>2016-11-01T16:09:02.008Z</time>
      </trkpt>
      <trkpt lat="42.99639" lon="2.0117">
        <ele>519</ele>
        <time>2016-11-01T16:09:03.008Z</time>
      </trkpt>
      <trkpt lat="42.99635" lon="2.01171">
        <ele>519</ele>
        <time>2016-11-01T16:09:04.008Z</time>
      </trkpt>
      <trkpt lat="42.9963" lon="2.01171">
        <ele>519</ele>
        <time>2016-11-01T16:09:05.008Z</time>
      </trkpt>
      <trkpt lat="42.99626" lon="2.01172">
        <ele>519</ele>
        <time>2016-11-01T16:09:06.008Z</time>
      </trkpt>
      <trkpt lat="42.99621" lon="2.01173">
        <ele>519</ele>
        <time>2016-11-01T16:09:07.008Z</time>
      </trkpt>
      <trkpt lat="42.99617" lon="2.01173">
        <ele>519</ele>
        <time>2016-11-01T16:09:08.008Z</time>
      </trkpt>
      <trkpt lat="42.99608" lon="2.01174">
        <ele>519</ele>
        <time>2016-11-01T16:09:10.008Z</time>
      </trkpt>
      <trkpt lat="42.99598" lon="2.01175">
        <ele>518</ele>
        <time>2016-11-01T16:09:12.008Z</time>
      </trkpt>
      <trkpt lat="42.99589" lon="2.01175">
        <ele>518</ele>
        <time>2016-11-01T16:09:14.008Z</time>
      </trkpt>
      <trkpt lat="42.99585" lon="2.01175">
        <ele>518</ele>
        <time>2016-11-01T16:09:15.008Z</time>
      </trkpt>
      <trkpt lat="42.99581" lon="2.01175">
        <ele>518</ele>
        <time>2016-11-01T16:09:16.008Z</time>
      </trkpt>
      <trkpt lat="42.99571" lon="2.01176">
        <ele>518</ele>
        <time>2016-11-01T16:09:18.008Z</time>
      </trkpt>
      <trkpt lat="42.99562" lon="2.01176">
        <ele>518</ele>
        <time>2016-11-01T16:09:20.008Z</time>
      </trkpt>
      <trkpt lat="42.99553" lon="2.01177">
        <ele>518</ele>
        <time>2016-11-01T16:09:22.008Z</time>
      </trkpt>
      <trkpt lat="42.99544" lon="2.0118">
        <ele>518</ele>
        <time>2016-11-01T16:09:24.008Z</time>
      </trkpt>
      <trkpt lat="42.99539" lon="2.01181">
        <ele>518</ele>
        <time>2016-11-01T16:09:25.008Z</time>
      </trkpt>
      <trkpt lat="42.99534" lon="2.01183">
        <ele>518</ele>
        <time>2016-11-01T16:09:26.008Z</time>
      </trkpt>
      <trkpt lat="42.99527" lon="2.01184">
        <ele>518</ele>
        <time>2016-11-01T16:09:27.008Z</time>
      </trkpt>
      <trkpt lat="42.99514" lon="2.01182">
        <ele>518</ele>
        <time>2016-11-01T16:09:29.008Z</time>
      </trkpt>
      <trkpt lat="42.99508" lon="2.01177">
        <ele>518</ele>
        <time>2016-11-01T16:09:30.008Z</time>
      </trkpt>
      <trkpt lat="42.99503" lon="2.0117">
        <ele>517.1280128</ele>
        <time>2016-11-01T16:09:31.008Z</time>
      </trkpt>
      <trkpt lat="42.99493" lon="2.01151">
        <ele>514</ele>
        <time>2016-11-01T16:09:33.008Z</time>
      </trkpt>
      <trkpt lat="42.99488" lon="2.0114">
        <ele>514</ele>
        <time>2016-11-01T16:09:34.008Z</time>
      </trkpt>
      <trkpt lat="42.99482" lon="2.0113">
        <ele>514</ele>
        <time>2016-11-01T16:09:35.008Z</time>
      </trkpt>
      <trkpt lat="42.99476" lon="2.0112">
        <ele>512.6920192</ele>
        <time>2016-11-01T16:09:36.008Z</time>
      </trkpt>
      <trkpt lat="42.99468" lon="2.01113">
        <ele>508</ele>
        <time>2016-11-01T16:09:37.008Z</time>
      </trkpt>
      <trkpt lat="42.99459" lon="2.01107">
        <ele>508</ele>
        <time>2016-11-01T16:09:38.008Z</time>
      </trkpt>
      <trkpt lat="42.9945" lon="2.01102">
        <ele>508</ele>
        <time>2016-11-01T16:09:39.008Z</time>
      </trkpt>
      <trkpt lat="42.9944" lon="2.01097">
        <ele>508</ele>
        <time>2016-11-01T16:09:40.008Z</time>
      </trkpt>
      <trkpt lat="42.99431" lon="2.01092">
        <ele>507.3460096</ele>
        <time>2016-11-01T16:09:41.008Z</time>
      </trkpt>
      <trkpt lat="42.99421" lon="2.01087">
        <ele>504.5640064</ele>
        <time>2016-11-01T16:09:42.008Z</time>
      </trkpt>
      <trkpt lat="42.99412" lon="2.01082">
        <ele>503</ele>
        <time>2016-11-01T16:09:43.008Z</time>
      </trkpt>
      <trkpt lat="42.99403" lon="2.01076">
        <ele>502.7820032</ele>
        <time>2016-11-01T16:09:44.008Z</time>
      </trkpt>
      <trkpt lat="42.99395" lon="2.01069">
        <ele>501.7820032</ele>
        <time>2016-11-01T16:09:45.008Z</time>
      </trkpt>
      <trkpt lat="42.99387" lon="2.01063">
        <ele>501</ele>
        <time>2016-11-01T16:09:46.008Z</time>
      </trkpt>
      <trkpt lat="42.9938" lon="2.01058">
        <ele>501</ele>
        <time>2016-11-01T16:09:47.008Z</time>
      </trkpt>
      <trkpt lat="42.99368" lon="2.01048">
        <ele>501</ele>
        <time>2016-11-01T16:09:49.008Z</time>
      </trkpt>
      <trkpt lat="42.99362" lon="2.01044">
        <ele>501.2179968</ele>
        <time>2016-11-01T16:09:50.008Z</time>
      </trkpt>
      <trkpt lat="42.99356" lon="2.0104">
        <ele>502</ele>
        <time>2016-11-01T16:09:51.008Z</time>
      </trkpt>
      <trkpt lat="42.99351" lon="2.01035">
        <ele>502</ele>
        <time>2016-11-01T16:09:52.008Z</time>
      </trkpt>
      <trkpt lat="42.99346" lon="2.01031">
        <ele>501.7820032</ele>
        <time>2016-11-01T16:09:53.008Z</time>
      </trkpt>
      <trkpt lat="42.9934" lon="2.01026">
        <ele>501</ele>
        <time>2016-11-01T16:09:54.008Z</time>
      </trkpt>
      <trkpt lat="42.99335" lon="2.01021">
        <ele>501</ele>
        <time>2016-11-01T16:09:55.008Z</time>
      </trkpt>
      <trkpt lat="42.9933" lon="2.01016">
        <ele>501</ele>
        <time>2016-11-01T16:09:56.008Z</time>
      </trkpt>
      <trkpt lat="42.99326" lon="2.01011">
        <ele>501</ele>
        <time>2016-11-01T16:09:57.008Z</time>
      </trkpt>
      <trkpt lat="42.99316" lon="2.01001">
        <ele>501</ele>
        <time>2016-11-01T16:09:59.008Z</time>
      </trkpt>
      <trkpt lat="42.99308" lon="2.00993">
        <ele>501.2179968</ele>
        <time>2016-11-01T16:10:01.008Z</time>
      </trkpt>
      <trkpt lat="42.993" lon="2.00986">
        <ele>502</ele>
        <time>2016-11-01T16:10:03.008Z</time>
      </trkpt>
      <trkpt lat="42.99293" lon="2.00981">
        <ele>502</ele>
        <time>2016-11-01T16:10:05.008Z</time>
      </trkpt>
      <trkpt lat="42.99286" lon="2.00976">
        <ele>502</ele>
        <time>2016-11-01T16:10:07.008Z</time>
      </trkpt>
      <trkpt lat="42.9928" lon="2.00972">
        <ele>502</ele>
        <time>2016-11-01T16:10:09.008Z</time>
      </trkpt>
      <trkpt lat="42.99273" lon="2.00968">
        <ele>502.2179968</ele>
        <time>2016-11-01T16:10:11.008Z</time>
      </trkpt>
      <trkpt lat="42.99267" lon="2.00965">
        <ele>503</ele>
        <time>2016-11-01T16:10:13.008Z</time>
      </trkpt>
      <trkpt lat="42.99264" lon="2.00963">
        <ele>503</ele>
        <time>2016-11-01T16:10:14.008Z</time>
      </trkpt>
      <trkpt lat="42.9926" lon="2.00962">
        <ele>503</ele>
        <time>2016-11-01T16:10:15.008Z</time>
      </trkpt>
      <trkpt lat="42.99257" lon="2.00961">
        <ele>503</ele>
        <time>2016-11-01T16:10:16.008Z</time>
      </trkpt>
      <trkpt lat="42.99254" lon="2.00959">
        <ele>503</ele>
        <time>2016-11-01T16:10:17.008Z</time>
      </trkpt>
      <trkpt lat="42.99251" lon="2.00957">
        <ele>503</ele>
        <time>2016-11-01T16:10:18.008Z</time>
      </trkpt>
      <trkpt lat="42.99248" lon="2.00956">
        <ele>503</ele>
        <time>2016-11-01T16:10:19.008Z</time>
      </trkpt>
      <trkpt lat="42.99245" lon="2.00955">
        <ele>503</ele>
        <time>2016-11-01T16:10:20.008Z</time>
      </trkpt>
      <trkpt lat="42.99241" lon="2.00953">
        <ele>503.4359936</ele>
        <time>2016-11-01T16:10:21.008Z</time>
      </trkpt>
      <trkpt lat="42.99238" lon="2.00951">
        <ele>505</ele>
        <time>2016-11-01T16:10:22.008Z</time>
      </trkpt>
      <trkpt lat="42.99235" lon="2.0095">
        <ele>505</ele>
        <time>2016-11-01T16:10:23.008Z</time>
      </trkpt>
      <trkpt lat="42.99228" lon="2.00946">
        <ele>505</ele>
        <time>2016-11-01T16:10:25.008Z</time>
      </trkpt>
      <trkpt lat="42.99225" lon="2.00944">
        <ele>505</ele>
        <time>2016-11-01T16:10:26.008Z</time>
      </trkpt>
      <trkpt lat="42.99223" lon="2.00941">
        <ele>505</ele>
        <time>2016-11-01T16:10:27.008Z</time>
      </trkpt>
      <trkpt lat="42.9922" lon="2.00939">
        <ele>505</ele>
        <time>2016-11-01T16:10:28.008Z</time>
      </trkpt>
      <trkpt lat="42.99217" lon="2.00936">
        <ele>505</ele>
        <time>2016-11-01T16:10:29.008Z</time>
      </trkpt>
      <trkpt lat="42.99215" lon="2.00934">
        <ele>505</ele>
        <time>2016-11-01T16:10:30.008Z</time>
      </trkpt>
      <trkpt lat="42.99212" lon="2.00931">
        <ele>505.2179968</ele>
        <time>2016-11-01T16:10:31.008Z</time>
      </trkpt>
      <trkpt lat="42.99209" lon="2.00928">
        <ele>506</ele>
        <time>2016-11-01T16:10:32.008Z</time>
      </trkpt>
      <trkpt lat="42.99207" lon="2.00925">
        <ele>506</ele>
        <time>2016-11-01T16:10:33.008Z</time>
      </trkpt>
      <trkpt lat="42.99202" lon="2.0092">
        <ele>506</ele>
        <time>2016-11-01T16:10:35.008Z</time>
      </trkpt>
      <trkpt lat="42.99197" lon="2.00916">
        <ele>506</ele>
        <time>2016-11-01T16:10:37.008Z</time>
      </trkpt>
      <trkpt lat="42.99192" lon="2.00912">
        <ele>506</ele>
        <time>2016-11-01T16:10:39.008Z</time>
      </trkpt>
      <trkpt lat="42.99186" lon="2.00908">
        <ele>506.4359936</ele>
        <time>2016-11-01T16:10:41.008Z</time>
      </trkpt>
      <trkpt lat="42.9918" lon="2.00905">
        <ele>508</ele>
        <time>2016-11-01T16:10:43.008Z</time>
      </trkpt>
      <trkpt lat="42.99171" lon="2.00899">
        <ele>508</ele>
        <time>2016-11-01T16:10:46.008Z</time>
      </trkpt>
      <trkpt lat="42.99165" lon="2.00894">
        <ele>508</ele>
        <time>2016-11-01T16:10:48.008Z</time>
      </trkpt>
      <trkpt lat="42.99158" lon="2.00888">
        <ele>508</ele>
        <time>2016-11-01T16:10:50.008Z</time>
      </trkpt>
      <trkpt lat="42.99155" lon="2.00885">
        <ele>508.2179968</ele>
        <time>2016-11-01T16:10:51.008Z</time>
      </trkpt>
      <trkpt lat="42.99151" lon="2.00882">
        <ele>509</ele>
        <time>2016-11-01T16:10:52.008Z</time>
      </trkpt>
      <trkpt lat="42.99148" lon="2.0088">
        <ele>509</ele>
        <time>2016-11-01T16:10:53.008Z</time>
      </trkpt>
      <trkpt lat="42.99144" lon="2.00877">
        <ele>509</ele>
        <time>2016-11-01T16:10:54.008Z</time>
      </trkpt>
      <trkpt lat="42.99141" lon="2.00875">
        <ele>509</ele>
        <time>2016-11-01T16:10:55.008Z</time>
      </trkpt>
      <trkpt lat="42.99137" lon="2.00873">
        <ele>509</ele>
        <time>2016-11-01T16:10:56.008Z</time>
      </trkpt>
      <trkpt lat="42.99131" lon="2.00869">
        <ele>509</ele>
        <time>2016-11-01T16:10:58.008Z</time>
      </trkpt>
      <trkpt lat="42.99127" lon="2.00867">
        <ele>509</ele>
        <time>2016-11-01T16:10:59.008Z</time>
      </trkpt>
      <trkpt lat="42.99124" lon="2.00866">
        <ele>509</ele>
        <time>2016-11-01T16:11:00.008Z</time>
      </trkpt>
      <trkpt lat="42.99121" lon="2.00864">
        <ele>509.2179968</ele>
        <time>2016-11-01T16:11:01.008Z</time>
      </trkpt>
      <trkpt lat="42.99118" lon="2.00863">
        <ele>510</ele>
        <time>2016-11-01T16:11:02.008Z</time>
      </trkpt>
      <trkpt lat="42.99115" lon="2.00861">
        <ele>510</ele>
        <time>2016-11-01T16:11:03.008Z</time>
      </trkpt>
      <trkpt lat="42.99112" lon="2.00859">
        <ele>510</ele>
        <time>2016-11-01T16:11:04.008Z</time>
      </trkpt>
      <trkpt lat="42.99109" lon="2.00856">
        <ele>510</ele>
        <time>2016-11-01T16:11:05.008Z</time>
      </trkpt>
      <trkpt lat="42.99106" lon="2.00854">
        <ele>510</ele>
        <time>2016-11-01T16:11:06.008Z</time>
      </trkpt>
      <trkpt lat="42.99103" lon="2.00852">
        <ele>510</ele>
        <time>2016-11-01T16:11:07.008Z</time>
      </trkpt>
      <trkpt lat="42.991" lon="2.0085">
        <ele>510</ele>
        <time>2016-11-01T16:11:08.008Z</time>
      </trkpt>
      <trkpt lat="42.99097" lon="2.00848">
        <ele>510</ele>
        <time>2016-11-01T16:11:09.008Z</time>
      </trkpt>
      <trkpt lat="42.99092" lon="2.00843">
        <ele>510.4359936</ele>
        <time>2016-11-01T16:11:11.008Z</time>
      </trkpt>
      <trkpt lat="42.99087" lon="2.00837">
        <ele>512</ele>
        <time>2016-11-01T16:11:13.008Z</time>
      </trkpt>
      <trkpt lat="42.99078" lon="2.0083">
        <ele>512</ele>
        <time>2016-11-01T16:11:16.008Z</time>
      </trkpt>
      <trkpt lat="42.99071" lon="2.00823">
        <ele>512</ele>
        <time>2016-11-01T16:11:19.008Z</time>
      </trkpt>
      <trkpt lat="42.99064" lon="2.00815">
        <ele>514</ele>
        <time>2016-11-01T16:11:22.008Z</time>
      </trkpt>
      <trkpt lat="42.99058" lon="2.00808">
        <ele>514</ele>
        <time>2016-11-01T16:11:25.008Z</time>
      </trkpt>
      <trkpt lat="42.99052" lon="2.00801">
        <ele>514</ele>
        <time>2016-11-01T16:11:28.008Z</time>
      </trkpt>
      <trkpt lat="42.99046" lon="2.00798">
        <ele>515</ele>
        <time>2016-11-01T16:11:32.008Z</time>
      </trkpt>
      <trkpt lat="42.99041" lon="2.00798">
        <ele>515</ele>
        <time>2016-11-01T16:11:35.008Z</time>
      </trkpt>
      <trkpt lat="42.99035" lon="2.00795">
        <ele>515</ele>
        <time>2016-11-01T16:11:38.008Z</time>
      </trkpt>
      <trkpt lat="42.9903" lon="2.00791">
        <ele>515</ele>
        <time>2016-11-01T16:11:40.008Z</time>
      </trkpt>
      <trkpt lat="42.99024" lon="2.00791">
        <ele>515</ele>
        <time>2016-11-01T16:11:42.008Z</time>
      </trkpt>
      <trkpt lat="42.99019" lon="2.00792">
        <ele>515</ele>
        <time>2016-11-01T16:11:44.008Z</time>
      </trkpt>
      <trkpt lat="42.99015" lon="2.00794">
        <ele>515</ele>
        <time>2016-11-01T16:11:47.008Z</time>
      </trkpt>
      <trkpt lat="42.99014" lon="2.00798">
        <ele>515</ele>
        <time>2016-11-01T16:13:47.008Z</time>
      </trkpt>
      <trkpt lat="42.99016" lon="2.00792">
        <ele>516</ele>
        <time>2016-11-01T16:14:57.008Z</time>
      </trkpt>
      <trkpt lat="42.99022" lon="2.0079">
        <ele>516</ele>
        <time>2016-11-01T16:15:00.008Z</time>
      </trkpt>
      <trkpt lat="42.99026" lon="2.00791">
        <ele>516</ele>
        <time>2016-11-01T16:15:02.008Z</time>
      </trkpt>
      <trkpt lat="42.99032" lon="2.00793">
        <ele>516</ele>
        <time>2016-11-01T16:15:05.008Z</time>
      </trkpt>
      <trkpt lat="42.99036" lon="2.00796">
        <ele>516</ele>
        <time>2016-11-01T16:15:07.008Z</time>
      </trkpt>
      <trkpt lat="42.99041" lon="2.00798">
        <ele>516</ele>
        <time>2016-11-01T16:15:09.008Z</time>
      </trkpt>
      <trkpt lat="42.99047" lon="2.00798">
        <ele>516</ele>
        <time>2016-11-01T16:15:11.008Z</time>
      </trkpt>
      <trkpt lat="42.99052" lon="2.00797">
        <ele>516</ele>
        <time>2016-11-01T16:15:13.008Z</time>
      </trkpt>
      <trkpt lat="42.9905" lon="2.00786">
        <ele>516</ele>
        <time>2016-11-01T16:15:16.008Z</time>
      </trkpt>
      <trkpt lat="42.99043" lon="2.00777">
        <ele>516</ele>
        <time>2016-11-01T16:15:18.008Z</time>
      </trkpt>
      <trkpt lat="42.99036" lon="2.0077">
        <ele>516</ele>
        <time>2016-11-01T16:15:20.008Z</time>
      </trkpt>
      <trkpt lat="42.99031" lon="2.00766">
        <ele>515.5640064</ele>
        <time>2016-11-01T16:15:21.008Z</time>
      </trkpt>
      <trkpt lat="42.99023" lon="2.00759">
        <ele>514</ele>
        <time>2016-11-01T16:15:23.008Z</time>
      </trkpt>
      <trkpt lat="42.99016" lon="2.00752">
        <ele>514</ele>
        <time>2016-11-01T16:15:25.008Z</time>
      </trkpt>
      <trkpt lat="42.99012" lon="2.00746">
        <ele>510</ele>
        <time>2016-11-01T16:15:27.008Z</time>
      </trkpt>
      <trkpt lat="42.99008" lon="2.00737">
        <ele>509.5640064</ele>
        <time>2016-11-01T16:15:31.008Z</time>
      </trkpt>
      <trkpt lat="42.99006" lon="2.00728">
        <ele>506.7820032</ele>
        <time>2016-11-01T16:15:40.008Z</time>
      </trkpt>
      <trkpt lat="42.99009" lon="2.00719">
        <ele>506</ele>
        <time>2016-11-01T16:15:46.008Z</time>
      </trkpt>
      <trkpt lat="42.99013" lon="2.00711">
        <ele>506</ele>
        <time>2016-11-01T16:15:49.008Z</time>
      </trkpt>
      <trkpt lat="42.99017" lon="2.00701">
        <ele>506</ele>
        <time>2016-11-01T16:15:52.008Z</time>
      </trkpt>
      <trkpt lat="42.99021" lon="2.00694">
        <ele>506</ele>
        <time>2016-11-01T16:15:54.008Z</time>
      </trkpt>
      <trkpt lat="42.99024" lon="2.00685">
        <ele>506</ele>
        <time>2016-11-01T16:15:56.008Z</time>
      </trkpt>
      <trkpt lat="42.99024" lon="2.00675">
        <ele>506</ele>
        <time>2016-11-01T16:15:58.008Z</time>
      </trkpt>
      <trkpt lat="42.9902" lon="2.00664">
        <ele>506</ele>
        <time>2016-11-01T16:16:00.008Z</time>
      </trkpt>
      <trkpt lat="42.99013" lon="2.00653">
        <ele>498</ele>
        <time>2016-11-01T16:16:02.008Z</time>
      </trkpt>
      <trkpt lat="42.99005" lon="2.00643">
        <ele>496</ele>
        <time>2016-11-01T16:16:04.008Z</time>
      </trkpt>
      <trkpt lat="42.98997" lon="2.00633">
        <ele>495</ele>
        <time>2016-11-01T16:16:06.008Z</time>
      </trkpt>
      <trkpt lat="42.98989" lon="2.00623">
        <ele>491.5640064</ele>
        <time>2016-11-01T16:16:08.008Z</time>
      </trkpt>
      <trkpt lat="42.98981" lon="2.00615">
        <ele>489</ele>
        <time>2016-11-01T16:16:10.008Z</time>
      </trkpt>
      <trkpt lat="42.98971" lon="2.00605">
        <ele>487.5640064</ele>
        <time>2016-11-01T16:16:12.008Z</time>
      </trkpt>
      <trkpt lat="42.98962" lon="2.00595">
        <ele>483.7820032</ele>
        <time>2016-11-01T16:16:14.008Z</time>
      </trkpt>
      <trkpt lat="42.98951" lon="2.00582">
        <ele>481.7820032</ele>
        <time>2016-11-01T16:16:16.008Z</time>
      </trkpt>
      <trkpt lat="42.98939" lon="2.0057">
        <ele>478.78416090031</ele>
        <time>2016-11-01T16:16:18.008Z</time>
      </trkpt>
      <trkpt lat="42.9893" lon="2.0056">
        <ele>476.5640064</ele>
        <time>2016-11-01T16:16:20.008Z</time>
      </trkpt>
      <trkpt lat="42.98922" lon="2.00552">
        <ele>473</ele>
        <time>2016-11-01T16:16:23.008Z</time>
      </trkpt>
      <trkpt lat="42.98917" lon="2.00545">
        <ele>473</ele>
        <time>2016-11-01T16:16:45.008Z</time>
      </trkpt>
      <trkpt lat="42.98912" lon="2.00539">
        <ele>473</ele>
        <time>2016-11-01T16:16:47.008Z</time>
      </trkpt>
      <trkpt lat="42.98903" lon="2.0053">
        <ele>473</ele>
        <time>2016-11-01T16:16:49.008Z</time>
      </trkpt>
      <trkpt lat="42.98896" lon="2.00523">
        <ele>471.92080450156</ele>
        <time>2016-11-01T16:16:51.008Z</time>
      </trkpt>
      <trkpt lat="42.98885" lon="2.00513">
        <ele>463.7820032</ele>
        <time>2016-11-01T16:16:54.008Z</time>
      </trkpt>
      <trkpt lat="42.98879" lon="2.00501">
        <ele>460</ele>
        <time>2016-11-01T16:16:58.008Z</time>
      </trkpt>
      <trkpt lat="42.98872" lon="2.00491">
        <ele>456.3460096</ele>
        <time>2016-11-01T16:17:01.008Z</time>
      </trkpt>
      <trkpt lat="42.98865" lon="2.00481">
        <ele>453</ele>
        <time>2016-11-01T16:17:04.008Z</time>
      </trkpt>
      <trkpt lat="42.98857" lon="2.0047">
        <ele>447.7820032</ele>
        <time>2016-11-01T16:17:11.008Z</time>
      </trkpt>
      <trkpt lat="42.98845" lon="2.00467">
        <ele>443.7820032</ele>
        <time>2016-11-01T16:17:15.008Z</time>
      </trkpt>
      <trkpt lat="42.98834" lon="2.00465">
        <ele>441</ele>
        <time>2016-11-01T16:17:18.008Z</time>
      </trkpt>
      <trkpt lat="42.98827" lon="2.0047">
        <ele>439.7820032</ele>
        <time>2016-11-01T16:17:20.008Z</time>
      </trkpt>
      <trkpt lat="42.98819" lon="2.00476">
        <ele>438.7820032</ele>
        <time>2016-11-01T16:17:22.008Z</time>
      </trkpt>
      <trkpt lat="42.98811" lon="2.00483">
        <ele>437</ele>
        <time>2016-11-01T16:17:24.008Z</time>
      </trkpt>
      <trkpt lat="42.98803" lon="2.00491">
        <ele>436.7820032</ele>
        <time>2016-11-01T16:17:26.008Z</time>
      </trkpt>
      <trkpt lat="42.98795" lon="2.00499">
        <ele>435</ele>
        <time>2016-11-01T16:17:28.008Z</time>
      </trkpt>
      <trkpt lat="42.98787" lon="2.00506">
        <ele>435</ele>
        <time>2016-11-01T16:17:30.008Z</time>
      </trkpt>
      <trkpt lat="42.9878" lon="2.00514">
        <ele>435</ele>
        <time>2016-11-01T16:17:32.008Z</time>
      </trkpt>
      <trkpt lat="42.98766" lon="2.00515">
        <ele>435</ele>
        <time>2016-11-01T16:17:35.008Z</time>
      </trkpt>
      <trkpt lat="42.98755" lon="2.00514">
        <ele>430</ele>
        <time>2016-11-01T16:17:37.008Z</time>
      </trkpt>
      <trkpt lat="42.98742" lon="2.0051">
        <ele>430</ele>
        <time>2016-11-01T16:17:39.008Z</time>
      </trkpt>
      <trkpt lat="42.98731" lon="2.00507">
        <ele>428.6920192</ele>
        <time>2016-11-01T16:17:41.008Z</time>
      </trkpt>
      <trkpt lat="42.98722" lon="2.00503">
        <ele>421.5640064</ele>
        <time>2016-11-01T16:17:43.008Z</time>
      </trkpt>
      <trkpt lat="42.9871" lon="2.005">
        <ele>417</ele>
        <time>2016-11-01T16:17:46.008Z</time>
      </trkpt>
      <trkpt lat="42.98697" lon="2.00499">
        <ele>413.3460096</ele>
        <time>2016-11-01T16:17:49.008Z</time>
      </trkpt>
      <trkpt lat="42.98689" lon="2.00498">
        <ele>410.7820032</ele>
        <time>2016-11-01T16:17:51.008Z</time>
      </trkpt>
      <trkpt lat="42.98681" lon="2.00497">
        <ele>408.5640064</ele>
        <time>2016-11-01T16:17:53.008Z</time>
      </trkpt>
      <trkpt lat="42.98667" lon="2.00494">
        <ele>404.7820032</ele>
        <time>2016-11-01T16:17:56.008Z</time>
      </trkpt>
      <trkpt lat="42.98657" lon="2.00491">
        <ele>402.57979933802</ele>
        <time>2016-11-01T16:17:58.008Z</time>
      </trkpt>
      <trkpt lat="42.98645" lon="2.00489">
        <ele>400</ele>
        <time>2016-11-01T16:18:00.008Z</time>
      </trkpt>
      <trkpt lat="42.98639" lon="2.00487">
        <ele>399.5640064</ele>
        <time>2016-11-01T16:18:01.008Z</time>
      </trkpt>
      <trkpt lat="42.98632" lon="2.00486">
        <ele>398</ele>
        <time>2016-11-01T16:18:02.008Z</time>
      </trkpt>
      <trkpt lat="42.9862" lon="2.00482">
        <ele>398</ele>
        <time>2016-11-01T16:18:04.008Z</time>
      </trkpt>
      <trkpt lat="42.9861" lon="2.00479">
        <ele>396.7820032</ele>
        <time>2016-11-01T16:18:06.008Z</time>
      </trkpt>
      <trkpt lat="42.98601" lon="2.00476">
        <ele>395.7820032</ele>
        <time>2016-11-01T16:18:08.008Z</time>
      </trkpt>
      <trkpt lat="42.98595" lon="2.0047">
        <ele>394.7820032</ele>
        <time>2016-11-01T16:18:10.008Z</time>
      </trkpt>
      <trkpt lat="42.98593" lon="2.00464">
        <ele>393.7820032</ele>
        <time>2016-11-01T16:18:11.008Z</time>
      </trkpt>
      <trkpt lat="42.98592" lon="2.00456">
        <ele>393</ele>
        <time>2016-11-01T16:18:12.008Z</time>
      </trkpt>
      <trkpt lat="42.98593" lon="2.00449">
        <ele>393</ele>
        <time>2016-11-01T16:18:13.008Z</time>
      </trkpt>
      <trkpt lat="42.98597" lon="2.00443">
        <ele>393</ele>
        <time>2016-11-01T16:18:14.008Z</time>
      </trkpt>
      <trkpt lat="42.98603" lon="2.00438">
        <ele>393</ele>
        <time>2016-11-01T16:18:15.008Z</time>
      </trkpt>
      <trkpt lat="42.98609" lon="2.00435">
        <ele>392.5640064</ele>
        <time>2016-11-01T16:18:16.008Z</time>
      </trkpt>
      <trkpt lat="42.98617" lon="2.00434">
        <ele>391</ele>
        <time>2016-11-01T16:18:17.008Z</time>
      </trkpt>
      <trkpt lat="42.98625" lon="2.00436">
        <ele>391</ele>
        <time>2016-11-01T16:18:18.008Z</time>
      </trkpt>
      <trkpt lat="42.98641" lon="2.00434">
        <ele>391</ele>
        <time>2016-11-01T16:18:20.008Z</time>
      </trkpt>
      <trkpt lat="42.9865" lon="2.00426">
        <ele>387.5640064</ele>
        <time>2016-11-01T16:18:22.008Z</time>
      </trkpt>
      <trkpt lat="42.98652" lon="2.00419">
        <ele>386</ele>
        <time>2016-11-01T16:18:24.008Z</time>
      </trkpt>
      <trkpt lat="42.98651" lon="2.00412">
        <ele>386</ele>
        <time>2016-11-01T16:18:35.008Z</time>
      </trkpt>
      <trkpt lat="42.98643" lon="2.00413">
        <ele>386</ele>
        <time>2016-11-01T16:18:38.008Z</time>
      </trkpt>
      <trkpt lat="42.98635" lon="2.00413">
        <ele>386</ele>
        <time>2016-11-01T16:18:40.008Z</time>
      </trkpt>
      <trkpt lat="42.98628" lon="2.00415">
        <ele>387</ele>
        <time>2016-11-01T16:18:42.008Z</time>
      </trkpt>
      <trkpt lat="42.9862" lon="2.00417">
        <ele>387</ele>
        <time>2016-11-01T16:18:44.008Z</time>
      </trkpt>
      <trkpt lat="42.98612" lon="2.00419">
        <ele>387</ele>
        <time>2016-11-01T16:18:46.008Z</time>
      </trkpt>
      <trkpt lat="42.98605" lon="2.00421">
        <ele>387</ele>
        <time>2016-11-01T16:18:48.008Z</time>
      </trkpt>
      <trkpt lat="42.98598" lon="2.00424">
        <ele>387</ele>
        <time>2016-11-01T16:18:50.008Z</time>
      </trkpt>
      <trkpt lat="42.98591" lon="2.00428">
        <ele>389</ele>
        <time>2016-11-01T16:18:52.008Z</time>
      </trkpt>
      <trkpt lat="42.98584" lon="2.00433">
        <ele>389</ele>
        <time>2016-11-01T16:18:54.008Z</time>
      </trkpt>
      <trkpt lat="42.98581" lon="2.00437">
        <ele>389</ele>
        <time>2016-11-01T16:18:55.008Z</time>
      </trkpt>
      <trkpt lat="42.98578" lon="2.0044">
        <ele>389</ele>
        <time>2016-11-01T16:18:56.008Z</time>
      </trkpt>
      <trkpt lat="42.98575" lon="2.00444">
        <ele>389</ele>
        <time>2016-11-01T16:18:57.008Z</time>
      </trkpt>
      <trkpt lat="42.98572" lon="2.00448">
        <ele>389</ele>
        <time>2016-11-01T16:18:58.008Z</time>
      </trkpt>
      <trkpt lat="42.98569" lon="2.00451">
        <ele>389</ele>
        <time>2016-11-01T16:18:59.008Z</time>
      </trkpt>
      <trkpt lat="42.98566" lon="2.00454">
        <ele>389</ele>
        <time>2016-11-01T16:19:00.008Z</time>
      </trkpt>
      <trkpt lat="42.98563" lon="2.00457">
        <ele>389</ele>
        <time>2016-11-01T16:19:01.008Z</time>
      </trkpt>
      <trkpt lat="42.98559" lon="2.00459">
        <ele>389</ele>
        <time>2016-11-01T16:19:02.008Z</time>
      </trkpt>
      <trkpt lat="42.98555" lon="2.00459">
        <ele>389</ele>
        <time>2016-11-01T16:19:03.008Z</time>
      </trkpt>
      <trkpt lat="42.98547" lon="2.00459">
        <ele>389</ele>
        <time>2016-11-01T16:19:05.008Z</time>
      </trkpt>
      <trkpt lat="42.98542" lon="2.00459">
        <ele>389</ele>
        <time>2016-11-01T16:19:06.008Z</time>
      </trkpt>
      <trkpt lat="42.98537" lon="2.00458">
        <ele>389</ele>
        <time>2016-11-01T16:19:07.008Z</time>
      </trkpt>
      <trkpt lat="42.98532" lon="2.00458">
        <ele>389</ele>
        <time>2016-11-01T16:19:08.008Z</time>
      </trkpt>
      <trkpt lat="42.98526" lon="2.00457">
        <ele>389</ele>
        <time>2016-11-01T16:19:09.008Z</time>
      </trkpt>
      <trkpt lat="42.98521" lon="2.00455">
        <ele>389</ele>
        <time>2016-11-01T16:19:10.008Z</time>
      </trkpt>
      <trkpt lat="42.98517" lon="2.0045">
        <ele>388.5640064</ele>
        <time>2016-11-01T16:19:11.008Z</time>
      </trkpt>
      <trkpt lat="42.98513" lon="2.00444">
        <ele>387</ele>
        <time>2016-11-01T16:19:12.008Z</time>
      </trkpt>
      <trkpt lat="42.98509" lon="2.00437">
        <ele>387</ele>
        <time>2016-11-01T16:19:13.008Z</time>
      </trkpt>
      <trkpt lat="42.98504" lon="2.00431">
        <ele>387</ele>
        <time>2016-11-01T16:19:14.008Z</time>
      </trkpt>
      <trkpt lat="42.98499" lon="2.00426">
        <ele>387</ele>
        <time>2016-11-01T16:19:15.008Z</time>
      </trkpt>
      <trkpt lat="42.98494" lon="2.00422">
        <ele>387</ele>
        <time>2016-11-01T16:19:16.008Z</time>
      </trkpt>
      <trkpt lat="42.98481" lon="2.00422">
        <ele>387</ele>
        <time>2016-11-01T16:19:18.008Z</time>
      </trkpt>
      <trkpt lat="42.98475" lon="2.00427">
        <ele>387</ele>
        <time>2016-11-01T16:19:19.008Z</time>
      </trkpt>
      <trkpt lat="42.98468" lon="2.00433">
        <ele>387</ele>
        <time>2016-11-01T16:19:20.008Z</time>
      </trkpt>
      <trkpt lat="42.98462" lon="2.00439">
        <ele>386.1280128</ele>
        <time>2016-11-01T16:19:21.008Z</time>
      </trkpt>
      <trkpt lat="42.98455" lon="2.00446">
        <ele>383</ele>
        <time>2016-11-01T16:19:22.008Z</time>
      </trkpt>
      <trkpt lat="42.98447" lon="2.00451">
        <ele>383</ele>
        <time>2016-11-01T16:19:23.008Z</time>
      </trkpt>
      <trkpt lat="42.9844" lon="2.00456">
        <ele>383</ele>
        <time>2016-11-01T16:19:24.008Z</time>
      </trkpt>
      <trkpt lat="42.98432" lon="2.00461">
        <ele>383</ele>
        <time>2016-11-01T16:19:25.008Z</time>
      </trkpt>
      <trkpt lat="42.98425" lon="2.00464">
        <ele>382.3460096</ele>
        <time>2016-11-01T16:19:26.008Z</time>
      </trkpt>
      <trkpt lat="42.98413" lon="2.00471">
        <ele>380</ele>
        <time>2016-11-01T16:19:28.008Z</time>
      </trkpt>
      <trkpt lat="42.98403" lon="2.00479">
        <ele>380</ele>
        <time>2016-11-01T16:19:30.008Z</time>
      </trkpt>
      <trkpt lat="42.98396" lon="2.00491">
        <ele>379</ele>
        <time>2016-11-01T16:19:32.008Z</time>
      </trkpt>
      <trkpt lat="42.9839" lon="2.00502">
        <ele>379</ele>
        <time>2016-11-01T16:19:34.008Z</time>
      </trkpt>
      <trkpt lat="42.98385" lon="2.00512">
        <ele>379.21583909969</ele>
        <time>2016-11-01T16:19:36.008Z</time>
      </trkpt>
      <trkpt lat="42.98382" lon="2.00516">
        <ele>380</ele>
        <time>2016-11-01T16:19:37.008Z</time>
      </trkpt>
      <trkpt lat="42.98377" lon="2.00522">
        <ele>380</ele>
        <time>2016-11-01T16:19:39.008Z</time>
      </trkpt>
      <trkpt lat="42.98378" lon="2.00529">
        <ele>380</ele>
        <time>2016-11-01T16:19:41.008Z</time>
      </trkpt>
      <trkpt lat="42.98378" lon="2.00535">
        <ele>380</ele>
        <time>2016-11-01T16:19:43.008Z</time>
      </trkpt>
      <trkpt lat="42.98374" lon="2.0053">
        <ele>380</ele>
        <time>2016-11-01T16:19:46.008Z</time>
      </trkpt>
      <trkpt lat="42.98368" lon="2.00531">
        <ele>380</ele>
        <time>2016-11-01T16:19:48.008Z</time>
      </trkpt>
      <trkpt lat="42.98361" lon="2.00535">
        <ele>380</ele>
        <time>2016-11-01T16:19:50.008Z</time>
      </trkpt>
      <trkpt lat="42.98354" lon="2.0054">
        <ele>379</ele>
        <time>2016-11-01T16:19:52.008Z</time>
      </trkpt>
      <trkpt lat="42.98348" lon="2.00543">
        <ele>379</ele>
        <time>2016-11-01T16:19:54.008Z</time>
      </trkpt>
      <trkpt lat="42.98337" lon="2.00541">
        <ele>379</ele>
        <time>2016-11-01T16:19:57.008Z</time>
      </trkpt>
      <trkpt lat="42.98329" lon="2.00537">
        <ele>379</ele>
        <time>2016-11-01T16:20:00.008Z</time>
      </trkpt>
      <trkpt lat="42.98318" lon="2.00534">
        <ele>378</ele>
        <time>2016-11-01T16:20:03.008Z</time>
      </trkpt>
      <trkpt lat="42.9831" lon="2.00528">
        <ele>378</ele>
        <time>2016-11-01T16:20:05.008Z</time>
      </trkpt>
      <trkpt lat="42.98302" lon="2.00522">
        <ele>378</ele>
        <time>2016-11-01T16:20:07.008Z</time>
      </trkpt>
      <trkpt lat="42.98294" lon="2.00517">
        <ele>378</ele>
        <time>2016-11-01T16:20:09.008Z</time>
      </trkpt>
      <trkpt lat="42.98285" lon="2.00513">
        <ele>378</ele>
        <time>2016-11-01T16:20:11.008Z</time>
      </trkpt>
      <trkpt lat="42.98276" lon="2.0051">
        <ele>378</ele>
        <time>2016-11-01T16:20:13.008Z</time>
      </trkpt>
      <trkpt lat="42.98267" lon="2.00504">
        <ele>378</ele>
        <time>2016-11-01T16:20:15.008Z</time>
      </trkpt>
      <trkpt lat="42.98258" lon="2.005">
        <ele>378</ele>
        <time>2016-11-01T16:20:17.008Z</time>
      </trkpt>
      <trkpt lat="42.98249" lon="2.00506">
        <ele>378</ele>
        <time>2016-11-01T16:20:21.008Z</time>
      </trkpt>
      <trkpt lat="42.98246" lon="2.00517">
        <ele>378</ele>
        <time>2016-11-01T16:20:23.008Z</time>
      </trkpt>
      <trkpt lat="42.98241" lon="2.00528">
        <ele>378</ele>
        <time>2016-11-01T16:20:26.008Z</time>
      </trkpt>
      <trkpt lat="42.98233" lon="2.00533">
        <ele>378</ele>
        <time>2016-11-01T16:20:29.008Z</time>
      </trkpt>
      <trkpt lat="42.98227" lon="2.00533">
        <ele>378</ele>
        <time>2016-11-01T16:20:33.008Z</time>
      </trkpt>
      <trkpt lat="42.98234" lon="2.00532">
        <ele>378</ele>
        <time>2016-11-01T16:20:40.008Z</time>
      </trkpt>
      <trkpt lat="42.98243" lon="2.00532">
        <ele>379</ele>
        <time>2016-11-01T16:20:42.008Z</time>
      </trkpt>
      <trkpt lat="42.9825" lon="2.00535">
        <ele>379</ele>
        <time>2016-11-01T16:20:44.008Z</time>
      </trkpt>
      <trkpt lat="42.98257" lon="2.0054">
        <ele>379</ele>
        <time>2016-11-01T16:20:46.008Z</time>
      </trkpt>
      <trkpt lat="42.98263" lon="2.00545">
        <ele>379</ele>
        <time>2016-11-01T16:20:48.008Z</time>
      </trkpt>
      <trkpt lat="42.98269" lon="2.00551">
        <ele>379</ele>
        <time>2016-11-01T16:20:50.008Z</time>
      </trkpt>
      <trkpt lat="42.98276" lon="2.00557">
        <ele>380</ele>
        <time>2016-11-01T16:20:52.008Z</time>
      </trkpt>
      <trkpt lat="42.98284" lon="2.00562">
        <ele>380</ele>
        <time>2016-11-01T16:20:54.008Z</time>
      </trkpt>
      <trkpt lat="42.98291" lon="2.00568">
        <ele>380</ele>
        <time>2016-11-01T16:20:56.008Z</time>
      </trkpt>
      <trkpt lat="42.98299" lon="2.00573">
        <ele>380</ele>
        <time>2016-11-01T16:20:58.008Z</time>
      </trkpt>
      <trkpt lat="42.98308" lon="2.00577">
        <ele>380</ele>
        <time>2016-11-01T16:21:00.008Z</time>
      </trkpt>
      <trkpt lat="42.98317" lon="2.00582">
        <ele>380</ele>
        <time>2016-11-01T16:21:02.008Z</time>
      </trkpt>
      <trkpt lat="42.98322" lon="2.00585">
        <ele>380</ele>
        <time>2016-11-01T16:21:03.008Z</time>
      </trkpt>
      <trkpt lat="42.98329" lon="2.00593">
        <ele>380</ele>
        <time>2016-11-01T16:21:05.008Z</time>
      </trkpt>
      <trkpt lat="42.98332" lon="2.00604">
        <ele>380</ele>
        <time>2016-11-01T16:21:07.008Z</time>
      </trkpt>
      <trkpt lat="42.98332" lon="2.00615">
        <ele>380</ele>
        <time>2016-11-01T16:21:09.008Z</time>
      </trkpt>
      <trkpt lat="42.98331" lon="2.00626">
        <ele>380</ele>
        <time>2016-11-01T16:21:11.008Z</time>
      </trkpt>
      <trkpt lat="42.98329" lon="2.00637">
        <ele>380</ele>
        <time>2016-11-01T16:21:13.008Z</time>
      </trkpt>
      <trkpt lat="42.98327" lon="2.00647">
        <ele>380</ele>
        <time>2016-11-01T16:21:15.008Z</time>
      </trkpt>
      <trkpt lat="42.98325" lon="2.00657">
        <ele>380</ele>
        <time>2016-11-01T16:21:17.008Z</time>
      </trkpt>
      <trkpt lat="42.98324" lon="2.00666">
        <ele>380</ele>
        <time>2016-11-01T16:21:19.008Z</time>
      </trkpt>
      <trkpt lat="42.98323" lon="2.00675">
        <ele>380.20373715503</ele>
        <time>2016-11-01T16:21:21.008Z</time>
      </trkpt>
      <trkpt lat="42.98323" lon="2.00685">
        <ele>381.01989493523</ele>
        <time>2016-11-01T16:21:23.008Z</time>
      </trkpt>
    </trkseg>
  </trk>
</gpx>